<?xml version="1.0" encoding="UTF-8"?>
<gpx version="1.1" creator="https://www.www-youtrack-es.amenigma.com" xsi:schemaLocation="http://www.topografix.com/GPX/1/1 http://www.topografix.com/GPX/1/1/gpx.xsd http://www.garmin.com/xmlschemas/GpxExtensions/v3 http://www.garmin.com/xmlschemas/GpxExtensionsv3.xsd http://www.garmin.com/xmlschemas/TrackPointExtension/v1 http://www.garmin.com/xmlschemas/TrackPointExtensionv1.xsd" xmlns:gpxtpx="http://www.garmin.com/xmlschemas/TrackPointExtension/v1" xmlns:gpxx="http://www.garmin.com/xmlschemas/GpxExtensions/v3" xmlns:xsi="http://www.w3.org/2001/XMLSchema-instance">
  <metadata>
    <link href="https://www.www-youtrack-es.amenigma.com">
      <text>YouTrack.es</text>
    </link>
    <time>2026-08-31T04:48:11Z</time>
  </metadata>
  <trk>
    <src>https://www.www-youtrack-es.amenigma.com</src>
    <link href="https://www.www-youtrack-es.amenigma.com/ruta/16264-angles-st-cugat-oktobergravel">
      <text>YouTrack.es</text>
    </link>
    <trkseg>
      <trkpt lat="41.958430" lon="2.634860">
        <ele>154.00</ele>
        <time>2020-09-29T10:49:22.31Z</time>
      </trkpt>
      <trkpt lat="41.958380" lon="2.636200">
        <ele>153.00</ele>
        <time>2020-09-29T10:49:47.25Z</time>
      </trkpt>
      <trkpt lat="41.958380" lon="2.637360">
        <ele>151.00</ele>
        <time>2020-09-29T10:50:08.82Z</time>
      </trkpt>
      <trkpt lat="41.958380" lon="2.637360">
        <ele>151.00</ele>
        <time>2020-09-29T10:50:09.04Z</time>
      </trkpt>
      <trkpt lat="41.958390" lon="2.640070">
        <ele>151.00</ele>
        <time>2020-09-29T10:50:59.43Z</time>
      </trkpt>
      <trkpt lat="41.958370" lon="2.642260">
        <ele>147.00</ele>
        <time>2020-09-29T10:51:40.14Z</time>
      </trkpt>
      <trkpt lat="41.958370" lon="2.644640">
        <ele>144.00</ele>
        <time>2020-09-29T10:52:24.39Z</time>
      </trkpt>
      <trkpt lat="41.958370" lon="2.644650">
        <ele>144.00</ele>
        <time>2020-09-29T10:52:24.61Z</time>
      </trkpt>
      <trkpt lat="41.958370" lon="2.647340">
        <ele>144.00</ele>
        <time>2020-09-29T10:53:14.62Z</time>
      </trkpt>
      <trkpt lat="41.958280" lon="2.647850">
        <ele>144.00</ele>
        <time>2020-09-29T10:53:24.37Z</time>
      </trkpt>
      <trkpt lat="41.958120" lon="2.648040">
        <ele>143.00</ele>
        <time>2020-09-29T10:53:29.70Z</time>
      </trkpt>
      <trkpt lat="41.958350" lon="2.649120">
        <ele>142.00</ele>
        <time>2020-09-29T10:53:50.59Z</time>
      </trkpt>
      <trkpt lat="41.958340" lon="2.649130">
        <ele>142.00</ele>
        <time>2020-09-29T10:53:50.90Z</time>
      </trkpt>
      <trkpt lat="41.958520" lon="2.649950">
        <ele>141.00</ele>
        <time>2020-09-29T10:54:06.80Z</time>
      </trkpt>
      <trkpt lat="41.958560" lon="2.649990">
        <ele>141.00</ele>
        <time>2020-09-29T10:54:08.04Z</time>
      </trkpt>
      <trkpt lat="41.958660" lon="2.649950">
        <ele>141.00</ele>
        <time>2020-09-29T10:54:10.65Z</time>
      </trkpt>
      <trkpt lat="41.959390" lon="2.653210">
        <ele>141.00</ele>
        <time>2020-09-29T10:55:13.94Z</time>
      </trkpt>
      <trkpt lat="41.959390" lon="2.653210">
        <ele>141.00</ele>
        <time>2020-09-29T10:55:14.17Z</time>
      </trkpt>
      <trkpt lat="41.959570" lon="2.654050">
        <ele>141.00</ele>
        <time>2020-09-29T10:55:30.42Z</time>
      </trkpt>
      <trkpt lat="41.959620" lon="2.654240">
        <ele>141.00</ele>
        <time>2020-09-29T10:55:34.17Z</time>
      </trkpt>
      <trkpt lat="41.959770" lon="2.654370">
        <ele>142.00</ele>
        <time>2020-09-29T10:55:38.63Z</time>
      </trkpt>
      <trkpt lat="41.959810" lon="2.654440">
        <ele>142.00</ele>
        <time>2020-09-29T10:55:40.27Z</time>
      </trkpt>
      <trkpt lat="41.959830" lon="2.654530">
        <ele>142.00</ele>
        <time>2020-09-29T10:55:42.02Z</time>
      </trkpt>
      <trkpt lat="41.959810" lon="2.654670">
        <ele>143.00</ele>
        <time>2020-09-29T10:55:44.67Z</time>
      </trkpt>
      <trkpt lat="41.959750" lon="2.654800">
        <ele>143.00</ele>
        <time>2020-09-29T10:55:47.51Z</time>
      </trkpt>
      <trkpt lat="41.959750" lon="2.654890">
        <ele>144.00</ele>
        <time>2020-09-29T10:55:49.18Z</time>
      </trkpt>
      <trkpt lat="41.960080" lon="2.656400">
        <ele>142.00</ele>
        <time>2020-09-29T10:56:18.44Z</time>
      </trkpt>
      <trkpt lat="41.960070" lon="2.656410">
        <ele>142.00</ele>
        <time>2020-09-29T10:56:18.75Z</time>
      </trkpt>
      <trkpt lat="41.960300" lon="2.657350">
        <ele>140.00</ele>
        <time>2020-09-29T10:56:37.15Z</time>
      </trkpt>
      <trkpt lat="41.960310" lon="2.657460">
        <ele>140.00</ele>
        <time>2020-09-29T10:56:39.21Z</time>
      </trkpt>
      <trkpt lat="41.960840" lon="2.659790">
        <ele>137.00</ele>
        <time>2020-09-29T10:57:24.51Z</time>
      </trkpt>
      <trkpt lat="41.960870" lon="2.659860">
        <ele>137.00</ele>
        <time>2020-09-29T10:57:26.01Z</time>
      </trkpt>
      <trkpt lat="41.961010" lon="2.660000">
        <ele>137.00</ele>
        <time>2020-09-29T10:57:30.37Z</time>
      </trkpt>
      <trkpt lat="41.961040" lon="2.660060">
        <ele>137.00</ele>
        <time>2020-09-29T10:57:31.71Z</time>
      </trkpt>
      <trkpt lat="41.961060" lon="2.660140">
        <ele>137.00</ele>
        <time>2020-09-29T10:57:33.28Z</time>
      </trkpt>
      <trkpt lat="41.961060" lon="2.660250">
        <ele>137.00</ele>
        <time>2020-09-29T10:57:35.33Z</time>
      </trkpt>
      <trkpt lat="41.961030" lon="2.660490">
        <ele>137.00</ele>
        <time>2020-09-29T10:57:39.85Z</time>
      </trkpt>
      <trkpt lat="41.961030" lon="2.660640">
        <ele>137.00</ele>
        <time>2020-09-29T10:57:42.64Z</time>
      </trkpt>
      <trkpt lat="41.961090" lon="2.660920">
        <ele>137.00</ele>
        <time>2020-09-29T10:57:48.06Z</time>
      </trkpt>
      <trkpt lat="41.961090" lon="2.660930">
        <ele>137.00</ele>
        <time>2020-09-29T10:57:48.28Z</time>
      </trkpt>
      <trkpt lat="41.961630" lon="2.663410">
        <ele>137.00</ele>
        <time>2020-09-29T10:58:36.32Z</time>
      </trkpt>
      <trkpt lat="41.962190" lon="2.665840">
        <ele>134.00</ele>
        <time>2020-09-29T10:59:23.61Z</time>
      </trkpt>
      <trkpt lat="41.962190" lon="2.665850">
        <ele>134.00</ele>
        <time>2020-09-29T10:59:23.84Z</time>
      </trkpt>
      <trkpt lat="41.962370" lon="2.666630">
        <ele>136.00</ele>
        <time>2020-09-29T10:59:39.02Z</time>
      </trkpt>
      <trkpt lat="41.963140" lon="2.670230">
        <ele>134.00</ele>
        <time>2020-09-29T11:00:48.66Z</time>
      </trkpt>
      <trkpt lat="41.963490" lon="2.670830">
        <ele>134.00</ele>
        <time>2020-09-29T11:01:02.83Z</time>
      </trkpt>
      <trkpt lat="41.963820" lon="2.671270">
        <ele>133.00</ele>
        <time>2020-09-29T11:01:14.45Z</time>
      </trkpt>
      <trkpt lat="41.964630" lon="2.672020">
        <ele>132.00</ele>
        <time>2020-09-29T11:01:39.04Z</time>
      </trkpt>
      <trkpt lat="41.964620" lon="2.672030">
        <ele>132.00</ele>
        <time>2020-09-29T11:01:39.35Z</time>
      </trkpt>
      <trkpt lat="41.965680" lon="2.672970">
        <ele>132.00</ele>
        <time>2020-09-29T11:02:11.09Z</time>
      </trkpt>
      <trkpt lat="41.965880" lon="2.673070">
        <ele>132.00</ele>
        <time>2020-09-29T11:02:16.42Z</time>
      </trkpt>
      <trkpt lat="41.966360" lon="2.673220">
        <ele>135.00</ele>
        <time>2020-09-29T11:02:28.74Z</time>
      </trkpt>
      <trkpt lat="41.966600" lon="2.673270">
        <ele>136.00</ele>
        <time>2020-09-29T11:02:34.82Z</time>
      </trkpt>
      <trkpt lat="41.966830" lon="2.673210">
        <ele>137.00</ele>
        <time>2020-09-29T11:02:40.67Z</time>
      </trkpt>
      <trkpt lat="41.967330" lon="2.673030">
        <ele>139.00</ele>
        <time>2020-09-29T11:02:53.61Z</time>
      </trkpt>
      <trkpt lat="41.968940" lon="2.672930">
        <ele>136.00</ele>
        <time>2020-09-29T11:03:33.91Z</time>
      </trkpt>
      <trkpt lat="41.969060" lon="2.672910">
        <ele>136.00</ele>
        <time>2020-09-29T11:03:36.93Z</time>
      </trkpt>
      <trkpt lat="41.969400" lon="2.672910">
        <ele>135.00</ele>
        <time>2020-09-29T11:03:45.43Z</time>
      </trkpt>
      <trkpt lat="41.969550" lon="2.672920">
        <ele>135.00</ele>
        <time>2020-09-29T11:03:49.18Z</time>
      </trkpt>
      <trkpt lat="41.969760" lon="2.673030">
        <ele>135.00</ele>
        <time>2020-09-29T11:03:54.82Z</time>
      </trkpt>
      <trkpt lat="41.969980" lon="2.673240">
        <ele>135.00</ele>
        <time>2020-09-29T11:04:01.56Z</time>
      </trkpt>
      <trkpt lat="41.970150" lon="2.673460">
        <ele>134.00</ele>
        <time>2020-09-29T11:04:07.46Z</time>
      </trkpt>
      <trkpt lat="41.970150" lon="2.673470">
        <ele>134.00</ele>
        <time>2020-09-29T11:04:07.68Z</time>
      </trkpt>
      <trkpt lat="41.970880" lon="2.674470">
        <ele>132.00</ele>
        <time>2020-09-29T11:04:33.73Z</time>
      </trkpt>
      <trkpt lat="41.971020" lon="2.674750">
        <ele>132.00</ele>
        <time>2020-09-29T11:04:40Z</time>
      </trkpt>
      <trkpt lat="41.971330" lon="2.675240">
        <ele>132.00</ele>
        <time>2020-09-29T11:04:51.96Z</time>
      </trkpt>
      <trkpt lat="41.971530" lon="2.675430">
        <ele>132.00</ele>
        <time>2020-09-29T11:04:58.08Z</time>
      </trkpt>
      <trkpt lat="41.971680" lon="2.675610">
        <ele>132.00</ele>
        <time>2020-09-29T11:05:03.11Z</time>
      </trkpt>
      <trkpt lat="41.971870" lon="2.675890">
        <ele>132.00</ele>
        <time>2020-09-29T11:05:10.16Z</time>
      </trkpt>
      <trkpt lat="41.972070" lon="2.676320">
        <ele>132.00</ele>
        <time>2020-09-29T11:05:19.58Z</time>
      </trkpt>
      <trkpt lat="41.972080" lon="2.676320">
        <ele>132.00</ele>
        <time>2020-09-29T11:05:19.83Z</time>
      </trkpt>
      <trkpt lat="41.972180" lon="2.676570">
        <ele>131.00</ele>
        <time>2020-09-29T11:05:25.11Z</time>
      </trkpt>
      <trkpt lat="41.972240" lon="2.676950">
        <ele>130.00</ele>
        <time>2020-09-29T11:05:32.33Z</time>
      </trkpt>
      <trkpt lat="41.972300" lon="2.677410">
        <ele>129.00</ele>
        <time>2020-09-29T11:05:41.01Z</time>
      </trkpt>
      <trkpt lat="41.972340" lon="2.677950">
        <ele>128.00</ele>
        <time>2020-09-29T11:05:51.10Z</time>
      </trkpt>
      <trkpt lat="41.972290" lon="2.679190">
        <ele>127.00</ele>
        <time>2020-09-29T11:06:14.18Z</time>
      </trkpt>
      <trkpt lat="41.972340" lon="2.681270">
        <ele>126.00</ele>
        <time>2020-09-29T11:06:52.86Z</time>
      </trkpt>
      <trkpt lat="41.972340" lon="2.681270">
        <ele>126.00</ele>
        <time>2020-09-29T11:06:53.08Z</time>
      </trkpt>
      <trkpt lat="41.972380" lon="2.682900">
        <ele>125.00</ele>
        <time>2020-09-29T11:07:23.40Z</time>
      </trkpt>
      <trkpt lat="41.972360" lon="2.683820">
        <ele>124.00</ele>
        <time>2020-09-29T11:07:40.50Z</time>
      </trkpt>
      <trkpt lat="41.972400" lon="2.686600">
        <ele>126.00</ele>
        <time>2020-09-29T11:08:32.19Z</time>
      </trkpt>
      <trkpt lat="41.972420" lon="2.686940">
        <ele>127.00</ele>
        <time>2020-09-29T11:08:38.52Z</time>
      </trkpt>
      <trkpt lat="41.972520" lon="2.687470">
        <ele>128.00</ele>
        <time>2020-09-29T11:08:48.69Z</time>
      </trkpt>
      <trkpt lat="41.972670" lon="2.687740">
        <ele>128.00</ele>
        <time>2020-09-29T11:08:54.95Z</time>
      </trkpt>
      <trkpt lat="41.973190" lon="2.688810">
        <ele>127.00</ele>
        <time>2020-09-29T11:09:18.71Z</time>
      </trkpt>
      <trkpt lat="41.973350" lon="2.689250">
        <ele>126.00</ele>
        <time>2020-09-29T11:09:27.82Z</time>
      </trkpt>
      <trkpt lat="41.973460" lon="2.689620">
        <ele>125.00</ele>
        <time>2020-09-29T11:09:35.22Z</time>
      </trkpt>
      <trkpt lat="41.973450" lon="2.689630">
        <ele>125.00</ele>
        <time>2020-09-29T11:09:35.53Z</time>
      </trkpt>
      <trkpt lat="41.974160" lon="2.692200">
        <ele>122.00</ele>
        <time>2020-09-29T11:10:26.49Z</time>
      </trkpt>
      <trkpt lat="41.974320" lon="2.692680">
        <ele>121.00</ele>
        <time>2020-09-29T11:10:36.27Z</time>
      </trkpt>
      <trkpt lat="41.974720" lon="2.693330">
        <ele>121.00</ele>
        <time>2020-09-29T11:10:51.95Z</time>
      </trkpt>
      <trkpt lat="41.974990" lon="2.693840">
        <ele>122.00</ele>
        <time>2020-09-29T11:11:03.59Z</time>
      </trkpt>
      <trkpt lat="41.975220" lon="2.694300">
        <ele>123.00</ele>
        <time>2020-09-29T11:11:13.89Z</time>
      </trkpt>
      <trkpt lat="41.975370" lon="2.694730">
        <ele>125.00</ele>
        <time>2020-09-29T11:11:22.72Z</time>
      </trkpt>
      <trkpt lat="41.975670" lon="2.695260">
        <ele>127.00</ele>
        <time>2020-09-29T11:11:35.10Z</time>
      </trkpt>
      <trkpt lat="41.975680" lon="2.695260">
        <ele>127.00</ele>
        <time>2020-09-29T11:11:35.35Z</time>
      </trkpt>
      <trkpt lat="41.976030" lon="2.695860">
        <ele>129.00</ele>
        <time>2020-09-29T11:11:49.52Z</time>
      </trkpt>
      <trkpt lat="41.976120" lon="2.696070">
        <ele>129.00</ele>
        <time>2020-09-29T11:11:54.03Z</time>
      </trkpt>
      <trkpt lat="41.976250" lon="2.696580">
        <ele>130.00</ele>
        <time>2020-09-29T11:12:04.05Z</time>
      </trkpt>
      <trkpt lat="41.976330" lon="2.697030">
        <ele>130.00</ele>
        <time>2020-09-29T11:12:12.65Z</time>
      </trkpt>
      <trkpt lat="41.976530" lon="2.697770">
        <ele>128.00</ele>
        <time>2020-09-29T11:12:27.28Z</time>
      </trkpt>
      <trkpt lat="41.976930" lon="2.698870">
        <ele>126.00</ele>
        <time>2020-09-29T11:12:50.04Z</time>
      </trkpt>
      <trkpt lat="41.977130" lon="2.699360">
        <ele>126.00</ele>
        <time>2020-09-29T11:13:00.43Z</time>
      </trkpt>
      <trkpt lat="41.977300" lon="2.699630">
        <ele>125.00</ele>
        <time>2020-09-29T11:13:07.01Z</time>
      </trkpt>
      <trkpt lat="41.977580" lon="2.699970">
        <ele>125.00</ele>
        <time>2020-09-29T11:13:16.44Z</time>
      </trkpt>
      <trkpt lat="41.977590" lon="2.699970">
        <ele>125.00</ele>
        <time>2020-09-29T11:13:16.69Z</time>
      </trkpt>
      <trkpt lat="41.977940" lon="2.700400">
        <ele>123.00</ele>
        <time>2020-09-29T11:13:28.54Z</time>
      </trkpt>
      <trkpt lat="41.978440" lon="2.700920">
        <ele>123.00</ele>
        <time>2020-09-29T11:13:44.34Z</time>
      </trkpt>
      <trkpt lat="41.978610" lon="2.701200">
        <ele>123.00</ele>
        <time>2020-09-29T11:13:51.06Z</time>
      </trkpt>
      <trkpt lat="41.978730" lon="2.701510">
        <ele>123.00</ele>
        <time>2020-09-29T11:13:57.55Z</time>
      </trkpt>
      <trkpt lat="41.978800" lon="2.701810">
        <ele>123.00</ele>
        <time>2020-09-29T11:14:03.40Z</time>
      </trkpt>
      <trkpt lat="41.978840" lon="2.702090">
        <ele>123.00</ele>
        <time>2020-09-29T11:14:08.69Z</time>
      </trkpt>
      <trkpt lat="41.978830" lon="2.702180">
        <ele>123.00</ele>
        <time>2020-09-29T11:14:10.39Z</time>
      </trkpt>
      <trkpt lat="41.978820" lon="2.702180">
        <ele>123.00</ele>
        <time>2020-09-29T11:14:10.64Z</time>
      </trkpt>
      <trkpt lat="41.978790" lon="2.702440">
        <ele>123.00</ele>
        <time>2020-09-29T11:14:15.53Z</time>
      </trkpt>
      <trkpt lat="41.978840" lon="2.702660">
        <ele>123.00</ele>
        <time>2020-09-29T11:14:19.80Z</time>
      </trkpt>
      <trkpt lat="41.978860" lon="2.703310">
        <ele>121.00</ele>
        <time>2020-09-29T11:14:31.89Z</time>
      </trkpt>
      <trkpt lat="41.978910" lon="2.704780">
        <ele>123.00</ele>
        <time>2020-09-29T11:14:59.24Z</time>
      </trkpt>
      <trkpt lat="41.978880" lon="2.705220">
        <ele>122.00</ele>
        <time>2020-09-29T11:15:07.45Z</time>
      </trkpt>
      <trkpt lat="41.978640" lon="2.706680">
        <ele>115.00</ele>
        <time>2020-09-29T11:15:35.24Z</time>
      </trkpt>
      <trkpt lat="41.978580" lon="2.706890">
        <ele>114.00</ele>
        <time>2020-09-29T11:15:39.42Z</time>
      </trkpt>
      <trkpt lat="41.978430" lon="2.707670">
        <ele>114.00</ele>
        <time>2020-09-29T11:15:54.40Z</time>
      </trkpt>
      <trkpt lat="41.978360" lon="2.707920">
        <ele>114.00</ele>
        <time>2020-09-29T11:15:59.36Z</time>
      </trkpt>
      <trkpt lat="41.978290" lon="2.708100">
        <ele>114.00</ele>
        <time>2020-09-29T11:16:03.14Z</time>
      </trkpt>
      <trkpt lat="41.978290" lon="2.708100">
        <ele>114.00</ele>
        <time>2020-09-29T11:16:03.36Z</time>
      </trkpt>
      <trkpt lat="41.977940" lon="2.708590">
        <ele>114.00</ele>
        <time>2020-09-29T11:16:15.99Z</time>
      </trkpt>
      <trkpt lat="41.977220" lon="2.709460">
        <ele>112.00</ele>
        <time>2020-09-29T11:16:40.19Z</time>
      </trkpt>
      <trkpt lat="41.975620" lon="2.711450">
        <ele>113.00</ele>
        <time>2020-09-29T11:17:34.66Z</time>
      </trkpt>
      <trkpt lat="41.975620" lon="2.711450">
        <ele>113.00</ele>
        <time>2020-09-29T11:17:34.89Z</time>
      </trkpt>
      <trkpt lat="41.973610" lon="2.713960">
        <ele>113.00</ele>
        <time>2020-09-29T11:18:43.46Z</time>
      </trkpt>
      <trkpt lat="41.973610" lon="2.713960">
        <ele>113.00</ele>
        <time>2020-09-29T11:18:43.68Z</time>
      </trkpt>
      <trkpt lat="41.972400" lon="2.715500">
        <ele>115.00</ele>
        <time>2020-09-29T11:19:25.33Z</time>
      </trkpt>
      <trkpt lat="41.970850" lon="2.717420">
        <ele>113.00</ele>
        <time>2020-09-29T11:20:18.01Z</time>
      </trkpt>
      <trkpt lat="41.970850" lon="2.717420">
        <ele>113.00</ele>
        <time>2020-09-29T11:20:18.23Z</time>
      </trkpt>
      <trkpt lat="41.969440" lon="2.719180">
        <ele>112.00</ele>
        <time>2020-09-29T11:21:06.32Z</time>
      </trkpt>
      <trkpt lat="41.969020" lon="2.719630">
        <ele>112.00</ele>
        <time>2020-09-29T11:21:19.75Z</time>
      </trkpt>
      <trkpt lat="41.968790" lon="2.720040">
        <ele>111.00</ele>
        <time>2020-09-29T11:21:29.29Z</time>
      </trkpt>
      <trkpt lat="41.968780" lon="2.720040">
        <ele>111.00</ele>
        <time>2020-09-29T11:21:29.54Z</time>
      </trkpt>
      <trkpt lat="41.968500" lon="2.720420">
        <ele>111.00</ele>
        <time>2020-09-29T11:21:39.49Z</time>
      </trkpt>
      <trkpt lat="41.968430" lon="2.720580">
        <ele>111.00</ele>
        <time>2020-09-29T11:21:42.94Z</time>
      </trkpt>
      <trkpt lat="41.968360" lon="2.720820">
        <ele>111.00</ele>
        <time>2020-09-29T11:21:47.73Z</time>
      </trkpt>
      <trkpt lat="41.968230" lon="2.721410">
        <ele>111.00</ele>
        <time>2020-09-29T11:21:59.17Z</time>
      </trkpt>
      <trkpt lat="41.968160" lon="2.721920">
        <ele>110.00</ele>
        <time>2020-09-29T11:22:08.81Z</time>
      </trkpt>
      <trkpt lat="41.968170" lon="2.722680">
        <ele>108.00</ele>
        <time>2020-09-29T11:22:22.94Z</time>
      </trkpt>
      <trkpt lat="41.968330" lon="2.724400">
        <ele>106.00</ele>
        <time>2020-09-29T11:22:55.16Z</time>
      </trkpt>
      <trkpt lat="41.968350" lon="2.724850">
        <ele>106.00</ele>
        <time>2020-09-29T11:23:03.54Z</time>
      </trkpt>
      <trkpt lat="41.968340" lon="2.726640">
        <ele>103.00</ele>
        <time>2020-09-29T11:23:36.81Z</time>
      </trkpt>
      <trkpt lat="41.968340" lon="2.726630">
        <ele>103.00</ele>
        <time>2020-09-29T11:23:37.04Z</time>
      </trkpt>
      <trkpt lat="41.968320" lon="2.732410">
        <ele>102.00</ele>
        <time>2020-09-29T11:25:24.47Z</time>
      </trkpt>
      <trkpt lat="41.968340" lon="2.733680">
        <ele>102.00</ele>
        <time>2020-09-29T11:25:48.09Z</time>
      </trkpt>
      <trkpt lat="41.968300" lon="2.734830">
        <ele>100.00</ele>
        <time>2020-09-29T11:26:09.49Z</time>
      </trkpt>
      <trkpt lat="41.968320" lon="2.735670">
        <ele>98.00</ele>
        <time>2020-09-29T11:26:25.11Z</time>
      </trkpt>
      <trkpt lat="41.968320" lon="2.735670">
        <ele>98.00</ele>
        <time>2020-09-29T11:26:25.33Z</time>
      </trkpt>
      <trkpt lat="41.968320" lon="2.741510">
        <ele>98.00</ele>
        <time>2020-09-29T11:28:13.89Z</time>
      </trkpt>
      <trkpt lat="41.968320" lon="2.741510">
        <ele>98.00</ele>
        <time>2020-09-29T11:28:14.11Z</time>
      </trkpt>
      <trkpt lat="41.968310" lon="2.742720">
        <ele>99.00</ele>
        <time>2020-09-29T11:28:36.60Z</time>
      </trkpt>
      <trkpt lat="41.968280" lon="2.743680">
        <ele>98.00</ele>
        <time>2020-09-29T11:28:54.46Z</time>
      </trkpt>
      <trkpt lat="41.968310" lon="2.746490">
        <ele>97.00</ele>
        <time>2020-09-29T11:29:46.70Z</time>
      </trkpt>
      <trkpt lat="41.968300" lon="2.747880">
        <ele>98.00</ele>
        <time>2020-09-29T11:30:12.54Z</time>
      </trkpt>
      <trkpt lat="41.968280" lon="2.748030">
        <ele>98.00</ele>
        <time>2020-09-29T11:30:15.37Z</time>
      </trkpt>
      <trkpt lat="41.968320" lon="2.748240">
        <ele>99.00</ele>
        <time>2020-09-29T11:30:19.40Z</time>
      </trkpt>
      <trkpt lat="41.968320" lon="2.748330">
        <ele>99.00</ele>
        <time>2020-09-29T11:30:21.07Z</time>
      </trkpt>
      <trkpt lat="41.968310" lon="2.748320">
        <ele>99.00</ele>
        <time>2020-09-29T11:30:21.39Z</time>
      </trkpt>
      <trkpt lat="41.968290" lon="2.748890">
        <ele>101.00</ele>
        <time>2020-09-29T11:30:31.99Z</time>
      </trkpt>
      <trkpt lat="41.968310" lon="2.749400">
        <ele>104.00</ele>
        <time>2020-09-29T11:30:41.49Z</time>
      </trkpt>
      <trkpt lat="41.968320" lon="2.749510">
        <ele>104.00</ele>
        <time>2020-09-29T11:30:43.55Z</time>
      </trkpt>
      <trkpt lat="41.968420" lon="2.749880">
        <ele>107.00</ele>
        <time>2020-09-29T11:30:50.86Z</time>
      </trkpt>
      <trkpt lat="41.968830" lon="2.750590">
        <ele>113.00</ele>
        <time>2020-09-29T11:31:07.57Z</time>
      </trkpt>
      <trkpt lat="41.969340" lon="2.751340">
        <ele>113.00</ele>
        <time>2020-09-29T11:31:26.47Z</time>
      </trkpt>
      <trkpt lat="41.969640" lon="2.751750">
        <ele>112.00</ele>
        <time>2020-09-29T11:31:37.16Z</time>
      </trkpt>
      <trkpt lat="41.969770" lon="2.751960">
        <ele>111.00</ele>
        <time>2020-09-29T11:31:42.24Z</time>
      </trkpt>
      <trkpt lat="41.970000" lon="2.752640">
        <ele>109.00</ele>
        <time>2020-09-29T11:31:56.12Z</time>
      </trkpt>
      <trkpt lat="41.970060" lon="2.752700">
        <ele>108.00</ele>
        <time>2020-09-29T11:31:57.99Z</time>
      </trkpt>
      <trkpt lat="41.970220" lon="2.752980">
        <ele>106.00</ele>
        <time>2020-09-29T11:32:04.56Z</time>
      </trkpt>
      <trkpt lat="41.970380" lon="2.753200">
        <ele>105.00</ele>
        <time>2020-09-29T11:32:10.28Z</time>
      </trkpt>
      <trkpt lat="41.970390" lon="2.753200">
        <ele>105.00</ele>
        <time>2020-09-29T11:32:10.53Z</time>
      </trkpt>
      <trkpt lat="41.970590" lon="2.753520">
        <ele>104.00</ele>
        <time>2020-09-29T11:32:18.30Z</time>
      </trkpt>
      <trkpt lat="41.970720" lon="2.753940">
        <ele>103.00</ele>
        <time>2020-09-29T11:32:26.75Z</time>
      </trkpt>
      <trkpt lat="41.970740" lon="2.754130">
        <ele>103.00</ele>
        <time>2020-09-29T11:32:30.32Z</time>
      </trkpt>
      <trkpt lat="41.970720" lon="2.754300">
        <ele>103.00</ele>
        <time>2020-09-29T11:32:33.52Z</time>
      </trkpt>
      <trkpt lat="41.970740" lon="2.754340">
        <ele>102.00</ele>
        <time>2020-09-29T11:32:34.41Z</time>
      </trkpt>
      <trkpt lat="41.970860" lon="2.754470">
        <ele>101.00</ele>
        <time>2020-09-29T11:32:38.27Z</time>
      </trkpt>
      <trkpt lat="41.971060" lon="2.754830">
        <ele>100.00</ele>
        <time>2020-09-29T11:32:46.62Z</time>
      </trkpt>
      <trkpt lat="41.971280" lon="2.755330">
        <ele>97.00</ele>
        <time>2020-09-29T11:32:57.42Z</time>
      </trkpt>
      <trkpt lat="41.971560" lon="2.755840">
        <ele>96.00</ele>
        <time>2020-09-29T11:33:09.20Z</time>
      </trkpt>
      <trkpt lat="41.971770" lon="2.756400">
        <ele>95.00</ele>
        <time>2020-09-29T11:33:20.86Z</time>
      </trkpt>
      <trkpt lat="41.971900" lon="2.756930">
        <ele>96.00</ele>
        <time>2020-09-29T11:33:31.23Z</time>
      </trkpt>
      <trkpt lat="41.972080" lon="2.757770">
        <ele>97.00</ele>
        <time>2020-09-29T11:33:47.48Z</time>
      </trkpt>
      <trkpt lat="41.972310" lon="2.759170">
        <ele>95.00</ele>
        <time>2020-09-29T11:34:14.13Z</time>
      </trkpt>
      <trkpt lat="41.972440" lon="2.759610">
        <ele>93.00</ele>
        <time>2020-09-29T11:34:22.93Z</time>
      </trkpt>
      <trkpt lat="41.972770" lon="2.760390">
        <ele>92.00</ele>
        <time>2020-09-29T11:34:39.61Z</time>
      </trkpt>
      <trkpt lat="41.973070" lon="2.761180">
        <ele>92.00</ele>
        <time>2020-09-29T11:34:56.10Z</time>
      </trkpt>
      <trkpt lat="41.973060" lon="2.761190">
        <ele>92.00</ele>
        <time>2020-09-29T11:34:56.41Z</time>
      </trkpt>
      <trkpt lat="41.973270" lon="2.761800">
        <ele>92.00</ele>
        <time>2020-09-29T11:35:08.91Z</time>
      </trkpt>
      <trkpt lat="41.973400" lon="2.762050">
        <ele>91.00</ele>
        <time>2020-09-29T11:35:14.58Z</time>
      </trkpt>
      <trkpt lat="41.973600" lon="2.762310">
        <ele>90.00</ele>
        <time>2020-09-29T11:35:21.53Z</time>
      </trkpt>
      <trkpt lat="41.973990" lon="2.762700">
        <ele>89.00</ele>
        <time>2020-09-29T11:35:33.68Z</time>
      </trkpt>
      <trkpt lat="41.974080" lon="2.762820">
        <ele>89.00</ele>
        <time>2020-09-29T11:35:36.85Z</time>
      </trkpt>
      <trkpt lat="41.974130" lon="2.762970">
        <ele>89.00</ele>
        <time>2020-09-29T11:35:39.90Z</time>
      </trkpt>
      <trkpt lat="41.974190" lon="2.763270">
        <ele>90.00</ele>
        <time>2020-09-29T11:35:45.68Z</time>
      </trkpt>
      <trkpt lat="41.974200" lon="2.763440">
        <ele>91.00</ele>
        <time>2020-09-29T11:35:48.85Z</time>
      </trkpt>
      <trkpt lat="41.974240" lon="2.763580">
        <ele>91.00</ele>
        <time>2020-09-29T11:35:51.63Z</time>
      </trkpt>
      <trkpt lat="41.974660" lon="2.764260">
        <ele>92.00</ele>
        <time>2020-09-29T11:36:08.07Z</time>
      </trkpt>
      <trkpt lat="41.974770" lon="2.764470">
        <ele>92.00</ele>
        <time>2020-09-29T11:36:12.84Z</time>
      </trkpt>
      <trkpt lat="41.974840" lon="2.764650">
        <ele>92.00</ele>
        <time>2020-09-29T11:36:16.62Z</time>
      </trkpt>
      <trkpt lat="41.974930" lon="2.765160">
        <ele>93.00</ele>
        <time>2020-09-29T11:36:26.36Z</time>
      </trkpt>
      <trkpt lat="41.975070" lon="2.765510">
        <ele>93.00</ele>
        <time>2020-09-29T11:36:33.74Z</time>
      </trkpt>
      <trkpt lat="41.975360" lon="2.766190">
        <ele>94.00</ele>
        <time>2020-09-29T11:36:48.31Z</time>
      </trkpt>
      <trkpt lat="41.975450" lon="2.766530">
        <ele>94.00</ele>
        <time>2020-09-29T11:36:55.02Z</time>
      </trkpt>
      <trkpt lat="41.975450" lon="2.766540">
        <ele>94.00</ele>
        <time>2020-09-29T11:36:55.25Z</time>
      </trkpt>
      <trkpt lat="41.975510" lon="2.766730">
        <ele>94.00</ele>
        <time>2020-09-29T11:36:59.08Z</time>
      </trkpt>
      <trkpt lat="41.975940" lon="2.767700">
        <ele>91.00</ele>
        <time>2020-09-29T11:37:20.07Z</time>
      </trkpt>
      <trkpt lat="41.976250" lon="2.768380">
        <ele>91.00</ele>
        <time>2020-09-29T11:37:34.90Z</time>
      </trkpt>
      <trkpt lat="41.976330" lon="2.768610">
        <ele>91.00</ele>
        <time>2020-09-29T11:37:39.62Z</time>
      </trkpt>
      <trkpt lat="41.976840" lon="2.771830">
        <ele>92.00</ele>
        <time>2020-09-29T11:38:40.81Z</time>
      </trkpt>
      <trkpt lat="41.976920" lon="2.772740">
        <ele>91.00</ele>
        <time>2020-09-29T11:38:57.84Z</time>
      </trkpt>
      <trkpt lat="41.976910" lon="2.772750">
        <ele>91.00</ele>
        <time>2020-09-29T11:38:58.15Z</time>
      </trkpt>
      <trkpt lat="41.976970" lon="2.773290">
        <ele>91.00</ele>
        <time>2020-09-29T11:39:08.30Z</time>
      </trkpt>
      <trkpt lat="41.977380" lon="2.775150">
        <ele>90.00</ele>
        <time>2020-09-29T11:39:44.35Z</time>
      </trkpt>
      <trkpt lat="41.977500" lon="2.775090">
        <ele>91.00</ele>
        <time>2020-09-29T11:39:47.55Z</time>
      </trkpt>
      <trkpt lat="41.978320" lon="2.774510">
        <ele>92.00</ele>
        <time>2020-09-29T11:40:10.71Z</time>
      </trkpt>
      <trkpt lat="41.978420" lon="2.774480">
        <ele>92.00</ele>
        <time>2020-09-29T11:40:13.28Z</time>
      </trkpt>
      <trkpt lat="41.978510" lon="2.774520">
        <ele>92.00</ele>
        <time>2020-09-29T11:40:15.65Z</time>
      </trkpt>
      <trkpt lat="41.978860" lon="2.775260">
        <ele>90.00</ele>
        <time>2020-09-29T11:40:31.95Z</time>
      </trkpt>
      <trkpt lat="41.978980" lon="2.775680">
        <ele>90.00</ele>
        <time>2020-09-29T11:40:40.31Z</time>
      </trkpt>
      <trkpt lat="41.979040" lon="2.776070">
        <ele>90.00</ele>
        <time>2020-09-29T11:40:47.71Z</time>
      </trkpt>
      <trkpt lat="41.979040" lon="2.776080">
        <ele>90.00</ele>
        <time>2020-09-29T11:40:47.93Z</time>
      </trkpt>
      <trkpt lat="41.979100" lon="2.776600">
        <ele>91.00</ele>
        <time>2020-09-29T11:40:57.71Z</time>
      </trkpt>
      <trkpt lat="41.979350" lon="2.777360">
        <ele>92.00</ele>
        <time>2020-09-29T11:41:13.16Z</time>
      </trkpt>
      <trkpt lat="41.979420" lon="2.777720">
        <ele>92.00</ele>
        <time>2020-09-29T11:41:20.08Z</time>
      </trkpt>
      <trkpt lat="41.979440" lon="2.778170">
        <ele>91.00</ele>
        <time>2020-09-29T11:41:28.45Z</time>
      </trkpt>
      <trkpt lat="41.979410" lon="2.778560">
        <ele>89.00</ele>
        <time>2020-09-29T11:41:35.74Z</time>
      </trkpt>
      <trkpt lat="41.979310" lon="2.779160">
        <ele>86.00</ele>
        <time>2020-09-29T11:41:47.17Z</time>
      </trkpt>
      <trkpt lat="41.979240" lon="2.779380">
        <ele>84.00</ele>
        <time>2020-09-29T11:41:51.62Z</time>
      </trkpt>
      <trkpt lat="41.979060" lon="2.780180">
        <ele>85.00</ele>
        <time>2020-09-29T11:42:07.15Z</time>
      </trkpt>
      <trkpt lat="41.979270" lon="2.780240">
        <ele>85.00</ele>
        <time>2020-09-29T11:42:12.52Z</time>
      </trkpt>
      <trkpt lat="41.979350" lon="2.780290">
        <ele>85.00</ele>
        <time>2020-09-29T11:42:14.72Z</time>
      </trkpt>
      <trkpt lat="41.979360" lon="2.780360">
        <ele>85.00</ele>
        <time>2020-09-29T11:42:16.05Z</time>
      </trkpt>
      <trkpt lat="41.979400" lon="2.780720">
        <ele>86.00</ele>
        <time>2020-09-29T11:42:22.81Z</time>
      </trkpt>
      <trkpt lat="41.979330" lon="2.780980">
        <ele>87.00</ele>
        <time>2020-09-29T11:42:27.95Z</time>
      </trkpt>
      <trkpt lat="41.979050" lon="2.781860">
        <ele>89.00</ele>
        <time>2020-09-29T11:42:45.74Z</time>
      </trkpt>
      <trkpt lat="41.978900" lon="2.782130">
        <ele>89.00</ele>
        <time>2020-09-29T11:42:52Z</time>
      </trkpt>
      <trkpt lat="41.978890" lon="2.782130">
        <ele>89.00</ele>
        <time>2020-09-29T11:42:52.25Z</time>
      </trkpt>
      <trkpt lat="41.978550" lon="2.782850">
        <ele>88.00</ele>
        <time>2020-09-29T11:43:08.11Z</time>
      </trkpt>
      <trkpt lat="41.978390" lon="2.783330">
        <ele>88.00</ele>
        <time>2020-09-29T11:43:17.88Z</time>
      </trkpt>
      <trkpt lat="41.978260" lon="2.783870">
        <ele>87.00</ele>
        <time>2020-09-29T11:43:28.43Z</time>
      </trkpt>
      <trkpt lat="41.978480" lon="2.784570">
        <ele>87.00</ele>
        <time>2020-09-29T11:43:42.56Z</time>
      </trkpt>
      <trkpt lat="41.978700" lon="2.785770">
        <ele>85.00</ele>
        <time>2020-09-29T11:44:05.53Z</time>
      </trkpt>
      <trkpt lat="41.978950" lon="2.786570">
        <ele>83.00</ele>
        <time>2020-09-29T11:44:21.65Z</time>
      </trkpt>
      <trkpt lat="41.979390" lon="2.787880">
        <ele>83.00</ele>
        <time>2020-09-29T11:44:48.37Z</time>
      </trkpt>
      <trkpt lat="41.979420" lon="2.788060">
        <ele>83.00</ele>
        <time>2020-09-29T11:44:51.80Z</time>
      </trkpt>
      <trkpt lat="41.979400" lon="2.788170">
        <ele>82.00</ele>
        <time>2020-09-29T11:44:53.90Z</time>
      </trkpt>
      <trkpt lat="41.979310" lon="2.788330">
        <ele>82.00</ele>
        <time>2020-09-29T11:44:57.63Z</time>
      </trkpt>
      <trkpt lat="41.979290" lon="2.788420">
        <ele>82.00</ele>
        <time>2020-09-29T11:44:59.38Z</time>
      </trkpt>
      <trkpt lat="41.979330" lon="2.788590">
        <ele>81.00</ele>
        <time>2020-09-29T11:45:02.69Z</time>
      </trkpt>
      <trkpt lat="41.979920" lon="2.790050">
        <ele>80.00</ele>
        <time>2020-09-29T11:45:33.57Z</time>
      </trkpt>
      <trkpt lat="41.980180" lon="2.790490">
        <ele>80.00</ele>
        <time>2020-09-29T11:45:44.02Z</time>
      </trkpt>
      <trkpt lat="41.980180" lon="2.790490">
        <ele>80.00</ele>
        <time>2020-09-29T11:45:44.25Z</time>
      </trkpt>
      <trkpt lat="41.980280" lon="2.790740">
        <ele>80.00</ele>
        <time>2020-09-29T11:45:49.52Z</time>
      </trkpt>
      <trkpt lat="41.980340" lon="2.791240">
        <ele>79.00</ele>
        <time>2020-09-29T11:45:58.93Z</time>
      </trkpt>
      <trkpt lat="41.980380" lon="2.791320">
        <ele>79.00</ele>
        <time>2020-09-29T11:46:00.73Z</time>
      </trkpt>
      <trkpt lat="41.980180" lon="2.791620">
        <ele>79.00</ele>
        <time>2020-09-29T11:46:08.22Z</time>
      </trkpt>
      <trkpt lat="41.979990" lon="2.791860">
        <ele>79.00</ele>
        <time>2020-09-29T11:46:14.73Z</time>
      </trkpt>
      <trkpt lat="41.980130" lon="2.792150">
        <ele>79.00</ele>
        <time>2020-09-29T11:46:21.16Z</time>
      </trkpt>
      <trkpt lat="41.980500" lon="2.793040">
        <ele>76.00</ele>
        <time>2020-09-29T11:46:40.11Z</time>
      </trkpt>
      <trkpt lat="41.980500" lon="2.793040">
        <ele>76.00</ele>
        <time>2020-09-29T11:46:40.33Z</time>
      </trkpt>
      <trkpt lat="41.980660" lon="2.793470">
        <ele>75.00</ele>
        <time>2020-09-29T11:46:49.27Z</time>
      </trkpt>
      <trkpt lat="41.980660" lon="2.793990">
        <ele>75.00</ele>
        <time>2020-09-29T11:46:58.93Z</time>
      </trkpt>
      <trkpt lat="41.980720" lon="2.794190">
        <ele>75.00</ele>
        <time>2020-09-29T11:47:02.94Z</time>
      </trkpt>
      <trkpt lat="41.980910" lon="2.794750">
        <ele>74.00</ele>
        <time>2020-09-29T11:47:14.38Z</time>
      </trkpt>
      <trkpt lat="41.980970" lon="2.794910">
        <ele>74.00</ele>
        <time>2020-09-29T11:47:17.71Z</time>
      </trkpt>
      <trkpt lat="41.981320" lon="2.795480">
        <ele>74.00</ele>
        <time>2020-09-29T11:47:31.45Z</time>
      </trkpt>
      <trkpt lat="41.981840" lon="2.796220">
        <ele>77.00</ele>
        <time>2020-09-29T11:47:50.38Z</time>
      </trkpt>
      <trkpt lat="41.981890" lon="2.796350">
        <ele>77.00</ele>
        <time>2020-09-29T11:47:53.10Z</time>
      </trkpt>
      <trkpt lat="41.981970" lon="2.796810">
        <ele>77.00</ele>
        <time>2020-09-29T11:48:01.87Z</time>
      </trkpt>
      <trkpt lat="41.981970" lon="2.796910">
        <ele>77.00</ele>
        <time>2020-09-29T11:48:03.73Z</time>
      </trkpt>
      <trkpt lat="41.982020" lon="2.797290">
        <ele>76.00</ele>
        <time>2020-09-29T11:48:10.90Z</time>
      </trkpt>
      <trkpt lat="41.982120" lon="2.797640">
        <ele>75.00</ele>
        <time>2020-09-29T11:48:17.87Z</time>
      </trkpt>
      <trkpt lat="41.982340" lon="2.798210">
        <ele>74.00</ele>
        <time>2020-09-29T11:48:29.81Z</time>
      </trkpt>
      <trkpt lat="41.982660" lon="2.799670">
        <ele>72.00</ele>
        <time>2020-09-29T11:48:58.10Z</time>
      </trkpt>
      <trkpt lat="41.982700" lon="2.799900">
        <ele>72.00</ele>
        <time>2020-09-29T11:49:02.49Z</time>
      </trkpt>
      <trkpt lat="41.982570" lon="2.801250">
        <ele>71.00</ele>
        <time>2020-09-29T11:49:27.78Z</time>
      </trkpt>
      <trkpt lat="41.982520" lon="2.802030">
        <ele>71.00</ele>
        <time>2020-09-29T11:49:42.33Z</time>
      </trkpt>
      <trkpt lat="41.982460" lon="2.802490">
        <ele>70.00</ele>
        <time>2020-09-29T11:49:51.01Z</time>
      </trkpt>
      <trkpt lat="41.982450" lon="2.802860">
        <ele>70.00</ele>
        <time>2020-09-29T11:49:57.89Z</time>
      </trkpt>
      <trkpt lat="41.982440" lon="2.802870">
        <ele>70.00</ele>
        <time>2020-09-29T11:49:58.20Z</time>
      </trkpt>
      <trkpt lat="41.982490" lon="2.803860">
        <ele>70.00</ele>
        <time>2020-09-29T11:50:16.64Z</time>
      </trkpt>
      <trkpt lat="41.982440" lon="2.804160">
        <ele>71.00</ele>
        <time>2020-09-29T11:50:22.36Z</time>
      </trkpt>
      <trkpt lat="41.982480" lon="2.804860">
        <ele>71.00</ele>
        <time>2020-09-29T11:50:35.40Z</time>
      </trkpt>
      <trkpt lat="41.982530" lon="2.805180">
        <ele>71.00</ele>
        <time>2020-09-29T11:50:41.48Z</time>
      </trkpt>
      <trkpt lat="41.982710" lon="2.806030">
        <ele>70.00</ele>
        <time>2020-09-29T11:50:57.91Z</time>
      </trkpt>
      <trkpt lat="41.982860" lon="2.806690">
        <ele>69.00</ele>
        <time>2020-09-29T11:51:10.73Z</time>
      </trkpt>
      <trkpt lat="41.982960" lon="2.807100">
        <ele>68.00</ele>
        <time>2020-09-29T11:51:18.75Z</time>
      </trkpt>
      <trkpt lat="41.983270" lon="2.807970">
        <ele>68.00</ele>
        <time>2020-09-29T11:51:36.68Z</time>
      </trkpt>
      <trkpt lat="41.983360" lon="2.808160">
        <ele>68.00</ele>
        <time>2020-09-29T11:51:40.87Z</time>
      </trkpt>
      <trkpt lat="41.983430" lon="2.808350">
        <ele>68.00</ele>
        <time>2020-09-29T11:51:44.81Z</time>
      </trkpt>
      <trkpt lat="41.983450" lon="2.808580">
        <ele>68.00</ele>
        <time>2020-09-29T11:51:49.11Z</time>
      </trkpt>
      <trkpt lat="41.983500" lon="2.808830">
        <ele>69.00</ele>
        <time>2020-09-29T11:51:53.92Z</time>
      </trkpt>
      <trkpt lat="41.983810" lon="2.809460">
        <ele>70.00</ele>
        <time>2020-09-29T11:52:07.96Z</time>
      </trkpt>
      <trkpt lat="41.983920" lon="2.809540">
        <ele>70.00</ele>
        <time>2020-09-29T11:52:11.09Z</time>
      </trkpt>
      <trkpt lat="41.984060" lon="2.809590">
        <ele>71.00</ele>
        <time>2020-09-29T11:52:14.71Z</time>
      </trkpt>
      <trkpt lat="41.984330" lon="2.809590">
        <ele>71.00</ele>
        <time>2020-09-29T11:52:21.46Z</time>
      </trkpt>
      <trkpt lat="41.984370" lon="2.809630">
        <ele>71.00</ele>
        <time>2020-09-29T11:52:22.70Z</time>
      </trkpt>
      <trkpt lat="41.984360" lon="2.809630">
        <ele>72.00</ele>
        <time>2020-09-29T11:52:22.95Z</time>
      </trkpt>
      <trkpt lat="41.984993" lon="2.810204">
        <ele>71.36</ele>
        <time>2020-09-29T15:03:01Z</time>
      </trkpt>
      <trkpt lat="41.985036" lon="2.810322">
        <ele>71.68</ele>
        <time>2020-09-29T15:03:01Z</time>
      </trkpt>
      <trkpt lat="41.985133" lon="2.810601">
        <ele>72.45</ele>
        <time>2020-09-29T15:03:01Z</time>
      </trkpt>
      <trkpt lat="41.985133" lon="2.810601">
        <ele>72.45</ele>
        <time>2020-09-29T15:03:01.01Z</time>
      </trkpt>
      <trkpt lat="41.985208" lon="2.810762">
        <ele>72.85</ele>
        <time>2020-09-29T15:03:01.02Z</time>
      </trkpt>
      <trkpt lat="41.985208" lon="2.810762">
        <ele>72.85</ele>
        <time>2020-09-29T15:03:01.02Z</time>
      </trkpt>
      <trkpt lat="41.986399" lon="2.811620">
        <ele>69.76</ele>
        <time>2020-09-29T15:03:01.05Z</time>
      </trkpt>
      <trkpt lat="41.986452" lon="2.811674">
        <ele>69.57</ele>
        <time>2020-09-29T15:03:01.08Z</time>
      </trkpt>
      <trkpt lat="41.986452" lon="2.811674">
        <ele>69.57</ele>
        <time>2020-09-29T15:03:01.11Z</time>
      </trkpt>
      <trkpt lat="41.986592" lon="2.811770">
        <ele>69.12</ele>
        <time>2020-09-29T15:03:01.15Z</time>
      </trkpt>
      <trkpt lat="41.986667" lon="2.812060">
        <ele>69.72</ele>
        <time>2020-09-29T15:03:01.18Z</time>
      </trkpt>
      <trkpt lat="41.986995" lon="2.813268">
        <ele>71.87</ele>
        <time>2020-09-29T15:03:01.23Z</time>
      </trkpt>
      <trkpt lat="41.986995" lon="2.813267">
        <ele>71.87</ele>
        <time>2020-09-29T15:03:01.29Z</time>
      </trkpt>
      <trkpt lat="41.987536" lon="2.815257">
        <ele>77.40</ele>
        <time>2020-09-29T15:03:01.36Z</time>
      </trkpt>
      <trkpt lat="41.987536" lon="2.815257">
        <ele>77.40</ele>
        <time>2020-09-29T15:03:01.44Z</time>
      </trkpt>
      <trkpt lat="41.987579" lon="2.815461">
        <ele>78.17</ele>
        <time>2020-09-29T15:03:01.52Z</time>
      </trkpt>
      <trkpt lat="41.987697" lon="2.815386">
        <ele>77.25</ele>
        <time>2020-09-29T15:03:01.60Z</time>
      </trkpt>
      <trkpt lat="41.988047" lon="2.816667">
        <ele>78.10</ele>
        <time>2020-09-29T15:03:01.70Z</time>
      </trkpt>
      <trkpt lat="41.988047" lon="2.816667">
        <ele>78.10</ele>
        <time>2020-09-29T15:03:01.80Z</time>
      </trkpt>
      <trkpt lat="41.988266" lon="2.817467">
        <ele>80.45</ele>
        <time>2020-09-29T15:03:01.91Z</time>
      </trkpt>
      <trkpt lat="41.988266" lon="2.817467">
        <ele>80.45</ele>
        <time>2020-09-29T15:03:02.01Z</time>
      </trkpt>
      <trkpt lat="41.988673" lon="2.819130">
        <ele>86.34</ele>
        <time>2020-09-29T15:03:02.14Z</time>
      </trkpt>
      <trkpt lat="41.989017" lon="2.820547">
        <ele>80.00</ele>
        <time>2020-09-29T15:03:02.29Z</time>
      </trkpt>
      <trkpt lat="41.988942" lon="2.820740">
        <ele>79.24</ele>
        <time>2020-09-29T15:03:02.44Z</time>
      </trkpt>
      <trkpt lat="41.988984" lon="2.820901">
        <ele>77.44</ele>
        <time>2020-09-29T15:03:02.59Z</time>
      </trkpt>
      <trkpt lat="41.988995" lon="2.820954">
        <ele>76.79</ele>
        <time>2020-09-29T15:03:02.74Z</time>
      </trkpt>
      <trkpt lat="41.989124" lon="2.820911">
        <ele>76.76</ele>
        <time>2020-09-29T15:03:02.90Z</time>
      </trkpt>
      <trkpt lat="41.989652" lon="2.820745">
        <ele>75.97</ele>
        <time>2020-09-29T15:03:03.06Z</time>
      </trkpt>
      <trkpt lat="41.989735" lon="2.820718">
        <ele>75.86</ele>
        <time>2020-09-29T15:03:03.22Z</time>
      </trkpt>
      <trkpt lat="41.989735" lon="2.820718">
        <ele>75.86</ele>
        <time>2020-09-29T15:03:03.39Z</time>
      </trkpt>
      <trkpt lat="41.989428" lon="2.821356">
        <ele>73.18</ele>
        <time>2020-09-29T15:03:03.56Z</time>
      </trkpt>
      <trkpt lat="41.989428" lon="2.821356">
        <ele>73.18</ele>
        <time>2020-09-29T15:03:03.73Z</time>
      </trkpt>
      <trkpt lat="41.989295" lon="2.821630">
        <ele>69.74</ele>
        <time>2020-09-29T15:03:03.91Z</time>
      </trkpt>
      <trkpt lat="41.989049" lon="2.821802">
        <ele>68.10</ele>
        <time>2020-09-29T15:03:04.09Z</time>
      </trkpt>
      <trkpt lat="41.988834" lon="2.822081">
        <ele>69.05</ele>
        <time>2020-09-29T15:03:04.28Z</time>
      </trkpt>
      <trkpt lat="41.988115" lon="2.822188">
        <ele>69.87</ele>
        <time>2020-09-29T15:03:04.48Z</time>
      </trkpt>
      <trkpt lat="41.988094" lon="2.822263">
        <ele>69.37</ele>
        <time>2020-09-29T15:03:04.67Z</time>
      </trkpt>
      <trkpt lat="41.988083" lon="2.822360">
        <ele>68.77</ele>
        <time>2020-09-29T15:03:04.87Z</time>
      </trkpt>
      <trkpt lat="41.988072" lon="2.822585">
        <ele>68.31</ele>
        <time>2020-09-29T15:03:05.08Z</time>
      </trkpt>
      <trkpt lat="41.988072" lon="2.822585">
        <ele>68.31</ele>
        <time>2020-09-29T15:03:05.28Z</time>
      </trkpt>
      <trkpt lat="41.988040" lon="2.822639">
        <ele>68.19</ele>
        <time>2020-09-29T15:03:05.48Z</time>
      </trkpt>
      <trkpt lat="41.987890" lon="2.822886">
        <ele>67.67</ele>
        <time>2020-09-29T15:03:05.69Z</time>
      </trkpt>
      <trkpt lat="41.987815" lon="2.823089">
        <ele>67.76</ele>
        <time>2020-09-29T15:03:05.90Z</time>
      </trkpt>
      <trkpt lat="41.987815" lon="2.823111">
        <ele>67.79</ele>
        <time>2020-09-29T15:03:06.11Z</time>
      </trkpt>
      <trkpt lat="41.987315" lon="2.823338">
        <ele>71.12</ele>
        <time>2020-09-29T15:03:06.33Z</time>
      </trkpt>
      <trkpt lat="41.987315" lon="2.823338">
        <ele>71.12</ele>
        <time>2020-09-29T15:03:06.55Z</time>
      </trkpt>
      <trkpt lat="41.987107" lon="2.823433">
        <ele>71.74</ele>
        <time>2020-09-29T15:03:06.77Z</time>
      </trkpt>
      <trkpt lat="41.987096" lon="2.823379">
        <ele>71.75</ele>
        <time>2020-09-29T15:03:06.99Z</time>
      </trkpt>
      <trkpt lat="41.986216" lon="2.823744">
        <ele>73.88</ele>
        <time>2020-09-29T15:03:07.23Z</time>
      </trkpt>
      <trkpt lat="41.986195" lon="2.823755">
        <ele>73.93</ele>
        <time>2020-09-29T15:03:07.47Z</time>
      </trkpt>
      <trkpt lat="41.986173" lon="2.823755">
        <ele>73.98</ele>
        <time>2020-09-29T15:03:07.71Z</time>
      </trkpt>
      <trkpt lat="41.986173" lon="2.823755">
        <ele>73.98</ele>
        <time>2020-09-29T15:03:07.95Z</time>
      </trkpt>
      <trkpt lat="41.985444" lon="2.823980">
        <ele>71.81</ele>
        <time>2020-09-29T15:03:08.20Z</time>
      </trkpt>
      <trkpt lat="41.985369" lon="2.823486">
        <ele>74.86</ele>
        <time>2020-09-29T15:03:08.45Z</time>
      </trkpt>
      <trkpt lat="41.985369" lon="2.823486">
        <ele>74.86</ele>
        <time>2020-09-29T15:03:08.71Z</time>
      </trkpt>
      <trkpt lat="41.984661" lon="2.823443">
        <ele>75.05</ele>
        <time>2020-09-29T15:03:08.98Z</time>
      </trkpt>
      <trkpt lat="41.984661" lon="2.823443">
        <ele>75.05</ele>
        <time>2020-09-29T15:03:09.24Z</time>
      </trkpt>
      <trkpt lat="41.983878" lon="2.823197">
        <ele>75.33</ele>
        <time>2020-09-29T15:03:09.53Z</time>
      </trkpt>
      <trkpt lat="41.983877" lon="2.823197">
        <ele>75.33</ele>
        <time>2020-09-29T15:03:09.81Z</time>
      </trkpt>
      <trkpt lat="41.983523" lon="2.823100">
        <ele>75.09</ele>
        <time>2020-09-29T15:03:10.09Z</time>
      </trkpt>
      <trkpt lat="41.983523" lon="2.823100">
        <ele>75.09</ele>
        <time>2020-09-29T15:03:10.38Z</time>
      </trkpt>
      <trkpt lat="41.982772" lon="2.822821">
        <ele>78.82</ele>
        <time>2020-09-29T15:03:10.68Z</time>
      </trkpt>
      <trkpt lat="41.982730" lon="2.822810">
        <ele>79.09</ele>
        <time>2020-09-29T15:03:10.98Z</time>
      </trkpt>
      <trkpt lat="41.982719" lon="2.822800">
        <ele>79.25</ele>
        <time>2020-09-29T15:03:11.28Z</time>
      </trkpt>
      <trkpt lat="41.982751" lon="2.823722">
        <ele>74.40</ele>
        <time>2020-09-29T15:03:11.59Z</time>
      </trkpt>
      <trkpt lat="41.982751" lon="2.823819">
        <ele>74.86</ele>
        <time>2020-09-29T15:03:11.90Z</time>
      </trkpt>
      <trkpt lat="41.982553" lon="2.823842">
        <ele>-7.20</ele>
        <time>2018-01-02T14:31:26Z</time>
      </trkpt>
      <trkpt lat="41.982303" lon="2.823771">
        <ele>-7.60</ele>
        <time>2018-01-02T14:31:30Z</time>
      </trkpt>
      <trkpt lat="41.982049" lon="2.823713">
        <ele>-7.40</ele>
        <time>2018-01-02T14:31:34Z</time>
      </trkpt>
      <trkpt lat="41.981983" lon="2.823702">
        <ele>-7.40</ele>
        <time>2018-01-02T14:31:35Z</time>
      </trkpt>
      <trkpt lat="41.981637" lon="2.823698">
        <ele>-7.20</ele>
        <time>2018-01-02T14:31:40Z</time>
      </trkpt>
      <trkpt lat="41.981229" lon="2.823830">
        <ele>-7.40</ele>
        <time>2018-01-02T14:31:46Z</time>
      </trkpt>
      <trkpt lat="41.980862" lon="2.824089">
        <ele>-7.20</ele>
        <time>2018-01-02T14:31:52Z</time>
      </trkpt>
      <trkpt lat="41.980534" lon="2.824244">
        <ele>-7.20</ele>
        <time>2018-01-02T14:31:57Z</time>
      </trkpt>
      <trkpt lat="41.980073" lon="2.824339">
        <ele>-7.20</ele>
        <time>2018-01-02T14:32:04Z</time>
      </trkpt>
      <trkpt lat="41.979602" lon="2.824396">
        <ele>-7.20</ele>
        <time>2018-01-02T14:32:11Z</time>
      </trkpt>
      <trkpt lat="41.979202" lon="2.824465">
        <ele>-7.60</ele>
        <time>2018-01-02T14:32:17Z</time>
      </trkpt>
      <trkpt lat="41.978711" lon="2.824460">
        <ele>-7.80</ele>
        <time>2018-01-02T14:32:24Z</time>
      </trkpt>
      <trkpt lat="41.978164" lon="2.824413">
        <ele>-7.60</ele>
        <time>2018-01-02T14:32:32Z</time>
      </trkpt>
      <trkpt lat="41.977899" lon="2.824386">
        <ele>-7.60</ele>
        <time>2018-01-02T14:32:36Z</time>
      </trkpt>
      <trkpt lat="41.977777" lon="2.824368">
        <ele>-7.80</ele>
        <time>2018-01-02T14:32:38Z</time>
      </trkpt>
      <trkpt lat="41.977626" lon="2.824315">
        <ele>-7.80</ele>
        <time>2018-01-02T14:32:41Z</time>
      </trkpt>
      <trkpt lat="41.977602" lon="2.824290">
        <ele>-7.60</ele>
        <time>2018-01-02T14:32:42Z</time>
      </trkpt>
      <trkpt lat="41.977494" lon="2.824253">
        <ele>-7.60</ele>
        <time>2018-01-02T14:32:45Z</time>
      </trkpt>
      <trkpt lat="41.977318" lon="2.824217">
        <ele>-7.40</ele>
        <time>2018-01-02T14:32:49Z</time>
      </trkpt>
      <trkpt lat="41.977293" lon="2.824218">
        <ele>-7.40</ele>
        <time>2018-01-02T14:32:50Z</time>
      </trkpt>
      <trkpt lat="41.977273" lon="2.824216">
        <ele>-7.20</ele>
        <time>2018-01-02T14:32:53Z</time>
      </trkpt>
      <trkpt lat="41.977123" lon="2.824188">
        <ele>-7.00</ele>
        <time>2018-01-02T14:32:57Z</time>
      </trkpt>
      <trkpt lat="41.976688" lon="2.824124">
        <ele>-6.60</ele>
        <time>2018-01-02T14:33:04Z</time>
      </trkpt>
      <trkpt lat="41.976439" lon="2.824146">
        <ele>-6.60</ele>
        <time>2018-01-02T14:33:08Z</time>
      </trkpt>
      <trkpt lat="41.976319" lon="2.824172">
        <ele>-6.60</ele>
        <time>2018-01-02T14:33:10Z</time>
      </trkpt>
      <trkpt lat="41.976141" lon="2.824227">
        <ele>-6.60</ele>
        <time>2018-01-02T14:33:13Z</time>
      </trkpt>
      <trkpt lat="41.975861" lon="2.824358">
        <ele>-6.40</ele>
        <time>2018-01-02T14:33:18Z</time>
      </trkpt>
      <trkpt lat="41.975755" lon="2.824422">
        <ele>-6.60</ele>
        <time>2018-01-02T14:33:20Z</time>
      </trkpt>
      <trkpt lat="41.975653" lon="2.824500">
        <ele>-6.60</ele>
        <time>2018-01-02T14:33:22Z</time>
      </trkpt>
      <trkpt lat="41.975500" lon="2.824650">
        <ele>-6.40</ele>
        <time>2018-01-02T14:33:25Z</time>
      </trkpt>
      <trkpt lat="41.975447" lon="2.824696">
        <ele>-6.60</ele>
        <time>2018-01-02T14:33:26Z</time>
      </trkpt>
      <trkpt lat="41.975400" lon="2.824756">
        <ele>-6.60</ele>
        <time>2018-01-02T14:33:27Z</time>
      </trkpt>
      <trkpt lat="41.975356" lon="2.824824">
        <ele>-6.40</ele>
        <time>2018-01-02T14:33:28Z</time>
      </trkpt>
      <trkpt lat="41.975317" lon="2.824893">
        <ele>-6.20</ele>
        <time>2018-01-02T14:33:29Z</time>
      </trkpt>
      <trkpt lat="41.975175" lon="2.825015">
        <ele>-5.40</ele>
        <time>2018-01-02T14:33:32Z</time>
      </trkpt>
      <trkpt lat="41.975125" lon="2.825017">
        <ele>-5.20</ele>
        <time>2018-01-02T14:33:33Z</time>
      </trkpt>
      <trkpt lat="41.974912" lon="2.824867">
        <ele>-4.80</ele>
        <time>2018-01-02T14:33:38Z</time>
      </trkpt>
      <trkpt lat="41.974868" lon="2.824830">
        <ele>-5.00</ele>
        <time>2018-01-02T14:33:39Z</time>
      </trkpt>
      <trkpt lat="41.974731" lon="2.824718">
        <ele>-5.20</ele>
        <time>2018-01-02T14:33:42Z</time>
      </trkpt>
      <trkpt lat="41.974689" lon="2.824683">
        <ele>-5.00</ele>
        <time>2018-01-02T14:33:43Z</time>
      </trkpt>
      <trkpt lat="41.974606" lon="2.824626">
        <ele>-5.20</ele>
        <time>2018-01-02T14:33:46Z</time>
      </trkpt>
      <trkpt lat="41.974578" lon="2.824679">
        <ele>-5.20</ele>
        <time>2018-01-02T14:33:48Z</time>
      </trkpt>
      <trkpt lat="41.974576" lon="2.824716">
        <ele>-5.20</ele>
        <time>2018-01-02T14:33:49Z</time>
      </trkpt>
      <trkpt lat="41.974557" lon="2.824740">
        <ele>-5.40</ele>
        <time>2018-01-02T14:33:50Z</time>
      </trkpt>
      <trkpt lat="41.974542" lon="2.824783">
        <ele>-5.20</ele>
        <time>2018-01-02T14:33:51Z</time>
      </trkpt>
      <trkpt lat="41.974514" lon="2.824854">
        <ele>-4.80</ele>
        <time>2018-01-02T14:33:53Z</time>
      </trkpt>
      <trkpt lat="41.974497" lon="2.824872">
        <ele>-4.80</ele>
        <time>2018-01-02T14:33:54Z</time>
      </trkpt>
      <trkpt lat="41.974450" lon="2.824961">
        <ele>-4.60</ele>
        <time>2018-01-02T14:33:58Z</time>
      </trkpt>
      <trkpt lat="41.974315" lon="2.825065">
        <ele>-4.80</ele>
        <time>2018-01-02T14:34:03Z</time>
      </trkpt>
      <trkpt lat="41.974234" lon="2.825098">
        <ele>-4.80</ele>
        <time>2018-01-02T14:34:05Z</time>
      </trkpt>
      <trkpt lat="41.974196" lon="2.825101">
        <ele>-4.60</ele>
        <time>2018-01-02T14:34:06Z</time>
      </trkpt>
      <trkpt lat="41.974130" lon="2.825116">
        <ele>-4.80</ele>
        <time>2018-01-02T14:34:08Z</time>
      </trkpt>
      <trkpt lat="41.974098" lon="2.825128">
        <ele>-4.80</ele>
        <time>2018-01-02T14:34:09Z</time>
      </trkpt>
      <trkpt lat="41.974047" lon="2.825180">
        <ele>-4.40</ele>
        <time>2018-01-02T14:36:26Z</time>
      </trkpt>
      <trkpt lat="41.974065" lon="2.825191">
        <ele>-4.40</ele>
        <time>2018-01-02T14:36:29Z</time>
      </trkpt>
      <trkpt lat="41.974117" lon="2.825146">
        <ele>-4.40</ele>
        <time>2018-01-02T14:36:33Z</time>
      </trkpt>
      <trkpt lat="41.974117" lon="2.825121">
        <ele>-4.20</ele>
        <time>2018-01-02T14:36:34Z</time>
      </trkpt>
      <trkpt lat="41.974092" lon="2.825086">
        <ele>-4.20</ele>
        <time>2018-01-02T14:36:36Z</time>
      </trkpt>
      <trkpt lat="41.974038" lon="2.825194">
        <ele>-4.40</ele>
        <time>2018-01-02T14:36:39Z</time>
      </trkpt>
      <trkpt lat="41.974009" lon="2.825307">
        <ele>-4.20</ele>
        <time>2018-01-02T14:36:41Z</time>
      </trkpt>
      <trkpt lat="41.973952" lon="2.825562">
        <ele>-4.40</ele>
        <time>2018-01-02T14:36:45Z</time>
      </trkpt>
      <trkpt lat="41.973904" lon="2.825774">
        <ele>-4.20</ele>
        <time>2018-01-02T14:36:48Z</time>
      </trkpt>
      <trkpt lat="41.973867" lon="2.825930">
        <ele>-4.40</ele>
        <time>2018-01-02T14:36:50Z</time>
      </trkpt>
      <trkpt lat="41.973779" lon="2.826342">
        <ele>-4.60</ele>
        <time>2018-01-02T14:36:55Z</time>
      </trkpt>
      <trkpt lat="41.973725" lon="2.826590">
        <ele>-4.40</ele>
        <time>2018-01-02T14:36:58Z</time>
      </trkpt>
      <trkpt lat="41.973700" lon="2.826752">
        <ele>-4.20</ele>
        <time>2018-01-02T14:37:00Z</time>
      </trkpt>
      <trkpt lat="41.973689" lon="2.826833">
        <ele>-4.20</ele>
        <time>2018-01-02T14:37:01Z</time>
      </trkpt>
      <trkpt lat="41.973654" lon="2.827097">
        <ele>-3.60</ele>
        <time>2018-01-02T14:37:04Z</time>
      </trkpt>
      <trkpt lat="41.973616" lon="2.827369">
        <ele>-3.20</ele>
        <time>2018-01-02T14:37:07Z</time>
      </trkpt>
      <trkpt lat="41.973596" lon="2.827549">
        <ele>-2.80</ele>
        <time>2018-01-02T14:37:09Z</time>
      </trkpt>
      <trkpt lat="41.973554" lon="2.827911">
        <ele>-3.00</ele>
        <time>2018-01-02T14:37:13Z</time>
      </trkpt>
      <trkpt lat="41.973521" lon="2.828278">
        <ele>-2.20</ele>
        <time>2018-01-02T14:37:17Z</time>
      </trkpt>
      <trkpt lat="41.973490" lon="2.828748">
        <ele>-1.00</ele>
        <time>2018-01-02T14:37:22Z</time>
      </trkpt>
      <trkpt lat="41.973478" lon="2.829208">
        <ele>0.20</ele>
        <time>2018-01-02T14:37:27Z</time>
      </trkpt>
      <trkpt lat="41.973459" lon="2.829893">
        <ele>1.40</ele>
        <time>2018-01-02T14:37:35Z</time>
      </trkpt>
      <trkpt lat="41.973446" lon="2.830343">
        <ele>2.00</ele>
        <time>2018-01-02T14:37:41Z</time>
      </trkpt>
      <trkpt lat="41.973437" lon="2.830593">
        <ele>1.20</ele>
        <time>2018-01-02T14:37:45Z</time>
      </trkpt>
      <trkpt lat="41.973437" lon="2.830645">
        <ele>0.80</ele>
        <time>2018-01-02T14:37:46Z</time>
      </trkpt>
      <trkpt lat="41.973391" lon="2.831065">
        <ele>-0.20</ele>
        <time>2018-01-02T14:37:52Z</time>
      </trkpt>
      <trkpt lat="41.973316" lon="2.831419">
        <ele>-1.40</ele>
        <time>2018-01-02T14:37:57Z</time>
      </trkpt>
      <trkpt lat="41.973267" lon="2.831575">
        <ele>-1.60</ele>
        <time>2018-01-02T14:37:59Z</time>
      </trkpt>
      <trkpt lat="41.973139" lon="2.831867">
        <ele>-1.60</ele>
        <time>2018-01-02T14:38:03Z</time>
      </trkpt>
      <trkpt lat="41.973104" lon="2.831933">
        <ele>-1.40</ele>
        <time>2018-01-02T14:38:04Z</time>
      </trkpt>
      <trkpt lat="41.973039" lon="2.832067">
        <ele>-1.20</ele>
        <time>2018-01-02T14:38:06Z</time>
      </trkpt>
      <trkpt lat="41.972937" lon="2.832267">
        <ele>-1.00</ele>
        <time>2018-01-02T14:38:09Z</time>
      </trkpt>
      <trkpt lat="41.972898" lon="2.832339">
        <ele>-0.80</ele>
        <time>2018-01-02T14:38:10Z</time>
      </trkpt>
      <trkpt lat="41.972680" lon="2.832744">
        <ele>-0.40</ele>
        <time>2018-01-02T14:38:15Z</time>
      </trkpt>
      <trkpt lat="41.972635" lon="2.832823">
        <ele>-0.20</ele>
        <time>2018-01-02T14:38:16Z</time>
      </trkpt>
      <trkpt lat="41.972455" lon="2.833255">
        <ele>0.20</ele>
        <time>2018-01-02T14:38:21Z</time>
      </trkpt>
      <trkpt lat="41.972289" lon="2.833759">
        <ele>0.80</ele>
        <time>2018-01-02T14:38:26Z</time>
      </trkpt>
      <trkpt lat="41.972148" lon="2.834275">
        <ele>1.40</ele>
        <time>2018-01-02T14:38:31Z</time>
      </trkpt>
      <trkpt lat="41.972037" lon="2.834676">
        <ele>1.80</ele>
        <time>2018-01-02T14:38:35Z</time>
      </trkpt>
      <trkpt lat="41.971972" lon="2.834873">
        <ele>2.00</ele>
        <time>2018-01-02T14:38:37Z</time>
      </trkpt>
      <trkpt lat="41.971760" lon="2.835313">
        <ele>2.80</ele>
        <time>2018-01-02T14:38:42Z</time>
      </trkpt>
      <trkpt lat="41.971425" lon="2.835684">
        <ele>3.40</ele>
        <time>2018-01-02T14:38:48Z</time>
      </trkpt>
      <trkpt lat="41.971105" lon="2.835877">
        <ele>3.60</ele>
        <time>2018-01-02T14:38:53Z</time>
      </trkpt>
      <trkpt lat="41.970972" lon="2.835915">
        <ele>3.20</ele>
        <time>2018-01-02T14:38:55Z</time>
      </trkpt>
      <trkpt lat="41.970648" lon="2.835961">
        <ele>2.80</ele>
        <time>2018-01-02T14:39:00Z</time>
      </trkpt>
      <trkpt lat="41.970517" lon="2.835960">
        <ele>2.40</ele>
        <time>2018-01-02T14:39:02Z</time>
      </trkpt>
      <trkpt lat="41.970385" lon="2.835963">
        <ele>1.80</ele>
        <time>2018-01-02T14:39:04Z</time>
      </trkpt>
      <trkpt lat="41.970319" lon="2.835968">
        <ele>1.60</ele>
        <time>2018-01-02T14:39:05Z</time>
      </trkpt>
      <trkpt lat="41.970182" lon="2.835967">
        <ele>1.40</ele>
        <time>2018-01-02T14:39:07Z</time>
      </trkpt>
      <trkpt lat="41.969974" lon="2.835965">
        <ele>0.80</ele>
        <time>2018-01-02T14:39:10Z</time>
      </trkpt>
      <trkpt lat="41.969754" lon="2.835954">
        <ele>0.20</ele>
        <time>2018-01-02T14:39:13Z</time>
      </trkpt>
      <trkpt lat="41.969517" lon="2.835953">
        <ele>-0.20</ele>
        <time>2018-01-02T14:39:16Z</time>
      </trkpt>
      <trkpt lat="41.969355" lon="2.835968">
        <ele>-0.40</ele>
        <time>2018-01-02T14:39:18Z</time>
      </trkpt>
      <trkpt lat="41.969198" lon="2.836024">
        <ele>-0.40</ele>
        <time>2018-01-02T14:39:20Z</time>
      </trkpt>
      <trkpt lat="41.969125" lon="2.836070">
        <ele>-0.60</ele>
        <time>2018-01-02T14:39:21Z</time>
      </trkpt>
      <trkpt lat="41.968923" lon="2.836220">
        <ele>-0.40</ele>
        <time>2018-01-02T14:39:25Z</time>
      </trkpt>
      <trkpt lat="41.968681" lon="2.836179">
        <ele>0.20</ele>
        <time>2018-01-02T14:39:28Z</time>
      </trkpt>
      <trkpt lat="41.968609" lon="2.836167">
        <ele>0.80</ele>
        <time>2018-01-02T14:39:29Z</time>
      </trkpt>
      <trkpt lat="41.968471" lon="2.836166">
        <ele>2.00</ele>
        <time>2018-01-02T14:39:31Z</time>
      </trkpt>
      <trkpt lat="41.968403" lon="2.836175">
        <ele>2.60</ele>
        <time>2018-01-02T14:39:32Z</time>
      </trkpt>
      <trkpt lat="41.968341" lon="2.836191">
        <ele>3.00</ele>
        <time>2018-01-02T14:39:33Z</time>
      </trkpt>
      <trkpt lat="41.968235" lon="2.836266">
        <ele>3.80</ele>
        <time>2018-01-02T14:39:35Z</time>
      </trkpt>
      <trkpt lat="41.968148" lon="2.836376">
        <ele>4.20</ele>
        <time>2018-01-02T14:39:37Z</time>
      </trkpt>
      <trkpt lat="41.968108" lon="2.836436">
        <ele>4.20</ele>
        <time>2018-01-02T14:39:38Z</time>
      </trkpt>
      <trkpt lat="41.967990" lon="2.836621">
        <ele>5.00</ele>
        <time>2018-01-02T14:39:41Z</time>
      </trkpt>
      <trkpt lat="41.967829" lon="2.836870">
        <ele>5.20</ele>
        <time>2018-01-02T14:39:45Z</time>
      </trkpt>
      <trkpt lat="41.967749" lon="2.836994">
        <ele>5.00</ele>
        <time>2018-01-02T14:39:47Z</time>
      </trkpt>
      <trkpt lat="41.967573" lon="2.837221">
        <ele>5.20</ele>
        <time>2018-01-02T14:39:51Z</time>
      </trkpt>
      <trkpt lat="41.967274" lon="2.837558">
        <ele>5.40</ele>
        <time>2018-01-02T14:39:57Z</time>
      </trkpt>
      <trkpt lat="41.966988" lon="2.837815">
        <ele>4.60</ele>
        <time>2018-01-02T14:40:02Z</time>
      </trkpt>
      <trkpt lat="41.966701" lon="2.838066">
        <ele>5.40</ele>
        <time>2018-01-02T14:40:06Z</time>
      </trkpt>
      <trkpt lat="41.966567" lon="2.838187">
        <ele>6.60</ele>
        <time>2018-01-02T14:40:08Z</time>
      </trkpt>
      <trkpt lat="41.966243" lon="2.838496">
        <ele>8.60</ele>
        <time>2018-01-02T14:40:14Z</time>
      </trkpt>
      <trkpt lat="41.965965" lon="2.838711">
        <ele>8.00</ele>
        <time>2018-01-02T14:40:20Z</time>
      </trkpt>
      <trkpt lat="41.965916" lon="2.838749">
        <ele>7.80</ele>
        <time>2018-01-02T14:40:21Z</time>
      </trkpt>
      <trkpt lat="41.965763" lon="2.838855">
        <ele>6.80</ele>
        <time>2018-01-02T14:40:24Z</time>
      </trkpt>
      <trkpt lat="41.965562" lon="2.838971">
        <ele>5.80</ele>
        <time>2018-01-02T14:40:28Z</time>
      </trkpt>
      <trkpt lat="41.965353" lon="2.839069">
        <ele>4.80</ele>
        <time>2018-01-02T14:40:32Z</time>
      </trkpt>
      <trkpt lat="41.965242" lon="2.839102">
        <ele>4.00</ele>
        <time>2018-01-02T14:40:34Z</time>
      </trkpt>
      <trkpt lat="41.965184" lon="2.839117">
        <ele>3.80</ele>
        <time>2018-01-02T14:40:35Z</time>
      </trkpt>
      <trkpt lat="41.965024" lon="2.839217">
        <ele>3.20</ele>
        <time>2018-01-02T14:40:38Z</time>
      </trkpt>
      <trkpt lat="41.964868" lon="2.839330">
        <ele>3.20</ele>
        <time>2018-01-02T14:40:41Z</time>
      </trkpt>
      <trkpt lat="41.964748" lon="2.839297">
        <ele>3.60</ele>
        <time>2018-01-02T14:40:43Z</time>
      </trkpt>
      <trkpt lat="41.964427" lon="2.839169">
        <ele>4.00</ele>
        <time>2018-01-02T14:40:48Z</time>
      </trkpt>
      <trkpt lat="41.964014" lon="2.838898">
        <ele>4.80</ele>
        <time>2018-01-02T14:40:55Z</time>
      </trkpt>
      <trkpt lat="41.963853" lon="2.838781">
        <ele>5.00</ele>
        <time>2018-01-02T14:40:58Z</time>
      </trkpt>
      <trkpt lat="41.963759" lon="2.838718">
        <ele>4.80</ele>
        <time>2018-01-02T14:41:00Z</time>
      </trkpt>
      <trkpt lat="41.963424" lon="2.838524">
        <ele>3.80</ele>
        <time>2018-01-02T14:41:07Z</time>
      </trkpt>
      <trkpt lat="41.963335" lon="2.838468">
        <ele>3.80</ele>
        <time>2018-01-02T14:41:09Z</time>
      </trkpt>
      <trkpt lat="41.963157" lon="2.838360">
        <ele>3.60</ele>
        <time>2018-01-02T14:41:13Z</time>
      </trkpt>
      <trkpt lat="41.962978" lon="2.838254">
        <ele>3.80</ele>
        <time>2018-01-02T14:41:17Z</time>
      </trkpt>
      <trkpt lat="41.962419" lon="2.837991">
        <ele>3.60</ele>
        <time>2018-01-02T14:41:25Z</time>
      </trkpt>
      <trkpt lat="41.962187" lon="2.837910">
        <ele>3.60</ele>
        <time>2018-01-02T14:41:28Z</time>
      </trkpt>
      <trkpt lat="41.961879" lon="2.837845">
        <ele>3.40</ele>
        <time>2018-01-02T14:41:32Z</time>
      </trkpt>
      <trkpt lat="41.961276" lon="2.837772">
        <ele>3.40</ele>
        <time>2018-01-02T14:41:40Z</time>
      </trkpt>
      <trkpt lat="41.960666" lon="2.837728">
        <ele>3.40</ele>
        <time>2018-01-02T14:41:48Z</time>
      </trkpt>
      <trkpt lat="41.960592" lon="2.837720">
        <ele>3.20</ele>
        <time>2018-01-02T14:41:49Z</time>
      </trkpt>
      <trkpt lat="41.960031" lon="2.837664">
        <ele>3.40</ele>
        <time>2018-01-02T14:41:57Z</time>
      </trkpt>
      <trkpt lat="41.959892" lon="2.837655">
        <ele>3.40</ele>
        <time>2018-01-02T14:41:59Z</time>
      </trkpt>
      <trkpt lat="41.959478" lon="2.837627">
        <ele>3.60</ele>
        <time>2018-01-02T14:42:05Z</time>
      </trkpt>
      <trkpt lat="41.958921" lon="2.837582">
        <ele>3.40</ele>
        <time>2018-01-02T14:42:13Z</time>
      </trkpt>
      <trkpt lat="41.958782" lon="2.837570">
        <ele>3.40</ele>
        <time>2018-01-02T14:42:15Z</time>
      </trkpt>
      <trkpt lat="41.958370" lon="2.837549">
        <ele>3.60</ele>
        <time>2018-01-02T14:42:21Z</time>
      </trkpt>
      <trkpt lat="41.957981" lon="2.837511">
        <ele>3.20</ele>
        <time>2018-01-02T14:42:27Z</time>
      </trkpt>
      <trkpt lat="41.957475" lon="2.837469">
        <ele>3.40</ele>
        <time>2018-01-02T14:42:35Z</time>
      </trkpt>
      <trkpt lat="41.957247" lon="2.837446">
        <ele>3.80</ele>
        <time>2018-01-02T14:42:39Z</time>
      </trkpt>
      <trkpt lat="41.957193" lon="2.837454">
        <ele>3.80</ele>
        <time>2018-01-02T14:42:40Z</time>
      </trkpt>
      <trkpt lat="41.957148" lon="2.837485">
        <ele>3.60</ele>
        <time>2018-01-02T14:42:41Z</time>
      </trkpt>
      <trkpt lat="41.956912" lon="2.837700">
        <ele>2.80</ele>
        <time>2018-01-02T14:42:46Z</time>
      </trkpt>
      <trkpt lat="41.956811" lon="2.837782">
        <ele>2.60</ele>
        <time>2018-01-02T14:42:48Z</time>
      </trkpt>
      <trkpt lat="41.956761" lon="2.837823">
        <ele>2.60</ele>
        <time>2018-01-02T14:42:49Z</time>
      </trkpt>
      <trkpt lat="41.956664" lon="2.837891">
        <ele>2.20</ele>
        <time>2018-01-02T14:42:51Z</time>
      </trkpt>
      <trkpt lat="41.956597" lon="2.837965">
        <ele>2.20</ele>
        <time>2018-01-02T14:42:53Z</time>
      </trkpt>
      <trkpt lat="41.956620" lon="2.838071">
        <ele>2.20</ele>
        <time>2018-01-02T14:42:55Z</time>
      </trkpt>
      <trkpt lat="41.956659" lon="2.838116">
        <ele>2.00</ele>
        <time>2018-01-02T14:42:56Z</time>
      </trkpt>
      <trkpt lat="41.957053" lon="2.838393">
        <ele>1.60</ele>
        <time>2018-01-02T14:43:03Z</time>
      </trkpt>
      <trkpt lat="41.957117" lon="2.838434">
        <ele>1.40</ele>
        <time>2018-01-02T14:43:04Z</time>
      </trkpt>
      <trkpt lat="41.957248" lon="2.838517">
        <ele>1.40</ele>
        <time>2018-01-02T14:43:06Z</time>
      </trkpt>
      <trkpt lat="41.957741" lon="2.838828">
        <ele>1.00</ele>
        <time>2018-01-02T14:43:13Z</time>
      </trkpt>
      <trkpt lat="41.957966" lon="2.838968">
        <ele>1.20</ele>
        <time>2018-01-02T14:43:16Z</time>
      </trkpt>
      <trkpt lat="41.958089" lon="2.839062">
        <ele>1.00</ele>
        <time>2018-01-02T14:43:18Z</time>
      </trkpt>
      <trkpt lat="41.958138" lon="2.839117">
        <ele>0.80</ele>
        <time>2018-01-02T14:43:19Z</time>
      </trkpt>
      <trkpt lat="41.958222" lon="2.839244">
        <ele>0.80</ele>
        <time>2018-01-02T14:43:21Z</time>
      </trkpt>
      <trkpt lat="41.958260" lon="2.839511">
        <ele>0.80</ele>
        <time>2018-01-02T14:43:24Z</time>
      </trkpt>
      <trkpt lat="41.958179" lon="2.839748">
        <ele>1.00</ele>
        <time>2018-01-02T14:43:27Z</time>
      </trkpt>
      <trkpt lat="41.958077" lon="2.839823">
        <ele>1.00</ele>
        <time>2018-01-02T14:43:29Z</time>
      </trkpt>
      <trkpt lat="41.958019" lon="2.839816">
        <ele>1.00</ele>
        <time>2018-01-02T14:43:30Z</time>
      </trkpt>
      <trkpt lat="41.957858" lon="2.839676">
        <ele>0.60</ele>
        <time>2018-01-02T14:43:33Z</time>
      </trkpt>
      <trkpt lat="41.957685" lon="2.839487">
        <ele>0.60</ele>
        <time>2018-01-02T14:43:36Z</time>
      </trkpt>
      <trkpt lat="41.957437" lon="2.839258">
        <ele>0.20</ele>
        <time>2018-01-02T14:43:40Z</time>
      </trkpt>
      <trkpt lat="41.957169" lon="2.839053">
        <ele>0.20</ele>
        <time>2018-01-02T14:43:44Z</time>
      </trkpt>
      <trkpt lat="41.956839" lon="2.838804">
        <ele>0.20</ele>
        <time>2018-01-02T14:43:49Z</time>
      </trkpt>
      <trkpt lat="41.956707" lon="2.838701">
        <ele>0.20</ele>
        <time>2018-01-02T14:43:51Z</time>
      </trkpt>
      <trkpt lat="41.956432" lon="2.838504">
        <ele>0.60</ele>
        <time>2018-01-02T14:43:55Z</time>
      </trkpt>
      <trkpt lat="41.956360" lon="2.838460">
        <ele>0.60</ele>
        <time>2018-01-02T14:43:56Z</time>
      </trkpt>
      <trkpt lat="41.955962" lon="2.838148">
        <ele>1.00</ele>
        <time>2018-01-02T14:44:02Z</time>
      </trkpt>
      <trkpt lat="41.955505" lon="2.837698">
        <ele>1.20</ele>
        <time>2018-01-02T14:44:09Z</time>
      </trkpt>
      <trkpt lat="41.955329" lon="2.837496">
        <ele>1.40</ele>
        <time>2018-01-02T14:44:12Z</time>
      </trkpt>
      <trkpt lat="41.955272" lon="2.837429">
        <ele>1.60</ele>
        <time>2018-01-02T14:44:13Z</time>
      </trkpt>
      <trkpt lat="41.955213" lon="2.837365">
        <ele>1.80</ele>
        <time>2018-01-02T14:44:14Z</time>
      </trkpt>
      <trkpt lat="41.955084" lon="2.837281">
        <ele>2.00</ele>
        <time>2018-01-02T14:44:16Z</time>
      </trkpt>
      <trkpt lat="41.954818" lon="2.837235">
        <ele>3.00</ele>
        <time>2018-01-02T14:44:20Z</time>
      </trkpt>
      <trkpt lat="41.954625" lon="2.837213">
        <ele>3.40</ele>
        <time>2018-01-02T14:44:23Z</time>
      </trkpt>
      <trkpt lat="41.954419" lon="2.837192">
        <ele>3.60</ele>
        <time>2018-01-02T14:44:27Z</time>
      </trkpt>
      <trkpt lat="41.953955" lon="2.837149">
        <ele>3.20</ele>
        <time>2018-01-02T14:44:36Z</time>
      </trkpt>
      <trkpt lat="41.953638" lon="2.837130">
        <ele>2.40</ele>
        <time>2018-01-02T14:44:42Z</time>
      </trkpt>
      <trkpt lat="41.953129" lon="2.837099">
        <ele>2.80</ele>
        <time>2018-01-02T14:44:50Z</time>
      </trkpt>
      <trkpt lat="41.953063" lon="2.837091">
        <ele>2.80</ele>
        <time>2018-01-02T14:44:51Z</time>
      </trkpt>
      <trkpt lat="41.952487" lon="2.837053">
        <ele>3.60</ele>
        <time>2018-01-02T14:44:59Z</time>
      </trkpt>
      <trkpt lat="41.952132" lon="2.837027">
        <ele>4.00</ele>
        <time>2018-01-02T14:45:04Z</time>
      </trkpt>
      <trkpt lat="41.952064" lon="2.837021">
        <ele>4.20</ele>
        <time>2018-01-02T14:45:05Z</time>
      </trkpt>
      <trkpt lat="41.951663" lon="2.836973">
        <ele>5.00</ele>
        <time>2018-01-02T14:45:11Z</time>
      </trkpt>
      <trkpt lat="41.951526" lon="2.836964">
        <ele>5.60</ele>
        <time>2018-01-02T14:45:13Z</time>
      </trkpt>
      <trkpt lat="41.951075" lon="2.836931">
        <ele>6.00</ele>
        <time>2018-01-02T14:45:19Z</time>
      </trkpt>
      <trkpt lat="41.950929" lon="2.836918">
        <ele>6.20</ele>
        <time>2018-01-02T14:45:21Z</time>
      </trkpt>
      <trkpt lat="41.950598" lon="2.836889">
        <ele>6.80</ele>
        <time>2018-01-02T14:45:26Z</time>
      </trkpt>
      <trkpt lat="41.950473" lon="2.836881">
        <ele>7.20</ele>
        <time>2018-01-02T14:45:28Z</time>
      </trkpt>
      <trkpt lat="41.950348" lon="2.836865">
        <ele>7.20</ele>
        <time>2018-01-02T14:45:30Z</time>
      </trkpt>
      <trkpt lat="41.950151" lon="2.836855">
        <ele>7.60</ele>
        <time>2018-01-02T14:45:33Z</time>
      </trkpt>
      <trkpt lat="41.949952" lon="2.836839">
        <ele>8.40</ele>
        <time>2018-01-02T14:45:36Z</time>
      </trkpt>
      <trkpt lat="41.949885" lon="2.836834">
        <ele>8.40</ele>
        <time>2018-01-02T14:45:37Z</time>
      </trkpt>
      <trkpt lat="41.949595" lon="2.836811">
        <ele>8.80</ele>
        <time>2018-01-02T14:45:41Z</time>
      </trkpt>
      <trkpt lat="41.949370" lon="2.836788">
        <ele>9.40</ele>
        <time>2018-01-02T14:45:44Z</time>
      </trkpt>
      <trkpt lat="41.948845" lon="2.836742">
        <ele>10.60</ele>
        <time>2018-01-02T14:45:51Z</time>
      </trkpt>
      <trkpt lat="41.948542" lon="2.836720">
        <ele>11.20</ele>
        <time>2018-01-02T14:45:55Z</time>
      </trkpt>
      <trkpt lat="41.948252" lon="2.836700">
        <ele>11.60</ele>
        <time>2018-01-02T14:45:59Z</time>
      </trkpt>
      <trkpt lat="41.948112" lon="2.836694">
        <ele>11.80</ele>
        <time>2018-01-02T14:46:01Z</time>
      </trkpt>
      <trkpt lat="41.947973" lon="2.836684">
        <ele>11.80</ele>
        <time>2018-01-02T14:46:03Z</time>
      </trkpt>
      <trkpt lat="41.947534" lon="2.836642">
        <ele>12.80</ele>
        <time>2018-01-02T14:46:09Z</time>
      </trkpt>
      <trkpt lat="41.946952" lon="2.836588">
        <ele>13.80</ele>
        <time>2018-01-02T14:46:17Z</time>
      </trkpt>
      <trkpt lat="41.946880" lon="2.836584">
        <ele>14.00</ele>
        <time>2018-01-02T14:46:18Z</time>
      </trkpt>
      <trkpt lat="41.946295" lon="2.836541">
        <ele>15.00</ele>
        <time>2018-01-02T14:46:26Z</time>
      </trkpt>
      <trkpt lat="41.946147" lon="2.836526">
        <ele>15.20</ele>
        <time>2018-01-02T14:46:28Z</time>
      </trkpt>
      <trkpt lat="41.945925" lon="2.836507">
        <ele>15.40</ele>
        <time>2018-01-02T14:46:31Z</time>
      </trkpt>
      <trkpt lat="41.945709" lon="2.836495">
        <ele>16.00</ele>
        <time>2018-01-02T14:46:34Z</time>
      </trkpt>
      <trkpt lat="41.945636" lon="2.836491">
        <ele>16.00</ele>
        <time>2018-01-02T14:46:35Z</time>
      </trkpt>
      <trkpt lat="41.945563" lon="2.836488">
        <ele>16.20</ele>
        <time>2018-01-02T14:46:36Z</time>
      </trkpt>
      <trkpt lat="41.945345" lon="2.836473">
        <ele>16.60</ele>
        <time>2018-01-02T14:46:39Z</time>
      </trkpt>
      <trkpt lat="41.945125" lon="2.836453">
        <ele>17.20</ele>
        <time>2018-01-02T14:46:42Z</time>
      </trkpt>
      <trkpt lat="41.945052" lon="2.836448">
        <ele>17.20</ele>
        <time>2018-01-02T14:46:43Z</time>
      </trkpt>
      <trkpt lat="41.944907" lon="2.836434">
        <ele>17.60</ele>
        <time>2018-01-02T14:46:45Z</time>
      </trkpt>
      <trkpt lat="41.944467" lon="2.836394">
        <ele>18.20</ele>
        <time>2018-01-02T14:46:51Z</time>
      </trkpt>
      <trkpt lat="41.944050" lon="2.836350">
        <ele>18.60</ele>
        <time>2018-01-02T14:46:57Z</time>
      </trkpt>
      <trkpt lat="41.943658" lon="2.836299">
        <ele>18.60</ele>
        <time>2018-01-02T14:47:03Z</time>
      </trkpt>
      <trkpt lat="41.943552" lon="2.836281">
        <ele>18.80</ele>
        <time>2018-01-02T14:47:05Z</time>
      </trkpt>
      <trkpt lat="41.943508" lon="2.836283">
        <ele>18.80</ele>
        <time>2018-01-02T14:47:06Z</time>
      </trkpt>
      <trkpt lat="41.943262" lon="2.836269">
        <ele>19.00</ele>
        <time>2018-01-02T14:47:11Z</time>
      </trkpt>
      <trkpt lat="41.942759" lon="2.836239">
        <ele>19.00</ele>
        <time>2018-01-02T14:47:18Z</time>
      </trkpt>
      <trkpt lat="41.942204" lon="2.836184">
        <ele>19.00</ele>
        <time>2018-01-02T14:47:25Z</time>
      </trkpt>
      <trkpt lat="41.942124" lon="2.836174">
        <ele>19.00</ele>
        <time>2018-01-02T14:47:26Z</time>
      </trkpt>
      <trkpt lat="41.941567" lon="2.836121">
        <ele>19.40</ele>
        <time>2018-01-02T14:47:33Z</time>
      </trkpt>
      <trkpt lat="41.941074" lon="2.836093">
        <ele>19.40</ele>
        <time>2018-01-02T14:47:39Z</time>
      </trkpt>
      <trkpt lat="41.940599" lon="2.836182">
        <ele>19.60</ele>
        <time>2018-01-02T14:47:45Z</time>
      </trkpt>
      <trkpt lat="41.940158" lon="2.836378">
        <ele>19.60</ele>
        <time>2018-01-02T14:47:51Z</time>
      </trkpt>
      <trkpt lat="41.939713" lon="2.836758">
        <ele>19.20</ele>
        <time>2018-01-02T14:47:58Z</time>
      </trkpt>
      <trkpt lat="41.939652" lon="2.836818">
        <ele>19.20</ele>
        <time>2018-01-02T14:47:59Z</time>
      </trkpt>
      <trkpt lat="41.939532" lon="2.836941">
        <ele>19.20</ele>
        <time>2018-01-02T14:48:01Z</time>
      </trkpt>
      <trkpt lat="41.939365" lon="2.837137">
        <ele>19.40</ele>
        <time>2018-01-02T14:48:04Z</time>
      </trkpt>
      <trkpt lat="41.939311" lon="2.837209">
        <ele>19.20</ele>
        <time>2018-01-02T14:48:05Z</time>
      </trkpt>
      <trkpt lat="41.939000" lon="2.837659">
        <ele>18.40</ele>
        <time>2018-01-02T14:48:11Z</time>
      </trkpt>
      <trkpt lat="41.938909" lon="2.837820">
        <ele>18.20</ele>
        <time>2018-01-02T14:48:13Z</time>
      </trkpt>
      <trkpt lat="41.938822" lon="2.837989">
        <ele>18.60</ele>
        <time>2018-01-02T14:48:15Z</time>
      </trkpt>
      <trkpt lat="41.938607" lon="2.838420">
        <ele>18.60</ele>
        <time>2018-01-02T14:48:20Z</time>
      </trkpt>
      <trkpt lat="41.938393" lon="2.838845">
        <ele>18.80</ele>
        <time>2018-01-02T14:48:25Z</time>
      </trkpt>
      <trkpt lat="41.938262" lon="2.839098">
        <ele>19.00</ele>
        <time>2018-01-02T14:48:28Z</time>
      </trkpt>
      <trkpt lat="41.938064" lon="2.839499">
        <ele>19.00</ele>
        <time>2018-01-02T14:48:33Z</time>
      </trkpt>
      <trkpt lat="41.937918" lon="2.839774">
        <ele>19.20</ele>
        <time>2018-01-02T14:48:37Z</time>
      </trkpt>
      <trkpt lat="41.937585" lon="2.840348">
        <ele>19.40</ele>
        <time>2018-01-02T14:48:44Z</time>
      </trkpt>
      <trkpt lat="41.937450" lon="2.840608">
        <ele>19.40</ele>
        <time>2018-01-02T14:48:47Z</time>
      </trkpt>
      <trkpt lat="41.937264" lon="2.840978">
        <ele>20.00</ele>
        <time>2018-01-02T14:48:51Z</time>
      </trkpt>
      <trkpt lat="41.937160" lon="2.841152">
        <ele>20.40</ele>
        <time>2018-01-02T14:48:53Z</time>
      </trkpt>
      <trkpt lat="41.937100" lon="2.841232">
        <ele>20.60</ele>
        <time>2018-01-02T14:48:54Z</time>
      </trkpt>
      <trkpt lat="41.937035" lon="2.841303">
        <ele>20.60</ele>
        <time>2018-01-02T14:48:55Z</time>
      </trkpt>
      <trkpt lat="41.936680" lon="2.841586">
        <ele>21.60</ele>
        <time>2018-01-02T14:49:00Z</time>
      </trkpt>
      <trkpt lat="41.936298" lon="2.841721">
        <ele>22.40</ele>
        <time>2018-01-02T14:49:05Z</time>
      </trkpt>
      <trkpt lat="41.936224" lon="2.841731">
        <ele>22.60</ele>
        <time>2018-01-02T14:49:06Z</time>
      </trkpt>
      <trkpt lat="41.936154" lon="2.841738">
        <ele>22.60</ele>
        <time>2018-01-02T14:49:07Z</time>
      </trkpt>
      <trkpt lat="41.935860" lon="2.841703">
        <ele>23.00</ele>
        <time>2018-01-02T14:49:11Z</time>
      </trkpt>
      <trkpt lat="41.935456" lon="2.841568">
        <ele>23.60</ele>
        <time>2018-01-02T14:49:17Z</time>
      </trkpt>
      <trkpt lat="41.935338" lon="2.841510">
        <ele>23.80</ele>
        <time>2018-01-02T14:49:19Z</time>
      </trkpt>
      <trkpt lat="41.935160" lon="2.841439">
        <ele>23.80</ele>
        <time>2018-01-02T14:49:22Z</time>
      </trkpt>
      <trkpt lat="41.935035" lon="2.841330">
        <ele>23.80</ele>
        <time>2018-01-02T14:49:25Z</time>
      </trkpt>
      <trkpt lat="41.935033" lon="2.841264">
        <ele>23.80</ele>
        <time>2018-01-02T14:49:26Z</time>
      </trkpt>
      <trkpt lat="41.935184" lon="2.840939">
        <ele>23.20</ele>
        <time>2018-01-02T14:49:31Z</time>
      </trkpt>
      <trkpt lat="41.935238" lon="2.840802">
        <ele>23.20</ele>
        <time>2018-01-02T14:49:33Z</time>
      </trkpt>
      <trkpt lat="41.935206" lon="2.840704">
        <ele>23.60</ele>
        <time>2018-01-02T14:49:35Z</time>
      </trkpt>
      <trkpt lat="41.935164" lon="2.840669">
        <ele>24.00</ele>
        <time>2018-01-02T14:49:36Z</time>
      </trkpt>
      <trkpt lat="41.935112" lon="2.840631">
        <ele>24.00</ele>
        <time>2018-01-02T14:49:37Z</time>
      </trkpt>
      <trkpt lat="41.934996" lon="2.840556">
        <ele>23.80</ele>
        <time>2018-01-02T14:49:39Z</time>
      </trkpt>
      <trkpt lat="41.934780" lon="2.840661">
        <ele>24.00</ele>
        <time>2018-01-02T14:49:43Z</time>
      </trkpt>
      <trkpt lat="41.934724" lon="2.840671">
        <ele>24.20</ele>
        <time>2018-01-02T14:49:44Z</time>
      </trkpt>
      <trkpt lat="41.934541" lon="2.840631">
        <ele>24.80</ele>
        <time>2018-01-02T14:49:48Z</time>
      </trkpt>
      <trkpt lat="41.934499" lon="2.840634">
        <ele>25.20</ele>
        <time>2018-01-02T14:49:49Z</time>
      </trkpt>
      <trkpt lat="41.934441" lon="2.840690">
        <ele>26.00</ele>
        <time>2018-01-02T14:49:51Z</time>
      </trkpt>
      <trkpt lat="41.934419" lon="2.840734">
        <ele>26.40</ele>
        <time>2018-01-02T14:49:52Z</time>
      </trkpt>
      <trkpt lat="41.934351" lon="2.840851">
        <ele>27.20</ele>
        <time>2018-01-02T14:49:54Z</time>
      </trkpt>
      <trkpt lat="41.934305" lon="2.840923">
        <ele>27.40</ele>
        <time>2018-01-02T14:49:55Z</time>
      </trkpt>
      <trkpt lat="41.934083" lon="2.841229">
        <ele>27.60</ele>
        <time>2018-01-02T14:49:59Z</time>
      </trkpt>
      <trkpt lat="41.933812" lon="2.841713">
        <ele>27.80</ele>
        <time>2018-01-02T14:50:04Z</time>
      </trkpt>
      <trkpt lat="41.933754" lon="2.841828">
        <ele>28.40</ele>
        <time>2018-01-02T14:50:05Z</time>
      </trkpt>
      <trkpt lat="41.933631" lon="2.842064">
        <ele>30.00</ele>
        <time>2018-01-02T14:50:07Z</time>
      </trkpt>
      <trkpt lat="41.933562" lon="2.842177">
        <ele>31.20</ele>
        <time>2018-01-02T14:50:08Z</time>
      </trkpt>
      <trkpt lat="41.933491" lon="2.842282">
        <ele>32.40</ele>
        <time>2018-01-02T14:50:09Z</time>
      </trkpt>
      <trkpt lat="41.933426" lon="2.842374">
        <ele>33.40</ele>
        <time>2018-01-02T14:50:10Z</time>
      </trkpt>
      <trkpt lat="41.933369" lon="2.842462">
        <ele>33.80</ele>
        <time>2018-01-02T14:50:11Z</time>
      </trkpt>
      <trkpt lat="41.933282" lon="2.842645">
        <ele>34.60</ele>
        <time>2018-01-02T14:50:13Z</time>
      </trkpt>
      <trkpt lat="41.933247" lon="2.842744">
        <ele>35.20</ele>
        <time>2018-01-02T14:50:14Z</time>
      </trkpt>
      <trkpt lat="41.933220" lon="2.842856">
        <ele>35.80</ele>
        <time>2018-01-02T14:50:15Z</time>
      </trkpt>
      <trkpt lat="41.933121" lon="2.843259">
        <ele>37.60</ele>
        <time>2018-01-02T14:50:19Z</time>
      </trkpt>
      <trkpt lat="41.933101" lon="2.843346">
        <ele>37.20</ele>
        <time>2018-01-02T14:50:20Z</time>
      </trkpt>
      <trkpt lat="41.933080" lon="2.843435">
        <ele>37.00</ele>
        <time>2018-01-02T14:50:21Z</time>
      </trkpt>
      <trkpt lat="41.933033" lon="2.843611">
        <ele>36.60</ele>
        <time>2018-01-02T14:50:23Z</time>
      </trkpt>
      <trkpt lat="41.933007" lon="2.843698">
        <ele>35.60</ele>
        <time>2018-01-02T14:50:24Z</time>
      </trkpt>
      <trkpt lat="41.932955" lon="2.843875">
        <ele>34.00</ele>
        <time>2018-01-02T14:50:26Z</time>
      </trkpt>
      <trkpt lat="41.932929" lon="2.843967">
        <ele>33.60</ele>
        <time>2018-01-02T14:50:27Z</time>
      </trkpt>
      <trkpt lat="41.932822" lon="2.844232">
        <ele>32.80</ele>
        <time>2018-01-02T14:50:30Z</time>
      </trkpt>
      <trkpt lat="41.932650" lon="2.844419">
        <ele>32.80</ele>
        <time>2018-01-02T14:50:33Z</time>
      </trkpt>
      <trkpt lat="41.932581" lon="2.844465">
        <ele>32.80</ele>
        <time>2018-01-02T14:50:34Z</time>
      </trkpt>
      <trkpt lat="41.932365" lon="2.844571">
        <ele>33.20</ele>
        <time>2018-01-02T14:50:37Z</time>
      </trkpt>
      <trkpt lat="41.932013" lon="2.844740">
        <ele>33.00</ele>
        <time>2018-01-02T14:50:42Z</time>
      </trkpt>
      <trkpt lat="41.931793" lon="2.844832">
        <ele>33.00</ele>
        <time>2018-01-02T14:50:45Z</time>
      </trkpt>
      <trkpt lat="41.931565" lon="2.844922">
        <ele>33.60</ele>
        <time>2018-01-02T14:50:48Z</time>
      </trkpt>
      <trkpt lat="41.931424" lon="2.845014">
        <ele>34.20</ele>
        <time>2018-01-02T14:50:50Z</time>
      </trkpt>
      <trkpt lat="41.931236" lon="2.845188">
        <ele>34.80</ele>
        <time>2018-01-02T14:50:53Z</time>
      </trkpt>
      <trkpt lat="41.931031" lon="2.845446">
        <ele>35.20</ele>
        <time>2018-01-02T14:50:57Z</time>
      </trkpt>
      <trkpt lat="41.930991" lon="2.845519">
        <ele>35.40</ele>
        <time>2018-01-02T14:50:58Z</time>
      </trkpt>
      <trkpt lat="41.930829" lon="2.845882">
        <ele>35.80</ele>
        <time>2018-01-02T14:51:03Z</time>
      </trkpt>
      <trkpt lat="41.930727" lon="2.846083">
        <ele>36.20</ele>
        <time>2018-01-02T14:51:07Z</time>
      </trkpt>
      <trkpt lat="41.930693" lon="2.846153">
        <ele>36.40</ele>
        <time>2018-01-02T14:51:09Z</time>
      </trkpt>
      <trkpt lat="41.930668" lon="2.846205">
        <ele>36.40</ele>
        <time>2018-01-02T14:51:10Z</time>
      </trkpt>
      <trkpt lat="41.930455" lon="2.846709">
        <ele>37.00</ele>
        <time>2018-01-02T14:51:16Z</time>
      </trkpt>
      <trkpt lat="41.930307" lon="2.847080">
        <ele>37.40</ele>
        <time>2018-01-02T14:51:20Z</time>
      </trkpt>
      <trkpt lat="41.930184" lon="2.847368">
        <ele>37.60</ele>
        <time>2018-01-02T14:51:23Z</time>
      </trkpt>
      <trkpt lat="41.930034" lon="2.847646">
        <ele>38.40</ele>
        <time>2018-01-02T14:51:26Z</time>
      </trkpt>
      <trkpt lat="41.929917" lon="2.847817">
        <ele>39.00</ele>
        <time>2018-01-02T14:51:28Z</time>
      </trkpt>
      <trkpt lat="41.929796" lon="2.847968">
        <ele>39.60</ele>
        <time>2018-01-02T14:51:30Z</time>
      </trkpt>
      <trkpt lat="41.929540" lon="2.848224">
        <ele>40.60</ele>
        <time>2018-01-02T14:51:34Z</time>
      </trkpt>
      <trkpt lat="41.929219" lon="2.848451">
        <ele>41.80</ele>
        <time>2018-01-02T14:51:39Z</time>
      </trkpt>
      <trkpt lat="41.929025" lon="2.848544">
        <ele>41.80</ele>
        <time>2018-01-02T14:51:42Z</time>
      </trkpt>
      <trkpt lat="41.928604" lon="2.848713">
        <ele>42.80</ele>
        <time>2018-01-02T14:51:48Z</time>
      </trkpt>
      <trkpt lat="41.928534" lon="2.848743">
        <ele>43.00</ele>
        <time>2018-01-02T14:51:49Z</time>
      </trkpt>
      <trkpt lat="41.928069" lon="2.848933">
        <ele>44.00</ele>
        <time>2018-01-02T14:51:56Z</time>
      </trkpt>
      <trkpt lat="41.927711" lon="2.849088">
        <ele>44.40</ele>
        <time>2018-01-02T14:52:02Z</time>
      </trkpt>
      <trkpt lat="41.927478" lon="2.849172">
        <ele>44.20</ele>
        <time>2018-01-02T14:52:06Z</time>
      </trkpt>
      <trkpt lat="41.927319" lon="2.849238">
        <ele>43.80</ele>
        <time>2018-01-02T14:52:09Z</time>
      </trkpt>
      <trkpt lat="41.927160" lon="2.849293">
        <ele>43.80</ele>
        <time>2018-01-02T14:52:12Z</time>
      </trkpt>
      <trkpt lat="41.926942" lon="2.849350">
        <ele>43.20</ele>
        <time>2018-01-02T14:52:16Z</time>
      </trkpt>
      <trkpt lat="41.926596" lon="2.849421">
        <ele>43.00</ele>
        <time>2018-01-02T14:52:22Z</time>
      </trkpt>
      <trkpt lat="41.926486" lon="2.849438">
        <ele>42.80</ele>
        <time>2018-01-02T14:52:24Z</time>
      </trkpt>
      <trkpt lat="41.926090" lon="2.849462">
        <ele>42.40</ele>
        <time>2018-01-02T14:52:31Z</time>
      </trkpt>
      <trkpt lat="41.925932" lon="2.849470">
        <ele>42.40</ele>
        <time>2018-01-02T14:52:34Z</time>
      </trkpt>
      <trkpt lat="41.925763" lon="2.849478">
        <ele>42.00</ele>
        <time>2018-01-02T14:52:37Z</time>
      </trkpt>
      <trkpt lat="41.925585" lon="2.849475">
        <ele>42.00</ele>
        <time>2018-01-02T14:52:40Z</time>
      </trkpt>
      <trkpt lat="41.925526" lon="2.849475">
        <ele>42.00</ele>
        <time>2018-01-02T14:52:41Z</time>
      </trkpt>
      <trkpt lat="41.925188" lon="2.849479">
        <ele>41.80</ele>
        <time>2018-01-02T14:52:47Z</time>
      </trkpt>
      <trkpt lat="41.925078" lon="2.849479">
        <ele>41.80</ele>
        <time>2018-01-02T14:52:49Z</time>
      </trkpt>
      <trkpt lat="41.924866" lon="2.849483">
        <ele>41.80</ele>
        <time>2018-01-02T14:52:53Z</time>
      </trkpt>
      <trkpt lat="41.924716" lon="2.849489">
        <ele>41.20</ele>
        <time>2018-01-02T14:52:56Z</time>
      </trkpt>
      <trkpt lat="41.924576" lon="2.849501">
        <ele>41.40</ele>
        <time>2018-01-02T14:52:59Z</time>
      </trkpt>
      <trkpt lat="41.924412" lon="2.849509">
        <ele>41.00</ele>
        <time>2018-01-02T14:53:03Z</time>
      </trkpt>
      <trkpt lat="41.924215" lon="2.849524">
        <ele>41.20</ele>
        <time>2018-01-02T14:53:09Z</time>
      </trkpt>
      <trkpt lat="41.924188" lon="2.849525">
        <ele>41.20</ele>
        <time>2018-01-02T14:53:10Z</time>
      </trkpt>
      <trkpt lat="41.924164" lon="2.849525">
        <ele>41.20</ele>
        <time>2018-01-02T14:53:11Z</time>
      </trkpt>
      <trkpt lat="41.924091" lon="2.849551">
        <ele>41.00</ele>
        <time>2018-01-02T14:55:06Z</time>
      </trkpt>
      <trkpt lat="41.924026" lon="2.849541">
        <ele>41.00</ele>
        <time>2018-01-02T14:55:08Z</time>
      </trkpt>
      <trkpt lat="41.923893" lon="2.849539">
        <ele>41.20</ele>
        <time>2018-01-02T14:55:11Z</time>
      </trkpt>
      <trkpt lat="41.923391" lon="2.849542">
        <ele>40.80</ele>
        <time>2018-01-02T14:55:20Z</time>
      </trkpt>
      <trkpt lat="41.922984" lon="2.849562">
        <ele>40.20</ele>
        <time>2018-01-02T14:55:27Z</time>
      </trkpt>
      <trkpt lat="41.922664" lon="2.849550">
        <ele>40.40</ele>
        <time>2018-01-02T14:55:34Z</time>
      </trkpt>
      <trkpt lat="41.922511" lon="2.849549">
        <ele>40.20</ele>
        <time>2018-01-02T14:55:38Z</time>
      </trkpt>
      <trkpt lat="41.922381" lon="2.849547">
        <ele>40.40</ele>
        <time>2018-01-02T14:55:41Z</time>
      </trkpt>
      <trkpt lat="41.922247" lon="2.849555">
        <ele>40.60</ele>
        <time>2018-01-02T14:55:44Z</time>
      </trkpt>
      <trkpt lat="41.922107" lon="2.849553">
        <ele>41.20</ele>
        <time>2018-01-02T14:55:47Z</time>
      </trkpt>
      <trkpt lat="41.921823" lon="2.849552">
        <ele>41.80</ele>
        <time>2018-01-02T14:55:52Z</time>
      </trkpt>
      <trkpt lat="41.921295" lon="2.849564">
        <ele>41.20</ele>
        <time>2018-01-02T14:56:00Z</time>
      </trkpt>
      <trkpt lat="41.921019" lon="2.849567">
        <ele>41.00</ele>
        <time>2018-01-02T14:56:04Z</time>
      </trkpt>
      <trkpt lat="41.920881" lon="2.849570">
        <ele>41.20</ele>
        <time>2018-01-02T14:56:06Z</time>
      </trkpt>
      <trkpt lat="41.920465" lon="2.849583">
        <ele>41.60</ele>
        <time>2018-01-02T14:56:12Z</time>
      </trkpt>
      <trkpt lat="41.920337" lon="2.849607">
        <ele>42.00</ele>
        <time>2018-01-02T14:56:14Z</time>
      </trkpt>
      <trkpt lat="41.920097" lon="2.849613">
        <ele>42.20</ele>
        <time>2018-01-02T14:56:18Z</time>
      </trkpt>
      <trkpt lat="41.919925" lon="2.849617">
        <ele>42.20</ele>
        <time>2018-01-02T14:56:21Z</time>
      </trkpt>
      <trkpt lat="41.919556" lon="2.849622">
        <ele>41.60</ele>
        <time>2018-01-02T14:56:27Z</time>
      </trkpt>
      <trkpt lat="41.919437" lon="2.849628">
        <ele>41.20</ele>
        <time>2018-01-02T14:56:29Z</time>
      </trkpt>
      <trkpt lat="41.919267" lon="2.849641">
        <ele>40.20</ele>
        <time>2018-01-02T14:56:32Z</time>
      </trkpt>
      <trkpt lat="41.919086" lon="2.849652">
        <ele>39.00</ele>
        <time>2018-01-02T14:56:35Z</time>
      </trkpt>
      <trkpt lat="41.918899" lon="2.849664">
        <ele>38.00</ele>
        <time>2018-01-02T14:56:38Z</time>
      </trkpt>
      <trkpt lat="41.918705" lon="2.849677">
        <ele>36.80</ele>
        <time>2018-01-02T14:56:41Z</time>
      </trkpt>
      <trkpt lat="41.918566" lon="2.849689">
        <ele>36.20</ele>
        <time>2018-01-02T14:56:43Z</time>
      </trkpt>
      <trkpt lat="41.918423" lon="2.849703">
        <ele>35.60</ele>
        <time>2018-01-02T14:56:45Z</time>
      </trkpt>
      <trkpt lat="41.918132" lon="2.849718">
        <ele>34.60</ele>
        <time>2018-01-02T14:56:49Z</time>
      </trkpt>
      <trkpt lat="41.917742" lon="2.849673">
        <ele>34.20</ele>
        <time>2018-01-02T14:56:54Z</time>
      </trkpt>
      <trkpt lat="41.917492" lon="2.849666">
        <ele>34.60</ele>
        <time>2018-01-02T14:56:57Z</time>
      </trkpt>
      <trkpt lat="41.917087" lon="2.849659">
        <ele>35.20</ele>
        <time>2018-01-02T14:57:02Z</time>
      </trkpt>
      <trkpt lat="41.916543" lon="2.849695">
        <ele>35.40</ele>
        <time>2018-01-02T14:57:09Z</time>
      </trkpt>
      <trkpt lat="41.916020" lon="2.849773">
        <ele>35.40</ele>
        <time>2018-01-02T14:57:16Z</time>
      </trkpt>
      <trkpt lat="41.915804" lon="2.849797">
        <ele>35.60</ele>
        <time>2018-01-02T14:57:19Z</time>
      </trkpt>
      <trkpt lat="41.915735" lon="2.849814">
        <ele>35.80</ele>
        <time>2018-01-02T14:57:20Z</time>
      </trkpt>
      <trkpt lat="41.915675" lon="2.849853">
        <ele>35.80</ele>
        <time>2018-01-02T14:57:21Z</time>
      </trkpt>
      <trkpt lat="41.915551" lon="2.850017">
        <ele>36.00</ele>
        <time>2018-01-02T14:57:24Z</time>
      </trkpt>
      <trkpt lat="41.915523" lon="2.850076">
        <ele>36.00</ele>
        <time>2018-01-02T14:57:25Z</time>
      </trkpt>
      <trkpt lat="41.915506" lon="2.850149">
        <ele>36.20</ele>
        <time>2018-01-02T14:57:26Z</time>
      </trkpt>
      <trkpt lat="41.915496" lon="2.850237">
        <ele>36.20</ele>
        <time>2018-01-02T14:57:27Z</time>
      </trkpt>
      <trkpt lat="41.915415" lon="2.850500">
        <ele>36.60</ele>
        <time>2018-01-02T14:57:30Z</time>
      </trkpt>
      <trkpt lat="41.915250" lon="2.850684">
        <ele>36.80</ele>
        <time>2018-01-02T14:57:33Z</time>
      </trkpt>
      <trkpt lat="41.915181" lon="2.850712">
        <ele>37.00</ele>
        <time>2018-01-02T14:57:34Z</time>
      </trkpt>
      <trkpt lat="41.914584" lon="2.850887">
        <ele>36.40</ele>
        <time>2018-01-02T14:57:42Z</time>
      </trkpt>
      <trkpt lat="41.914351" lon="2.850957">
        <ele>36.40</ele>
        <time>2018-01-02T14:57:45Z</time>
      </trkpt>
      <trkpt lat="41.913808" lon="2.851112">
        <ele>36.60</ele>
        <time>2018-01-02T14:57:52Z</time>
      </trkpt>
      <trkpt lat="41.913269" lon="2.851278">
        <ele>36.80</ele>
        <time>2018-01-02T14:57:59Z</time>
      </trkpt>
      <trkpt lat="41.912896" lon="2.851406">
        <ele>36.60</ele>
        <time>2018-01-02T14:58:04Z</time>
      </trkpt>
      <trkpt lat="41.912819" lon="2.851432">
        <ele>36.80</ele>
        <time>2018-01-02T14:58:05Z</time>
      </trkpt>
      <trkpt lat="41.912665" lon="2.851481">
        <ele>37.00</ele>
        <time>2018-01-02T14:58:07Z</time>
      </trkpt>
      <trkpt lat="41.912134" lon="2.851643">
        <ele>37.20</ele>
        <time>2018-01-02T14:58:14Z</time>
      </trkpt>
      <trkpt lat="41.911983" lon="2.851688">
        <ele>37.20</ele>
        <time>2018-01-02T14:58:16Z</time>
      </trkpt>
      <trkpt lat="41.911452" lon="2.851854">
        <ele>37.60</ele>
        <time>2018-01-02T14:58:23Z</time>
      </trkpt>
      <trkpt lat="41.911375" lon="2.851876">
        <ele>37.80</ele>
        <time>2018-01-02T14:58:24Z</time>
      </trkpt>
      <trkpt lat="41.910840" lon="2.852038">
        <ele>38.40</ele>
        <time>2018-01-02T14:58:31Z</time>
      </trkpt>
      <trkpt lat="41.910444" lon="2.852143">
        <ele>38.80</ele>
        <time>2018-01-02T14:58:36Z</time>
      </trkpt>
      <trkpt lat="41.910283" lon="2.852197">
        <ele>39.20</ele>
        <time>2018-01-02T14:58:38Z</time>
      </trkpt>
      <trkpt lat="41.909717" lon="2.852376">
        <ele>39.80</ele>
        <time>2018-01-02T14:58:45Z</time>
      </trkpt>
      <trkpt lat="41.909472" lon="2.852444">
        <ele>40.40</ele>
        <time>2018-01-02T14:58:48Z</time>
      </trkpt>
      <trkpt lat="41.908897" lon="2.852554">
        <ele>41.00</ele>
        <time>2018-01-02T14:58:55Z</time>
      </trkpt>
      <trkpt lat="41.908328" lon="2.852605">
        <ele>40.80</ele>
        <time>2018-01-02T14:59:02Z</time>
      </trkpt>
      <trkpt lat="41.908246" lon="2.852607">
        <ele>41.00</ele>
        <time>2018-01-02T14:59:03Z</time>
      </trkpt>
      <trkpt lat="41.908001" lon="2.852604">
        <ele>41.40</ele>
        <time>2018-01-02T14:59:06Z</time>
      </trkpt>
      <trkpt lat="41.907416" lon="2.852596">
        <ele>42.20</ele>
        <time>2018-01-02T14:59:13Z</time>
      </trkpt>
      <trkpt lat="41.907254" lon="2.852594">
        <ele>42.20</ele>
        <time>2018-01-02T14:59:15Z</time>
      </trkpt>
      <trkpt lat="41.906939" lon="2.852580">
        <ele>42.40</ele>
        <time>2018-01-02T14:59:19Z</time>
      </trkpt>
      <trkpt lat="41.906443" lon="2.852576">
        <ele>43.20</ele>
        <time>2018-01-02T14:59:25Z</time>
      </trkpt>
      <trkpt lat="41.906204" lon="2.852574">
        <ele>43.40</ele>
        <time>2018-01-02T14:59:28Z</time>
      </trkpt>
      <trkpt lat="41.905662" lon="2.852545">
        <ele>44.40</ele>
        <time>2018-01-02T14:59:35Z</time>
      </trkpt>
      <trkpt lat="41.905582" lon="2.852546">
        <ele>44.40</ele>
        <time>2018-01-02T14:59:36Z</time>
      </trkpt>
      <trkpt lat="41.905193" lon="2.852547">
        <ele>45.40</ele>
        <time>2018-01-02T14:59:41Z</time>
      </trkpt>
      <trkpt lat="41.905117" lon="2.852547">
        <ele>45.60</ele>
        <time>2018-01-02T14:59:42Z</time>
      </trkpt>
      <trkpt lat="41.904681" lon="2.852577">
        <ele>45.60</ele>
        <time>2018-01-02T14:59:48Z</time>
      </trkpt>
      <trkpt lat="41.904165" lon="2.852653">
        <ele>45.60</ele>
        <time>2018-01-02T14:59:55Z</time>
      </trkpt>
      <trkpt lat="41.903792" lon="2.852744">
        <ele>46.00</ele>
        <time>2018-01-02T15:00:00Z</time>
      </trkpt>
      <trkpt lat="41.903302" lon="2.852921">
        <ele>46.40</ele>
        <time>2018-01-02T15:00:07Z</time>
      </trkpt>
      <trkpt lat="41.903234" lon="2.852951">
        <ele>46.40</ele>
        <time>2018-01-02T15:00:08Z</time>
      </trkpt>
      <trkpt lat="41.902830" lon="2.853136">
        <ele>45.80</ele>
        <time>2018-01-02T15:00:14Z</time>
      </trkpt>
      <trkpt lat="41.902315" lon="2.853347">
        <ele>45.00</ele>
        <time>2018-01-02T15:00:22Z</time>
      </trkpt>
      <trkpt lat="41.901962" lon="2.853419">
        <ele>45.00</ele>
        <time>2018-01-02T15:00:27Z</time>
      </trkpt>
      <trkpt lat="41.901533" lon="2.853430">
        <ele>45.00</ele>
        <time>2018-01-02T15:00:33Z</time>
      </trkpt>
      <trkpt lat="41.901319" lon="2.853403">
        <ele>44.80</ele>
        <time>2018-01-02T15:00:36Z</time>
      </trkpt>
      <trkpt lat="41.901102" lon="2.853343">
        <ele>45.40</ele>
        <time>2018-01-02T15:00:39Z</time>
      </trkpt>
      <trkpt lat="41.900588" lon="2.853158">
        <ele>45.40</ele>
        <time>2018-01-02T15:00:46Z</time>
      </trkpt>
      <trkpt lat="41.900437" lon="2.853092">
        <ele>45.60</ele>
        <time>2018-01-02T15:00:48Z</time>
      </trkpt>
      <trkpt lat="41.899892" lon="2.852873">
        <ele>46.40</ele>
        <time>2018-01-02T15:00:55Z</time>
      </trkpt>
      <trkpt lat="41.899573" lon="2.852755">
        <ele>46.40</ele>
        <time>2018-01-02T15:00:59Z</time>
      </trkpt>
      <trkpt lat="41.899409" lon="2.852689">
        <ele>47.00</ele>
        <time>2018-01-02T15:01:01Z</time>
      </trkpt>
      <trkpt lat="41.899323" lon="2.852664">
        <ele>47.60</ele>
        <time>2018-01-02T15:01:02Z</time>
      </trkpt>
      <trkpt lat="41.899152" lon="2.852613">
        <ele>48.80</ele>
        <time>2018-01-02T15:01:04Z</time>
      </trkpt>
      <trkpt lat="41.898998" lon="2.852595">
        <ele>50.00</ele>
        <time>2018-01-02T15:01:06Z</time>
      </trkpt>
      <trkpt lat="41.898928" lon="2.852593">
        <ele>50.20</ele>
        <time>2018-01-02T15:01:07Z</time>
      </trkpt>
      <trkpt lat="41.898864" lon="2.852587">
        <ele>50.20</ele>
        <time>2018-01-02T15:01:08Z</time>
      </trkpt>
      <trkpt lat="41.898759" lon="2.852574">
        <ele>50.20</ele>
        <time>2018-01-02T15:01:10Z</time>
      </trkpt>
      <trkpt lat="41.898720" lon="2.852590">
        <ele>50.40</ele>
        <time>2018-01-02T15:01:11Z</time>
      </trkpt>
      <trkpt lat="41.898691" lon="2.852689">
        <ele>51.00</ele>
        <time>2018-01-02T15:01:13Z</time>
      </trkpt>
      <trkpt lat="41.898704" lon="2.852828">
        <ele>51.40</ele>
        <time>2018-01-02T15:01:15Z</time>
      </trkpt>
      <trkpt lat="41.898736" lon="2.852899">
        <ele>51.80</ele>
        <time>2018-01-02T15:01:16Z</time>
      </trkpt>
      <trkpt lat="41.898881" lon="2.853091">
        <ele>51.80</ele>
        <time>2018-01-02T15:01:19Z</time>
      </trkpt>
      <trkpt lat="41.898933" lon="2.853155">
        <ele>51.80</ele>
        <time>2018-01-02T15:01:20Z</time>
      </trkpt>
      <trkpt lat="41.898971" lon="2.853233">
        <ele>51.40</ele>
        <time>2018-01-02T15:01:21Z</time>
      </trkpt>
      <trkpt lat="41.899044" lon="2.853491">
        <ele>51.60</ele>
        <time>2018-01-02T15:01:24Z</time>
      </trkpt>
      <trkpt lat="41.899050" lon="2.853584">
        <ele>51.60</ele>
        <time>2018-01-02T15:01:25Z</time>
      </trkpt>
      <trkpt lat="41.899040" lon="2.853771">
        <ele>51.40</ele>
        <time>2018-01-02T15:01:27Z</time>
      </trkpt>
      <trkpt lat="41.899030" lon="2.853869">
        <ele>51.40</ele>
        <time>2018-01-02T15:01:28Z</time>
      </trkpt>
      <trkpt lat="41.898967" lon="2.854148">
        <ele>51.60</ele>
        <time>2018-01-02T15:01:31Z</time>
      </trkpt>
      <trkpt lat="41.898833" lon="2.854618">
        <ele>51.60</ele>
        <time>2018-01-02T15:01:36Z</time>
      </trkpt>
      <trkpt lat="41.898780" lon="2.854912">
        <ele>51.40</ele>
        <time>2018-01-02T15:01:39Z</time>
      </trkpt>
      <trkpt lat="41.898728" lon="2.855318">
        <ele>52.00</ele>
        <time>2018-01-02T15:01:43Z</time>
      </trkpt>
      <trkpt lat="41.898657" lon="2.855901">
        <ele>53.00</ele>
        <time>2018-01-02T15:01:49Z</time>
      </trkpt>
      <trkpt lat="41.898614" lon="2.856155">
        <ele>52.80</ele>
        <time>2018-01-02T15:01:52Z</time>
      </trkpt>
      <trkpt lat="41.898627" lon="2.856324">
        <ele>52.60</ele>
        <time>2018-01-02T15:01:54Z</time>
      </trkpt>
      <trkpt lat="41.898673" lon="2.856384">
        <ele>52.60</ele>
        <time>2018-01-02T15:01:55Z</time>
      </trkpt>
      <trkpt lat="41.898733" lon="2.856425">
        <ele>52.80</ele>
        <time>2018-01-02T15:01:56Z</time>
      </trkpt>
      <trkpt lat="41.898851" lon="2.856509">
        <ele>53.00</ele>
        <time>2018-01-02T15:01:58Z</time>
      </trkpt>
      <trkpt lat="41.899016" lon="2.856655">
        <ele>53.20</ele>
        <time>2018-01-02T15:02:01Z</time>
      </trkpt>
      <trkpt lat="41.899065" lon="2.856710">
        <ele>53.40</ele>
        <time>2018-01-02T15:02:02Z</time>
      </trkpt>
      <trkpt lat="41.899217" lon="2.856888">
        <ele>53.60</ele>
        <time>2018-01-02T15:02:05Z</time>
      </trkpt>
      <trkpt lat="41.899243" lon="2.856970">
        <ele>53.80</ele>
        <time>2018-01-02T15:02:06Z</time>
      </trkpt>
      <trkpt lat="41.899202" lon="2.857208">
        <ele>53.80</ele>
        <time>2018-01-02T15:02:09Z</time>
      </trkpt>
      <trkpt lat="41.899175" lon="2.857280">
        <ele>54.00</ele>
        <time>2018-01-02T15:02:10Z</time>
      </trkpt>
      <trkpt lat="41.899155" lon="2.857350">
        <ele>54.20</ele>
        <time>2018-01-02T15:02:11Z</time>
      </trkpt>
      <trkpt lat="41.899153" lon="2.857572">
        <ele>54.80</ele>
        <time>2018-01-02T15:02:14Z</time>
      </trkpt>
      <trkpt lat="41.899180" lon="2.857636">
        <ele>54.60</ele>
        <time>2018-01-02T15:02:15Z</time>
      </trkpt>
      <trkpt lat="41.899289" lon="2.857810">
        <ele>54.60</ele>
        <time>2018-01-02T15:02:18Z</time>
      </trkpt>
      <trkpt lat="41.899328" lon="2.857997">
        <ele>53.80</ele>
        <time>2018-01-02T15:02:21Z</time>
      </trkpt>
      <trkpt lat="41.899310" lon="2.858132">
        <ele>53.80</ele>
        <time>2018-01-02T15:02:23Z</time>
      </trkpt>
      <trkpt lat="41.899243" lon="2.858414">
        <ele>52.80</ele>
        <time>2018-01-02T15:02:27Z</time>
      </trkpt>
      <trkpt lat="41.899212" lon="2.858552">
        <ele>52.40</ele>
        <time>2018-01-02T15:02:29Z</time>
      </trkpt>
      <trkpt lat="41.899166" lon="2.858759">
        <ele>51.60</ele>
        <time>2018-01-02T15:02:32Z</time>
      </trkpt>
      <trkpt lat="41.899131" lon="2.858983">
        <ele>50.40</ele>
        <time>2018-01-02T15:02:35Z</time>
      </trkpt>
      <trkpt lat="41.899109" lon="2.859061">
        <ele>49.80</ele>
        <time>2018-01-02T15:02:36Z</time>
      </trkpt>
      <trkpt lat="41.899037" lon="2.859215">
        <ele>49.20</ele>
        <time>2018-01-02T15:02:38Z</time>
      </trkpt>
      <trkpt lat="41.898886" lon="2.859448">
        <ele>48.40</ele>
        <time>2018-01-02T15:02:41Z</time>
      </trkpt>
      <trkpt lat="41.898792" lon="2.859640">
        <ele>48.80</ele>
        <time>2018-01-02T15:02:43Z</time>
      </trkpt>
      <trkpt lat="41.898731" lon="2.859724">
        <ele>49.20</ele>
        <time>2018-01-02T15:02:44Z</time>
      </trkpt>
      <trkpt lat="41.898628" lon="2.859921">
        <ele>50.40</ele>
        <time>2018-01-02T15:02:46Z</time>
      </trkpt>
      <trkpt lat="41.898528" lon="2.860104">
        <ele>51.60</ele>
        <time>2018-01-02T15:02:48Z</time>
      </trkpt>
      <trkpt lat="41.898483" lon="2.860197">
        <ele>52.80</ele>
        <time>2018-01-02T15:02:49Z</time>
      </trkpt>
      <trkpt lat="41.898399" lon="2.860359">
        <ele>53.80</ele>
        <time>2018-01-02T15:02:51Z</time>
      </trkpt>
      <trkpt lat="41.898234" lon="2.860678">
        <ele>54.80</ele>
        <time>2018-01-02T15:02:56Z</time>
      </trkpt>
      <trkpt lat="41.898204" lon="2.860727">
        <ele>54.80</ele>
        <time>2018-01-02T15:02:57Z</time>
      </trkpt>
      <trkpt lat="41.898050" lon="2.860878">
        <ele>54.80</ele>
        <time>2018-01-02T15:03:01Z</time>
      </trkpt>
      <trkpt lat="41.897687" lon="2.861152">
        <ele>54.60</ele>
        <time>2018-01-02T15:03:10Z</time>
      </trkpt>
      <trkpt lat="41.897610" lon="2.861204">
        <ele>54.40</ele>
        <time>2018-01-02T15:03:12Z</time>
      </trkpt>
      <trkpt lat="41.897464" lon="2.861304">
        <ele>54.00</ele>
        <time>2018-01-02T15:03:16Z</time>
      </trkpt>
      <trkpt lat="41.897275" lon="2.861460">
        <ele>53.40</ele>
        <time>2018-01-02T15:03:22Z</time>
      </trkpt>
      <trkpt lat="41.897132" lon="2.861566">
        <ele>52.80</ele>
        <time>2018-01-02T15:03:26Z</time>
      </trkpt>
      <trkpt lat="41.896989" lon="2.861674">
        <ele>52.40</ele>
        <time>2018-01-02T15:03:30Z</time>
      </trkpt>
      <trkpt lat="41.896786" lon="2.861843">
        <ele>51.20</ele>
        <time>2018-01-02T15:03:36Z</time>
      </trkpt>
      <trkpt lat="41.896551" lon="2.862029">
        <ele>50.20</ele>
        <time>2018-01-02T15:03:43Z</time>
      </trkpt>
      <trkpt lat="41.896484" lon="2.862075">
        <ele>50.00</ele>
        <time>2018-01-02T15:03:45Z</time>
      </trkpt>
      <trkpt lat="41.896317" lon="2.862206">
        <ele>49.20</ele>
        <time>2018-01-02T15:03:50Z</time>
      </trkpt>
      <trkpt lat="41.896279" lon="2.862232">
        <ele>48.80</ele>
        <time>2018-01-02T15:03:51Z</time>
      </trkpt>
      <trkpt lat="41.896129" lon="2.862356">
        <ele>48.20</ele>
        <time>2018-01-02T15:03:55Z</time>
      </trkpt>
      <trkpt lat="41.896046" lon="2.862414">
        <ele>47.80</ele>
        <time>2018-01-02T15:03:57Z</time>
      </trkpt>
      <trkpt lat="41.895932" lon="2.862510">
        <ele>47.80</ele>
        <time>2018-01-02T15:04:00Z</time>
      </trkpt>
      <trkpt lat="41.895784" lon="2.862323">
        <ele>46.60</ele>
        <time>2018-01-02T15:04:04Z</time>
      </trkpt>
      <trkpt lat="41.895749" lon="2.862252">
        <ele>46.20</ele>
        <time>2018-01-02T15:04:05Z</time>
      </trkpt>
      <trkpt lat="41.895676" lon="2.862110">
        <ele>46.00</ele>
        <time>2018-01-02T15:04:07Z</time>
      </trkpt>
      <trkpt lat="41.895460" lon="2.861680">
        <ele>45.40</ele>
        <time>2018-01-02T15:04:13Z</time>
      </trkpt>
      <trkpt lat="41.895420" lon="2.861616">
        <ele>45.20</ele>
        <time>2018-01-02T15:04:14Z</time>
      </trkpt>
      <trkpt lat="41.895097" lon="2.860973">
        <ele>44.20</ele>
        <time>2018-01-02T15:04:23Z</time>
      </trkpt>
      <trkpt lat="41.894865" lon="2.860453">
        <ele>43.80</ele>
        <time>2018-01-02T15:04:30Z</time>
      </trkpt>
      <trkpt lat="41.894619" lon="2.859944">
        <ele>43.00</ele>
        <time>2018-01-02T15:04:37Z</time>
      </trkpt>
      <trkpt lat="41.894581" lon="2.859875">
        <ele>42.80</ele>
        <time>2018-01-02T15:04:38Z</time>
      </trkpt>
      <trkpt lat="41.894467" lon="2.859662">
        <ele>42.80</ele>
        <time>2018-01-02T15:04:41Z</time>
      </trkpt>
      <trkpt lat="41.894344" lon="2.859575">
        <ele>42.40</ele>
        <time>2018-01-02T15:04:43Z</time>
      </trkpt>
      <trkpt lat="41.894278" lon="2.859573">
        <ele>42.40</ele>
        <time>2018-01-02T15:04:44Z</time>
      </trkpt>
      <trkpt lat="41.894215" lon="2.859583">
        <ele>42.40</ele>
        <time>2018-01-02T15:04:45Z</time>
      </trkpt>
      <trkpt lat="41.893958" lon="2.859657">
        <ele>42.20</ele>
        <time>2018-01-02T15:04:49Z</time>
      </trkpt>
      <trkpt lat="41.893901" lon="2.859694">
        <ele>42.20</ele>
        <time>2018-01-02T15:04:50Z</time>
      </trkpt>
      <trkpt lat="41.893671" lon="2.859980">
        <ele>41.80</ele>
        <time>2018-01-02T15:04:55Z</time>
      </trkpt>
      <trkpt lat="41.893625" lon="2.860038">
        <ele>41.80</ele>
        <time>2018-01-02T15:04:56Z</time>
      </trkpt>
      <trkpt lat="41.893492" lon="2.860315">
        <ele>41.60</ele>
        <time>2018-01-02T15:05:00Z</time>
      </trkpt>
      <trkpt lat="41.893437" lon="2.860545">
        <ele>42.00</ele>
        <time>2018-01-02T15:05:03Z</time>
      </trkpt>
      <trkpt lat="41.893320" lon="2.860640">
        <ele>41.80</ele>
        <time>2018-01-02T15:05:06Z</time>
      </trkpt>
      <trkpt lat="41.893263" lon="2.860722">
        <ele>41.60</ele>
        <time>2018-01-02T15:05:09Z</time>
      </trkpt>
      <trkpt lat="41.893241" lon="2.860995">
        <ele>41.80</ele>
        <time>2018-01-02T15:05:12Z</time>
      </trkpt>
      <trkpt lat="41.893159" lon="2.861172">
        <ele>42.00</ele>
        <time>2018-01-02T15:05:14Z</time>
      </trkpt>
      <trkpt lat="41.893090" lon="2.861233">
        <ele>42.00</ele>
        <time>2018-01-02T15:05:15Z</time>
      </trkpt>
      <trkpt lat="41.892613" lon="2.861422">
        <ele>42.00</ele>
        <time>2018-01-02T15:05:21Z</time>
      </trkpt>
      <trkpt lat="41.892280" lon="2.861543">
        <ele>42.20</ele>
        <time>2018-01-02T15:05:25Z</time>
      </trkpt>
      <trkpt lat="41.892197" lon="2.861573">
        <ele>42.20</ele>
        <time>2018-01-02T15:05:26Z</time>
      </trkpt>
      <trkpt lat="41.891605" lon="2.861786">
        <ele>42.60</ele>
        <time>2018-01-02T15:05:33Z</time>
      </trkpt>
      <trkpt lat="41.891437" lon="2.861849">
        <ele>42.60</ele>
        <time>2018-01-02T15:05:35Z</time>
      </trkpt>
      <trkpt lat="41.890841" lon="2.862072">
        <ele>43.00</ele>
        <time>2018-01-02T15:05:42Z</time>
      </trkpt>
      <trkpt lat="41.890486" lon="2.862200">
        <ele>43.20</ele>
        <time>2018-01-02T15:05:46Z</time>
      </trkpt>
      <trkpt lat="41.889931" lon="2.862399">
        <ele>44.20</ele>
        <time>2018-01-02T15:05:52Z</time>
      </trkpt>
      <trkpt lat="41.889567" lon="2.862533">
        <ele>45.20</ele>
        <time>2018-01-02T15:05:56Z</time>
      </trkpt>
      <trkpt lat="41.889300" lon="2.862643">
        <ele>46.40</ele>
        <time>2018-01-02T15:05:59Z</time>
      </trkpt>
      <trkpt lat="41.889211" lon="2.862682">
        <ele>46.60</ele>
        <time>2018-01-02T15:06:00Z</time>
      </trkpt>
      <trkpt lat="41.889039" lon="2.862758">
        <ele>47.40</ele>
        <time>2018-01-02T15:06:02Z</time>
      </trkpt>
      <trkpt lat="41.888960" lon="2.862816">
        <ele>48.00</ele>
        <time>2018-01-02T15:06:03Z</time>
      </trkpt>
      <trkpt lat="41.888853" lon="2.862997">
        <ele>48.00</ele>
        <time>2018-01-02T15:06:05Z</time>
      </trkpt>
      <trkpt lat="41.888598" lon="2.862984">
        <ele>48.00</ele>
        <time>2018-01-02T15:06:08Z</time>
      </trkpt>
      <trkpt lat="41.888514" lon="2.862963">
        <ele>48.20</ele>
        <time>2018-01-02T15:06:09Z</time>
      </trkpt>
      <trkpt lat="41.888351" lon="2.863018">
        <ele>48.60</ele>
        <time>2018-01-02T15:06:11Z</time>
      </trkpt>
      <trkpt lat="41.888200" lon="2.863099">
        <ele>49.00</ele>
        <time>2018-01-02T15:06:13Z</time>
      </trkpt>
      <trkpt lat="41.888056" lon="2.863184">
        <ele>49.00</ele>
        <time>2018-01-02T15:06:15Z</time>
      </trkpt>
      <trkpt lat="41.887574" lon="2.863537">
        <ele>49.60</ele>
        <time>2018-01-02T15:06:22Z</time>
      </trkpt>
      <trkpt lat="41.887446" lon="2.863643">
        <ele>49.60</ele>
        <time>2018-01-02T15:06:24Z</time>
      </trkpt>
      <trkpt lat="41.887095" lon="2.863998">
        <ele>50.20</ele>
        <time>2018-01-02T15:06:30Z</time>
      </trkpt>
      <trkpt lat="41.886984" lon="2.864128">
        <ele>50.40</ele>
        <time>2018-01-02T15:06:32Z</time>
      </trkpt>
      <trkpt lat="41.886685" lon="2.864523">
        <ele>50.60</ele>
        <time>2018-01-02T15:06:38Z</time>
      </trkpt>
      <trkpt lat="41.886539" lon="2.864722">
        <ele>50.80</ele>
        <time>2018-01-02T15:06:41Z</time>
      </trkpt>
      <trkpt lat="41.886395" lon="2.864917">
        <ele>50.80</ele>
        <time>2018-01-02T15:06:44Z</time>
      </trkpt>
      <trkpt lat="41.886345" lon="2.864975">
        <ele>50.80</ele>
        <time>2018-01-02T15:06:45Z</time>
      </trkpt>
      <trkpt lat="41.886200" lon="2.865159">
        <ele>50.40</ele>
        <time>2018-01-02T15:06:48Z</time>
      </trkpt>
      <trkpt lat="41.885957" lon="2.865479">
        <ele>50.00</ele>
        <time>2018-01-02T15:06:53Z</time>
      </trkpt>
      <trkpt lat="41.885713" lon="2.865813">
        <ele>49.40</ele>
        <time>2018-01-02T15:06:58Z</time>
      </trkpt>
      <trkpt lat="41.885557" lon="2.865992">
        <ele>49.40</ele>
        <time>2018-01-02T15:07:01Z</time>
      </trkpt>
      <trkpt lat="41.885503" lon="2.866052">
        <ele>49.20</ele>
        <time>2018-01-02T15:07:02Z</time>
      </trkpt>
      <trkpt lat="41.885368" lon="2.866238">
        <ele>49.00</ele>
        <time>2018-01-02T15:07:05Z</time>
      </trkpt>
      <trkpt lat="41.885289" lon="2.866459">
        <ele>49.00</ele>
        <time>2018-01-02T15:07:08Z</time>
      </trkpt>
      <trkpt lat="41.885319" lon="2.866610">
        <ele>49.20</ele>
        <time>2018-01-02T15:07:10Z</time>
      </trkpt>
      <trkpt lat="41.885391" lon="2.866768">
        <ele>49.80</ele>
        <time>2018-01-02T15:07:12Z</time>
      </trkpt>
      <trkpt lat="41.885471" lon="2.866933">
        <ele>50.40</ele>
        <time>2018-01-02T15:07:14Z</time>
      </trkpt>
      <trkpt lat="41.885690" lon="2.867344">
        <ele>51.40</ele>
        <time>2018-01-02T15:07:19Z</time>
      </trkpt>
      <trkpt lat="41.885820" lon="2.867595">
        <ele>52.40</ele>
        <time>2018-01-02T15:07:22Z</time>
      </trkpt>
      <trkpt lat="41.885862" lon="2.867676">
        <ele>52.60</ele>
        <time>2018-01-02T15:07:23Z</time>
      </trkpt>
      <trkpt lat="41.885903" lon="2.867755">
        <ele>52.60</ele>
        <time>2018-01-02T15:07:24Z</time>
      </trkpt>
      <trkpt lat="41.886023" lon="2.867999">
        <ele>53.20</ele>
        <time>2018-01-02T15:07:27Z</time>
      </trkpt>
      <trkpt lat="41.886069" lon="2.868174">
        <ele>53.40</ele>
        <time>2018-01-02T15:07:29Z</time>
      </trkpt>
      <trkpt lat="41.886089" lon="2.868256">
        <ele>53.40</ele>
        <time>2018-01-02T15:07:30Z</time>
      </trkpt>
      <trkpt lat="41.886152" lon="2.868390">
        <ele>54.00</ele>
        <time>2018-01-02T15:07:32Z</time>
      </trkpt>
      <trkpt lat="41.886218" lon="2.868508">
        <ele>54.40</ele>
        <time>2018-01-02T15:07:34Z</time>
      </trkpt>
      <trkpt lat="41.886256" lon="2.868573">
        <ele>54.80</ele>
        <time>2018-01-02T15:07:35Z</time>
      </trkpt>
      <trkpt lat="41.886323" lon="2.868994">
        <ele>55.80</ele>
        <time>2018-01-02T15:07:40Z</time>
      </trkpt>
      <trkpt lat="41.886326" lon="2.869075">
        <ele>55.80</ele>
        <time>2018-01-02T15:07:41Z</time>
      </trkpt>
      <trkpt lat="41.886287" lon="2.869399">
        <ele>56.00</ele>
        <time>2018-01-02T15:07:45Z</time>
      </trkpt>
      <trkpt lat="41.886208" lon="2.869740">
        <ele>56.00</ele>
        <time>2018-01-02T15:07:49Z</time>
      </trkpt>
      <trkpt lat="41.886115" lon="2.870161">
        <ele>55.80</ele>
        <time>2018-01-02T15:07:54Z</time>
      </trkpt>
      <trkpt lat="41.885965" lon="2.870809">
        <ele>54.80</ele>
        <time>2018-01-02T15:08:02Z</time>
      </trkpt>
      <trkpt lat="41.885947" lon="2.870895">
        <ele>55.00</ele>
        <time>2018-01-02T15:08:03Z</time>
      </trkpt>
      <trkpt lat="41.885867" lon="2.871229">
        <ele>55.60</ele>
        <time>2018-01-02T15:08:07Z</time>
      </trkpt>
      <trkpt lat="41.885812" lon="2.871463">
        <ele>55.80</ele>
        <time>2018-01-02T15:08:10Z</time>
      </trkpt>
      <trkpt lat="41.885790" lon="2.871542">
        <ele>56.00</ele>
        <time>2018-01-02T15:08:11Z</time>
      </trkpt>
      <trkpt lat="41.885773" lon="2.871618">
        <ele>56.20</ele>
        <time>2018-01-02T15:08:12Z</time>
      </trkpt>
      <trkpt lat="41.885687" lon="2.871981">
        <ele>57.00</ele>
        <time>2018-01-02T15:08:16Z</time>
      </trkpt>
      <trkpt lat="41.885632" lon="2.872156">
        <ele>57.60</ele>
        <time>2018-01-02T15:08:18Z</time>
      </trkpt>
      <trkpt lat="41.885535" lon="2.872373">
        <ele>58.00</ele>
        <time>2018-01-02T15:08:21Z</time>
      </trkpt>
      <trkpt lat="41.885413" lon="2.872673">
        <ele>58.60</ele>
        <time>2018-01-02T15:08:25Z</time>
      </trkpt>
      <trkpt lat="41.885283" lon="2.872914">
        <ele>58.40</ele>
        <time>2018-01-02T15:08:29Z</time>
      </trkpt>
      <trkpt lat="41.885243" lon="2.872950">
        <ele>58.20</ele>
        <time>2018-01-02T15:08:30Z</time>
      </trkpt>
      <trkpt lat="41.885122" lon="2.873017">
        <ele>58.00</ele>
        <time>2018-01-02T15:08:33Z</time>
      </trkpt>
      <trkpt lat="41.885077" lon="2.873055">
        <ele>58.00</ele>
        <time>2018-01-02T15:08:34Z</time>
      </trkpt>
      <trkpt lat="41.884874" lon="2.873343">
        <ele>57.40</ele>
        <time>2018-01-02T15:08:39Z</time>
      </trkpt>
      <trkpt lat="41.884786" lon="2.873473">
        <ele>57.20</ele>
        <time>2018-01-02T15:08:41Z</time>
      </trkpt>
      <trkpt lat="41.884573" lon="2.873823">
        <ele>57.60</ele>
        <time>2018-01-02T15:08:46Z</time>
      </trkpt>
      <trkpt lat="41.884246" lon="2.874330">
        <ele>57.40</ele>
        <time>2018-01-02T15:08:54Z</time>
      </trkpt>
      <trkpt lat="41.884160" lon="2.874461">
        <ele>57.00</ele>
        <time>2018-01-02T15:08:56Z</time>
      </trkpt>
      <trkpt lat="41.883893" lon="2.874859">
        <ele>56.40</ele>
        <time>2018-01-02T15:09:02Z</time>
      </trkpt>
      <trkpt lat="41.883540" lon="2.875430">
        <ele>56.00</ele>
        <time>2018-01-02T15:09:10Z</time>
      </trkpt>
      <trkpt lat="41.883448" lon="2.875579">
        <ele>55.80</ele>
        <time>2018-01-02T15:09:12Z</time>
      </trkpt>
      <trkpt lat="41.883198" lon="2.875927">
        <ele>55.40</ele>
        <time>2018-01-02T15:09:17Z</time>
      </trkpt>
      <trkpt lat="41.883145" lon="2.875993">
        <ele>55.20</ele>
        <time>2018-01-02T15:09:18Z</time>
      </trkpt>
      <trkpt lat="41.883053" lon="2.876121">
        <ele>54.80</ele>
        <time>2018-01-02T15:09:20Z</time>
      </trkpt>
      <trkpt lat="41.882973" lon="2.876264">
        <ele>54.20</ele>
        <time>2018-01-02T15:09:22Z</time>
      </trkpt>
      <trkpt lat="41.882868" lon="2.876378">
        <ele>53.60</ele>
        <time>2018-01-02T15:09:24Z</time>
      </trkpt>
      <trkpt lat="41.882746" lon="2.876476">
        <ele>53.60</ele>
        <time>2018-01-02T15:09:26Z</time>
      </trkpt>
      <trkpt lat="41.882500" lon="2.876662">
        <ele>53.00</ele>
        <time>2018-01-02T15:09:30Z</time>
      </trkpt>
      <trkpt lat="41.882247" lon="2.876841">
        <ele>52.40</ele>
        <time>2018-01-02T15:09:34Z</time>
      </trkpt>
      <trkpt lat="41.881792" lon="2.877156">
        <ele>51.80</ele>
        <time>2018-01-02T15:09:41Z</time>
      </trkpt>
      <trkpt lat="41.881327" lon="2.877475">
        <ele>52.00</ele>
        <time>2018-01-02T15:09:48Z</time>
      </trkpt>
      <trkpt lat="41.880996" lon="2.877696">
        <ele>52.40</ele>
        <time>2018-01-02T15:09:53Z</time>
      </trkpt>
      <trkpt lat="41.880867" lon="2.877791">
        <ele>52.60</ele>
        <time>2018-01-02T15:09:55Z</time>
      </trkpt>
      <trkpt lat="41.880741" lon="2.877873">
        <ele>52.20</ele>
        <time>2018-01-02T15:09:57Z</time>
      </trkpt>
      <trkpt lat="41.880422" lon="2.878083">
        <ele>52.20</ele>
        <time>2018-01-02T15:10:02Z</time>
      </trkpt>
      <trkpt lat="41.880360" lon="2.878131">
        <ele>52.00</ele>
        <time>2018-01-02T15:10:03Z</time>
      </trkpt>
      <trkpt lat="41.879989" lon="2.878381">
        <ele>51.40</ele>
        <time>2018-01-02T15:10:09Z</time>
      </trkpt>
      <trkpt lat="41.879524" lon="2.878520">
        <ele>51.40</ele>
        <time>2018-01-02T15:10:16Z</time>
      </trkpt>
      <trkpt lat="41.879113" lon="2.878484">
        <ele>51.60</ele>
        <time>2018-01-02T15:10:22Z</time>
      </trkpt>
      <trkpt lat="41.878604" lon="2.878256">
        <ele>52.00</ele>
        <time>2018-01-02T15:10:30Z</time>
      </trkpt>
      <trkpt lat="41.878268" lon="2.878003">
        <ele>51.60</ele>
        <time>2018-01-02T15:10:36Z</time>
      </trkpt>
      <trkpt lat="41.878215" lon="2.877948">
        <ele>51.40</ele>
        <time>2018-01-02T15:10:37Z</time>
      </trkpt>
      <trkpt lat="41.877837" lon="2.877383">
        <ele>51.20</ele>
        <time>2018-01-02T15:10:45Z</time>
      </trkpt>
      <trkpt lat="41.877739" lon="2.877231">
        <ele>51.20</ele>
        <time>2018-01-02T15:10:47Z</time>
      </trkpt>
      <trkpt lat="41.877555" lon="2.876911">
        <ele>51.20</ele>
        <time>2018-01-02T15:10:51Z</time>
      </trkpt>
      <trkpt lat="41.877450" lon="2.876762">
        <ele>51.40</ele>
        <time>2018-01-02T15:10:53Z</time>
      </trkpt>
      <trkpt lat="41.877271" lon="2.876551">
        <ele>52.60</ele>
        <time>2018-01-02T15:10:56Z</time>
      </trkpt>
      <trkpt lat="41.877207" lon="2.876486">
        <ele>53.00</ele>
        <time>2018-01-02T15:10:57Z</time>
      </trkpt>
      <trkpt lat="41.877076" lon="2.876369">
        <ele>53.80</ele>
        <time>2018-01-02T15:10:59Z</time>
      </trkpt>
      <trkpt lat="41.876782" lon="2.876147">
        <ele>54.80</ele>
        <time>2018-01-02T15:11:04Z</time>
      </trkpt>
      <trkpt lat="41.876677" lon="2.876052">
        <ele>55.20</ele>
        <time>2018-01-02T15:11:06Z</time>
      </trkpt>
      <trkpt lat="41.876410" lon="2.875870">
        <ele>56.20</ele>
        <time>2018-01-02T15:11:11Z</time>
      </trkpt>
      <trkpt lat="41.876298" lon="2.875804">
        <ele>56.60</ele>
        <time>2018-01-02T15:11:13Z</time>
      </trkpt>
      <trkpt lat="41.876097" lon="2.875619">
        <ele>58.20</ele>
        <time>2018-01-02T15:11:17Z</time>
      </trkpt>
      <trkpt lat="41.875898" lon="2.875423">
        <ele>59.40</ele>
        <time>2018-01-02T15:11:22Z</time>
      </trkpt>
      <trkpt lat="41.875714" lon="2.875257">
        <ele>59.40</ele>
        <time>2018-01-02T15:11:28Z</time>
      </trkpt>
      <trkpt lat="41.875628" lon="2.875167">
        <ele>58.60</ele>
        <time>2018-01-02T15:11:31Z</time>
      </trkpt>
      <trkpt lat="41.875598" lon="2.875139">
        <ele>58.20</ele>
        <time>2018-01-02T15:11:32Z</time>
      </trkpt>
      <trkpt lat="41.875499" lon="2.875068">
        <ele>57.00</ele>
        <time>2018-01-02T15:11:35Z</time>
      </trkpt>
      <trkpt lat="41.875437" lon="2.875031">
        <ele>56.40</ele>
        <time>2018-01-02T15:11:37Z</time>
      </trkpt>
      <trkpt lat="41.875403" lon="2.875005">
        <ele>55.60</ele>
        <time>2018-01-02T15:11:38Z</time>
      </trkpt>
      <trkpt lat="41.875306" lon="2.874939">
        <ele>54.40</ele>
        <time>2018-01-02T15:11:41Z</time>
      </trkpt>
      <trkpt lat="41.875207" lon="2.874872">
        <ele>53.20</ele>
        <time>2018-01-02T15:11:44Z</time>
      </trkpt>
      <trkpt lat="41.875103" lon="2.874802">
        <ele>51.80</ele>
        <time>2018-01-02T15:11:47Z</time>
      </trkpt>
      <trkpt lat="41.874994" lon="2.874722">
        <ele>50.60</ele>
        <time>2018-01-02T15:11:50Z</time>
      </trkpt>
      <trkpt lat="41.874953" lon="2.874701">
        <ele>50.20</ele>
        <time>2018-01-02T15:11:51Z</time>
      </trkpt>
      <trkpt lat="41.874869" lon="2.874654">
        <ele>49.60</ele>
        <time>2018-01-02T15:11:53Z</time>
      </trkpt>
      <trkpt lat="41.874736" lon="2.874549">
        <ele>48.60</ele>
        <time>2018-01-02T15:11:56Z</time>
      </trkpt>
      <trkpt lat="41.874586" lon="2.874431">
        <ele>48.40</ele>
        <time>2018-01-02T15:11:59Z</time>
      </trkpt>
      <trkpt lat="41.874124" lon="2.874094">
        <ele>47.60</ele>
        <time>2018-01-02T15:12:08Z</time>
      </trkpt>
      <trkpt lat="41.873729" lon="2.873777">
        <ele>47.00</ele>
        <time>2018-01-02T15:12:16Z</time>
      </trkpt>
      <trkpt lat="41.873576" lon="2.873662">
        <ele>46.40</ele>
        <time>2018-01-02T15:12:19Z</time>
      </trkpt>
      <trkpt lat="41.873381" lon="2.873507">
        <ele>46.00</ele>
        <time>2018-01-02T15:12:23Z</time>
      </trkpt>
      <trkpt lat="41.873206" lon="2.873368">
        <ele>45.60</ele>
        <time>2018-01-02T15:12:27Z</time>
      </trkpt>
      <trkpt lat="41.873162" lon="2.873324">
        <ele>45.60</ele>
        <time>2018-01-02T15:12:28Z</time>
      </trkpt>
      <trkpt lat="41.873056" lon="2.873246">
        <ele>45.40</ele>
        <time>2018-01-02T15:12:30Z</time>
      </trkpt>
      <trkpt lat="41.872794" lon="2.873045">
        <ele>44.40</ele>
        <time>2018-01-02T15:12:35Z</time>
      </trkpt>
      <trkpt lat="41.872633" lon="2.872926">
        <ele>44.40</ele>
        <time>2018-01-02T15:12:38Z</time>
      </trkpt>
      <trkpt lat="41.872423" lon="2.872761">
        <ele>44.00</ele>
        <time>2018-01-02T15:12:42Z</time>
      </trkpt>
      <trkpt lat="41.871997" lon="2.872446">
        <ele>43.40</ele>
        <time>2018-01-02T15:12:50Z</time>
      </trkpt>
      <trkpt lat="41.871940" lon="2.872412">
        <ele>43.20</ele>
        <time>2018-01-02T15:12:51Z</time>
      </trkpt>
      <trkpt lat="41.871529" lon="2.872190">
        <ele>42.20</ele>
        <time>2018-01-02T15:12:58Z</time>
      </trkpt>
      <trkpt lat="41.871031" lon="2.871997">
        <ele>41.60</ele>
        <time>2018-01-02T15:13:06Z</time>
      </trkpt>
      <trkpt lat="41.870717" lon="2.871914">
        <ele>41.20</ele>
        <time>2018-01-02T15:13:11Z</time>
      </trkpt>
      <trkpt lat="41.870520" lon="2.871883">
        <ele>41.00</ele>
        <time>2018-01-02T15:13:14Z</time>
      </trkpt>
      <trkpt lat="41.870452" lon="2.871873">
        <ele>41.00</ele>
        <time>2018-01-02T15:13:15Z</time>
      </trkpt>
      <trkpt lat="41.869897" lon="2.871806">
        <ele>40.60</ele>
        <time>2018-01-02T15:13:23Z</time>
      </trkpt>
      <trkpt lat="41.869620" lon="2.871778">
        <ele>40.20</ele>
        <time>2018-01-02T15:13:27Z</time>
      </trkpt>
      <trkpt lat="41.869357" lon="2.871743">
        <ele>39.80</ele>
        <time>2018-01-02T15:13:31Z</time>
      </trkpt>
      <trkpt lat="41.868764" lon="2.871675">
        <ele>39.60</ele>
        <time>2018-01-02T15:13:39Z</time>
      </trkpt>
      <trkpt lat="41.868620" lon="2.871658">
        <ele>39.40</ele>
        <time>2018-01-02T15:13:41Z</time>
      </trkpt>
      <trkpt lat="41.868082" lon="2.871593">
        <ele>38.40</ele>
        <time>2018-01-02T15:13:48Z</time>
      </trkpt>
      <trkpt lat="41.868004" lon="2.871582">
        <ele>38.40</ele>
        <time>2018-01-02T15:13:49Z</time>
      </trkpt>
      <trkpt lat="41.867448" lon="2.871514">
        <ele>38.60</ele>
        <time>2018-01-02T15:13:56Z</time>
      </trkpt>
      <trkpt lat="41.867054" lon="2.871475">
        <ele>38.60</ele>
        <time>2018-01-02T15:14:01Z</time>
      </trkpt>
      <trkpt lat="41.866499" lon="2.871412">
        <ele>39.00</ele>
        <time>2018-01-02T15:14:08Z</time>
      </trkpt>
      <trkpt lat="41.866267" lon="2.871384">
        <ele>39.00</ele>
        <time>2018-01-02T15:14:11Z</time>
      </trkpt>
      <trkpt lat="41.865798" lon="2.871327">
        <ele>39.00</ele>
        <time>2018-01-02T15:14:17Z</time>
      </trkpt>
      <trkpt lat="41.865719" lon="2.871324">
        <ele>39.20</ele>
        <time>2018-01-02T15:14:18Z</time>
      </trkpt>
      <trkpt lat="41.865641" lon="2.871316">
        <ele>39.20</ele>
        <time>2018-01-02T15:14:19Z</time>
      </trkpt>
      <trkpt lat="41.865106" lon="2.871260">
        <ele>39.40</ele>
        <time>2018-01-02T15:14:26Z</time>
      </trkpt>
      <trkpt lat="41.864802" lon="2.871224">
        <ele>39.40</ele>
        <time>2018-01-02T15:14:30Z</time>
      </trkpt>
      <trkpt lat="41.864277" lon="2.871163">
        <ele>39.40</ele>
        <time>2018-01-02T15:14:37Z</time>
      </trkpt>
      <trkpt lat="41.864129" lon="2.871147">
        <ele>39.60</ele>
        <time>2018-01-02T15:14:39Z</time>
      </trkpt>
      <trkpt lat="41.863549" lon="2.871086">
        <ele>40.20</ele>
        <time>2018-01-02T15:14:47Z</time>
      </trkpt>
      <trkpt lat="41.862995" lon="2.871035">
        <ele>40.00</ele>
        <time>2018-01-02T15:14:55Z</time>
      </trkpt>
      <trkpt lat="41.862925" lon="2.871028">
        <ele>40.00</ele>
        <time>2018-01-02T15:14:56Z</time>
      </trkpt>
      <trkpt lat="41.862644" lon="2.870990">
        <ele>40.20</ele>
        <time>2018-01-02T15:15:00Z</time>
      </trkpt>
      <trkpt lat="41.862440" lon="2.870969">
        <ele>40.20</ele>
        <time>2018-01-02T15:15:03Z</time>
      </trkpt>
      <trkpt lat="41.861983" lon="2.870919">
        <ele>40.20</ele>
        <time>2018-01-02T15:15:10Z</time>
      </trkpt>
      <trkpt lat="41.861581" lon="2.870848">
        <ele>41.00</ele>
        <time>2018-01-02T15:15:16Z</time>
      </trkpt>
      <trkpt lat="41.861319" lon="2.870814">
        <ele>40.20</ele>
        <time>2018-01-02T15:15:21Z</time>
      </trkpt>
      <trkpt lat="41.861154" lon="2.870807">
        <ele>40.20</ele>
        <time>2018-01-02T15:15:24Z</time>
      </trkpt>
      <trkpt lat="41.860983" lon="2.870807">
        <ele>40.20</ele>
        <time>2018-01-02T15:15:27Z</time>
      </trkpt>
      <trkpt lat="41.860586" lon="2.870810">
        <ele>39.80</ele>
        <time>2018-01-02T15:15:34Z</time>
      </trkpt>
      <trkpt lat="41.860471" lon="2.870807">
        <ele>39.40</ele>
        <time>2018-01-02T15:15:36Z</time>
      </trkpt>
      <trkpt lat="41.860297" lon="2.870836">
        <ele>39.40</ele>
        <time>2018-01-02T15:15:39Z</time>
      </trkpt>
      <trkpt lat="41.859962" lon="2.870923">
        <ele>40.00</ele>
        <time>2018-01-02T15:15:45Z</time>
      </trkpt>
      <trkpt lat="41.859802" lon="2.870976">
        <ele>40.40</ele>
        <time>2018-01-02T15:15:49Z</time>
      </trkpt>
      <trkpt lat="41.859776" lon="2.870976">
        <ele>40.40</ele>
        <time>2018-01-02T15:15:50Z</time>
      </trkpt>
      <trkpt lat="41.859749" lon="2.870948">
        <ele>40.40</ele>
        <time>2018-01-02T15:15:52Z</time>
      </trkpt>
      <trkpt lat="41.859777" lon="2.870764">
        <ele>39.80</ele>
        <time>2018-01-02T15:15:55Z</time>
      </trkpt>
      <trkpt lat="41.859794" lon="2.870600">
        <ele>40.00</ele>
        <time>2018-01-02T15:15:57Z</time>
      </trkpt>
      <trkpt lat="41.859732" lon="2.870030">
        <ele>40.20</ele>
        <time>2018-01-02T15:16:03Z</time>
      </trkpt>
      <trkpt lat="41.859713" lon="2.869934">
        <ele>40.80</ele>
        <time>2018-01-02T15:16:04Z</time>
      </trkpt>
      <trkpt lat="41.859663" lon="2.869644">
        <ele>41.20</ele>
        <time>2018-01-02T15:16:07Z</time>
      </trkpt>
      <trkpt lat="41.859629" lon="2.869462">
        <ele>41.80</ele>
        <time>2018-01-02T15:16:09Z</time>
      </trkpt>
      <trkpt lat="41.859572" lon="2.869192">
        <ele>42.60</ele>
        <time>2018-01-02T15:16:12Z</time>
      </trkpt>
      <trkpt lat="41.859555" lon="2.869103">
        <ele>43.00</ele>
        <time>2018-01-02T15:16:13Z</time>
      </trkpt>
      <trkpt lat="41.859462" lon="2.868693">
        <ele>44.00</ele>
        <time>2018-01-02T15:16:18Z</time>
      </trkpt>
      <trkpt lat="41.859195" lon="2.868066">
        <ele>43.20</ele>
        <time>2018-01-02T15:16:27Z</time>
      </trkpt>
      <trkpt lat="41.859164" lon="2.867998">
        <ele>43.20</ele>
        <time>2018-01-02T15:16:28Z</time>
      </trkpt>
      <trkpt lat="41.858968" lon="2.867561">
        <ele>43.00</ele>
        <time>2018-01-02T15:16:34Z</time>
      </trkpt>
      <trkpt lat="41.858911" lon="2.867401">
        <ele>43.00</ele>
        <time>2018-01-02T15:16:36Z</time>
      </trkpt>
      <trkpt lat="41.858797" lon="2.866980">
        <ele>44.00</ele>
        <time>2018-01-02T15:16:41Z</time>
      </trkpt>
      <trkpt lat="41.858777" lon="2.866895">
        <ele>44.20</ele>
        <time>2018-01-02T15:16:42Z</time>
      </trkpt>
      <trkpt lat="41.858676" lon="2.866586">
        <ele>45.40</ele>
        <time>2018-01-02T15:16:46Z</time>
      </trkpt>
      <trkpt lat="41.858584" lon="2.866250">
        <ele>45.20</ele>
        <time>2018-01-02T15:16:51Z</time>
      </trkpt>
      <trkpt lat="41.858470" lon="2.865848">
        <ele>44.80</ele>
        <time>2018-01-02T15:16:57Z</time>
      </trkpt>
      <trkpt lat="41.858403" lon="2.865583">
        <ele>44.20</ele>
        <time>2018-01-02T15:17:01Z</time>
      </trkpt>
      <trkpt lat="41.858374" lon="2.865458">
        <ele>43.60</ele>
        <time>2018-01-02T15:17:03Z</time>
      </trkpt>
      <trkpt lat="41.858348" lon="2.865273">
        <ele>43.20</ele>
        <time>2018-01-02T15:17:06Z</time>
      </trkpt>
      <trkpt lat="41.858331" lon="2.865017">
        <ele>42.40</ele>
        <time>2018-01-02T15:17:10Z</time>
      </trkpt>
      <trkpt lat="41.858331" lon="2.864893">
        <ele>42.20</ele>
        <time>2018-01-02T15:17:12Z</time>
      </trkpt>
      <trkpt lat="41.858334" lon="2.864831">
        <ele>42.00</ele>
        <time>2018-01-02T15:17:13Z</time>
      </trkpt>
      <trkpt lat="41.858355" lon="2.864665">
        <ele>41.20</ele>
        <time>2018-01-02T15:17:16Z</time>
      </trkpt>
      <trkpt lat="41.858368" lon="2.864613">
        <ele>40.80</ele>
        <time>2018-01-02T15:17:17Z</time>
      </trkpt>
      <trkpt lat="41.858479" lon="2.864427">
        <ele>39.60</ele>
        <time>2018-01-02T15:17:21Z</time>
      </trkpt>
      <trkpt lat="41.858535" lon="2.864343">
        <ele>38.80</ele>
        <time>2018-01-02T15:17:23Z</time>
      </trkpt>
      <trkpt lat="41.858563" lon="2.864300">
        <ele>38.40</ele>
        <time>2018-01-02T15:17:24Z</time>
      </trkpt>
      <trkpt lat="41.858638" lon="2.864212">
        <ele>37.20</ele>
        <time>2018-01-02T15:17:26Z</time>
      </trkpt>
      <trkpt lat="41.858689" lon="2.864173">
        <ele>36.60</ele>
        <time>2018-01-02T15:17:27Z</time>
      </trkpt>
      <trkpt lat="41.858743" lon="2.864127">
        <ele>36.60</ele>
        <time>2018-01-02T15:17:28Z</time>
      </trkpt>
      <trkpt lat="41.858873" lon="2.863967">
        <ele>36.20</ele>
        <time>2018-01-02T15:17:31Z</time>
      </trkpt>
      <trkpt lat="41.858871" lon="2.863718">
        <ele>35.60</ele>
        <time>2018-01-02T15:17:34Z</time>
      </trkpt>
      <trkpt lat="41.858845" lon="2.863628">
        <ele>35.60</ele>
        <time>2018-01-02T15:17:35Z</time>
      </trkpt>
      <trkpt lat="41.858705" lon="2.863420">
        <ele>36.20</ele>
        <time>2018-01-02T15:17:38Z</time>
      </trkpt>
      <trkpt lat="41.858649" lon="2.863361">
        <ele>36.20</ele>
        <time>2018-01-02T15:17:39Z</time>
      </trkpt>
      <trkpt lat="41.858481" lon="2.863215">
        <ele>36.80</ele>
        <time>2018-01-02T15:17:42Z</time>
      </trkpt>
      <trkpt lat="41.858329" lon="2.863062">
        <ele>37.20</ele>
        <time>2018-01-02T15:17:45Z</time>
      </trkpt>
      <trkpt lat="41.858043" lon="2.862712">
        <ele>37.20</ele>
        <time>2018-01-02T15:17:51Z</time>
      </trkpt>
      <trkpt lat="41.857903" lon="2.862527">
        <ele>37.60</ele>
        <time>2018-01-02T15:17:54Z</time>
      </trkpt>
      <trkpt lat="41.857669" lon="2.862141">
        <ele>38.40</ele>
        <time>2018-01-02T15:18:00Z</time>
      </trkpt>
      <trkpt lat="41.857596" lon="2.862008">
        <ele>38.40</ele>
        <time>2018-01-02T15:18:02Z</time>
      </trkpt>
      <trkpt lat="41.857509" lon="2.861891">
        <ele>38.20</ele>
        <time>2018-01-02T15:18:04Z</time>
      </trkpt>
      <trkpt lat="41.857460" lon="2.861835">
        <ele>38.00</ele>
        <time>2018-01-02T15:18:05Z</time>
      </trkpt>
      <trkpt lat="41.856962" lon="2.861427">
        <ele>37.40</ele>
        <time>2018-01-02T15:18:14Z</time>
      </trkpt>
      <trkpt lat="41.856624" lon="2.861127">
        <ele>36.20</ele>
        <time>2018-01-02T15:18:20Z</time>
      </trkpt>
      <trkpt lat="41.856344" lon="2.860776">
        <ele>36.20</ele>
        <time>2018-01-02T15:18:25Z</time>
      </trkpt>
      <trkpt lat="41.856287" lon="2.860708">
        <ele>36.60</ele>
        <time>2018-01-02T15:18:26Z</time>
      </trkpt>
      <trkpt lat="41.856055" lon="2.860441">
        <ele>37.40</ele>
        <time>2018-01-02T15:18:30Z</time>
      </trkpt>
      <trkpt lat="41.855936" lon="2.860332">
        <ele>37.80</ele>
        <time>2018-01-02T15:18:32Z</time>
      </trkpt>
      <trkpt lat="41.855877" lon="2.860281">
        <ele>38.20</ele>
        <time>2018-01-02T15:18:33Z</time>
      </trkpt>
      <trkpt lat="41.855669" lon="2.860043">
        <ele>39.40</ele>
        <time>2018-01-02T15:18:37Z</time>
      </trkpt>
      <trkpt lat="41.855470" lon="2.859720">
        <ele>38.60</ele>
        <time>2018-01-02T15:18:42Z</time>
      </trkpt>
      <trkpt lat="41.855271" lon="2.859393">
        <ele>38.60</ele>
        <time>2018-01-02T15:18:47Z</time>
      </trkpt>
      <trkpt lat="41.855152" lon="2.859197">
        <ele>38.60</ele>
        <time>2018-01-02T15:18:50Z</time>
      </trkpt>
      <trkpt lat="41.854996" lon="2.858951">
        <ele>37.80</ele>
        <time>2018-01-02T15:18:54Z</time>
      </trkpt>
      <trkpt lat="41.854917" lon="2.858828">
        <ele>37.60</ele>
        <time>2018-01-02T15:18:56Z</time>
      </trkpt>
      <trkpt lat="41.854756" lon="2.858596">
        <ele>36.20</ele>
        <time>2018-01-02T15:19:00Z</time>
      </trkpt>
      <trkpt lat="41.854711" lon="2.858541">
        <ele>36.20</ele>
        <time>2018-01-02T15:19:01Z</time>
      </trkpt>
      <trkpt lat="41.854557" lon="2.858390">
        <ele>35.60</ele>
        <time>2018-01-02T15:19:04Z</time>
      </trkpt>
      <trkpt lat="41.854495" lon="2.858351">
        <ele>35.80</ele>
        <time>2018-01-02T15:19:05Z</time>
      </trkpt>
      <trkpt lat="41.854299" lon="2.858286">
        <ele>35.40</ele>
        <time>2018-01-02T15:19:08Z</time>
      </trkpt>
      <trkpt lat="41.854094" lon="2.858237">
        <ele>35.40</ele>
        <time>2018-01-02T15:19:11Z</time>
      </trkpt>
      <trkpt lat="41.853948" lon="2.858175">
        <ele>36.20</ele>
        <time>2018-01-02T15:19:13Z</time>
      </trkpt>
      <trkpt lat="41.853796" lon="2.858105">
        <ele>37.40</ele>
        <time>2018-01-02T15:19:15Z</time>
      </trkpt>
      <trkpt lat="41.853730" lon="2.858079">
        <ele>37.60</ele>
        <time>2018-01-02T15:19:16Z</time>
      </trkpt>
      <trkpt lat="41.853659" lon="2.858056">
        <ele>38.00</ele>
        <time>2018-01-02T15:19:17Z</time>
      </trkpt>
      <trkpt lat="41.853313" lon="2.857918">
        <ele>38.80</ele>
        <time>2018-01-02T15:19:23Z</time>
      </trkpt>
      <trkpt lat="41.853160" lon="2.857839">
        <ele>39.00</ele>
        <time>2018-01-02T15:19:26Z</time>
      </trkpt>
      <trkpt lat="41.853068" lon="2.857805">
        <ele>39.00</ele>
        <time>2018-01-02T15:19:28Z</time>
      </trkpt>
      <trkpt lat="41.852847" lon="2.857801">
        <ele>38.60</ele>
        <time>2018-01-02T15:19:33Z</time>
      </trkpt>
      <trkpt lat="41.852753" lon="2.857817">
        <ele>38.20</ele>
        <time>2018-01-02T15:19:35Z</time>
      </trkpt>
      <trkpt lat="41.852625" lon="2.857864">
        <ele>37.40</ele>
        <time>2018-01-02T15:19:38Z</time>
      </trkpt>
      <trkpt lat="41.852588" lon="2.857880">
        <ele>37.00</ele>
        <time>2018-01-02T15:19:39Z</time>
      </trkpt>
      <trkpt lat="41.852417" lon="2.857953">
        <ele>36.20</ele>
        <time>2018-01-02T15:19:43Z</time>
      </trkpt>
      <trkpt lat="41.852374" lon="2.857967">
        <ele>36.20</ele>
        <time>2018-01-02T15:19:44Z</time>
      </trkpt>
      <trkpt lat="41.852331" lon="2.857973">
        <ele>36.20</ele>
        <time>2018-01-02T15:19:45Z</time>
      </trkpt>
      <trkpt lat="41.852207" lon="2.858003">
        <ele>35.40</ele>
        <time>2018-01-02T15:19:48Z</time>
      </trkpt>
      <trkpt lat="41.852170" lon="2.858019">
        <ele>35.20</ele>
        <time>2018-01-02T15:19:49Z</time>
      </trkpt>
      <trkpt lat="41.852094" lon="2.858055">
        <ele>34.60</ele>
        <time>2018-01-02T15:19:51Z</time>
      </trkpt>
      <trkpt lat="41.852054" lon="2.858069">
        <ele>34.20</ele>
        <time>2018-01-02T15:19:52Z</time>
      </trkpt>
      <trkpt lat="41.851973" lon="2.858085">
        <ele>33.20</ele>
        <time>2018-01-02T15:19:54Z</time>
      </trkpt>
      <trkpt lat="41.851925" lon="2.858084">
        <ele>32.80</ele>
        <time>2018-01-02T15:19:55Z</time>
      </trkpt>
      <trkpt lat="41.851719" lon="2.858020">
        <ele>31.40</ele>
        <time>2018-01-02T15:19:59Z</time>
      </trkpt>
      <trkpt lat="41.851555" lon="2.857961">
        <ele>30.80</ele>
        <time>2018-01-02T15:20:02Z</time>
      </trkpt>
      <trkpt lat="41.851271" lon="2.857874">
        <ele>30.40</ele>
        <time>2018-01-02T15:20:07Z</time>
      </trkpt>
      <trkpt lat="41.851156" lon="2.857843">
        <ele>30.20</ele>
        <time>2018-01-02T15:20:09Z</time>
      </trkpt>
      <trkpt lat="41.850587" lon="2.857704">
        <ele>29.20</ele>
        <time>2018-01-02T15:20:18Z</time>
      </trkpt>
      <trkpt lat="41.850324" lon="2.857644">
        <ele>29.00</ele>
        <time>2018-01-02T15:20:22Z</time>
      </trkpt>
      <trkpt lat="41.850160" lon="2.857494">
        <ele>29.00</ele>
        <time>2018-01-02T15:20:25Z</time>
      </trkpt>
      <trkpt lat="41.850061" lon="2.857366">
        <ele>29.00</ele>
        <time>2018-01-02T15:20:27Z</time>
      </trkpt>
      <trkpt lat="41.849874" lon="2.857232">
        <ele>29.20</ele>
        <time>2018-01-02T15:20:30Z</time>
      </trkpt>
      <trkpt lat="41.849402" lon="2.857179">
        <ele>29.40</ele>
        <time>2018-01-02T15:20:37Z</time>
      </trkpt>
      <trkpt lat="41.849133" lon="2.857146">
        <ele>29.20</ele>
        <time>2018-01-02T15:20:41Z</time>
      </trkpt>
      <trkpt lat="41.849062" lon="2.857127">
        <ele>29.40</ele>
        <time>2018-01-02T15:20:42Z</time>
      </trkpt>
      <trkpt lat="41.848786" lon="2.857073">
        <ele>30.20</ele>
        <time>2018-01-02T15:20:46Z</time>
      </trkpt>
      <trkpt lat="41.848617" lon="2.857058">
        <ele>29.00</ele>
        <time>2018-01-02T15:20:49Z</time>
      </trkpt>
      <trkpt lat="41.848403" lon="2.857029">
        <ele>30.60</ele>
        <time>2018-01-02T15:20:52Z</time>
      </trkpt>
      <trkpt lat="41.848348" lon="2.856999">
        <ele>30.60</ele>
        <time>2018-01-02T15:20:53Z</time>
      </trkpt>
      <trkpt lat="41.847977" lon="2.856683">
        <ele>29.80</ele>
        <time>2018-01-02T15:21:00Z</time>
      </trkpt>
      <trkpt lat="41.847920" lon="2.856637">
        <ele>30.00</ele>
        <time>2018-01-02T15:21:01Z</time>
      </trkpt>
      <trkpt lat="41.847605" lon="2.856537">
        <ele>29.80</ele>
        <time>2018-01-02T15:21:06Z</time>
      </trkpt>
      <trkpt lat="41.847207" lon="2.856459">
        <ele>30.00</ele>
        <time>2018-01-02T15:21:12Z</time>
      </trkpt>
      <trkpt lat="41.847139" lon="2.856452">
        <ele>30.20</ele>
        <time>2018-01-02T15:21:13Z</time>
      </trkpt>
      <trkpt lat="41.846814" lon="2.856377">
        <ele>30.40</ele>
        <time>2018-01-02T15:21:18Z</time>
      </trkpt>
      <trkpt lat="41.846747" lon="2.856359">
        <ele>30.40</ele>
        <time>2018-01-02T15:21:19Z</time>
      </trkpt>
      <trkpt lat="41.846429" lon="2.856291">
        <ele>30.20</ele>
        <time>2018-01-02T15:21:24Z</time>
      </trkpt>
      <trkpt lat="41.846107" lon="2.856246">
        <ele>29.00</ele>
        <time>2018-01-02T15:21:29Z</time>
      </trkpt>
      <trkpt lat="41.845673" lon="2.856184">
        <ele>30.20</ele>
        <time>2018-01-02T15:21:35Z</time>
      </trkpt>
      <trkpt lat="41.845117" lon="2.856108">
        <ele>30.40</ele>
        <time>2018-01-02T15:21:43Z</time>
      </trkpt>
      <trkpt lat="41.844981" lon="2.856090">
        <ele>30.20</ele>
        <time>2018-01-02T15:21:45Z</time>
      </trkpt>
      <trkpt lat="41.844849" lon="2.856037">
        <ele>30.00</ele>
        <time>2018-01-02T15:21:47Z</time>
      </trkpt>
      <trkpt lat="41.844432" lon="2.855712">
        <ele>30.40</ele>
        <time>2018-01-02T15:21:54Z</time>
      </trkpt>
      <trkpt lat="41.844260" lon="2.855569">
        <ele>30.20</ele>
        <time>2018-01-02T15:21:57Z</time>
      </trkpt>
      <trkpt lat="41.844084" lon="2.855414">
        <ele>30.20</ele>
        <time>2018-01-02T15:22:00Z</time>
      </trkpt>
      <trkpt lat="41.843760" lon="2.855113">
        <ele>30.40</ele>
        <time>2018-01-02T15:22:06Z</time>
      </trkpt>
      <trkpt lat="41.843709" lon="2.855055">
        <ele>30.00</ele>
        <time>2018-01-02T15:22:07Z</time>
      </trkpt>
      <trkpt lat="41.843464" lon="2.854751">
        <ele>30.00</ele>
        <time>2018-01-02T15:22:12Z</time>
      </trkpt>
      <trkpt lat="41.843351" lon="2.854636">
        <ele>29.60</ele>
        <time>2018-01-02T15:22:14Z</time>
      </trkpt>
      <trkpt lat="41.843107" lon="2.854440">
        <ele>30.00</ele>
        <time>2018-01-02T15:22:18Z</time>
      </trkpt>
      <trkpt lat="41.842853" lon="2.854290">
        <ele>30.00</ele>
        <time>2018-01-02T15:22:22Z</time>
      </trkpt>
      <trkpt lat="41.842731" lon="2.854210">
        <ele>30.00</ele>
        <time>2018-01-02T15:22:24Z</time>
      </trkpt>
      <trkpt lat="41.842575" lon="2.854063">
        <ele>30.20</ele>
        <time>2018-01-02T15:22:27Z</time>
      </trkpt>
      <trkpt lat="41.842501" lon="2.853826">
        <ele>30.00</ele>
        <time>2018-01-02T15:22:30Z</time>
      </trkpt>
      <trkpt lat="41.842497" lon="2.853730">
        <ele>30.20</ele>
        <time>2018-01-02T15:22:31Z</time>
      </trkpt>
      <trkpt lat="41.842584" lon="2.853162">
        <ele>30.40</ele>
        <time>2018-01-02T15:22:37Z</time>
      </trkpt>
      <trkpt lat="41.842605" lon="2.853066">
        <ele>30.40</ele>
        <time>2018-01-02T15:22:38Z</time>
      </trkpt>
      <trkpt lat="41.842784" lon="2.852323">
        <ele>30.80</ele>
        <time>2018-01-02T15:22:46Z</time>
      </trkpt>
      <trkpt lat="41.842857" lon="2.852044">
        <ele>31.00</ele>
        <time>2018-01-02T15:22:49Z</time>
      </trkpt>
      <trkpt lat="41.842887" lon="2.851955">
        <ele>31.20</ele>
        <time>2018-01-02T15:22:50Z</time>
      </trkpt>
      <trkpt lat="41.842918" lon="2.851865">
        <ele>31.60</ele>
        <time>2018-01-02T15:22:51Z</time>
      </trkpt>
      <trkpt lat="41.842939" lon="2.851680">
        <ele>32.40</ele>
        <time>2018-01-02T15:22:53Z</time>
      </trkpt>
      <trkpt lat="41.842927" lon="2.851594">
        <ele>33.00</ele>
        <time>2018-01-02T15:22:54Z</time>
      </trkpt>
      <trkpt lat="41.842880" lon="2.851314">
        <ele>33.60</ele>
        <time>2018-01-02T15:22:57Z</time>
      </trkpt>
      <trkpt lat="41.842849" lon="2.851119">
        <ele>34.80</ele>
        <time>2018-01-02T15:22:59Z</time>
      </trkpt>
      <trkpt lat="41.842806" lon="2.850933">
        <ele>35.80</ele>
        <time>2018-01-02T15:23:01Z</time>
      </trkpt>
      <trkpt lat="41.842784" lon="2.850781">
        <ele>36.20</ele>
        <time>2018-01-02T15:23:03Z</time>
      </trkpt>
      <trkpt lat="41.842749" lon="2.850461">
        <ele>37.00</ele>
        <time>2018-01-02T15:23:07Z</time>
      </trkpt>
      <trkpt lat="41.842726" lon="2.850284">
        <ele>37.00</ele>
        <time>2018-01-02T15:23:09Z</time>
      </trkpt>
      <trkpt lat="41.842723" lon="2.850063">
        <ele>38.40</ele>
        <time>2018-01-02T15:23:12Z</time>
      </trkpt>
      <trkpt lat="41.842743" lon="2.850017">
        <ele>38.40</ele>
        <time>2018-01-02T15:23:13Z</time>
      </trkpt>
      <trkpt lat="41.842802" lon="2.849909">
        <ele>39.40</ele>
        <time>2018-01-02T15:23:15Z</time>
      </trkpt>
      <trkpt lat="41.842825" lon="2.849604">
        <ele>40.80</ele>
        <time>2018-01-02T15:23:18Z</time>
      </trkpt>
      <trkpt lat="41.842837" lon="2.849381">
        <ele>41.40</ele>
        <time>2018-01-02T15:23:20Z</time>
      </trkpt>
      <trkpt lat="41.842852" lon="2.849168">
        <ele>42.00</ele>
        <time>2018-01-02T15:23:22Z</time>
      </trkpt>
      <trkpt lat="41.842886" lon="2.848991">
        <ele>42.40</ele>
        <time>2018-01-02T15:23:24Z</time>
      </trkpt>
      <trkpt lat="41.842937" lon="2.848853">
        <ele>43.20</ele>
        <time>2018-01-02T15:23:26Z</time>
      </trkpt>
      <trkpt lat="41.842971" lon="2.848798">
        <ele>43.40</ele>
        <time>2018-01-02T15:23:27Z</time>
      </trkpt>
      <trkpt lat="41.843042" lon="2.848661">
        <ele>44.20</ele>
        <time>2018-01-02T15:23:30Z</time>
      </trkpt>
      <trkpt lat="41.842985" lon="2.848379">
        <ele>45.20</ele>
        <time>2018-01-02T15:23:33Z</time>
      </trkpt>
      <trkpt lat="41.842922" lon="2.848182">
        <ele>46.40</ele>
        <time>2018-01-02T15:23:35Z</time>
      </trkpt>
      <trkpt lat="41.842888" lon="2.848089">
        <ele>47.20</ele>
        <time>2018-01-02T15:23:36Z</time>
      </trkpt>
      <trkpt lat="41.842827" lon="2.847904">
        <ele>48.00</ele>
        <time>2018-01-02T15:23:38Z</time>
      </trkpt>
      <trkpt lat="41.842768" lon="2.847720">
        <ele>49.20</ele>
        <time>2018-01-02T15:23:40Z</time>
      </trkpt>
      <trkpt lat="41.842707" lon="2.847551">
        <ele>50.40</ele>
        <time>2018-01-02T15:23:42Z</time>
      </trkpt>
      <trkpt lat="41.842677" lon="2.847472">
        <ele>51.00</ele>
        <time>2018-01-02T15:23:43Z</time>
      </trkpt>
      <trkpt lat="41.842587" lon="2.847232">
        <ele>51.60</ele>
        <time>2018-01-02T15:23:46Z</time>
      </trkpt>
      <trkpt lat="41.842563" lon="2.847151">
        <ele>52.20</ele>
        <time>2018-01-02T15:23:47Z</time>
      </trkpt>
      <trkpt lat="41.842453" lon="2.846910">
        <ele>53.00</ele>
        <time>2018-01-02T15:23:50Z</time>
      </trkpt>
      <trkpt lat="41.842367" lon="2.846751">
        <ele>53.40</ele>
        <time>2018-01-02T15:23:52Z</time>
      </trkpt>
      <trkpt lat="41.842245" lon="2.846399">
        <ele>54.20</ele>
        <time>2018-01-02T15:23:56Z</time>
      </trkpt>
      <trkpt lat="41.842149" lon="2.846034">
        <ele>54.80</ele>
        <time>2018-01-02T15:24:00Z</time>
      </trkpt>
      <trkpt lat="41.842102" lon="2.845856">
        <ele>55.20</ele>
        <time>2018-01-02T15:24:02Z</time>
      </trkpt>
      <trkpt lat="41.842017" lon="2.845581">
        <ele>56.20</ele>
        <time>2018-01-02T15:24:05Z</time>
      </trkpt>
      <trkpt lat="41.841981" lon="2.845489">
        <ele>56.40</ele>
        <time>2018-01-02T15:24:06Z</time>
      </trkpt>
      <trkpt lat="41.841943" lon="2.845227">
        <ele>57.20</ele>
        <time>2018-01-02T15:24:09Z</time>
      </trkpt>
      <trkpt lat="41.841893" lon="2.844900">
        <ele>58.00</ele>
        <time>2018-01-02T15:24:13Z</time>
      </trkpt>
      <trkpt lat="41.841831" lon="2.844529">
        <ele>58.60</ele>
        <time>2018-01-02T15:24:18Z</time>
      </trkpt>
      <trkpt lat="41.841822" lon="2.844463">
        <ele>58.80</ele>
        <time>2018-01-02T15:24:19Z</time>
      </trkpt>
      <trkpt lat="41.841819" lon="2.844326">
        <ele>58.40</ele>
        <time>2018-01-02T15:24:21Z</time>
      </trkpt>
      <trkpt lat="41.841825" lon="2.844023">
        <ele>57.80</ele>
        <time>2018-01-02T15:24:25Z</time>
      </trkpt>
      <trkpt lat="41.841825" lon="2.843945">
        <ele>57.80</ele>
        <time>2018-01-02T15:24:26Z</time>
      </trkpt>
      <trkpt lat="41.841821" lon="2.843684">
        <ele>57.60</ele>
        <time>2018-01-02T15:24:30Z</time>
      </trkpt>
      <trkpt lat="41.841795" lon="2.843150">
        <ele>57.40</ele>
        <time>2018-01-02T15:24:37Z</time>
      </trkpt>
      <trkpt lat="41.841808" lon="2.842703">
        <ele>56.80</ele>
        <time>2018-01-02T15:24:43Z</time>
      </trkpt>
      <trkpt lat="41.841891" lon="2.842227">
        <ele>56.60</ele>
        <time>2018-01-02T15:24:49Z</time>
      </trkpt>
      <trkpt lat="41.841923" lon="2.841997">
        <ele>56.60</ele>
        <time>2018-01-02T15:24:52Z</time>
      </trkpt>
      <trkpt lat="41.841979" lon="2.841702">
        <ele>57.00</ele>
        <time>2018-01-02T15:24:56Z</time>
      </trkpt>
      <trkpt lat="41.842005" lon="2.841549">
        <ele>57.00</ele>
        <time>2018-01-02T15:24:58Z</time>
      </trkpt>
      <trkpt lat="41.842037" lon="2.841329">
        <ele>57.00</ele>
        <time>2018-01-02T15:25:01Z</time>
      </trkpt>
      <trkpt lat="41.842044" lon="2.841246">
        <ele>57.20</ele>
        <time>2018-01-02T15:25:02Z</time>
      </trkpt>
      <trkpt lat="41.842088" lon="2.840942">
        <ele>58.00</ele>
        <time>2018-01-02T15:25:06Z</time>
      </trkpt>
      <trkpt lat="41.842100" lon="2.840816">
        <ele>58.20</ele>
        <time>2018-01-02T15:25:08Z</time>
      </trkpt>
      <trkpt lat="41.842097" lon="2.840697">
        <ele>58.20</ele>
        <time>2018-01-02T15:25:10Z</time>
      </trkpt>
      <trkpt lat="41.842091" lon="2.840638">
        <ele>58.00</ele>
        <time>2018-01-02T15:25:11Z</time>
      </trkpt>
      <trkpt lat="41.842040" lon="2.840443">
        <ele>58.00</ele>
        <time>2018-01-02T15:25:14Z</time>
      </trkpt>
      <trkpt lat="41.842014" lon="2.840379">
        <ele>58.40</ele>
        <time>2018-01-02T15:25:15Z</time>
      </trkpt>
      <trkpt lat="41.841995" lon="2.840319">
        <ele>58.20</ele>
        <time>2018-01-02T15:25:16Z</time>
      </trkpt>
      <trkpt lat="41.841826" lon="2.839835">
        <ele>57.80</ele>
        <time>2018-01-02T15:25:24Z</time>
      </trkpt>
      <trkpt lat="41.841677" lon="2.839446">
        <ele>57.60</ele>
        <time>2018-01-02T15:25:31Z</time>
      </trkpt>
      <trkpt lat="41.841633" lon="2.839306">
        <ele>57.20</ele>
        <time>2018-01-02T15:25:34Z</time>
      </trkpt>
      <trkpt lat="41.841588" lon="2.839180">
        <ele>56.20</ele>
        <time>2018-01-02T15:25:37Z</time>
      </trkpt>
      <trkpt lat="41.841566" lon="2.839138">
        <ele>56.00</ele>
        <time>2018-01-02T15:25:38Z</time>
      </trkpt>
      <trkpt lat="41.841508" lon="2.839025">
        <ele>54.80</ele>
        <time>2018-01-02T15:25:41Z</time>
      </trkpt>
      <trkpt lat="41.841468" lon="2.838941">
        <ele>53.60</ele>
        <time>2018-01-02T15:25:43Z</time>
      </trkpt>
      <trkpt lat="41.841447" lon="2.838894">
        <ele>53.40</ele>
        <time>2018-01-02T15:25:44Z</time>
      </trkpt>
      <trkpt lat="41.841409" lon="2.838784">
        <ele>52.80</ele>
        <time>2018-01-02T15:25:46Z</time>
      </trkpt>
      <trkpt lat="41.841395" lon="2.838727">
        <ele>52.60</ele>
        <time>2018-01-02T15:25:47Z</time>
      </trkpt>
      <trkpt lat="41.841379" lon="2.838666">
        <ele>52.40</ele>
        <time>2018-01-02T15:25:48Z</time>
      </trkpt>
      <trkpt lat="41.841377" lon="2.838452">
        <ele>51.60</ele>
        <time>2018-01-02T15:25:51Z</time>
      </trkpt>
      <trkpt lat="41.841382" lon="2.838303">
        <ele>51.60</ele>
        <time>2018-01-02T15:25:53Z</time>
      </trkpt>
      <trkpt lat="41.841386" lon="2.838153">
        <ele>51.20</ele>
        <time>2018-01-02T15:25:55Z</time>
      </trkpt>
      <trkpt lat="41.841433" lon="2.837952">
        <ele>50.40</ele>
        <time>2018-01-02T15:25:58Z</time>
      </trkpt>
      <trkpt lat="41.841494" lon="2.837667">
        <ele>50.00</ele>
        <time>2018-01-02T15:26:02Z</time>
      </trkpt>
      <trkpt lat="41.841486" lon="2.837431">
        <ele>50.00</ele>
        <time>2018-01-02T15:26:05Z</time>
      </trkpt>
      <trkpt lat="41.841467" lon="2.837355">
        <ele>50.00</ele>
        <time>2018-01-02T15:26:06Z</time>
      </trkpt>
      <trkpt lat="41.841443" lon="2.837283">
        <ele>50.00</ele>
        <time>2018-01-02T15:26:07Z</time>
      </trkpt>
      <trkpt lat="41.841360" lon="2.837059">
        <ele>50.40</ele>
        <time>2018-01-02T15:26:10Z</time>
      </trkpt>
      <trkpt lat="41.841340" lon="2.836978">
        <ele>50.60</ele>
        <time>2018-01-02T15:26:11Z</time>
      </trkpt>
      <trkpt lat="41.841338" lon="2.836677">
        <ele>52.00</ele>
        <time>2018-01-02T15:26:15Z</time>
      </trkpt>
      <trkpt lat="41.841321" lon="2.836533">
        <ele>52.00</ele>
        <time>2018-01-02T15:26:17Z</time>
      </trkpt>
      <trkpt lat="41.841286" lon="2.836193">
        <ele>51.20</ele>
        <time>2018-01-02T15:26:22Z</time>
      </trkpt>
      <trkpt lat="41.841266" lon="2.835928">
        <ele>50.80</ele>
        <time>2018-01-02T15:26:26Z</time>
      </trkpt>
      <trkpt lat="41.841236" lon="2.835710">
        <ele>50.60</ele>
        <time>2018-01-02T15:26:29Z</time>
      </trkpt>
      <trkpt lat="41.841176" lon="2.835386">
        <ele>50.20</ele>
        <time>2018-01-02T15:26:34Z</time>
      </trkpt>
      <trkpt lat="41.841155" lon="2.835261">
        <ele>50.20</ele>
        <time>2018-01-02T15:26:36Z</time>
      </trkpt>
      <trkpt lat="41.841111" lon="2.834929">
        <ele>49.80</ele>
        <time>2018-01-02T15:26:41Z</time>
      </trkpt>
      <trkpt lat="41.841102" lon="2.834864">
        <ele>50.00</ele>
        <time>2018-01-02T15:26:42Z</time>
      </trkpt>
      <trkpt lat="41.841072" lon="2.834741">
        <ele>49.80</ele>
        <time>2018-01-02T15:26:44Z</time>
      </trkpt>
      <trkpt lat="41.841036" lon="2.834542">
        <ele>49.60</ele>
        <time>2018-01-02T15:26:47Z</time>
      </trkpt>
      <trkpt lat="41.840980" lon="2.834185">
        <ele>49.80</ele>
        <time>2018-01-02T15:26:52Z</time>
      </trkpt>
      <trkpt lat="41.840964" lon="2.834116">
        <ele>49.60</ele>
        <time>2018-01-02T15:26:53Z</time>
      </trkpt>
      <trkpt lat="41.840913" lon="2.833924">
        <ele>49.20</ele>
        <time>2018-01-02T15:26:56Z</time>
      </trkpt>
      <trkpt lat="41.840870" lon="2.833729">
        <ele>49.00</ele>
        <time>2018-01-02T15:26:59Z</time>
      </trkpt>
      <trkpt lat="41.840781" lon="2.833373">
        <ele>48.60</ele>
        <time>2018-01-02T15:27:05Z</time>
      </trkpt>
      <trkpt lat="41.840769" lon="2.833319">
        <ele>48.40</ele>
        <time>2018-01-02T15:27:06Z</time>
      </trkpt>
      <trkpt lat="41.840693" lon="2.832985">
        <ele>48.00</ele>
        <time>2018-01-02T15:27:12Z</time>
      </trkpt>
      <trkpt lat="41.840604" lon="2.832615">
        <ele>47.40</ele>
        <time>2018-01-02T15:27:19Z</time>
      </trkpt>
      <trkpt lat="41.840576" lon="2.832506">
        <ele>47.60</ele>
        <time>2018-01-02T15:27:21Z</time>
      </trkpt>
      <trkpt lat="41.840529" lon="2.832347">
        <ele>47.00</ele>
        <time>2018-01-02T15:27:24Z</time>
      </trkpt>
      <trkpt lat="41.840474" lon="2.831995">
        <ele>46.80</ele>
        <time>2018-01-02T15:27:31Z</time>
      </trkpt>
      <trkpt lat="41.840474" lon="2.831698">
        <ele>46.60</ele>
        <time>2018-01-02T15:27:37Z</time>
      </trkpt>
      <trkpt lat="41.840479" lon="2.831648">
        <ele>46.40</ele>
        <time>2018-01-02T15:27:39Z</time>
      </trkpt>
      <trkpt lat="41.840534" lon="2.831378">
        <ele>46.20</ele>
        <time>2018-01-02T15:27:45Z</time>
      </trkpt>
      <trkpt lat="41.840626" lon="2.831185">
        <ele>45.80</ele>
        <time>2018-01-02T15:27:50Z</time>
      </trkpt>
      <trkpt lat="41.840637" lon="2.831158">
        <ele>45.40</ele>
        <time>2018-01-02T15:27:51Z</time>
      </trkpt>
      <trkpt lat="41.840673" lon="2.830991">
        <ele>45.20</ele>
        <time>2018-01-02T15:27:56Z</time>
      </trkpt>
      <trkpt lat="41.840723" lon="2.830861">
        <ele>44.40</ele>
        <time>2018-01-02T15:28:00Z</time>
      </trkpt>
      <trkpt lat="41.840759" lon="2.830802">
        <ele>44.20</ele>
        <time>2018-01-02T15:28:02Z</time>
      </trkpt>
      <trkpt lat="41.840802" lon="2.830652">
        <ele>43.20</ele>
        <time>2018-01-02T15:28:07Z</time>
      </trkpt>
      <trkpt lat="41.840799" lon="2.830608">
        <ele>43.20</ele>
        <time>2018-01-02T15:28:08Z</time>
      </trkpt>
      <trkpt lat="41.840793" lon="2.830460">
        <ele>42.20</ele>
        <time>2018-01-02T15:28:13Z</time>
      </trkpt>
      <trkpt lat="41.840801" lon="2.830435">
        <ele>42.20</ele>
        <time>2018-01-02T15:28:14Z</time>
      </trkpt>
      <trkpt lat="41.840816" lon="2.830349">
        <ele>41.20</ele>
        <time>2018-01-02T15:28:18Z</time>
      </trkpt>
      <trkpt lat="41.840819" lon="2.830336">
        <ele>41.20</ele>
        <time>2018-01-02T15:28:19Z</time>
      </trkpt>
      <trkpt lat="41.840822" lon="2.830317">
        <ele>41.00</ele>
        <time>2018-01-02T15:28:20Z</time>
      </trkpt>
      <trkpt lat="41.840829" lon="2.830280">
        <ele>40.60</ele>
        <time>2018-01-02T15:28:22Z</time>
      </trkpt>
      <trkpt lat="41.840817" lon="2.830216">
        <ele>40.00</ele>
        <time>2018-01-02T15:28:25Z</time>
      </trkpt>
      <trkpt lat="41.840816" lon="2.830194">
        <ele>39.80</ele>
        <time>2018-01-02T15:28:26Z</time>
      </trkpt>
      <trkpt lat="41.840815" lon="2.830115">
        <ele>38.60</ele>
        <time>2018-01-02T15:28:30Z</time>
      </trkpt>
      <trkpt lat="41.840811" lon="2.830073">
        <ele>38.00</ele>
        <time>2018-01-02T15:28:32Z</time>
      </trkpt>
      <trkpt lat="41.840810" lon="2.830028">
        <ele>37.40</ele>
        <time>2018-01-02T15:28:34Z</time>
      </trkpt>
      <trkpt lat="41.840804" lon="2.829903">
        <ele>36.60</ele>
        <time>2018-01-02T15:28:39Z</time>
      </trkpt>
      <trkpt lat="41.840805" lon="2.829861">
        <ele>36.40</ele>
        <time>2018-01-02T15:28:41Z</time>
      </trkpt>
      <trkpt lat="41.840808" lon="2.829809">
        <ele>36.00</ele>
        <time>2018-01-02T15:28:43Z</time>
      </trkpt>
      <trkpt lat="41.840875" lon="2.829616">
        <ele>35.60</ele>
        <time>2018-01-02T15:28:48Z</time>
      </trkpt>
      <trkpt lat="41.840904" lon="2.829501">
        <ele>35.20</ele>
        <time>2018-01-02T15:28:50Z</time>
      </trkpt>
      <trkpt lat="41.840919" lon="2.829438">
        <ele>35.20</ele>
        <time>2018-01-02T15:28:51Z</time>
      </trkpt>
      <trkpt lat="41.840977" lon="2.829257">
        <ele>34.40</ele>
        <time>2018-01-02T15:28:54Z</time>
      </trkpt>
      <trkpt lat="41.840993" lon="2.829195">
        <ele>34.60</ele>
        <time>2018-01-02T15:28:55Z</time>
      </trkpt>
      <trkpt lat="41.840991" lon="2.828982">
        <ele>34.40</ele>
        <time>2018-01-02T15:28:58Z</time>
      </trkpt>
      <trkpt lat="41.841088" lon="2.828279">
        <ele>34.20</ele>
        <time>2018-01-02T15:29:07Z</time>
      </trkpt>
      <trkpt lat="41.841200" lon="2.827729">
        <ele>34.20</ele>
        <time>2018-01-02T15:29:14Z</time>
      </trkpt>
      <trkpt lat="41.841267" lon="2.827003">
        <ele>34.40</ele>
        <time>2018-01-02T15:29:23Z</time>
      </trkpt>
      <trkpt lat="41.841342" lon="2.826210">
        <ele>34.80</ele>
        <time>2018-01-02T15:29:33Z</time>
      </trkpt>
      <trkpt lat="41.841353" lon="2.826134">
        <ele>34.80</ele>
        <time>2018-01-02T15:29:34Z</time>
      </trkpt>
      <trkpt lat="41.841409" lon="2.825864">
        <ele>34.80</ele>
        <time>2018-01-02T15:29:38Z</time>
      </trkpt>
      <trkpt lat="41.841450" lon="2.825765">
        <ele>34.20</ele>
        <time>2018-01-02T15:29:40Z</time>
      </trkpt>
      <trkpt lat="41.841477" lon="2.825727">
        <ele>33.80</ele>
        <time>2018-01-02T15:29:41Z</time>
      </trkpt>
      <trkpt lat="41.841547" lon="2.825647">
        <ele>33.00</ele>
        <time>2018-01-02T15:29:43Z</time>
      </trkpt>
      <trkpt lat="41.841607" lon="2.825543">
        <ele>33.20</ele>
        <time>2018-01-02T15:29:45Z</time>
      </trkpt>
      <trkpt lat="41.841611" lon="2.825480">
        <ele>33.40</ele>
        <time>2018-01-02T15:29:46Z</time>
      </trkpt>
      <trkpt lat="41.841602" lon="2.825416">
        <ele>33.80</ele>
        <time>2018-01-02T15:29:47Z</time>
      </trkpt>
      <trkpt lat="41.841576" lon="2.825349">
        <ele>34.20</ele>
        <time>2018-01-02T15:29:48Z</time>
      </trkpt>
      <trkpt lat="41.841452" lon="2.825110">
        <ele>34.80</ele>
        <time>2018-01-02T15:29:52Z</time>
      </trkpt>
      <trkpt lat="41.841359" lon="2.824937">
        <ele>34.80</ele>
        <time>2018-01-02T15:29:55Z</time>
      </trkpt>
      <trkpt lat="41.841157" lon="2.824556">
        <ele>34.80</ele>
        <time>2018-01-02T15:30:01Z</time>
      </trkpt>
      <trkpt lat="41.840981" lon="2.824226">
        <ele>34.80</ele>
        <time>2018-01-02T15:30:06Z</time>
      </trkpt>
      <trkpt lat="41.840836" lon="2.823974">
        <ele>34.60</ele>
        <time>2018-01-02T15:30:10Z</time>
      </trkpt>
      <trkpt lat="41.840720" lon="2.823787">
        <ele>35.00</ele>
        <time>2018-01-02T15:30:13Z</time>
      </trkpt>
      <trkpt lat="41.840607" lon="2.823601">
        <ele>35.20</ele>
        <time>2018-01-02T15:30:16Z</time>
      </trkpt>
      <trkpt lat="41.840492" lon="2.823421">
        <ele>35.40</ele>
        <time>2018-01-02T15:30:19Z</time>
      </trkpt>
      <trkpt lat="41.840454" lon="2.823362">
        <ele>35.60</ele>
        <time>2018-01-02T15:30:20Z</time>
      </trkpt>
      <trkpt lat="41.840347" lon="2.823185">
        <ele>35.80</ele>
        <time>2018-01-02T15:30:23Z</time>
      </trkpt>
      <trkpt lat="41.840236" lon="2.823023">
        <ele>36.20</ele>
        <time>2018-01-02T15:30:26Z</time>
      </trkpt>
      <trkpt lat="41.840199" lon="2.822975">
        <ele>36.20</ele>
        <time>2018-01-02T15:30:27Z</time>
      </trkpt>
      <trkpt lat="41.840042" lon="2.822836">
        <ele>36.40</ele>
        <time>2018-01-02T15:30:31Z</time>
      </trkpt>
      <trkpt lat="41.839980" lon="2.822777">
        <ele>36.60</ele>
        <time>2018-01-02T15:30:33Z</time>
      </trkpt>
      <trkpt lat="41.839938" lon="2.822724">
        <ele>36.80</ele>
        <time>2018-01-02T15:30:35Z</time>
      </trkpt>
      <trkpt lat="41.839928" lon="2.822667">
        <ele>37.00</ele>
        <time>2018-01-02T15:32:23Z</time>
      </trkpt>
      <trkpt lat="41.839834" lon="2.822586">
        <ele>37.60</ele>
        <time>2018-01-02T15:32:27Z</time>
      </trkpt>
      <trkpt lat="41.839796" lon="2.822557">
        <ele>38.40</ele>
        <time>2018-01-02T15:32:28Z</time>
      </trkpt>
      <trkpt lat="41.839631" lon="2.822449">
        <ele>39.20</ele>
        <time>2018-01-02T15:32:33Z</time>
      </trkpt>
      <trkpt lat="41.839506" lon="2.822367">
        <ele>40.00</ele>
        <time>2018-01-02T15:32:36Z</time>
      </trkpt>
      <trkpt lat="41.839451" lon="2.822339">
        <ele>40.40</ele>
        <time>2018-01-02T15:32:37Z</time>
      </trkpt>
      <trkpt lat="41.839396" lon="2.822300">
        <ele>40.60</ele>
        <time>2018-01-02T15:32:38Z</time>
      </trkpt>
      <trkpt lat="41.839276" lon="2.822228">
        <ele>41.20</ele>
        <time>2018-01-02T15:32:40Z</time>
      </trkpt>
      <trkpt lat="41.839219" lon="2.822199">
        <ele>41.40</ele>
        <time>2018-01-02T15:32:41Z</time>
      </trkpt>
      <trkpt lat="41.839165" lon="2.822172">
        <ele>41.20</ele>
        <time>2018-01-02T15:32:42Z</time>
      </trkpt>
      <trkpt lat="41.839103" lon="2.822073">
        <ele>40.20</ele>
        <time>2018-01-02T15:32:44Z</time>
      </trkpt>
      <trkpt lat="41.839112" lon="2.822003">
        <ele>39.80</ele>
        <time>2018-01-02T15:32:45Z</time>
      </trkpt>
      <trkpt lat="41.839169" lon="2.821854">
        <ele>39.20</ele>
        <time>2018-01-02T15:32:47Z</time>
      </trkpt>
      <trkpt lat="41.839230" lon="2.821693">
        <ele>38.40</ele>
        <time>2018-01-02T15:32:49Z</time>
      </trkpt>
      <trkpt lat="41.839300" lon="2.821518">
        <ele>38.00</ele>
        <time>2018-01-02T15:32:51Z</time>
      </trkpt>
      <trkpt lat="41.839360" lon="2.821345">
        <ele>38.60</ele>
        <time>2018-01-02T15:32:53Z</time>
      </trkpt>
      <trkpt lat="41.839375" lon="2.821263">
        <ele>38.80</ele>
        <time>2018-01-02T15:32:54Z</time>
      </trkpt>
      <trkpt lat="41.839367" lon="2.821187">
        <ele>39.00</ele>
        <time>2018-01-02T15:32:55Z</time>
      </trkpt>
      <trkpt lat="41.839333" lon="2.821122">
        <ele>39.20</ele>
        <time>2018-01-02T15:32:56Z</time>
      </trkpt>
      <trkpt lat="41.839106" lon="2.820875">
        <ele>40.00</ele>
        <time>2018-01-02T15:33:00Z</time>
      </trkpt>
      <trkpt lat="41.838983" lon="2.820745">
        <ele>40.20</ele>
        <time>2018-01-02T15:33:02Z</time>
      </trkpt>
      <trkpt lat="41.838678" lon="2.820436">
        <ele>41.00</ele>
        <time>2018-01-02T15:33:07Z</time>
      </trkpt>
      <trkpt lat="41.838443" lon="2.820205">
        <ele>41.40</ele>
        <time>2018-01-02T15:33:11Z</time>
      </trkpt>
      <trkpt lat="41.838387" lon="2.820146">
        <ele>41.60</ele>
        <time>2018-01-02T15:33:12Z</time>
      </trkpt>
      <trkpt lat="41.838279" lon="2.820031">
        <ele>41.80</ele>
        <time>2018-01-02T15:33:14Z</time>
      </trkpt>
      <trkpt lat="41.838226" lon="2.819975">
        <ele>42.00</ele>
        <time>2018-01-02T15:33:15Z</time>
      </trkpt>
      <trkpt lat="41.838175" lon="2.819919">
        <ele>42.20</ele>
        <time>2018-01-02T15:33:16Z</time>
      </trkpt>
      <trkpt lat="41.838115" lon="2.819726">
        <ele>42.80</ele>
        <time>2018-01-02T15:33:19Z</time>
      </trkpt>
      <trkpt lat="41.838135" lon="2.819666">
        <ele>43.00</ele>
        <time>2018-01-02T15:33:20Z</time>
      </trkpt>
      <trkpt lat="41.838170" lon="2.819607">
        <ele>43.40</ele>
        <time>2018-01-02T15:33:21Z</time>
      </trkpt>
      <trkpt lat="41.838297" lon="2.819397">
        <ele>44.00</ele>
        <time>2018-01-02T15:33:24Z</time>
      </trkpt>
      <trkpt lat="41.838336" lon="2.819326">
        <ele>44.20</ele>
        <time>2018-01-02T15:33:25Z</time>
      </trkpt>
      <trkpt lat="41.838375" lon="2.819256">
        <ele>44.40</ele>
        <time>2018-01-02T15:33:26Z</time>
      </trkpt>
      <trkpt lat="41.838428" lon="2.819125">
        <ele>44.60</ele>
        <time>2018-01-02T15:33:28Z</time>
      </trkpt>
      <trkpt lat="41.838415" lon="2.819009">
        <ele>45.40</ele>
        <time>2018-01-02T15:33:30Z</time>
      </trkpt>
      <trkpt lat="41.838371" lon="2.818966">
        <ele>45.80</ele>
        <time>2018-01-02T15:33:31Z</time>
      </trkpt>
      <trkpt lat="41.838314" lon="2.818926">
        <ele>46.40</ele>
        <time>2018-01-02T15:33:32Z</time>
      </trkpt>
      <trkpt lat="41.838170" lon="2.818825">
        <ele>47.60</ele>
        <time>2018-01-02T15:33:34Z</time>
      </trkpt>
      <trkpt lat="41.838018" lon="2.818716">
        <ele>49.00</ele>
        <time>2018-01-02T15:33:36Z</time>
      </trkpt>
      <trkpt lat="41.837939" lon="2.818659">
        <ele>49.80</ele>
        <time>2018-01-02T15:33:37Z</time>
      </trkpt>
      <trkpt lat="41.837857" lon="2.818603">
        <ele>50.40</ele>
        <time>2018-01-02T15:33:38Z</time>
      </trkpt>
      <trkpt lat="41.837704" lon="2.818490">
        <ele>51.40</ele>
        <time>2018-01-02T15:33:40Z</time>
      </trkpt>
      <trkpt lat="41.837485" lon="2.818332">
        <ele>52.60</ele>
        <time>2018-01-02T15:33:43Z</time>
      </trkpt>
      <trkpt lat="41.837415" lon="2.818278">
        <ele>53.00</ele>
        <time>2018-01-02T15:33:44Z</time>
      </trkpt>
      <trkpt lat="41.837346" lon="2.818223">
        <ele>53.80</ele>
        <time>2018-01-02T15:33:45Z</time>
      </trkpt>
      <trkpt lat="41.837201" lon="2.818111">
        <ele>55.00</ele>
        <time>2018-01-02T15:33:47Z</time>
      </trkpt>
      <trkpt lat="41.837134" lon="2.818057">
        <ele>55.60</ele>
        <time>2018-01-02T15:33:48Z</time>
      </trkpt>
      <trkpt lat="41.836972" lon="2.817948">
        <ele>56.20</ele>
        <time>2018-01-02T15:33:51Z</time>
      </trkpt>
      <trkpt lat="41.836876" lon="2.817982">
        <ele>56.40</ele>
        <time>2018-01-02T15:33:53Z</time>
      </trkpt>
      <trkpt lat="41.836759" lon="2.818128">
        <ele>56.40</ele>
        <time>2018-01-02T15:33:56Z</time>
      </trkpt>
      <trkpt lat="41.836679" lon="2.818236">
        <ele>56.40</ele>
        <time>2018-01-02T15:33:58Z</time>
      </trkpt>
      <trkpt lat="41.836480" lon="2.818494">
        <ele>56.60</ele>
        <time>2018-01-02T15:34:03Z</time>
      </trkpt>
      <trkpt lat="41.836249" lon="2.818812">
        <ele>56.40</ele>
        <time>2018-01-02T15:34:10Z</time>
      </trkpt>
      <trkpt lat="41.836197" lon="2.818881">
        <ele>56.20</ele>
        <time>2018-01-02T15:34:12Z</time>
      </trkpt>
      <trkpt lat="41.836181" lon="2.818952">
        <ele>55.80</ele>
        <time>2018-01-02T15:34:14Z</time>
      </trkpt>
      <trkpt lat="41.836178" lon="2.819014">
        <ele>55.40</ele>
        <time>2018-01-02T15:34:16Z</time>
      </trkpt>
      <trkpt lat="41.836165" lon="2.819061">
        <ele>55.00</ele>
        <time>2018-01-02T15:34:24Z</time>
      </trkpt>
      <trkpt lat="41.836173" lon="2.819069">
        <ele>55.20</ele>
        <time>2018-01-02T15:34:26Z</time>
      </trkpt>
      <trkpt lat="41.836175" lon="2.819057">
        <ele>55.60</ele>
        <time>2018-01-02T15:34:27Z</time>
      </trkpt>
      <trkpt lat="41.836113" lon="2.818976">
        <ele>56.80</ele>
        <time>2018-01-02T15:34:30Z</time>
      </trkpt>
      <trkpt lat="41.836073" lon="2.818982">
        <ele>56.80</ele>
        <time>2018-01-02T15:34:31Z</time>
      </trkpt>
      <trkpt lat="41.835967" lon="2.819118">
        <ele>56.80</ele>
        <time>2018-01-02T15:34:34Z</time>
      </trkpt>
      <trkpt lat="41.835903" lon="2.819211">
        <ele>56.80</ele>
        <time>2018-01-02T15:34:36Z</time>
      </trkpt>
      <trkpt lat="41.835837" lon="2.819290">
        <ele>56.80</ele>
        <time>2018-01-02T15:34:38Z</time>
      </trkpt>
      <trkpt lat="41.835805" lon="2.819325">
        <ele>56.60</ele>
        <time>2018-01-02T15:34:39Z</time>
      </trkpt>
      <trkpt lat="41.835722" lon="2.819454">
        <ele>55.80</ele>
        <time>2018-01-02T15:34:42Z</time>
      </trkpt>
      <trkpt lat="41.835691" lon="2.819498">
        <ele>55.40</ele>
        <time>2018-01-02T15:34:43Z</time>
      </trkpt>
      <trkpt lat="41.835592" lon="2.819630">
        <ele>54.40</ele>
        <time>2018-01-02T15:34:46Z</time>
      </trkpt>
      <trkpt lat="41.835557" lon="2.819671">
        <ele>54.00</ele>
        <time>2018-01-02T15:34:47Z</time>
      </trkpt>
      <trkpt lat="41.835431" lon="2.819851">
        <ele>52.80</ele>
        <time>2018-01-02T15:34:51Z</time>
      </trkpt>
      <trkpt lat="41.835367" lon="2.819948">
        <ele>52.00</ele>
        <time>2018-01-02T15:34:53Z</time>
      </trkpt>
      <trkpt lat="41.835232" lon="2.820171">
        <ele>51.40</ele>
        <time>2018-01-02T15:34:57Z</time>
      </trkpt>
      <trkpt lat="41.835162" lon="2.820285">
        <ele>51.40</ele>
        <time>2018-01-02T15:34:59Z</time>
      </trkpt>
      <trkpt lat="41.835043" lon="2.820422">
        <ele>51.80</ele>
        <time>2018-01-02T15:35:02Z</time>
      </trkpt>
      <trkpt lat="41.835002" lon="2.820432">
        <ele>51.80</ele>
        <time>2018-01-02T15:35:03Z</time>
      </trkpt>
      <trkpt lat="41.834945" lon="2.820382">
        <ele>52.00</ele>
        <time>2018-01-02T15:35:05Z</time>
      </trkpt>
      <trkpt lat="41.834862" lon="2.820106">
        <ele>52.80</ele>
        <time>2018-01-02T15:35:09Z</time>
      </trkpt>
      <trkpt lat="41.834828" lon="2.819956">
        <ele>53.20</ele>
        <time>2018-01-02T15:35:11Z</time>
      </trkpt>
      <trkpt lat="41.834810" lon="2.819885">
        <ele>53.40</ele>
        <time>2018-01-02T15:35:12Z</time>
      </trkpt>
      <trkpt lat="41.834741" lon="2.819641">
        <ele>54.20</ele>
        <time>2018-01-02T15:35:16Z</time>
      </trkpt>
      <trkpt lat="41.834702" lon="2.819386">
        <ele>53.80</ele>
        <time>2018-01-02T15:35:21Z</time>
      </trkpt>
      <trkpt lat="41.834697" lon="2.819332">
        <ele>53.60</ele>
        <time>2018-01-02T15:35:22Z</time>
      </trkpt>
      <trkpt lat="41.834661" lon="2.819160">
        <ele>52.80</ele>
        <time>2018-01-02T15:35:24Z</time>
      </trkpt>
      <trkpt lat="41.834666" lon="2.819053">
        <ele>51.80</ele>
        <time>2018-01-02T15:35:27Z</time>
      </trkpt>
      <trkpt lat="41.834691" lon="2.818987">
        <ele>51.60</ele>
        <time>2018-01-02T15:35:29Z</time>
      </trkpt>
      <trkpt lat="41.834723" lon="2.818966">
        <ele>51.80</ele>
        <time>2018-01-02T15:35:30Z</time>
      </trkpt>
      <trkpt lat="41.834814" lon="2.818955">
        <ele>52.80</ele>
        <time>2018-01-02T15:35:32Z</time>
      </trkpt>
      <trkpt lat="41.834901" lon="2.819005">
        <ele>53.80</ele>
        <time>2018-01-02T15:35:34Z</time>
      </trkpt>
      <trkpt lat="41.835022" lon="2.819101">
        <ele>54.60</ele>
        <time>2018-01-02T15:35:38Z</time>
      </trkpt>
      <trkpt lat="41.835083" lon="2.819088">
        <ele>54.00</ele>
        <time>2018-01-02T15:35:41Z</time>
      </trkpt>
      <trkpt lat="41.835129" lon="2.819050">
        <ele>53.60</ele>
        <time>2018-01-02T15:35:43Z</time>
      </trkpt>
      <trkpt lat="41.835183" lon="2.819009">
        <ele>53.00</ele>
        <time>2018-01-02T15:35:45Z</time>
      </trkpt>
      <trkpt lat="41.835282" lon="2.818920">
        <ele>51.80</ele>
        <time>2018-01-02T15:35:49Z</time>
      </trkpt>
      <trkpt lat="41.835307" lon="2.818896">
        <ele>51.60</ele>
        <time>2018-01-02T15:35:50Z</time>
      </trkpt>
      <trkpt lat="41.835378" lon="2.818814">
        <ele>50.60</ele>
        <time>2018-01-02T15:35:53Z</time>
      </trkpt>
      <trkpt lat="41.835473" lon="2.818692">
        <ele>49.40</ele>
        <time>2018-01-02T15:35:57Z</time>
      </trkpt>
      <trkpt lat="41.835496" lon="2.818661">
        <ele>49.20</ele>
        <time>2018-01-02T15:35:58Z</time>
      </trkpt>
      <trkpt lat="41.835536" lon="2.818599">
        <ele>48.40</ele>
        <time>2018-01-02T15:36:00Z</time>
      </trkpt>
      <trkpt lat="41.835602" lon="2.818447">
        <ele>47.00</ele>
        <time>2018-01-02T15:36:04Z</time>
      </trkpt>
      <trkpt lat="41.835631" lon="2.818265">
        <ele>45.80</ele>
        <time>2018-01-02T15:36:08Z</time>
      </trkpt>
      <trkpt lat="41.835497" lon="2.817842">
        <ele>45.00</ele>
        <time>2018-01-02T15:36:16Z</time>
      </trkpt>
      <trkpt lat="41.835445" lon="2.817703">
        <ele>44.80</ele>
        <time>2018-01-02T15:36:19Z</time>
      </trkpt>
      <trkpt lat="41.835378" lon="2.817577">
        <ele>44.20</ele>
        <time>2018-01-02T15:36:22Z</time>
      </trkpt>
      <trkpt lat="41.835287" lon="2.817322">
        <ele>43.60</ele>
        <time>2018-01-02T15:36:27Z</time>
      </trkpt>
      <trkpt lat="41.835250" lon="2.817159">
        <ele>43.20</ele>
        <time>2018-01-02T15:36:30Z</time>
      </trkpt>
      <trkpt lat="41.835239" lon="2.817104">
        <ele>43.20</ele>
        <time>2018-01-02T15:36:31Z</time>
      </trkpt>
      <trkpt lat="41.835194" lon="2.816785">
        <ele>42.60</ele>
        <time>2018-01-02T15:36:37Z</time>
      </trkpt>
      <trkpt lat="41.835177" lon="2.816688">
        <ele>42.40</ele>
        <time>2018-01-02T15:36:39Z</time>
      </trkpt>
      <trkpt lat="41.835159" lon="2.816553">
        <ele>41.60</ele>
        <time>2018-01-02T15:36:42Z</time>
      </trkpt>
      <trkpt lat="41.835156" lon="2.816414">
        <ele>40.60</ele>
        <time>2018-01-02T15:36:45Z</time>
      </trkpt>
      <trkpt lat="41.835176" lon="2.816215">
        <ele>39.60</ele>
        <time>2018-01-02T15:36:49Z</time>
      </trkpt>
      <trkpt lat="41.835209" lon="2.816060">
        <ele>39.00</ele>
        <time>2018-01-02T15:36:52Z</time>
      </trkpt>
      <trkpt lat="41.835259" lon="2.815903">
        <ele>38.40</ele>
        <time>2018-01-02T15:36:55Z</time>
      </trkpt>
      <trkpt lat="41.835378" lon="2.815651">
        <ele>37.80</ele>
        <time>2018-01-02T15:37:00Z</time>
      </trkpt>
      <trkpt lat="41.835554" lon="2.815361">
        <ele>37.40</ele>
        <time>2018-01-02T15:37:06Z</time>
      </trkpt>
      <trkpt lat="41.835627" lon="2.815284">
        <ele>37.20</ele>
        <time>2018-01-02T15:37:08Z</time>
      </trkpt>
      <trkpt lat="41.835836" lon="2.815163">
        <ele>36.00</ele>
        <time>2018-01-02T15:37:13Z</time>
      </trkpt>
      <trkpt lat="41.835879" lon="2.815143">
        <ele>35.80</ele>
        <time>2018-01-02T15:37:14Z</time>
      </trkpt>
      <trkpt lat="41.836060" lon="2.815037">
        <ele>34.80</ele>
        <time>2018-01-02T15:37:18Z</time>
      </trkpt>
      <trkpt lat="41.836147" lon="2.814977">
        <ele>34.80</ele>
        <time>2018-01-02T15:37:20Z</time>
      </trkpt>
      <trkpt lat="41.836307" lon="2.814797">
        <ele>34.80</ele>
        <time>2018-01-02T15:37:24Z</time>
      </trkpt>
      <trkpt lat="41.836331" lon="2.814675">
        <ele>35.00</ele>
        <time>2018-01-02T15:37:26Z</time>
      </trkpt>
      <trkpt lat="41.836289" lon="2.814502">
        <ele>35.00</ele>
        <time>2018-01-02T15:37:29Z</time>
      </trkpt>
      <trkpt lat="41.836274" lon="2.814446">
        <ele>35.20</ele>
        <time>2018-01-02T15:37:30Z</time>
      </trkpt>
      <trkpt lat="41.836252" lon="2.814331">
        <ele>35.40</ele>
        <time>2018-01-02T15:37:32Z</time>
      </trkpt>
      <trkpt lat="41.836241" lon="2.814215">
        <ele>35.40</ele>
        <time>2018-01-02T15:37:34Z</time>
      </trkpt>
      <trkpt lat="41.836239" lon="2.813876">
        <ele>35.60</ele>
        <time>2018-01-02T15:37:41Z</time>
      </trkpt>
      <trkpt lat="41.836241" lon="2.813797">
        <ele>34.80</ele>
        <time>2018-01-02T15:37:43Z</time>
      </trkpt>
      <trkpt lat="41.836243" lon="2.813638">
        <ele>33.60</ele>
        <time>2018-01-02T15:37:47Z</time>
      </trkpt>
      <trkpt lat="41.836245" lon="2.813600">
        <ele>33.40</ele>
        <time>2018-01-02T15:37:48Z</time>
      </trkpt>
      <trkpt lat="41.836362" lon="2.813322">
        <ele>32.40</ele>
        <time>2018-01-02T15:37:55Z</time>
      </trkpt>
      <trkpt lat="41.836508" lon="2.813066">
        <ele>31.60</ele>
        <time>2018-01-02T15:38:02Z</time>
      </trkpt>
      <trkpt lat="41.836542" lon="2.812996">
        <ele>31.40</ele>
        <time>2018-01-02T15:38:04Z</time>
      </trkpt>
      <trkpt lat="41.836597" lon="2.812846">
        <ele>30.00</ele>
        <time>2018-01-02T15:38:08Z</time>
      </trkpt>
      <trkpt lat="41.836607" lon="2.812807">
        <ele>29.60</ele>
        <time>2018-01-02T15:38:09Z</time>
      </trkpt>
      <trkpt lat="41.836650" lon="2.812641">
        <ele>28.80</ele>
        <time>2018-01-02T15:38:13Z</time>
      </trkpt>
      <trkpt lat="41.836700" lon="2.812463">
        <ele>28.00</ele>
        <time>2018-01-02T15:38:17Z</time>
      </trkpt>
      <trkpt lat="41.836733" lon="2.812324">
        <ele>27.60</ele>
        <time>2018-01-02T15:38:20Z</time>
      </trkpt>
      <trkpt lat="41.836781" lon="2.812086">
        <ele>26.60</ele>
        <time>2018-01-02T15:38:25Z</time>
      </trkpt>
      <trkpt lat="41.836793" lon="2.812036">
        <ele>26.40</ele>
        <time>2018-01-02T15:38:26Z</time>
      </trkpt>
      <trkpt lat="41.836857" lon="2.811868">
        <ele>25.80</ele>
        <time>2018-01-02T15:38:30Z</time>
      </trkpt>
      <trkpt lat="41.836902" lon="2.811812">
        <ele>25.40</ele>
        <time>2018-01-02T15:38:32Z</time>
      </trkpt>
      <trkpt lat="41.836917" lon="2.811782">
        <ele>25.00</ele>
        <time>2018-01-02T15:38:33Z</time>
      </trkpt>
      <trkpt lat="41.836926" lon="2.811742">
        <ele>25.00</ele>
        <time>2018-01-02T15:38:34Z</time>
      </trkpt>
      <trkpt lat="41.836933" lon="2.811655">
        <ele>24.40</ele>
        <time>2018-01-02T15:38:36Z</time>
      </trkpt>
      <trkpt lat="41.836941" lon="2.811557">
        <ele>24.20</ele>
        <time>2018-01-02T15:38:38Z</time>
      </trkpt>
      <trkpt lat="41.836949" lon="2.811508">
        <ele>24.00</ele>
        <time>2018-01-02T15:38:39Z</time>
      </trkpt>
      <trkpt lat="41.836966" lon="2.811464">
        <ele>24.00</ele>
        <time>2018-01-02T15:38:40Z</time>
      </trkpt>
      <trkpt lat="41.837172" lon="2.811306">
        <ele>23.00</ele>
        <time>2018-01-02T15:38:47Z</time>
      </trkpt>
      <trkpt lat="41.837269" lon="2.811249">
        <ele>23.00</ele>
        <time>2018-01-02T15:38:50Z</time>
      </trkpt>
      <trkpt lat="41.837435" lon="2.811152">
        <ele>22.20</ele>
        <time>2018-01-02T15:38:55Z</time>
      </trkpt>
      <trkpt lat="41.837532" lon="2.811091">
        <ele>22.00</ele>
        <time>2018-01-02T15:38:58Z</time>
      </trkpt>
      <trkpt lat="41.837580" lon="2.811042">
        <ele>21.40</ele>
        <time>2018-01-02T15:39:00Z</time>
      </trkpt>
      <trkpt lat="41.837682" lon="2.810920">
        <ele>20.80</ele>
        <time>2018-01-02T15:39:05Z</time>
      </trkpt>
      <trkpt lat="41.837711" lon="2.810912">
        <ele>20.80</ele>
        <time>2018-01-02T15:39:06Z</time>
      </trkpt>
      <trkpt lat="41.837885" lon="2.810879">
        <ele>20.00</ele>
        <time>2018-01-02T15:39:11Z</time>
      </trkpt>
      <trkpt lat="41.837920" lon="2.810874">
        <ele>19.60</ele>
        <time>2018-01-02T15:39:12Z</time>
      </trkpt>
      <trkpt lat="41.838113" lon="2.810823">
        <ele>18.80</ele>
        <time>2018-01-02T15:39:17Z</time>
      </trkpt>
      <trkpt lat="41.838151" lon="2.810808">
        <ele>18.80</ele>
        <time>2018-01-02T15:39:18Z</time>
      </trkpt>
      <trkpt lat="41.838296" lon="2.810732">
        <ele>18.60</ele>
        <time>2018-01-02T15:39:22Z</time>
      </trkpt>
      <trkpt lat="41.838328" lon="2.810700">
        <ele>18.60</ele>
        <time>2018-01-02T15:39:23Z</time>
      </trkpt>
      <trkpt lat="41.838428" lon="2.810624">
        <ele>18.20</ele>
        <time>2018-01-02T15:39:26Z</time>
      </trkpt>
      <trkpt lat="41.838504" lon="2.810531">
        <ele>18.00</ele>
        <time>2018-01-02T15:39:29Z</time>
      </trkpt>
      <trkpt lat="41.838500" lon="2.810449">
        <ele>18.00</ele>
        <time>2018-01-02T15:39:31Z</time>
      </trkpt>
      <trkpt lat="41.838451" lon="2.810348">
        <ele>17.40</ele>
        <time>2018-01-02T15:39:34Z</time>
      </trkpt>
      <trkpt lat="41.838431" lon="2.810310">
        <ele>17.20</ele>
        <time>2018-01-02T15:39:35Z</time>
      </trkpt>
      <trkpt lat="41.838375" lon="2.810194">
        <ele>16.60</ele>
        <time>2018-01-02T15:39:38Z</time>
      </trkpt>
      <trkpt lat="41.838358" lon="2.810157">
        <ele>16.40</ele>
        <time>2018-01-02T15:39:39Z</time>
      </trkpt>
      <trkpt lat="41.838359" lon="2.810124">
        <ele>16.40</ele>
        <time>2018-01-02T15:39:40Z</time>
      </trkpt>
      <trkpt lat="41.838378" lon="2.809968">
        <ele>15.80</ele>
        <time>2018-01-02T15:39:44Z</time>
      </trkpt>
      <trkpt lat="41.838376" lon="2.809934">
        <ele>15.60</ele>
        <time>2018-01-02T15:39:45Z</time>
      </trkpt>
      <trkpt lat="41.838380" lon="2.809865">
        <ele>15.40</ele>
        <time>2018-01-02T15:39:47Z</time>
      </trkpt>
      <trkpt lat="41.838390" lon="2.809770">
        <ele>15.00</ele>
        <time>2018-01-02T15:39:50Z</time>
      </trkpt>
      <trkpt lat="41.838390" lon="2.809747">
        <ele>14.80</ele>
        <time>2018-01-02T15:39:51Z</time>
      </trkpt>
      <trkpt lat="41.838285" lon="2.809736">
        <ele>14.40</ele>
        <time>2018-01-02T15:39:55Z</time>
      </trkpt>
      <trkpt lat="41.838200" lon="2.809703">
        <ele>14.20</ele>
        <time>2018-01-02T15:39:58Z</time>
      </trkpt>
      <trkpt lat="41.838185" lon="2.809663">
        <ele>14.40</ele>
        <time>2018-01-02T15:39:59Z</time>
      </trkpt>
      <trkpt lat="41.838178" lon="2.809607">
        <ele>14.40</ele>
        <time>2018-01-02T15:40:00Z</time>
      </trkpt>
      <trkpt lat="41.838182" lon="2.809455">
        <ele>14.40</ele>
        <time>2018-01-02T15:40:03Z</time>
      </trkpt>
      <trkpt lat="41.838189" lon="2.809416">
        <ele>14.60</ele>
        <time>2018-01-02T15:40:04Z</time>
      </trkpt>
      <trkpt lat="41.838190" lon="2.809345">
        <ele>14.80</ele>
        <time>2018-01-02T15:40:17Z</time>
      </trkpt>
      <trkpt lat="41.838180" lon="2.809330">
        <ele>14.80</ele>
        <time>2018-01-02T15:40:18Z</time>
      </trkpt>
      <trkpt lat="41.838171" lon="2.809312">
        <ele>14.80</ele>
        <time>2018-01-02T15:40:19Z</time>
      </trkpt>
      <trkpt lat="41.838158" lon="2.809239">
        <ele>15.00</ele>
        <time>2018-01-02T15:40:22Z</time>
      </trkpt>
      <trkpt lat="41.838129" lon="2.809098">
        <ele>15.20</ele>
        <time>2018-01-02T15:40:27Z</time>
      </trkpt>
      <trkpt lat="41.838104" lon="2.808850">
        <ele>15.80</ele>
        <time>2018-01-02T15:40:33Z</time>
      </trkpt>
      <trkpt lat="41.838099" lon="2.808783">
        <ele>15.80</ele>
        <time>2018-01-02T15:40:35Z</time>
      </trkpt>
      <trkpt lat="41.838143" lon="2.808785">
        <ele>16.00</ele>
        <time>2018-01-02T15:42:29Z</time>
      </trkpt>
      <trkpt lat="41.838113" lon="2.808780">
        <ele>16.00</ele>
        <time>2018-01-02T15:42:31Z</time>
      </trkpt>
      <trkpt lat="41.838088" lon="2.808652">
        <ele>15.40</ele>
        <time>2018-01-02T15:42:36Z</time>
      </trkpt>
      <trkpt lat="41.838082" lon="2.808565">
        <ele>14.80</ele>
        <time>2018-01-02T15:42:38Z</time>
      </trkpt>
      <trkpt lat="41.838062" lon="2.808432">
        <ele>14.20</ele>
        <time>2018-01-02T15:42:41Z</time>
      </trkpt>
      <trkpt lat="41.838037" lon="2.808304">
        <ele>13.40</ele>
        <time>2018-01-02T15:42:44Z</time>
      </trkpt>
      <trkpt lat="41.838007" lon="2.808235">
        <ele>13.00</ele>
        <time>2018-01-02T15:42:46Z</time>
      </trkpt>
      <trkpt lat="41.837989" lon="2.808225">
        <ele>13.00</ele>
        <time>2018-01-02T15:42:47Z</time>
      </trkpt>
      <trkpt lat="41.837711" lon="2.808210">
        <ele>11.80</ele>
        <time>2018-01-02T15:42:54Z</time>
      </trkpt>
      <trkpt lat="41.837661" lon="2.808210">
        <ele>11.80</ele>
        <time>2018-01-02T15:42:55Z</time>
      </trkpt>
      <trkpt lat="41.837411" lon="2.808218">
        <ele>11.60</ele>
        <time>2018-01-02T15:43:00Z</time>
      </trkpt>
      <trkpt lat="41.837278" lon="2.808202">
        <ele>11.40</ele>
        <time>2018-01-02T15:43:03Z</time>
      </trkpt>
      <trkpt lat="41.837195" lon="2.808187">
        <ele>11.40</ele>
        <time>2018-01-02T15:43:05Z</time>
      </trkpt>
      <trkpt lat="41.837083" lon="2.808094">
        <ele>11.40</ele>
        <time>2018-01-02T15:43:08Z</time>
      </trkpt>
      <trkpt lat="41.837060" lon="2.807979">
        <ele>11.40</ele>
        <time>2018-01-02T15:43:10Z</time>
      </trkpt>
      <trkpt lat="41.837142" lon="2.807639">
        <ele>11.00</ele>
        <time>2018-01-02T15:43:16Z</time>
      </trkpt>
      <trkpt lat="41.837159" lon="2.807583">
        <ele>11.00</ele>
        <time>2018-01-02T15:43:17Z</time>
      </trkpt>
      <trkpt lat="41.837241" lon="2.807257">
        <ele>11.00</ele>
        <time>2018-01-02T15:43:23Z</time>
      </trkpt>
      <trkpt lat="41.837356" lon="2.806838">
        <ele>11.20</ele>
        <time>2018-01-02T15:43:31Z</time>
      </trkpt>
      <trkpt lat="41.837416" lon="2.806635">
        <ele>11.40</ele>
        <time>2018-01-02T15:43:36Z</time>
      </trkpt>
      <trkpt lat="41.837431" lon="2.806574">
        <ele>11.40</ele>
        <time>2018-01-02T15:43:38Z</time>
      </trkpt>
      <trkpt lat="41.837457" lon="2.806488">
        <ele>11.40</ele>
        <time>2018-01-02T15:43:41Z</time>
      </trkpt>
      <trkpt lat="41.837471" lon="2.806429">
        <ele>11.60</ele>
        <time>2018-01-02T15:43:43Z</time>
      </trkpt>
      <trkpt lat="41.837463" lon="2.806353">
        <ele>11.60</ele>
        <time>2018-01-02T15:43:45Z</time>
      </trkpt>
      <trkpt lat="41.837445" lon="2.806319">
        <ele>11.60</ele>
        <time>2018-01-02T15:43:46Z</time>
      </trkpt>
      <trkpt lat="41.837232" lon="2.806189">
        <ele>11.40</ele>
        <time>2018-01-02T15:43:52Z</time>
      </trkpt>
      <trkpt lat="41.837118" lon="2.806153">
        <ele>11.40</ele>
        <time>2018-01-02T15:43:55Z</time>
      </trkpt>
      <trkpt lat="41.837076" lon="2.806143">
        <ele>11.20</ele>
        <time>2018-01-02T15:43:56Z</time>
      </trkpt>
      <trkpt lat="41.837035" lon="2.806121">
        <ele>11.00</ele>
        <time>2018-01-02T15:43:57Z</time>
      </trkpt>
      <trkpt lat="41.836832" lon="2.806077">
        <ele>10.40</ele>
        <time>2018-01-02T15:44:01Z</time>
      </trkpt>
      <trkpt lat="41.836731" lon="2.806123">
        <ele>10.40</ele>
        <time>2018-01-02T15:44:03Z</time>
      </trkpt>
      <trkpt lat="41.836609" lon="2.806284">
        <ele>10.60</ele>
        <time>2018-01-02T15:44:06Z</time>
      </trkpt>
      <trkpt lat="41.836525" lon="2.806406">
        <ele>10.80</ele>
        <time>2018-01-02T15:44:08Z</time>
      </trkpt>
      <trkpt lat="41.836348" lon="2.806668">
        <ele>11.40</ele>
        <time>2018-01-02T15:44:12Z</time>
      </trkpt>
      <trkpt lat="41.836162" lon="2.806942">
        <ele>11.80</ele>
        <time>2018-01-02T15:44:16Z</time>
      </trkpt>
      <trkpt lat="41.836026" lon="2.807143">
        <ele>12.20</ele>
        <time>2018-01-02T15:44:19Z</time>
      </trkpt>
      <trkpt lat="41.835889" lon="2.807310">
        <ele>12.80</ele>
        <time>2018-01-02T15:44:22Z</time>
      </trkpt>
      <trkpt lat="41.835793" lon="2.807318">
        <ele>13.00</ele>
        <time>2018-01-02T15:44:24Z</time>
      </trkpt>
      <trkpt lat="41.835680" lon="2.807141">
        <ele>13.00</ele>
        <time>2018-01-02T15:44:27Z</time>
      </trkpt>
      <trkpt lat="41.835604" lon="2.806992">
        <ele>13.20</ele>
        <time>2018-01-02T15:44:29Z</time>
      </trkpt>
      <trkpt lat="41.835490" lon="2.806783">
        <ele>14.00</ele>
        <time>2018-01-02T15:44:32Z</time>
      </trkpt>
      <trkpt lat="41.835451" lon="2.806724">
        <ele>14.60</ele>
        <time>2018-01-02T15:44:33Z</time>
      </trkpt>
      <trkpt lat="41.835406" lon="2.806673">
        <ele>15.00</ele>
        <time>2018-01-02T15:44:34Z</time>
      </trkpt>
      <trkpt lat="41.835287" lon="2.806565">
        <ele>16.40</ele>
        <time>2018-01-02T15:44:36Z</time>
      </trkpt>
      <trkpt lat="41.835140" lon="2.806418">
        <ele>17.80</ele>
        <time>2018-01-02T15:44:38Z</time>
      </trkpt>
      <trkpt lat="41.834981" lon="2.806273">
        <ele>19.20</ele>
        <time>2018-01-02T15:44:40Z</time>
      </trkpt>
      <trkpt lat="41.834901" lon="2.806195">
        <ele>20.00</ele>
        <time>2018-01-02T15:44:41Z</time>
      </trkpt>
      <trkpt lat="41.834823" lon="2.806115">
        <ele>20.80</ele>
        <time>2018-01-02T15:44:42Z</time>
      </trkpt>
      <trkpt lat="41.834748" lon="2.806036">
        <ele>21.80</ele>
        <time>2018-01-02T15:44:43Z</time>
      </trkpt>
      <trkpt lat="41.834673" lon="2.805961">
        <ele>22.20</ele>
        <time>2018-01-02T15:44:44Z</time>
      </trkpt>
      <trkpt lat="41.834594" lon="2.805896">
        <ele>22.60</ele>
        <time>2018-01-02T15:44:45Z</time>
      </trkpt>
      <trkpt lat="41.834446" lon="2.805764">
        <ele>23.60</ele>
        <time>2018-01-02T15:44:47Z</time>
      </trkpt>
      <trkpt lat="41.834307" lon="2.805632">
        <ele>24.80</ele>
        <time>2018-01-02T15:44:49Z</time>
      </trkpt>
      <trkpt lat="41.834233" lon="2.805570">
        <ele>25.40</ele>
        <time>2018-01-02T15:44:50Z</time>
      </trkpt>
      <trkpt lat="41.834074" lon="2.805452">
        <ele>26.20</ele>
        <time>2018-01-02T15:44:52Z</time>
      </trkpt>
      <trkpt lat="41.833986" lon="2.805403">
        <ele>27.80</ele>
        <time>2018-01-02T15:44:53Z</time>
      </trkpt>
      <trkpt lat="41.833799" lon="2.805315">
        <ele>29.40</ele>
        <time>2018-01-02T15:44:55Z</time>
      </trkpt>
      <trkpt lat="41.833624" lon="2.805232">
        <ele>31.00</ele>
        <time>2018-01-02T15:44:57Z</time>
      </trkpt>
      <trkpt lat="41.833458" lon="2.805157">
        <ele>32.20</ele>
        <time>2018-01-02T15:44:59Z</time>
      </trkpt>
      <trkpt lat="41.833380" lon="2.805123">
        <ele>32.60</ele>
        <time>2018-01-02T15:45:00Z</time>
      </trkpt>
      <trkpt lat="41.833243" lon="2.805055">
        <ele>33.40</ele>
        <time>2018-01-02T15:45:02Z</time>
      </trkpt>
      <trkpt lat="41.833059" lon="2.804965">
        <ele>34.20</ele>
        <time>2018-01-02T15:45:05Z</time>
      </trkpt>
      <trkpt lat="41.832888" lon="2.804891">
        <ele>34.80</ele>
        <time>2018-01-02T15:45:08Z</time>
      </trkpt>
      <trkpt lat="41.832832" lon="2.804870">
        <ele>34.80</ele>
        <time>2018-01-02T15:45:09Z</time>
      </trkpt>
      <trkpt lat="41.832777" lon="2.804854">
        <ele>35.00</ele>
        <time>2018-01-02T15:45:10Z</time>
      </trkpt>
      <trkpt lat="41.832668" lon="2.804856">
        <ele>35.40</ele>
        <time>2018-01-02T15:45:12Z</time>
      </trkpt>
      <trkpt lat="41.832476" lon="2.804967">
        <ele>35.80</ele>
        <time>2018-01-02T15:45:16Z</time>
      </trkpt>
      <trkpt lat="41.832347" lon="2.805047">
        <ele>36.00</ele>
        <time>2018-01-02T15:45:19Z</time>
      </trkpt>
      <trkpt lat="41.832264" lon="2.805087">
        <ele>36.00</ele>
        <time>2018-01-02T15:45:21Z</time>
      </trkpt>
      <trkpt lat="41.832226" lon="2.805100">
        <ele>35.80</ele>
        <time>2018-01-02T15:45:22Z</time>
      </trkpt>
      <trkpt lat="41.832051" lon="2.805071">
        <ele>35.40</ele>
        <time>2018-01-02T15:45:27Z</time>
      </trkpt>
      <trkpt lat="41.831809" lon="2.804988">
        <ele>34.80</ele>
        <time>2018-01-02T15:45:33Z</time>
      </trkpt>
      <trkpt lat="41.831688" lon="2.804936">
        <ele>34.60</ele>
        <time>2018-01-02T15:45:36Z</time>
      </trkpt>
      <trkpt lat="41.831579" lon="2.804879">
        <ele>34.40</ele>
        <time>2018-01-02T15:45:39Z</time>
      </trkpt>
      <trkpt lat="41.831436" lon="2.804803">
        <ele>33.80</ele>
        <time>2018-01-02T15:45:43Z</time>
      </trkpt>
      <trkpt lat="41.831291" lon="2.804731">
        <ele>33.20</ele>
        <time>2018-01-02T15:45:47Z</time>
      </trkpt>
      <trkpt lat="41.831178" lon="2.804675">
        <ele>32.60</ele>
        <time>2018-01-02T15:45:50Z</time>
      </trkpt>
      <trkpt lat="41.831053" lon="2.804625">
        <ele>32.00</ele>
        <time>2018-01-02T15:45:53Z</time>
      </trkpt>
      <trkpt lat="41.831007" lon="2.804612">
        <ele>31.80</ele>
        <time>2018-01-02T15:45:54Z</time>
      </trkpt>
      <trkpt lat="41.830912" lon="2.804575">
        <ele>31.40</ele>
        <time>2018-01-02T15:45:56Z</time>
      </trkpt>
      <trkpt lat="41.830657" lon="2.804468">
        <ele>30.40</ele>
        <time>2018-01-02T15:46:01Z</time>
      </trkpt>
      <trkpt lat="41.830440" lon="2.804364">
        <ele>30.20</ele>
        <time>2018-01-02T15:46:05Z</time>
      </trkpt>
      <trkpt lat="41.830268" lon="2.804279">
        <ele>30.40</ele>
        <time>2018-01-02T15:46:08Z</time>
      </trkpt>
      <trkpt lat="41.830033" lon="2.804167">
        <ele>30.60</ele>
        <time>2018-01-02T15:46:12Z</time>
      </trkpt>
      <trkpt lat="41.829860" lon="2.804089">
        <ele>31.40</ele>
        <time>2018-01-02T15:46:15Z</time>
      </trkpt>
      <trkpt lat="41.829805" lon="2.804062">
        <ele>31.60</ele>
        <time>2018-01-02T15:46:16Z</time>
      </trkpt>
      <trkpt lat="41.829695" lon="2.804011">
        <ele>31.60</ele>
        <time>2018-01-02T15:46:18Z</time>
      </trkpt>
      <trkpt lat="41.829550" lon="2.803924">
        <ele>31.60</ele>
        <time>2018-01-02T15:46:21Z</time>
      </trkpt>
      <trkpt lat="41.829505" lon="2.803891">
        <ele>31.60</ele>
        <time>2018-01-02T15:46:22Z</time>
      </trkpt>
      <trkpt lat="41.829218" lon="2.803563">
        <ele>32.60</ele>
        <time>2018-01-02T15:46:29Z</time>
      </trkpt>
      <trkpt lat="41.829143" lon="2.803469">
        <ele>32.60</ele>
        <time>2018-01-02T15:46:31Z</time>
      </trkpt>
      <trkpt lat="41.829070" lon="2.803375">
        <ele>32.60</ele>
        <time>2018-01-02T15:46:33Z</time>
      </trkpt>
      <trkpt lat="41.828998" lon="2.803283">
        <ele>32.60</ele>
        <time>2018-01-02T15:46:35Z</time>
      </trkpt>
      <trkpt lat="41.828960" lon="2.803239">
        <ele>32.60</ele>
        <time>2018-01-02T15:46:36Z</time>
      </trkpt>
      <trkpt lat="41.828782" lon="2.803007">
        <ele>32.60</ele>
        <time>2018-01-02T15:46:41Z</time>
      </trkpt>
      <trkpt lat="41.828750" lon="2.802964">
        <ele>32.60</ele>
        <time>2018-01-02T15:46:42Z</time>
      </trkpt>
      <trkpt lat="41.828617" lon="2.802775">
        <ele>32.80</ele>
        <time>2018-01-02T15:46:47Z</time>
      </trkpt>
      <trkpt lat="41.828563" lon="2.802711">
        <ele>32.60</ele>
        <time>2018-01-02T15:46:49Z</time>
      </trkpt>
      <trkpt lat="41.828446" lon="2.802555">
        <ele>32.40</ele>
        <time>2018-01-02T15:46:54Z</time>
      </trkpt>
      <trkpt lat="41.828422" lon="2.802526">
        <ele>32.20</ele>
        <time>2018-01-02T15:46:55Z</time>
      </trkpt>
      <trkpt lat="41.828284" lon="2.802335">
        <ele>31.20</ele>
        <time>2018-01-02T15:47:01Z</time>
      </trkpt>
      <trkpt lat="41.828260" lon="2.802303">
        <ele>31.00</ele>
        <time>2018-01-02T15:47:02Z</time>
      </trkpt>
      <trkpt lat="41.828172" lon="2.802193">
        <ele>30.00</ele>
        <time>2018-01-02T15:47:06Z</time>
      </trkpt>
      <trkpt lat="41.828076" lon="2.802082">
        <ele>29.20</ele>
        <time>2018-01-02T15:47:10Z</time>
      </trkpt>
      <trkpt lat="41.828052" lon="2.802054">
        <ele>29.00</ele>
        <time>2018-01-02T15:47:11Z</time>
      </trkpt>
      <trkpt lat="41.827933" lon="2.801920">
        <ele>28.00</ele>
        <time>2018-01-02T15:47:16Z</time>
      </trkpt>
      <trkpt lat="41.827908" lon="2.801894">
        <ele>27.40</ele>
        <time>2018-01-02T15:47:17Z</time>
      </trkpt>
      <trkpt lat="41.827783" lon="2.801752">
        <ele>26.60</ele>
        <time>2018-01-02T15:47:23Z</time>
      </trkpt>
      <trkpt lat="41.827659" lon="2.801579">
        <ele>25.40</ele>
        <time>2018-01-02T15:47:29Z</time>
      </trkpt>
      <trkpt lat="41.827537" lon="2.801471">
        <ele>24.40</ele>
        <time>2018-01-02T15:47:34Z</time>
      </trkpt>
      <trkpt lat="41.827516" lon="2.801448">
        <ele>24.00</ele>
        <time>2018-01-02T15:47:35Z</time>
      </trkpt>
      <trkpt lat="41.827427" lon="2.801351">
        <ele>23.20</ele>
        <time>2018-01-02T15:47:39Z</time>
      </trkpt>
      <trkpt lat="41.827355" lon="2.801279">
        <ele>22.40</ele>
        <time>2018-01-02T15:47:42Z</time>
      </trkpt>
      <trkpt lat="41.827331" lon="2.801254">
        <ele>22.20</ele>
        <time>2018-01-02T15:47:43Z</time>
      </trkpt>
      <trkpt lat="41.827257" lon="2.801156">
        <ele>21.20</ele>
        <time>2018-01-02T15:47:47Z</time>
      </trkpt>
      <trkpt lat="41.827241" lon="2.801129">
        <ele>21.00</ele>
        <time>2018-01-02T15:47:48Z</time>
      </trkpt>
      <trkpt lat="41.827155" lon="2.801035">
        <ele>19.80</ele>
        <time>2018-01-02T15:47:52Z</time>
      </trkpt>
      <trkpt lat="41.827102" lon="2.800989">
        <ele>19.40</ele>
        <time>2018-01-02T15:47:54Z</time>
      </trkpt>
      <trkpt lat="41.827054" lon="2.800940">
        <ele>18.80</ele>
        <time>2018-01-02T15:47:56Z</time>
      </trkpt>
      <trkpt lat="41.827032" lon="2.800915">
        <ele>18.40</ele>
        <time>2018-01-02T15:47:57Z</time>
      </trkpt>
      <trkpt lat="41.826961" lon="2.800839">
        <ele>17.60</ele>
        <time>2018-01-02T15:48:00Z</time>
      </trkpt>
      <trkpt lat="41.826939" lon="2.800809">
        <ele>17.20</ele>
        <time>2018-01-02T15:48:01Z</time>
      </trkpt>
      <trkpt lat="41.826896" lon="2.800742">
        <ele>16.60</ele>
        <time>2018-01-02T15:48:03Z</time>
      </trkpt>
      <trkpt lat="41.826847" lon="2.800680">
        <ele>15.40</ele>
        <time>2018-01-02T15:48:05Z</time>
      </trkpt>
      <trkpt lat="41.826793" lon="2.800615">
        <ele>14.60</ele>
        <time>2018-01-02T15:48:07Z</time>
      </trkpt>
      <trkpt lat="41.826727" lon="2.800542">
        <ele>14.00</ele>
        <time>2018-01-02T15:48:09Z</time>
      </trkpt>
      <trkpt lat="41.826593" lon="2.800404">
        <ele>13.00</ele>
        <time>2018-01-02T15:48:12Z</time>
      </trkpt>
      <trkpt lat="41.826230" lon="2.800054">
        <ele>12.40</ele>
        <time>2018-01-02T15:48:18Z</time>
      </trkpt>
      <trkpt lat="41.826084" lon="2.799944">
        <ele>12.00</ele>
        <time>2018-01-02T15:48:20Z</time>
      </trkpt>
      <trkpt lat="41.825876" lon="2.799757">
        <ele>12.60</ele>
        <time>2018-01-02T15:48:23Z</time>
      </trkpt>
      <trkpt lat="41.825814" lon="2.799688">
        <ele>12.80</ele>
        <time>2018-01-02T15:48:24Z</time>
      </trkpt>
      <trkpt lat="41.825549" lon="2.799316">
        <ele>14.00</ele>
        <time>2018-01-02T15:48:29Z</time>
      </trkpt>
      <trkpt lat="41.825273" lon="2.798917">
        <ele>15.20</ele>
        <time>2018-01-02T15:48:34Z</time>
      </trkpt>
      <trkpt lat="41.825202" lon="2.798843">
        <ele>15.60</ele>
        <time>2018-01-02T15:48:35Z</time>
      </trkpt>
      <trkpt lat="41.825122" lon="2.798770">
        <ele>16.40</ele>
        <time>2018-01-02T15:48:36Z</time>
      </trkpt>
      <trkpt lat="41.824991" lon="2.798657">
        <ele>17.80</ele>
        <time>2018-01-02T15:48:38Z</time>
      </trkpt>
      <trkpt lat="41.824944" lon="2.798611">
        <ele>18.40</ele>
        <time>2018-01-02T15:48:39Z</time>
      </trkpt>
      <trkpt lat="41.824903" lon="2.798572">
        <ele>19.00</ele>
        <time>2018-01-02T15:48:40Z</time>
      </trkpt>
      <trkpt lat="41.824790" lon="2.798485">
        <ele>20.00</ele>
        <time>2018-01-02T15:48:43Z</time>
      </trkpt>
      <trkpt lat="41.824675" lon="2.798479">
        <ele>20.20</ele>
        <time>2018-01-02T15:48:47Z</time>
      </trkpt>
      <trkpt lat="41.824632" lon="2.798474">
        <ele>19.80</ele>
        <time>2018-01-02T15:48:49Z</time>
      </trkpt>
      <trkpt lat="41.824585" lon="2.798479">
        <ele>19.20</ele>
        <time>2018-01-02T15:48:51Z</time>
      </trkpt>
      <trkpt lat="41.824542" lon="2.798483">
        <ele>18.00</ele>
        <time>2018-01-02T15:48:53Z</time>
      </trkpt>
      <trkpt lat="41.824469" lon="2.798487">
        <ele>17.00</ele>
        <time>2018-01-02T15:48:56Z</time>
      </trkpt>
      <trkpt lat="41.824386" lon="2.798507">
        <ele>15.80</ele>
        <time>2018-01-02T15:48:59Z</time>
      </trkpt>
      <trkpt lat="41.824331" lon="2.798517">
        <ele>15.20</ele>
        <time>2018-01-02T15:49:01Z</time>
      </trkpt>
      <trkpt lat="41.824295" lon="2.798521">
        <ele>14.80</ele>
        <time>2018-01-02T15:49:02Z</time>
      </trkpt>
      <trkpt lat="41.824174" lon="2.798535">
        <ele>13.80</ele>
        <time>2018-01-02T15:49:05Z</time>
      </trkpt>
      <trkpt lat="41.824122" lon="2.798537">
        <ele>13.40</ele>
        <time>2018-01-02T15:49:06Z</time>
      </trkpt>
      <trkpt lat="41.823819" lon="2.798545">
        <ele>12.40</ele>
        <time>2018-01-02T15:49:11Z</time>
      </trkpt>
      <trkpt lat="41.823752" lon="2.798547">
        <ele>12.20</ele>
        <time>2018-01-02T15:49:12Z</time>
      </trkpt>
      <trkpt lat="41.823683" lon="2.798551">
        <ele>12.20</ele>
        <time>2018-01-02T15:49:13Z</time>
      </trkpt>
      <trkpt lat="41.823540" lon="2.798563">
        <ele>12.00</ele>
        <time>2018-01-02T15:49:15Z</time>
      </trkpt>
      <trkpt lat="41.823336" lon="2.798615">
        <ele>12.20</ele>
        <time>2018-01-02T15:49:18Z</time>
      </trkpt>
      <trkpt lat="41.823271" lon="2.798637">
        <ele>12.20</ele>
        <time>2018-01-02T15:49:19Z</time>
      </trkpt>
      <trkpt lat="41.823159" lon="2.798615">
        <ele>11.80</ele>
        <time>2018-01-02T15:49:21Z</time>
      </trkpt>
      <trkpt lat="41.823072" lon="2.798525">
        <ele>11.40</ele>
        <time>2018-01-02T15:49:23Z</time>
      </trkpt>
      <trkpt lat="41.822984" lon="2.798383">
        <ele>11.00</ele>
        <time>2018-01-02T15:49:25Z</time>
      </trkpt>
      <trkpt lat="41.822933" lon="2.798295">
        <ele>10.80</ele>
        <time>2018-01-02T15:49:26Z</time>
      </trkpt>
      <trkpt lat="41.822750" lon="2.797997">
        <ele>11.20</ele>
        <time>2018-01-02T15:49:29Z</time>
      </trkpt>
      <trkpt lat="41.822682" lon="2.797889">
        <ele>12.00</ele>
        <time>2018-01-02T15:49:30Z</time>
      </trkpt>
      <trkpt lat="41.822614" lon="2.797790">
        <ele>13.00</ele>
        <time>2018-01-02T15:49:31Z</time>
      </trkpt>
      <trkpt lat="41.822536" lon="2.797694">
        <ele>14.60</ele>
        <time>2018-01-02T15:49:32Z</time>
      </trkpt>
      <trkpt lat="41.822454" lon="2.797606">
        <ele>16.00</ele>
        <time>2018-01-02T15:49:33Z</time>
      </trkpt>
      <trkpt lat="41.822327" lon="2.797458">
        <ele>18.00</ele>
        <time>2018-01-02T15:49:35Z</time>
      </trkpt>
      <trkpt lat="41.822248" lon="2.797354">
        <ele>19.00</ele>
        <time>2018-01-02T15:49:37Z</time>
      </trkpt>
      <trkpt lat="41.822168" lon="2.797277">
        <ele>19.20</ele>
        <time>2018-01-02T15:49:39Z</time>
      </trkpt>
      <trkpt lat="41.822024" lon="2.797229">
        <ele>19.60</ele>
        <time>2018-01-02T15:49:42Z</time>
      </trkpt>
      <trkpt lat="41.821881" lon="2.797195">
        <ele>19.80</ele>
        <time>2018-01-02T15:49:45Z</time>
      </trkpt>
      <trkpt lat="41.821748" lon="2.797125">
        <ele>20.00</ele>
        <time>2018-01-02T15:49:48Z</time>
      </trkpt>
      <trkpt lat="41.821434" lon="2.796907">
        <ele>19.60</ele>
        <time>2018-01-02T15:49:56Z</time>
      </trkpt>
      <trkpt lat="41.821319" lon="2.796834">
        <ele>19.40</ele>
        <time>2018-01-02T15:49:59Z</time>
      </trkpt>
      <trkpt lat="41.821280" lon="2.796815">
        <ele>19.20</ele>
        <time>2018-01-02T15:50:00Z</time>
      </trkpt>
      <trkpt lat="41.821203" lon="2.796786">
        <ele>19.00</ele>
        <time>2018-01-02T15:50:02Z</time>
      </trkpt>
      <trkpt lat="41.821096" lon="2.796737">
        <ele>18.40</ele>
        <time>2018-01-02T15:50:05Z</time>
      </trkpt>
      <trkpt lat="41.820956" lon="2.796613">
        <ele>17.20</ele>
        <time>2018-01-02T15:50:09Z</time>
      </trkpt>
      <trkpt lat="41.820889" lon="2.796543">
        <ele>17.00</ele>
        <time>2018-01-02T15:50:11Z</time>
      </trkpt>
      <trkpt lat="41.820856" lon="2.796506">
        <ele>16.80</ele>
        <time>2018-01-02T15:50:12Z</time>
      </trkpt>
      <trkpt lat="41.820818" lon="2.796478">
        <ele>16.60</ele>
        <time>2018-01-02T15:50:13Z</time>
      </trkpt>
      <trkpt lat="41.820666" lon="2.796391">
        <ele>15.80</ele>
        <time>2018-01-02T15:50:17Z</time>
      </trkpt>
      <trkpt lat="41.820586" lon="2.796350">
        <ele>15.60</ele>
        <time>2018-01-02T15:50:19Z</time>
      </trkpt>
      <trkpt lat="41.820544" lon="2.796334">
        <ele>15.40</ele>
        <time>2018-01-02T15:50:20Z</time>
      </trkpt>
      <trkpt lat="41.820362" lon="2.796277">
        <ele>14.60</ele>
        <time>2018-01-02T15:50:24Z</time>
      </trkpt>
      <trkpt lat="41.820312" lon="2.796266">
        <ele>14.60</ele>
        <time>2018-01-02T15:50:25Z</time>
      </trkpt>
      <trkpt lat="41.819946" lon="2.796193">
        <ele>13.40</ele>
        <time>2018-01-02T15:50:32Z</time>
      </trkpt>
      <trkpt lat="41.819894" lon="2.796184">
        <ele>13.20</ele>
        <time>2018-01-02T15:50:33Z</time>
      </trkpt>
      <trkpt lat="41.819493" lon="2.796123">
        <ele>12.40</ele>
        <time>2018-01-02T15:50:40Z</time>
      </trkpt>
      <trkpt lat="41.819376" lon="2.796112">
        <ele>12.40</ele>
        <time>2018-01-02T15:50:42Z</time>
      </trkpt>
      <trkpt lat="41.819198" lon="2.796096">
        <ele>12.00</ele>
        <time>2018-01-02T15:50:45Z</time>
      </trkpt>
      <trkpt lat="41.819072" lon="2.796071">
        <ele>11.60</ele>
        <time>2018-01-02T15:50:47Z</time>
      </trkpt>
      <trkpt lat="41.818939" lon="2.796060">
        <ele>11.20</ele>
        <time>2018-01-02T15:50:49Z</time>
      </trkpt>
      <trkpt lat="41.818807" lon="2.796028">
        <ele>11.20</ele>
        <time>2018-01-02T15:50:51Z</time>
      </trkpt>
      <trkpt lat="41.818544" lon="2.795840">
        <ele>11.40</ele>
        <time>2018-01-02T15:50:55Z</time>
      </trkpt>
      <trkpt lat="41.818475" lon="2.795793">
        <ele>11.80</ele>
        <time>2018-01-02T15:50:56Z</time>
      </trkpt>
      <trkpt lat="41.818258" lon="2.795675">
        <ele>12.20</ele>
        <time>2018-01-02T15:50:59Z</time>
      </trkpt>
      <trkpt lat="41.818120" lon="2.795575">
        <ele>12.60</ele>
        <time>2018-01-02T15:51:01Z</time>
      </trkpt>
      <trkpt lat="41.817973" lon="2.795492">
        <ele>13.60</ele>
        <time>2018-01-02T15:51:03Z</time>
      </trkpt>
      <trkpt lat="41.817895" lon="2.795500">
        <ele>14.00</ele>
        <time>2018-01-02T15:51:04Z</time>
      </trkpt>
      <trkpt lat="41.817681" lon="2.795637">
        <ele>14.60</ele>
        <time>2018-01-02T15:51:07Z</time>
      </trkpt>
      <trkpt lat="41.817570" lon="2.795623">
        <ele>15.00</ele>
        <time>2018-01-02T15:51:09Z</time>
      </trkpt>
      <trkpt lat="41.817519" lon="2.795573">
        <ele>15.40</ele>
        <time>2018-01-02T15:51:10Z</time>
      </trkpt>
      <trkpt lat="41.817472" lon="2.795503">
        <ele>16.00</ele>
        <time>2018-01-02T15:51:11Z</time>
      </trkpt>
      <trkpt lat="41.817339" lon="2.795288">
        <ele>17.60</ele>
        <time>2018-01-02T15:51:13Z</time>
      </trkpt>
      <trkpt lat="41.817187" lon="2.795088">
        <ele>19.00</ele>
        <time>2018-01-02T15:51:15Z</time>
      </trkpt>
      <trkpt lat="41.817058" lon="2.794868">
        <ele>21.00</ele>
        <time>2018-01-02T15:51:17Z</time>
      </trkpt>
      <trkpt lat="41.816957" lon="2.794611">
        <ele>23.60</ele>
        <time>2018-01-02T15:51:19Z</time>
      </trkpt>
      <trkpt lat="41.816857" lon="2.794354">
        <ele>25.20</ele>
        <time>2018-01-02T15:51:21Z</time>
      </trkpt>
      <trkpt lat="41.816747" lon="2.794105">
        <ele>27.20</ele>
        <time>2018-01-02T15:51:23Z</time>
      </trkpt>
      <trkpt lat="41.816635" lon="2.793873">
        <ele>29.40</ele>
        <time>2018-01-02T15:51:25Z</time>
      </trkpt>
      <trkpt lat="41.816588" lon="2.793753">
        <ele>29.80</ele>
        <time>2018-01-02T15:51:26Z</time>
      </trkpt>
      <trkpt lat="41.816500" lon="2.793527">
        <ele>30.80</ele>
        <time>2018-01-02T15:51:28Z</time>
      </trkpt>
      <trkpt lat="41.816364" lon="2.793330">
        <ele>32.00</ele>
        <time>2018-01-02T15:51:30Z</time>
      </trkpt>
      <trkpt lat="41.816231" lon="2.793167">
        <ele>33.00</ele>
        <time>2018-01-02T15:51:32Z</time>
      </trkpt>
      <trkpt lat="41.816168" lon="2.793093">
        <ele>33.20</ele>
        <time>2018-01-02T15:51:33Z</time>
      </trkpt>
      <trkpt lat="41.816080" lon="2.793047">
        <ele>33.60</ele>
        <time>2018-01-02T15:51:34Z</time>
      </trkpt>
      <trkpt lat="41.815988" lon="2.792999">
        <ele>34.20</ele>
        <time>2018-01-02T15:51:35Z</time>
      </trkpt>
      <trkpt lat="41.815904" lon="2.792964">
        <ele>34.40</ele>
        <time>2018-01-02T15:51:36Z</time>
      </trkpt>
      <trkpt lat="41.815820" lon="2.792961">
        <ele>34.80</ele>
        <time>2018-01-02T15:51:37Z</time>
      </trkpt>
      <trkpt lat="41.815637" lon="2.792967">
        <ele>35.20</ele>
        <time>2018-01-02T15:51:39Z</time>
      </trkpt>
      <trkpt lat="41.815543" lon="2.792947">
        <ele>35.60</ele>
        <time>2018-01-02T15:51:40Z</time>
      </trkpt>
      <trkpt lat="41.815450" lon="2.792898">
        <ele>35.80</ele>
        <time>2018-01-02T15:51:41Z</time>
      </trkpt>
      <trkpt lat="41.815158" lon="2.792816">
        <ele>37.60</ele>
        <time>2018-01-02T15:51:44Z</time>
      </trkpt>
      <trkpt lat="41.814974" lon="2.792768">
        <ele>38.80</ele>
        <time>2018-01-02T15:51:46Z</time>
      </trkpt>
      <trkpt lat="41.814780" lon="2.792650">
        <ele>40.20</ele>
        <time>2018-01-02T15:51:48Z</time>
      </trkpt>
      <trkpt lat="41.814688" lon="2.792597">
        <ele>40.80</ele>
        <time>2018-01-02T15:51:49Z</time>
      </trkpt>
      <trkpt lat="41.814593" lon="2.792543">
        <ele>41.60</ele>
        <time>2018-01-02T15:51:50Z</time>
      </trkpt>
      <trkpt lat="41.814396" lon="2.792447">
        <ele>43.20</ele>
        <time>2018-01-02T15:51:52Z</time>
      </trkpt>
      <trkpt lat="41.814302" lon="2.792422">
        <ele>44.00</ele>
        <time>2018-01-02T15:51:53Z</time>
      </trkpt>
      <trkpt lat="41.814213" lon="2.792399">
        <ele>44.80</ele>
        <time>2018-01-02T15:51:54Z</time>
      </trkpt>
      <trkpt lat="41.814125" lon="2.792399">
        <ele>45.40</ele>
        <time>2018-01-02T15:51:55Z</time>
      </trkpt>
      <trkpt lat="41.813945" lon="2.792438">
        <ele>45.80</ele>
        <time>2018-01-02T15:51:57Z</time>
      </trkpt>
      <trkpt lat="41.813864" lon="2.792455">
        <ele>46.40</ele>
        <time>2018-01-02T15:51:58Z</time>
      </trkpt>
      <trkpt lat="41.813776" lon="2.792471">
        <ele>47.40</ele>
        <time>2018-01-02T15:51:59Z</time>
      </trkpt>
      <trkpt lat="41.813695" lon="2.792459">
        <ele>48.00</ele>
        <time>2018-01-02T15:52:00Z</time>
      </trkpt>
      <trkpt lat="41.813607" lon="2.792425">
        <ele>48.80</ele>
        <time>2018-01-02T15:52:01Z</time>
      </trkpt>
      <trkpt lat="41.813518" lon="2.792401">
        <ele>49.40</ele>
        <time>2018-01-02T15:52:02Z</time>
      </trkpt>
      <trkpt lat="41.813341" lon="2.792367">
        <ele>49.80</ele>
        <time>2018-01-02T15:52:04Z</time>
      </trkpt>
      <trkpt lat="41.813248" lon="2.792360">
        <ele>50.20</ele>
        <time>2018-01-02T15:52:05Z</time>
      </trkpt>
      <trkpt lat="41.813151" lon="2.792352">
        <ele>51.00</ele>
        <time>2018-01-02T15:52:06Z</time>
      </trkpt>
      <trkpt lat="41.812829" lon="2.792445">
        <ele>52.20</ele>
        <time>2018-01-02T15:52:10Z</time>
      </trkpt>
      <trkpt lat="41.812594" lon="2.792532">
        <ele>53.60</ele>
        <time>2018-01-02T15:52:13Z</time>
      </trkpt>
      <trkpt lat="41.812513" lon="2.792554">
        <ele>53.80</ele>
        <time>2018-01-02T15:52:14Z</time>
      </trkpt>
      <trkpt lat="41.812357" lon="2.792644">
        <ele>54.60</ele>
        <time>2018-01-02T15:52:16Z</time>
      </trkpt>
      <trkpt lat="41.812285" lon="2.792696">
        <ele>55.20</ele>
        <time>2018-01-02T15:52:17Z</time>
      </trkpt>
      <trkpt lat="41.812217" lon="2.792743">
        <ele>55.80</ele>
        <time>2018-01-02T15:52:18Z</time>
      </trkpt>
      <trkpt lat="41.812151" lon="2.792789">
        <ele>56.20</ele>
        <time>2018-01-02T15:52:19Z</time>
      </trkpt>
      <trkpt lat="41.811902" lon="2.792899">
        <ele>57.00</ele>
        <time>2018-01-02T15:52:23Z</time>
      </trkpt>
      <trkpt lat="41.811656" lon="2.792863">
        <ele>56.80</ele>
        <time>2018-01-02T15:52:27Z</time>
      </trkpt>
      <trkpt lat="41.811464" lon="2.792811">
        <ele>57.60</ele>
        <time>2018-01-02T15:52:30Z</time>
      </trkpt>
      <trkpt lat="41.811021" lon="2.792662">
        <ele>57.60</ele>
        <time>2018-01-02T15:52:37Z</time>
      </trkpt>
      <trkpt lat="41.810639" lon="2.792548">
        <ele>58.20</ele>
        <time>2018-01-02T15:52:43Z</time>
      </trkpt>
      <trkpt lat="41.810188" lon="2.792353">
        <ele>58.60</ele>
        <time>2018-01-02T15:52:51Z</time>
      </trkpt>
      <trkpt lat="41.810078" lon="2.792290">
        <ele>58.60</ele>
        <time>2018-01-02T15:52:53Z</time>
      </trkpt>
      <trkpt lat="41.809912" lon="2.792245">
        <ele>58.40</ele>
        <time>2018-01-02T15:52:56Z</time>
      </trkpt>
      <trkpt lat="41.809588" lon="2.792219">
        <ele>58.40</ele>
        <time>2018-01-02T15:53:02Z</time>
      </trkpt>
      <trkpt lat="41.809271" lon="2.792222">
        <ele>58.60</ele>
        <time>2018-01-02T15:53:08Z</time>
      </trkpt>
      <trkpt lat="41.808898" lon="2.792358">
        <ele>58.40</ele>
        <time>2018-01-02T15:53:15Z</time>
      </trkpt>
      <trkpt lat="41.808681" lon="2.792412">
        <ele>58.20</ele>
        <time>2018-01-02T15:53:19Z</time>
      </trkpt>
      <trkpt lat="41.808630" lon="2.792420">
        <ele>58.20</ele>
        <time>2018-01-02T15:53:20Z</time>
      </trkpt>
      <trkpt lat="41.808315" lon="2.792349">
        <ele>58.00</ele>
        <time>2018-01-02T15:53:26Z</time>
      </trkpt>
      <trkpt lat="41.808203" lon="2.792313">
        <ele>58.40</ele>
        <time>2018-01-02T15:53:28Z</time>
      </trkpt>
      <trkpt lat="41.808070" lon="2.792264">
        <ele>58.40</ele>
        <time>2018-01-02T15:53:31Z</time>
      </trkpt>
      <trkpt lat="41.807777" lon="2.792064">
        <ele>58.80</ele>
        <time>2018-01-02T15:53:38Z</time>
      </trkpt>
      <trkpt lat="41.807699" lon="2.792009">
        <ele>58.60</ele>
        <time>2018-01-02T15:53:40Z</time>
      </trkpt>
      <trkpt lat="41.807501" lon="2.791900">
        <ele>58.20</ele>
        <time>2018-01-02T15:53:45Z</time>
      </trkpt>
      <trkpt lat="41.807460" lon="2.791886">
        <ele>58.00</ele>
        <time>2018-01-02T15:53:46Z</time>
      </trkpt>
      <trkpt lat="41.807168" lon="2.791744">
        <ele>57.20</ele>
        <time>2018-01-02T15:53:53Z</time>
      </trkpt>
      <trkpt lat="41.806925" lon="2.791632">
        <ele>57.00</ele>
        <time>2018-01-02T15:53:59Z</time>
      </trkpt>
      <trkpt lat="41.806883" lon="2.791619">
        <ele>56.80</ele>
        <time>2018-01-02T15:54:00Z</time>
      </trkpt>
      <trkpt lat="41.806648" lon="2.791528">
        <ele>55.80</ele>
        <time>2018-01-02T15:54:07Z</time>
      </trkpt>
      <trkpt lat="41.806518" lon="2.791478">
        <ele>54.80</ele>
        <time>2018-01-02T15:54:11Z</time>
      </trkpt>
      <trkpt lat="41.806450" lon="2.791467">
        <ele>54.20</ele>
        <time>2018-01-02T15:54:13Z</time>
      </trkpt>
      <trkpt lat="41.806376" lon="2.791453">
        <ele>53.80</ele>
        <time>2018-01-02T15:54:15Z</time>
      </trkpt>
      <trkpt lat="41.806218" lon="2.791416">
        <ele>53.00</ele>
        <time>2018-01-02T15:54:19Z</time>
      </trkpt>
      <trkpt lat="41.805998" lon="2.791364">
        <ele>52.60</ele>
        <time>2018-01-02T15:54:24Z</time>
      </trkpt>
      <trkpt lat="41.805960" lon="2.791357">
        <ele>52.40</ele>
        <time>2018-01-02T15:54:25Z</time>
      </trkpt>
      <trkpt lat="41.805495" lon="2.791272">
        <ele>52.00</ele>
        <time>2018-01-02T15:54:35Z</time>
      </trkpt>
      <trkpt lat="41.805128" lon="2.791263">
        <ele>51.60</ele>
        <time>2018-01-02T15:54:43Z</time>
      </trkpt>
      <trkpt lat="41.805040" lon="2.791262">
        <ele>51.60</ele>
        <time>2018-01-02T15:54:45Z</time>
      </trkpt>
      <trkpt lat="41.804886" lon="2.791280">
        <ele>51.20</ele>
        <time>2018-01-02T15:54:49Z</time>
      </trkpt>
      <trkpt lat="41.804850" lon="2.791287">
        <ele>51.00</ele>
        <time>2018-01-02T15:54:50Z</time>
      </trkpt>
      <trkpt lat="41.804739" lon="2.791314">
        <ele>50.40</ele>
        <time>2018-01-02T15:54:53Z</time>
      </trkpt>
      <trkpt lat="41.804625" lon="2.791351">
        <ele>49.80</ele>
        <time>2018-01-02T15:54:56Z</time>
      </trkpt>
      <trkpt lat="41.804453" lon="2.791383">
        <ele>49.20</ele>
        <time>2018-01-02T15:55:00Z</time>
      </trkpt>
      <trkpt lat="41.804281" lon="2.791412">
        <ele>48.60</ele>
        <time>2018-01-02T15:55:04Z</time>
      </trkpt>
      <trkpt lat="41.804067" lon="2.791473">
        <ele>48.20</ele>
        <time>2018-01-02T15:55:09Z</time>
      </trkpt>
      <trkpt lat="41.803862" lon="2.791564">
        <ele>47.20</ele>
        <time>2018-01-02T15:55:14Z</time>
      </trkpt>
      <trkpt lat="41.803819" lon="2.791583">
        <ele>47.00</ele>
        <time>2018-01-02T15:55:15Z</time>
      </trkpt>
      <trkpt lat="41.803518" lon="2.791711">
        <ele>46.40</ele>
        <time>2018-01-02T15:55:22Z</time>
      </trkpt>
      <trkpt lat="41.803340" lon="2.791794">
        <ele>46.00</ele>
        <time>2018-01-02T15:55:26Z</time>
      </trkpt>
      <trkpt lat="41.803166" lon="2.791882">
        <ele>45.60</ele>
        <time>2018-01-02T15:55:30Z</time>
      </trkpt>
      <trkpt lat="41.802790" lon="2.792041">
        <ele>45.00</ele>
        <time>2018-01-02T15:55:38Z</time>
      </trkpt>
      <trkpt lat="41.802412" lon="2.792199">
        <ele>45.00</ele>
        <time>2018-01-02T15:55:46Z</time>
      </trkpt>
      <trkpt lat="41.802124" lon="2.792407">
        <ele>44.00</ele>
        <time>2018-01-02T15:55:53Z</time>
      </trkpt>
      <trkpt lat="41.802078" lon="2.792440">
        <ele>44.00</ele>
        <time>2018-01-02T15:55:54Z</time>
      </trkpt>
      <trkpt lat="41.801822" lon="2.792567">
        <ele>43.80</ele>
        <time>2018-01-02T15:55:59Z</time>
      </trkpt>
      <trkpt lat="41.801416" lon="2.792565">
        <ele>43.40</ele>
        <time>2018-01-02T15:56:06Z</time>
      </trkpt>
      <trkpt lat="41.801063" lon="2.792511">
        <ele>43.60</ele>
        <time>2018-01-02T15:56:12Z</time>
      </trkpt>
      <trkpt lat="41.800900" lon="2.792440">
        <ele>43.80</ele>
        <time>2018-01-02T15:56:15Z</time>
      </trkpt>
      <trkpt lat="41.800750" lon="2.792342">
        <ele>43.80</ele>
        <time>2018-01-02T15:56:18Z</time>
      </trkpt>
      <trkpt lat="41.800365" lon="2.791944">
        <ele>43.80</ele>
        <time>2018-01-02T15:56:27Z</time>
      </trkpt>
      <trkpt lat="41.800055" lon="2.791700">
        <ele>43.60</ele>
        <time>2018-01-02T15:56:34Z</time>
      </trkpt>
      <trkpt lat="41.799918" lon="2.791632">
        <ele>43.60</ele>
        <time>2018-01-02T15:56:37Z</time>
      </trkpt>
      <trkpt lat="41.799619" lon="2.791548">
        <ele>43.60</ele>
        <time>2018-01-02T15:56:44Z</time>
      </trkpt>
      <trkpt lat="41.799326" lon="2.791533">
        <ele>43.00</ele>
        <time>2018-01-02T15:56:51Z</time>
      </trkpt>
      <trkpt lat="41.799157" lon="2.791460">
        <ele>43.00</ele>
        <time>2018-01-02T15:56:56Z</time>
      </trkpt>
      <trkpt lat="41.799136" lon="2.791425">
        <ele>42.80</ele>
        <time>2018-01-02T15:56:57Z</time>
      </trkpt>
      <trkpt lat="41.799087" lon="2.791354">
        <ele>42.60</ele>
        <time>2018-01-02T15:56:59Z</time>
      </trkpt>
      <trkpt lat="41.798960" lon="2.791168">
        <ele>41.80</ele>
        <time>2018-01-02T15:57:04Z</time>
      </trkpt>
      <trkpt lat="41.798934" lon="2.791127">
        <ele>41.80</ele>
        <time>2018-01-02T15:57:05Z</time>
      </trkpt>
      <trkpt lat="41.798701" lon="2.790832">
        <ele>40.80</ele>
        <time>2018-01-02T15:57:13Z</time>
      </trkpt>
      <trkpt lat="41.798668" lon="2.790794">
        <ele>40.80</ele>
        <time>2018-01-02T15:57:14Z</time>
      </trkpt>
      <trkpt lat="41.798501" lon="2.790610">
        <ele>40.60</ele>
        <time>2018-01-02T15:57:19Z</time>
      </trkpt>
      <trkpt lat="41.798408" lon="2.790491">
        <ele>40.60</ele>
        <time>2018-01-02T15:57:22Z</time>
      </trkpt>
      <trkpt lat="41.798286" lon="2.790335">
        <ele>40.40</ele>
        <time>2018-01-02T15:57:26Z</time>
      </trkpt>
      <trkpt lat="41.798168" lon="2.790194">
        <ele>40.20</ele>
        <time>2018-01-02T15:57:30Z</time>
      </trkpt>
      <trkpt lat="41.798143" lon="2.790156">
        <ele>40.20</ele>
        <time>2018-01-02T15:57:31Z</time>
      </trkpt>
      <trkpt lat="41.798076" lon="2.790038">
        <ele>40.40</ele>
        <time>2018-01-02T15:57:34Z</time>
      </trkpt>
      <trkpt lat="41.797950" lon="2.789859">
        <ele>40.80</ele>
        <time>2018-01-02T15:57:39Z</time>
      </trkpt>
      <trkpt lat="41.797780" lon="2.789657">
        <ele>40.40</ele>
        <time>2018-01-02T15:57:47Z</time>
      </trkpt>
      <trkpt lat="41.797728" lon="2.789577">
        <ele>39.80</ele>
        <time>2018-01-02T15:57:50Z</time>
      </trkpt>
      <trkpt lat="41.797674" lon="2.789468">
        <ele>38.80</ele>
        <time>2018-01-02T15:57:54Z</time>
      </trkpt>
      <trkpt lat="41.797664" lon="2.789441">
        <ele>38.60</ele>
        <time>2018-01-02T15:57:55Z</time>
      </trkpt>
      <trkpt lat="41.797606" lon="2.789328">
        <ele>37.80</ele>
        <time>2018-01-02T15:57:59Z</time>
      </trkpt>
      <trkpt lat="41.797562" lon="2.789219">
        <ele>36.80</ele>
        <time>2018-01-02T15:58:03Z</time>
      </trkpt>
      <trkpt lat="41.797542" lon="2.789165">
        <ele>36.40</ele>
        <time>2018-01-02T15:58:05Z</time>
      </trkpt>
      <trkpt lat="41.797519" lon="2.789112">
        <ele>35.60</ele>
        <time>2018-01-02T15:58:07Z</time>
      </trkpt>
      <trkpt lat="41.797464" lon="2.788980">
        <ele>34.40</ele>
        <time>2018-01-02T15:58:12Z</time>
      </trkpt>
      <trkpt lat="41.797401" lon="2.788808">
        <ele>33.20</ele>
        <time>2018-01-02T15:58:18Z</time>
      </trkpt>
      <trkpt lat="41.797357" lon="2.788717">
        <ele>32.40</ele>
        <time>2018-01-02T15:58:21Z</time>
      </trkpt>
      <trkpt lat="41.797315" lon="2.788625">
        <ele>32.00</ele>
        <time>2018-01-02T15:58:24Z</time>
      </trkpt>
      <trkpt lat="41.797267" lon="2.788529">
        <ele>31.20</ele>
        <time>2018-01-02T15:58:27Z</time>
      </trkpt>
      <trkpt lat="41.797231" lon="2.788454">
        <ele>30.80</ele>
        <time>2018-01-02T15:58:29Z</time>
      </trkpt>
      <trkpt lat="41.797159" lon="2.788312">
        <ele>29.60</ele>
        <time>2018-01-02T15:58:33Z</time>
      </trkpt>
      <trkpt lat="41.797101" lon="2.788207">
        <ele>29.00</ele>
        <time>2018-01-02T15:58:36Z</time>
      </trkpt>
      <trkpt lat="41.797040" lon="2.788097">
        <ele>28.40</ele>
        <time>2018-01-02T15:58:39Z</time>
      </trkpt>
      <trkpt lat="41.796944" lon="2.787900">
        <ele>27.60</ele>
        <time>2018-01-02T15:58:44Z</time>
      </trkpt>
      <trkpt lat="41.796908" lon="2.787824">
        <ele>27.40</ele>
        <time>2018-01-02T15:58:46Z</time>
      </trkpt>
      <trkpt lat="41.796788" lon="2.787556">
        <ele>26.40</ele>
        <time>2018-01-02T15:58:53Z</time>
      </trkpt>
      <trkpt lat="41.796769" lon="2.787515">
        <ele>26.20</ele>
        <time>2018-01-02T15:58:54Z</time>
      </trkpt>
      <trkpt lat="41.796733" lon="2.787437">
        <ele>26.00</ele>
        <time>2018-01-02T15:58:56Z</time>
      </trkpt>
      <trkpt lat="41.796638" lon="2.787250">
        <ele>25.40</ele>
        <time>2018-01-02T15:59:01Z</time>
      </trkpt>
      <trkpt lat="41.796548" lon="2.787061">
        <ele>25.00</ele>
        <time>2018-01-02T15:59:06Z</time>
      </trkpt>
      <trkpt lat="41.796487" lon="2.786948">
        <ele>24.80</ele>
        <time>2018-01-02T15:59:09Z</time>
      </trkpt>
      <trkpt lat="41.796321" lon="2.786687">
        <ele>24.20</ele>
        <time>2018-01-02T15:59:17Z</time>
      </trkpt>
      <trkpt lat="41.796298" lon="2.786649">
        <ele>24.20</ele>
        <time>2018-01-02T15:59:18Z</time>
      </trkpt>
      <trkpt lat="41.796279" lon="2.786613">
        <ele>24.00</ele>
        <time>2018-01-02T15:59:19Z</time>
      </trkpt>
      <trkpt lat="41.796125" lon="2.786368">
        <ele>23.40</ele>
        <time>2018-01-02T15:59:26Z</time>
      </trkpt>
      <trkpt lat="41.795962" lon="2.786070">
        <ele>23.00</ele>
        <time>2018-01-02T15:59:34Z</time>
      </trkpt>
      <trkpt lat="41.795944" lon="2.786035">
        <ele>23.00</ele>
        <time>2018-01-02T15:59:35Z</time>
      </trkpt>
      <trkpt lat="41.795885" lon="2.785944">
        <ele>22.60</ele>
        <time>2018-01-02T15:59:38Z</time>
      </trkpt>
      <trkpt lat="41.795899" lon="2.785841">
        <ele>21.80</ele>
        <time>2018-01-02T15:59:41Z</time>
      </trkpt>
      <trkpt lat="41.795949" lon="2.785798">
        <ele>21.00</ele>
        <time>2018-01-02T15:59:43Z</time>
      </trkpt>
      <trkpt lat="41.796004" lon="2.785763">
        <ele>20.40</ele>
        <time>2018-01-02T15:59:45Z</time>
      </trkpt>
      <trkpt lat="41.796044" lon="2.785681">
        <ele>19.60</ele>
        <time>2018-01-02T15:59:48Z</time>
      </trkpt>
      <trkpt lat="41.796048" lon="2.785604">
        <ele>19.20</ele>
        <time>2018-01-02T15:59:50Z</time>
      </trkpt>
      <trkpt lat="41.796014" lon="2.785483">
        <ele>18.40</ele>
        <time>2018-01-02T15:59:53Z</time>
      </trkpt>
      <trkpt lat="41.795969" lon="2.785416">
        <ele>18.00</ele>
        <time>2018-01-02T15:59:55Z</time>
      </trkpt>
      <trkpt lat="41.795874" lon="2.785304">
        <ele>17.00</ele>
        <time>2018-01-02T15:59:59Z</time>
      </trkpt>
      <trkpt lat="41.795851" lon="2.785272">
        <ele>16.60</ele>
        <time>2018-01-02T16:00:00Z</time>
      </trkpt>
      <trkpt lat="41.795810" lon="2.785214">
        <ele>16.20</ele>
        <time>2018-01-02T16:00:02Z</time>
      </trkpt>
      <trkpt lat="41.795750" lon="2.785127">
        <ele>15.60</ele>
        <time>2018-01-02T16:00:05Z</time>
      </trkpt>
      <trkpt lat="41.795682" lon="2.785026">
        <ele>14.60</ele>
        <time>2018-01-02T16:00:08Z</time>
      </trkpt>
      <trkpt lat="41.795659" lon="2.784991">
        <ele>14.40</ele>
        <time>2018-01-02T16:00:09Z</time>
      </trkpt>
      <trkpt lat="41.795589" lon="2.784893">
        <ele>13.60</ele>
        <time>2018-01-02T16:00:12Z</time>
      </trkpt>
      <trkpt lat="41.795510" lon="2.784780">
        <ele>13.00</ele>
        <time>2018-01-02T16:00:15Z</time>
      </trkpt>
      <trkpt lat="41.795451" lon="2.784705">
        <ele>12.60</ele>
        <time>2018-01-02T16:00:17Z</time>
      </trkpt>
      <trkpt lat="41.795391" lon="2.784613">
        <ele>12.40</ele>
        <time>2018-01-02T16:00:19Z</time>
      </trkpt>
      <trkpt lat="41.795359" lon="2.784573">
        <ele>12.00</ele>
        <time>2018-01-02T16:00:20Z</time>
      </trkpt>
      <trkpt lat="41.795238" lon="2.784494">
        <ele>11.60</ele>
        <time>2018-01-02T16:00:23Z</time>
      </trkpt>
      <trkpt lat="41.795189" lon="2.784489">
        <ele>11.60</ele>
        <time>2018-01-02T16:00:24Z</time>
      </trkpt>
      <trkpt lat="41.795140" lon="2.784500">
        <ele>11.80</ele>
        <time>2018-01-02T16:00:25Z</time>
      </trkpt>
      <trkpt lat="41.795043" lon="2.784539">
        <ele>11.40</ele>
        <time>2018-01-02T16:00:27Z</time>
      </trkpt>
      <trkpt lat="41.794995" lon="2.784552">
        <ele>11.20</ele>
        <time>2018-01-02T16:00:28Z</time>
      </trkpt>
      <trkpt lat="41.794853" lon="2.784498">
        <ele>10.60</ele>
        <time>2018-01-02T16:00:31Z</time>
      </trkpt>
      <trkpt lat="41.794813" lon="2.784451">
        <ele>10.40</ele>
        <time>2018-01-02T16:00:32Z</time>
      </trkpt>
      <trkpt lat="41.794778" lon="2.784390">
        <ele>10.20</ele>
        <time>2018-01-02T16:00:33Z</time>
      </trkpt>
      <trkpt lat="41.794668" lon="2.784197">
        <ele>10.40</ele>
        <time>2018-01-02T16:00:36Z</time>
      </trkpt>
      <trkpt lat="41.794560" lon="2.784089">
        <ele>10.20</ele>
        <time>2018-01-02T16:00:38Z</time>
      </trkpt>
      <trkpt lat="41.794497" lon="2.784057">
        <ele>10.20</ele>
        <time>2018-01-02T16:00:39Z</time>
      </trkpt>
      <trkpt lat="41.794435" lon="2.784034">
        <ele>10.40</ele>
        <time>2018-01-02T16:00:40Z</time>
      </trkpt>
      <trkpt lat="41.794370" lon="2.784013">
        <ele>10.60</ele>
        <time>2018-01-02T16:00:41Z</time>
      </trkpt>
      <trkpt lat="41.794248" lon="2.783957">
        <ele>10.80</ele>
        <time>2018-01-02T16:00:43Z</time>
      </trkpt>
      <trkpt lat="41.794142" lon="2.783878">
        <ele>10.80</ele>
        <time>2018-01-02T16:00:45Z</time>
      </trkpt>
      <trkpt lat="41.793994" lon="2.783714">
        <ele>11.40</ele>
        <time>2018-01-02T16:00:48Z</time>
      </trkpt>
      <trkpt lat="41.793839" lon="2.783564">
        <ele>12.60</ele>
        <time>2018-01-02T16:00:51Z</time>
      </trkpt>
      <trkpt lat="41.793687" lon="2.783457">
        <ele>13.40</ele>
        <time>2018-01-02T16:00:54Z</time>
      </trkpt>
      <trkpt lat="41.793593" lon="2.783387">
        <ele>13.20</ele>
        <time>2018-01-02T16:00:56Z</time>
      </trkpt>
      <trkpt lat="41.793546" lon="2.783353">
        <ele>13.40</ele>
        <time>2018-01-02T16:00:57Z</time>
      </trkpt>
      <trkpt lat="41.793207" lon="2.783246">
        <ele>13.80</ele>
        <time>2018-01-02T16:01:03Z</time>
      </trkpt>
      <trkpt lat="41.792862" lon="2.783177">
        <ele>14.60</ele>
        <time>2018-01-02T16:01:09Z</time>
      </trkpt>
      <trkpt lat="41.792809" lon="2.783162">
        <ele>14.80</ele>
        <time>2018-01-02T16:01:10Z</time>
      </trkpt>
      <trkpt lat="41.792661" lon="2.783135">
        <ele>15.80</ele>
        <time>2018-01-02T16:01:13Z</time>
      </trkpt>
      <trkpt lat="41.792508" lon="2.783188">
        <ele>16.40</ele>
        <time>2018-01-02T16:01:17Z</time>
      </trkpt>
      <trkpt lat="41.792362" lon="2.783286">
        <ele>15.80</ele>
        <time>2018-01-02T16:01:23Z</time>
      </trkpt>
      <trkpt lat="41.792298" lon="2.783341">
        <ele>15.60</ele>
        <time>2018-01-02T16:01:25Z</time>
      </trkpt>
      <trkpt lat="41.792128" lon="2.783470">
        <ele>14.80</ele>
        <time>2018-01-02T16:01:30Z</time>
      </trkpt>
      <trkpt lat="41.792091" lon="2.783497">
        <ele>14.60</ele>
        <time>2018-01-02T16:01:31Z</time>
      </trkpt>
      <trkpt lat="41.791900" lon="2.783631">
        <ele>13.80</ele>
        <time>2018-01-02T16:01:36Z</time>
      </trkpt>
      <trkpt lat="41.791734" lon="2.783720">
        <ele>13.40</ele>
        <time>2018-01-02T16:01:40Z</time>
      </trkpt>
      <trkpt lat="41.791615" lon="2.783806">
        <ele>13.20</ele>
        <time>2018-01-02T16:01:43Z</time>
      </trkpt>
      <trkpt lat="41.791463" lon="2.783923">
        <ele>13.00</ele>
        <time>2018-01-02T16:01:47Z</time>
      </trkpt>
      <trkpt lat="41.791160" lon="2.784188">
        <ele>12.60</ele>
        <time>2018-01-02T16:01:56Z</time>
      </trkpt>
      <trkpt lat="41.791035" lon="2.784321">
        <ele>12.80</ele>
        <time>2018-01-02T16:02:00Z</time>
      </trkpt>
      <trkpt lat="41.790974" lon="2.784370">
        <ele>12.80</ele>
        <time>2018-01-02T16:02:02Z</time>
      </trkpt>
      <trkpt lat="41.790755" lon="2.784655">
        <ele>12.40</ele>
        <time>2018-01-02T16:02:10Z</time>
      </trkpt>
      <trkpt lat="41.790620" lon="2.784836">
        <ele>11.80</ele>
        <time>2018-01-02T16:02:16Z</time>
      </trkpt>
      <trkpt lat="41.790602" lon="2.784879">
        <ele>11.60</ele>
        <time>2018-01-02T16:02:17Z</time>
      </trkpt>
      <trkpt lat="41.790569" lon="2.784978">
        <ele>11.40</ele>
        <time>2018-01-02T16:02:19Z</time>
      </trkpt>
      <trkpt lat="41.790481" lon="2.785123">
        <ele>10.60</ele>
        <time>2018-01-02T16:02:23Z</time>
      </trkpt>
      <trkpt lat="41.790440" lon="2.785192">
        <ele>10.60</ele>
        <time>2018-01-02T16:02:25Z</time>
      </trkpt>
      <trkpt lat="41.790078" lon="2.786136">
        <ele>3.60</ele>
        <time>2018-01-02T10:41:17Z</time>
      </trkpt>
      <trkpt lat="41.790078" lon="2.786131">
        <ele>3.60</ele>
        <time>2018-01-02T10:41:19Z</time>
      </trkpt>
      <trkpt lat="41.790053" lon="2.786056">
        <ele>3.40</ele>
        <time>2018-01-02T10:41:22Z</time>
      </trkpt>
      <trkpt lat="41.789955" lon="2.785928">
        <ele>3.00</ele>
        <time>2018-01-02T10:41:28Z</time>
      </trkpt>
      <trkpt lat="41.789943" lon="2.785895">
        <ele>2.80</ele>
        <time>2018-01-02T10:41:29Z</time>
      </trkpt>
      <trkpt lat="41.789927" lon="2.785854">
        <ele>2.60</ele>
        <time>2018-01-02T10:41:30Z</time>
      </trkpt>
      <trkpt lat="41.789897" lon="2.785834">
        <ele>2.40</ele>
        <time>2018-01-02T10:41:31Z</time>
      </trkpt>
      <trkpt lat="41.789675" lon="2.785964">
        <ele>1.40</ele>
        <time>2018-01-02T10:41:36Z</time>
      </trkpt>
      <trkpt lat="41.789531" lon="2.786103">
        <ele>1.20</ele>
        <time>2018-01-02T10:41:39Z</time>
      </trkpt>
      <trkpt lat="41.789421" lon="2.786216">
        <ele>1.60</ele>
        <time>2018-01-02T10:41:41Z</time>
      </trkpt>
      <trkpt lat="41.789320" lon="2.786337">
        <ele>2.00</ele>
        <time>2018-01-02T10:41:43Z</time>
      </trkpt>
      <trkpt lat="41.789115" lon="2.786576">
        <ele>2.80</ele>
        <time>2018-01-02T10:41:47Z</time>
      </trkpt>
      <trkpt lat="41.789062" lon="2.786632">
        <ele>3.20</ele>
        <time>2018-01-02T10:41:48Z</time>
      </trkpt>
      <trkpt lat="41.788941" lon="2.786705">
        <ele>4.00</ele>
        <time>2018-01-02T10:41:50Z</time>
      </trkpt>
      <trkpt lat="41.788759" lon="2.786794">
        <ele>4.80</ele>
        <time>2018-01-02T10:41:53Z</time>
      </trkpt>
      <trkpt lat="41.788547" lon="2.786883">
        <ele>4.20</ele>
        <time>2018-01-02T10:41:57Z</time>
      </trkpt>
      <trkpt lat="41.788451" lon="2.786935">
        <ele>4.00</ele>
        <time>2018-01-02T10:41:59Z</time>
      </trkpt>
      <trkpt lat="41.788308" lon="2.786965">
        <ele>3.60</ele>
        <time>2018-01-02T10:42:02Z</time>
      </trkpt>
      <trkpt lat="41.788256" lon="2.786940">
        <ele>3.40</ele>
        <time>2018-01-02T10:42:03Z</time>
      </trkpt>
      <trkpt lat="41.788177" lon="2.786679">
        <ele>3.80</ele>
        <time>2018-01-02T10:42:07Z</time>
      </trkpt>
      <trkpt lat="41.788109" lon="2.786113">
        <ele>3.20</ele>
        <time>2018-01-02T10:42:15Z</time>
      </trkpt>
      <trkpt lat="41.788094" lon="2.785969">
        <ele>3.00</ele>
        <time>2018-01-02T10:42:17Z</time>
      </trkpt>
      <trkpt lat="41.788089" lon="2.785896">
        <ele>2.80</ele>
        <time>2018-01-02T10:42:18Z</time>
      </trkpt>
      <trkpt lat="41.788072" lon="2.785434">
        <ele>2.20</ele>
        <time>2018-01-02T10:42:24Z</time>
      </trkpt>
      <trkpt lat="41.788067" lon="2.785280">
        <ele>2.00</ele>
        <time>2018-01-02T10:42:26Z</time>
      </trkpt>
      <trkpt lat="41.788084" lon="2.784887">
        <ele>0.60</ele>
        <time>2018-01-02T10:42:31Z</time>
      </trkpt>
      <trkpt lat="41.788127" lon="2.784366">
        <ele>0.00</ele>
        <time>2018-01-02T10:42:37Z</time>
      </trkpt>
      <trkpt lat="41.788111" lon="2.783915">
        <ele>-0.40</ele>
        <time>2018-01-02T10:42:42Z</time>
      </trkpt>
      <trkpt lat="41.787946" lon="2.783320">
        <ele>-0.60</ele>
        <time>2018-01-02T10:42:49Z</time>
      </trkpt>
      <trkpt lat="41.787821" lon="2.782994">
        <ele>-0.80</ele>
        <time>2018-01-02T10:42:53Z</time>
      </trkpt>
      <trkpt lat="41.787747" lon="2.782825">
        <ele>-1.00</ele>
        <time>2018-01-02T10:42:55Z</time>
      </trkpt>
      <trkpt lat="41.787660" lon="2.782558">
        <ele>-0.80</ele>
        <time>2018-01-02T10:42:58Z</time>
      </trkpt>
      <trkpt lat="41.787569" lon="2.782447">
        <ele>-0.80</ele>
        <time>2018-01-02T10:43:00Z</time>
      </trkpt>
      <trkpt lat="41.787505" lon="2.782452">
        <ele>-0.60</ele>
        <time>2018-01-02T10:43:01Z</time>
      </trkpt>
      <trkpt lat="41.787113" lon="2.782823">
        <ele>-0.40</ele>
        <time>2018-01-02T10:43:08Z</time>
      </trkpt>
      <trkpt lat="41.787059" lon="2.782872">
        <ele>-0.60</ele>
        <time>2018-01-02T10:43:09Z</time>
      </trkpt>
      <trkpt lat="41.786953" lon="2.782966">
        <ele>-0.60</ele>
        <time>2018-01-02T10:43:11Z</time>
      </trkpt>
      <trkpt lat="41.786834" lon="2.783049">
        <ele>-0.60</ele>
        <time>2018-01-02T10:43:13Z</time>
      </trkpt>
      <trkpt lat="41.786523" lon="2.783319">
        <ele>-0.40</ele>
        <time>2018-01-02T10:43:18Z</time>
      </trkpt>
      <trkpt lat="41.786459" lon="2.783381">
        <ele>-0.20</ele>
        <time>2018-01-02T10:43:19Z</time>
      </trkpt>
      <trkpt lat="41.786392" lon="2.783443">
        <ele>0.20</ele>
        <time>2018-01-02T10:43:20Z</time>
      </trkpt>
      <trkpt lat="41.786323" lon="2.783503">
        <ele>0.60</ele>
        <time>2018-01-02T10:43:21Z</time>
      </trkpt>
      <trkpt lat="41.786184" lon="2.783589">
        <ele>1.80</ele>
        <time>2018-01-02T10:43:23Z</time>
      </trkpt>
      <trkpt lat="41.786115" lon="2.783621">
        <ele>2.40</ele>
        <time>2018-01-02T10:43:24Z</time>
      </trkpt>
      <trkpt lat="41.785909" lon="2.783770">
        <ele>3.80</ele>
        <time>2018-01-02T10:43:28Z</time>
      </trkpt>
      <trkpt lat="41.785875" lon="2.783810">
        <ele>4.00</ele>
        <time>2018-01-02T10:43:29Z</time>
      </trkpt>
      <trkpt lat="41.785776" lon="2.783837">
        <ele>3.40</ele>
        <time>2018-01-02T10:43:32Z</time>
      </trkpt>
      <trkpt lat="41.785743" lon="2.783837">
        <ele>3.20</ele>
        <time>2018-01-02T10:43:33Z</time>
      </trkpt>
      <trkpt lat="41.785711" lon="2.783837">
        <ele>2.80</ele>
        <time>2018-01-02T10:43:34Z</time>
      </trkpt>
      <trkpt lat="41.785641" lon="2.783819">
        <ele>1.80</ele>
        <time>2018-01-02T10:43:36Z</time>
      </trkpt>
      <trkpt lat="41.785577" lon="2.783769">
        <ele>0.80</ele>
        <time>2018-01-02T10:43:38Z</time>
      </trkpt>
      <trkpt lat="41.785543" lon="2.783732">
        <ele>0.40</ele>
        <time>2018-01-02T10:43:39Z</time>
      </trkpt>
      <trkpt lat="41.785513" lon="2.783691">
        <ele>0.00</ele>
        <time>2018-01-02T10:43:40Z</time>
      </trkpt>
      <trkpt lat="41.785460" lon="2.783571">
        <ele>-0.20</ele>
        <time>2018-01-02T10:43:42Z</time>
      </trkpt>
      <trkpt lat="41.785425" lon="2.783441">
        <ele>-0.20</ele>
        <time>2018-01-02T10:43:44Z</time>
      </trkpt>
      <trkpt lat="41.785343" lon="2.783112">
        <ele>-0.60</ele>
        <time>2018-01-02T10:43:49Z</time>
      </trkpt>
      <trkpt lat="41.785264" lon="2.782756">
        <ele>-0.80</ele>
        <time>2018-01-02T10:43:54Z</time>
      </trkpt>
      <trkpt lat="41.785233" lon="2.782610">
        <ele>-0.80</ele>
        <time>2018-01-02T10:43:56Z</time>
      </trkpt>
      <trkpt lat="41.785189" lon="2.782387">
        <ele>-1.00</ele>
        <time>2018-01-02T10:43:59Z</time>
      </trkpt>
      <trkpt lat="41.785084" lon="2.781881">
        <ele>-1.40</ele>
        <time>2018-01-02T10:44:06Z</time>
      </trkpt>
      <trkpt lat="41.785006" lon="2.781506">
        <ele>-1.80</ele>
        <time>2018-01-02T10:44:11Z</time>
      </trkpt>
      <trkpt lat="41.784990" lon="2.781430">
        <ele>-2.00</ele>
        <time>2018-01-02T10:44:12Z</time>
      </trkpt>
      <trkpt lat="41.784884" lon="2.780819">
        <ele>-2.40</ele>
        <time>2018-01-02T10:44:20Z</time>
      </trkpt>
      <trkpt lat="41.784843" lon="2.780589">
        <ele>-2.20</ele>
        <time>2018-01-02T10:44:23Z</time>
      </trkpt>
      <trkpt lat="41.784771" lon="2.780187">
        <ele>-2.40</ele>
        <time>2018-01-02T10:44:28Z</time>
      </trkpt>
      <trkpt lat="41.784753" lon="2.780021">
        <ele>-2.60</ele>
        <time>2018-01-02T10:44:30Z</time>
      </trkpt>
      <trkpt lat="41.784737" lon="2.779593">
        <ele>-2.40</ele>
        <time>2018-01-02T10:44:35Z</time>
      </trkpt>
      <trkpt lat="41.784686" lon="2.779173">
        <ele>-2.80</ele>
        <time>2018-01-02T10:44:40Z</time>
      </trkpt>
      <trkpt lat="41.784666" lon="2.779007">
        <ele>-2.80</ele>
        <time>2018-01-02T10:44:42Z</time>
      </trkpt>
      <trkpt lat="41.784684" lon="2.778775">
        <ele>-2.80</ele>
        <time>2018-01-02T10:44:45Z</time>
      </trkpt>
      <trkpt lat="41.784724" lon="2.778720">
        <ele>-2.60</ele>
        <time>2018-01-02T10:44:46Z</time>
      </trkpt>
      <trkpt lat="41.784776" lon="2.778693">
        <ele>-2.60</ele>
        <time>2018-01-02T10:44:47Z</time>
      </trkpt>
      <trkpt lat="41.784885" lon="2.778674">
        <ele>-2.60</ele>
        <time>2018-01-02T10:44:49Z</time>
      </trkpt>
      <trkpt lat="41.784971" lon="2.778604">
        <ele>-2.60</ele>
        <time>2018-01-02T10:44:51Z</time>
      </trkpt>
      <trkpt lat="41.784982" lon="2.778541">
        <ele>-2.60</ele>
        <time>2018-01-02T10:44:52Z</time>
      </trkpt>
      <trkpt lat="41.784975" lon="2.778012">
        <ele>-2.80</ele>
        <time>2018-01-02T10:45:00Z</time>
      </trkpt>
      <trkpt lat="41.784973" lon="2.777728">
        <ele>-2.80</ele>
        <time>2018-01-02T10:45:04Z</time>
      </trkpt>
      <trkpt lat="41.784970" lon="2.777522">
        <ele>-3.00</ele>
        <time>2018-01-02T10:45:07Z</time>
      </trkpt>
      <trkpt lat="41.784972" lon="2.777148">
        <ele>-3.00</ele>
        <time>2018-01-02T10:45:12Z</time>
      </trkpt>
      <trkpt lat="41.784964" lon="2.776992">
        <ele>-3.00</ele>
        <time>2018-01-02T10:45:14Z</time>
      </trkpt>
      <trkpt lat="41.784975" lon="2.776840">
        <ele>-3.00</ele>
        <time>2018-01-02T10:45:16Z</time>
      </trkpt>
      <trkpt lat="41.785009" lon="2.776782">
        <ele>-3.00</ele>
        <time>2018-01-02T10:45:17Z</time>
      </trkpt>
      <trkpt lat="41.785227" lon="2.776763">
        <ele>-3.00</ele>
        <time>2018-01-02T10:45:21Z</time>
      </trkpt>
      <trkpt lat="41.785507" lon="2.776837">
        <ele>-3.00</ele>
        <time>2018-01-02T10:45:26Z</time>
      </trkpt>
      <trkpt lat="41.785898" lon="2.777132">
        <ele>-3.00</ele>
        <time>2018-01-02T10:45:34Z</time>
      </trkpt>
      <trkpt lat="41.786005" lon="2.777223">
        <ele>-3.00</ele>
        <time>2018-01-02T10:45:36Z</time>
      </trkpt>
      <trkpt lat="41.786382" lon="2.777513">
        <ele>-3.40</ele>
        <time>2018-01-02T10:45:43Z</time>
      </trkpt>
      <trkpt lat="41.786435" lon="2.777557">
        <ele>-3.00</ele>
        <time>2018-01-02T10:45:44Z</time>
      </trkpt>
      <trkpt lat="41.786537" lon="2.777633">
        <ele>-1.60</ele>
        <time>2018-01-02T10:45:46Z</time>
      </trkpt>
      <trkpt lat="41.786619" lon="2.777684">
        <ele>-2.20</ele>
        <time>2018-01-02T10:45:48Z</time>
      </trkpt>
      <trkpt lat="41.786655" lon="2.777708">
        <ele>-2.40</ele>
        <time>2018-01-02T10:45:49Z</time>
      </trkpt>
      <trkpt lat="41.786778" lon="2.777794">
        <ele>-2.60</ele>
        <time>2018-01-02T10:45:52Z</time>
      </trkpt>
      <trkpt lat="41.786868" lon="2.777850">
        <ele>-2.20</ele>
        <time>2018-01-02T10:45:55Z</time>
      </trkpt>
      <trkpt lat="41.786970" lon="2.777758">
        <ele>-1.80</ele>
        <time>2018-01-02T10:45:58Z</time>
      </trkpt>
      <trkpt lat="41.786997" lon="2.777689">
        <ele>-1.60</ele>
        <time>2018-01-02T10:45:59Z</time>
      </trkpt>
      <trkpt lat="41.787020" lon="2.777618">
        <ele>-1.40</ele>
        <time>2018-01-02T10:46:00Z</time>
      </trkpt>
      <trkpt lat="41.787086" lon="2.777184">
        <ele>-1.00</ele>
        <time>2018-01-02T10:46:06Z</time>
      </trkpt>
      <trkpt lat="41.787102" lon="2.777039">
        <ele>-0.60</ele>
        <time>2018-01-02T10:46:08Z</time>
      </trkpt>
      <trkpt lat="41.787141" lon="2.776683">
        <ele>-0.20</ele>
        <time>2018-01-02T10:46:13Z</time>
      </trkpt>
      <trkpt lat="41.787154" lon="2.776544">
        <ele>0.00</ele>
        <time>2018-01-02T10:46:15Z</time>
      </trkpt>
      <trkpt lat="41.787186" lon="2.776300">
        <ele>0.00</ele>
        <time>2018-01-02T10:46:19Z</time>
      </trkpt>
      <trkpt lat="41.787227" lon="2.775980">
        <ele>-0.40</ele>
        <time>2018-01-02T10:46:25Z</time>
      </trkpt>
      <trkpt lat="41.787241" lon="2.775902">
        <ele>-0.60</ele>
        <time>2018-01-02T10:46:27Z</time>
      </trkpt>
      <trkpt lat="41.787244" lon="2.775861">
        <ele>-0.60</ele>
        <time>2018-01-02T10:46:39Z</time>
      </trkpt>
      <trkpt lat="41.787218" lon="2.775852">
        <ele>-0.60</ele>
        <time>2018-01-02T10:46:44Z</time>
      </trkpt>
      <trkpt lat="41.787202" lon="2.775841">
        <ele>-0.80</ele>
        <time>2018-01-02T10:46:45Z</time>
      </trkpt>
      <trkpt lat="41.787187" lon="2.775830">
        <ele>-0.80</ele>
        <time>2018-01-02T10:46:46Z</time>
      </trkpt>
      <trkpt lat="41.787104" lon="2.775784">
        <ele>-1.60</ele>
        <time>2018-01-02T10:46:50Z</time>
      </trkpt>
      <trkpt lat="41.787010" lon="2.775780">
        <ele>-2.00</ele>
        <time>2018-01-02T10:46:53Z</time>
      </trkpt>
      <trkpt lat="41.786902" lon="2.775790">
        <ele>-2.20</ele>
        <time>2018-01-02T10:46:56Z</time>
      </trkpt>
      <trkpt lat="41.786726" lon="2.775849">
        <ele>-2.00</ele>
        <time>2018-01-02T10:47:01Z</time>
      </trkpt>
      <trkpt lat="41.786700" lon="2.775866">
        <ele>-2.00</ele>
        <time>2018-01-02T10:47:02Z</time>
      </trkpt>
      <trkpt lat="41.786647" lon="2.775746">
        <ele>-2.60</ele>
        <time>2018-01-02T10:47:06Z</time>
      </trkpt>
      <trkpt lat="41.786632" lon="2.775704">
        <ele>-2.80</ele>
        <time>2018-01-02T10:47:07Z</time>
      </trkpt>
      <trkpt lat="41.786597" lon="2.775465">
        <ele>-3.20</ele>
        <time>2018-01-02T10:47:11Z</time>
      </trkpt>
      <trkpt lat="41.786542" lon="2.775064">
        <ele>-3.60</ele>
        <time>2018-01-02T10:47:16Z</time>
      </trkpt>
      <trkpt lat="41.786534" lon="2.774978">
        <ele>-3.80</ele>
        <time>2018-01-02T10:47:17Z</time>
      </trkpt>
      <trkpt lat="41.786562" lon="2.774391">
        <ele>-4.40</ele>
        <time>2018-01-02T10:47:24Z</time>
      </trkpt>
      <trkpt lat="41.786586" lon="2.774226">
        <ele>-4.60</ele>
        <time>2018-01-02T10:47:26Z</time>
      </trkpt>
      <trkpt lat="41.786610" lon="2.774065">
        <ele>-4.80</ele>
        <time>2018-01-02T10:47:28Z</time>
      </trkpt>
      <trkpt lat="41.786637" lon="2.773887">
        <ele>-4.80</ele>
        <time>2018-01-02T10:47:30Z</time>
      </trkpt>
      <trkpt lat="41.786680" lon="2.773524">
        <ele>-5.00</ele>
        <time>2018-01-02T10:47:34Z</time>
      </trkpt>
      <trkpt lat="41.786664" lon="2.773347">
        <ele>-5.20</ele>
        <time>2018-01-02T10:47:36Z</time>
      </trkpt>
      <trkpt lat="41.786594" lon="2.773190">
        <ele>-5.40</ele>
        <time>2018-01-02T10:47:38Z</time>
      </trkpt>
      <trkpt lat="41.786551" lon="2.773120">
        <ele>-5.40</ele>
        <time>2018-01-02T10:47:39Z</time>
      </trkpt>
      <trkpt lat="41.786178" lon="2.772576">
        <ele>-5.60</ele>
        <time>2018-01-02T10:47:47Z</time>
      </trkpt>
      <trkpt lat="41.786039" lon="2.772366">
        <ele>-5.80</ele>
        <time>2018-01-02T10:47:50Z</time>
      </trkpt>
      <trkpt lat="41.785807" lon="2.772008">
        <ele>-6.20</ele>
        <time>2018-01-02T10:47:55Z</time>
      </trkpt>
      <trkpt lat="41.785509" lon="2.771573">
        <ele>-6.40</ele>
        <time>2018-01-02T10:48:01Z</time>
      </trkpt>
      <trkpt lat="41.785394" lon="2.771444">
        <ele>-6.40</ele>
        <time>2018-01-02T10:48:03Z</time>
      </trkpt>
      <trkpt lat="41.785060" lon="2.771164">
        <ele>-6.40</ele>
        <time>2018-01-02T10:48:08Z</time>
      </trkpt>
      <trkpt lat="41.784768" lon="2.770946">
        <ele>-6.80</ele>
        <time>2018-01-02T10:48:12Z</time>
      </trkpt>
      <trkpt lat="41.784604" lon="2.770832">
        <ele>-6.00</ele>
        <time>2018-01-02T10:48:14Z</time>
      </trkpt>
      <trkpt lat="41.784520" lon="2.770769">
        <ele>-5.40</ele>
        <time>2018-01-02T10:48:15Z</time>
      </trkpt>
      <trkpt lat="41.784361" lon="2.770625">
        <ele>-3.80</ele>
        <time>2018-01-02T10:48:17Z</time>
      </trkpt>
      <trkpt lat="41.784255" lon="2.770426">
        <ele>-1.80</ele>
        <time>2018-01-02T10:48:19Z</time>
      </trkpt>
      <trkpt lat="41.784225" lon="2.770325">
        <ele>-1.00</ele>
        <time>2018-01-02T10:48:20Z</time>
      </trkpt>
      <trkpt lat="41.784203" lon="2.770232">
        <ele>-0.60</ele>
        <time>2018-01-02T10:48:21Z</time>
      </trkpt>
      <trkpt lat="41.784149" lon="2.770081">
        <ele>0.20</ele>
        <time>2018-01-02T10:48:23Z</time>
      </trkpt>
      <trkpt lat="41.784113" lon="2.770028">
        <ele>0.40</ele>
        <time>2018-01-02T10:48:24Z</time>
      </trkpt>
      <trkpt lat="41.783947" lon="2.769896">
        <ele>0.80</ele>
        <time>2018-01-02T10:48:28Z</time>
      </trkpt>
      <trkpt lat="41.783683" lon="2.769719">
        <ele>1.00</ele>
        <time>2018-01-02T10:48:35Z</time>
      </trkpt>
      <trkpt lat="41.783616" lon="2.769678">
        <ele>1.00</ele>
        <time>2018-01-02T10:48:37Z</time>
      </trkpt>
      <trkpt lat="41.783587" lon="2.769660">
        <ele>0.80</ele>
        <time>2018-01-02T10:48:38Z</time>
      </trkpt>
      <trkpt lat="41.783531" lon="2.769619">
        <ele>0.40</ele>
        <time>2018-01-02T10:48:40Z</time>
      </trkpt>
      <trkpt lat="41.783486" lon="2.769550">
        <ele>-0.20</ele>
        <time>2018-01-02T10:48:42Z</time>
      </trkpt>
      <trkpt lat="41.783453" lon="2.769452">
        <ele>-0.80</ele>
        <time>2018-01-02T10:48:44Z</time>
      </trkpt>
      <trkpt lat="41.783454" lon="2.769352">
        <ele>-1.60</ele>
        <time>2018-01-02T10:48:46Z</time>
      </trkpt>
      <trkpt lat="41.783445" lon="2.769250">
        <ele>-2.60</ele>
        <time>2018-01-02T10:48:48Z</time>
      </trkpt>
      <trkpt lat="41.783444" lon="2.769191">
        <ele>-3.20</ele>
        <time>2018-01-02T10:48:49Z</time>
      </trkpt>
      <trkpt lat="41.783437" lon="2.769075">
        <ele>-4.00</ele>
        <time>2018-01-02T10:48:51Z</time>
      </trkpt>
      <trkpt lat="41.783422" lon="2.768888">
        <ele>-5.20</ele>
        <time>2018-01-02T10:48:54Z</time>
      </trkpt>
      <trkpt lat="41.783416" lon="2.768816">
        <ele>-5.40</ele>
        <time>2018-01-02T10:48:55Z</time>
      </trkpt>
      <trkpt lat="41.783329" lon="2.768425">
        <ele>-6.20</ele>
        <time>2018-01-02T10:49:00Z</time>
      </trkpt>
      <trkpt lat="41.783215" lon="2.768095">
        <ele>-6.40</ele>
        <time>2018-01-02T10:49:04Z</time>
      </trkpt>
      <trkpt lat="41.783134" lon="2.767852">
        <ele>-6.60</ele>
        <time>2018-01-02T10:49:07Z</time>
      </trkpt>
      <trkpt lat="41.782942" lon="2.767128">
        <ele>-6.80</ele>
        <time>2018-01-02T10:49:16Z</time>
      </trkpt>
      <trkpt lat="41.782740" lon="2.766591">
        <ele>-8.00</ele>
        <time>2018-01-02T10:49:23Z</time>
      </trkpt>
      <trkpt lat="41.782667" lon="2.766439">
        <ele>-7.40</ele>
        <time>2018-01-02T10:49:25Z</time>
      </trkpt>
      <trkpt lat="41.782575" lon="2.766282">
        <ele>-6.20</ele>
        <time>2018-01-02T10:49:27Z</time>
      </trkpt>
      <trkpt lat="41.782268" lon="2.765717">
        <ele>-6.60</ele>
        <time>2018-01-02T10:49:35Z</time>
      </trkpt>
      <trkpt lat="41.781993" lon="2.765181">
        <ele>-6.20</ele>
        <time>2018-01-02T10:49:42Z</time>
      </trkpt>
      <trkpt lat="41.781728" lon="2.764652">
        <ele>-5.20</ele>
        <time>2018-01-02T10:49:49Z</time>
      </trkpt>
      <trkpt lat="41.781619" lon="2.764429">
        <ele>-5.40</ele>
        <time>2018-01-02T10:49:52Z</time>
      </trkpt>
      <trkpt lat="41.781426" lon="2.764065">
        <ele>-5.80</ele>
        <time>2018-01-02T10:49:57Z</time>
      </trkpt>
      <trkpt lat="41.781346" lon="2.763914">
        <ele>-5.80</ele>
        <time>2018-01-02T10:49:59Z</time>
      </trkpt>
      <trkpt lat="41.781109" lon="2.763446">
        <ele>-5.60</ele>
        <time>2018-01-02T10:50:05Z</time>
      </trkpt>
      <trkpt lat="41.780913" lon="2.762957">
        <ele>-5.60</ele>
        <time>2018-01-02T10:50:11Z</time>
      </trkpt>
      <trkpt lat="41.780827" lon="2.762698">
        <ele>-5.00</ele>
        <time>2018-01-02T10:50:14Z</time>
      </trkpt>
      <trkpt lat="41.780728" lon="2.762441">
        <ele>-5.00</ele>
        <time>2018-01-02T10:50:17Z</time>
      </trkpt>
      <trkpt lat="41.780693" lon="2.762352">
        <ele>-5.20</ele>
        <time>2018-01-02T10:50:18Z</time>
      </trkpt>
      <trkpt lat="41.780658" lon="2.762264">
        <ele>-5.00</ele>
        <time>2018-01-02T10:50:19Z</time>
      </trkpt>
      <trkpt lat="41.780609" lon="2.761974">
        <ele>-4.40</ele>
        <time>2018-01-02T10:50:22Z</time>
      </trkpt>
      <trkpt lat="41.780621" lon="2.761876">
        <ele>-4.40</ele>
        <time>2018-01-02T10:50:23Z</time>
      </trkpt>
      <trkpt lat="41.780655" lon="2.761789">
        <ele>-4.20</ele>
        <time>2018-01-02T10:50:24Z</time>
      </trkpt>
      <trkpt lat="41.780810" lon="2.761532">
        <ele>-3.00</ele>
        <time>2018-01-02T10:50:27Z</time>
      </trkpt>
      <trkpt lat="41.780961" lon="2.761293">
        <ele>-2.00</ele>
        <time>2018-01-02T10:50:30Z</time>
      </trkpt>
      <trkpt lat="41.781002" lon="2.761210">
        <ele>-2.00</ele>
        <time>2018-01-02T10:50:31Z</time>
      </trkpt>
      <trkpt lat="41.781057" lon="2.761022">
        <ele>-1.00</ele>
        <time>2018-01-02T10:50:33Z</time>
      </trkpt>
      <trkpt lat="41.781102" lon="2.760829">
        <ele>1.20</ele>
        <time>2018-01-02T10:50:35Z</time>
      </trkpt>
      <trkpt lat="41.781126" lon="2.760731">
        <ele>1.80</ele>
        <time>2018-01-02T10:50:36Z</time>
      </trkpt>
      <trkpt lat="41.781151" lon="2.760644">
        <ele>2.20</ele>
        <time>2018-01-02T10:50:37Z</time>
      </trkpt>
      <trkpt lat="41.781176" lon="2.760562">
        <ele>2.80</ele>
        <time>2018-01-02T10:50:38Z</time>
      </trkpt>
      <trkpt lat="41.781248" lon="2.760365">
        <ele>3.40</ele>
        <time>2018-01-02T10:50:41Z</time>
      </trkpt>
      <trkpt lat="41.781263" lon="2.760304">
        <ele>3.80</ele>
        <time>2018-01-02T10:50:42Z</time>
      </trkpt>
      <trkpt lat="41.781287" lon="2.760093">
        <ele>4.20</ele>
        <time>2018-01-02T10:50:45Z</time>
      </trkpt>
      <trkpt lat="41.781303" lon="2.759890">
        <ele>4.60</ele>
        <time>2018-01-02T10:50:48Z</time>
      </trkpt>
      <trkpt lat="41.781312" lon="2.759756">
        <ele>4.80</ele>
        <time>2018-01-02T10:50:50Z</time>
      </trkpt>
      <trkpt lat="41.781327" lon="2.759545">
        <ele>4.80</ele>
        <time>2018-01-02T10:50:53Z</time>
      </trkpt>
      <trkpt lat="41.781334" lon="2.759473">
        <ele>4.60</ele>
        <time>2018-01-02T10:50:54Z</time>
      </trkpt>
      <trkpt lat="41.781333" lon="2.759256">
        <ele>4.40</ele>
        <time>2018-01-02T10:50:57Z</time>
      </trkpt>
      <trkpt lat="41.781329" lon="2.759118">
        <ele>4.40</ele>
        <time>2018-01-02T10:50:59Z</time>
      </trkpt>
      <trkpt lat="41.781304" lon="2.758992">
        <ele>4.20</ele>
        <time>2018-01-02T10:51:01Z</time>
      </trkpt>
      <trkpt lat="41.781259" lon="2.758884">
        <ele>4.00</ele>
        <time>2018-01-02T10:51:03Z</time>
      </trkpt>
      <trkpt lat="41.781191" lon="2.758763">
        <ele>3.60</ele>
        <time>2018-01-02T10:51:06Z</time>
      </trkpt>
      <trkpt lat="41.781174" lon="2.758718">
        <ele>3.40</ele>
        <time>2018-01-02T10:51:07Z</time>
      </trkpt>
      <trkpt lat="41.781134" lon="2.758596">
        <ele>2.60</ele>
        <time>2018-01-02T10:51:09Z</time>
      </trkpt>
      <trkpt lat="41.781096" lon="2.758443">
        <ele>1.60</ele>
        <time>2018-01-02T10:51:11Z</time>
      </trkpt>
      <trkpt lat="41.781076" lon="2.758355">
        <ele>1.20</ele>
        <time>2018-01-02T10:51:12Z</time>
      </trkpt>
      <trkpt lat="41.781032" lon="2.758175">
        <ele>0.40</ele>
        <time>2018-01-02T10:51:14Z</time>
      </trkpt>
      <trkpt lat="41.780981" lon="2.757986">
        <ele>0.20</ele>
        <time>2018-01-02T10:51:16Z</time>
      </trkpt>
      <trkpt lat="41.780955" lon="2.757891">
        <ele>-0.20</ele>
        <time>2018-01-02T10:51:17Z</time>
      </trkpt>
      <trkpt lat="41.780896" lon="2.757695">
        <ele>-0.80</ele>
        <time>2018-01-02T10:51:19Z</time>
      </trkpt>
      <trkpt lat="41.780765" lon="2.757275">
        <ele>-2.00</ele>
        <time>2018-01-02T10:51:23Z</time>
      </trkpt>
      <trkpt lat="41.780735" lon="2.757162">
        <ele>-1.80</ele>
        <time>2018-01-02T10:51:24Z</time>
      </trkpt>
      <trkpt lat="41.780561" lon="2.756422">
        <ele>-1.20</ele>
        <time>2018-01-02T10:51:30Z</time>
      </trkpt>
      <trkpt lat="41.780478" lon="2.756027">
        <ele>-0.20</ele>
        <time>2018-01-02T10:51:33Z</time>
      </trkpt>
      <trkpt lat="41.780341" lon="2.755503">
        <ele>1.00</ele>
        <time>2018-01-02T10:51:37Z</time>
      </trkpt>
      <trkpt lat="41.780259" lon="2.755242">
        <ele>2.20</ele>
        <time>2018-01-02T10:51:39Z</time>
      </trkpt>
      <trkpt lat="41.780180" lon="2.754977">
        <ele>3.80</ele>
        <time>2018-01-02T10:51:41Z</time>
      </trkpt>
      <trkpt lat="41.780146" lon="2.754845">
        <ele>4.80</ele>
        <time>2018-01-02T10:51:42Z</time>
      </trkpt>
      <trkpt lat="41.780118" lon="2.754712">
        <ele>5.80</ele>
        <time>2018-01-02T10:51:43Z</time>
      </trkpt>
      <trkpt lat="41.780076" lon="2.754464">
        <ele>7.60</ele>
        <time>2018-01-02T10:51:45Z</time>
      </trkpt>
      <trkpt lat="41.780051" lon="2.754348">
        <ele>8.80</ele>
        <time>2018-01-02T10:51:46Z</time>
      </trkpt>
      <trkpt lat="41.780004" lon="2.754122">
        <ele>9.80</ele>
        <time>2018-01-02T10:51:48Z</time>
      </trkpt>
      <trkpt lat="41.779981" lon="2.754015">
        <ele>10.20</ele>
        <time>2018-01-02T10:51:49Z</time>
      </trkpt>
      <trkpt lat="41.779950" lon="2.753806">
        <ele>11.00</ele>
        <time>2018-01-02T10:51:51Z</time>
      </trkpt>
      <trkpt lat="41.779935" lon="2.753707">
        <ele>11.40</ele>
        <time>2018-01-02T10:51:52Z</time>
      </trkpt>
      <trkpt lat="41.779920" lon="2.753612">
        <ele>11.80</ele>
        <time>2018-01-02T10:51:53Z</time>
      </trkpt>
      <trkpt lat="41.779934" lon="2.753352">
        <ele>12.20</ele>
        <time>2018-01-02T10:51:56Z</time>
      </trkpt>
      <trkpt lat="41.779982" lon="2.753203">
        <ele>12.40</ele>
        <time>2018-01-02T10:51:58Z</time>
      </trkpt>
      <trkpt lat="41.779987" lon="2.753124">
        <ele>12.80</ele>
        <time>2018-01-02T10:51:59Z</time>
      </trkpt>
      <trkpt lat="41.779863" lon="2.752526">
        <ele>13.60</ele>
        <time>2018-01-02T10:52:07Z</time>
      </trkpt>
      <trkpt lat="41.779825" lon="2.752382">
        <ele>13.40</ele>
        <time>2018-01-02T10:52:09Z</time>
      </trkpt>
      <trkpt lat="41.779685" lon="2.751912">
        <ele>12.80</ele>
        <time>2018-01-02T10:52:16Z</time>
      </trkpt>
      <trkpt lat="41.779647" lon="2.751786">
        <ele>12.40</ele>
        <time>2018-01-02T10:52:18Z</time>
      </trkpt>
      <trkpt lat="41.779557" lon="2.751400">
        <ele>11.60</ele>
        <time>2018-01-02T10:52:24Z</time>
      </trkpt>
      <trkpt lat="41.779547" lon="2.751333">
        <ele>11.40</ele>
        <time>2018-01-02T10:52:25Z</time>
      </trkpt>
      <trkpt lat="41.779523" lon="2.751133">
        <ele>10.80</ele>
        <time>2018-01-02T10:52:28Z</time>
      </trkpt>
      <trkpt lat="41.779464" lon="2.751026">
        <ele>10.80</ele>
        <time>2018-01-02T10:52:30Z</time>
      </trkpt>
      <trkpt lat="41.779387" lon="2.750973">
        <ele>11.20</ele>
        <time>2018-01-02T10:52:32Z</time>
      </trkpt>
      <trkpt lat="41.779319" lon="2.750940">
        <ele>11.80</ele>
        <time>2018-01-02T10:52:34Z</time>
      </trkpt>
      <trkpt lat="41.779244" lon="2.750917">
        <ele>12.00</ele>
        <time>2018-01-02T10:52:36Z</time>
      </trkpt>
      <trkpt lat="41.779073" lon="2.750890">
        <ele>12.60</ele>
        <time>2018-01-02T10:52:40Z</time>
      </trkpt>
      <trkpt lat="41.778954" lon="2.750876">
        <ele>12.80</ele>
        <time>2018-01-02T10:52:43Z</time>
      </trkpt>
      <trkpt lat="41.778753" lon="2.750864">
        <ele>12.60</ele>
        <time>2018-01-02T10:52:48Z</time>
      </trkpt>
      <trkpt lat="41.778707" lon="2.750860">
        <ele>12.40</ele>
        <time>2018-01-02T10:52:49Z</time>
      </trkpt>
      <trkpt lat="41.778346" lon="2.750877">
        <ele>12.00</ele>
        <time>2018-01-02T10:52:57Z</time>
      </trkpt>
      <trkpt lat="41.778032" lon="2.750857">
        <ele>11.60</ele>
        <time>2018-01-02T10:53:04Z</time>
      </trkpt>
      <trkpt lat="41.777950" lon="2.750849">
        <ele>11.40</ele>
        <time>2018-01-02T10:53:06Z</time>
      </trkpt>
      <trkpt lat="41.777755" lon="2.750820">
        <ele>10.40</ele>
        <time>2018-01-02T10:53:11Z</time>
      </trkpt>
      <trkpt lat="41.777510" lon="2.750762">
        <ele>9.20</ele>
        <time>2018-01-02T10:53:17Z</time>
      </trkpt>
      <trkpt lat="41.777434" lon="2.750740">
        <ele>8.60</ele>
        <time>2018-01-02T10:53:19Z</time>
      </trkpt>
      <trkpt lat="41.777359" lon="2.750722">
        <ele>8.00</ele>
        <time>2018-01-02T10:53:21Z</time>
      </trkpt>
      <trkpt lat="41.777321" lon="2.750707">
        <ele>7.40</ele>
        <time>2018-01-02T10:53:22Z</time>
      </trkpt>
      <trkpt lat="41.777161" lon="2.750657">
        <ele>6.40</ele>
        <time>2018-01-02T10:53:26Z</time>
      </trkpt>
      <trkpt lat="41.777074" lon="2.750634">
        <ele>6.20</ele>
        <time>2018-01-02T10:53:28Z</time>
      </trkpt>
      <trkpt lat="41.776989" lon="2.750605">
        <ele>5.80</ele>
        <time>2018-01-02T10:53:30Z</time>
      </trkpt>
      <trkpt lat="41.776854" lon="2.750561">
        <ele>5.20</ele>
        <time>2018-01-02T10:53:33Z</time>
      </trkpt>
      <trkpt lat="41.776808" lon="2.750545">
        <ele>5.20</ele>
        <time>2018-01-02T10:53:34Z</time>
      </trkpt>
      <trkpt lat="41.776716" lon="2.750512">
        <ele>4.20</ele>
        <time>2018-01-02T10:53:36Z</time>
      </trkpt>
      <trkpt lat="41.776670" lon="2.750494">
        <ele>4.00</ele>
        <time>2018-01-02T10:53:37Z</time>
      </trkpt>
      <trkpt lat="41.776525" lon="2.750454">
        <ele>3.80</ele>
        <time>2018-01-02T10:53:40Z</time>
      </trkpt>
      <trkpt lat="41.776420" lon="2.750451">
        <ele>3.00</ele>
        <time>2018-01-02T10:53:42Z</time>
      </trkpt>
      <trkpt lat="41.776253" lon="2.750472">
        <ele>2.00</ele>
        <time>2018-01-02T10:53:45Z</time>
      </trkpt>
      <trkpt lat="41.776194" lon="2.750483">
        <ele>1.60</ele>
        <time>2018-01-02T10:53:46Z</time>
      </trkpt>
      <trkpt lat="41.776073" lon="2.750510">
        <ele>1.00</ele>
        <time>2018-01-02T10:53:48Z</time>
      </trkpt>
      <trkpt lat="41.776014" lon="2.750529">
        <ele>0.80</ele>
        <time>2018-01-02T10:53:49Z</time>
      </trkpt>
      <trkpt lat="41.775883" lon="2.750540">
        <ele>1.60</ele>
        <time>2018-01-02T10:53:51Z</time>
      </trkpt>
      <trkpt lat="41.775809" lon="2.750522">
        <ele>2.00</ele>
        <time>2018-01-02T10:53:52Z</time>
      </trkpt>
      <trkpt lat="41.775634" lon="2.750329">
        <ele>2.20</ele>
        <time>2018-01-02T10:53:55Z</time>
      </trkpt>
      <trkpt lat="41.775527" lon="2.750176">
        <ele>2.60</ele>
        <time>2018-01-02T10:53:57Z</time>
      </trkpt>
      <trkpt lat="41.775417" lon="2.750025">
        <ele>3.00</ele>
        <time>2018-01-02T10:53:59Z</time>
      </trkpt>
      <trkpt lat="41.775362" lon="2.749948">
        <ele>3.20</ele>
        <time>2018-01-02T10:54:00Z</time>
      </trkpt>
      <trkpt lat="41.775309" lon="2.749872">
        <ele>3.80</ele>
        <time>2018-01-02T10:54:01Z</time>
      </trkpt>
      <trkpt lat="41.775255" lon="2.749798">
        <ele>4.20</ele>
        <time>2018-01-02T10:54:02Z</time>
      </trkpt>
      <trkpt lat="41.775204" lon="2.749728">
        <ele>4.80</ele>
        <time>2018-01-02T10:54:03Z</time>
      </trkpt>
      <trkpt lat="41.775145" lon="2.749575">
        <ele>5.80</ele>
        <time>2018-01-02T10:54:05Z</time>
      </trkpt>
      <trkpt lat="41.775151" lon="2.749499">
        <ele>6.40</ele>
        <time>2018-01-02T10:54:06Z</time>
      </trkpt>
      <trkpt lat="41.775177" lon="2.749416">
        <ele>6.80</ele>
        <time>2018-01-02T10:54:07Z</time>
      </trkpt>
      <trkpt lat="41.775242" lon="2.749250">
        <ele>7.40</ele>
        <time>2018-01-02T10:54:09Z</time>
      </trkpt>
      <trkpt lat="41.775248" lon="2.749168">
        <ele>8.20</ele>
        <time>2018-01-02T10:54:10Z</time>
      </trkpt>
      <trkpt lat="41.775244" lon="2.749087">
        <ele>9.80</ele>
        <time>2018-01-02T10:54:11Z</time>
      </trkpt>
      <trkpt lat="41.775229" lon="2.749008">
        <ele>10.20</ele>
        <time>2018-01-02T10:54:12Z</time>
      </trkpt>
      <trkpt lat="41.775201" lon="2.748930">
        <ele>10.20</ele>
        <time>2018-01-02T10:54:13Z</time>
      </trkpt>
      <trkpt lat="41.775136" lon="2.748766">
        <ele>10.40</ele>
        <time>2018-01-02T10:54:15Z</time>
      </trkpt>
      <trkpt lat="41.775075" lon="2.748594">
        <ele>10.60</ele>
        <time>2018-01-02T10:54:17Z</time>
      </trkpt>
      <trkpt lat="41.775032" lon="2.748403">
        <ele>10.80</ele>
        <time>2018-01-02T10:54:19Z</time>
      </trkpt>
      <trkpt lat="41.775037" lon="2.748082">
        <ele>11.40</ele>
        <time>2018-01-02T10:54:22Z</time>
      </trkpt>
      <trkpt lat="41.775049" lon="2.747975">
        <ele>11.40</ele>
        <time>2018-01-02T10:54:23Z</time>
      </trkpt>
      <trkpt lat="41.775054" lon="2.747652">
        <ele>12.40</ele>
        <time>2018-01-02T10:54:26Z</time>
      </trkpt>
      <trkpt lat="41.774997" lon="2.747449">
        <ele>13.40</ele>
        <time>2018-01-02T10:54:28Z</time>
      </trkpt>
      <trkpt lat="41.774957" lon="2.747355">
        <ele>13.60</ele>
        <time>2018-01-02T10:54:29Z</time>
      </trkpt>
      <trkpt lat="41.774864" lon="2.747184">
        <ele>14.00</ele>
        <time>2018-01-02T10:54:31Z</time>
      </trkpt>
      <trkpt lat="41.774772" lon="2.747012">
        <ele>14.60</ele>
        <time>2018-01-02T10:54:33Z</time>
      </trkpt>
      <trkpt lat="41.774689" lon="2.746835">
        <ele>15.80</ele>
        <time>2018-01-02T10:54:35Z</time>
      </trkpt>
      <trkpt lat="41.774642" lon="2.746754">
        <ele>16.40</ele>
        <time>2018-01-02T10:54:36Z</time>
      </trkpt>
      <trkpt lat="41.774533" lon="2.746618">
        <ele>17.40</ele>
        <time>2018-01-02T10:54:38Z</time>
      </trkpt>
      <trkpt lat="41.774469" lon="2.746572">
        <ele>17.80</ele>
        <time>2018-01-02T10:54:39Z</time>
      </trkpt>
      <trkpt lat="41.774398" lon="2.746548">
        <ele>18.60</ele>
        <time>2018-01-02T10:54:40Z</time>
      </trkpt>
      <trkpt lat="41.774257" lon="2.746509">
        <ele>19.80</ele>
        <time>2018-01-02T10:54:42Z</time>
      </trkpt>
      <trkpt lat="41.774123" lon="2.746463">
        <ele>21.00</ele>
        <time>2018-01-02T10:54:44Z</time>
      </trkpt>
      <trkpt lat="41.773689" lon="2.746308">
        <ele>21.40</ele>
        <time>2018-01-02T10:54:53Z</time>
      </trkpt>
      <trkpt lat="41.773599" lon="2.746275">
        <ele>21.20</ele>
        <time>2018-01-02T10:54:55Z</time>
      </trkpt>
      <trkpt lat="41.773461" lon="2.746247">
        <ele>20.80</ele>
        <time>2018-01-02T10:54:58Z</time>
      </trkpt>
      <trkpt lat="41.773370" lon="2.746241">
        <ele>20.20</ele>
        <time>2018-01-02T10:55:00Z</time>
      </trkpt>
      <trkpt lat="41.773194" lon="2.746255">
        <ele>19.40</ele>
        <time>2018-01-02T10:55:04Z</time>
      </trkpt>
      <trkpt lat="41.773063" lon="2.746282">
        <ele>19.00</ele>
        <time>2018-01-02T10:55:07Z</time>
      </trkpt>
      <trkpt lat="41.772849" lon="2.746342">
        <ele>18.40</ele>
        <time>2018-01-02T10:55:12Z</time>
      </trkpt>
      <trkpt lat="41.772771" lon="2.746368">
        <ele>17.80</ele>
        <time>2018-01-02T10:55:14Z</time>
      </trkpt>
      <trkpt lat="41.772483" lon="2.746427">
        <ele>17.20</ele>
        <time>2018-01-02T10:55:21Z</time>
      </trkpt>
      <trkpt lat="41.772444" lon="2.746432">
        <ele>17.20</ele>
        <time>2018-01-02T10:55:22Z</time>
      </trkpt>
      <trkpt lat="41.772284" lon="2.746486">
        <ele>17.00</ele>
        <time>2018-01-02T10:55:26Z</time>
      </trkpt>
      <trkpt lat="41.772237" lon="2.746495">
        <ele>17.00</ele>
        <time>2018-01-02T10:55:27Z</time>
      </trkpt>
      <trkpt lat="41.772096" lon="2.746514">
        <ele>17.00</ele>
        <time>2018-01-02T10:55:30Z</time>
      </trkpt>
      <trkpt lat="41.772023" lon="2.746470">
        <ele>16.80</ele>
        <time>2018-01-02T10:55:32Z</time>
      </trkpt>
      <trkpt lat="41.772008" lon="2.746425">
        <ele>16.60</ele>
        <time>2018-01-02T10:55:33Z</time>
      </trkpt>
      <trkpt lat="41.772008" lon="2.746372">
        <ele>16.20</ele>
        <time>2018-01-02T10:55:34Z</time>
      </trkpt>
      <trkpt lat="41.772065" lon="2.746171">
        <ele>15.00</ele>
        <time>2018-01-02T10:55:38Z</time>
      </trkpt>
      <trkpt lat="41.772090" lon="2.746062">
        <ele>14.20</ele>
        <time>2018-01-02T10:55:40Z</time>
      </trkpt>
      <trkpt lat="41.772103" lon="2.746006">
        <ele>14.00</ele>
        <time>2018-01-02T10:55:41Z</time>
      </trkpt>
      <trkpt lat="41.772139" lon="2.745835">
        <ele>12.80</ele>
        <time>2018-01-02T10:55:44Z</time>
      </trkpt>
      <trkpt lat="41.772155" lon="2.745774">
        <ele>12.60</ele>
        <time>2018-01-02T10:55:45Z</time>
      </trkpt>
      <trkpt lat="41.772164" lon="2.745708">
        <ele>12.20</ele>
        <time>2018-01-02T10:55:46Z</time>
      </trkpt>
      <trkpt lat="41.772180" lon="2.745423">
        <ele>11.60</ele>
        <time>2018-01-02T10:55:50Z</time>
      </trkpt>
      <trkpt lat="41.772181" lon="2.745347">
        <ele>11.20</ele>
        <time>2018-01-02T10:55:51Z</time>
      </trkpt>
      <trkpt lat="41.772167" lon="2.744845">
        <ele>10.40</ele>
        <time>2018-01-02T10:55:57Z</time>
      </trkpt>
      <trkpt lat="41.772164" lon="2.744657">
        <ele>10.20</ele>
        <time>2018-01-02T10:55:59Z</time>
      </trkpt>
      <trkpt lat="41.772149" lon="2.744246">
        <ele>10.20</ele>
        <time>2018-01-02T10:56:03Z</time>
      </trkpt>
      <trkpt lat="41.772148" lon="2.744140">
        <ele>10.20</ele>
        <time>2018-01-02T10:56:04Z</time>
      </trkpt>
      <trkpt lat="41.772137" lon="2.743807">
        <ele>10.40</ele>
        <time>2018-01-02T10:56:07Z</time>
      </trkpt>
      <trkpt lat="41.772123" lon="2.743457">
        <ele>11.60</ele>
        <time>2018-01-02T10:56:10Z</time>
      </trkpt>
      <trkpt lat="41.772119" lon="2.743338">
        <ele>12.60</ele>
        <time>2018-01-02T10:56:11Z</time>
      </trkpt>
      <trkpt lat="41.772113" lon="2.743103">
        <ele>14.20</ele>
        <time>2018-01-02T10:56:13Z</time>
      </trkpt>
      <trkpt lat="41.772109" lon="2.742881">
        <ele>15.60</ele>
        <time>2018-01-02T10:56:15Z</time>
      </trkpt>
      <trkpt lat="41.772100" lon="2.742681">
        <ele>16.80</ele>
        <time>2018-01-02T10:56:17Z</time>
      </trkpt>
      <trkpt lat="41.772099" lon="2.742504">
        <ele>17.60</ele>
        <time>2018-01-02T10:56:19Z</time>
      </trkpt>
      <trkpt lat="41.772097" lon="2.742423">
        <ele>17.80</ele>
        <time>2018-01-02T10:56:20Z</time>
      </trkpt>
      <trkpt lat="41.772031" lon="2.742233">
        <ele>18.00</ele>
        <time>2018-01-02T10:56:23Z</time>
      </trkpt>
      <trkpt lat="41.771935" lon="2.742208">
        <ele>18.40</ele>
        <time>2018-01-02T10:56:25Z</time>
      </trkpt>
      <trkpt lat="41.771846" lon="2.742234">
        <ele>18.60</ele>
        <time>2018-01-02T10:56:27Z</time>
      </trkpt>
      <trkpt lat="41.771585" lon="2.742306">
        <ele>18.40</ele>
        <time>2018-01-02T10:56:34Z</time>
      </trkpt>
      <trkpt lat="41.771551" lon="2.742318">
        <ele>18.00</ele>
        <time>2018-01-02T10:56:35Z</time>
      </trkpt>
      <trkpt lat="41.771482" lon="2.742343">
        <ele>17.60</ele>
        <time>2018-01-02T10:56:37Z</time>
      </trkpt>
      <trkpt lat="41.771374" lon="2.742363">
        <ele>17.40</ele>
        <time>2018-01-02T10:56:40Z</time>
      </trkpt>
      <trkpt lat="41.771289" lon="2.742315">
        <ele>17.40</ele>
        <time>2018-01-02T10:56:43Z</time>
      </trkpt>
      <trkpt lat="41.771280" lon="2.742283">
        <ele>17.20</ele>
        <time>2018-01-02T10:56:44Z</time>
      </trkpt>
      <trkpt lat="41.771282" lon="2.742248">
        <ele>17.00</ele>
        <time>2018-01-02T10:56:45Z</time>
      </trkpt>
      <trkpt lat="41.771331" lon="2.742156">
        <ele>16.20</ele>
        <time>2018-01-02T10:56:48Z</time>
      </trkpt>
      <trkpt lat="41.771353" lon="2.742125">
        <ele>16.00</ele>
        <time>2018-01-02T10:56:49Z</time>
      </trkpt>
      <trkpt lat="41.771408" lon="2.742022">
        <ele>14.80</ele>
        <time>2018-01-02T10:56:52Z</time>
      </trkpt>
      <trkpt lat="41.771449" lon="2.741863">
        <ele>13.80</ele>
        <time>2018-01-02T10:56:56Z</time>
      </trkpt>
      <trkpt lat="41.771502" lon="2.741832">
        <ele>13.40</ele>
        <time>2018-01-02T10:56:58Z</time>
      </trkpt>
      <trkpt lat="41.771567" lon="2.741796">
        <ele>12.60</ele>
        <time>2018-01-02T10:57:01Z</time>
      </trkpt>
      <trkpt lat="41.771617" lon="2.741755">
        <ele>12.00</ele>
        <time>2018-01-02T10:57:03Z</time>
      </trkpt>
      <trkpt lat="41.771708" lon="2.741694">
        <ele>10.80</ele>
        <time>2018-01-02T10:57:06Z</time>
      </trkpt>
      <trkpt lat="41.771741" lon="2.741665">
        <ele>10.80</ele>
        <time>2018-01-02T10:57:07Z</time>
      </trkpt>
      <trkpt lat="41.771859" lon="2.741603">
        <ele>10.80</ele>
        <time>2018-01-02T10:57:10Z</time>
      </trkpt>
      <trkpt lat="41.771937" lon="2.741569">
        <ele>10.60</ele>
        <time>2018-01-02T10:57:12Z</time>
      </trkpt>
      <trkpt lat="41.772210" lon="2.741343">
        <ele>9.80</ele>
        <time>2018-01-02T10:57:20Z</time>
      </trkpt>
      <trkpt lat="41.772240" lon="2.741312">
        <ele>9.80</ele>
        <time>2018-01-02T10:57:21Z</time>
      </trkpt>
      <trkpt lat="41.772393" lon="2.741160">
        <ele>8.60</ele>
        <time>2018-01-02T10:57:26Z</time>
      </trkpt>
      <trkpt lat="41.772426" lon="2.741133">
        <ele>8.40</ele>
        <time>2018-01-02T10:57:27Z</time>
      </trkpt>
      <trkpt lat="41.772460" lon="2.741108">
        <ele>8.20</ele>
        <time>2018-01-02T10:57:28Z</time>
      </trkpt>
      <trkpt lat="41.772526" lon="2.741069">
        <ele>7.60</ele>
        <time>2018-01-02T10:57:30Z</time>
      </trkpt>
      <trkpt lat="41.772553" lon="2.741045">
        <ele>7.20</ele>
        <time>2018-01-02T10:57:31Z</time>
      </trkpt>
      <trkpt lat="41.772599" lon="2.740927">
        <ele>6.20</ele>
        <time>2018-01-02T10:57:34Z</time>
      </trkpt>
      <trkpt lat="41.772596" lon="2.740883">
        <ele>5.80</ele>
        <time>2018-01-02T10:57:35Z</time>
      </trkpt>
      <trkpt lat="41.772569" lon="2.740801">
        <ele>5.00</ele>
        <time>2018-01-02T10:57:37Z</time>
      </trkpt>
      <trkpt lat="41.772510" lon="2.740733">
        <ele>4.40</ele>
        <time>2018-01-02T10:57:39Z</time>
      </trkpt>
      <trkpt lat="41.772474" lon="2.740707">
        <ele>4.00</ele>
        <time>2018-01-02T10:57:40Z</time>
      </trkpt>
      <trkpt lat="41.772266" lon="2.740627">
        <ele>2.80</ele>
        <time>2018-01-02T10:57:45Z</time>
      </trkpt>
      <trkpt lat="41.772175" lon="2.740594">
        <ele>2.20</ele>
        <time>2018-01-02T10:57:47Z</time>
      </trkpt>
      <trkpt lat="41.772132" lon="2.740575">
        <ele>2.00</ele>
        <time>2018-01-02T10:57:48Z</time>
      </trkpt>
      <trkpt lat="41.772091" lon="2.740552">
        <ele>1.60</ele>
        <time>2018-01-02T10:57:49Z</time>
      </trkpt>
      <trkpt lat="41.771975" lon="2.740443">
        <ele>1.20</ele>
        <time>2018-01-02T10:57:52Z</time>
      </trkpt>
      <trkpt lat="41.771906" lon="2.740346">
        <ele>0.80</ele>
        <time>2018-01-02T10:57:54Z</time>
      </trkpt>
      <trkpt lat="41.771857" lon="2.740220">
        <ele>0.60</ele>
        <time>2018-01-02T10:57:56Z</time>
      </trkpt>
      <trkpt lat="41.771821" lon="2.740088">
        <ele>0.20</ele>
        <time>2018-01-02T10:57:58Z</time>
      </trkpt>
      <trkpt lat="41.771759" lon="2.739595">
        <ele>-0.40</ele>
        <time>2018-01-02T10:58:06Z</time>
      </trkpt>
      <trkpt lat="41.771749" lon="2.739527">
        <ele>-0.40</ele>
        <time>2018-01-02T10:58:07Z</time>
      </trkpt>
      <trkpt lat="41.771700" lon="2.739336">
        <ele>-1.40</ele>
        <time>2018-01-02T10:58:10Z</time>
      </trkpt>
      <trkpt lat="41.771672" lon="2.739278">
        <ele>-1.60</ele>
        <time>2018-01-02T10:58:11Z</time>
      </trkpt>
      <trkpt lat="41.771559" lon="2.739138">
        <ele>-2.60</ele>
        <time>2018-01-02T10:58:14Z</time>
      </trkpt>
      <trkpt lat="41.771515" lon="2.739098">
        <ele>-3.00</ele>
        <time>2018-01-02T10:58:15Z</time>
      </trkpt>
      <trkpt lat="41.771373" lon="2.738984">
        <ele>-3.80</ele>
        <time>2018-01-02T10:58:18Z</time>
      </trkpt>
      <trkpt lat="41.771318" lon="2.738951">
        <ele>-4.00</ele>
        <time>2018-01-02T10:58:19Z</time>
      </trkpt>
      <trkpt lat="41.771159" lon="2.738864">
        <ele>-5.40</ele>
        <time>2018-01-02T10:58:22Z</time>
      </trkpt>
      <trkpt lat="41.771108" lon="2.738817">
        <ele>-5.60</ele>
        <time>2018-01-02T10:58:23Z</time>
      </trkpt>
      <trkpt lat="41.771058" lon="2.738758">
        <ele>-5.60</ele>
        <time>2018-01-02T10:58:24Z</time>
      </trkpt>
      <trkpt lat="41.770827" lon="2.738542">
        <ele>-5.20</ele>
        <time>2018-01-02T10:58:28Z</time>
      </trkpt>
      <trkpt lat="41.770436" lon="2.738231">
        <ele>-5.00</ele>
        <time>2018-01-02T10:58:34Z</time>
      </trkpt>
      <trkpt lat="41.770045" lon="2.737804">
        <ele>-5.00</ele>
        <time>2018-01-02T10:58:40Z</time>
      </trkpt>
      <trkpt lat="41.769915" lon="2.737654">
        <ele>-3.80</ele>
        <time>2018-01-02T10:58:42Z</time>
      </trkpt>
      <trkpt lat="41.769725" lon="2.737429">
        <ele>-2.80</ele>
        <time>2018-01-02T10:58:45Z</time>
      </trkpt>
      <trkpt lat="41.769659" lon="2.737364">
        <ele>-2.80</ele>
        <time>2018-01-02T10:58:46Z</time>
      </trkpt>
      <trkpt lat="41.769464" lon="2.737167">
        <ele>-2.40</ele>
        <time>2018-01-02T10:58:49Z</time>
      </trkpt>
      <trkpt lat="41.769206" lon="2.736859">
        <ele>-1.80</ele>
        <time>2018-01-02T10:58:53Z</time>
      </trkpt>
      <trkpt lat="41.768998" lon="2.736643">
        <ele>-1.00</ele>
        <time>2018-01-02T10:58:56Z</time>
      </trkpt>
      <trkpt lat="41.768784" lon="2.736444">
        <ele>-0.60</ele>
        <time>2018-01-02T10:58:59Z</time>
      </trkpt>
      <trkpt lat="41.768713" lon="2.736374">
        <ele>-0.20</ele>
        <time>2018-01-02T10:59:00Z</time>
      </trkpt>
      <trkpt lat="41.768495" lon="2.736166">
        <ele>0.60</ele>
        <time>2018-01-02T10:59:03Z</time>
      </trkpt>
      <trkpt lat="41.768428" lon="2.736091">
        <ele>0.80</ele>
        <time>2018-01-02T10:59:04Z</time>
      </trkpt>
      <trkpt lat="41.768308" lon="2.735918">
        <ele>2.00</ele>
        <time>2018-01-02T10:59:06Z</time>
      </trkpt>
      <trkpt lat="41.768069" lon="2.735562">
        <ele>3.80</ele>
        <time>2018-01-02T10:59:10Z</time>
      </trkpt>
      <trkpt lat="41.767757" lon="2.735183">
        <ele>5.40</ele>
        <time>2018-01-02T10:59:15Z</time>
      </trkpt>
      <trkpt lat="41.767564" lon="2.734963">
        <ele>6.40</ele>
        <time>2018-01-02T10:59:18Z</time>
      </trkpt>
      <trkpt lat="41.767378" lon="2.734728">
        <ele>7.60</ele>
        <time>2018-01-02T10:59:21Z</time>
      </trkpt>
      <trkpt lat="41.767258" lon="2.734570">
        <ele>8.20</ele>
        <time>2018-01-02T10:59:23Z</time>
      </trkpt>
      <trkpt lat="41.767076" lon="2.734321">
        <ele>8.80</ele>
        <time>2018-01-02T10:59:26Z</time>
      </trkpt>
      <trkpt lat="41.766825" lon="2.733992">
        <ele>10.40</ele>
        <time>2018-01-02T10:59:30Z</time>
      </trkpt>
      <trkpt lat="41.766698" lon="2.733820">
        <ele>11.60</ele>
        <time>2018-01-02T10:59:32Z</time>
      </trkpt>
      <trkpt lat="41.766576" lon="2.733636">
        <ele>12.20</ele>
        <time>2018-01-02T10:59:34Z</time>
      </trkpt>
      <trkpt lat="41.766448" lon="2.733458">
        <ele>12.80</ele>
        <time>2018-01-02T10:59:36Z</time>
      </trkpt>
      <trkpt lat="41.766383" lon="2.733378">
        <ele>12.80</ele>
        <time>2018-01-02T10:59:37Z</time>
      </trkpt>
      <trkpt lat="41.766316" lon="2.733296">
        <ele>13.20</ele>
        <time>2018-01-02T10:59:38Z</time>
      </trkpt>
      <trkpt lat="41.766183" lon="2.733121">
        <ele>14.00</ele>
        <time>2018-01-02T10:59:40Z</time>
      </trkpt>
      <trkpt lat="41.766052" lon="2.732942">
        <ele>14.80</ele>
        <time>2018-01-02T10:59:42Z</time>
      </trkpt>
      <trkpt lat="41.765993" lon="2.732850">
        <ele>15.20</ele>
        <time>2018-01-02T10:59:43Z</time>
      </trkpt>
      <trkpt lat="41.765883" lon="2.732669">
        <ele>16.80</ele>
        <time>2018-01-02T10:59:45Z</time>
      </trkpt>
      <trkpt lat="41.765840" lon="2.732577">
        <ele>17.80</ele>
        <time>2018-01-02T10:59:46Z</time>
      </trkpt>
      <trkpt lat="41.765736" lon="2.732329">
        <ele>19.40</ele>
        <time>2018-01-02T10:59:49Z</time>
      </trkpt>
      <trkpt lat="41.765661" lon="2.732281">
        <ele>20.40</ele>
        <time>2018-01-02T10:59:51Z</time>
      </trkpt>
      <trkpt lat="41.765601" lon="2.732382">
        <ele>21.40</ele>
        <time>2018-01-02T10:59:53Z</time>
      </trkpt>
      <trkpt lat="41.765575" lon="2.732463">
        <ele>22.20</ele>
        <time>2018-01-02T10:59:54Z</time>
      </trkpt>
      <trkpt lat="41.765490" lon="2.732642">
        <ele>23.00</ele>
        <time>2018-01-02T10:59:56Z</time>
      </trkpt>
      <trkpt lat="41.765441" lon="2.732719">
        <ele>23.40</ele>
        <time>2018-01-02T10:59:57Z</time>
      </trkpt>
      <trkpt lat="41.765382" lon="2.732779">
        <ele>24.00</ele>
        <time>2018-01-02T10:59:58Z</time>
      </trkpt>
      <trkpt lat="41.765256" lon="2.732859">
        <ele>25.20</ele>
        <time>2018-01-02T11:00:00Z</time>
      </trkpt>
      <trkpt lat="41.765133" lon="2.732840">
        <ele>26.80</ele>
        <time>2018-01-02T11:00:02Z</time>
      </trkpt>
      <trkpt lat="41.765044" lon="2.732720">
        <ele>28.80</ele>
        <time>2018-01-02T11:00:04Z</time>
      </trkpt>
      <trkpt lat="41.765017" lon="2.732643">
        <ele>30.00</ele>
        <time>2018-01-02T11:00:05Z</time>
      </trkpt>
      <trkpt lat="41.765000" lon="2.732560">
        <ele>30.40</ele>
        <time>2018-01-02T11:00:06Z</time>
      </trkpt>
      <trkpt lat="41.764996" lon="2.732476">
        <ele>30.80</ele>
        <time>2018-01-02T11:00:07Z</time>
      </trkpt>
      <trkpt lat="41.765024" lon="2.732333">
        <ele>31.00</ele>
        <time>2018-01-02T11:00:09Z</time>
      </trkpt>
      <trkpt lat="41.765093" lon="2.732151">
        <ele>31.00</ele>
        <time>2018-01-02T11:00:12Z</time>
      </trkpt>
      <trkpt lat="41.765101" lon="2.732089">
        <ele>31.60</ele>
        <time>2018-01-02T11:00:13Z</time>
      </trkpt>
      <trkpt lat="41.765068" lon="2.731945">
        <ele>32.80</ele>
        <time>2018-01-02T11:00:15Z</time>
      </trkpt>
      <trkpt lat="41.764994" lon="2.731745">
        <ele>34.00</ele>
        <time>2018-01-02T11:00:17Z</time>
      </trkpt>
      <trkpt lat="41.764907" lon="2.731507">
        <ele>35.00</ele>
        <time>2018-01-02T11:00:19Z</time>
      </trkpt>
      <trkpt lat="41.764852" lon="2.731393">
        <ele>35.20</ele>
        <time>2018-01-02T11:00:20Z</time>
      </trkpt>
      <trkpt lat="41.764696" lon="2.731197">
        <ele>36.40</ele>
        <time>2018-01-02T11:00:22Z</time>
      </trkpt>
      <trkpt lat="41.764604" lon="2.731106">
        <ele>37.40</ele>
        <time>2018-01-02T11:00:23Z</time>
      </trkpt>
      <trkpt lat="41.764509" lon="2.731008">
        <ele>39.00</ele>
        <time>2018-01-02T11:00:24Z</time>
      </trkpt>
      <trkpt lat="41.764422" lon="2.730907">
        <ele>40.40</ele>
        <time>2018-01-02T11:00:25Z</time>
      </trkpt>
      <trkpt lat="41.764338" lon="2.730810">
        <ele>42.00</ele>
        <time>2018-01-02T11:00:26Z</time>
      </trkpt>
      <trkpt lat="41.764160" lon="2.730672">
        <ele>44.20</ele>
        <time>2018-01-02T11:00:28Z</time>
      </trkpt>
      <trkpt lat="41.764064" lon="2.730641">
        <ele>45.20</ele>
        <time>2018-01-02T11:00:29Z</time>
      </trkpt>
      <trkpt lat="41.763967" lon="2.730634">
        <ele>46.00</ele>
        <time>2018-01-02T11:00:30Z</time>
      </trkpt>
      <trkpt lat="41.763869" lon="2.730640">
        <ele>47.40</ele>
        <time>2018-01-02T11:00:31Z</time>
      </trkpt>
      <trkpt lat="41.763771" lon="2.730664">
        <ele>48.80</ele>
        <time>2018-01-02T11:00:32Z</time>
      </trkpt>
      <trkpt lat="41.763675" lon="2.730707">
        <ele>50.20</ele>
        <time>2018-01-02T11:00:33Z</time>
      </trkpt>
      <trkpt lat="41.763509" lon="2.730839">
        <ele>51.80</ele>
        <time>2018-01-02T11:00:35Z</time>
      </trkpt>
      <trkpt lat="41.763437" lon="2.730913">
        <ele>52.60</ele>
        <time>2018-01-02T11:00:36Z</time>
      </trkpt>
      <trkpt lat="41.763369" lon="2.730990">
        <ele>52.80</ele>
        <time>2018-01-02T11:00:37Z</time>
      </trkpt>
      <trkpt lat="41.763151" lon="2.731171">
        <ele>53.40</ele>
        <time>2018-01-02T11:00:40Z</time>
      </trkpt>
      <trkpt lat="41.763077" lon="2.731207">
        <ele>53.20</ele>
        <time>2018-01-02T11:00:41Z</time>
      </trkpt>
      <trkpt lat="41.762843" lon="2.731331">
        <ele>52.80</ele>
        <time>2018-01-02T11:00:44Z</time>
      </trkpt>
      <trkpt lat="41.762778" lon="2.731416">
        <ele>52.80</ele>
        <time>2018-01-02T11:00:45Z</time>
      </trkpt>
      <trkpt lat="41.762721" lon="2.731519">
        <ele>53.00</ele>
        <time>2018-01-02T11:00:46Z</time>
      </trkpt>
      <trkpt lat="41.762634" lon="2.731771">
        <ele>54.40</ele>
        <time>2018-01-02T11:00:48Z</time>
      </trkpt>
      <trkpt lat="41.762581" lon="2.731899">
        <ele>55.60</ele>
        <time>2018-01-02T11:00:49Z</time>
      </trkpt>
      <trkpt lat="41.762454" lon="2.732121">
        <ele>57.20</ele>
        <time>2018-01-02T11:00:51Z</time>
      </trkpt>
      <trkpt lat="41.762311" lon="2.732257">
        <ele>58.40</ele>
        <time>2018-01-02T11:00:53Z</time>
      </trkpt>
      <trkpt lat="41.762258" lon="2.732333">
        <ele>59.40</ele>
        <time>2018-01-02T11:00:54Z</time>
      </trkpt>
      <trkpt lat="41.762198" lon="2.732530">
        <ele>60.00</ele>
        <time>2018-01-02T11:00:56Z</time>
      </trkpt>
      <trkpt lat="41.762145" lon="2.732751">
        <ele>60.20</ele>
        <time>2018-01-02T11:00:58Z</time>
      </trkpt>
      <trkpt lat="41.762106" lon="2.732861">
        <ele>60.20</ele>
        <time>2018-01-02T11:00:59Z</time>
      </trkpt>
      <trkpt lat="41.761999" lon="2.733076">
        <ele>61.80</ele>
        <time>2018-01-02T11:01:01Z</time>
      </trkpt>
      <trkpt lat="41.761854" lon="2.733224">
        <ele>63.00</ele>
        <time>2018-01-02T11:01:03Z</time>
      </trkpt>
      <trkpt lat="41.761699" lon="2.733326">
        <ele>63.80</ele>
        <time>2018-01-02T11:01:05Z</time>
      </trkpt>
      <trkpt lat="41.761620" lon="2.733361">
        <ele>64.20</ele>
        <time>2018-01-02T11:01:06Z</time>
      </trkpt>
      <trkpt lat="41.761462" lon="2.733386">
        <ele>65.00</ele>
        <time>2018-01-02T11:01:08Z</time>
      </trkpt>
      <trkpt lat="41.761391" lon="2.733361">
        <ele>65.60</ele>
        <time>2018-01-02T11:01:09Z</time>
      </trkpt>
      <trkpt lat="41.761325" lon="2.733310">
        <ele>65.60</ele>
        <time>2018-01-02T11:01:10Z</time>
      </trkpt>
      <trkpt lat="41.761267" lon="2.733241">
        <ele>65.80</ele>
        <time>2018-01-02T11:01:11Z</time>
      </trkpt>
      <trkpt lat="41.761048" lon="2.732874">
        <ele>66.60</ele>
        <time>2018-01-02T11:01:15Z</time>
      </trkpt>
      <trkpt lat="41.760984" lon="2.732786">
        <ele>67.00</ele>
        <time>2018-01-02T11:01:16Z</time>
      </trkpt>
      <trkpt lat="41.760843" lon="2.732618">
        <ele>68.00</ele>
        <time>2018-01-02T11:01:18Z</time>
      </trkpt>
      <trkpt lat="41.760640" lon="2.732391">
        <ele>69.40</ele>
        <time>2018-01-02T11:01:21Z</time>
      </trkpt>
      <trkpt lat="41.760577" lon="2.732326">
        <ele>69.80</ele>
        <time>2018-01-02T11:01:22Z</time>
      </trkpt>
      <trkpt lat="41.760392" lon="2.732164">
        <ele>70.00</ele>
        <time>2018-01-02T11:01:25Z</time>
      </trkpt>
      <trkpt lat="41.760202" lon="2.732171">
        <ele>69.40</ele>
        <time>2018-01-02T11:01:28Z</time>
      </trkpt>
      <trkpt lat="41.760148" lon="2.732232">
        <ele>69.00</ele>
        <time>2018-01-02T11:01:29Z</time>
      </trkpt>
      <trkpt lat="41.760030" lon="2.732370">
        <ele>68.60</ele>
        <time>2018-01-02T11:01:31Z</time>
      </trkpt>
      <trkpt lat="41.759957" lon="2.732426">
        <ele>68.60</ele>
        <time>2018-01-02T11:01:32Z</time>
      </trkpt>
      <trkpt lat="41.759699" lon="2.732530">
        <ele>68.60</ele>
        <time>2018-01-02T11:01:35Z</time>
      </trkpt>
      <trkpt lat="41.759609" lon="2.732566">
        <ele>68.60</ele>
        <time>2018-01-02T11:01:36Z</time>
      </trkpt>
      <trkpt lat="41.759359" lon="2.732770">
        <ele>68.40</ele>
        <time>2018-01-02T11:01:39Z</time>
      </trkpt>
      <trkpt lat="41.759269" lon="2.732838">
        <ele>69.00</ele>
        <time>2018-01-02T11:01:40Z</time>
      </trkpt>
      <trkpt lat="41.759168" lon="2.732886">
        <ele>69.60</ele>
        <time>2018-01-02T11:01:41Z</time>
      </trkpt>
      <trkpt lat="41.758965" lon="2.732942">
        <ele>71.00</ele>
        <time>2018-01-02T11:01:43Z</time>
      </trkpt>
      <trkpt lat="41.758867" lon="2.732973">
        <ele>71.40</ele>
        <time>2018-01-02T11:01:44Z</time>
      </trkpt>
      <trkpt lat="41.758670" lon="2.733019">
        <ele>72.20</ele>
        <time>2018-01-02T11:01:46Z</time>
      </trkpt>
      <trkpt lat="41.758569" lon="2.733023">
        <ele>72.40</ele>
        <time>2018-01-02T11:01:47Z</time>
      </trkpt>
      <trkpt lat="41.758473" lon="2.733010">
        <ele>73.40</ele>
        <time>2018-01-02T11:01:48Z</time>
      </trkpt>
      <trkpt lat="41.758383" lon="2.732964">
        <ele>74.40</ele>
        <time>2018-01-02T11:01:49Z</time>
      </trkpt>
      <trkpt lat="41.758298" lon="2.732897">
        <ele>75.80</ele>
        <time>2018-01-02T11:01:50Z</time>
      </trkpt>
      <trkpt lat="41.758212" lon="2.732820">
        <ele>77.00</ele>
        <time>2018-01-02T11:01:51Z</time>
      </trkpt>
      <trkpt lat="41.758121" lon="2.732733">
        <ele>78.20</ele>
        <time>2018-01-02T11:01:52Z</time>
      </trkpt>
      <trkpt lat="41.758026" lon="2.732650">
        <ele>79.40</ele>
        <time>2018-01-02T11:01:53Z</time>
      </trkpt>
      <trkpt lat="41.757928" lon="2.732584">
        <ele>80.80</ele>
        <time>2018-01-02T11:01:54Z</time>
      </trkpt>
      <trkpt lat="41.757835" lon="2.732524">
        <ele>81.80</ele>
        <time>2018-01-02T11:01:55Z</time>
      </trkpt>
      <trkpt lat="41.757662" lon="2.732391">
        <ele>83.80</ele>
        <time>2018-01-02T11:01:57Z</time>
      </trkpt>
      <trkpt lat="41.757501" lon="2.732268">
        <ele>85.20</ele>
        <time>2018-01-02T11:01:59Z</time>
      </trkpt>
      <trkpt lat="41.757356" lon="2.732158">
        <ele>86.40</ele>
        <time>2018-01-02T11:02:01Z</time>
      </trkpt>
      <trkpt lat="41.757296" lon="2.732096">
        <ele>87.20</ele>
        <time>2018-01-02T11:02:02Z</time>
      </trkpt>
      <trkpt lat="41.757246" lon="2.732031">
        <ele>87.80</ele>
        <time>2018-01-02T11:02:03Z</time>
      </trkpt>
      <trkpt lat="41.757141" lon="2.731943">
        <ele>89.40</ele>
        <time>2018-01-02T11:02:05Z</time>
      </trkpt>
      <trkpt lat="41.757085" lon="2.731916">
        <ele>90.20</ele>
        <time>2018-01-02T11:02:06Z</time>
      </trkpt>
      <trkpt lat="41.757020" lon="2.731893">
        <ele>90.40</ele>
        <time>2018-01-02T11:02:07Z</time>
      </trkpt>
      <trkpt lat="41.756873" lon="2.731864">
        <ele>92.00</ele>
        <time>2018-01-02T11:02:09Z</time>
      </trkpt>
      <trkpt lat="41.756709" lon="2.731844">
        <ele>93.80</ele>
        <time>2018-01-02T11:02:11Z</time>
      </trkpt>
      <trkpt lat="41.756419" lon="2.731812">
        <ele>95.20</ele>
        <time>2018-01-02T11:02:15Z</time>
      </trkpt>
      <trkpt lat="41.756292" lon="2.731790">
        <ele>95.60</ele>
        <time>2018-01-02T11:02:17Z</time>
      </trkpt>
      <trkpt lat="41.756103" lon="2.731761">
        <ele>96.00</ele>
        <time>2018-01-02T11:02:20Z</time>
      </trkpt>
      <trkpt lat="41.756044" lon="2.731782">
        <ele>96.40</ele>
        <time>2018-01-02T11:02:21Z</time>
      </trkpt>
      <trkpt lat="41.755939" lon="2.731908">
        <ele>97.80</ele>
        <time>2018-01-02T11:02:23Z</time>
      </trkpt>
      <trkpt lat="41.755827" lon="2.732070">
        <ele>99.60</ele>
        <time>2018-01-02T11:02:25Z</time>
      </trkpt>
      <trkpt lat="41.755767" lon="2.732131">
        <ele>100.40</ele>
        <time>2018-01-02T11:02:26Z</time>
      </trkpt>
      <trkpt lat="41.755710" lon="2.732161">
        <ele>100.80</ele>
        <time>2018-01-02T11:02:27Z</time>
      </trkpt>
      <trkpt lat="41.755653" lon="2.732184">
        <ele>101.60</ele>
        <time>2018-01-02T11:02:28Z</time>
      </trkpt>
      <trkpt lat="41.755590" lon="2.732196">
        <ele>102.00</ele>
        <time>2018-01-02T11:02:29Z</time>
      </trkpt>
      <trkpt lat="41.755518" lon="2.732201">
        <ele>102.60</ele>
        <time>2018-01-02T11:02:30Z</time>
      </trkpt>
      <trkpt lat="41.755441" lon="2.732198">
        <ele>103.20</ele>
        <time>2018-01-02T11:02:31Z</time>
      </trkpt>
      <trkpt lat="41.755276" lon="2.732180">
        <ele>104.40</ele>
        <time>2018-01-02T11:02:33Z</time>
      </trkpt>
      <trkpt lat="41.755199" lon="2.732174">
        <ele>105.00</ele>
        <time>2018-01-02T11:02:34Z</time>
      </trkpt>
      <trkpt lat="41.755129" lon="2.732173">
        <ele>105.80</ele>
        <time>2018-01-02T11:02:35Z</time>
      </trkpt>
      <trkpt lat="41.755062" lon="2.732178">
        <ele>107.00</ele>
        <time>2018-01-02T11:02:36Z</time>
      </trkpt>
      <trkpt lat="41.754948" lon="2.732188">
        <ele>108.00</ele>
        <time>2018-01-02T11:02:38Z</time>
      </trkpt>
      <trkpt lat="41.754890" lon="2.732198">
        <ele>108.20</ele>
        <time>2018-01-02T11:02:39Z</time>
      </trkpt>
      <trkpt lat="41.754831" lon="2.732203">
        <ele>108.60</ele>
        <time>2018-01-02T11:02:40Z</time>
      </trkpt>
      <trkpt lat="41.754715" lon="2.732210">
        <ele>109.00</ele>
        <time>2018-01-02T11:02:42Z</time>
      </trkpt>
      <trkpt lat="41.754605" lon="2.732212">
        <ele>109.20</ele>
        <time>2018-01-02T11:02:44Z</time>
      </trkpt>
      <trkpt lat="41.754370" lon="2.732252">
        <ele>109.80</ele>
        <time>2018-01-02T11:02:49Z</time>
      </trkpt>
      <trkpt lat="41.754338" lon="2.732262">
        <ele>110.00</ele>
        <time>2018-01-02T11:02:50Z</time>
      </trkpt>
      <trkpt lat="41.754313" lon="2.732267">
        <ele>110.00</ele>
        <time>2018-01-02T11:02:51Z</time>
      </trkpt>
      <trkpt lat="41.754242" lon="2.732298">
        <ele>109.80</ele>
        <time>2018-01-02T11:03:25Z</time>
      </trkpt>
      <trkpt lat="41.754201" lon="2.732308">
        <ele>110.00</ele>
        <time>2018-01-02T11:03:29Z</time>
      </trkpt>
      <trkpt lat="41.754143" lon="2.732319">
        <ele>110.20</ele>
        <time>2018-01-02T11:03:32Z</time>
      </trkpt>
      <trkpt lat="41.754117" lon="2.732324">
        <ele>110.40</ele>
        <time>2018-01-02T11:03:34Z</time>
      </trkpt>
      <trkpt lat="41.754090" lon="2.732333">
        <ele>110.40</ele>
        <time>2018-01-02T11:03:36Z</time>
      </trkpt>
      <trkpt lat="41.754064" lon="2.732349">
        <ele>110.60</ele>
        <time>2018-01-02T11:03:38Z</time>
      </trkpt>
      <trkpt lat="41.753965" lon="2.732395">
        <ele>110.60</ele>
        <time>2018-01-02T11:04:16Z</time>
      </trkpt>
      <trkpt lat="41.753940" lon="2.732403">
        <ele>110.80</ele>
        <time>2018-01-02T11:04:19Z</time>
      </trkpt>
      <trkpt lat="41.753905" lon="2.732408">
        <ele>111.00</ele>
        <time>2018-01-02T11:04:20Z</time>
      </trkpt>
      <trkpt lat="41.753723" lon="2.732449">
        <ele>112.00</ele>
        <time>2018-01-02T11:04:24Z</time>
      </trkpt>
      <trkpt lat="41.753668" lon="2.732459">
        <ele>112.20</ele>
        <time>2018-01-02T11:04:25Z</time>
      </trkpt>
      <trkpt lat="41.753495" lon="2.732463">
        <ele>113.40</ele>
        <time>2018-01-02T11:04:29Z</time>
      </trkpt>
      <trkpt lat="41.753351" lon="2.732464">
        <ele>113.20</ele>
        <time>2018-01-02T11:04:34Z</time>
      </trkpt>
      <trkpt lat="41.753211" lon="2.732604">
        <ele>112.40</ele>
        <time>2018-01-02T11:04:40Z</time>
      </trkpt>
      <trkpt lat="41.753107" lon="2.732721">
        <ele>111.20</ele>
        <time>2018-01-02T11:04:45Z</time>
      </trkpt>
      <trkpt lat="41.753040" lon="2.732778">
        <ele>110.00</ele>
        <time>2018-01-02T11:04:48Z</time>
      </trkpt>
      <trkpt lat="41.752912" lon="2.732855">
        <ele>109.00</ele>
        <time>2018-01-02T11:04:53Z</time>
      </trkpt>
      <trkpt lat="41.752886" lon="2.732861">
        <ele>109.00</ele>
        <time>2018-01-02T11:04:54Z</time>
      </trkpt>
      <trkpt lat="41.752722" lon="2.732870">
        <ele>108.20</ele>
        <time>2018-01-02T11:05:00Z</time>
      </trkpt>
      <trkpt lat="41.752664" lon="2.732860">
        <ele>107.80</ele>
        <time>2018-01-02T11:05:02Z</time>
      </trkpt>
      <trkpt lat="41.752494" lon="2.732831">
        <ele>107.00</ele>
        <time>2018-01-02T11:05:08Z</time>
      </trkpt>
      <trkpt lat="41.752415" lon="2.732836">
        <ele>106.80</ele>
        <time>2018-01-02T11:05:11Z</time>
      </trkpt>
      <trkpt lat="41.752341" lon="2.732841">
        <ele>106.00</ele>
        <time>2018-01-02T11:05:14Z</time>
      </trkpt>
      <trkpt lat="41.752315" lon="2.732835">
        <ele>105.80</ele>
        <time>2018-01-02T11:05:15Z</time>
      </trkpt>
      <trkpt lat="41.752212" lon="2.732741">
        <ele>105.20</ele>
        <time>2018-01-02T11:05:19Z</time>
      </trkpt>
      <trkpt lat="41.752071" lon="2.732670">
        <ele>105.00</ele>
        <time>2018-01-02T11:05:23Z</time>
      </trkpt>
      <trkpt lat="41.752035" lon="2.732679">
        <ele>104.60</ele>
        <time>2018-01-02T11:05:24Z</time>
      </trkpt>
      <trkpt lat="41.751912" lon="2.732734">
        <ele>103.60</ele>
        <time>2018-01-02T11:05:28Z</time>
      </trkpt>
      <trkpt lat="41.751883" lon="2.732746">
        <ele>103.40</ele>
        <time>2018-01-02T11:05:29Z</time>
      </trkpt>
      <trkpt lat="41.751810" lon="2.732801">
        <ele>102.80</ele>
        <time>2018-01-02T11:05:33Z</time>
      </trkpt>
      <trkpt lat="41.751823" lon="2.732840">
        <ele>102.80</ele>
        <time>2018-01-02T11:05:35Z</time>
      </trkpt>
      <trkpt lat="41.751869" lon="2.732854">
        <ele>103.00</ele>
        <time>2018-01-02T11:05:37Z</time>
      </trkpt>
      <trkpt lat="41.751889" lon="2.732852">
        <ele>103.00</ele>
        <time>2018-01-02T11:05:38Z</time>
      </trkpt>
      <trkpt lat="41.751912" lon="2.732882">
        <ele>103.20</ele>
        <time>2018-01-02T11:05:41Z</time>
      </trkpt>
      <trkpt lat="41.751901" lon="2.732887">
        <ele>103.20</ele>
        <time>2018-01-02T11:05:42Z</time>
      </trkpt>
      <trkpt lat="41.751816" lon="2.732849">
        <ele>102.60</ele>
        <time>2018-01-02T11:05:46Z</time>
      </trkpt>
      <trkpt lat="41.751786" lon="2.732845">
        <ele>102.60</ele>
        <time>2018-01-02T11:05:47Z</time>
      </trkpt>
      <trkpt lat="41.751726" lon="2.732854">
        <ele>102.20</ele>
        <time>2018-01-02T11:05:49Z</time>
      </trkpt>
      <trkpt lat="41.751656" lon="2.732876">
        <ele>102.00</ele>
        <time>2018-01-02T11:05:51Z</time>
      </trkpt>
      <trkpt lat="41.751495" lon="2.732907">
        <ele>101.40</ele>
        <time>2018-01-02T11:05:55Z</time>
      </trkpt>
      <trkpt lat="41.751371" lon="2.732923">
        <ele>101.40</ele>
        <time>2018-01-02T11:05:58Z</time>
      </trkpt>
      <trkpt lat="41.751077" lon="2.732930">
        <ele>101.20</ele>
        <time>2018-01-02T11:06:05Z</time>
      </trkpt>
      <trkpt lat="41.750996" lon="2.732912">
        <ele>101.20</ele>
        <time>2018-01-02T11:06:07Z</time>
      </trkpt>
      <trkpt lat="41.750842" lon="2.732842">
        <ele>101.00</ele>
        <time>2018-01-02T11:06:11Z</time>
      </trkpt>
      <trkpt lat="41.750730" lon="2.732791">
        <ele>100.40</ele>
        <time>2018-01-02T11:06:14Z</time>
      </trkpt>
      <trkpt lat="41.750525" lon="2.732715">
        <ele>99.20</ele>
        <time>2018-01-02T11:06:20Z</time>
      </trkpt>
      <trkpt lat="41.750396" lon="2.732667">
        <ele>98.20</ele>
        <time>2018-01-02T11:06:24Z</time>
      </trkpt>
      <trkpt lat="41.750338" lon="2.732644">
        <ele>97.60</ele>
        <time>2018-01-02T11:06:26Z</time>
      </trkpt>
      <trkpt lat="41.750308" lon="2.732636">
        <ele>97.00</ele>
        <time>2018-01-02T11:06:27Z</time>
      </trkpt>
      <trkpt lat="41.750152" lon="2.732644">
        <ele>95.80</ele>
        <time>2018-01-02T11:06:31Z</time>
      </trkpt>
      <trkpt lat="41.750067" lon="2.732661">
        <ele>95.60</ele>
        <time>2018-01-02T11:06:33Z</time>
      </trkpt>
      <trkpt lat="41.750025" lon="2.732672">
        <ele>95.80</ele>
        <time>2018-01-02T11:06:34Z</time>
      </trkpt>
      <trkpt lat="41.749984" lon="2.732681">
        <ele>95.60</ele>
        <time>2018-01-02T11:06:35Z</time>
      </trkpt>
      <trkpt lat="41.749943" lon="2.732685">
        <ele>95.00</ele>
        <time>2018-01-02T11:06:36Z</time>
      </trkpt>
      <trkpt lat="41.749863" lon="2.732685">
        <ele>95.40</ele>
        <time>2018-01-02T11:06:38Z</time>
      </trkpt>
      <trkpt lat="41.749532" lon="2.732589">
        <ele>94.80</ele>
        <time>2018-01-02T11:06:46Z</time>
      </trkpt>
      <trkpt lat="41.749419" lon="2.732551">
        <ele>94.60</ele>
        <time>2018-01-02T11:06:49Z</time>
      </trkpt>
      <trkpt lat="41.749345" lon="2.732508">
        <ele>94.20</ele>
        <time>2018-01-02T11:06:51Z</time>
      </trkpt>
      <trkpt lat="41.749250" lon="2.732334">
        <ele>93.40</ele>
        <time>2018-01-02T11:06:55Z</time>
      </trkpt>
      <trkpt lat="41.749207" lon="2.732225">
        <ele>93.00</ele>
        <time>2018-01-02T11:06:57Z</time>
      </trkpt>
      <trkpt lat="41.749159" lon="2.732109">
        <ele>92.80</ele>
        <time>2018-01-02T11:06:59Z</time>
      </trkpt>
      <trkpt lat="41.749088" lon="2.731920">
        <ele>92.60</ele>
        <time>2018-01-02T11:07:02Z</time>
      </trkpt>
      <trkpt lat="41.749069" lon="2.731854">
        <ele>92.40</ele>
        <time>2018-01-02T11:07:03Z</time>
      </trkpt>
      <trkpt lat="41.749056" lon="2.731785">
        <ele>92.40</ele>
        <time>2018-01-02T11:07:04Z</time>
      </trkpt>
      <trkpt lat="41.749041" lon="2.731647">
        <ele>91.80</ele>
        <time>2018-01-02T11:07:06Z</time>
      </trkpt>
      <trkpt lat="41.749009" lon="2.731450">
        <ele>91.20</ele>
        <time>2018-01-02T11:07:09Z</time>
      </trkpt>
      <trkpt lat="41.748995" lon="2.731386">
        <ele>90.80</ele>
        <time>2018-01-02T11:07:10Z</time>
      </trkpt>
      <trkpt lat="41.748970" lon="2.731248">
        <ele>90.80</ele>
        <time>2018-01-02T11:07:12Z</time>
      </trkpt>
      <trkpt lat="41.748951" lon="2.730878">
        <ele>90.60</ele>
        <time>2018-01-02T11:07:17Z</time>
      </trkpt>
      <trkpt lat="41.748945" lon="2.730645">
        <ele>90.40</ele>
        <time>2018-01-02T11:07:20Z</time>
      </trkpt>
      <trkpt lat="41.748916" lon="2.730244">
        <ele>89.80</ele>
        <time>2018-01-02T11:07:25Z</time>
      </trkpt>
      <trkpt lat="41.748869" lon="2.729762">
        <ele>90.00</ele>
        <time>2018-01-02T11:07:31Z</time>
      </trkpt>
      <trkpt lat="41.748734" lon="2.729258">
        <ele>90.00</ele>
        <time>2018-01-02T11:07:37Z</time>
      </trkpt>
      <trkpt lat="41.748664" lon="2.729099">
        <ele>90.00</ele>
        <time>2018-01-02T11:07:39Z</time>
      </trkpt>
      <trkpt lat="41.748509" lon="2.728817">
        <ele>90.40</ele>
        <time>2018-01-02T11:07:43Z</time>
      </trkpt>
      <trkpt lat="41.748464" lon="2.728749">
        <ele>90.80</ele>
        <time>2018-01-02T11:07:44Z</time>
      </trkpt>
      <trkpt lat="41.748274" lon="2.728517">
        <ele>91.00</ele>
        <time>2018-01-02T11:07:48Z</time>
      </trkpt>
      <trkpt lat="41.748182" lon="2.728405">
        <ele>91.20</ele>
        <time>2018-01-02T11:07:50Z</time>
      </trkpt>
      <trkpt lat="41.748006" lon="2.728186">
        <ele>91.80</ele>
        <time>2018-01-02T11:07:54Z</time>
      </trkpt>
      <trkpt lat="41.747859" lon="2.727969">
        <ele>91.60</ele>
        <time>2018-01-02T11:07:58Z</time>
      </trkpt>
      <trkpt lat="41.747795" lon="2.727850">
        <ele>91.60</ele>
        <time>2018-01-02T11:08:00Z</time>
      </trkpt>
      <trkpt lat="41.747667" lon="2.727525">
        <ele>92.00</ele>
        <time>2018-01-02T11:08:05Z</time>
      </trkpt>
      <trkpt lat="41.747494" lon="2.727176">
        <ele>91.80</ele>
        <time>2018-01-02T11:08:11Z</time>
      </trkpt>
      <trkpt lat="41.747465" lon="2.727121">
        <ele>91.80</ele>
        <time>2018-01-02T11:08:12Z</time>
      </trkpt>
      <trkpt lat="41.747287" lon="2.726832">
        <ele>92.00</ele>
        <time>2018-01-02T11:08:18Z</time>
      </trkpt>
      <trkpt lat="41.747170" lon="2.726712">
        <ele>92.00</ele>
        <time>2018-01-02T11:08:23Z</time>
      </trkpt>
      <trkpt lat="41.747152" lon="2.726700">
        <ele>92.00</ele>
        <time>2018-01-02T11:08:24Z</time>
      </trkpt>
      <trkpt lat="41.747124" lon="2.726674">
        <ele>92.20</ele>
        <time>2018-01-02T11:08:26Z</time>
      </trkpt>
      <trkpt lat="41.747073" lon="2.726636">
        <ele>92.60</ele>
        <time>2018-01-02T11:08:52Z</time>
      </trkpt>
      <trkpt lat="41.747023" lon="2.726545">
        <ele>93.00</ele>
        <time>2018-01-02T11:08:57Z</time>
      </trkpt>
      <trkpt lat="41.747015" lon="2.726531">
        <ele>93.00</ele>
        <time>2018-01-02T11:08:58Z</time>
      </trkpt>
      <trkpt lat="41.746951" lon="2.726514">
        <ele>93.60</ele>
        <time>2018-01-02T11:09:01Z</time>
      </trkpt>
      <trkpt lat="41.746846" lon="2.726392">
        <ele>94.00</ele>
        <time>2018-01-02T11:09:06Z</time>
      </trkpt>
      <trkpt lat="41.746736" lon="2.726261">
        <ele>94.20</ele>
        <time>2018-01-02T11:09:11Z</time>
      </trkpt>
      <trkpt lat="41.746713" lon="2.726250">
        <ele>94.20</ele>
        <time>2018-01-02T11:09:12Z</time>
      </trkpt>
      <trkpt lat="41.746672" lon="2.726186">
        <ele>94.00</ele>
        <time>2018-01-02T11:09:15Z</time>
      </trkpt>
      <trkpt lat="41.746665" lon="2.726154">
        <ele>94.00</ele>
        <time>2018-01-02T11:09:16Z</time>
      </trkpt>
      <trkpt lat="41.746601" lon="2.726060">
        <ele>94.40</ele>
        <time>2018-01-02T11:09:20Z</time>
      </trkpt>
      <trkpt lat="41.746586" lon="2.726045">
        <ele>94.40</ele>
        <time>2018-01-02T11:09:21Z</time>
      </trkpt>
      <trkpt lat="41.746557" lon="2.726025">
        <ele>94.80</ele>
        <time>2018-01-02T11:12:08Z</time>
      </trkpt>
      <trkpt lat="41.746534" lon="2.726009">
        <ele>94.80</ele>
        <time>2018-01-02T11:12:10Z</time>
      </trkpt>
      <trkpt lat="41.746519" lon="2.725995">
        <ele>94.80</ele>
        <time>2018-01-02T11:12:11Z</time>
      </trkpt>
      <trkpt lat="41.746451" lon="2.725967">
        <ele>95.00</ele>
        <time>2018-01-02T11:12:14Z</time>
      </trkpt>
      <trkpt lat="41.746274" lon="2.725935">
        <ele>95.20</ele>
        <time>2018-01-02T11:12:18Z</time>
      </trkpt>
      <trkpt lat="41.746229" lon="2.725927">
        <ele>95.00</ele>
        <time>2018-01-02T11:12:19Z</time>
      </trkpt>
      <trkpt lat="41.745863" lon="2.725758">
        <ele>94.40</ele>
        <time>2018-01-02T11:12:27Z</time>
      </trkpt>
      <trkpt lat="41.745637" lon="2.725628">
        <ele>94.00</ele>
        <time>2018-01-02T11:12:32Z</time>
      </trkpt>
      <trkpt lat="41.745467" lon="2.725522">
        <ele>93.20</ele>
        <time>2018-01-02T11:12:36Z</time>
      </trkpt>
      <trkpt lat="41.745384" lon="2.725469">
        <ele>92.80</ele>
        <time>2018-01-02T11:12:38Z</time>
      </trkpt>
      <trkpt lat="41.745344" lon="2.725442">
        <ele>92.60</ele>
        <time>2018-01-02T11:12:39Z</time>
      </trkpt>
      <trkpt lat="41.745231" lon="2.725331">
        <ele>91.80</ele>
        <time>2018-01-02T11:12:42Z</time>
      </trkpt>
      <trkpt lat="41.745196" lon="2.725292">
        <ele>91.80</ele>
        <time>2018-01-02T11:12:43Z</time>
      </trkpt>
      <trkpt lat="41.745132" lon="2.725208">
        <ele>91.40</ele>
        <time>2018-01-02T11:12:45Z</time>
      </trkpt>
      <trkpt lat="41.744997" lon="2.725046">
        <ele>91.00</ele>
        <time>2018-01-02T11:12:49Z</time>
      </trkpt>
      <trkpt lat="41.744902" lon="2.724944">
        <ele>90.60</ele>
        <time>2018-01-02T11:12:52Z</time>
      </trkpt>
      <trkpt lat="41.744851" lon="2.724857">
        <ele>90.40</ele>
        <time>2018-01-02T11:12:54Z</time>
      </trkpt>
      <trkpt lat="41.744776" lon="2.724692">
        <ele>89.60</ele>
        <time>2018-01-02T11:12:58Z</time>
      </trkpt>
      <trkpt lat="41.744723" lon="2.724438">
        <ele>88.20</ele>
        <time>2018-01-02T11:13:03Z</time>
      </trkpt>
      <trkpt lat="41.744698" lon="2.724016">
        <ele>87.20</ele>
        <time>2018-01-02T11:13:11Z</time>
      </trkpt>
      <trkpt lat="41.744683" lon="2.723867">
        <ele>86.80</ele>
        <time>2018-01-02T11:13:14Z</time>
      </trkpt>
      <trkpt lat="41.744679" lon="2.723771">
        <ele>86.20</ele>
        <time>2018-01-02T11:13:16Z</time>
      </trkpt>
      <trkpt lat="41.744613" lon="2.723600">
        <ele>85.00</ele>
        <time>2018-01-02T11:13:20Z</time>
      </trkpt>
      <trkpt lat="41.744579" lon="2.723569">
        <ele>85.00</ele>
        <time>2018-01-02T11:13:21Z</time>
      </trkpt>
      <trkpt lat="41.744540" lon="2.723547">
        <ele>84.80</ele>
        <time>2018-01-02T11:13:22Z</time>
      </trkpt>
      <trkpt lat="41.744413" lon="2.723526">
        <ele>84.20</ele>
        <time>2018-01-02T11:13:25Z</time>
      </trkpt>
      <trkpt lat="41.744239" lon="2.723543">
        <ele>84.20</ele>
        <time>2018-01-02T11:13:29Z</time>
      </trkpt>
      <trkpt lat="41.744198" lon="2.723537">
        <ele>84.20</ele>
        <time>2018-01-02T11:13:30Z</time>
      </trkpt>
      <trkpt lat="41.744088" lon="2.723465">
        <ele>83.80</ele>
        <time>2018-01-02T11:13:33Z</time>
      </trkpt>
      <trkpt lat="41.743925" lon="2.723318">
        <ele>82.80</ele>
        <time>2018-01-02T11:13:38Z</time>
      </trkpt>
      <trkpt lat="41.743895" lon="2.723283">
        <ele>82.80</ele>
        <time>2018-01-02T11:13:39Z</time>
      </trkpt>
      <trkpt lat="41.743745" lon="2.723136">
        <ele>81.80</ele>
        <time>2018-01-02T11:13:44Z</time>
      </trkpt>
      <trkpt lat="41.743716" lon="2.723110">
        <ele>81.60</ele>
        <time>2018-01-02T11:13:45Z</time>
      </trkpt>
      <trkpt lat="41.743595" lon="2.723011">
        <ele>80.60</ele>
        <time>2018-01-02T11:13:49Z</time>
      </trkpt>
      <trkpt lat="41.743542" lon="2.722963">
        <ele>80.00</ele>
        <time>2018-01-02T11:13:51Z</time>
      </trkpt>
      <trkpt lat="41.743498" lon="2.722912">
        <ele>79.40</ele>
        <time>2018-01-02T11:13:53Z</time>
      </trkpt>
      <trkpt lat="41.743456" lon="2.722802">
        <ele>78.40</ele>
        <time>2018-01-02T11:13:56Z</time>
      </trkpt>
      <trkpt lat="41.743421" lon="2.722731">
        <ele>78.00</ele>
        <time>2018-01-02T11:13:58Z</time>
      </trkpt>
      <trkpt lat="41.743334" lon="2.722640">
        <ele>77.40</ele>
        <time>2018-01-02T11:14:02Z</time>
      </trkpt>
      <trkpt lat="41.743308" lon="2.722623">
        <ele>77.00</ele>
        <time>2018-01-02T11:14:03Z</time>
      </trkpt>
      <trkpt lat="41.743202" lon="2.722578">
        <ele>75.80</ele>
        <time>2018-01-02T11:14:07Z</time>
      </trkpt>
      <trkpt lat="41.743144" lon="2.722562">
        <ele>75.20</ele>
        <time>2018-01-02T11:14:09Z</time>
      </trkpt>
      <trkpt lat="41.743041" lon="2.722548">
        <ele>74.60</ele>
        <time>2018-01-02T11:14:12Z</time>
      </trkpt>
      <trkpt lat="41.742896" lon="2.722516">
        <ele>74.00</ele>
        <time>2018-01-02T11:14:16Z</time>
      </trkpt>
      <trkpt lat="41.742696" lon="2.722469">
        <ele>73.40</ele>
        <time>2018-01-02T11:14:22Z</time>
      </trkpt>
      <trkpt lat="41.742663" lon="2.722461">
        <ele>73.40</ele>
        <time>2018-01-02T11:14:23Z</time>
      </trkpt>
      <trkpt lat="41.742602" lon="2.722476">
        <ele>73.40</ele>
        <time>2018-01-02T11:14:25Z</time>
      </trkpt>
      <trkpt lat="41.742557" lon="2.722515">
        <ele>73.00</ele>
        <time>2018-01-02T11:14:27Z</time>
      </trkpt>
      <trkpt lat="41.742519" lon="2.722564">
        <ele>72.40</ele>
        <time>2018-01-02T11:14:29Z</time>
      </trkpt>
      <trkpt lat="41.742443" lon="2.722624">
        <ele>71.80</ele>
        <time>2018-01-02T11:14:32Z</time>
      </trkpt>
      <trkpt lat="41.742415" lon="2.722636">
        <ele>71.40</ele>
        <time>2018-01-02T11:14:33Z</time>
      </trkpt>
      <trkpt lat="41.742330" lon="2.722636">
        <ele>70.00</ele>
        <time>2018-01-02T11:14:36Z</time>
      </trkpt>
      <trkpt lat="41.742245" lon="2.722619">
        <ele>68.80</ele>
        <time>2018-01-02T11:14:39Z</time>
      </trkpt>
      <trkpt lat="41.742172" lon="2.722621">
        <ele>67.60</ele>
        <time>2018-01-02T11:14:42Z</time>
      </trkpt>
      <trkpt lat="41.742120" lon="2.722635">
        <ele>66.80</ele>
        <time>2018-01-02T11:14:44Z</time>
      </trkpt>
      <trkpt lat="41.742088" lon="2.722637">
        <ele>66.40</ele>
        <time>2018-01-02T11:14:45Z</time>
      </trkpt>
      <trkpt lat="41.741965" lon="2.722592">
        <ele>65.20</ele>
        <time>2018-01-02T11:14:49Z</time>
      </trkpt>
      <trkpt lat="41.741878" lon="2.722545">
        <ele>64.60</ele>
        <time>2018-01-02T11:14:52Z</time>
      </trkpt>
      <trkpt lat="41.741799" lon="2.722496">
        <ele>64.00</ele>
        <time>2018-01-02T11:14:55Z</time>
      </trkpt>
      <trkpt lat="41.741715" lon="2.722467">
        <ele>63.00</ele>
        <time>2018-01-02T11:14:58Z</time>
      </trkpt>
      <trkpt lat="41.741657" lon="2.722450">
        <ele>62.60</ele>
        <time>2018-01-02T11:15:00Z</time>
      </trkpt>
      <trkpt lat="41.741627" lon="2.722441">
        <ele>62.00</ele>
        <time>2018-01-02T11:15:01Z</time>
      </trkpt>
      <trkpt lat="41.741451" lon="2.722405">
        <ele>60.80</ele>
        <time>2018-01-02T11:15:07Z</time>
      </trkpt>
      <trkpt lat="41.741345" lon="2.722398">
        <ele>59.60</ele>
        <time>2018-01-02T11:15:11Z</time>
      </trkpt>
      <trkpt lat="41.741260" lon="2.722377">
        <ele>58.80</ele>
        <time>2018-01-02T11:15:14Z</time>
      </trkpt>
      <trkpt lat="41.741201" lon="2.722372">
        <ele>58.40</ele>
        <time>2018-01-02T11:15:16Z</time>
      </trkpt>
      <trkpt lat="41.741045" lon="2.722349">
        <ele>57.20</ele>
        <time>2018-01-02T11:15:21Z</time>
      </trkpt>
      <trkpt lat="41.741013" lon="2.722348">
        <ele>57.00</ele>
        <time>2018-01-02T11:15:22Z</time>
      </trkpt>
      <trkpt lat="41.740858" lon="2.722357">
        <ele>56.20</ele>
        <time>2018-01-02T11:15:27Z</time>
      </trkpt>
      <trkpt lat="41.740759" lon="2.722366">
        <ele>55.80</ele>
        <time>2018-01-02T11:15:30Z</time>
      </trkpt>
      <trkpt lat="41.740636" lon="2.722392">
        <ele>55.00</ele>
        <time>2018-01-02T11:15:34Z</time>
      </trkpt>
      <trkpt lat="41.740545" lon="2.722425">
        <ele>54.40</ele>
        <time>2018-01-02T11:15:37Z</time>
      </trkpt>
      <trkpt lat="41.740411" lon="2.722436">
        <ele>53.80</ele>
        <time>2018-01-02T11:15:42Z</time>
      </trkpt>
      <trkpt lat="41.740387" lon="2.722430">
        <ele>53.60</ele>
        <time>2018-01-02T11:15:43Z</time>
      </trkpt>
      <trkpt lat="41.740312" lon="2.722413">
        <ele>52.80</ele>
        <time>2018-01-02T11:15:46Z</time>
      </trkpt>
      <trkpt lat="41.740234" lon="2.722395">
        <ele>51.60</ele>
        <time>2018-01-02T11:15:49Z</time>
      </trkpt>
      <trkpt lat="41.740185" lon="2.722387">
        <ele>51.20</ele>
        <time>2018-01-02T11:15:51Z</time>
      </trkpt>
      <trkpt lat="41.740134" lon="2.722394">
        <ele>50.60</ele>
        <time>2018-01-02T11:15:53Z</time>
      </trkpt>
      <trkpt lat="41.740053" lon="2.722453">
        <ele>49.40</ele>
        <time>2018-01-02T11:15:57Z</time>
      </trkpt>
      <trkpt lat="41.739970" lon="2.722515">
        <ele>48.40</ele>
        <time>2018-01-02T11:16:01Z</time>
      </trkpt>
      <trkpt lat="41.739936" lon="2.722545">
        <ele>47.40</ele>
        <time>2018-01-02T11:16:03Z</time>
      </trkpt>
      <trkpt lat="41.739918" lon="2.722568">
        <ele>47.00</ele>
        <time>2018-01-02T11:16:04Z</time>
      </trkpt>
      <trkpt lat="41.739840" lon="2.722669">
        <ele>45.80</ele>
        <time>2018-01-02T11:16:08Z</time>
      </trkpt>
      <trkpt lat="41.739798" lon="2.722724">
        <ele>45.20</ele>
        <time>2018-01-02T11:16:10Z</time>
      </trkpt>
      <trkpt lat="41.739747" lon="2.722765">
        <ele>44.40</ele>
        <time>2018-01-02T11:16:12Z</time>
      </trkpt>
      <trkpt lat="41.739663" lon="2.722800">
        <ele>43.20</ele>
        <time>2018-01-02T11:16:15Z</time>
      </trkpt>
      <trkpt lat="41.739573" lon="2.722828">
        <ele>42.80</ele>
        <time>2018-01-02T11:16:18Z</time>
      </trkpt>
      <trkpt lat="41.739519" lon="2.722850">
        <ele>42.20</ele>
        <time>2018-01-02T11:16:20Z</time>
      </trkpt>
      <trkpt lat="41.739460" lon="2.722859">
        <ele>41.60</ele>
        <time>2018-01-02T11:16:22Z</time>
      </trkpt>
      <trkpt lat="41.739379" lon="2.722838">
        <ele>40.80</ele>
        <time>2018-01-02T11:16:25Z</time>
      </trkpt>
      <trkpt lat="41.739351" lon="2.722827">
        <ele>40.40</ele>
        <time>2018-01-02T11:16:26Z</time>
      </trkpt>
      <trkpt lat="41.739200" lon="2.722805">
        <ele>39.00</ele>
        <time>2018-01-02T11:16:31Z</time>
      </trkpt>
      <trkpt lat="41.739168" lon="2.722797">
        <ele>38.60</ele>
        <time>2018-01-02T11:16:32Z</time>
      </trkpt>
      <trkpt lat="41.739005" lon="2.722762">
        <ele>38.00</ele>
        <time>2018-01-02T11:16:37Z</time>
      </trkpt>
      <trkpt lat="41.738918" lon="2.722751">
        <ele>37.40</ele>
        <time>2018-01-02T11:16:40Z</time>
      </trkpt>
      <trkpt lat="41.738856" lon="2.722732">
        <ele>37.00</ele>
        <time>2018-01-02T11:16:42Z</time>
      </trkpt>
      <trkpt lat="41.738756" lon="2.722668">
        <ele>35.80</ele>
        <time>2018-01-02T11:16:46Z</time>
      </trkpt>
      <trkpt lat="41.738734" lon="2.722647">
        <ele>35.40</ele>
        <time>2018-01-02T11:16:47Z</time>
      </trkpt>
      <trkpt lat="41.738613" lon="2.722540">
        <ele>34.60</ele>
        <time>2018-01-02T11:16:52Z</time>
      </trkpt>
      <trkpt lat="41.738593" lon="2.722523">
        <ele>34.20</ele>
        <time>2018-01-02T11:16:53Z</time>
      </trkpt>
      <trkpt lat="41.738519" lon="2.722473">
        <ele>33.40</ele>
        <time>2018-01-02T11:16:56Z</time>
      </trkpt>
      <trkpt lat="41.738469" lon="2.722435">
        <ele>33.00</ele>
        <time>2018-01-02T11:16:58Z</time>
      </trkpt>
      <trkpt lat="41.738351" lon="2.722387">
        <ele>32.20</ele>
        <time>2018-01-02T11:17:02Z</time>
      </trkpt>
      <trkpt lat="41.738286" lon="2.722371">
        <ele>31.40</ele>
        <time>2018-01-02T11:17:04Z</time>
      </trkpt>
      <trkpt lat="41.738256" lon="2.722364">
        <ele>31.00</ele>
        <time>2018-01-02T11:17:05Z</time>
      </trkpt>
      <trkpt lat="41.738161" lon="2.722329">
        <ele>29.80</ele>
        <time>2018-01-02T11:17:08Z</time>
      </trkpt>
      <trkpt lat="41.738079" lon="2.722283">
        <ele>28.80</ele>
        <time>2018-01-02T11:17:11Z</time>
      </trkpt>
      <trkpt lat="41.738053" lon="2.722266">
        <ele>28.40</ele>
        <time>2018-01-02T11:17:12Z</time>
      </trkpt>
      <trkpt lat="41.737997" lon="2.722225">
        <ele>27.60</ele>
        <time>2018-01-02T11:17:14Z</time>
      </trkpt>
      <trkpt lat="41.737908" lon="2.722168">
        <ele>26.60</ele>
        <time>2018-01-02T11:17:17Z</time>
      </trkpt>
      <trkpt lat="41.737806" lon="2.722120">
        <ele>25.80</ele>
        <time>2018-01-02T11:17:20Z</time>
      </trkpt>
      <trkpt lat="41.737740" lon="2.722107">
        <ele>25.20</ele>
        <time>2018-01-02T11:17:22Z</time>
      </trkpt>
      <trkpt lat="41.737632" lon="2.722096">
        <ele>24.00</ele>
        <time>2018-01-02T11:17:25Z</time>
      </trkpt>
      <trkpt lat="41.737593" lon="2.722088">
        <ele>23.60</ele>
        <time>2018-01-02T11:17:26Z</time>
      </trkpt>
      <trkpt lat="41.737439" lon="2.722046">
        <ele>22.80</ele>
        <time>2018-01-02T11:17:30Z</time>
      </trkpt>
      <trkpt lat="41.737399" lon="2.722031">
        <ele>22.60</ele>
        <time>2018-01-02T11:17:31Z</time>
      </trkpt>
      <trkpt lat="41.737359" lon="2.722013">
        <ele>22.60</ele>
        <time>2018-01-02T11:17:32Z</time>
      </trkpt>
      <trkpt lat="41.737155" lon="2.721913">
        <ele>21.80</ele>
        <time>2018-01-02T11:17:37Z</time>
      </trkpt>
      <trkpt lat="41.737063" lon="2.721920">
        <ele>21.80</ele>
        <time>2018-01-02T11:17:39Z</time>
      </trkpt>
      <trkpt lat="41.737017" lon="2.721927">
        <ele>21.40</ele>
        <time>2018-01-02T11:17:40Z</time>
      </trkpt>
      <trkpt lat="41.736766" lon="2.721949">
        <ele>21.00</ele>
        <time>2018-01-02T11:17:45Z</time>
      </trkpt>
      <trkpt lat="41.736667" lon="2.721941">
        <ele>20.80</ele>
        <time>2018-01-02T11:17:47Z</time>
      </trkpt>
      <trkpt lat="41.736576" lon="2.721901">
        <ele>20.80</ele>
        <time>2018-01-02T11:17:49Z</time>
      </trkpt>
      <trkpt lat="41.736451" lon="2.721834">
        <ele>20.20</ele>
        <time>2018-01-02T11:17:52Z</time>
      </trkpt>
      <trkpt lat="41.736368" lon="2.721787">
        <ele>19.80</ele>
        <time>2018-01-02T11:17:54Z</time>
      </trkpt>
      <trkpt lat="41.736275" lon="2.721729">
        <ele>19.00</ele>
        <time>2018-01-02T11:17:56Z</time>
      </trkpt>
      <trkpt lat="41.736229" lon="2.721694">
        <ele>18.80</ele>
        <time>2018-01-02T11:17:57Z</time>
      </trkpt>
      <trkpt lat="41.736105" lon="2.721560">
        <ele>18.20</ele>
        <time>2018-01-02T11:18:00Z</time>
      </trkpt>
      <trkpt lat="41.735956" lon="2.721345">
        <ele>18.00</ele>
        <time>2018-01-02T11:18:04Z</time>
      </trkpt>
      <trkpt lat="41.735601" lon="2.720939">
        <ele>17.60</ele>
        <time>2018-01-02T11:18:12Z</time>
      </trkpt>
      <trkpt lat="41.735463" lon="2.720789">
        <ele>18.20</ele>
        <time>2018-01-02T11:18:15Z</time>
      </trkpt>
      <trkpt lat="41.735326" lon="2.720643">
        <ele>18.20</ele>
        <time>2018-01-02T11:18:18Z</time>
      </trkpt>
      <trkpt lat="41.735191" lon="2.720490">
        <ele>18.40</ele>
        <time>2018-01-02T11:18:21Z</time>
      </trkpt>
      <trkpt lat="41.735063" lon="2.720341">
        <ele>18.20</ele>
        <time>2018-01-02T11:18:24Z</time>
      </trkpt>
      <trkpt lat="41.734976" lon="2.720271">
        <ele>18.20</ele>
        <time>2018-01-02T11:18:26Z</time>
      </trkpt>
      <trkpt lat="41.734811" lon="2.720131">
        <ele>18.60</ele>
        <time>2018-01-02T11:18:30Z</time>
      </trkpt>
      <trkpt lat="41.734778" lon="2.720087">
        <ele>18.80</ele>
        <time>2018-01-02T11:18:31Z</time>
      </trkpt>
      <trkpt lat="41.734724" lon="2.719988">
        <ele>19.00</ele>
        <time>2018-01-02T11:18:33Z</time>
      </trkpt>
      <trkpt lat="41.734603" lon="2.719747">
        <ele>19.20</ele>
        <time>2018-01-02T11:18:38Z</time>
      </trkpt>
      <trkpt lat="41.734577" lon="2.719697">
        <ele>19.20</ele>
        <time>2018-01-02T11:18:39Z</time>
      </trkpt>
      <trkpt lat="41.734515" lon="2.719604">
        <ele>19.20</ele>
        <time>2018-01-02T11:18:41Z</time>
      </trkpt>
      <trkpt lat="41.734415" lon="2.719490">
        <ele>19.20</ele>
        <time>2018-01-02T11:18:44Z</time>
      </trkpt>
      <trkpt lat="41.734130" lon="2.719253">
        <ele>19.60</ele>
        <time>2018-01-02T11:18:52Z</time>
      </trkpt>
      <trkpt lat="41.734062" lon="2.719197">
        <ele>19.60</ele>
        <time>2018-01-02T11:18:54Z</time>
      </trkpt>
      <trkpt lat="41.733870" lon="2.718997">
        <ele>19.80</ele>
        <time>2018-01-02T11:19:00Z</time>
      </trkpt>
      <trkpt lat="41.733713" lon="2.718814">
        <ele>18.80</ele>
        <time>2018-01-02T11:19:05Z</time>
      </trkpt>
      <trkpt lat="41.733631" lon="2.718684">
        <ele>18.80</ele>
        <time>2018-01-02T11:19:08Z</time>
      </trkpt>
      <trkpt lat="41.733603" lon="2.718641">
        <ele>18.40</ele>
        <time>2018-01-02T11:19:09Z</time>
      </trkpt>
      <trkpt lat="41.733455" lon="2.718409">
        <ele>17.60</ele>
        <time>2018-01-02T11:19:15Z</time>
      </trkpt>
      <trkpt lat="41.733429" lon="2.718376">
        <ele>17.40</ele>
        <time>2018-01-02T11:19:16Z</time>
      </trkpt>
      <trkpt lat="41.733297" lon="2.718205">
        <ele>16.40</ele>
        <time>2018-01-02T11:19:21Z</time>
      </trkpt>
      <trkpt lat="41.733247" lon="2.718143">
        <ele>15.80</ele>
        <time>2018-01-02T11:19:23Z</time>
      </trkpt>
      <trkpt lat="41.733193" lon="2.718083">
        <ele>15.20</ele>
        <time>2018-01-02T11:19:25Z</time>
      </trkpt>
      <trkpt lat="41.733044" lon="2.718014">
        <ele>13.60</ele>
        <time>2018-01-02T11:19:29Z</time>
      </trkpt>
      <trkpt lat="41.733001" lon="2.717997">
        <ele>13.60</ele>
        <time>2018-01-02T11:19:30Z</time>
      </trkpt>
      <trkpt lat="41.732957" lon="2.717981">
        <ele>13.20</ele>
        <time>2018-01-02T11:19:31Z</time>
      </trkpt>
      <trkpt lat="41.732640" lon="2.717887">
        <ele>12.40</ele>
        <time>2018-01-02T11:19:38Z</time>
      </trkpt>
      <trkpt lat="41.732550" lon="2.717879">
        <ele>12.40</ele>
        <time>2018-01-02T11:19:40Z</time>
      </trkpt>
      <trkpt lat="41.732328" lon="2.717841">
        <ele>12.00</ele>
        <time>2018-01-02T11:19:45Z</time>
      </trkpt>
      <trkpt lat="41.732039" lon="2.717723">
        <ele>11.40</ele>
        <time>2018-01-02T11:19:52Z</time>
      </trkpt>
      <trkpt lat="41.732001" lon="2.717703">
        <ele>11.40</ele>
        <time>2018-01-02T11:19:53Z</time>
      </trkpt>
      <trkpt lat="41.731800" lon="2.717645">
        <ele>11.00</ele>
        <time>2018-01-02T11:19:58Z</time>
      </trkpt>
      <trkpt lat="41.731760" lon="2.717635">
        <ele>11.00</ele>
        <time>2018-01-02T11:19:59Z</time>
      </trkpt>
      <trkpt lat="41.731531" lon="2.717609">
        <ele>10.40</ele>
        <time>2018-01-02T11:20:05Z</time>
      </trkpt>
      <trkpt lat="41.731495" lon="2.717601">
        <ele>10.20</ele>
        <time>2018-01-02T11:20:06Z</time>
      </trkpt>
      <trkpt lat="41.731259" lon="2.717453">
        <ele>9.20</ele>
        <time>2018-01-02T11:20:13Z</time>
      </trkpt>
      <trkpt lat="41.731228" lon="2.717428">
        <ele>9.20</ele>
        <time>2018-01-02T11:20:14Z</time>
      </trkpt>
      <trkpt lat="41.731066" lon="2.717293">
        <ele>8.20</ele>
        <time>2018-01-02T11:20:19Z</time>
      </trkpt>
      <trkpt lat="41.730995" lon="2.717252">
        <ele>7.80</ele>
        <time>2018-01-02T11:20:21Z</time>
      </trkpt>
      <trkpt lat="41.730753" lon="2.717199">
        <ele>7.00</ele>
        <time>2018-01-02T11:20:27Z</time>
      </trkpt>
      <trkpt lat="41.730712" lon="2.717195">
        <ele>7.00</ele>
        <time>2018-01-02T11:20:28Z</time>
      </trkpt>
      <trkpt lat="41.730357" lon="2.717065">
        <ele>6.40</ele>
        <time>2018-01-02T11:20:37Z</time>
      </trkpt>
      <trkpt lat="41.730039" lon="2.716998">
        <ele>6.20</ele>
        <time>2018-01-02T11:20:45Z</time>
      </trkpt>
      <trkpt lat="41.729965" lon="2.716995">
        <ele>6.00</ele>
        <time>2018-01-02T11:20:47Z</time>
      </trkpt>
      <trkpt lat="41.729821" lon="2.716937">
        <ele>5.60</ele>
        <time>2018-01-02T11:20:51Z</time>
      </trkpt>
      <trkpt lat="41.729675" lon="2.716906">
        <ele>5.40</ele>
        <time>2018-01-02T11:20:55Z</time>
      </trkpt>
      <trkpt lat="41.729588" lon="2.716936">
        <ele>5.00</ele>
        <time>2018-01-02T11:20:58Z</time>
      </trkpt>
      <trkpt lat="41.729463" lon="2.716995">
        <ele>3.80</ele>
        <time>2018-01-02T11:21:02Z</time>
      </trkpt>
      <trkpt lat="41.729433" lon="2.717007">
        <ele>3.60</ele>
        <time>2018-01-02T11:21:03Z</time>
      </trkpt>
      <trkpt lat="41.729262" lon="2.717050">
        <ele>2.60</ele>
        <time>2018-01-02T11:21:08Z</time>
      </trkpt>
      <trkpt lat="41.729154" lon="2.717082">
        <ele>2.00</ele>
        <time>2018-01-02T11:21:11Z</time>
      </trkpt>
      <trkpt lat="41.729083" lon="2.717091">
        <ele>1.60</ele>
        <time>2018-01-02T11:21:13Z</time>
      </trkpt>
      <trkpt lat="41.728910" lon="2.717076">
        <ele>0.80</ele>
        <time>2018-01-02T11:21:18Z</time>
      </trkpt>
      <trkpt lat="41.728691" lon="2.717032">
        <ele>0.40</ele>
        <time>2018-01-02T11:21:24Z</time>
      </trkpt>
      <trkpt lat="41.728623" lon="2.717005">
        <ele>-0.20</ele>
        <time>2018-01-02T11:21:26Z</time>
      </trkpt>
      <trkpt lat="41.728471" lon="2.716926">
        <ele>-0.60</ele>
        <time>2018-01-02T11:21:31Z</time>
      </trkpt>
      <trkpt lat="41.728408" lon="2.716891">
        <ele>-1.00</ele>
        <time>2018-01-02T11:21:33Z</time>
      </trkpt>
      <trkpt lat="41.728247" lon="2.716778">
        <ele>-1.80</ele>
        <time>2018-01-02T11:21:39Z</time>
      </trkpt>
      <trkpt lat="41.728223" lon="2.716763">
        <ele>-2.00</ele>
        <time>2018-01-02T11:21:40Z</time>
      </trkpt>
      <trkpt lat="41.728124" lon="2.716682">
        <ele>-2.20</ele>
        <time>2018-01-02T11:21:44Z</time>
      </trkpt>
      <trkpt lat="41.728067" lon="2.716623">
        <ele>-2.40</ele>
        <time>2018-01-02T11:21:47Z</time>
      </trkpt>
      <trkpt lat="41.727958" lon="2.716533">
        <ele>-3.00</ele>
        <time>2018-01-02T11:21:52Z</time>
      </trkpt>
      <trkpt lat="41.727908" lon="2.716506">
        <ele>-3.40</ele>
        <time>2018-01-02T11:21:54Z</time>
      </trkpt>
      <trkpt lat="41.727857" lon="2.716482">
        <ele>-4.00</ele>
        <time>2018-01-02T11:21:56Z</time>
      </trkpt>
      <trkpt lat="41.727758" lon="2.716409">
        <ele>-4.60</ele>
        <time>2018-01-02T11:22:00Z</time>
      </trkpt>
      <trkpt lat="41.727665" lon="2.716305">
        <ele>-5.00</ele>
        <time>2018-01-02T11:22:04Z</time>
      </trkpt>
      <trkpt lat="41.727627" lon="2.716279">
        <ele>-5.60</ele>
        <time>2018-01-02T11:22:06Z</time>
      </trkpt>
      <trkpt lat="41.727586" lon="2.716239">
        <ele>-6.00</ele>
        <time>2018-01-02T11:22:08Z</time>
      </trkpt>
      <trkpt lat="41.727501" lon="2.716165">
        <ele>-7.00</ele>
        <time>2018-01-02T11:22:12Z</time>
      </trkpt>
      <trkpt lat="41.727454" lon="2.716148">
        <ele>-8.40</ele>
        <time>2018-01-02T11:22:14Z</time>
      </trkpt>
      <trkpt lat="41.727386" lon="2.716163">
        <ele>-9.40</ele>
        <time>2018-01-02T11:22:17Z</time>
      </trkpt>
      <trkpt lat="41.727271" lon="2.716313">
        <ele>-10.60</ele>
        <time>2018-01-02T11:22:22Z</time>
      </trkpt>
      <trkpt lat="41.727236" lon="2.716380">
        <ele>-10.80</ele>
        <time>2018-01-02T11:22:24Z</time>
      </trkpt>
      <trkpt lat="41.727139" lon="2.716601">
        <ele>-11.60</ele>
        <time>2018-01-02T11:22:30Z</time>
      </trkpt>
      <trkpt lat="41.727110" lon="2.716683">
        <ele>-11.80</ele>
        <time>2018-01-02T11:22:32Z</time>
      </trkpt>
      <trkpt lat="41.727053" lon="2.716886">
        <ele>-12.00</ele>
        <time>2018-01-02T11:22:37Z</time>
      </trkpt>
      <trkpt lat="41.726989" lon="2.716970">
        <ele>-12.60</ele>
        <time>2018-01-02T11:22:40Z</time>
      </trkpt>
      <trkpt lat="41.726964" lon="2.716984">
        <ele>-12.80</ele>
        <time>2018-01-02T11:22:41Z</time>
      </trkpt>
      <trkpt lat="41.726909" lon="2.716987">
        <ele>-13.60</ele>
        <time>2018-01-02T11:22:43Z</time>
      </trkpt>
      <trkpt lat="41.726832" lon="2.716940">
        <ele>-15.00</ele>
        <time>2018-01-02T11:22:46Z</time>
      </trkpt>
      <trkpt lat="41.726756" lon="2.716868">
        <ele>-16.20</ele>
        <time>2018-01-02T11:22:49Z</time>
      </trkpt>
      <trkpt lat="41.726729" lon="2.716842">
        <ele>-16.60</ele>
        <time>2018-01-02T11:22:50Z</time>
      </trkpt>
      <trkpt lat="41.726633" lon="2.716757">
        <ele>-17.20</ele>
        <time>2018-01-02T11:22:53Z</time>
      </trkpt>
      <trkpt lat="41.726513" lon="2.716669">
        <ele>-17.60</ele>
        <time>2018-01-02T11:22:56Z</time>
      </trkpt>
      <trkpt lat="41.726214" lon="2.716448">
        <ele>-17.60</ele>
        <time>2018-01-02T11:23:04Z</time>
      </trkpt>
      <trkpt lat="41.726134" lon="2.716395">
        <ele>-17.80</ele>
        <time>2018-01-02T11:23:06Z</time>
      </trkpt>
      <trkpt lat="41.725989" lon="2.716291">
        <ele>-17.80</ele>
        <time>2018-01-02T11:23:10Z</time>
      </trkpt>
      <trkpt lat="41.725757" lon="2.716153">
        <ele>-18.40</ele>
        <time>2018-01-02T11:23:16Z</time>
      </trkpt>
      <trkpt lat="41.725720" lon="2.716125">
        <ele>-18.40</ele>
        <time>2018-01-02T11:23:17Z</time>
      </trkpt>
      <trkpt lat="41.725681" lon="2.716101">
        <ele>-18.60</ele>
        <time>2018-01-02T11:23:18Z</time>
      </trkpt>
      <trkpt lat="41.725466" lon="2.715933">
        <ele>-19.40</ele>
        <time>2018-01-02T11:23:24Z</time>
      </trkpt>
      <trkpt lat="41.725432" lon="2.715899">
        <ele>-19.40</ele>
        <time>2018-01-02T11:23:25Z</time>
      </trkpt>
      <trkpt lat="41.725270" lon="2.715741">
        <ele>-20.00</ele>
        <time>2018-01-02T11:23:30Z</time>
      </trkpt>
      <trkpt lat="41.725235" lon="2.715727">
        <ele>-20.00</ele>
        <time>2018-01-02T11:23:31Z</time>
      </trkpt>
      <trkpt lat="41.725198" lon="2.715711">
        <ele>-20.40</ele>
        <time>2018-01-02T11:23:32Z</time>
      </trkpt>
      <trkpt lat="41.725090" lon="2.715699">
        <ele>-21.40</ele>
        <time>2018-01-02T11:23:35Z</time>
      </trkpt>
      <trkpt lat="41.724945" lon="2.715683">
        <ele>-21.80</ele>
        <time>2018-01-02T11:23:38Z</time>
      </trkpt>
      <trkpt lat="41.724796" lon="2.715526">
        <ele>-21.20</ele>
        <time>2018-01-02T11:23:42Z</time>
      </trkpt>
      <trkpt lat="41.724768" lon="2.715481">
        <ele>-21.00</ele>
        <time>2018-01-02T11:23:43Z</time>
      </trkpt>
      <trkpt lat="41.724598" lon="2.715408">
        <ele>-21.60</ele>
        <time>2018-01-02T11:23:48Z</time>
      </trkpt>
      <trkpt lat="41.724555" lon="2.715412">
        <ele>-21.60</ele>
        <time>2018-01-02T11:23:49Z</time>
      </trkpt>
      <trkpt lat="41.724426" lon="2.715392">
        <ele>-22.20</ele>
        <time>2018-01-02T11:23:52Z</time>
      </trkpt>
      <trkpt lat="41.724384" lon="2.715388">
        <ele>-22.40</ele>
        <time>2018-01-02T11:23:53Z</time>
      </trkpt>
      <trkpt lat="41.724342" lon="2.715391">
        <ele>-22.80</ele>
        <time>2018-01-02T11:23:54Z</time>
      </trkpt>
      <trkpt lat="41.724183" lon="2.715420">
        <ele>-24.00</ele>
        <time>2018-01-02T11:23:58Z</time>
      </trkpt>
      <trkpt lat="41.724142" lon="2.715433">
        <ele>-24.60</ele>
        <time>2018-01-02T11:23:59Z</time>
      </trkpt>
      <trkpt lat="41.723942" lon="2.715490">
        <ele>-25.20</ele>
        <time>2018-01-02T11:24:03Z</time>
      </trkpt>
      <trkpt lat="41.723837" lon="2.715504">
        <ele>-25.20</ele>
        <time>2018-01-02T11:24:05Z</time>
      </trkpt>
      <trkpt lat="41.723731" lon="2.715522">
        <ele>-25.40</ele>
        <time>2018-01-02T11:24:07Z</time>
      </trkpt>
      <trkpt lat="41.723518" lon="2.715558">
        <ele>-26.00</ele>
        <time>2018-01-02T11:24:11Z</time>
      </trkpt>
      <trkpt lat="41.723148" lon="2.715695">
        <ele>-25.80</ele>
        <time>2018-01-02T11:24:18Z</time>
      </trkpt>
      <trkpt lat="41.722843" lon="2.715851">
        <ele>-25.60</ele>
        <time>2018-01-02T11:24:24Z</time>
      </trkpt>
      <trkpt lat="41.722756" lon="2.715883">
        <ele>-25.80</ele>
        <time>2018-01-02T11:24:26Z</time>
      </trkpt>
      <trkpt lat="41.722632" lon="2.715914">
        <ele>-26.40</ele>
        <time>2018-01-02T11:24:29Z</time>
      </trkpt>
      <trkpt lat="41.722549" lon="2.715915">
        <ele>-26.80</ele>
        <time>2018-01-02T11:24:31Z</time>
      </trkpt>
      <trkpt lat="41.722416" lon="2.715919">
        <ele>-27.40</ele>
        <time>2018-01-02T11:24:34Z</time>
      </trkpt>
      <trkpt lat="41.722275" lon="2.715937">
        <ele>-27.80</ele>
        <time>2018-01-02T11:24:37Z</time>
      </trkpt>
      <trkpt lat="41.722226" lon="2.715947">
        <ele>-28.40</ele>
        <time>2018-01-02T11:24:38Z</time>
      </trkpt>
      <trkpt lat="41.722024" lon="2.716029">
        <ele>-29.00</ele>
        <time>2018-01-02T11:24:42Z</time>
      </trkpt>
      <trkpt lat="41.721810" lon="2.716098">
        <ele>-29.00</ele>
        <time>2018-01-02T11:24:46Z</time>
      </trkpt>
      <trkpt lat="41.721703" lon="2.716144">
        <ele>-29.20</ele>
        <time>2018-01-02T11:24:48Z</time>
      </trkpt>
      <trkpt lat="41.721586" lon="2.716203">
        <ele>-29.60</ele>
        <time>2018-01-02T11:24:50Z</time>
      </trkpt>
      <trkpt lat="41.721457" lon="2.716190">
        <ele>-30.80</ele>
        <time>2018-01-02T11:24:52Z</time>
      </trkpt>
      <trkpt lat="41.721398" lon="2.716161">
        <ele>-30.80</ele>
        <time>2018-01-02T11:24:53Z</time>
      </trkpt>
      <trkpt lat="41.721181" lon="2.716088">
        <ele>-30.20</ele>
        <time>2018-01-02T11:24:56Z</time>
      </trkpt>
      <trkpt lat="41.720844" lon="2.715888">
        <ele>-29.80</ele>
        <time>2018-01-02T11:25:01Z</time>
      </trkpt>
      <trkpt lat="41.720643" lon="2.715748">
        <ele>-28.20</ele>
        <time>2018-01-02T11:25:04Z</time>
      </trkpt>
      <trkpt lat="41.720509" lon="2.715667">
        <ele>-27.60</ele>
        <time>2018-01-02T11:25:06Z</time>
      </trkpt>
      <trkpt lat="41.720093" lon="2.715414">
        <ele>-27.60</ele>
        <time>2018-01-02T11:25:13Z</time>
      </trkpt>
      <trkpt lat="41.719971" lon="2.715326">
        <ele>-27.80</ele>
        <time>2018-01-02T11:25:15Z</time>
      </trkpt>
      <trkpt lat="41.719566" lon="2.715132">
        <ele>-27.00</ele>
        <time>2018-01-02T11:25:21Z</time>
      </trkpt>
      <trkpt lat="41.719362" lon="2.715047">
        <ele>-27.00</ele>
        <time>2018-01-02T11:25:24Z</time>
      </trkpt>
      <trkpt lat="41.719100" lon="2.714922">
        <ele>-25.80</ele>
        <time>2018-01-02T11:25:28Z</time>
      </trkpt>
      <trkpt lat="41.718928" lon="2.714823">
        <ele>-24.60</ele>
        <time>2018-01-02T11:25:31Z</time>
      </trkpt>
      <trkpt lat="41.718771" lon="2.714742">
        <ele>-24.40</ele>
        <time>2018-01-02T11:25:34Z</time>
      </trkpt>
      <trkpt lat="41.718720" lon="2.714718">
        <ele>-24.60</ele>
        <time>2018-01-02T11:25:35Z</time>
      </trkpt>
      <trkpt lat="41.718575" lon="2.714595">
        <ele>-24.60</ele>
        <time>2018-01-02T11:25:38Z</time>
      </trkpt>
      <trkpt lat="41.718445" lon="2.714437">
        <ele>-24.80</ele>
        <time>2018-01-02T11:25:41Z</time>
      </trkpt>
      <trkpt lat="41.718316" lon="2.714293">
        <ele>-25.20</ele>
        <time>2018-01-02T11:25:44Z</time>
      </trkpt>
      <trkpt lat="41.718216" lon="2.714217">
        <ele>-25.40</ele>
        <time>2018-01-02T11:25:46Z</time>
      </trkpt>
      <trkpt lat="41.717745" lon="2.714014">
        <ele>-25.80</ele>
        <time>2018-01-02T11:25:54Z</time>
      </trkpt>
      <trkpt lat="41.717622" lon="2.713978">
        <ele>-26.00</ele>
        <time>2018-01-02T11:25:56Z</time>
      </trkpt>
      <trkpt lat="41.717498" lon="2.713951">
        <ele>-25.80</ele>
        <time>2018-01-02T11:25:58Z</time>
      </trkpt>
      <trkpt lat="41.717372" lon="2.713928">
        <ele>-25.60</ele>
        <time>2018-01-02T11:26:00Z</time>
      </trkpt>
      <trkpt lat="41.717315" lon="2.713919">
        <ele>-25.40</ele>
        <time>2018-01-02T11:26:01Z</time>
      </trkpt>
      <trkpt lat="41.716969" lon="2.713857">
        <ele>-24.60</ele>
        <time>2018-01-02T11:26:07Z</time>
      </trkpt>
      <trkpt lat="41.716671" lon="2.713745">
        <ele>-24.60</ele>
        <time>2018-01-02T11:26:13Z</time>
      </trkpt>
      <trkpt lat="41.716540" lon="2.713682">
        <ele>-24.80</ele>
        <time>2018-01-02T11:26:16Z</time>
      </trkpt>
      <trkpt lat="41.716269" lon="2.713603">
        <ele>-25.40</ele>
        <time>2018-01-02T11:26:22Z</time>
      </trkpt>
      <trkpt lat="41.716223" lon="2.713591">
        <ele>-25.60</ele>
        <time>2018-01-02T11:26:23Z</time>
      </trkpt>
      <trkpt lat="41.716099" lon="2.713526">
        <ele>-25.60</ele>
        <time>2018-01-02T11:26:26Z</time>
      </trkpt>
      <trkpt lat="41.716062" lon="2.713500">
        <ele>-25.80</ele>
        <time>2018-01-02T11:26:27Z</time>
      </trkpt>
      <trkpt lat="41.715999" lon="2.713435">
        <ele>-26.40</ele>
        <time>2018-01-02T11:26:29Z</time>
      </trkpt>
      <trkpt lat="41.715910" lon="2.713344">
        <ele>-27.00</ele>
        <time>2018-01-02T11:26:32Z</time>
      </trkpt>
      <trkpt lat="41.715813" lon="2.713252">
        <ele>-28.00</ele>
        <time>2018-01-02T11:26:35Z</time>
      </trkpt>
      <trkpt lat="41.715740" lon="2.713180">
        <ele>-28.60</ele>
        <time>2018-01-02T11:26:37Z</time>
      </trkpt>
      <trkpt lat="41.715546" lon="2.713022">
        <ele>-28.80</ele>
        <time>2018-01-02T11:26:42Z</time>
      </trkpt>
      <trkpt lat="41.715503" lon="2.712993">
        <ele>-28.80</ele>
        <time>2018-01-02T11:26:43Z</time>
      </trkpt>
      <trkpt lat="41.715320" lon="2.712745">
        <ele>-28.40</ele>
        <time>2018-01-02T11:26:49Z</time>
      </trkpt>
      <trkpt lat="41.715298" lon="2.712703">
        <ele>-28.60</ele>
        <time>2018-01-02T11:26:50Z</time>
      </trkpt>
      <trkpt lat="41.715201" lon="2.712507">
        <ele>-28.80</ele>
        <time>2018-01-02T11:26:55Z</time>
      </trkpt>
      <trkpt lat="41.715152" lon="2.712407">
        <ele>-29.00</ele>
        <time>2018-01-02T11:26:58Z</time>
      </trkpt>
      <trkpt lat="41.715109" lon="2.712302">
        <ele>-29.40</ele>
        <time>2018-01-02T11:27:01Z</time>
      </trkpt>
      <trkpt lat="41.715085" lon="2.712246">
        <ele>-30.20</ele>
        <time>2018-01-02T11:27:03Z</time>
      </trkpt>
      <trkpt lat="41.715023" lon="2.712193">
        <ele>-31.00</ele>
        <time>2018-01-02T11:27:06Z</time>
      </trkpt>
      <trkpt lat="41.714978" lon="2.712140">
        <ele>-31.40</ele>
        <time>2018-01-02T11:27:08Z</time>
      </trkpt>
      <trkpt lat="41.714874" lon="2.712072">
        <ele>-32.40</ele>
        <time>2018-01-02T11:27:12Z</time>
      </trkpt>
      <trkpt lat="41.714846" lon="2.712058">
        <ele>-32.80</ele>
        <time>2018-01-02T11:27:13Z</time>
      </trkpt>
      <trkpt lat="41.714759" lon="2.712020">
        <ele>-33.40</ele>
        <time>2018-01-02T11:27:16Z</time>
      </trkpt>
      <trkpt lat="41.714654" lon="2.711986">
        <ele>-34.00</ele>
        <time>2018-01-02T11:27:19Z</time>
      </trkpt>
      <trkpt lat="41.714513" lon="2.711984">
        <ele>-34.40</ele>
        <time>2018-01-02T11:27:23Z</time>
      </trkpt>
      <trkpt lat="41.714479" lon="2.711999">
        <ele>-34.60</ele>
        <time>2018-01-02T11:27:24Z</time>
      </trkpt>
      <trkpt lat="41.714356" lon="2.712091">
        <ele>-35.60</ele>
        <time>2018-01-02T11:27:28Z</time>
      </trkpt>
      <trkpt lat="41.714275" lon="2.712179">
        <ele>-36.40</ele>
        <time>2018-01-02T11:27:31Z</time>
      </trkpt>
      <trkpt lat="41.714246" lon="2.712209">
        <ele>-36.60</ele>
        <time>2018-01-02T11:27:32Z</time>
      </trkpt>
      <trkpt lat="41.714077" lon="2.712390">
        <ele>-37.00</ele>
        <time>2018-01-02T11:27:38Z</time>
      </trkpt>
      <trkpt lat="41.713993" lon="2.712486">
        <ele>-37.60</ele>
        <time>2018-01-02T11:27:41Z</time>
      </trkpt>
      <trkpt lat="41.713902" lon="2.712554">
        <ele>-38.60</ele>
        <time>2018-01-02T11:27:44Z</time>
      </trkpt>
      <trkpt lat="41.713869" lon="2.712571">
        <ele>-38.80</ele>
        <time>2018-01-02T11:27:45Z</time>
      </trkpt>
      <trkpt lat="41.713836" lon="2.712590">
        <ele>-39.20</ele>
        <time>2018-01-02T11:27:46Z</time>
      </trkpt>
      <trkpt lat="41.713673" lon="2.712656">
        <ele>-40.40</ele>
        <time>2018-01-02T11:27:50Z</time>
      </trkpt>
      <trkpt lat="41.713620" lon="2.712663">
        <ele>-40.40</ele>
        <time>2018-01-02T11:27:51Z</time>
      </trkpt>
      <trkpt lat="41.713488" lon="2.712696">
        <ele>-40.40</ele>
        <time>2018-01-02T11:27:54Z</time>
      </trkpt>
      <trkpt lat="41.713429" lon="2.712696">
        <ele>-40.60</ele>
        <time>2018-01-02T11:27:59Z</time>
      </trkpt>
      <trkpt lat="41.713428" lon="2.712698">
        <ele>-40.40</ele>
        <time>2018-01-02T11:28:01Z</time>
      </trkpt>
      <trkpt lat="41.713414" lon="2.712700">
        <ele>-40.40</ele>
        <time>2018-01-02T11:28:02Z</time>
      </trkpt>
      <trkpt lat="41.713259" lon="2.712677">
        <ele>-39.40</ele>
        <time>2018-01-02T11:28:06Z</time>
      </trkpt>
      <trkpt lat="41.713126" lon="2.712654">
        <ele>-39.20</ele>
        <time>2018-01-02T11:28:09Z</time>
      </trkpt>
      <trkpt lat="41.713048" lon="2.712609">
        <ele>-39.20</ele>
        <time>2018-01-02T11:28:11Z</time>
      </trkpt>
      <trkpt lat="41.712903" lon="2.712483">
        <ele>-39.60</ele>
        <time>2018-01-02T11:28:15Z</time>
      </trkpt>
      <trkpt lat="41.712865" lon="2.712455">
        <ele>-39.60</ele>
        <time>2018-01-02T11:28:16Z</time>
      </trkpt>
      <trkpt lat="41.712823" lon="2.712434">
        <ele>-39.60</ele>
        <time>2018-01-02T11:28:17Z</time>
      </trkpt>
      <trkpt lat="41.712785" lon="2.712415">
        <ele>-39.80</ele>
        <time>2018-01-02T11:28:18Z</time>
      </trkpt>
      <trkpt lat="41.712703" lon="2.712391">
        <ele>-40.00</ele>
        <time>2018-01-02T11:28:20Z</time>
      </trkpt>
      <trkpt lat="41.712608" lon="2.712393">
        <ele>-40.00</ele>
        <time>2018-01-02T11:28:22Z</time>
      </trkpt>
      <trkpt lat="41.712417" lon="2.712433">
        <ele>-40.20</ele>
        <time>2018-01-02T11:28:26Z</time>
      </trkpt>
      <trkpt lat="41.712236" lon="2.712336">
        <ele>-40.20</ele>
        <time>2018-01-02T11:28:31Z</time>
      </trkpt>
      <trkpt lat="41.712149" lon="2.712190">
        <ele>-40.80</ele>
        <time>2018-01-02T11:28:35Z</time>
      </trkpt>
      <trkpt lat="41.712051" lon="2.712016">
        <ele>-42.00</ele>
        <time>2018-01-02T11:28:40Z</time>
      </trkpt>
      <trkpt lat="41.711889" lon="2.711886">
        <ele>-43.00</ele>
        <time>2018-01-02T11:28:46Z</time>
      </trkpt>
      <trkpt lat="41.711854" lon="2.711879">
        <ele>-43.00</ele>
        <time>2018-01-02T11:28:47Z</time>
      </trkpt>
      <trkpt lat="41.711673" lon="2.711791">
        <ele>-44.20</ele>
        <time>2018-01-02T11:28:53Z</time>
      </trkpt>
      <trkpt lat="41.711555" lon="2.711724">
        <ele>-45.40</ele>
        <time>2018-01-02T11:28:57Z</time>
      </trkpt>
      <trkpt lat="41.711530" lon="2.711692">
        <ele>-46.00</ele>
        <time>2018-01-02T11:28:58Z</time>
      </trkpt>
      <trkpt lat="41.711473" lon="2.711509">
        <ele>-46.80</ele>
        <time>2018-01-02T11:29:02Z</time>
      </trkpt>
      <trkpt lat="41.711445" lon="2.711353">
        <ele>-47.60</ele>
        <time>2018-01-02T11:29:05Z</time>
      </trkpt>
      <trkpt lat="41.711419" lon="2.711261">
        <ele>-48.00</ele>
        <time>2018-01-02T11:29:07Z</time>
      </trkpt>
      <trkpt lat="41.711368" lon="2.711199">
        <ele>-48.60</ele>
        <time>2018-01-02T11:29:09Z</time>
      </trkpt>
      <trkpt lat="41.711300" lon="2.711172">
        <ele>-49.20</ele>
        <time>2018-01-02T11:29:11Z</time>
      </trkpt>
      <trkpt lat="41.711258" lon="2.711172">
        <ele>-49.40</ele>
        <time>2018-01-02T11:29:12Z</time>
      </trkpt>
      <trkpt lat="41.711166" lon="2.711178">
        <ele>-49.60</ele>
        <time>2018-01-02T11:29:14Z</time>
      </trkpt>
      <trkpt lat="41.711120" lon="2.711184">
        <ele>-49.40</ele>
        <time>2018-01-02T11:29:15Z</time>
      </trkpt>
      <trkpt lat="41.710985" lon="2.711222">
        <ele>-49.80</ele>
        <time>2018-01-02T11:29:18Z</time>
      </trkpt>
      <trkpt lat="41.710802" lon="2.711313">
        <ele>-49.60</ele>
        <time>2018-01-02T11:29:22Z</time>
      </trkpt>
      <trkpt lat="41.710594" lon="2.711419">
        <ele>-49.80</ele>
        <time>2018-01-02T11:29:27Z</time>
      </trkpt>
      <trkpt lat="41.710553" lon="2.711440">
        <ele>-49.80</ele>
        <time>2018-01-02T11:29:28Z</time>
      </trkpt>
      <trkpt lat="41.710252" lon="2.711677">
        <ele>-50.40</ele>
        <time>2018-01-02T11:29:36Z</time>
      </trkpt>
      <trkpt lat="41.710217" lon="2.711709">
        <ele>-50.60</ele>
        <time>2018-01-02T11:29:37Z</time>
      </trkpt>
      <trkpt lat="41.710047" lon="2.711875">
        <ele>-51.40</ele>
        <time>2018-01-02T11:29:42Z</time>
      </trkpt>
      <trkpt lat="41.709913" lon="2.712031">
        <ele>-52.20</ele>
        <time>2018-01-02T11:29:46Z</time>
      </trkpt>
      <trkpt lat="41.709880" lon="2.712066">
        <ele>-52.60</ele>
        <time>2018-01-02T11:29:47Z</time>
      </trkpt>
      <trkpt lat="41.709676" lon="2.712312">
        <ele>-53.80</ele>
        <time>2018-01-02T11:29:53Z</time>
      </trkpt>
      <trkpt lat="41.709423" lon="2.712644">
        <ele>-52.80</ele>
        <time>2018-01-02T11:30:00Z</time>
      </trkpt>
      <trkpt lat="41.709300" lon="2.712848">
        <ele>-53.60</ele>
        <time>2018-01-02T11:30:05Z</time>
      </trkpt>
      <trkpt lat="41.709273" lon="2.712889">
        <ele>-54.00</ele>
        <time>2018-01-02T11:30:06Z</time>
      </trkpt>
      <trkpt lat="41.709152" lon="2.713051">
        <ele>-54.60</ele>
        <time>2018-01-02T11:30:10Z</time>
      </trkpt>
      <trkpt lat="41.709122" lon="2.713096">
        <ele>-54.80</ele>
        <time>2018-01-02T11:30:11Z</time>
      </trkpt>
      <trkpt lat="41.709088" lon="2.713134">
        <ele>-55.00</ele>
        <time>2018-01-02T11:30:12Z</time>
      </trkpt>
      <trkpt lat="41.708797" lon="2.713535">
        <ele>-56.00</ele>
        <time>2018-01-02T11:30:21Z</time>
      </trkpt>
      <trkpt lat="41.708767" lon="2.713580">
        <ele>-56.00</ele>
        <time>2018-01-02T11:30:22Z</time>
      </trkpt>
      <trkpt lat="41.708682" lon="2.713724">
        <ele>-57.00</ele>
        <time>2018-01-02T11:30:25Z</time>
      </trkpt>
      <trkpt lat="41.708648" lon="2.713769">
        <ele>-57.20</ele>
        <time>2018-01-02T11:30:26Z</time>
      </trkpt>
      <trkpt lat="41.708612" lon="2.713804">
        <ele>-57.40</ele>
        <time>2018-01-02T11:30:27Z</time>
      </trkpt>
      <trkpt lat="41.708476" lon="2.713865">
        <ele>-58.00</ele>
        <time>2018-01-02T11:30:30Z</time>
      </trkpt>
      <trkpt lat="41.708422" lon="2.713876">
        <ele>-58.20</ele>
        <time>2018-01-02T11:30:31Z</time>
      </trkpt>
      <trkpt lat="41.708098" lon="2.713983">
        <ele>-58.80</ele>
        <time>2018-01-02T11:30:37Z</time>
      </trkpt>
      <trkpt lat="41.707681" lon="2.714261">
        <ele>-59.20</ele>
        <time>2018-01-02T11:30:45Z</time>
      </trkpt>
      <trkpt lat="41.707537" lon="2.714373">
        <ele>-59.20</ele>
        <time>2018-01-02T11:30:48Z</time>
      </trkpt>
      <trkpt lat="41.707342" lon="2.714524">
        <ele>-59.40</ele>
        <time>2018-01-02T11:30:52Z</time>
      </trkpt>
      <trkpt lat="41.707163" lon="2.714687">
        <ele>-60.00</ele>
        <time>2018-01-02T11:30:56Z</time>
      </trkpt>
      <trkpt lat="41.707125" lon="2.714736">
        <ele>-60.00</ele>
        <time>2018-01-02T11:30:57Z</time>
      </trkpt>
      <trkpt lat="41.707092" lon="2.714793">
        <ele>-60.20</ele>
        <time>2018-01-02T11:30:58Z</time>
      </trkpt>
      <trkpt lat="41.706996" lon="2.714973">
        <ele>-60.20</ele>
        <time>2018-01-02T11:31:01Z</time>
      </trkpt>
      <trkpt lat="41.706960" lon="2.715023">
        <ele>-61.00</ele>
        <time>2018-01-02T11:31:02Z</time>
      </trkpt>
      <trkpt lat="41.706921" lon="2.715070">
        <ele>-61.60</ele>
        <time>2018-01-02T11:31:03Z</time>
      </trkpt>
      <trkpt lat="41.706773" lon="2.715188">
        <ele>-62.60</ele>
        <time>2018-01-02T11:31:06Z</time>
      </trkpt>
      <trkpt lat="41.706639" lon="2.715252">
        <ele>-61.60</ele>
        <time>2018-01-02T11:31:08Z</time>
      </trkpt>
      <trkpt lat="41.706570" lon="2.715274">
        <ele>-61.20</ele>
        <time>2018-01-02T11:31:09Z</time>
      </trkpt>
      <trkpt lat="41.706506" lon="2.715297">
        <ele>-61.20</ele>
        <time>2018-01-02T11:31:10Z</time>
      </trkpt>
      <trkpt lat="41.706361" lon="2.715367">
        <ele>-60.40</ele>
        <time>2018-01-02T11:31:13Z</time>
      </trkpt>
      <trkpt lat="41.706327" lon="2.715417">
        <ele>-60.40</ele>
        <time>2018-01-02T11:31:14Z</time>
      </trkpt>
      <trkpt lat="41.706315" lon="2.715563">
        <ele>-60.00</ele>
        <time>2018-01-02T11:31:16Z</time>
      </trkpt>
      <trkpt lat="41.706324" lon="2.715728">
        <ele>-60.20</ele>
        <time>2018-01-02T11:31:18Z</time>
      </trkpt>
      <trkpt lat="41.706298" lon="2.715953">
        <ele>-60.20</ele>
        <time>2018-01-02T11:31:21Z</time>
      </trkpt>
      <trkpt lat="41.706184" lon="2.716055">
        <ele>-60.00</ele>
        <time>2018-01-02T11:31:24Z</time>
      </trkpt>
      <trkpt lat="41.705774" lon="2.715971">
        <ele>-60.40</ele>
        <time>2018-01-02T11:31:32Z</time>
      </trkpt>
      <trkpt lat="41.705260" lon="2.715879">
        <ele>-60.80</ele>
        <time>2018-01-02T11:31:41Z</time>
      </trkpt>
      <trkpt lat="41.704729" lon="2.715811">
        <ele>-61.00</ele>
        <time>2018-01-02T11:31:50Z</time>
      </trkpt>
      <trkpt lat="41.704193" lon="2.715737">
        <ele>-61.00</ele>
        <time>2018-01-02T11:31:59Z</time>
      </trkpt>
      <trkpt lat="41.703951" lon="2.715696">
        <ele>-60.80</ele>
        <time>2018-01-02T11:32:03Z</time>
      </trkpt>
      <trkpt lat="41.703703" lon="2.715643">
        <ele>-61.20</ele>
        <time>2018-01-02T11:32:07Z</time>
      </trkpt>
      <trkpt lat="41.703640" lon="2.715629">
        <ele>-61.20</ele>
        <time>2018-01-02T11:32:08Z</time>
      </trkpt>
      <trkpt lat="41.703404" lon="2.715596">
        <ele>-61.20</ele>
        <time>2018-01-02T11:32:12Z</time>
      </trkpt>
      <trkpt lat="41.703262" lon="2.715690">
        <ele>-61.20</ele>
        <time>2018-01-02T11:32:15Z</time>
      </trkpt>
      <trkpt lat="41.703215" lon="2.715834">
        <ele>-61.40</ele>
        <time>2018-01-02T11:32:17Z</time>
      </trkpt>
      <trkpt lat="41.703202" lon="2.716072">
        <ele>-61.20</ele>
        <time>2018-01-02T11:32:20Z</time>
      </trkpt>
      <trkpt lat="41.703211" lon="2.716406">
        <ele>-61.00</ele>
        <time>2018-01-02T11:32:24Z</time>
      </trkpt>
      <trkpt lat="41.703201" lon="2.716663">
        <ele>-61.20</ele>
        <time>2018-01-02T11:32:27Z</time>
      </trkpt>
      <trkpt lat="41.703202" lon="2.716749">
        <ele>-61.40</ele>
        <time>2018-01-02T11:32:28Z</time>
      </trkpt>
      <trkpt lat="41.703197" lon="2.717002">
        <ele>-61.00</ele>
        <time>2018-01-02T11:32:31Z</time>
      </trkpt>
      <trkpt lat="41.703201" lon="2.717081">
        <ele>-61.40</ele>
        <time>2018-01-02T11:32:32Z</time>
      </trkpt>
      <trkpt lat="41.703198" lon="2.717229">
        <ele>-62.60</ele>
        <time>2018-01-02T11:32:34Z</time>
      </trkpt>
      <trkpt lat="41.703181" lon="2.717421">
        <ele>-63.00</ele>
        <time>2018-01-02T11:32:36Z</time>
      </trkpt>
      <trkpt lat="41.703180" lon="2.717515">
        <ele>-62.80</ele>
        <time>2018-01-02T11:32:37Z</time>
      </trkpt>
      <trkpt lat="41.703264" lon="2.717660">
        <ele>-61.20</ele>
        <time>2018-01-02T11:32:39Z</time>
      </trkpt>
      <trkpt lat="41.703323" lon="2.717713">
        <ele>-60.60</ele>
        <time>2018-01-02T11:32:40Z</time>
      </trkpt>
      <trkpt lat="41.703457" lon="2.717771">
        <ele>-59.60</ele>
        <time>2018-01-02T11:32:42Z</time>
      </trkpt>
      <trkpt lat="41.703521" lon="2.717791">
        <ele>-59.20</ele>
        <time>2018-01-02T11:32:43Z</time>
      </trkpt>
      <trkpt lat="41.703583" lon="2.717808">
        <ele>-59.00</ele>
        <time>2018-01-02T11:32:44Z</time>
      </trkpt>
      <trkpt lat="41.703692" lon="2.717844">
        <ele>-58.60</ele>
        <time>2018-01-02T11:32:46Z</time>
      </trkpt>
      <trkpt lat="41.703738" lon="2.717820">
        <ele>-58.40</ele>
        <time>2018-01-02T11:32:47Z</time>
      </trkpt>
      <trkpt lat="41.703712" lon="2.717727">
        <ele>-58.20</ele>
        <time>2018-01-02T11:32:49Z</time>
      </trkpt>
      <trkpt lat="41.703670" lon="2.717689">
        <ele>-58.00</ele>
        <time>2018-01-02T11:32:50Z</time>
      </trkpt>
      <trkpt lat="41.703450" lon="2.717596">
        <ele>-58.00</ele>
        <time>2018-01-02T11:32:54Z</time>
      </trkpt>
      <trkpt lat="41.703328" lon="2.717573">
        <ele>-57.80</ele>
        <time>2018-01-02T11:32:56Z</time>
      </trkpt>
      <trkpt lat="41.702830" lon="2.717534">
        <ele>-58.00</ele>
        <time>2018-01-02T11:33:04Z</time>
      </trkpt>
      <trkpt lat="41.702348" lon="2.717492">
        <ele>-58.00</ele>
        <time>2018-01-02T11:33:12Z</time>
      </trkpt>
      <trkpt lat="41.702122" lon="2.717474">
        <ele>-58.40</ele>
        <time>2018-01-02T11:33:16Z</time>
      </trkpt>
      <trkpt lat="41.702067" lon="2.717472">
        <ele>-58.60</ele>
        <time>2018-01-02T11:33:17Z</time>
      </trkpt>
      <trkpt lat="41.701955" lon="2.717463">
        <ele>-59.20</ele>
        <time>2018-01-02T11:33:19Z</time>
      </trkpt>
      <trkpt lat="41.701838" lon="2.717476">
        <ele>-59.80</ele>
        <time>2018-01-02T11:33:21Z</time>
      </trkpt>
      <trkpt lat="41.701784" lon="2.717496">
        <ele>-60.00</ele>
        <time>2018-01-02T11:33:22Z</time>
      </trkpt>
      <trkpt lat="41.701685" lon="2.717554">
        <ele>-60.20</ele>
        <time>2018-01-02T11:33:24Z</time>
      </trkpt>
      <trkpt lat="41.701569" lon="2.717597">
        <ele>-60.20</ele>
        <time>2018-01-02T11:33:26Z</time>
      </trkpt>
      <trkpt lat="41.701520" lon="2.717578">
        <ele>-60.40</ele>
        <time>2018-01-02T11:33:27Z</time>
      </trkpt>
      <trkpt lat="41.701483" lon="2.717345">
        <ele>-60.40</ele>
        <time>2018-01-02T11:33:30Z</time>
      </trkpt>
      <trkpt lat="41.701467" lon="2.716954">
        <ele>-60.20</ele>
        <time>2018-01-02T11:33:34Z</time>
      </trkpt>
      <trkpt lat="41.701461" lon="2.716453">
        <ele>-60.00</ele>
        <time>2018-01-02T11:33:39Z</time>
      </trkpt>
      <trkpt lat="41.701458" lon="2.715987">
        <ele>-59.80</ele>
        <time>2018-01-02T11:33:44Z</time>
      </trkpt>
      <trkpt lat="41.701462" lon="2.715795">
        <ele>-59.80</ele>
        <time>2018-01-02T11:33:46Z</time>
      </trkpt>
      <trkpt lat="41.701465" lon="2.715141">
        <ele>-59.80</ele>
        <time>2018-01-02T11:33:53Z</time>
      </trkpt>
      <trkpt lat="41.701464" lon="2.714957">
        <ele>-59.40</ele>
        <time>2018-01-02T11:33:55Z</time>
      </trkpt>
      <trkpt lat="41.701444" lon="2.714219">
        <ele>-59.60</ele>
        <time>2018-01-02T11:34:03Z</time>
      </trkpt>
      <trkpt lat="41.701445" lon="2.714125">
        <ele>-59.40</ele>
        <time>2018-01-02T11:34:04Z</time>
      </trkpt>
      <trkpt lat="41.701413" lon="2.713403">
        <ele>-59.40</ele>
        <time>2018-01-02T11:34:12Z</time>
      </trkpt>
      <trkpt lat="41.701398" lon="2.713030">
        <ele>-59.40</ele>
        <time>2018-01-02T11:34:16Z</time>
      </trkpt>
      <trkpt lat="41.701378" lon="2.712757">
        <ele>-59.20</ele>
        <time>2018-01-02T11:34:19Z</time>
      </trkpt>
      <trkpt lat="41.701356" lon="2.712142">
        <ele>-59.20</ele>
        <time>2018-01-02T11:34:26Z</time>
      </trkpt>
      <trkpt lat="41.701349" lon="2.711667">
        <ele>-58.80</ele>
        <time>2018-01-02T11:34:32Z</time>
      </trkpt>
      <trkpt lat="41.701421" lon="2.711228">
        <ele>-59.20</ele>
        <time>2018-01-02T11:34:38Z</time>
      </trkpt>
      <trkpt lat="41.701492" lon="2.711025">
        <ele>-59.20</ele>
        <time>2018-01-02T11:34:42Z</time>
      </trkpt>
      <trkpt lat="41.701511" lon="2.710992">
        <ele>-59.40</ele>
        <time>2018-01-02T11:34:43Z</time>
      </trkpt>
      <trkpt lat="41.701562" lon="2.711010">
        <ele>-59.80</ele>
        <time>2018-01-02T11:34:51Z</time>
      </trkpt>
      <trkpt lat="41.701581" lon="2.711034">
        <ele>-60.00</ele>
        <time>2018-01-02T11:34:53Z</time>
      </trkpt>
      <trkpt lat="41.701600" lon="2.711054">
        <ele>-59.80</ele>
        <time>2018-01-02T11:34:54Z</time>
      </trkpt>
      <trkpt lat="41.701720" lon="2.711146">
        <ele>-59.60</ele>
        <time>2018-01-02T11:34:57Z</time>
      </trkpt>
      <trkpt lat="41.701777" lon="2.711161">
        <ele>-59.60</ele>
        <time>2018-01-02T11:34:58Z</time>
      </trkpt>
      <trkpt lat="41.701837" lon="2.711166">
        <ele>-59.60</ele>
        <time>2018-01-02T11:34:59Z</time>
      </trkpt>
      <trkpt lat="41.702024" lon="2.711202">
        <ele>-59.80</ele>
        <time>2018-01-02T11:35:02Z</time>
      </trkpt>
      <trkpt lat="41.702273" lon="2.711296">
        <ele>-59.60</ele>
        <time>2018-01-02T11:35:06Z</time>
      </trkpt>
      <trkpt lat="41.702465" lon="2.711242">
        <ele>-59.60</ele>
        <time>2018-01-02T11:35:09Z</time>
      </trkpt>
      <trkpt lat="41.702558" lon="2.711142">
        <ele>-59.60</ele>
        <time>2018-01-02T11:35:11Z</time>
      </trkpt>
      <trkpt lat="41.702612" lon="2.710999">
        <ele>-59.60</ele>
        <time>2018-01-02T11:35:13Z</time>
      </trkpt>
      <trkpt lat="41.702682" lon="2.710753">
        <ele>-59.60</ele>
        <time>2018-01-02T11:35:16Z</time>
      </trkpt>
      <trkpt lat="41.702821" lon="2.710329">
        <ele>-59.40</ele>
        <time>2018-01-02T11:35:21Z</time>
      </trkpt>
      <trkpt lat="41.702850" lon="2.710245">
        <ele>-59.40</ele>
        <time>2018-01-02T11:35:22Z</time>
      </trkpt>
      <trkpt lat="41.703111" lon="2.709607">
        <ele>-59.20</ele>
        <time>2018-01-02T11:35:30Z</time>
      </trkpt>
      <trkpt lat="41.703418" lon="2.709035">
        <ele>-59.00</ele>
        <time>2018-01-02T11:35:38Z</time>
      </trkpt>
      <trkpt lat="41.703724" lon="2.708565">
        <ele>-59.00</ele>
        <time>2018-01-02T11:35:45Z</time>
      </trkpt>
      <trkpt lat="41.703771" lon="2.708498">
        <ele>-59.20</ele>
        <time>2018-01-02T11:35:46Z</time>
      </trkpt>
      <trkpt lat="41.704144" lon="2.707972">
        <ele>-58.80</ele>
        <time>2018-01-02T11:35:54Z</time>
      </trkpt>
      <trkpt lat="41.704524" lon="2.707470">
        <ele>-58.80</ele>
        <time>2018-01-02T11:36:02Z</time>
      </trkpt>
      <trkpt lat="41.704801" lon="2.707094">
        <ele>-58.40</ele>
        <time>2018-01-02T11:36:08Z</time>
      </trkpt>
      <trkpt lat="41.704841" lon="2.707025">
        <ele>-58.60</ele>
        <time>2018-01-02T11:36:09Z</time>
      </trkpt>
      <trkpt lat="41.704880" lon="2.706952">
        <ele>-58.60</ele>
        <time>2018-01-02T11:36:10Z</time>
      </trkpt>
      <trkpt lat="41.704965" lon="2.706704">
        <ele>-57.40</ele>
        <time>2018-01-02T11:36:13Z</time>
      </trkpt>
      <trkpt lat="41.705084" lon="2.706341">
        <ele>-56.40</ele>
        <time>2018-01-02T11:36:18Z</time>
      </trkpt>
      <trkpt lat="41.705101" lon="2.706273">
        <ele>-56.60</ele>
        <time>2018-01-02T11:36:19Z</time>
      </trkpt>
      <trkpt lat="41.705123" lon="2.706002">
        <ele>-56.60</ele>
        <time>2018-01-02T11:36:23Z</time>
      </trkpt>
      <trkpt lat="41.705187" lon="2.705672">
        <ele>-57.60</ele>
        <time>2018-01-02T11:36:28Z</time>
      </trkpt>
      <trkpt lat="41.705193" lon="2.705527">
        <ele>-58.00</ele>
        <time>2018-01-02T11:36:30Z</time>
      </trkpt>
      <trkpt lat="41.705153" lon="2.705305">
        <ele>-58.00</ele>
        <time>2018-01-02T11:36:33Z</time>
      </trkpt>
      <trkpt lat="41.704974" lon="2.704763">
        <ele>-58.00</ele>
        <time>2018-01-02T11:36:40Z</time>
      </trkpt>
      <trkpt lat="41.704900" lon="2.704606">
        <ele>-57.40</ele>
        <time>2018-01-02T11:36:42Z</time>
      </trkpt>
      <trkpt lat="41.704807" lon="2.704470">
        <ele>-57.00</ele>
        <time>2018-01-02T11:36:44Z</time>
      </trkpt>
      <trkpt lat="41.704729" lon="2.704285">
        <ele>-57.40</ele>
        <time>2018-01-02T11:36:47Z</time>
      </trkpt>
      <trkpt lat="41.704782" lon="2.704074">
        <ele>-57.40</ele>
        <time>2018-01-02T11:36:50Z</time>
      </trkpt>
      <trkpt lat="41.704799" lon="2.703996">
        <ele>-57.60</ele>
        <time>2018-01-02T11:36:51Z</time>
      </trkpt>
      <trkpt lat="41.704737" lon="2.703468">
        <ele>-57.40</ele>
        <time>2018-01-02T11:36:57Z</time>
      </trkpt>
      <trkpt lat="41.704710" lon="2.703221">
        <ele>-56.60</ele>
        <time>2018-01-02T11:37:00Z</time>
      </trkpt>
      <trkpt lat="41.704764" lon="2.703016">
        <ele>-56.40</ele>
        <time>2018-01-02T11:37:03Z</time>
      </trkpt>
      <trkpt lat="41.704797" lon="2.702956">
        <ele>-56.40</ele>
        <time>2018-01-02T11:37:04Z</time>
      </trkpt>
      <trkpt lat="41.704871" lon="2.702846">
        <ele>-56.40</ele>
        <time>2018-01-02T11:37:06Z</time>
      </trkpt>
      <trkpt lat="41.704995" lon="2.702673">
        <ele>-56.60</ele>
        <time>2018-01-02T11:37:09Z</time>
      </trkpt>
      <trkpt lat="41.705042" lon="2.702624">
        <ele>-56.60</ele>
        <time>2018-01-02T11:37:10Z</time>
      </trkpt>
      <trkpt lat="41.705181" lon="2.702458">
        <ele>-57.20</ele>
        <time>2018-01-02T11:37:13Z</time>
      </trkpt>
      <trkpt lat="41.705328" lon="2.702268">
        <ele>-57.60</ele>
        <time>2018-01-02T11:37:16Z</time>
      </trkpt>
      <trkpt lat="41.705605" lon="2.701923">
        <ele>-57.40</ele>
        <time>2018-01-02T11:37:21Z</time>
      </trkpt>
      <trkpt lat="41.706025" lon="2.701609">
        <ele>-58.00</ele>
        <time>2018-01-02T11:37:27Z</time>
      </trkpt>
      <trkpt lat="41.706254" lon="2.701489">
        <ele>-57.80</ele>
        <time>2018-01-02T11:37:30Z</time>
      </trkpt>
      <trkpt lat="41.706798" lon="2.701226">
        <ele>-57.60</ele>
        <time>2018-01-02T11:37:37Z</time>
      </trkpt>
      <trkpt lat="41.707265" lon="2.701020">
        <ele>-57.60</ele>
        <time>2018-01-02T11:37:43Z</time>
      </trkpt>
      <trkpt lat="41.707493" lon="2.700916">
        <ele>-57.60</ele>
        <time>2018-01-02T11:37:46Z</time>
      </trkpt>
      <trkpt lat="41.708033" lon="2.700696">
        <ele>-57.40</ele>
        <time>2018-01-02T11:37:53Z</time>
      </trkpt>
      <trkpt lat="41.708113" lon="2.700666">
        <ele>-57.40</ele>
        <time>2018-01-02T11:37:54Z</time>
      </trkpt>
      <trkpt lat="41.708516" lon="2.700512">
        <ele>-57.00</ele>
        <time>2018-01-02T11:37:59Z</time>
      </trkpt>
      <trkpt lat="41.708674" lon="2.700481">
        <ele>-57.00</ele>
        <time>2018-01-02T11:38:01Z</time>
      </trkpt>
      <trkpt lat="41.708826" lon="2.700506">
        <ele>-57.00</ele>
        <time>2018-01-02T11:38:03Z</time>
      </trkpt>
      <trkpt lat="41.709122" lon="2.700670">
        <ele>-56.80</ele>
        <time>2018-01-02T11:38:07Z</time>
      </trkpt>
      <trkpt lat="41.709411" lon="2.700861">
        <ele>-57.00</ele>
        <time>2018-01-02T11:38:11Z</time>
      </trkpt>
      <trkpt lat="41.709554" lon="2.700960">
        <ele>-57.00</ele>
        <time>2018-01-02T11:38:13Z</time>
      </trkpt>
      <trkpt lat="41.710060" lon="2.701291">
        <ele>-57.60</ele>
        <time>2018-01-02T11:38:20Z</time>
      </trkpt>
      <trkpt lat="41.710205" lon="2.701386">
        <ele>-57.60</ele>
        <time>2018-01-02T11:38:22Z</time>
      </trkpt>
      <trkpt lat="41.710718" lon="2.701720">
        <ele>-57.40</ele>
        <time>2018-01-02T11:38:29Z</time>
      </trkpt>
      <trkpt lat="41.710791" lon="2.701768">
        <ele>-57.40</ele>
        <time>2018-01-02T11:38:30Z</time>
      </trkpt>
      <trkpt lat="41.711290" lon="2.702096">
        <ele>-57.20</ele>
        <time>2018-01-02T11:38:37Z</time>
      </trkpt>
      <trkpt lat="41.711429" lon="2.702193">
        <ele>-57.20</ele>
        <time>2018-01-02T11:38:39Z</time>
      </trkpt>
      <trkpt lat="41.711922" lon="2.702526">
        <ele>-57.20</ele>
        <time>2018-01-02T11:38:46Z</time>
      </trkpt>
      <trkpt lat="41.712132" lon="2.702668">
        <ele>-57.20</ele>
        <time>2018-01-02T11:38:49Z</time>
      </trkpt>
      <trkpt lat="41.712651" lon="2.702996">
        <ele>-57.00</ele>
        <time>2018-01-02T11:38:56Z</time>
      </trkpt>
      <trkpt lat="41.712726" lon="2.703045">
        <ele>-56.80</ele>
        <time>2018-01-02T11:38:57Z</time>
      </trkpt>
      <trkpt lat="41.713259" lon="2.703353">
        <ele>-57.00</ele>
        <time>2018-01-02T11:39:04Z</time>
      </trkpt>
      <trkpt lat="41.713711" lon="2.703625">
        <ele>-57.40</ele>
        <time>2018-01-02T11:39:10Z</time>
      </trkpt>
      <trkpt lat="41.713945" lon="2.703770">
        <ele>-57.00</ele>
        <time>2018-01-02T11:39:13Z</time>
      </trkpt>
      <trkpt lat="41.714511" lon="2.704118">
        <ele>-56.80</ele>
        <time>2018-01-02T11:39:20Z</time>
      </trkpt>
      <trkpt lat="41.714679" lon="2.704197">
        <ele>-56.60</ele>
        <time>2018-01-02T11:39:22Z</time>
      </trkpt>
      <trkpt lat="41.715268" lon="2.704419">
        <ele>-56.60</ele>
        <time>2018-01-02T11:39:29Z</time>
      </trkpt>
      <trkpt lat="41.715433" lon="2.704481">
        <ele>-56.60</ele>
        <time>2018-01-02T11:39:31Z</time>
      </trkpt>
      <trkpt lat="41.716022" lon="2.704729">
        <ele>-56.20</ele>
        <time>2018-01-02T11:39:38Z</time>
      </trkpt>
      <trkpt lat="41.716188" lon="2.704796">
        <ele>-56.20</ele>
        <time>2018-01-02T11:39:40Z</time>
      </trkpt>
      <trkpt lat="41.716749" lon="2.705049">
        <ele>-56.20</ele>
        <time>2018-01-02T11:39:47Z</time>
      </trkpt>
      <trkpt lat="41.716827" lon="2.705085">
        <ele>-56.20</ele>
        <time>2018-01-02T11:39:48Z</time>
      </trkpt>
      <trkpt lat="41.717074" lon="2.705158">
        <ele>-55.40</ele>
        <time>2018-01-02T11:39:51Z</time>
      </trkpt>
      <trkpt lat="41.717330" lon="2.705118">
        <ele>-55.40</ele>
        <time>2018-01-02T11:39:54Z</time>
      </trkpt>
      <trkpt lat="41.717530" lon="2.704924">
        <ele>-55.40</ele>
        <time>2018-01-02T11:39:57Z</time>
      </trkpt>
      <trkpt lat="41.717961" lon="2.704388">
        <ele>-55.20</ele>
        <time>2018-01-02T11:40:04Z</time>
      </trkpt>
      <trkpt lat="41.718186" lon="2.704052">
        <ele>-55.40</ele>
        <time>2018-01-02T11:40:08Z</time>
      </trkpt>
      <trkpt lat="41.718229" lon="2.703950">
        <ele>-55.40</ele>
        <time>2018-01-02T11:40:09Z</time>
      </trkpt>
      <trkpt lat="41.718348" lon="2.703499">
        <ele>-55.20</ele>
        <time>2018-01-02T11:40:13Z</time>
      </trkpt>
      <trkpt lat="41.718404" lon="2.703138">
        <ele>-55.60</ele>
        <time>2018-01-02T11:40:16Z</time>
      </trkpt>
      <trkpt lat="41.718447" lon="2.702889">
        <ele>-55.60</ele>
        <time>2018-01-02T11:40:18Z</time>
      </trkpt>
      <trkpt lat="41.718574" lon="2.702543">
        <ele>-55.40</ele>
        <time>2018-01-02T11:40:21Z</time>
      </trkpt>
      <trkpt lat="41.718644" lon="2.702456">
        <ele>-55.40</ele>
        <time>2018-01-02T11:40:22Z</time>
      </trkpt>
      <trkpt lat="41.719023" lon="2.702277">
        <ele>-55.40</ele>
        <time>2018-01-02T11:40:26Z</time>
      </trkpt>
      <trkpt lat="41.719337" lon="2.702187">
        <ele>-55.80</ele>
        <time>2018-01-02T11:40:29Z</time>
      </trkpt>
      <trkpt lat="41.719556" lon="2.702126">
        <ele>-56.00</ele>
        <time>2018-01-02T11:40:31Z</time>
      </trkpt>
      <trkpt lat="41.719772" lon="2.702026">
        <ele>-55.80</ele>
        <time>2018-01-02T11:40:33Z</time>
      </trkpt>
      <trkpt lat="41.719867" lon="2.701946">
        <ele>-55.60</ele>
        <time>2018-01-02T11:40:34Z</time>
      </trkpt>
      <trkpt lat="41.720041" lon="2.701748">
        <ele>-55.00</ele>
        <time>2018-01-02T11:40:36Z</time>
      </trkpt>
      <trkpt lat="41.720129" lon="2.701649">
        <ele>-54.80</ele>
        <time>2018-01-02T11:40:37Z</time>
      </trkpt>
      <trkpt lat="41.720304" lon="2.701432">
        <ele>-54.20</ele>
        <time>2018-01-02T11:40:39Z</time>
      </trkpt>
      <trkpt lat="41.720386" lon="2.701318">
        <ele>-54.00</ele>
        <time>2018-01-02T11:40:40Z</time>
      </trkpt>
      <trkpt lat="41.720467" lon="2.701195">
        <ele>-53.60</ele>
        <time>2018-01-02T11:40:41Z</time>
      </trkpt>
      <trkpt lat="41.720543" lon="2.701065">
        <ele>-53.00</ele>
        <time>2018-01-02T11:40:42Z</time>
      </trkpt>
      <trkpt lat="41.720616" lon="2.700935">
        <ele>-52.00</ele>
        <time>2018-01-02T11:40:43Z</time>
      </trkpt>
      <trkpt lat="41.720678" lon="2.700795">
        <ele>-51.20</ele>
        <time>2018-01-02T11:40:44Z</time>
      </trkpt>
      <trkpt lat="41.720775" lon="2.700504">
        <ele>-49.60</ele>
        <time>2018-01-02T11:40:46Z</time>
      </trkpt>
      <trkpt lat="41.720809" lon="2.700353">
        <ele>-49.00</ele>
        <time>2018-01-02T11:40:47Z</time>
      </trkpt>
      <trkpt lat="41.720834" lon="2.700207">
        <ele>-48.20</ele>
        <time>2018-01-02T11:40:48Z</time>
      </trkpt>
      <trkpt lat="41.720827" lon="2.699894">
        <ele>-46.40</ele>
        <time>2018-01-02T11:40:50Z</time>
      </trkpt>
      <trkpt lat="41.720813" lon="2.699734">
        <ele>-44.60</ele>
        <time>2018-01-02T11:40:51Z</time>
      </trkpt>
      <trkpt lat="41.720809" lon="2.699569">
        <ele>-42.60</ele>
        <time>2018-01-02T11:40:52Z</time>
      </trkpt>
      <trkpt lat="41.720804" lon="2.699407">
        <ele>-40.40</ele>
        <time>2018-01-02T11:40:53Z</time>
      </trkpt>
      <trkpt lat="41.720796" lon="2.699248">
        <ele>-38.60</ele>
        <time>2018-01-02T11:40:54Z</time>
      </trkpt>
      <trkpt lat="41.720791" lon="2.699104">
        <ele>-37.00</ele>
        <time>2018-01-02T11:40:55Z</time>
      </trkpt>
      <trkpt lat="41.720786" lon="2.698970">
        <ele>-36.00</ele>
        <time>2018-01-02T11:40:56Z</time>
      </trkpt>
      <trkpt lat="41.720789" lon="2.698744">
        <ele>-34.80</ele>
        <time>2018-01-02T11:40:58Z</time>
      </trkpt>
      <trkpt lat="41.720807" lon="2.698637">
        <ele>-34.60</ele>
        <time>2018-01-02T11:40:59Z</time>
      </trkpt>
      <trkpt lat="41.720913" lon="2.698355">
        <ele>-33.80</ele>
        <time>2018-01-02T11:41:02Z</time>
      </trkpt>
      <trkpt lat="41.720997" lon="2.698179">
        <ele>-33.20</ele>
        <time>2018-01-02T11:41:04Z</time>
      </trkpt>
      <trkpt lat="41.721155" lon="2.697723">
        <ele>-32.60</ele>
        <time>2018-01-02T11:41:09Z</time>
      </trkpt>
      <trkpt lat="41.721363" lon="2.697184">
        <ele>-33.20</ele>
        <time>2018-01-02T11:41:15Z</time>
      </trkpt>
      <trkpt lat="41.721593" lon="2.696717">
        <ele>-32.60</ele>
        <time>2018-01-02T11:41:20Z</time>
      </trkpt>
      <trkpt lat="41.721816" lon="2.696357">
        <ele>-31.40</ele>
        <time>2018-01-02T11:41:24Z</time>
      </trkpt>
      <trkpt lat="41.721983" lon="2.696112">
        <ele>-30.80</ele>
        <time>2018-01-02T11:41:27Z</time>
      </trkpt>
      <trkpt lat="41.722279" lon="2.695736">
        <ele>-30.20</ele>
        <time>2018-01-02T11:41:32Z</time>
      </trkpt>
      <trkpt lat="41.722342" lon="2.695663">
        <ele>-30.00</ele>
        <time>2018-01-02T11:41:33Z</time>
      </trkpt>
      <trkpt lat="41.722618" lon="2.695405">
        <ele>-29.20</ele>
        <time>2018-01-02T11:41:37Z</time>
      </trkpt>
      <trkpt lat="41.722805" lon="2.695233">
        <ele>-29.40</ele>
        <time>2018-01-02T11:41:40Z</time>
      </trkpt>
      <trkpt lat="41.723180" lon="2.694897">
        <ele>-29.40</ele>
        <time>2018-01-02T11:41:46Z</time>
      </trkpt>
      <trkpt lat="41.723242" lon="2.694839">
        <ele>-29.00</ele>
        <time>2018-01-02T11:41:47Z</time>
      </trkpt>
      <trkpt lat="41.723355" lon="2.694715">
        <ele>-28.40</ele>
        <time>2018-01-02T11:41:49Z</time>
      </trkpt>
      <trkpt lat="41.723418" lon="2.694556">
        <ele>-27.60</ele>
        <time>2018-01-02T11:41:51Z</time>
      </trkpt>
      <trkpt lat="41.723354" lon="2.694292">
        <ele>-27.60</ele>
        <time>2018-01-02T11:41:54Z</time>
      </trkpt>
      <trkpt lat="41.723324" lon="2.694200">
        <ele>-27.80</ele>
        <time>2018-01-02T11:41:55Z</time>
      </trkpt>
      <trkpt lat="41.723300" lon="2.694103">
        <ele>-28.00</ele>
        <time>2018-01-02T11:41:56Z</time>
      </trkpt>
      <trkpt lat="41.723254" lon="2.693689">
        <ele>-27.80</ele>
        <time>2018-01-02T11:42:00Z</time>
      </trkpt>
      <trkpt lat="41.723270" lon="2.693459">
        <ele>-28.00</ele>
        <time>2018-01-02T11:42:02Z</time>
      </trkpt>
      <trkpt lat="41.723309" lon="2.693363">
        <ele>-27.80</ele>
        <time>2018-01-02T11:42:03Z</time>
      </trkpt>
      <trkpt lat="41.723374" lon="2.693292">
        <ele>-27.60</ele>
        <time>2018-01-02T11:42:04Z</time>
      </trkpt>
      <trkpt lat="41.723458" lon="2.693249">
        <ele>-27.40</ele>
        <time>2018-01-02T11:42:05Z</time>
      </trkpt>
      <trkpt lat="41.723643" lon="2.693206">
        <ele>-26.80</ele>
        <time>2018-01-02T11:42:07Z</time>
      </trkpt>
      <trkpt lat="41.723917" lon="2.693108">
        <ele>-25.80</ele>
        <time>2018-01-02T11:42:10Z</time>
      </trkpt>
      <trkpt lat="41.724003" lon="2.693065">
        <ele>-25.40</ele>
        <time>2018-01-02T11:42:11Z</time>
      </trkpt>
      <trkpt lat="41.724089" lon="2.693028">
        <ele>-25.20</ele>
        <time>2018-01-02T11:42:12Z</time>
      </trkpt>
      <trkpt lat="41.724265" lon="2.692999">
        <ele>-25.00</ele>
        <time>2018-01-02T11:42:14Z</time>
      </trkpt>
      <trkpt lat="41.724620" lon="2.693015">
        <ele>-24.40</ele>
        <time>2018-01-02T11:42:18Z</time>
      </trkpt>
      <trkpt lat="41.724791" lon="2.693049">
        <ele>-23.80</ele>
        <time>2018-01-02T11:42:20Z</time>
      </trkpt>
      <trkpt lat="41.724967" lon="2.693109">
        <ele>-23.20</ele>
        <time>2018-01-02T11:42:22Z</time>
      </trkpt>
      <trkpt lat="41.725141" lon="2.693187">
        <ele>-22.40</ele>
        <time>2018-01-02T11:42:24Z</time>
      </trkpt>
      <trkpt lat="41.725227" lon="2.693222">
        <ele>-21.80</ele>
        <time>2018-01-02T11:42:25Z</time>
      </trkpt>
      <trkpt lat="41.725395" lon="2.693262">
        <ele>-21.20</ele>
        <time>2018-01-02T11:42:27Z</time>
      </trkpt>
      <trkpt lat="41.725559" lon="2.693252">
        <ele>-20.80</ele>
        <time>2018-01-02T11:42:29Z</time>
      </trkpt>
      <trkpt lat="41.725641" lon="2.693240">
        <ele>-20.60</ele>
        <time>2018-01-02T11:42:30Z</time>
      </trkpt>
      <trkpt lat="41.725804" lon="2.693193">
        <ele>-20.20</ele>
        <time>2018-01-02T11:42:32Z</time>
      </trkpt>
      <trkpt lat="41.725873" lon="2.693140">
        <ele>-20.00</ele>
        <time>2018-01-02T11:42:33Z</time>
      </trkpt>
      <trkpt lat="41.726145" lon="2.692653">
        <ele>-19.20</ele>
        <time>2018-01-02T11:42:39Z</time>
      </trkpt>
      <trkpt lat="41.726188" lon="2.692567">
        <ele>-19.00</ele>
        <time>2018-01-02T11:42:40Z</time>
      </trkpt>
      <trkpt lat="41.726258" lon="2.692396">
        <ele>-19.00</ele>
        <time>2018-01-02T11:42:42Z</time>
      </trkpt>
      <trkpt lat="41.726282" lon="2.692216">
        <ele>-19.20</ele>
        <time>2018-01-02T11:42:44Z</time>
      </trkpt>
      <trkpt lat="41.726258" lon="2.692030">
        <ele>-19.40</ele>
        <time>2018-01-02T11:42:46Z</time>
      </trkpt>
      <trkpt lat="41.726234" lon="2.691938">
        <ele>-19.60</ele>
        <time>2018-01-02T11:42:47Z</time>
      </trkpt>
      <trkpt lat="41.726118" lon="2.691572">
        <ele>-19.80</ele>
        <time>2018-01-02T11:42:51Z</time>
      </trkpt>
      <trkpt lat="41.726098" lon="2.691255">
        <ele>-19.80</ele>
        <time>2018-01-02T11:42:54Z</time>
      </trkpt>
      <trkpt lat="41.726111" lon="2.691044">
        <ele>-19.60</ele>
        <time>2018-01-02T11:42:56Z</time>
      </trkpt>
      <trkpt lat="41.726125" lon="2.690724">
        <ele>-19.60</ele>
        <time>2018-01-02T11:42:59Z</time>
      </trkpt>
      <trkpt lat="41.726167" lon="2.690302">
        <ele>-19.40</ele>
        <time>2018-01-02T11:43:03Z</time>
      </trkpt>
      <trkpt lat="41.726196" lon="2.690199">
        <ele>-19.40</ele>
        <time>2018-01-02T11:43:04Z</time>
      </trkpt>
      <trkpt lat="41.726235" lon="2.690102">
        <ele>-19.60</ele>
        <time>2018-01-02T11:43:05Z</time>
      </trkpt>
      <trkpt lat="41.726379" lon="2.689827">
        <ele>-19.60</ele>
        <time>2018-01-02T11:43:08Z</time>
      </trkpt>
      <trkpt lat="41.726432" lon="2.689734">
        <ele>-19.40</ele>
        <time>2018-01-02T11:43:09Z</time>
      </trkpt>
      <trkpt lat="41.726482" lon="2.689639">
        <ele>-19.40</ele>
        <time>2018-01-02T11:43:10Z</time>
      </trkpt>
      <trkpt lat="41.726697" lon="2.689250">
        <ele>-18.40</ele>
        <time>2018-01-02T11:43:14Z</time>
      </trkpt>
      <trkpt lat="41.726752" lon="2.689149">
        <ele>-18.20</ele>
        <time>2018-01-02T11:43:15Z</time>
      </trkpt>
      <trkpt lat="41.726922" lon="2.688838">
        <ele>-17.80</ele>
        <time>2018-01-02T11:43:18Z</time>
      </trkpt>
      <trkpt lat="41.727212" lon="2.688284">
        <ele>-17.40</ele>
        <time>2018-01-02T11:43:23Z</time>
      </trkpt>
      <trkpt lat="41.727269" lon="2.688168">
        <ele>-17.20</ele>
        <time>2018-01-02T11:43:24Z</time>
      </trkpt>
      <trkpt lat="41.727472" lon="2.687830">
        <ele>-16.00</ele>
        <time>2018-01-02T11:43:27Z</time>
      </trkpt>
      <trkpt lat="41.727621" lon="2.687618">
        <ele>-14.40</ele>
        <time>2018-01-02T11:43:29Z</time>
      </trkpt>
      <trkpt lat="41.727771" lon="2.687415">
        <ele>-13.20</ele>
        <time>2018-01-02T11:43:31Z</time>
      </trkpt>
      <trkpt lat="41.727928" lon="2.687235">
        <ele>-12.60</ele>
        <time>2018-01-02T11:43:33Z</time>
      </trkpt>
      <trkpt lat="41.728089" lon="2.687068">
        <ele>-11.80</ele>
        <time>2018-01-02T11:43:35Z</time>
      </trkpt>
      <trkpt lat="41.728339" lon="2.686830">
        <ele>-10.80</ele>
        <time>2018-01-02T11:43:38Z</time>
      </trkpt>
      <trkpt lat="41.728512" lon="2.686671">
        <ele>-10.20</ele>
        <time>2018-01-02T11:43:40Z</time>
      </trkpt>
      <trkpt lat="41.728593" lon="2.686585">
        <ele>-9.80</ele>
        <time>2018-01-02T11:43:41Z</time>
      </trkpt>
      <trkpt lat="41.728775" lon="2.686252">
        <ele>-8.40</ele>
        <time>2018-01-02T11:43:44Z</time>
      </trkpt>
      <trkpt lat="41.728827" lon="2.686132">
        <ele>-7.80</ele>
        <time>2018-01-02T11:43:45Z</time>
      </trkpt>
      <trkpt lat="41.728880" lon="2.686012">
        <ele>-7.20</ele>
        <time>2018-01-02T11:43:46Z</time>
      </trkpt>
      <trkpt lat="41.729033" lon="2.685645">
        <ele>-5.80</ele>
        <time>2018-01-02T11:43:49Z</time>
      </trkpt>
      <trkpt lat="41.729133" lon="2.685395">
        <ele>-4.60</ele>
        <time>2018-01-02T11:43:51Z</time>
      </trkpt>
      <trkpt lat="41.729186" lon="2.685275">
        <ele>-3.60</ele>
        <time>2018-01-02T11:43:52Z</time>
      </trkpt>
      <trkpt lat="41.729295" lon="2.685044">
        <ele>-2.80</ele>
        <time>2018-01-02T11:43:54Z</time>
      </trkpt>
      <trkpt lat="41.729353" lon="2.684935">
        <ele>-2.60</ele>
        <time>2018-01-02T11:43:55Z</time>
      </trkpt>
      <trkpt lat="41.729412" lon="2.684825">
        <ele>-2.00</ele>
        <time>2018-01-02T11:43:56Z</time>
      </trkpt>
      <trkpt lat="41.729481" lon="2.684722">
        <ele>-1.60</ele>
        <time>2018-01-02T11:43:57Z</time>
      </trkpt>
      <trkpt lat="41.729691" lon="2.684421">
        <ele>-0.40</ele>
        <time>2018-01-02T11:44:00Z</time>
      </trkpt>
      <trkpt lat="41.729853" lon="2.684252">
        <ele>1.20</ele>
        <time>2018-01-02T11:44:02Z</time>
      </trkpt>
      <trkpt lat="41.730027" lon="2.684108">
        <ele>2.80</ele>
        <time>2018-01-02T11:44:04Z</time>
      </trkpt>
      <trkpt lat="41.730111" lon="2.684033">
        <ele>3.60</ele>
        <time>2018-01-02T11:44:05Z</time>
      </trkpt>
      <trkpt lat="41.730194" lon="2.683961">
        <ele>4.20</ele>
        <time>2018-01-02T11:44:06Z</time>
      </trkpt>
      <trkpt lat="41.730353" lon="2.683831">
        <ele>5.60</ele>
        <time>2018-01-02T11:44:08Z</time>
      </trkpt>
      <trkpt lat="41.730491" lon="2.683702">
        <ele>6.80</ele>
        <time>2018-01-02T11:44:10Z</time>
      </trkpt>
      <trkpt lat="41.730622" lon="2.683589">
        <ele>8.20</ele>
        <time>2018-01-02T11:44:12Z</time>
      </trkpt>
      <trkpt lat="41.730743" lon="2.683499">
        <ele>8.80</ele>
        <time>2018-01-02T11:44:14Z</time>
      </trkpt>
      <trkpt lat="41.731168" lon="2.683316">
        <ele>8.60</ele>
        <time>2018-01-02T11:44:21Z</time>
      </trkpt>
      <trkpt lat="41.731233" lon="2.683300">
        <ele>8.40</ele>
        <time>2018-01-02T11:44:22Z</time>
      </trkpt>
      <trkpt lat="41.731440" lon="2.683256">
        <ele>8.20</ele>
        <time>2018-01-02T11:44:25Z</time>
      </trkpt>
      <trkpt lat="41.731560" lon="2.683160">
        <ele>8.40</ele>
        <time>2018-01-02T11:44:27Z</time>
      </trkpt>
      <trkpt lat="41.731719" lon="2.682865">
        <ele>8.80</ele>
        <time>2018-01-02T11:44:31Z</time>
      </trkpt>
      <trkpt lat="41.731891" lon="2.682530">
        <ele>9.20</ele>
        <time>2018-01-02T11:44:36Z</time>
      </trkpt>
      <trkpt lat="41.731931" lon="2.682475">
        <ele>9.20</ele>
        <time>2018-01-02T11:44:37Z</time>
      </trkpt>
      <trkpt lat="41.732049" lon="2.682332">
        <ele>8.60</ele>
        <time>2018-01-02T11:44:40Z</time>
      </trkpt>
      <trkpt lat="41.732124" lon="2.682245">
        <ele>8.40</ele>
        <time>2018-01-02T11:44:42Z</time>
      </trkpt>
      <trkpt lat="41.732236" lon="2.682120">
        <ele>7.60</ele>
        <time>2018-01-02T11:44:45Z</time>
      </trkpt>
      <trkpt lat="41.732406" lon="2.681938">
        <ele>6.80</ele>
        <time>2018-01-02T11:44:49Z</time>
      </trkpt>
      <trkpt lat="41.732498" lon="2.681842">
        <ele>6.60</ele>
        <time>2018-01-02T11:44:51Z</time>
      </trkpt>
      <trkpt lat="41.732612" lon="2.681652">
        <ele>6.60</ele>
        <time>2018-01-02T11:44:54Z</time>
      </trkpt>
      <trkpt lat="41.732652" lon="2.681404">
        <ele>7.20</ele>
        <time>2018-01-02T11:44:57Z</time>
      </trkpt>
      <trkpt lat="41.732671" lon="2.681233">
        <ele>7.60</ele>
        <time>2018-01-02T11:44:59Z</time>
      </trkpt>
      <trkpt lat="41.732685" lon="2.680806">
        <ele>8.00</ele>
        <time>2018-01-02T11:45:05Z</time>
      </trkpt>
      <trkpt lat="41.732688" lon="2.680616">
        <ele>7.60</ele>
        <time>2018-01-02T11:45:08Z</time>
      </trkpt>
      <trkpt lat="41.732688" lon="2.680342">
        <ele>7.80</ele>
        <time>2018-01-02T11:45:12Z</time>
      </trkpt>
      <trkpt lat="41.732700" lon="2.680140">
        <ele>8.40</ele>
        <time>2018-01-02T11:45:15Z</time>
      </trkpt>
      <trkpt lat="41.732695" lon="2.680023">
        <ele>8.80</ele>
        <time>2018-01-02T11:45:17Z</time>
      </trkpt>
      <trkpt lat="41.732682" lon="2.679930">
        <ele>8.80</ele>
        <time>2018-01-02T11:45:19Z</time>
      </trkpt>
      <trkpt lat="41.732654" lon="2.679827">
        <ele>8.80</ele>
        <time>2018-01-02T11:45:22Z</time>
      </trkpt>
      <trkpt lat="41.732657" lon="2.679765">
        <ele>8.40</ele>
        <time>2018-01-02T11:45:24Z</time>
      </trkpt>
      <trkpt lat="41.732671" lon="2.679745">
        <ele>8.40</ele>
        <time>2018-01-02T11:45:25Z</time>
      </trkpt>
      <trkpt lat="41.732687" lon="2.679736">
        <ele>8.40</ele>
        <time>2018-01-02T11:45:26Z</time>
      </trkpt>
      <trkpt lat="41.732698" lon="2.679728">
        <ele>8.20</ele>
        <time>2018-01-02T11:45:27Z</time>
      </trkpt>
      <trkpt lat="41.732689" lon="2.679679">
        <ele>8.00</ele>
        <time>2018-01-02T11:45:30Z</time>
      </trkpt>
      <trkpt lat="41.732621" lon="2.679642">
        <ele>8.00</ele>
        <time>2018-01-02T11:45:34Z</time>
      </trkpt>
      <trkpt lat="41.732597" lon="2.679639">
        <ele>8.00</ele>
        <time>2018-01-02T11:45:36Z</time>
      </trkpt>
      <trkpt lat="41.732588" lon="2.679640">
        <ele>8.00</ele>
        <time>2018-01-02T11:45:37Z</time>
      </trkpt>
      <trkpt lat="41.732560" lon="2.679603">
        <ele>7.60</ele>
        <time>2018-01-02T11:45:41Z</time>
      </trkpt>
      <trkpt lat="41.732572" lon="2.679577">
        <ele>7.60</ele>
        <time>2018-01-02T11:45:43Z</time>
      </trkpt>
      <trkpt lat="41.732589" lon="2.679547">
        <ele>7.40</ele>
        <time>2018-01-02T11:45:45Z</time>
      </trkpt>
      <trkpt lat="41.732589" lon="2.679527">
        <ele>7.20</ele>
        <time>2018-01-02T11:45:46Z</time>
      </trkpt>
      <trkpt lat="41.732556" lon="2.679417">
        <ele>6.40</ele>
        <time>2018-01-02T11:45:50Z</time>
      </trkpt>
      <trkpt lat="41.732554" lon="2.679377">
        <ele>6.20</ele>
        <time>2018-01-02T11:45:51Z</time>
      </trkpt>
      <trkpt lat="41.732549" lon="2.679296">
        <ele>5.20</ele>
        <time>2018-01-02T11:45:53Z</time>
      </trkpt>
      <trkpt lat="41.732548" lon="2.679133">
        <ele>4.20</ele>
        <time>2018-01-02T11:45:57Z</time>
      </trkpt>
      <trkpt lat="41.732547" lon="2.679092">
        <ele>4.00</ele>
        <time>2018-01-02T11:45:58Z</time>
      </trkpt>
      <trkpt lat="41.732559" lon="2.678903">
        <ele>3.00</ele>
        <time>2018-01-02T11:46:02Z</time>
      </trkpt>
      <trkpt lat="41.732596" lon="2.678702">
        <ele>2.20</ele>
        <time>2018-01-02T11:46:06Z</time>
      </trkpt>
      <trkpt lat="41.732621" lon="2.678602">
        <ele>2.00</ele>
        <time>2018-01-02T11:46:08Z</time>
      </trkpt>
      <trkpt lat="41.732634" lon="2.678554">
        <ele>1.80</ele>
        <time>2018-01-02T11:46:09Z</time>
      </trkpt>
      <trkpt lat="41.732707" lon="2.678364">
        <ele>1.60</ele>
        <time>2018-01-02T11:46:13Z</time>
      </trkpt>
      <trkpt lat="41.732802" lon="2.678188">
        <ele>1.00</ele>
        <time>2018-01-02T11:46:17Z</time>
      </trkpt>
      <trkpt lat="41.732904" lon="2.678044">
        <ele>0.20</ele>
        <time>2018-01-02T11:46:21Z</time>
      </trkpt>
      <trkpt lat="41.733015" lon="2.677915">
        <ele>-0.20</ele>
        <time>2018-01-02T11:46:25Z</time>
      </trkpt>
      <trkpt lat="41.733133" lon="2.677797">
        <ele>-1.00</ele>
        <time>2018-01-02T11:46:30Z</time>
      </trkpt>
      <trkpt lat="41.733163" lon="2.677774">
        <ele>-1.20</ele>
        <time>2018-01-02T11:46:31Z</time>
      </trkpt>
      <trkpt lat="41.733315" lon="2.677660">
        <ele>-2.40</ele>
        <time>2018-01-02T11:46:36Z</time>
      </trkpt>
      <trkpt lat="41.733389" lon="2.677618">
        <ele>-2.80</ele>
        <time>2018-01-02T11:46:38Z</time>
      </trkpt>
      <trkpt lat="41.733655" lon="2.677466">
        <ele>-3.40</ele>
        <time>2018-01-02T11:46:45Z</time>
      </trkpt>
      <trkpt lat="41.733840" lon="2.677250">
        <ele>-3.40</ele>
        <time>2018-01-02T11:46:51Z</time>
      </trkpt>
      <trkpt lat="41.733894" lon="2.677179">
        <ele>-3.60</ele>
        <time>2018-01-02T11:46:53Z</time>
      </trkpt>
      <trkpt lat="41.734035" lon="2.676906">
        <ele>-4.60</ele>
        <time>2018-01-02T11:47:00Z</time>
      </trkpt>
      <trkpt lat="41.734102" lon="2.676736">
        <ele>-5.60</ele>
        <time>2018-01-02T11:47:04Z</time>
      </trkpt>
      <trkpt lat="41.734160" lon="2.676567">
        <ele>-7.20</ele>
        <time>2018-01-02T11:47:08Z</time>
      </trkpt>
      <trkpt lat="41.734179" lon="2.676529">
        <ele>-7.40</ele>
        <time>2018-01-02T11:47:09Z</time>
      </trkpt>
      <trkpt lat="41.734238" lon="2.676415">
        <ele>-8.20</ele>
        <time>2018-01-02T11:47:12Z</time>
      </trkpt>
      <trkpt lat="41.734381" lon="2.676139">
        <ele>-9.20</ele>
        <time>2018-01-02T11:47:19Z</time>
      </trkpt>
      <trkpt lat="41.734422" lon="2.676067">
        <ele>-9.40</ele>
        <time>2018-01-02T11:47:21Z</time>
      </trkpt>
      <trkpt lat="41.734534" lon="2.675856">
        <ele>-10.20</ele>
        <time>2018-01-02T11:47:27Z</time>
      </trkpt>
      <trkpt lat="41.734554" lon="2.675824">
        <ele>-10.40</ele>
        <time>2018-01-02T11:47:28Z</time>
      </trkpt>
      <trkpt lat="41.734620" lon="2.675747">
        <ele>-11.40</ele>
        <time>2018-01-02T11:47:31Z</time>
      </trkpt>
      <trkpt lat="41.734637" lon="2.675718">
        <ele>-11.80</ele>
        <time>2018-01-02T11:47:32Z</time>
      </trkpt>
      <trkpt lat="41.734670" lon="2.675623">
        <ele>-12.60</ele>
        <time>2018-01-02T11:47:35Z</time>
      </trkpt>
      <trkpt lat="41.734729" lon="2.675550">
        <ele>-13.80</ele>
        <time>2018-01-02T11:47:38Z</time>
      </trkpt>
      <trkpt lat="41.734786" lon="2.675472">
        <ele>-14.80</ele>
        <time>2018-01-02T11:47:41Z</time>
      </trkpt>
      <trkpt lat="41.734830" lon="2.675388">
        <ele>-15.80</ele>
        <time>2018-01-02T11:47:44Z</time>
      </trkpt>
      <trkpt lat="41.734847" lon="2.675362">
        <ele>-16.20</ele>
        <time>2018-01-02T11:47:45Z</time>
      </trkpt>
      <trkpt lat="41.734898" lon="2.675283">
        <ele>-17.00</ele>
        <time>2018-01-02T11:47:48Z</time>
      </trkpt>
      <trkpt lat="41.734950" lon="2.675208">
        <ele>-18.20</ele>
        <time>2018-01-02T11:47:51Z</time>
      </trkpt>
      <trkpt lat="41.734984" lon="2.675157">
        <ele>-19.20</ele>
        <time>2018-01-02T11:47:53Z</time>
      </trkpt>
      <trkpt lat="41.735023" lon="2.675106">
        <ele>-19.80</ele>
        <time>2018-01-02T11:47:55Z</time>
      </trkpt>
      <trkpt lat="41.735042" lon="2.675082">
        <ele>-20.20</ele>
        <time>2018-01-02T11:47:56Z</time>
      </trkpt>
      <trkpt lat="41.735093" lon="2.675002">
        <ele>-21.40</ele>
        <time>2018-01-02T11:47:59Z</time>
      </trkpt>
      <trkpt lat="41.735150" lon="2.674922">
        <ele>-22.40</ele>
        <time>2018-01-02T11:48:02Z</time>
      </trkpt>
      <trkpt lat="41.735168" lon="2.674897">
        <ele>-22.80</ele>
        <time>2018-01-02T11:48:03Z</time>
      </trkpt>
      <trkpt lat="41.735203" lon="2.674851">
        <ele>-23.40</ele>
        <time>2018-01-02T11:48:05Z</time>
      </trkpt>
      <trkpt lat="41.735275" lon="2.674764">
        <ele>-24.80</ele>
        <time>2018-01-02T11:48:09Z</time>
      </trkpt>
      <trkpt lat="41.735316" lon="2.674720">
        <ele>-25.60</ele>
        <time>2018-01-02T11:48:11Z</time>
      </trkpt>
      <trkpt lat="41.735336" lon="2.674701">
        <ele>-25.80</ele>
        <time>2018-01-02T11:48:12Z</time>
      </trkpt>
      <trkpt lat="41.735417" lon="2.674620">
        <ele>-27.00</ele>
        <time>2018-01-02T11:48:16Z</time>
      </trkpt>
      <trkpt lat="41.735454" lon="2.674576">
        <ele>-28.20</ele>
        <time>2018-01-02T11:48:18Z</time>
      </trkpt>
      <trkpt lat="41.735512" lon="2.674510">
        <ele>-29.20</ele>
        <time>2018-01-02T11:48:21Z</time>
      </trkpt>
      <trkpt lat="41.735571" lon="2.674446">
        <ele>-30.00</ele>
        <time>2018-01-02T11:48:24Z</time>
      </trkpt>
      <trkpt lat="41.735593" lon="2.674430">
        <ele>-30.40</ele>
        <time>2018-01-02T11:48:25Z</time>
      </trkpt>
      <trkpt lat="41.735613" lon="2.674416">
        <ele>-30.80</ele>
        <time>2018-01-02T11:48:26Z</time>
      </trkpt>
      <trkpt lat="41.735659" lon="2.674351">
        <ele>-31.60</ele>
        <time>2018-01-02T11:48:29Z</time>
      </trkpt>
      <trkpt lat="41.735665" lon="2.674320">
        <ele>-31.80</ele>
        <time>2018-01-02T11:48:30Z</time>
      </trkpt>
      <trkpt lat="41.735691" lon="2.674234">
        <ele>-32.80</ele>
        <time>2018-01-02T11:48:33Z</time>
      </trkpt>
      <trkpt lat="41.735706" lon="2.674209">
        <ele>-33.20</ele>
        <time>2018-01-02T11:48:34Z</time>
      </trkpt>
      <trkpt lat="41.735741" lon="2.674161">
        <ele>-33.80</ele>
        <time>2018-01-02T11:48:36Z</time>
      </trkpt>
      <trkpt lat="41.735776" lon="2.674110">
        <ele>-34.40</ele>
        <time>2018-01-02T11:48:38Z</time>
      </trkpt>
      <trkpt lat="41.735812" lon="2.674066">
        <ele>-35.00</ele>
        <time>2018-01-02T11:48:40Z</time>
      </trkpt>
      <trkpt lat="41.735873" lon="2.673995">
        <ele>-36.40</ele>
        <time>2018-01-02T11:48:43Z</time>
      </trkpt>
      <trkpt lat="41.735892" lon="2.673970">
        <ele>-36.60</ele>
        <time>2018-01-02T11:48:44Z</time>
      </trkpt>
      <trkpt lat="41.735915" lon="2.673912">
        <ele>-37.00</ele>
        <time>2018-01-02T11:48:46Z</time>
      </trkpt>
      <trkpt lat="41.735897" lon="2.673847">
        <ele>-37.20</ele>
        <time>2018-01-02T11:48:48Z</time>
      </trkpt>
      <trkpt lat="41.735830" lon="2.673769">
        <ele>-37.60</ele>
        <time>2018-01-02T11:48:51Z</time>
      </trkpt>
      <trkpt lat="41.735687" lon="2.673636">
        <ele>-38.40</ele>
        <time>2018-01-02T11:48:56Z</time>
      </trkpt>
      <trkpt lat="41.735656" lon="2.673607">
        <ele>-38.60</ele>
        <time>2018-01-02T11:48:57Z</time>
      </trkpt>
      <trkpt lat="41.735622" lon="2.673573">
        <ele>-38.60</ele>
        <time>2018-01-02T11:48:58Z</time>
      </trkpt>
      <trkpt lat="41.735518" lon="2.673411">
        <ele>-39.00</ele>
        <time>2018-01-02T11:49:02Z</time>
      </trkpt>
      <trkpt lat="41.735462" lon="2.673283">
        <ele>-39.20</ele>
        <time>2018-01-02T11:49:05Z</time>
      </trkpt>
      <trkpt lat="41.735440" lon="2.673193">
        <ele>-39.40</ele>
        <time>2018-01-02T11:49:07Z</time>
      </trkpt>
      <trkpt lat="41.735432" lon="2.673098">
        <ele>-39.60</ele>
        <time>2018-01-02T11:49:09Z</time>
      </trkpt>
      <trkpt lat="41.735430" lon="2.672995">
        <ele>-40.00</ele>
        <time>2018-01-02T11:49:11Z</time>
      </trkpt>
      <trkpt lat="41.735413" lon="2.672838">
        <ele>-40.20</ele>
        <time>2018-01-02T11:49:14Z</time>
      </trkpt>
      <trkpt lat="41.735405" lon="2.672738">
        <ele>-40.40</ele>
        <time>2018-01-02T11:49:16Z</time>
      </trkpt>
      <trkpt lat="41.735390" lon="2.672602">
        <ele>-40.20</ele>
        <time>2018-01-02T11:49:19Z</time>
      </trkpt>
      <trkpt lat="41.735374" lon="2.672466">
        <ele>-40.20</ele>
        <time>2018-01-02T11:49:23Z</time>
      </trkpt>
      <trkpt lat="41.735360" lon="2.672356">
        <ele>-40.40</ele>
        <time>2018-01-02T11:49:26Z</time>
      </trkpt>
      <trkpt lat="41.735327" lon="2.672198">
        <ele>-40.00</ele>
        <time>2018-01-02T11:49:30Z</time>
      </trkpt>
      <trkpt lat="41.735306" lon="2.672066">
        <ele>-40.20</ele>
        <time>2018-01-02T11:49:33Z</time>
      </trkpt>
      <trkpt lat="41.735274" lon="2.671779">
        <ele>-39.80</ele>
        <time>2018-01-02T11:49:40Z</time>
      </trkpt>
      <trkpt lat="41.735269" lon="2.671743">
        <ele>-39.60</ele>
        <time>2018-01-02T11:49:41Z</time>
      </trkpt>
      <trkpt lat="41.735257" lon="2.671683">
        <ele>-39.60</ele>
        <time>2018-01-02T11:49:43Z</time>
      </trkpt>
      <trkpt lat="41.735257" lon="2.671634">
        <ele>-39.60</ele>
        <time>2018-01-02T11:49:45Z</time>
      </trkpt>
      <trkpt lat="41.735260" lon="2.671618">
        <ele>-39.60</ele>
        <time>2018-01-02T11:49:46Z</time>
      </trkpt>
      <trkpt lat="41.735277" lon="2.671572">
        <ele>-39.60</ele>
        <time>2018-01-02T11:49:50Z</time>
      </trkpt>
      <trkpt lat="41.735272" lon="2.671547">
        <ele>-39.60</ele>
        <time>2018-01-02T11:49:51Z</time>
      </trkpt>
      <trkpt lat="41.735246" lon="2.671514">
        <ele>-39.60</ele>
        <time>2018-01-02T11:49:53Z</time>
      </trkpt>
      <trkpt lat="41.735231" lon="2.671536">
        <ele>-39.40</ele>
        <time>2018-01-02T11:49:54Z</time>
      </trkpt>
      <trkpt lat="41.735221" lon="2.671614">
        <ele>-39.00</ele>
        <time>2018-01-02T11:49:56Z</time>
      </trkpt>
      <trkpt lat="41.735230" lon="2.671650">
        <ele>-38.60</ele>
        <time>2018-01-02T11:49:57Z</time>
      </trkpt>
      <trkpt lat="41.735237" lon="2.671687">
        <ele>-38.60</ele>
        <time>2018-01-02T11:49:58Z</time>
      </trkpt>
      <trkpt lat="41.735253" lon="2.671745">
        <ele>-38.40</ele>
        <time>2018-01-02T11:50:00Z</time>
      </trkpt>
      <trkpt lat="41.735250" lon="2.671760">
        <ele>-38.20</ele>
        <time>2018-01-02T11:50:01Z</time>
      </trkpt>
      <trkpt lat="41.735230" lon="2.671747">
        <ele>-37.80</ele>
        <time>2018-01-02T11:50:03Z</time>
      </trkpt>
      <trkpt lat="41.735201" lon="2.671661">
        <ele>-37.40</ele>
        <time>2018-01-02T11:50:07Z</time>
      </trkpt>
      <trkpt lat="41.735189" lon="2.671647">
        <ele>-37.40</ele>
        <time>2018-01-02T11:50:08Z</time>
      </trkpt>
      <trkpt lat="41.735137" lon="2.671639">
        <ele>-37.00</ele>
        <time>2018-01-02T11:50:11Z</time>
      </trkpt>
      <trkpt lat="41.735066" lon="2.671665">
        <ele>-37.00</ele>
        <time>2018-01-02T11:50:14Z</time>
      </trkpt>
      <trkpt lat="41.734989" lon="2.671680">
        <ele>-37.00</ele>
        <time>2018-01-02T11:50:17Z</time>
      </trkpt>
      <trkpt lat="41.734978" lon="2.671660">
        <ele>-37.00</ele>
        <time>2018-01-02T11:50:18Z</time>
      </trkpt>
      <trkpt lat="41.735027" lon="2.671606">
        <ele>-37.40</ele>
        <time>2018-01-02T11:50:23Z</time>
      </trkpt>
      <trkpt lat="41.735042" lon="2.671591">
        <ele>-37.40</ele>
        <time>2018-01-02T11:50:24Z</time>
      </trkpt>
      <trkpt lat="41.735097" lon="2.671580">
        <ele>-37.40</ele>
        <time>2018-01-02T11:50:27Z</time>
      </trkpt>
      <trkpt lat="41.735114" lon="2.671596">
        <ele>-37.40</ele>
        <time>2018-01-02T11:50:28Z</time>
      </trkpt>
      <trkpt lat="41.735124" lon="2.671618">
        <ele>-37.40</ele>
        <time>2018-01-02T11:50:29Z</time>
      </trkpt>
      <trkpt lat="41.735148" lon="2.671674">
        <ele>-41.00</ele>
        <time>2018-01-02T11:58:14Z</time>
      </trkpt>
      <trkpt lat="41.735139" lon="2.671638">
        <ele>-41.20</ele>
        <time>2018-01-02T11:58:17Z</time>
      </trkpt>
      <trkpt lat="41.735167" lon="2.671640">
        <ele>-41.40</ele>
        <time>2018-01-02T11:58:19Z</time>
      </trkpt>
      <trkpt lat="41.735193" lon="2.671675">
        <ele>-41.80</ele>
        <time>2018-01-02T11:58:21Z</time>
      </trkpt>
      <trkpt lat="41.735215" lon="2.671727">
        <ele>-42.00</ele>
        <time>2018-01-02T11:58:23Z</time>
      </trkpt>
      <trkpt lat="41.735232" lon="2.671776">
        <ele>-42.20</ele>
        <time>2018-01-02T11:58:25Z</time>
      </trkpt>
      <trkpt lat="41.735244" lon="2.671785">
        <ele>-42.40</ele>
        <time>2018-01-02T11:58:27Z</time>
      </trkpt>
      <trkpt lat="41.735249" lon="2.671778">
        <ele>-42.60</ele>
        <time>2018-01-02T11:58:28Z</time>
      </trkpt>
      <trkpt lat="41.735239" lon="2.671698">
        <ele>-43.20</ele>
        <time>2018-01-02T11:58:31Z</time>
      </trkpt>
      <trkpt lat="41.735233" lon="2.671659">
        <ele>-43.40</ele>
        <time>2018-01-02T11:58:32Z</time>
      </trkpt>
      <trkpt lat="41.735229" lon="2.671617">
        <ele>-43.40</ele>
        <time>2018-01-02T11:58:33Z</time>
      </trkpt>
      <trkpt lat="41.735260" lon="2.671549">
        <ele>-43.20</ele>
        <time>2018-01-02T11:58:35Z</time>
      </trkpt>
      <trkpt lat="41.735277" lon="2.671510">
        <ele>-43.20</ele>
        <time>2018-01-02T11:58:36Z</time>
      </trkpt>
      <trkpt lat="41.735282" lon="2.671399">
        <ele>-43.20</ele>
        <time>2018-01-02T11:58:38Z</time>
      </trkpt>
      <trkpt lat="41.735202" lon="2.671242">
        <ele>-42.80</ele>
        <time>2018-01-02T11:58:41Z</time>
      </trkpt>
      <trkpt lat="41.735160" lon="2.671207">
        <ele>-42.60</ele>
        <time>2018-01-02T11:58:42Z</time>
      </trkpt>
      <trkpt lat="41.734995" lon="2.671103">
        <ele>-42.00</ele>
        <time>2018-01-02T11:58:46Z</time>
      </trkpt>
      <trkpt lat="41.734940" lon="2.671069">
        <ele>-41.60</ele>
        <time>2018-01-02T11:58:48Z</time>
      </trkpt>
      <trkpt lat="41.734926" lon="2.671060">
        <ele>-41.60</ele>
        <time>2018-01-02T11:58:49Z</time>
      </trkpt>
      <trkpt lat="41.734902" lon="2.671061">
        <ele>-41.60</ele>
        <time>2018-01-02T11:58:51Z</time>
      </trkpt>
      <trkpt lat="41.734894" lon="2.671061">
        <ele>-41.40</ele>
        <time>2018-01-02T11:58:53Z</time>
      </trkpt>
      <trkpt lat="41.734872" lon="2.671059">
        <ele>-41.20</ele>
        <time>2018-01-02T11:58:54Z</time>
      </trkpt>
      <trkpt lat="41.734760" lon="2.671092">
        <ele>-40.20</ele>
        <time>2018-01-02T11:58:57Z</time>
      </trkpt>
      <trkpt lat="41.734717" lon="2.671112">
        <ele>-40.00</ele>
        <time>2018-01-02T11:58:58Z</time>
      </trkpt>
      <trkpt lat="41.734602" lon="2.671153">
        <ele>-39.60</ele>
        <time>2018-01-02T11:59:01Z</time>
      </trkpt>
      <trkpt lat="41.734497" lon="2.671115">
        <ele>-40.00</ele>
        <time>2018-01-02T11:59:04Z</time>
      </trkpt>
      <trkpt lat="41.734466" lon="2.671082">
        <ele>-40.20</ele>
        <time>2018-01-02T11:59:05Z</time>
      </trkpt>
      <trkpt lat="41.734440" lon="2.671044">
        <ele>-40.60</ele>
        <time>2018-01-02T11:59:06Z</time>
      </trkpt>
      <trkpt lat="41.734442" lon="2.670953">
        <ele>-41.00</ele>
        <time>2018-01-02T11:59:08Z</time>
      </trkpt>
      <trkpt lat="41.734474" lon="2.670913">
        <ele>-41.40</ele>
        <time>2018-01-02T11:59:09Z</time>
      </trkpt>
      <trkpt lat="41.734583" lon="2.670860">
        <ele>-41.60</ele>
        <time>2018-01-02T11:59:11Z</time>
      </trkpt>
      <trkpt lat="41.734760" lon="2.670781">
        <ele>-42.40</ele>
        <time>2018-01-02T11:59:14Z</time>
      </trkpt>
      <trkpt lat="41.734867" lon="2.670702">
        <ele>-42.80</ele>
        <time>2018-01-02T11:59:16Z</time>
      </trkpt>
      <trkpt lat="41.735120" lon="2.670420">
        <ele>-44.00</ele>
        <time>2018-01-02T11:59:21Z</time>
      </trkpt>
      <trkpt lat="41.735218" lon="2.670290">
        <ele>-44.20</ele>
        <time>2018-01-02T11:59:23Z</time>
      </trkpt>
      <trkpt lat="41.735592" lon="2.669725">
        <ele>-44.40</ele>
        <time>2018-01-02T11:59:31Z</time>
      </trkpt>
      <trkpt lat="41.735636" lon="2.669655">
        <ele>-44.40</ele>
        <time>2018-01-02T11:59:32Z</time>
      </trkpt>
      <trkpt lat="41.735918" lon="2.669234">
        <ele>-44.20</ele>
        <time>2018-01-02T11:59:38Z</time>
      </trkpt>
      <trkpt lat="41.736344" lon="2.668728">
        <ele>-44.40</ele>
        <time>2018-01-02T11:59:46Z</time>
      </trkpt>
      <trkpt lat="41.736518" lon="2.668554">
        <ele>-44.60</ele>
        <time>2018-01-02T11:59:49Z</time>
      </trkpt>
      <trkpt lat="41.736828" lon="2.668297">
        <ele>-44.60</ele>
        <time>2018-01-02T11:59:54Z</time>
      </trkpt>
      <trkpt lat="41.737012" lon="2.668151">
        <ele>-44.60</ele>
        <time>2018-01-02T11:59:57Z</time>
      </trkpt>
      <trkpt lat="41.737324" lon="2.667922">
        <ele>-44.60</ele>
        <time>2018-01-02T12:00:02Z</time>
      </trkpt>
      <trkpt lat="41.737657" lon="2.667618">
        <ele>-44.60</ele>
        <time>2018-01-02T12:00:08Z</time>
      </trkpt>
      <trkpt lat="41.737712" lon="2.667564">
        <ele>-44.40</ele>
        <time>2018-01-02T12:00:09Z</time>
      </trkpt>
      <trkpt lat="41.738033" lon="2.667236">
        <ele>-45.20</ele>
        <time>2018-01-02T12:00:15Z</time>
      </trkpt>
      <trkpt lat="41.738089" lon="2.667186">
        <ele>-45.00</ele>
        <time>2018-01-02T12:00:16Z</time>
      </trkpt>
      <trkpt lat="41.738257" lon="2.667036">
        <ele>-45.20</ele>
        <time>2018-01-02T12:00:19Z</time>
      </trkpt>
      <trkpt lat="41.738671" lon="2.666699">
        <ele>-45.20</ele>
        <time>2018-01-02T12:00:26Z</time>
      </trkpt>
      <trkpt lat="41.738789" lon="2.666605">
        <ele>-45.20</ele>
        <time>2018-01-02T12:00:28Z</time>
      </trkpt>
      <trkpt lat="41.738899" lon="2.666505">
        <ele>-45.00</ele>
        <time>2018-01-02T12:00:30Z</time>
      </trkpt>
      <trkpt lat="41.738949" lon="2.666450">
        <ele>-45.00</ele>
        <time>2018-01-02T12:00:31Z</time>
      </trkpt>
      <trkpt lat="41.739035" lon="2.666330">
        <ele>-45.00</ele>
        <time>2018-01-02T12:00:33Z</time>
      </trkpt>
      <trkpt lat="41.739104" lon="2.666184">
        <ele>-45.00</ele>
        <time>2018-01-02T12:00:35Z</time>
      </trkpt>
      <trkpt lat="41.739134" lon="2.666101">
        <ele>-44.80</ele>
        <time>2018-01-02T12:00:36Z</time>
      </trkpt>
      <trkpt lat="41.739350" lon="2.665368">
        <ele>-44.40</ele>
        <time>2018-01-02T12:00:44Z</time>
      </trkpt>
      <trkpt lat="41.739552" lon="2.664643">
        <ele>-44.40</ele>
        <time>2018-01-02T12:00:52Z</time>
      </trkpt>
      <trkpt lat="41.739753" lon="2.663935">
        <ele>-44.00</ele>
        <time>2018-01-02T12:01:00Z</time>
      </trkpt>
      <trkpt lat="41.739894" lon="2.663386">
        <ele>-43.60</ele>
        <time>2018-01-02T12:01:06Z</time>
      </trkpt>
      <trkpt lat="41.739919" lon="2.663196">
        <ele>-43.80</ele>
        <time>2018-01-02T12:01:08Z</time>
      </trkpt>
      <trkpt lat="41.739974" lon="2.662415">
        <ele>-44.00</ele>
        <time>2018-01-02T12:01:16Z</time>
      </trkpt>
      <trkpt lat="41.739986" lon="2.662219">
        <ele>-43.80</ele>
        <time>2018-01-02T12:01:18Z</time>
      </trkpt>
      <trkpt lat="41.740050" lon="2.661442">
        <ele>-43.60</ele>
        <time>2018-01-02T12:01:26Z</time>
      </trkpt>
      <trkpt lat="41.740081" lon="2.661160">
        <ele>-43.60</ele>
        <time>2018-01-02T12:01:29Z</time>
      </trkpt>
      <trkpt lat="41.740178" lon="2.660412">
        <ele>-43.60</ele>
        <time>2018-01-02T12:01:37Z</time>
      </trkpt>
      <trkpt lat="41.740301" lon="2.659662">
        <ele>-43.20</ele>
        <time>2018-01-02T12:01:45Z</time>
      </trkpt>
      <trkpt lat="41.740433" lon="2.658991">
        <ele>-42.60</ele>
        <time>2018-01-02T12:01:52Z</time>
      </trkpt>
      <trkpt lat="41.740480" lon="2.658718">
        <ele>-42.80</ele>
        <time>2018-01-02T12:01:55Z</time>
      </trkpt>
      <trkpt lat="41.740522" lon="2.658440">
        <ele>-42.80</ele>
        <time>2018-01-02T12:01:58Z</time>
      </trkpt>
      <trkpt lat="41.740651" lon="2.657768">
        <ele>-43.00</ele>
        <time>2018-01-02T12:02:05Z</time>
      </trkpt>
      <trkpt lat="41.740690" lon="2.657575">
        <ele>-42.60</ele>
        <time>2018-01-02T12:02:07Z</time>
      </trkpt>
      <trkpt lat="41.740730" lon="2.657383">
        <ele>-42.60</ele>
        <time>2018-01-02T12:02:09Z</time>
      </trkpt>
      <trkpt lat="41.740893" lon="2.656632">
        <ele>-42.60</ele>
        <time>2018-01-02T12:02:17Z</time>
      </trkpt>
      <trkpt lat="41.741045" lon="2.655984">
        <ele>-42.20</ele>
        <time>2018-01-02T12:02:24Z</time>
      </trkpt>
      <trkpt lat="41.741066" lon="2.655887">
        <ele>-42.20</ele>
        <time>2018-01-02T12:02:25Z</time>
      </trkpt>
      <trkpt lat="41.741237" lon="2.655109">
        <ele>-41.80</ele>
        <time>2018-01-02T12:02:33Z</time>
      </trkpt>
      <trkpt lat="41.741257" lon="2.655013">
        <ele>-41.80</ele>
        <time>2018-01-02T12:02:34Z</time>
      </trkpt>
      <trkpt lat="41.741385" lon="2.654429">
        <ele>-41.60</ele>
        <time>2018-01-02T12:02:40Z</time>
      </trkpt>
      <trkpt lat="41.741536" lon="2.653693">
        <ele>-41.00</ele>
        <time>2018-01-02T12:02:48Z</time>
      </trkpt>
      <trkpt lat="41.741605" lon="2.653321">
        <ele>-41.20</ele>
        <time>2018-01-02T12:02:52Z</time>
      </trkpt>
      <trkpt lat="41.741651" lon="2.653060">
        <ele>-41.00</ele>
        <time>2018-01-02T12:02:55Z</time>
      </trkpt>
      <trkpt lat="41.741684" lon="2.652886">
        <ele>-41.00</ele>
        <time>2018-01-02T12:02:57Z</time>
      </trkpt>
      <trkpt lat="41.741736" lon="2.652528">
        <ele>-40.80</ele>
        <time>2018-01-02T12:03:01Z</time>
      </trkpt>
      <trkpt lat="41.741816" lon="2.651755">
        <ele>-40.80</ele>
        <time>2018-01-02T12:03:09Z</time>
      </trkpt>
      <trkpt lat="41.741863" lon="2.651245">
        <ele>-40.80</ele>
        <time>2018-01-02T12:03:14Z</time>
      </trkpt>
      <trkpt lat="41.741891" lon="2.650934">
        <ele>-40.40</ele>
        <time>2018-01-02T12:03:17Z</time>
      </trkpt>
      <trkpt lat="41.741915" lon="2.650626">
        <ele>-40.40</ele>
        <time>2018-01-02T12:03:20Z</time>
      </trkpt>
      <trkpt lat="41.741919" lon="2.650217">
        <ele>-40.40</ele>
        <time>2018-01-02T12:03:24Z</time>
      </trkpt>
      <trkpt lat="41.741888" lon="2.649586">
        <ele>-40.40</ele>
        <time>2018-01-02T12:03:30Z</time>
      </trkpt>
      <trkpt lat="41.741853" lon="2.649061">
        <ele>-40.20</ele>
        <time>2018-01-02T12:03:35Z</time>
      </trkpt>
      <trkpt lat="41.741846" lon="2.648956">
        <ele>-40.20</ele>
        <time>2018-01-02T12:03:36Z</time>
      </trkpt>
      <trkpt lat="41.741819" lon="2.648640">
        <ele>-40.20</ele>
        <time>2018-01-02T12:03:39Z</time>
      </trkpt>
      <trkpt lat="41.741796" lon="2.648431">
        <ele>-40.00</ele>
        <time>2018-01-02T12:03:41Z</time>
      </trkpt>
      <trkpt lat="41.741781" lon="2.648327">
        <ele>-39.80</ele>
        <time>2018-01-02T12:03:42Z</time>
      </trkpt>
      <trkpt lat="41.741730" lon="2.648019">
        <ele>-40.00</ele>
        <time>2018-01-02T12:03:45Z</time>
      </trkpt>
      <trkpt lat="41.741693" lon="2.647813">
        <ele>-40.00</ele>
        <time>2018-01-02T12:03:47Z</time>
      </trkpt>
      <trkpt lat="41.741654" lon="2.647607">
        <ele>-39.80</ele>
        <time>2018-01-02T12:03:49Z</time>
      </trkpt>
      <trkpt lat="41.741609" lon="2.647401">
        <ele>-39.60</ele>
        <time>2018-01-02T12:03:51Z</time>
      </trkpt>
      <trkpt lat="41.741527" lon="2.647097">
        <ele>-39.40</ele>
        <time>2018-01-02T12:03:54Z</time>
      </trkpt>
      <trkpt lat="41.741449" lon="2.646797">
        <ele>-39.00</ele>
        <time>2018-01-02T12:03:57Z</time>
      </trkpt>
      <trkpt lat="41.741422" lon="2.646697">
        <ele>-39.00</ele>
        <time>2018-01-02T12:03:58Z</time>
      </trkpt>
      <trkpt lat="41.741366" lon="2.646501">
        <ele>-38.80</ele>
        <time>2018-01-02T12:04:00Z</time>
      </trkpt>
      <trkpt lat="41.741209" lon="2.646027">
        <ele>-39.00</ele>
        <time>2018-01-02T12:04:05Z</time>
      </trkpt>
      <trkpt lat="41.741093" lon="2.645731">
        <ele>-38.60</ele>
        <time>2018-01-02T12:04:08Z</time>
      </trkpt>
      <trkpt lat="41.740998" lon="2.645526">
        <ele>-38.60</ele>
        <time>2018-01-02T12:04:10Z</time>
      </trkpt>
      <trkpt lat="41.740946" lon="2.645421">
        <ele>-38.40</ele>
        <time>2018-01-02T12:04:11Z</time>
      </trkpt>
      <trkpt lat="41.740830" lon="2.645215">
        <ele>-37.60</ele>
        <time>2018-01-02T12:04:13Z</time>
      </trkpt>
      <trkpt lat="41.740691" lon="2.645023">
        <ele>-36.40</ele>
        <time>2018-01-02T12:04:15Z</time>
      </trkpt>
      <trkpt lat="41.740536" lon="2.644857">
        <ele>-35.20</ele>
        <time>2018-01-02T12:04:17Z</time>
      </trkpt>
      <trkpt lat="41.740453" lon="2.644789">
        <ele>-34.00</ele>
        <time>2018-01-02T12:04:18Z</time>
      </trkpt>
      <trkpt lat="41.740370" lon="2.644731">
        <ele>-33.20</ele>
        <time>2018-01-02T12:04:19Z</time>
      </trkpt>
      <trkpt lat="41.740285" lon="2.644683">
        <ele>-32.60</ele>
        <time>2018-01-02T12:04:20Z</time>
      </trkpt>
      <trkpt lat="41.740113" lon="2.644635">
        <ele>-31.40</ele>
        <time>2018-01-02T12:04:22Z</time>
      </trkpt>
      <trkpt lat="41.740033" lon="2.644644">
        <ele>-30.80</ele>
        <time>2018-01-02T12:04:23Z</time>
      </trkpt>
      <trkpt lat="41.739884" lon="2.644702">
        <ele>-29.80</ele>
        <time>2018-01-02T12:04:25Z</time>
      </trkpt>
      <trkpt lat="41.739742" lon="2.644761">
        <ele>-29.00</ele>
        <time>2018-01-02T12:04:27Z</time>
      </trkpt>
      <trkpt lat="41.739671" lon="2.644789">
        <ele>-28.80</ele>
        <time>2018-01-02T12:04:28Z</time>
      </trkpt>
      <trkpt lat="41.739529" lon="2.644832">
        <ele>-28.20</ele>
        <time>2018-01-02T12:04:30Z</time>
      </trkpt>
      <trkpt lat="41.739383" lon="2.644841">
        <ele>-27.80</ele>
        <time>2018-01-02T12:04:32Z</time>
      </trkpt>
      <trkpt lat="41.739313" lon="2.644834">
        <ele>-27.40</ele>
        <time>2018-01-02T12:04:33Z</time>
      </trkpt>
      <trkpt lat="41.739116" lon="2.644766">
        <ele>-26.60</ele>
        <time>2018-01-02T12:04:36Z</time>
      </trkpt>
      <trkpt lat="41.739057" lon="2.644724">
        <ele>-26.40</ele>
        <time>2018-01-02T12:04:37Z</time>
      </trkpt>
      <trkpt lat="41.739003" lon="2.644674">
        <ele>-26.00</ele>
        <time>2018-01-02T12:04:38Z</time>
      </trkpt>
      <trkpt lat="41.738908" lon="2.644552">
        <ele>-25.80</ele>
        <time>2018-01-02T12:04:40Z</time>
      </trkpt>
      <trkpt lat="41.738866" lon="2.644484">
        <ele>-25.60</ele>
        <time>2018-01-02T12:04:41Z</time>
      </trkpt>
      <trkpt lat="41.738794" lon="2.644332">
        <ele>-25.20</ele>
        <time>2018-01-02T12:04:43Z</time>
      </trkpt>
      <trkpt lat="41.738766" lon="2.644250">
        <ele>-24.80</ele>
        <time>2018-01-02T12:04:44Z</time>
      </trkpt>
      <trkpt lat="41.738737" lon="2.644074">
        <ele>-24.80</ele>
        <time>2018-01-02T12:04:46Z</time>
      </trkpt>
      <trkpt lat="41.738736" lon="2.643889">
        <ele>-24.00</ele>
        <time>2018-01-02T12:04:48Z</time>
      </trkpt>
      <trkpt lat="41.738742" lon="2.643796">
        <ele>-23.80</ele>
        <time>2018-01-02T12:04:49Z</time>
      </trkpt>
      <trkpt lat="41.738752" lon="2.643704">
        <ele>-23.40</ele>
        <time>2018-01-02T12:04:50Z</time>
      </trkpt>
      <trkpt lat="41.738772" lon="2.643529">
        <ele>-22.80</ele>
        <time>2018-01-02T12:04:52Z</time>
      </trkpt>
      <trkpt lat="41.738791" lon="2.643446">
        <ele>-22.40</ele>
        <time>2018-01-02T12:04:53Z</time>
      </trkpt>
      <trkpt lat="41.738824" lon="2.643287">
        <ele>-21.40</ele>
        <time>2018-01-02T12:04:55Z</time>
      </trkpt>
      <trkpt lat="41.738848" lon="2.643085">
        <ele>-20.60</ele>
        <time>2018-01-02T12:04:58Z</time>
      </trkpt>
      <trkpt lat="41.738829" lon="2.642802">
        <ele>-20.20</ele>
        <time>2018-01-02T12:05:04Z</time>
      </trkpt>
      <trkpt lat="41.738814" lon="2.642762">
        <ele>-20.20</ele>
        <time>2018-01-02T12:05:05Z</time>
      </trkpt>
      <trkpt lat="41.738657" lon="2.642476">
        <ele>-21.40</ele>
        <time>2018-01-02T12:05:13Z</time>
      </trkpt>
      <trkpt lat="41.738619" lon="2.642309">
        <ele>-22.20</ele>
        <time>2018-01-02T12:05:17Z</time>
      </trkpt>
      <trkpt lat="41.738655" lon="2.642165">
        <ele>-22.60</ele>
        <time>2018-01-02T12:05:20Z</time>
      </trkpt>
      <trkpt lat="41.738696" lon="2.642075">
        <ele>-23.00</ele>
        <time>2018-01-02T12:05:22Z</time>
      </trkpt>
      <trkpt lat="41.738718" lon="2.642027">
        <ele>-23.20</ele>
        <time>2018-01-02T12:05:23Z</time>
      </trkpt>
      <trkpt lat="41.738760" lon="2.641936">
        <ele>-23.60</ele>
        <time>2018-01-02T12:05:25Z</time>
      </trkpt>
      <trkpt lat="41.738839" lon="2.641759">
        <ele>-24.60</ele>
        <time>2018-01-02T12:05:29Z</time>
      </trkpt>
      <trkpt lat="41.738859" lon="2.641714">
        <ele>-25.20</ele>
        <time>2018-01-02T12:05:30Z</time>
      </trkpt>
      <trkpt lat="41.738879" lon="2.641671">
        <ele>-25.60</ele>
        <time>2018-01-02T12:05:31Z</time>
      </trkpt>
      <trkpt lat="41.738901" lon="2.641628">
        <ele>-25.80</ele>
        <time>2018-01-02T12:05:32Z</time>
      </trkpt>
      <trkpt lat="41.738943" lon="2.641549">
        <ele>-26.60</ele>
        <time>2018-01-02T12:05:34Z</time>
      </trkpt>
      <trkpt lat="41.738965" lon="2.641518">
        <ele>-27.20</ele>
        <time>2018-01-02T12:05:35Z</time>
      </trkpt>
      <trkpt lat="41.739025" lon="2.641494">
        <ele>-28.20</ele>
        <time>2018-01-02T12:05:37Z</time>
      </trkpt>
      <trkpt lat="41.739128" lon="2.641492">
        <ele>-29.60</ele>
        <time>2018-01-02T12:05:40Z</time>
      </trkpt>
      <trkpt lat="41.739162" lon="2.641495">
        <ele>-30.20</ele>
        <time>2018-01-02T12:05:41Z</time>
      </trkpt>
      <trkpt lat="41.739197" lon="2.641504">
        <ele>-30.80</ele>
        <time>2018-01-02T12:05:42Z</time>
      </trkpt>
      <trkpt lat="41.739305" lon="2.641536">
        <ele>-32.20</ele>
        <time>2018-01-02T12:05:45Z</time>
      </trkpt>
      <trkpt lat="41.739378" lon="2.641553">
        <ele>-33.00</ele>
        <time>2018-01-02T12:05:47Z</time>
      </trkpt>
      <trkpt lat="41.739418" lon="2.641563">
        <ele>-33.40</ele>
        <time>2018-01-02T12:05:48Z</time>
      </trkpt>
      <trkpt lat="41.739508" lon="2.641568">
        <ele>-34.20</ele>
        <time>2018-01-02T12:05:50Z</time>
      </trkpt>
      <trkpt lat="41.739599" lon="2.641574">
        <ele>-34.60</ele>
        <time>2018-01-02T12:05:52Z</time>
      </trkpt>
      <trkpt lat="41.739650" lon="2.641574">
        <ele>-34.80</ele>
        <time>2018-01-02T12:05:53Z</time>
      </trkpt>
      <trkpt lat="41.739704" lon="2.641568">
        <ele>-35.20</ele>
        <time>2018-01-02T12:05:54Z</time>
      </trkpt>
      <trkpt lat="41.739819" lon="2.641536">
        <ele>-35.60</ele>
        <time>2018-01-02T12:05:56Z</time>
      </trkpt>
      <trkpt lat="41.739877" lon="2.641511">
        <ele>-35.80</ele>
        <time>2018-01-02T12:05:57Z</time>
      </trkpt>
      <trkpt lat="41.740053" lon="2.641386">
        <ele>-36.00</ele>
        <time>2018-01-02T12:06:00Z</time>
      </trkpt>
      <trkpt lat="41.740150" lon="2.641273">
        <ele>-36.00</ele>
        <time>2018-01-02T12:06:02Z</time>
      </trkpt>
      <trkpt lat="41.740195" lon="2.641217">
        <ele>-35.80</ele>
        <time>2018-01-02T12:06:03Z</time>
      </trkpt>
      <trkpt lat="41.740265" lon="2.641104">
        <ele>-35.80</ele>
        <time>2018-01-02T12:06:05Z</time>
      </trkpt>
      <trkpt lat="41.740271" lon="2.640968">
        <ele>-36.20</ele>
        <time>2018-01-02T12:06:07Z</time>
      </trkpt>
      <trkpt lat="41.740253" lon="2.640895">
        <ele>-36.20</ele>
        <time>2018-01-02T12:06:08Z</time>
      </trkpt>
      <trkpt lat="41.740102" lon="2.640421">
        <ele>-35.60</ele>
        <time>2018-01-02T12:06:14Z</time>
      </trkpt>
      <trkpt lat="41.739954" lon="2.640010">
        <ele>-35.40</ele>
        <time>2018-01-02T12:06:19Z</time>
      </trkpt>
      <trkpt lat="41.739918" lon="2.639935">
        <ele>-35.60</ele>
        <time>2018-01-02T12:06:20Z</time>
      </trkpt>
      <trkpt lat="41.739736" lon="2.639669">
        <ele>-35.20</ele>
        <time>2018-01-02T12:06:24Z</time>
      </trkpt>
      <trkpt lat="41.739547" lon="2.639540">
        <ele>-34.40</ele>
        <time>2018-01-02T12:06:27Z</time>
      </trkpt>
      <trkpt lat="41.739478" lon="2.639514">
        <ele>-34.40</ele>
        <time>2018-01-02T12:06:28Z</time>
      </trkpt>
      <trkpt lat="41.739196" lon="2.639485">
        <ele>-34.80</ele>
        <time>2018-01-02T12:06:32Z</time>
      </trkpt>
      <trkpt lat="41.738986" lon="2.639481">
        <ele>-35.20</ele>
        <time>2018-01-02T12:06:35Z</time>
      </trkpt>
      <trkpt lat="41.738775" lon="2.639459">
        <ele>-35.20</ele>
        <time>2018-01-02T12:06:38Z</time>
      </trkpt>
      <trkpt lat="41.738704" lon="2.639451">
        <ele>-34.60</ele>
        <time>2018-01-02T12:06:39Z</time>
      </trkpt>
      <trkpt lat="41.738488" lon="2.639415">
        <ele>-34.40</ele>
        <time>2018-01-02T12:06:42Z</time>
      </trkpt>
      <trkpt lat="41.738343" lon="2.639390">
        <ele>-34.00</ele>
        <time>2018-01-02T12:06:44Z</time>
      </trkpt>
      <trkpt lat="41.737983" lon="2.639344">
        <ele>-34.20</ele>
        <time>2018-01-02T12:06:49Z</time>
      </trkpt>
      <trkpt lat="41.737769" lon="2.639321">
        <ele>-33.80</ele>
        <time>2018-01-02T12:06:52Z</time>
      </trkpt>
      <trkpt lat="41.737425" lon="2.639252">
        <ele>-33.80</ele>
        <time>2018-01-02T12:06:57Z</time>
      </trkpt>
      <trkpt lat="41.737211" lon="2.639212">
        <ele>-33.60</ele>
        <time>2018-01-02T12:07:00Z</time>
      </trkpt>
      <trkpt lat="41.736900" lon="2.639168">
        <ele>-34.00</ele>
        <time>2018-01-02T12:07:04Z</time>
      </trkpt>
      <trkpt lat="41.736815" lon="2.639155">
        <ele>-33.80</ele>
        <time>2018-01-02T12:07:05Z</time>
      </trkpt>
      <trkpt lat="41.736636" lon="2.639132">
        <ele>-32.60</ele>
        <time>2018-01-02T12:07:07Z</time>
      </trkpt>
      <trkpt lat="41.736449" lon="2.639103">
        <ele>-31.40</ele>
        <time>2018-01-02T12:07:09Z</time>
      </trkpt>
      <trkpt lat="41.736276" lon="2.639096">
        <ele>-30.00</ele>
        <time>2018-01-02T12:07:11Z</time>
      </trkpt>
      <trkpt lat="41.736120" lon="2.639115">
        <ele>-28.60</ele>
        <time>2018-01-02T12:07:13Z</time>
      </trkpt>
      <trkpt lat="41.736048" lon="2.639125">
        <ele>-28.00</ele>
        <time>2018-01-02T12:07:14Z</time>
      </trkpt>
      <trkpt lat="41.735982" lon="2.639133">
        <ele>-27.40</ele>
        <time>2018-01-02T12:07:15Z</time>
      </trkpt>
      <trkpt lat="41.735925" lon="2.639133">
        <ele>-26.80</ele>
        <time>2018-01-02T12:07:16Z</time>
      </trkpt>
      <trkpt lat="41.735827" lon="2.639133">
        <ele>-26.20</ele>
        <time>2018-01-02T12:07:18Z</time>
      </trkpt>
      <trkpt lat="41.735685" lon="2.639155">
        <ele>-26.20</ele>
        <time>2018-01-02T12:07:22Z</time>
      </trkpt>
      <trkpt lat="41.735575" lon="2.639241">
        <ele>-26.80</ele>
        <time>2018-01-02T12:07:26Z</time>
      </trkpt>
      <trkpt lat="41.735543" lon="2.639257">
        <ele>-27.00</ele>
        <time>2018-01-02T12:07:27Z</time>
      </trkpt>
      <trkpt lat="41.735415" lon="2.639248">
        <ele>-28.40</ele>
        <time>2018-01-02T12:07:31Z</time>
      </trkpt>
      <trkpt lat="41.735322" lon="2.639251">
        <ele>-29.60</ele>
        <time>2018-01-02T12:07:34Z</time>
      </trkpt>
      <trkpt lat="41.735255" lon="2.639224">
        <ele>-30.40</ele>
        <time>2018-01-02T12:07:36Z</time>
      </trkpt>
      <trkpt lat="41.735219" lon="2.639206">
        <ele>-30.60</ele>
        <time>2018-01-02T12:07:37Z</time>
      </trkpt>
      <trkpt lat="41.735142" lon="2.639161">
        <ele>-31.40</ele>
        <time>2018-01-02T12:07:39Z</time>
      </trkpt>
      <trkpt lat="41.735000" lon="2.639052">
        <ele>-32.00</ele>
        <time>2018-01-02T12:07:42Z</time>
      </trkpt>
      <trkpt lat="41.734535" lon="2.638690">
        <ele>-32.20</ele>
        <time>2018-01-02T12:07:50Z</time>
      </trkpt>
      <trkpt lat="41.734415" lon="2.638590">
        <ele>-31.80</ele>
        <time>2018-01-02T12:07:52Z</time>
      </trkpt>
      <trkpt lat="41.734006" lon="2.638226">
        <ele>-32.80</ele>
        <time>2018-01-02T12:07:59Z</time>
      </trkpt>
      <trkpt lat="41.733893" lon="2.638116">
        <ele>-33.00</ele>
        <time>2018-01-02T12:08:01Z</time>
      </trkpt>
      <trkpt lat="41.733838" lon="2.638061">
        <ele>-32.60</ele>
        <time>2018-01-02T12:08:02Z</time>
      </trkpt>
      <trkpt lat="41.733406" lon="2.637608">
        <ele>-32.20</ele>
        <time>2018-01-02T12:08:10Z</time>
      </trkpt>
      <trkpt lat="41.732993" lon="2.637123">
        <ele>-32.20</ele>
        <time>2018-01-02T12:08:18Z</time>
      </trkpt>
      <trkpt lat="41.732754" lon="2.636794">
        <ele>-31.00</ele>
        <time>2018-01-02T12:08:23Z</time>
      </trkpt>
      <trkpt lat="41.732707" lon="2.636732">
        <ele>-31.00</ele>
        <time>2018-01-02T12:08:24Z</time>
      </trkpt>
      <trkpt lat="41.732575" lon="2.636550">
        <ele>-31.20</ele>
        <time>2018-01-02T12:08:27Z</time>
      </trkpt>
      <trkpt lat="41.732380" lon="2.635897">
        <ele>-32.20</ele>
        <time>2018-01-02T12:08:35Z</time>
      </trkpt>
      <trkpt lat="41.732321" lon="2.635722">
        <ele>-32.60</ele>
        <time>2018-01-02T12:08:37Z</time>
      </trkpt>
      <trkpt lat="41.732175" lon="2.635391">
        <ele>-32.20</ele>
        <time>2018-01-02T12:08:41Z</time>
      </trkpt>
      <trkpt lat="41.731890" lon="2.634873">
        <ele>-32.40</ele>
        <time>2018-01-02T12:08:48Z</time>
      </trkpt>
      <trkpt lat="41.731671" lon="2.634560">
        <ele>-32.00</ele>
        <time>2018-01-02T12:08:53Z</time>
      </trkpt>
      <trkpt lat="41.731632" lon="2.634493">
        <ele>-32.20</ele>
        <time>2018-01-02T12:08:54Z</time>
      </trkpt>
      <trkpt lat="41.731517" lon="2.634179">
        <ele>-32.20</ele>
        <time>2018-01-02T12:08:58Z</time>
      </trkpt>
      <trkpt lat="41.731499" lon="2.634095">
        <ele>-32.40</ele>
        <time>2018-01-02T12:08:59Z</time>
      </trkpt>
      <trkpt lat="41.731368" lon="2.633491">
        <ele>-32.20</ele>
        <time>2018-01-02T12:09:06Z</time>
      </trkpt>
      <trkpt lat="41.731312" lon="2.633224">
        <ele>-32.40</ele>
        <time>2018-01-02T12:09:09Z</time>
      </trkpt>
      <trkpt lat="41.731215" lon="2.632781">
        <ele>-32.00</ele>
        <time>2018-01-02T12:09:14Z</time>
      </trkpt>
      <trkpt lat="41.731196" lon="2.632697">
        <ele>-31.80</ele>
        <time>2018-01-02T12:09:15Z</time>
      </trkpt>
      <trkpt lat="41.731070" lon="2.632270">
        <ele>-31.80</ele>
        <time>2018-01-02T12:09:20Z</time>
      </trkpt>
      <trkpt lat="41.730999" lon="2.632106">
        <ele>-31.40</ele>
        <time>2018-01-02T12:09:22Z</time>
      </trkpt>
      <trkpt lat="41.730857" lon="2.631776">
        <ele>-31.80</ele>
        <time>2018-01-02T12:09:26Z</time>
      </trkpt>
      <trkpt lat="41.730784" lon="2.631610">
        <ele>-31.80</ele>
        <time>2018-01-02T12:09:28Z</time>
      </trkpt>
      <trkpt lat="41.730646" lon="2.631303">
        <ele>-30.80</ele>
        <time>2018-01-02T12:09:32Z</time>
      </trkpt>
      <trkpt lat="41.730517" lon="2.631070">
        <ele>-30.60</ele>
        <time>2018-01-02T12:09:35Z</time>
      </trkpt>
      <trkpt lat="41.730474" lon="2.630997">
        <ele>-30.40</ele>
        <time>2018-01-02T12:09:36Z</time>
      </trkpt>
      <trkpt lat="41.730254" lon="2.630762">
        <ele>-30.20</ele>
        <time>2018-01-02T12:09:40Z</time>
      </trkpt>
      <trkpt lat="41.730148" lon="2.630652">
        <ele>-30.00</ele>
        <time>2018-01-02T12:09:42Z</time>
      </trkpt>
      <trkpt lat="41.729970" lon="2.630383">
        <ele>-30.40</ele>
        <time>2018-01-02T12:09:46Z</time>
      </trkpt>
      <trkpt lat="41.729943" lon="2.630299">
        <ele>-30.00</ele>
        <time>2018-01-02T12:09:47Z</time>
      </trkpt>
      <trkpt lat="41.729911" lon="2.630122">
        <ele>-30.20</ele>
        <time>2018-01-02T12:09:49Z</time>
      </trkpt>
      <trkpt lat="41.729868" lon="2.629836">
        <ele>-30.40</ele>
        <time>2018-01-02T12:09:52Z</time>
      </trkpt>
      <trkpt lat="41.729807" lon="2.629525">
        <ele>-29.00</ele>
        <time>2018-01-02T12:09:55Z</time>
      </trkpt>
      <trkpt lat="41.729775" lon="2.629315">
        <ele>-27.60</ele>
        <time>2018-01-02T12:09:57Z</time>
      </trkpt>
      <trkpt lat="41.729706" lon="2.628885">
        <ele>-26.20</ele>
        <time>2018-01-02T12:10:03Z</time>
      </trkpt>
      <trkpt lat="41.729680" lon="2.628776">
        <ele>-26.40</ele>
        <time>2018-01-02T12:10:05Z</time>
      </trkpt>
      <trkpt lat="41.729655" lon="2.628615">
        <ele>-27.00</ele>
        <time>2018-01-02T12:10:08Z</time>
      </trkpt>
      <trkpt lat="41.729646" lon="2.628565">
        <ele>-27.00</ele>
        <time>2018-01-02T12:10:09Z</time>
      </trkpt>
      <trkpt lat="41.729621" lon="2.628458">
        <ele>-27.40</ele>
        <time>2018-01-02T12:10:11Z</time>
      </trkpt>
      <trkpt lat="41.729599" lon="2.628346">
        <ele>-28.60</ele>
        <time>2018-01-02T12:10:13Z</time>
      </trkpt>
      <trkpt lat="41.729590" lon="2.628282">
        <ele>-29.20</ele>
        <time>2018-01-02T12:10:14Z</time>
      </trkpt>
      <trkpt lat="41.729549" lon="2.627997">
        <ele>-30.20</ele>
        <time>2018-01-02T12:10:18Z</time>
      </trkpt>
      <trkpt lat="41.729525" lon="2.627753">
        <ele>-30.40</ele>
        <time>2018-01-02T12:10:21Z</time>
      </trkpt>
      <trkpt lat="41.729517" lon="2.627235">
        <ele>-31.20</ele>
        <time>2018-01-02T12:10:27Z</time>
      </trkpt>
      <trkpt lat="41.729511" lon="2.626490">
        <ele>-31.20</ele>
        <time>2018-01-02T12:10:35Z</time>
      </trkpt>
      <trkpt lat="41.729485" lon="2.625745">
        <ele>-31.00</ele>
        <time>2018-01-02T12:10:43Z</time>
      </trkpt>
      <trkpt lat="41.729488" lon="2.625652">
        <ele>-31.20</ele>
        <time>2018-01-02T12:10:44Z</time>
      </trkpt>
      <trkpt lat="41.729492" lon="2.624904">
        <ele>-30.80</ele>
        <time>2018-01-02T12:10:52Z</time>
      </trkpt>
      <trkpt lat="41.729496" lon="2.624813">
        <ele>-30.80</ele>
        <time>2018-01-02T12:10:53Z</time>
      </trkpt>
      <trkpt lat="41.729497" lon="2.624524">
        <ele>-30.60</ele>
        <time>2018-01-02T12:10:56Z</time>
      </trkpt>
      <trkpt lat="41.729503" lon="2.624228">
        <ele>-30.60</ele>
        <time>2018-01-02T12:10:59Z</time>
      </trkpt>
      <trkpt lat="41.729505" lon="2.623843">
        <ele>-30.60</ele>
        <time>2018-01-02T12:11:03Z</time>
      </trkpt>
      <trkpt lat="41.729517" lon="2.623360">
        <ele>-30.60</ele>
        <time>2018-01-02T12:11:08Z</time>
      </trkpt>
      <trkpt lat="41.729523" lon="2.623164">
        <ele>-30.60</ele>
        <time>2018-01-02T12:11:10Z</time>
      </trkpt>
      <trkpt lat="41.729537" lon="2.622656">
        <ele>-30.60</ele>
        <time>2018-01-02T12:11:15Z</time>
      </trkpt>
      <trkpt lat="41.729559" lon="2.622220">
        <ele>-30.20</ele>
        <time>2018-01-02T12:11:19Z</time>
      </trkpt>
      <trkpt lat="41.729563" lon="2.621984">
        <ele>-29.00</ele>
        <time>2018-01-02T12:11:21Z</time>
      </trkpt>
      <trkpt lat="41.729568" lon="2.621867">
        <ele>-28.60</ele>
        <time>2018-01-02T12:11:22Z</time>
      </trkpt>
      <trkpt lat="41.729579" lon="2.621640">
        <ele>-27.60</ele>
        <time>2018-01-02T12:11:24Z</time>
      </trkpt>
      <trkpt lat="41.729622" lon="2.621325">
        <ele>-26.60</ele>
        <time>2018-01-02T12:11:27Z</time>
      </trkpt>
      <trkpt lat="41.729656" lon="2.621123">
        <ele>-25.60</ele>
        <time>2018-01-02T12:11:29Z</time>
      </trkpt>
      <trkpt lat="41.729673" lon="2.621024">
        <ele>-25.40</ele>
        <time>2018-01-02T12:11:30Z</time>
      </trkpt>
      <trkpt lat="41.729710" lon="2.620831">
        <ele>-24.00</ele>
        <time>2018-01-02T12:11:32Z</time>
      </trkpt>
      <trkpt lat="41.729716" lon="2.620744">
        <ele>-23.80</ele>
        <time>2018-01-02T12:11:33Z</time>
      </trkpt>
      <trkpt lat="41.729666" lon="2.620530">
        <ele>-23.00</ele>
        <time>2018-01-02T12:11:36Z</time>
      </trkpt>
      <trkpt lat="41.729621" lon="2.620516">
        <ele>-22.80</ele>
        <time>2018-01-02T12:11:37Z</time>
      </trkpt>
      <trkpt lat="41.729261" lon="2.620520">
        <ele>-22.20</ele>
        <time>2018-01-02T12:11:44Z</time>
      </trkpt>
      <trkpt lat="41.729207" lon="2.620523">
        <ele>-22.20</ele>
        <time>2018-01-02T12:11:45Z</time>
      </trkpt>
      <trkpt lat="41.729052" lon="2.620521">
        <ele>-22.80</ele>
        <time>2018-01-02T12:11:48Z</time>
      </trkpt>
      <trkpt lat="41.729013" lon="2.620499">
        <ele>-22.60</ele>
        <time>2018-01-02T12:11:49Z</time>
      </trkpt>
      <trkpt lat="41.729007" lon="2.620413">
        <ele>-22.40</ele>
        <time>2018-01-02T12:11:51Z</time>
      </trkpt>
      <trkpt lat="41.729053" lon="2.620020">
        <ele>-22.20</ele>
        <time>2018-01-02T12:11:57Z</time>
      </trkpt>
      <trkpt lat="41.729056" lon="2.619817">
        <ele>-22.80</ele>
        <time>2018-01-02T12:12:00Z</time>
      </trkpt>
      <trkpt lat="41.729027" lon="2.619530">
        <ele>-22.80</ele>
        <time>2018-01-02T12:12:04Z</time>
      </trkpt>
      <trkpt lat="41.728969" lon="2.619161">
        <ele>-23.80</ele>
        <time>2018-01-02T12:12:10Z</time>
      </trkpt>
      <trkpt lat="41.728920" lon="2.618879">
        <ele>-24.80</ele>
        <time>2018-01-02T12:12:15Z</time>
      </trkpt>
      <trkpt lat="41.728908" lon="2.618809">
        <ele>-25.60</ele>
        <time>2018-01-02T12:12:16Z</time>
      </trkpt>
      <trkpt lat="41.728880" lon="2.618665">
        <ele>-26.40</ele>
        <time>2018-01-02T12:12:18Z</time>
      </trkpt>
      <trkpt lat="41.728859" lon="2.618594">
        <ele>-27.00</ele>
        <time>2018-01-02T12:12:19Z</time>
      </trkpt>
      <trkpt lat="41.728630" lon="2.618168">
        <ele>-27.40</ele>
        <time>2018-01-02T12:12:25Z</time>
      </trkpt>
      <trkpt lat="41.728593" lon="2.618104">
        <ele>-27.20</ele>
        <time>2018-01-02T12:12:26Z</time>
      </trkpt>
      <trkpt lat="41.728415" lon="2.617862">
        <ele>-27.60</ele>
        <time>2018-01-02T12:12:30Z</time>
      </trkpt>
      <trkpt lat="41.727946" lon="2.617413">
        <ele>-27.40</ele>
        <time>2018-01-02T12:12:38Z</time>
      </trkpt>
      <trkpt lat="41.727716" lon="2.617199">
        <ele>-27.60</ele>
        <time>2018-01-02T12:12:42Z</time>
      </trkpt>
      <trkpt lat="41.727494" lon="2.616934">
        <ele>-27.00</ele>
        <time>2018-01-02T12:12:46Z</time>
      </trkpt>
      <trkpt lat="41.727145" lon="2.616468">
        <ele>-26.40</ele>
        <time>2018-01-02T12:12:53Z</time>
      </trkpt>
      <trkpt lat="41.727000" lon="2.616272">
        <ele>-26.60</ele>
        <time>2018-01-02T12:12:56Z</time>
      </trkpt>
      <trkpt lat="41.726950" lon="2.616210">
        <ele>-26.40</ele>
        <time>2018-01-02T12:12:57Z</time>
      </trkpt>
      <trkpt lat="41.726840" lon="2.616086">
        <ele>-26.20</ele>
        <time>2018-01-02T12:12:59Z</time>
      </trkpt>
      <trkpt lat="41.726518" lon="2.615878">
        <ele>-26.20</ele>
        <time>2018-01-02T12:13:04Z</time>
      </trkpt>
      <trkpt lat="41.726447" lon="2.615853">
        <ele>-26.20</ele>
        <time>2018-01-02T12:13:05Z</time>
      </trkpt>
      <trkpt lat="41.726263" lon="2.615749">
        <ele>-26.20</ele>
        <time>2018-01-02T12:13:08Z</time>
      </trkpt>
      <trkpt lat="41.726124" lon="2.615565">
        <ele>-26.00</ele>
        <time>2018-01-02T12:13:11Z</time>
      </trkpt>
      <trkpt lat="41.726082" lon="2.615492">
        <ele>-25.60</ele>
        <time>2018-01-02T12:13:12Z</time>
      </trkpt>
      <trkpt lat="41.725879" lon="2.614935">
        <ele>-25.20</ele>
        <time>2018-01-02T12:13:19Z</time>
      </trkpt>
      <trkpt lat="41.725858" lon="2.614861">
        <ele>-25.40</ele>
        <time>2018-01-02T12:13:20Z</time>
      </trkpt>
      <trkpt lat="41.725779" lon="2.614438">
        <ele>-26.00</ele>
        <time>2018-01-02T12:13:25Z</time>
      </trkpt>
      <trkpt lat="41.725729" lon="2.614164">
        <ele>-26.20</ele>
        <time>2018-01-02T12:13:28Z</time>
      </trkpt>
      <trkpt lat="41.725705" lon="2.614075">
        <ele>-26.20</ele>
        <time>2018-01-02T12:13:29Z</time>
      </trkpt>
      <trkpt lat="41.725488" lon="2.613595">
        <ele>-26.20</ele>
        <time>2018-01-02T12:13:35Z</time>
      </trkpt>
      <trkpt lat="41.725341" lon="2.613278">
        <ele>-26.20</ele>
        <time>2018-01-02T12:13:39Z</time>
      </trkpt>
      <trkpt lat="41.725177" lon="2.613080">
        <ele>-25.80</ele>
        <time>2018-01-02T12:13:42Z</time>
      </trkpt>
      <trkpt lat="41.725058" lon="2.612986">
        <ele>-25.40</ele>
        <time>2018-01-02T12:13:44Z</time>
      </trkpt>
      <trkpt lat="41.724822" lon="2.612828">
        <ele>-25.40</ele>
        <time>2018-01-02T12:13:48Z</time>
      </trkpt>
      <trkpt lat="41.724511" lon="2.612380">
        <ele>-25.40</ele>
        <time>2018-01-02T12:13:55Z</time>
      </trkpt>
      <trkpt lat="41.724294" lon="2.612133">
        <ele>-25.80</ele>
        <time>2018-01-02T12:13:59Z</time>
      </trkpt>
      <trkpt lat="41.724244" lon="2.612081">
        <ele>-25.60</ele>
        <time>2018-01-02T12:14:00Z</time>
      </trkpt>
      <trkpt lat="41.724151" lon="2.611968">
        <ele>-25.60</ele>
        <time>2018-01-02T12:14:02Z</time>
      </trkpt>
      <trkpt lat="41.724141" lon="2.611881">
        <ele>-25.40</ele>
        <time>2018-01-02T12:14:03Z</time>
      </trkpt>
      <trkpt lat="41.724210" lon="2.611623">
        <ele>-25.00</ele>
        <time>2018-01-02T12:14:06Z</time>
      </trkpt>
      <trkpt lat="41.724232" lon="2.611538">
        <ele>-24.60</ele>
        <time>2018-01-02T12:14:07Z</time>
      </trkpt>
      <trkpt lat="41.724251" lon="2.611362">
        <ele>-23.80</ele>
        <time>2018-01-02T12:14:09Z</time>
      </trkpt>
      <trkpt lat="41.724350" lon="2.611225">
        <ele>-24.20</ele>
        <time>2018-01-02T12:14:12Z</time>
      </trkpt>
      <trkpt lat="41.724414" lon="2.611210">
        <ele>-24.20</ele>
        <time>2018-01-02T12:14:13Z</time>
      </trkpt>
      <trkpt lat="41.724719" lon="2.611008">
        <ele>-24.20</ele>
        <time>2018-01-02T12:14:18Z</time>
      </trkpt>
      <trkpt lat="41.724780" lon="2.610957">
        <ele>-24.80</ele>
        <time>2018-01-02T12:14:19Z</time>
      </trkpt>
      <trkpt lat="41.724847" lon="2.610906">
        <ele>-25.20</ele>
        <time>2018-01-02T12:14:20Z</time>
      </trkpt>
      <trkpt lat="41.724972" lon="2.610843">
        <ele>-24.60</ele>
        <time>2018-01-02T12:14:22Z</time>
      </trkpt>
      <trkpt lat="41.725042" lon="2.610817">
        <ele>-24.00</ele>
        <time>2018-01-02T12:14:23Z</time>
      </trkpt>
      <trkpt lat="41.725259" lon="2.610799">
        <ele>-23.40</ele>
        <time>2018-01-02T12:14:26Z</time>
      </trkpt>
      <trkpt lat="41.725403" lon="2.610825">
        <ele>-22.80</ele>
        <time>2018-01-02T12:14:28Z</time>
      </trkpt>
      <trkpt lat="41.725472" lon="2.610844">
        <ele>-22.80</ele>
        <time>2018-01-02T12:14:29Z</time>
      </trkpt>
      <trkpt lat="41.725644" lon="2.610935">
        <ele>-21.80</ele>
        <time>2018-01-02T12:14:32Z</time>
      </trkpt>
      <trkpt lat="41.725731" lon="2.611008">
        <ele>-21.60</ele>
        <time>2018-01-02T12:14:34Z</time>
      </trkpt>
      <trkpt lat="41.725801" lon="2.611104">
        <ele>-21.60</ele>
        <time>2018-01-02T12:14:36Z</time>
      </trkpt>
      <trkpt lat="41.725857" lon="2.611208">
        <ele>-22.20</ele>
        <time>2018-01-02T12:14:38Z</time>
      </trkpt>
      <trkpt lat="41.725888" lon="2.611261">
        <ele>-22.80</ele>
        <time>2018-01-02T12:14:39Z</time>
      </trkpt>
      <trkpt lat="41.725940" lon="2.611366">
        <ele>-23.40</ele>
        <time>2018-01-02T12:14:41Z</time>
      </trkpt>
      <trkpt lat="41.725972" lon="2.611411">
        <ele>-23.80</ele>
        <time>2018-01-02T12:14:42Z</time>
      </trkpt>
      <trkpt lat="41.726053" lon="2.611484">
        <ele>-24.80</ele>
        <time>2018-01-02T12:14:44Z</time>
      </trkpt>
      <trkpt lat="41.726266" lon="2.611647">
        <ele>-25.60</ele>
        <time>2018-01-02T12:14:48Z</time>
      </trkpt>
      <trkpt lat="41.726387" lon="2.611722">
        <ele>-25.40</ele>
        <time>2018-01-02T12:14:50Z</time>
      </trkpt>
      <trkpt lat="41.726582" lon="2.611810">
        <ele>-25.40</ele>
        <time>2018-01-02T12:14:53Z</time>
      </trkpt>
      <trkpt lat="41.726713" lon="2.611865">
        <ele>-26.20</ele>
        <time>2018-01-02T12:14:55Z</time>
      </trkpt>
      <trkpt lat="41.727062" lon="2.611980">
        <ele>-26.60</ele>
        <time>2018-01-02T12:15:00Z</time>
      </trkpt>
      <trkpt lat="41.727201" lon="2.612020">
        <ele>-26.80</ele>
        <time>2018-01-02T12:15:02Z</time>
      </trkpt>
      <trkpt lat="41.727499" lon="2.612084">
        <ele>-26.20</ele>
        <time>2018-01-02T12:15:06Z</time>
      </trkpt>
      <trkpt lat="41.727728" lon="2.612044">
        <ele>-26.40</ele>
        <time>2018-01-02T12:15:09Z</time>
      </trkpt>
      <trkpt lat="41.727791" lon="2.612009">
        <ele>-26.00</ele>
        <time>2018-01-02T12:15:10Z</time>
      </trkpt>
      <trkpt lat="41.727878" lon="2.611853">
        <ele>-24.60</ele>
        <time>2018-01-02T12:15:12Z</time>
      </trkpt>
      <trkpt lat="41.727902" lon="2.611749">
        <ele>-23.80</ele>
        <time>2018-01-02T12:15:13Z</time>
      </trkpt>
      <trkpt lat="41.727915" lon="2.611638">
        <ele>-22.80</ele>
        <time>2018-01-02T12:15:14Z</time>
      </trkpt>
      <trkpt lat="41.727911" lon="2.611438">
        <ele>-21.40</ele>
        <time>2018-01-02T12:15:16Z</time>
      </trkpt>
      <trkpt lat="41.727957" lon="2.611182">
        <ele>-20.60</ele>
        <time>2018-01-02T12:15:19Z</time>
      </trkpt>
      <trkpt lat="41.727976" lon="2.611110">
        <ele>-20.40</ele>
        <time>2018-01-02T12:15:20Z</time>
      </trkpt>
      <trkpt lat="41.727984" lon="2.611034">
        <ele>-20.00</ele>
        <time>2018-01-02T12:15:21Z</time>
      </trkpt>
      <trkpt lat="41.728019" lon="2.610739">
        <ele>-19.60</ele>
        <time>2018-01-02T12:15:25Z</time>
      </trkpt>
      <trkpt lat="41.728044" lon="2.610606">
        <ele>-19.00</ele>
        <time>2018-01-02T12:15:27Z</time>
      </trkpt>
      <trkpt lat="41.727999" lon="2.610445">
        <ele>-17.60</ele>
        <time>2018-01-02T12:15:30Z</time>
      </trkpt>
      <trkpt lat="41.727977" lon="2.610367">
        <ele>-17.80</ele>
        <time>2018-01-02T12:15:35Z</time>
      </trkpt>
      <trkpt lat="41.727980" lon="2.610381">
        <ele>-18.00</ele>
        <time>2018-01-02T12:15:36Z</time>
      </trkpt>
      <trkpt lat="41.727991" lon="2.610437">
        <ele>-18.40</ele>
        <time>2018-01-02T12:15:38Z</time>
      </trkpt>
      <trkpt lat="41.727986" lon="2.610462">
        <ele>-18.80</ele>
        <time>2018-01-02T12:15:39Z</time>
      </trkpt>
      <trkpt lat="41.727997" lon="2.610484">
        <ele>-19.20</ele>
        <time>2018-01-02T12:15:40Z</time>
      </trkpt>
      <trkpt lat="41.728039" lon="2.610539">
        <ele>-19.80</ele>
        <time>2018-01-02T12:15:43Z</time>
      </trkpt>
      <trkpt lat="41.728100" lon="2.610514">
        <ele>-20.00</ele>
        <time>2018-01-02T12:15:46Z</time>
      </trkpt>
      <trkpt lat="41.728152" lon="2.610469">
        <ele>-19.80</ele>
        <time>2018-01-02T12:15:48Z</time>
      </trkpt>
      <trkpt lat="41.728183" lon="2.610456">
        <ele>-19.60</ele>
        <time>2018-01-02T12:15:49Z</time>
      </trkpt>
      <trkpt lat="41.728310" lon="2.610423">
        <ele>-19.60</ele>
        <time>2018-01-02T12:15:53Z</time>
      </trkpt>
      <trkpt lat="41.728433" lon="2.610366">
        <ele>-20.00</ele>
        <time>2018-01-02T12:15:57Z</time>
      </trkpt>
      <trkpt lat="41.728465" lon="2.610374">
        <ele>-20.00</ele>
        <time>2018-01-02T12:15:58Z</time>
      </trkpt>
      <trkpt lat="41.728557" lon="2.610366">
        <ele>-20.20</ele>
        <time>2018-01-02T12:16:01Z</time>
      </trkpt>
      <trkpt lat="41.728589" lon="2.610307">
        <ele>-20.40</ele>
        <time>2018-01-02T12:16:03Z</time>
      </trkpt>
      <trkpt lat="41.728614" lon="2.610303">
        <ele>-20.80</ele>
        <time>2018-01-02T12:16:04Z</time>
      </trkpt>
      <trkpt lat="41.728706" lon="2.610303">
        <ele>-21.80</ele>
        <time>2018-01-02T12:16:08Z</time>
      </trkpt>
      <trkpt lat="41.728732" lon="2.610283">
        <ele>-22.00</ele>
        <time>2018-01-02T12:16:09Z</time>
      </trkpt>
      <trkpt lat="41.728773" lon="2.610201">
        <ele>-23.00</ele>
        <time>2018-01-02T12:16:12Z</time>
      </trkpt>
      <trkpt lat="41.728753" lon="2.610112">
        <ele>-23.80</ele>
        <time>2018-01-02T12:16:14Z</time>
      </trkpt>
      <trkpt lat="41.728731" lon="2.610064">
        <ele>-24.20</ele>
        <time>2018-01-02T12:16:15Z</time>
      </trkpt>
      <trkpt lat="41.728694" lon="2.609950">
        <ele>-25.00</ele>
        <time>2018-01-02T12:16:17Z</time>
      </trkpt>
      <trkpt lat="41.728666" lon="2.609820">
        <ele>-25.60</ele>
        <time>2018-01-02T12:16:19Z</time>
      </trkpt>
      <trkpt lat="41.728623" lon="2.609607">
        <ele>-26.00</ele>
        <time>2018-01-02T12:16:22Z</time>
      </trkpt>
      <trkpt lat="41.728583" lon="2.609364">
        <ele>-26.40</ele>
        <time>2018-01-02T12:16:25Z</time>
      </trkpt>
      <trkpt lat="41.728515" lon="2.608919">
        <ele>-26.80</ele>
        <time>2018-01-02T12:16:30Z</time>
      </trkpt>
      <trkpt lat="41.728449" lon="2.608550">
        <ele>-27.00</ele>
        <time>2018-01-02T12:16:34Z</time>
      </trkpt>
      <trkpt lat="41.728400" lon="2.608374">
        <ele>-26.80</ele>
        <time>2018-01-02T12:16:36Z</time>
      </trkpt>
      <trkpt lat="41.728373" lon="2.608285">
        <ele>-26.80</ele>
        <time>2018-01-02T12:16:37Z</time>
      </trkpt>
      <trkpt lat="41.728081" lon="2.607632">
        <ele>-26.20</ele>
        <time>2018-01-02T12:16:45Z</time>
      </trkpt>
      <trkpt lat="41.727905" lon="2.607217">
        <ele>-26.00</ele>
        <time>2018-01-02T12:16:50Z</time>
      </trkpt>
      <trkpt lat="41.727830" lon="2.606963">
        <ele>-25.80</ele>
        <time>2018-01-02T12:16:53Z</time>
      </trkpt>
      <trkpt lat="41.727738" lon="2.606618">
        <ele>-25.40</ele>
        <time>2018-01-02T12:16:57Z</time>
      </trkpt>
      <trkpt lat="41.727616" lon="2.606184">
        <ele>-25.20</ele>
        <time>2018-01-02T12:17:02Z</time>
      </trkpt>
      <trkpt lat="41.727401" lon="2.605449">
        <ele>-25.20</ele>
        <time>2018-01-02T12:17:11Z</time>
      </trkpt>
      <trkpt lat="41.727222" lon="2.604783">
        <ele>-25.20</ele>
        <time>2018-01-02T12:17:19Z</time>
      </trkpt>
      <trkpt lat="41.727067" lon="2.604145">
        <ele>-25.20</ele>
        <time>2018-01-02T12:17:26Z</time>
      </trkpt>
      <trkpt lat="41.726957" lon="2.603785">
        <ele>-25.00</ele>
        <time>2018-01-02T12:17:30Z</time>
      </trkpt>
      <trkpt lat="41.726842" lon="2.603231">
        <ele>-25.00</ele>
        <time>2018-01-02T12:17:36Z</time>
      </trkpt>
      <trkpt lat="41.726774" lon="2.602829">
        <ele>-25.20</ele>
        <time>2018-01-02T12:17:40Z</time>
      </trkpt>
      <trkpt lat="41.726769" lon="2.602717">
        <ele>-25.20</ele>
        <time>2018-01-02T12:17:41Z</time>
      </trkpt>
      <trkpt lat="41.726834" lon="2.602447">
        <ele>-25.20</ele>
        <time>2018-01-02T12:17:44Z</time>
      </trkpt>
      <trkpt lat="41.726860" lon="2.602362">
        <ele>-25.00</ele>
        <time>2018-01-02T12:17:45Z</time>
      </trkpt>
      <trkpt lat="41.726880" lon="2.602271">
        <ele>-25.00</ele>
        <time>2018-01-02T12:17:46Z</time>
      </trkpt>
      <trkpt lat="41.726892" lon="2.601989">
        <ele>-24.60</ele>
        <time>2018-01-02T12:17:49Z</time>
      </trkpt>
      <trkpt lat="41.726928" lon="2.601453">
        <ele>-24.20</ele>
        <time>2018-01-02T12:17:55Z</time>
      </trkpt>
      <trkpt lat="41.727027" lon="2.600957">
        <ele>-24.20</ele>
        <time>2018-01-02T12:18:01Z</time>
      </trkpt>
      <trkpt lat="41.727181" lon="2.600317">
        <ele>-24.00</ele>
        <time>2018-01-02T12:18:09Z</time>
      </trkpt>
      <trkpt lat="41.727294" lon="2.599820">
        <ele>-23.80</ele>
        <time>2018-01-02T12:18:15Z</time>
      </trkpt>
      <trkpt lat="41.727350" lon="2.599318">
        <ele>-24.00</ele>
        <time>2018-01-02T12:18:21Z</time>
      </trkpt>
      <trkpt lat="41.727363" lon="2.599234">
        <ele>-23.80</ele>
        <time>2018-01-02T12:18:22Z</time>
      </trkpt>
      <trkpt lat="41.727450" lon="2.598464">
        <ele>-23.60</ele>
        <time>2018-01-02T12:18:31Z</time>
      </trkpt>
      <trkpt lat="41.727471" lon="2.598291">
        <ele>-23.40</ele>
        <time>2018-01-02T12:18:33Z</time>
      </trkpt>
      <trkpt lat="41.727495" lon="2.598120">
        <ele>-23.20</ele>
        <time>2018-01-02T12:18:35Z</time>
      </trkpt>
      <trkpt lat="41.727487" lon="2.597960">
        <ele>-23.40</ele>
        <time>2018-01-02T12:18:37Z</time>
      </trkpt>
      <trkpt lat="41.727438" lon="2.597911">
        <ele>-23.80</ele>
        <time>2018-01-02T12:18:38Z</time>
      </trkpt>
      <trkpt lat="41.727312" lon="2.597887">
        <ele>-23.60</ele>
        <time>2018-01-02T12:18:40Z</time>
      </trkpt>
      <trkpt lat="41.727187" lon="2.597892">
        <ele>-23.40</ele>
        <time>2018-01-02T12:18:42Z</time>
      </trkpt>
      <trkpt lat="41.726912" lon="2.597898">
        <ele>-23.80</ele>
        <time>2018-01-02T12:18:46Z</time>
      </trkpt>
      <trkpt lat="41.726701" lon="2.597914">
        <ele>-23.40</ele>
        <time>2018-01-02T12:18:49Z</time>
      </trkpt>
      <trkpt lat="41.726504" lon="2.597911">
        <ele>-23.60</ele>
        <time>2018-01-02T12:18:52Z</time>
      </trkpt>
      <trkpt lat="41.726357" lon="2.597754">
        <ele>-23.40</ele>
        <time>2018-01-02T12:18:55Z</time>
      </trkpt>
      <trkpt lat="41.726324" lon="2.597673">
        <ele>-23.40</ele>
        <time>2018-01-02T12:18:56Z</time>
      </trkpt>
      <trkpt lat="41.726272" lon="2.597398">
        <ele>-22.80</ele>
        <time>2018-01-02T12:18:59Z</time>
      </trkpt>
      <trkpt lat="41.726263" lon="2.597304">
        <ele>-22.60</ele>
        <time>2018-01-02T12:19:00Z</time>
      </trkpt>
      <trkpt lat="41.726273" lon="2.596687">
        <ele>-21.80</ele>
        <time>2018-01-02T12:19:07Z</time>
      </trkpt>
      <trkpt lat="41.726319" lon="2.596011">
        <ele>-21.60</ele>
        <time>2018-01-02T12:19:15Z</time>
      </trkpt>
      <trkpt lat="41.726334" lon="2.595756">
        <ele>-21.80</ele>
        <time>2018-01-02T12:19:18Z</time>
      </trkpt>
      <trkpt lat="41.726360" lon="2.595326">
        <ele>-21.60</ele>
        <time>2018-01-02T12:19:23Z</time>
      </trkpt>
      <trkpt lat="41.726375" lon="2.595157">
        <ele>-21.40</ele>
        <time>2018-01-02T12:19:25Z</time>
      </trkpt>
      <trkpt lat="41.726448" lon="2.594655">
        <ele>-21.60</ele>
        <time>2018-01-02T12:19:31Z</time>
      </trkpt>
      <trkpt lat="41.726481" lon="2.594484">
        <ele>-21.60</ele>
        <time>2018-01-02T12:19:33Z</time>
      </trkpt>
      <trkpt lat="41.726565" lon="2.594040">
        <ele>-21.80</ele>
        <time>2018-01-02T12:19:38Z</time>
      </trkpt>
      <trkpt lat="41.726587" lon="2.593951">
        <ele>-21.80</ele>
        <time>2018-01-02T12:19:39Z</time>
      </trkpt>
      <trkpt lat="41.726604" lon="2.593857">
        <ele>-21.60</ele>
        <time>2018-01-02T12:19:40Z</time>
      </trkpt>
      <trkpt lat="41.726624" lon="2.593571">
        <ele>-21.40</ele>
        <time>2018-01-02T12:19:43Z</time>
      </trkpt>
      <trkpt lat="41.726628" lon="2.593479">
        <ele>-21.00</ele>
        <time>2018-01-02T12:19:44Z</time>
      </trkpt>
      <trkpt lat="41.726652" lon="2.593231">
        <ele>-20.80</ele>
        <time>2018-01-02T12:19:47Z</time>
      </trkpt>
      <trkpt lat="41.726755" lon="2.593042">
        <ele>-20.60</ele>
        <time>2018-01-02T12:19:50Z</time>
      </trkpt>
      <trkpt lat="41.727243" lon="2.592870">
        <ele>-20.80</ele>
        <time>2018-01-02T12:19:58Z</time>
      </trkpt>
      <trkpt lat="41.727597" lon="2.592824">
        <ele>-20.60</ele>
        <time>2018-01-02T12:20:04Z</time>
      </trkpt>
      <trkpt lat="41.727845" lon="2.592797">
        <ele>-21.20</ele>
        <time>2018-01-02T12:20:08Z</time>
      </trkpt>
      <trkpt lat="41.727908" lon="2.592772">
        <ele>-21.00</ele>
        <time>2018-01-02T12:20:09Z</time>
      </trkpt>
      <trkpt lat="41.727945" lon="2.592739">
        <ele>-20.80</ele>
        <time>2018-01-02T12:20:10Z</time>
      </trkpt>
      <trkpt lat="41.727958" lon="2.592687">
        <ele>-20.80</ele>
        <time>2018-01-02T12:20:11Z</time>
      </trkpt>
      <trkpt lat="41.727903" lon="2.592232">
        <ele>-20.60</ele>
        <time>2018-01-02T12:20:17Z</time>
      </trkpt>
      <trkpt lat="41.727892" lon="2.592146">
        <ele>-20.60</ele>
        <time>2018-01-02T12:20:18Z</time>
      </trkpt>
      <trkpt lat="41.727846" lon="2.591896">
        <ele>-20.60</ele>
        <time>2018-01-02T12:20:21Z</time>
      </trkpt>
      <trkpt lat="41.727823" lon="2.591815">
        <ele>-20.20</ele>
        <time>2018-01-02T12:20:22Z</time>
      </trkpt>
      <trkpt lat="41.727738" lon="2.591302">
        <ele>-20.40</ele>
        <time>2018-01-02T12:20:28Z</time>
      </trkpt>
      <trkpt lat="41.727615" lon="2.590798">
        <ele>-20.00</ele>
        <time>2018-01-02T12:20:34Z</time>
      </trkpt>
      <trkpt lat="41.727467" lon="2.590170">
        <ele>-19.60</ele>
        <time>2018-01-02T12:20:41Z</time>
      </trkpt>
      <trkpt lat="41.727376" lon="2.589706">
        <ele>-19.60</ele>
        <time>2018-01-02T12:20:47Z</time>
      </trkpt>
      <trkpt lat="41.727312" lon="2.589476">
        <ele>-19.60</ele>
        <time>2018-01-02T12:20:50Z</time>
      </trkpt>
      <trkpt lat="41.727247" lon="2.589238">
        <ele>-19.60</ele>
        <time>2018-01-02T12:20:53Z</time>
      </trkpt>
      <trkpt lat="41.727176" lon="2.588998">
        <ele>-19.40</ele>
        <time>2018-01-02T12:20:56Z</time>
      </trkpt>
      <trkpt lat="41.727149" lon="2.588914">
        <ele>-19.20</ele>
        <time>2018-01-02T12:20:57Z</time>
      </trkpt>
      <trkpt lat="41.727075" lon="2.588679">
        <ele>-19.40</ele>
        <time>2018-01-02T12:21:00Z</time>
      </trkpt>
      <trkpt lat="41.727029" lon="2.588526">
        <ele>-19.60</ele>
        <time>2018-01-02T12:21:02Z</time>
      </trkpt>
      <trkpt lat="41.726990" lon="2.588376">
        <ele>-19.80</ele>
        <time>2018-01-02T12:21:04Z</time>
      </trkpt>
      <trkpt lat="41.726961" lon="2.588231">
        <ele>-19.40</ele>
        <time>2018-01-02T12:21:06Z</time>
      </trkpt>
      <trkpt lat="41.726939" lon="2.588106">
        <ele>-19.20</ele>
        <time>2018-01-02T12:21:08Z</time>
      </trkpt>
      <trkpt lat="41.726932" lon="2.588044">
        <ele>-19.40</ele>
        <time>2018-01-02T12:21:09Z</time>
      </trkpt>
      <trkpt lat="41.726924" lon="2.587980">
        <ele>-19.40</ele>
        <time>2018-01-02T12:21:10Z</time>
      </trkpt>
      <trkpt lat="41.726899" lon="2.587861">
        <ele>-19.60</ele>
        <time>2018-01-02T12:21:12Z</time>
      </trkpt>
      <trkpt lat="41.726887" lon="2.587804">
        <ele>-20.00</ele>
        <time>2018-01-02T12:21:13Z</time>
      </trkpt>
      <trkpt lat="41.726864" lon="2.587696">
        <ele>-20.80</ele>
        <time>2018-01-02T12:21:15Z</time>
      </trkpt>
      <trkpt lat="41.726831" lon="2.587581">
        <ele>-20.80</ele>
        <time>2018-01-02T12:21:17Z</time>
      </trkpt>
      <trkpt lat="41.726788" lon="2.587443">
        <ele>-20.00</ele>
        <time>2018-01-02T12:21:19Z</time>
      </trkpt>
      <trkpt lat="41.726771" lon="2.587381">
        <ele>-19.80</ele>
        <time>2018-01-02T12:21:20Z</time>
      </trkpt>
      <trkpt lat="41.726702" lon="2.587207">
        <ele>-19.40</ele>
        <time>2018-01-02T12:21:24Z</time>
      </trkpt>
      <trkpt lat="41.726696" lon="2.587163">
        <ele>-19.20</ele>
        <time>2018-01-02T12:21:25Z</time>
      </trkpt>
      <trkpt lat="41.726686" lon="2.587128">
        <ele>-19.20</ele>
        <time>2018-01-02T12:21:26Z</time>
      </trkpt>
      <trkpt lat="41.726664" lon="2.587095">
        <ele>-20.40</ele>
        <time>2018-01-02T12:24:23Z</time>
      </trkpt>
      <trkpt lat="41.726662" lon="2.587140">
        <ele>-20.20</ele>
        <time>2018-01-02T12:24:27Z</time>
      </trkpt>
      <trkpt lat="41.726638" lon="2.587167">
        <ele>-20.00</ele>
        <time>2018-01-02T12:24:29Z</time>
      </trkpt>
      <trkpt lat="41.726626" lon="2.587150">
        <ele>-20.00</ele>
        <time>2018-01-02T12:24:30Z</time>
      </trkpt>
      <trkpt lat="41.726621" lon="2.587121">
        <ele>-20.00</ele>
        <time>2018-01-02T12:24:31Z</time>
      </trkpt>
      <trkpt lat="41.726579" lon="2.586969">
        <ele>-19.80</ele>
        <time>2018-01-02T12:24:34Z</time>
      </trkpt>
      <trkpt lat="41.726553" lon="2.586900">
        <ele>-20.00</ele>
        <time>2018-01-02T12:24:35Z</time>
      </trkpt>
      <trkpt lat="41.726347" lon="2.586517">
        <ele>-19.60</ele>
        <time>2018-01-02T12:24:40Z</time>
      </trkpt>
      <trkpt lat="41.726101" lon="2.586147">
        <ele>-19.00</ele>
        <time>2018-01-02T12:24:45Z</time>
      </trkpt>
      <trkpt lat="41.726046" lon="2.586085">
        <ele>-19.20</ele>
        <time>2018-01-02T12:24:46Z</time>
      </trkpt>
      <trkpt lat="41.725797" lon="2.585899">
        <ele>-19.00</ele>
        <time>2018-01-02T12:24:50Z</time>
      </trkpt>
      <trkpt lat="41.725619" lon="2.585745">
        <ele>-19.60</ele>
        <time>2018-01-02T12:24:53Z</time>
      </trkpt>
      <trkpt lat="41.725572" lon="2.585670">
        <ele>-19.40</ele>
        <time>2018-01-02T12:24:54Z</time>
      </trkpt>
      <trkpt lat="41.725479" lon="2.585404">
        <ele>-19.20</ele>
        <time>2018-01-02T12:24:57Z</time>
      </trkpt>
      <trkpt lat="41.725390" lon="2.584848">
        <ele>-19.40</ele>
        <time>2018-01-02T12:25:03Z</time>
      </trkpt>
      <trkpt lat="41.725375" lon="2.584752">
        <ele>-19.40</ele>
        <time>2018-01-02T12:25:04Z</time>
      </trkpt>
      <trkpt lat="41.725268" lon="2.584090">
        <ele>-19.00</ele>
        <time>2018-01-02T12:25:11Z</time>
      </trkpt>
      <trkpt lat="41.725249" lon="2.584000">
        <ele>-18.80</ele>
        <time>2018-01-02T12:25:12Z</time>
      </trkpt>
      <trkpt lat="41.725072" lon="2.583264">
        <ele>-18.40</ele>
        <time>2018-01-02T12:25:20Z</time>
      </trkpt>
      <trkpt lat="41.725051" lon="2.583169">
        <ele>-18.20</ele>
        <time>2018-01-02T12:25:21Z</time>
      </trkpt>
      <trkpt lat="41.724897" lon="2.582515">
        <ele>-18.00</ele>
        <time>2018-01-02T12:25:28Z</time>
      </trkpt>
      <trkpt lat="41.724738" lon="2.581879">
        <ele>-17.40</ele>
        <time>2018-01-02T12:25:35Z</time>
      </trkpt>
      <trkpt lat="41.724560" lon="2.581173">
        <ele>-17.60</ele>
        <time>2018-01-02T12:25:43Z</time>
      </trkpt>
      <trkpt lat="41.724381" lon="2.580470">
        <ele>-17.20</ele>
        <time>2018-01-02T12:25:51Z</time>
      </trkpt>
      <trkpt lat="41.724200" lon="2.579849">
        <ele>-17.40</ele>
        <time>2018-01-02T12:25:58Z</time>
      </trkpt>
      <trkpt lat="41.723988" lon="2.579128">
        <ele>-17.00</ele>
        <time>2018-01-02T12:26:06Z</time>
      </trkpt>
      <trkpt lat="41.723819" lon="2.578587">
        <ele>-17.20</ele>
        <time>2018-01-02T12:26:12Z</time>
      </trkpt>
      <trkpt lat="41.723668" lon="2.578144">
        <ele>-17.20</ele>
        <time>2018-01-02T12:26:17Z</time>
      </trkpt>
      <trkpt lat="41.723579" lon="2.577889">
        <ele>-16.60</ele>
        <time>2018-01-02T12:26:20Z</time>
      </trkpt>
      <trkpt lat="41.723329" lon="2.577214">
        <ele>-16.40</ele>
        <time>2018-01-02T12:26:28Z</time>
      </trkpt>
      <trkpt lat="41.723087" lon="2.576563">
        <ele>-16.20</ele>
        <time>2018-01-02T12:26:36Z</time>
      </trkpt>
      <trkpt lat="41.723052" lon="2.576482">
        <ele>-16.20</ele>
        <time>2018-01-02T12:26:37Z</time>
      </trkpt>
      <trkpt lat="41.722790" lon="2.575849">
        <ele>-15.40</ele>
        <time>2018-01-02T12:26:45Z</time>
      </trkpt>
      <trkpt lat="41.722504" lon="2.575174">
        <ele>-15.00</ele>
        <time>2018-01-02T12:26:54Z</time>
      </trkpt>
      <trkpt lat="41.722248" lon="2.574569">
        <ele>-14.60</ele>
        <time>2018-01-02T12:27:02Z</time>
      </trkpt>
      <trkpt lat="41.721986" lon="2.574000">
        <ele>-14.40</ele>
        <time>2018-01-02T12:27:10Z</time>
      </trkpt>
      <trkpt lat="41.721816" lon="2.573596">
        <ele>-14.60</ele>
        <time>2018-01-02T12:27:16Z</time>
      </trkpt>
      <trkpt lat="41.721735" lon="2.573400">
        <ele>-15.20</ele>
        <time>2018-01-02T12:27:19Z</time>
      </trkpt>
      <trkpt lat="41.721651" lon="2.573201">
        <ele>-15.20</ele>
        <time>2018-01-02T12:27:22Z</time>
      </trkpt>
      <trkpt lat="41.721563" lon="2.573009">
        <ele>-16.00</ele>
        <time>2018-01-02T12:27:25Z</time>
      </trkpt>
      <trkpt lat="41.721533" lon="2.572947">
        <ele>-16.40</ele>
        <time>2018-01-02T12:27:26Z</time>
      </trkpt>
      <trkpt lat="41.721476" lon="2.572791">
        <ele>-16.80</ele>
        <time>2018-01-02T12:27:28Z</time>
      </trkpt>
      <trkpt lat="41.721452" lon="2.572685">
        <ele>-16.20</ele>
        <time>2018-01-02T12:27:29Z</time>
      </trkpt>
      <trkpt lat="41.721429" lon="2.572588">
        <ele>-15.60</ele>
        <time>2018-01-02T12:27:30Z</time>
      </trkpt>
      <trkpt lat="41.721401" lon="2.572493">
        <ele>-15.20</ele>
        <time>2018-01-02T12:27:31Z</time>
      </trkpt>
      <trkpt lat="41.721180" lon="2.572171">
        <ele>-13.40</ele>
        <time>2018-01-02T12:27:36Z</time>
      </trkpt>
      <trkpt lat="41.721143" lon="2.572097">
        <ele>-13.20</ele>
        <time>2018-01-02T12:27:37Z</time>
      </trkpt>
      <trkpt lat="41.721104" lon="2.572023">
        <ele>-13.20</ele>
        <time>2018-01-02T12:27:38Z</time>
      </trkpt>
      <trkpt lat="41.720774" lon="2.571345">
        <ele>-12.40</ele>
        <time>2018-01-02T12:27:47Z</time>
      </trkpt>
      <trkpt lat="41.720441" lon="2.570673">
        <ele>-12.20</ele>
        <time>2018-01-02T12:27:56Z</time>
      </trkpt>
      <trkpt lat="41.720116" lon="2.570006">
        <ele>-12.40</ele>
        <time>2018-01-02T12:28:05Z</time>
      </trkpt>
      <trkpt lat="41.720081" lon="2.569931">
        <ele>-12.40</ele>
        <time>2018-01-02T12:28:06Z</time>
      </trkpt>
      <trkpt lat="41.719905" lon="2.569562">
        <ele>-12.40</ele>
        <time>2018-01-02T12:28:11Z</time>
      </trkpt>
      <trkpt lat="41.719797" lon="2.569334">
        <ele>-12.00</ele>
        <time>2018-01-02T12:28:14Z</time>
      </trkpt>
      <trkpt lat="41.719509" lon="2.568716">
        <ele>-11.80</ele>
        <time>2018-01-02T12:28:22Z</time>
      </trkpt>
      <trkpt lat="41.719217" lon="2.568099">
        <ele>-11.80</ele>
        <time>2018-01-02T12:28:30Z</time>
      </trkpt>
      <trkpt lat="41.719181" lon="2.568023">
        <ele>-11.80</ele>
        <time>2018-01-02T12:28:31Z</time>
      </trkpt>
      <trkpt lat="41.718892" lon="2.567407">
        <ele>-11.60</ele>
        <time>2018-01-02T12:28:39Z</time>
      </trkpt>
      <trkpt lat="41.718608" lon="2.566795">
        <ele>-11.60</ele>
        <time>2018-01-02T12:28:47Z</time>
      </trkpt>
      <trkpt lat="41.718531" lon="2.566640">
        <ele>-11.40</ele>
        <time>2018-01-02T12:28:49Z</time>
      </trkpt>
      <trkpt lat="41.718495" lon="2.566562">
        <ele>-11.20</ele>
        <time>2018-01-02T12:28:50Z</time>
      </trkpt>
      <trkpt lat="41.718316" lon="2.566179">
        <ele>-11.00</ele>
        <time>2018-01-02T12:28:55Z</time>
      </trkpt>
      <trkpt lat="41.718043" lon="2.565602">
        <ele>-10.60</ele>
        <time>2018-01-02T12:29:03Z</time>
      </trkpt>
      <trkpt lat="41.717952" lon="2.565384">
        <ele>-10.60</ele>
        <time>2018-01-02T12:29:06Z</time>
      </trkpt>
      <trkpt lat="41.717804" lon="2.565023">
        <ele>-10.60</ele>
        <time>2018-01-02T12:29:11Z</time>
      </trkpt>
      <trkpt lat="41.717649" lon="2.564656">
        <ele>-10.80</ele>
        <time>2018-01-02T12:29:16Z</time>
      </trkpt>
      <trkpt lat="41.717568" lon="2.564485">
        <ele>-10.20</ele>
        <time>2018-01-02T12:29:18Z</time>
      </trkpt>
      <trkpt lat="41.717390" lon="2.564096">
        <ele>-9.40</ele>
        <time>2018-01-02T12:29:23Z</time>
      </trkpt>
      <trkpt lat="41.717359" lon="2.564015">
        <ele>-9.40</ele>
        <time>2018-01-02T12:29:24Z</time>
      </trkpt>
      <trkpt lat="41.717084" lon="2.563366">
        <ele>-9.20</ele>
        <time>2018-01-02T12:29:32Z</time>
      </trkpt>
      <trkpt lat="41.717018" lon="2.563196">
        <ele>-8.80</ele>
        <time>2018-01-02T12:29:34Z</time>
      </trkpt>
      <trkpt lat="41.716848" lon="2.562774">
        <ele>-7.60</ele>
        <time>2018-01-02T12:29:39Z</time>
      </trkpt>
      <trkpt lat="41.716564" lon="2.562121">
        <ele>-7.00</ele>
        <time>2018-01-02T12:29:48Z</time>
      </trkpt>
      <trkpt lat="41.716438" lon="2.561777">
        <ele>-7.80</ele>
        <time>2018-01-02T12:29:53Z</time>
      </trkpt>
      <trkpt lat="41.716369" lon="2.561558">
        <ele>-8.40</ele>
        <time>2018-01-02T12:29:56Z</time>
      </trkpt>
      <trkpt lat="41.716276" lon="2.561254">
        <ele>-8.80</ele>
        <time>2018-01-02T12:30:00Z</time>
      </trkpt>
      <trkpt lat="41.716210" lon="2.561015">
        <ele>-10.00</ele>
        <time>2018-01-02T12:30:03Z</time>
      </trkpt>
      <trkpt lat="41.716185" lon="2.560933">
        <ele>-10.00</ele>
        <time>2018-01-02T12:30:04Z</time>
      </trkpt>
      <trkpt lat="41.716122" lon="2.560761">
        <ele>-9.00</ele>
        <time>2018-01-02T12:30:06Z</time>
      </trkpt>
      <trkpt lat="41.716084" lon="2.560659">
        <ele>-8.20</ele>
        <time>2018-01-02T12:30:07Z</time>
      </trkpt>
      <trkpt lat="41.716019" lon="2.560491">
        <ele>-7.80</ele>
        <time>2018-01-02T12:30:09Z</time>
      </trkpt>
      <trkpt lat="41.715854" lon="2.560012">
        <ele>-7.20</ele>
        <time>2018-01-02T12:30:15Z</time>
      </trkpt>
      <trkpt lat="41.715758" lon="2.559690">
        <ele>-7.20</ele>
        <time>2018-01-02T12:30:19Z</time>
      </trkpt>
      <trkpt lat="41.715759" lon="2.559365">
        <ele>-7.00</ele>
        <time>2018-01-02T12:30:23Z</time>
      </trkpt>
      <trkpt lat="41.715782" lon="2.559284">
        <ele>-6.80</ele>
        <time>2018-01-02T12:30:24Z</time>
      </trkpt>
      <trkpt lat="41.715871" lon="2.559053">
        <ele>-6.80</ele>
        <time>2018-01-02T12:30:27Z</time>
      </trkpt>
      <trkpt lat="41.715886" lon="2.558887">
        <ele>-6.80</ele>
        <time>2018-01-02T12:30:29Z</time>
      </trkpt>
      <trkpt lat="41.715858" lon="2.558722">
        <ele>-6.80</ele>
        <time>2018-01-02T12:30:31Z</time>
      </trkpt>
      <trkpt lat="41.715787" lon="2.558482">
        <ele>-7.20</ele>
        <time>2018-01-02T12:30:34Z</time>
      </trkpt>
      <trkpt lat="41.715743" lon="2.558223">
        <ele>-7.00</ele>
        <time>2018-01-02T12:30:37Z</time>
      </trkpt>
      <trkpt lat="41.715689" lon="2.557993">
        <ele>-7.00</ele>
        <time>2018-01-02T12:30:40Z</time>
      </trkpt>
      <trkpt lat="41.715599" lon="2.557957">
        <ele>-6.60</ele>
        <time>2018-01-02T12:30:42Z</time>
      </trkpt>
      <trkpt lat="41.715555" lon="2.558001">
        <ele>-6.60</ele>
        <time>2018-01-02T12:30:43Z</time>
      </trkpt>
      <trkpt lat="41.715530" lon="2.558136">
        <ele>-5.40</ele>
        <time>2018-01-02T12:30:45Z</time>
      </trkpt>
      <trkpt lat="41.715540" lon="2.558296">
        <ele>-4.20</ele>
        <time>2018-01-02T12:30:47Z</time>
      </trkpt>
      <trkpt lat="41.715562" lon="2.558381">
        <ele>-3.60</ele>
        <time>2018-01-02T12:30:48Z</time>
      </trkpt>
      <trkpt lat="41.715589" lon="2.558469">
        <ele>-2.80</ele>
        <time>2018-01-02T12:30:49Z</time>
      </trkpt>
      <trkpt lat="41.715667" lon="2.558643">
        <ele>-1.60</ele>
        <time>2018-01-02T12:30:51Z</time>
      </trkpt>
      <trkpt lat="41.715704" lon="2.558728">
        <ele>-0.60</ele>
        <time>2018-01-02T12:30:52Z</time>
      </trkpt>
      <trkpt lat="41.715723" lon="2.558812">
        <ele>-0.40</ele>
        <time>2018-01-02T12:30:53Z</time>
      </trkpt>
      <trkpt lat="41.715705" lon="2.558965">
        <ele>0.20</ele>
        <time>2018-01-02T12:30:55Z</time>
      </trkpt>
      <trkpt lat="41.715683" lon="2.559025">
        <ele>0.80</ele>
        <time>2018-01-02T12:30:56Z</time>
      </trkpt>
      <trkpt lat="41.715570" lon="2.559115">
        <ele>1.00</ele>
        <time>2018-01-02T12:30:59Z</time>
      </trkpt>
      <trkpt lat="41.715208" lon="2.559305">
        <ele>1.80</ele>
        <time>2018-01-02T12:31:07Z</time>
      </trkpt>
      <trkpt lat="41.715126" lon="2.559343">
        <ele>1.80</ele>
        <time>2018-01-02T12:31:09Z</time>
      </trkpt>
      <trkpt lat="41.714955" lon="2.559398">
        <ele>1.00</ele>
        <time>2018-01-02T12:31:13Z</time>
      </trkpt>
      <trkpt lat="41.714848" lon="2.559459">
        <ele>0.60</ele>
        <time>2018-01-02T12:31:16Z</time>
      </trkpt>
      <trkpt lat="41.714783" lon="2.559526">
        <ele>0.00</ele>
        <time>2018-01-02T12:31:18Z</time>
      </trkpt>
      <trkpt lat="41.714756" lon="2.559566">
        <ele>-0.40</ele>
        <time>2018-01-02T12:31:19Z</time>
      </trkpt>
      <trkpt lat="41.714731" lon="2.559608">
        <ele>-0.80</ele>
        <time>2018-01-02T12:31:20Z</time>
      </trkpt>
      <trkpt lat="41.714691" lon="2.559701">
        <ele>-1.60</ele>
        <time>2018-01-02T12:31:22Z</time>
      </trkpt>
      <trkpt lat="41.714676" lon="2.559747">
        <ele>-1.80</ele>
        <time>2018-01-02T12:31:23Z</time>
      </trkpt>
      <trkpt lat="41.714664" lon="2.559853">
        <ele>-2.60</ele>
        <time>2018-01-02T12:31:25Z</time>
      </trkpt>
      <trkpt lat="41.714672" lon="2.560020">
        <ele>-3.60</ele>
        <time>2018-01-02T12:31:28Z</time>
      </trkpt>
      <trkpt lat="41.714681" lon="2.560139">
        <ele>-4.60</ele>
        <time>2018-01-02T12:31:30Z</time>
      </trkpt>
      <trkpt lat="41.714689" lon="2.560201">
        <ele>-5.00</ele>
        <time>2018-01-02T12:31:31Z</time>
      </trkpt>
      <trkpt lat="41.714724" lon="2.560459">
        <ele>-6.40</ele>
        <time>2018-01-02T12:31:35Z</time>
      </trkpt>
      <trkpt lat="41.714781" lon="2.560957">
        <ele>-6.20</ele>
        <time>2018-01-02T12:31:41Z</time>
      </trkpt>
      <trkpt lat="41.714881" lon="2.561319">
        <ele>-5.60</ele>
        <time>2018-01-02T12:31:46Z</time>
      </trkpt>
      <trkpt lat="41.714970" lon="2.561522">
        <ele>-5.40</ele>
        <time>2018-01-02T12:31:49Z</time>
      </trkpt>
      <trkpt lat="41.714998" lon="2.561591">
        <ele>-5.20</ele>
        <time>2018-01-02T12:31:50Z</time>
      </trkpt>
      <trkpt lat="41.715051" lon="2.561725">
        <ele>-5.20</ele>
        <time>2018-01-02T12:31:52Z</time>
      </trkpt>
      <trkpt lat="41.715074" lon="2.561788">
        <ele>-5.20</ele>
        <time>2018-01-02T12:31:53Z</time>
      </trkpt>
      <trkpt lat="41.715115" lon="2.561918">
        <ele>-5.40</ele>
        <time>2018-01-02T12:31:55Z</time>
      </trkpt>
      <trkpt lat="41.715186" lon="2.562105">
        <ele>-6.20</ele>
        <time>2018-01-02T12:31:58Z</time>
      </trkpt>
      <trkpt lat="41.715236" lon="2.562226">
        <ele>-6.40</ele>
        <time>2018-01-02T12:32:00Z</time>
      </trkpt>
      <trkpt lat="41.715285" lon="2.562338">
        <ele>-6.80</ele>
        <time>2018-01-02T12:32:02Z</time>
      </trkpt>
      <trkpt lat="41.715370" lon="2.562533">
        <ele>-6.80</ele>
        <time>2018-01-02T12:32:06Z</time>
      </trkpt>
      <trkpt lat="41.715384" lon="2.562558">
        <ele>-7.00</ele>
        <time>2018-01-02T12:32:07Z</time>
      </trkpt>
      <trkpt lat="41.715397" lon="2.562623">
        <ele>-7.00</ele>
        <time>2018-01-02T12:32:20Z</time>
      </trkpt>
      <trkpt lat="41.715434" lon="2.562649">
        <ele>-7.00</ele>
        <time>2018-01-02T12:32:23Z</time>
      </trkpt>
      <trkpt lat="41.715441" lon="2.562635">
        <ele>-7.00</ele>
        <time>2018-01-02T12:32:24Z</time>
      </trkpt>
      <trkpt lat="41.715444" lon="2.562615">
        <ele>-7.00</ele>
        <time>2018-01-02T12:32:25Z</time>
      </trkpt>
      <trkpt lat="41.715419" lon="2.562595">
        <ele>-7.00</ele>
        <time>2018-01-02T12:32:27Z</time>
      </trkpt>
      <trkpt lat="41.715389" lon="2.562648">
        <ele>-7.00</ele>
        <time>2018-01-02T12:32:31Z</time>
      </trkpt>
      <trkpt lat="41.715437" lon="2.562655">
        <ele>-7.20</ele>
        <time>2018-01-02T12:32:35Z</time>
      </trkpt>
      <trkpt lat="41.715412" lon="2.562582">
        <ele>-7.20</ele>
        <time>2018-01-02T12:32:39Z</time>
      </trkpt>
      <trkpt lat="41.715388" lon="2.562652">
        <ele>-7.20</ele>
        <time>2018-01-02T12:32:43Z</time>
      </trkpt>
      <trkpt lat="41.715430" lon="2.562650">
        <ele>-7.20</ele>
        <time>2018-01-02T12:32:47Z</time>
      </trkpt>
      <trkpt lat="41.715431" lon="2.562628">
        <ele>-7.20</ele>
        <time>2018-01-02T12:32:48Z</time>
      </trkpt>
      <trkpt lat="41.715406" lon="2.562579">
        <ele>-7.00</ele>
        <time>2018-01-02T12:32:51Z</time>
      </trkpt>
      <trkpt lat="41.715380" lon="2.562646">
        <ele>-7.20</ele>
        <time>2018-01-02T12:32:55Z</time>
      </trkpt>
      <trkpt lat="41.715389" lon="2.562664">
        <ele>-7.20</ele>
        <time>2018-01-02T12:32:56Z</time>
      </trkpt>
      <trkpt lat="41.715434" lon="2.562705">
        <ele>-7.20</ele>
        <time>2018-01-02T12:33:00Z</time>
      </trkpt>
      <trkpt lat="41.715434" lon="2.562725">
        <ele>-7.40</ele>
        <time>2018-01-02T12:33:01Z</time>
      </trkpt>
      <trkpt lat="41.715405" lon="2.562712">
        <ele>-7.20</ele>
        <time>2018-01-02T12:33:04Z</time>
      </trkpt>
      <trkpt lat="41.715392" lon="2.562639">
        <ele>-7.20</ele>
        <time>2018-01-02T12:33:08Z</time>
      </trkpt>
      <trkpt lat="41.715387" lon="2.562635">
        <ele>-7.20</ele>
        <time>2018-01-02T12:33:10Z</time>
      </trkpt>
      <trkpt lat="41.715397" lon="2.562674">
        <ele>-7.20</ele>
        <time>2018-01-02T12:33:13Z</time>
      </trkpt>
      <trkpt lat="41.715422" lon="2.562690">
        <ele>-7.20</ele>
        <time>2018-01-02T12:33:15Z</time>
      </trkpt>
      <trkpt lat="41.715444" lon="2.562694">
        <ele>-7.40</ele>
        <time>2018-01-02T12:33:17Z</time>
      </trkpt>
      <trkpt lat="41.715450" lon="2.562709">
        <ele>-7.40</ele>
        <time>2018-01-02T12:33:18Z</time>
      </trkpt>
      <trkpt lat="41.715453" lon="2.562720">
        <ele>-7.40</ele>
        <time>2018-01-02T12:33:19Z</time>
      </trkpt>
      <trkpt lat="41.715441" lon="2.562745">
        <ele>-7.40</ele>
        <time>2018-01-02T12:33:21Z</time>
      </trkpt>
      <trkpt lat="41.715427" lon="2.562735">
        <ele>-7.20</ele>
        <time>2018-01-02T12:33:23Z</time>
      </trkpt>
      <trkpt lat="41.715436" lon="2.562682">
        <ele>-7.40</ele>
        <time>2018-01-02T12:33:26Z</time>
      </trkpt>
      <trkpt lat="41.715418" lon="2.562644">
        <ele>-7.40</ele>
        <time>2018-01-02T12:33:30Z</time>
      </trkpt>
      <trkpt lat="41.715413" lon="2.562651">
        <ele>-7.40</ele>
        <time>2018-01-02T12:33:31Z</time>
      </trkpt>
      <trkpt lat="41.715461" lon="2.562750">
        <ele>-7.40</ele>
        <time>2018-01-02T12:34:20Z</time>
      </trkpt>
      <trkpt lat="41.715447" lon="2.562710">
        <ele>-7.40</ele>
        <time>2018-01-02T12:34:22Z</time>
      </trkpt>
      <trkpt lat="41.715415" lon="2.562616">
        <ele>-7.20</ele>
        <time>2018-01-02T12:34:24Z</time>
      </trkpt>
      <trkpt lat="41.715394" lon="2.562559">
        <ele>-7.00</ele>
        <time>2018-01-02T12:34:25Z</time>
      </trkpt>
      <trkpt lat="41.715348" lon="2.562452">
        <ele>-6.60</ele>
        <time>2018-01-02T12:34:27Z</time>
      </trkpt>
      <trkpt lat="41.715281" lon="2.562287">
        <ele>-6.20</ele>
        <time>2018-01-02T12:34:30Z</time>
      </trkpt>
      <trkpt lat="41.715259" lon="2.562230">
        <ele>-6.00</ele>
        <time>2018-01-02T12:34:31Z</time>
      </trkpt>
      <trkpt lat="41.715235" lon="2.562175">
        <ele>-6.00</ele>
        <time>2018-01-02T12:34:32Z</time>
      </trkpt>
      <trkpt lat="41.715192" lon="2.562061">
        <ele>-5.80</ele>
        <time>2018-01-02T12:34:34Z</time>
      </trkpt>
      <trkpt lat="41.715118" lon="2.561883">
        <ele>-6.00</ele>
        <time>2018-01-02T12:34:37Z</time>
      </trkpt>
      <trkpt lat="41.715091" lon="2.561817">
        <ele>-6.20</ele>
        <time>2018-01-02T12:34:38Z</time>
      </trkpt>
      <trkpt lat="41.714955" lon="2.561487">
        <ele>-6.80</ele>
        <time>2018-01-02T12:34:43Z</time>
      </trkpt>
      <trkpt lat="41.714926" lon="2.561430">
        <ele>-7.00</ele>
        <time>2018-01-02T12:34:44Z</time>
      </trkpt>
      <trkpt lat="41.714837" lon="2.561193">
        <ele>-7.20</ele>
        <time>2018-01-02T12:34:48Z</time>
      </trkpt>
      <trkpt lat="41.714824" lon="2.561125">
        <ele>-7.40</ele>
        <time>2018-01-02T12:34:50Z</time>
      </trkpt>
      <trkpt lat="41.714808" lon="2.560959">
        <ele>-7.60</ele>
        <time>2018-01-02T12:34:52Z</time>
      </trkpt>
      <trkpt lat="41.714787" lon="2.560761">
        <ele>-7.20</ele>
        <time>2018-01-02T12:34:54Z</time>
      </trkpt>
      <trkpt lat="41.714774" lon="2.560661">
        <ele>-6.60</ele>
        <time>2018-01-02T12:34:55Z</time>
      </trkpt>
      <trkpt lat="41.714761" lon="2.560559">
        <ele>-6.00</ele>
        <time>2018-01-02T12:34:56Z</time>
      </trkpt>
      <trkpt lat="41.714727" lon="2.560332">
        <ele>-4.40</ele>
        <time>2018-01-02T12:34:58Z</time>
      </trkpt>
      <trkpt lat="41.714709" lon="2.560210">
        <ele>-3.80</ele>
        <time>2018-01-02T12:34:59Z</time>
      </trkpt>
      <trkpt lat="41.714697" lon="2.560089">
        <ele>-3.20</ele>
        <time>2018-01-02T12:35:00Z</time>
      </trkpt>
      <trkpt lat="41.714685" lon="2.559865">
        <ele>-1.60</ele>
        <time>2018-01-02T12:35:02Z</time>
      </trkpt>
      <trkpt lat="41.714697" lon="2.559767">
        <ele>-1.00</ele>
        <time>2018-01-02T12:35:03Z</time>
      </trkpt>
      <trkpt lat="41.714723" lon="2.559678">
        <ele>-0.60</ele>
        <time>2018-01-02T12:35:04Z</time>
      </trkpt>
      <trkpt lat="41.714801" lon="2.559543">
        <ele>0.20</ele>
        <time>2018-01-02T12:35:06Z</time>
      </trkpt>
      <trkpt lat="41.714899" lon="2.559458">
        <ele>0.80</ele>
        <time>2018-01-02T12:35:08Z</time>
      </trkpt>
      <trkpt lat="41.714993" lon="2.559381">
        <ele>1.40</ele>
        <time>2018-01-02T12:35:10Z</time>
      </trkpt>
      <trkpt lat="41.715199" lon="2.559308">
        <ele>1.20</ele>
        <time>2018-01-02T12:35:14Z</time>
      </trkpt>
      <trkpt lat="41.715251" lon="2.559287">
        <ele>1.00</ele>
        <time>2018-01-02T12:35:15Z</time>
      </trkpt>
      <trkpt lat="41.715412" lon="2.559224">
        <ele>0.80</ele>
        <time>2018-01-02T12:35:18Z</time>
      </trkpt>
      <trkpt lat="41.715516" lon="2.559181">
        <ele>0.00</ele>
        <time>2018-01-02T12:35:20Z</time>
      </trkpt>
      <trkpt lat="41.715565" lon="2.559160">
        <ele>-0.40</ele>
        <time>2018-01-02T12:35:21Z</time>
      </trkpt>
      <trkpt lat="41.715688" lon="2.559072">
        <ele>-2.00</ele>
        <time>2018-01-02T12:35:24Z</time>
      </trkpt>
      <trkpt lat="41.715723" lon="2.558958">
        <ele>-2.80</ele>
        <time>2018-01-02T12:35:26Z</time>
      </trkpt>
      <trkpt lat="41.715722" lon="2.558895">
        <ele>-3.20</ele>
        <time>2018-01-02T12:35:27Z</time>
      </trkpt>
      <trkpt lat="41.715712" lon="2.558830">
        <ele>-3.80</ele>
        <time>2018-01-02T12:35:28Z</time>
      </trkpt>
      <trkpt lat="41.715697" lon="2.558764">
        <ele>-4.40</ele>
        <time>2018-01-02T12:35:29Z</time>
      </trkpt>
      <trkpt lat="41.715647" lon="2.558641">
        <ele>-5.60</ele>
        <time>2018-01-02T12:35:31Z</time>
      </trkpt>
      <trkpt lat="41.715587" lon="2.558502">
        <ele>-7.00</ele>
        <time>2018-01-02T12:35:33Z</time>
      </trkpt>
      <trkpt lat="41.715363" lon="2.557875">
        <ele>-7.00</ele>
        <time>2018-01-02T12:35:40Z</time>
      </trkpt>
      <trkpt lat="41.715263" lon="2.557407">
        <ele>-6.80</ele>
        <time>2018-01-02T12:35:45Z</time>
      </trkpt>
      <trkpt lat="41.715217" lon="2.557210">
        <ele>-6.40</ele>
        <time>2018-01-02T12:35:47Z</time>
      </trkpt>
      <trkpt lat="41.715071" lon="2.556635">
        <ele>-5.80</ele>
        <time>2018-01-02T12:35:53Z</time>
      </trkpt>
      <trkpt lat="41.715040" lon="2.556539">
        <ele>-5.80</ele>
        <time>2018-01-02T12:35:54Z</time>
      </trkpt>
      <trkpt lat="41.714936" lon="2.556169">
        <ele>-4.60</ele>
        <time>2018-01-02T12:35:58Z</time>
      </trkpt>
      <trkpt lat="41.714871" lon="2.555901">
        <ele>-5.60</ele>
        <time>2018-01-02T12:36:01Z</time>
      </trkpt>
      <trkpt lat="41.714735" lon="2.555353">
        <ele>-5.80</ele>
        <time>2018-01-02T12:36:07Z</time>
      </trkpt>
      <trkpt lat="41.714576" lon="2.554879">
        <ele>-4.60</ele>
        <time>2018-01-02T12:36:12Z</time>
      </trkpt>
      <trkpt lat="41.714512" lon="2.554598">
        <ele>-4.60</ele>
        <time>2018-01-02T12:36:15Z</time>
      </trkpt>
      <trkpt lat="41.714467" lon="2.554311">
        <ele>-3.80</ele>
        <time>2018-01-02T12:36:18Z</time>
      </trkpt>
      <trkpt lat="41.714378" lon="2.553736">
        <ele>-3.60</ele>
        <time>2018-01-02T12:36:24Z</time>
      </trkpt>
      <trkpt lat="41.714245" lon="2.553089">
        <ele>-3.00</ele>
        <time>2018-01-02T12:36:31Z</time>
      </trkpt>
      <trkpt lat="41.714228" lon="2.552992">
        <ele>-3.00</ele>
        <time>2018-01-02T12:36:32Z</time>
      </trkpt>
      <trkpt lat="41.714127" lon="2.552229">
        <ele>-2.80</ele>
        <time>2018-01-02T12:36:40Z</time>
      </trkpt>
      <trkpt lat="41.714049" lon="2.551558">
        <ele>-3.20</ele>
        <time>2018-01-02T12:36:47Z</time>
      </trkpt>
      <trkpt lat="41.713973" lon="2.550771">
        <ele>-2.80</ele>
        <time>2018-01-02T12:36:55Z</time>
      </trkpt>
      <trkpt lat="41.713902" lon="2.550068">
        <ele>-3.20</ele>
        <time>2018-01-02T12:37:02Z</time>
      </trkpt>
      <trkpt lat="41.713892" lon="2.549966">
        <ele>-3.00</ele>
        <time>2018-01-02T12:37:03Z</time>
      </trkpt>
      <trkpt lat="41.713835" lon="2.549359">
        <ele>-3.00</ele>
        <time>2018-01-02T12:37:09Z</time>
      </trkpt>
      <trkpt lat="41.713762" lon="2.548635">
        <ele>-3.40</ele>
        <time>2018-01-02T12:37:16Z</time>
      </trkpt>
      <trkpt lat="41.713756" lon="2.548525">
        <ele>-3.20</ele>
        <time>2018-01-02T12:37:17Z</time>
      </trkpt>
      <trkpt lat="41.713703" lon="2.547982">
        <ele>-2.00</ele>
        <time>2018-01-02T12:37:22Z</time>
      </trkpt>
      <trkpt lat="41.713662" lon="2.547768">
        <ele>0.00</ele>
        <time>2018-01-02T12:37:24Z</time>
      </trkpt>
      <trkpt lat="41.713614" lon="2.547504">
        <ele>0.80</ele>
        <time>2018-01-02T12:37:27Z</time>
      </trkpt>
      <trkpt lat="41.713557" lon="2.546902">
        <ele>0.80</ele>
        <time>2018-01-02T12:37:34Z</time>
      </trkpt>
      <trkpt lat="41.713488" lon="2.546207">
        <ele>1.20</ele>
        <time>2018-01-02T12:37:42Z</time>
      </trkpt>
      <trkpt lat="41.713452" lon="2.545595">
        <ele>1.60</ele>
        <time>2018-01-02T12:37:49Z</time>
      </trkpt>
      <trkpt lat="41.713455" lon="2.545335">
        <ele>1.40</ele>
        <time>2018-01-02T12:37:52Z</time>
      </trkpt>
      <trkpt lat="41.713446" lon="2.544916">
        <ele>0.60</ele>
        <time>2018-01-02T12:37:57Z</time>
      </trkpt>
      <trkpt lat="41.713446" lon="2.544832">
        <ele>0.40</ele>
        <time>2018-01-02T12:37:58Z</time>
      </trkpt>
      <trkpt lat="41.713444" lon="2.544746">
        <ele>0.20</ele>
        <time>2018-01-02T12:37:59Z</time>
      </trkpt>
      <trkpt lat="41.713411" lon="2.544399">
        <ele>-0.80</ele>
        <time>2018-01-02T12:38:03Z</time>
      </trkpt>
      <trkpt lat="41.713402" lon="2.544314">
        <ele>-1.00</ele>
        <time>2018-01-02T12:38:04Z</time>
      </trkpt>
      <trkpt lat="41.713332" lon="2.543609">
        <ele>-2.00</ele>
        <time>2018-01-02T12:38:12Z</time>
      </trkpt>
      <trkpt lat="41.713325" lon="2.543516">
        <ele>-2.00</ele>
        <time>2018-01-02T12:38:13Z</time>
      </trkpt>
      <trkpt lat="41.713294" lon="2.542953">
        <ele>-1.80</ele>
        <time>2018-01-02T12:38:19Z</time>
      </trkpt>
      <trkpt lat="41.713217" lon="2.542295">
        <ele>-1.60</ele>
        <time>2018-01-02T12:38:26Z</time>
      </trkpt>
      <trkpt lat="41.713076" lon="2.541543">
        <ele>-0.60</ele>
        <time>2018-01-02T12:38:34Z</time>
      </trkpt>
      <trkpt lat="41.712916" lon="2.540817">
        <ele>-0.80</ele>
        <time>2018-01-02T12:38:42Z</time>
      </trkpt>
      <trkpt lat="41.712850" lon="2.540545">
        <ele>-0.60</ele>
        <time>2018-01-02T12:38:45Z</time>
      </trkpt>
      <trkpt lat="41.712686" lon="2.539897">
        <ele>-0.40</ele>
        <time>2018-01-02T12:38:52Z</time>
      </trkpt>
      <trkpt lat="41.712457" lon="2.539176">
        <ele>0.40</ele>
        <time>2018-01-02T12:39:00Z</time>
      </trkpt>
      <trkpt lat="41.712271" lon="2.538520">
        <ele>1.00</ele>
        <time>2018-01-02T12:39:07Z</time>
      </trkpt>
      <trkpt lat="41.712073" lon="2.537873">
        <ele>1.40</ele>
        <time>2018-01-02T12:39:14Z</time>
      </trkpt>
      <trkpt lat="41.711770" lon="2.537192">
        <ele>2.00</ele>
        <time>2018-01-02T12:39:22Z</time>
      </trkpt>
      <trkpt lat="41.711509" lon="2.536631">
        <ele>2.60</ele>
        <time>2018-01-02T12:39:29Z</time>
      </trkpt>
      <trkpt lat="41.711402" lon="2.536392">
        <ele>3.00</ele>
        <time>2018-01-02T12:39:32Z</time>
      </trkpt>
      <trkpt lat="41.711122" lon="2.535787">
        <ele>3.00</ele>
        <time>2018-01-02T12:39:40Z</time>
      </trkpt>
      <trkpt lat="41.711043" lon="2.535638">
        <ele>3.00</ele>
        <time>2018-01-02T12:39:42Z</time>
      </trkpt>
      <trkpt lat="41.710736" lon="2.535025">
        <ele>3.40</ele>
        <time>2018-01-02T12:39:50Z</time>
      </trkpt>
      <trkpt lat="41.710470" lon="2.534457">
        <ele>4.20</ele>
        <time>2018-01-02T12:39:58Z</time>
      </trkpt>
      <trkpt lat="41.710402" lon="2.534333">
        <ele>3.60</ele>
        <time>2018-01-02T12:40:00Z</time>
      </trkpt>
      <trkpt lat="41.710364" lon="2.534277">
        <ele>3.00</ele>
        <time>2018-01-02T12:40:01Z</time>
      </trkpt>
      <trkpt lat="41.710293" lon="2.534161">
        <ele>2.20</ele>
        <time>2018-01-02T12:40:03Z</time>
      </trkpt>
      <trkpt lat="41.710228" lon="2.534026">
        <ele>2.20</ele>
        <time>2018-01-02T12:40:05Z</time>
      </trkpt>
      <trkpt lat="41.710187" lon="2.533954">
        <ele>2.60</ele>
        <time>2018-01-02T12:40:06Z</time>
      </trkpt>
      <trkpt lat="41.710140" lon="2.533892">
        <ele>3.40</ele>
        <time>2018-01-02T12:40:07Z</time>
      </trkpt>
      <trkpt lat="41.710033" lon="2.533779">
        <ele>3.60</ele>
        <time>2018-01-02T12:40:09Z</time>
      </trkpt>
      <trkpt lat="41.709869" lon="2.533578">
        <ele>4.80</ele>
        <time>2018-01-02T12:40:12Z</time>
      </trkpt>
      <trkpt lat="41.709816" lon="2.533515">
        <ele>5.00</ele>
        <time>2018-01-02T12:40:13Z</time>
      </trkpt>
      <trkpt lat="41.709707" lon="2.533400">
        <ele>5.80</ele>
        <time>2018-01-02T12:40:15Z</time>
      </trkpt>
      <trkpt lat="41.709654" lon="2.533343">
        <ele>6.40</ele>
        <time>2018-01-02T12:40:16Z</time>
      </trkpt>
      <trkpt lat="41.709549" lon="2.533250">
        <ele>6.60</ele>
        <time>2018-01-02T12:40:18Z</time>
      </trkpt>
      <trkpt lat="41.709447" lon="2.533167">
        <ele>6.80</ele>
        <time>2018-01-02T12:40:20Z</time>
      </trkpt>
      <trkpt lat="41.709320" lon="2.532993">
        <ele>6.80</ele>
        <time>2018-01-02T12:40:23Z</time>
      </trkpt>
      <trkpt lat="41.709037" lon="2.532552">
        <ele>7.00</ele>
        <time>2018-01-02T12:40:30Z</time>
      </trkpt>
      <trkpt lat="41.708998" lon="2.532486">
        <ele>7.00</ele>
        <time>2018-01-02T12:40:31Z</time>
      </trkpt>
      <trkpt lat="41.708878" lon="2.532285">
        <ele>7.20</ele>
        <time>2018-01-02T12:40:34Z</time>
      </trkpt>
      <trkpt lat="41.708675" lon="2.531940">
        <ele>7.40</ele>
        <time>2018-01-02T12:40:39Z</time>
      </trkpt>
      <trkpt lat="41.708371" lon="2.531442">
        <ele>8.20</ele>
        <time>2018-01-02T12:40:46Z</time>
      </trkpt>
      <trkpt lat="41.708241" lon="2.531229">
        <ele>8.00</ele>
        <time>2018-01-02T12:40:49Z</time>
      </trkpt>
      <trkpt lat="41.708071" lon="2.530942">
        <ele>8.80</ele>
        <time>2018-01-02T12:40:53Z</time>
      </trkpt>
      <trkpt lat="41.708029" lon="2.530874">
        <ele>8.60</ele>
        <time>2018-01-02T12:40:54Z</time>
      </trkpt>
      <trkpt lat="41.707668" lon="2.530228">
        <ele>9.20</ele>
        <time>2018-01-02T12:41:03Z</time>
      </trkpt>
      <trkpt lat="41.707518" lon="2.529943">
        <ele>9.60</ele>
        <time>2018-01-02T12:41:07Z</time>
      </trkpt>
      <trkpt lat="41.707376" lon="2.529670">
        <ele>9.80</ele>
        <time>2018-01-02T12:41:11Z</time>
      </trkpt>
      <trkpt lat="41.707078" lon="2.529074">
        <ele>10.00</ele>
        <time>2018-01-02T12:41:20Z</time>
      </trkpt>
      <trkpt lat="41.706870" lon="2.528615">
        <ele>9.80</ele>
        <time>2018-01-02T12:41:27Z</time>
      </trkpt>
      <trkpt lat="41.706839" lon="2.528549">
        <ele>9.60</ele>
        <time>2018-01-02T12:41:28Z</time>
      </trkpt>
      <trkpt lat="41.706714" lon="2.528295">
        <ele>10.00</ele>
        <time>2018-01-02T12:41:32Z</time>
      </trkpt>
      <trkpt lat="41.706632" lon="2.528111">
        <ele>10.00</ele>
        <time>2018-01-02T12:41:35Z</time>
      </trkpt>
      <trkpt lat="41.706606" lon="2.528053">
        <ele>10.00</ele>
        <time>2018-01-02T12:41:36Z</time>
      </trkpt>
      <trkpt lat="41.706565" lon="2.527942">
        <ele>9.40</ele>
        <time>2018-01-02T12:41:38Z</time>
      </trkpt>
      <trkpt lat="41.706545" lon="2.527834">
        <ele>8.20</ele>
        <time>2018-01-02T12:41:40Z</time>
      </trkpt>
      <trkpt lat="41.706551" lon="2.527623">
        <ele>7.60</ele>
        <time>2018-01-02T12:41:43Z</time>
      </trkpt>
      <trkpt lat="41.706585" lon="2.527382">
        <ele>7.80</ele>
        <time>2018-01-02T12:41:46Z</time>
      </trkpt>
      <trkpt lat="41.706545" lon="2.527213">
        <ele>8.00</ele>
        <time>2018-01-02T12:41:48Z</time>
      </trkpt>
      <trkpt lat="41.706469" lon="2.527063">
        <ele>8.20</ele>
        <time>2018-01-02T12:41:50Z</time>
      </trkpt>
      <trkpt lat="41.706202" lon="2.526415">
        <ele>8.40</ele>
        <time>2018-01-02T12:41:58Z</time>
      </trkpt>
      <trkpt lat="41.706049" lon="2.525819">
        <ele>8.60</ele>
        <time>2018-01-02T12:42:05Z</time>
      </trkpt>
      <trkpt lat="41.705998" lon="2.525570">
        <ele>8.80</ele>
        <time>2018-01-02T12:42:08Z</time>
      </trkpt>
      <trkpt lat="41.705953" lon="2.525301">
        <ele>9.20</ele>
        <time>2018-01-02T12:42:11Z</time>
      </trkpt>
      <trkpt lat="41.705935" lon="2.525213">
        <ele>9.20</ele>
        <time>2018-01-02T12:42:12Z</time>
      </trkpt>
      <trkpt lat="41.705854" lon="2.524957">
        <ele>9.40</ele>
        <time>2018-01-02T12:42:15Z</time>
      </trkpt>
      <trkpt lat="41.705816" lon="2.524879">
        <ele>9.40</ele>
        <time>2018-01-02T12:42:16Z</time>
      </trkpt>
      <trkpt lat="41.705771" lon="2.524805">
        <ele>9.40</ele>
        <time>2018-01-02T12:42:17Z</time>
      </trkpt>
      <trkpt lat="41.705611" lon="2.524477">
        <ele>9.80</ele>
        <time>2018-01-02T12:42:21Z</time>
      </trkpt>
      <trkpt lat="41.705577" lon="2.524389">
        <ele>10.40</ele>
        <time>2018-01-02T12:42:22Z</time>
      </trkpt>
      <trkpt lat="41.705368" lon="2.523933">
        <ele>10.40</ele>
        <time>2018-01-02T12:42:28Z</time>
      </trkpt>
      <trkpt lat="41.705337" lon="2.523856">
        <ele>10.40</ele>
        <time>2018-01-02T12:42:29Z</time>
      </trkpt>
      <trkpt lat="41.705228" lon="2.523441">
        <ele>10.60</ele>
        <time>2018-01-02T12:42:34Z</time>
      </trkpt>
      <trkpt lat="41.705211" lon="2.523359">
        <ele>10.60</ele>
        <time>2018-01-02T12:42:35Z</time>
      </trkpt>
      <trkpt lat="41.705072" lon="2.523073">
        <ele>11.00</ele>
        <time>2018-01-02T12:42:39Z</time>
      </trkpt>
      <trkpt lat="41.705033" lon="2.523008">
        <ele>11.00</ele>
        <time>2018-01-02T12:42:40Z</time>
      </trkpt>
      <trkpt lat="41.704996" lon="2.522941">
        <ele>11.20</ele>
        <time>2018-01-02T12:42:41Z</time>
      </trkpt>
      <trkpt lat="41.704915" lon="2.522817">
        <ele>11.40</ele>
        <time>2018-01-02T12:42:43Z</time>
      </trkpt>
      <trkpt lat="41.704815" lon="2.522726">
        <ele>11.20</ele>
        <time>2018-01-02T12:42:45Z</time>
      </trkpt>
      <trkpt lat="41.704719" lon="2.522605">
        <ele>11.20</ele>
        <time>2018-01-02T12:42:47Z</time>
      </trkpt>
      <trkpt lat="41.704627" lon="2.522469">
        <ele>11.40</ele>
        <time>2018-01-02T12:42:49Z</time>
      </trkpt>
      <trkpt lat="41.704504" lon="2.522363">
        <ele>11.80</ele>
        <time>2018-01-02T12:42:51Z</time>
      </trkpt>
      <trkpt lat="41.704378" lon="2.522262">
        <ele>11.80</ele>
        <time>2018-01-02T12:42:53Z</time>
      </trkpt>
      <trkpt lat="41.704271" lon="2.522142">
        <ele>12.60</ele>
        <time>2018-01-02T12:42:55Z</time>
      </trkpt>
      <trkpt lat="41.703992" lon="2.521606">
        <ele>12.80</ele>
        <time>2018-01-02T12:43:03Z</time>
      </trkpt>
      <trkpt lat="41.703788" lon="2.521167">
        <ele>12.20</ele>
        <time>2018-01-02T12:43:09Z</time>
      </trkpt>
      <trkpt lat="41.703524" lon="2.520663">
        <ele>12.20</ele>
        <time>2018-01-02T12:43:16Z</time>
      </trkpt>
      <trkpt lat="41.703277" lon="2.520160">
        <ele>12.20</ele>
        <time>2018-01-02T12:43:23Z</time>
      </trkpt>
      <trkpt lat="41.703219" lon="2.520010">
        <ele>12.60</ele>
        <time>2018-01-02T12:43:25Z</time>
      </trkpt>
      <trkpt lat="41.703154" lon="2.519863">
        <ele>12.60</ele>
        <time>2018-01-02T12:43:27Z</time>
      </trkpt>
      <trkpt lat="41.703042" lon="2.519655">
        <ele>12.80</ele>
        <time>2018-01-02T12:43:30Z</time>
      </trkpt>
      <trkpt lat="41.702811" lon="2.519250">
        <ele>13.20</ele>
        <time>2018-01-02T12:43:36Z</time>
      </trkpt>
      <trkpt lat="41.702555" lon="2.518877">
        <ele>13.40</ele>
        <time>2018-01-02T12:43:42Z</time>
      </trkpt>
      <trkpt lat="41.702394" lon="2.518507">
        <ele>13.80</ele>
        <time>2018-01-02T12:43:47Z</time>
      </trkpt>
      <trkpt lat="41.702362" lon="2.518435">
        <ele>13.60</ele>
        <time>2018-01-02T12:43:48Z</time>
      </trkpt>
      <trkpt lat="41.702327" lon="2.518369">
        <ele>13.80</ele>
        <time>2018-01-02T12:43:49Z</time>
      </trkpt>
      <trkpt lat="41.702210" lon="2.518203">
        <ele>14.20</ele>
        <time>2018-01-02T12:43:52Z</time>
      </trkpt>
      <trkpt lat="41.702136" lon="2.518109">
        <ele>14.20</ele>
        <time>2018-01-02T12:43:54Z</time>
      </trkpt>
      <trkpt lat="41.702008" lon="2.517906">
        <ele>13.80</ele>
        <time>2018-01-02T12:43:58Z</time>
      </trkpt>
      <trkpt lat="41.701968" lon="2.517763">
        <ele>13.20</ele>
        <time>2018-01-02T12:44:00Z</time>
      </trkpt>
      <trkpt lat="41.701927" lon="2.517594">
        <ele>12.80</ele>
        <time>2018-01-02T12:44:02Z</time>
      </trkpt>
      <trkpt lat="41.701851" lon="2.517444">
        <ele>13.20</ele>
        <time>2018-01-02T12:44:04Z</time>
      </trkpt>
      <trkpt lat="41.701795" lon="2.517382">
        <ele>13.20</ele>
        <time>2018-01-02T12:44:05Z</time>
      </trkpt>
      <trkpt lat="41.701394" lon="2.517109">
        <ele>13.00</ele>
        <time>2018-01-02T12:44:11Z</time>
      </trkpt>
      <trkpt lat="41.700985" lon="2.516843">
        <ele>13.60</ele>
        <time>2018-01-02T12:44:17Z</time>
      </trkpt>
      <trkpt lat="41.700696" lon="2.516542">
        <ele>14.60</ele>
        <time>2018-01-02T12:44:22Z</time>
      </trkpt>
      <trkpt lat="41.700281" lon="2.516179">
        <ele>15.60</ele>
        <time>2018-01-02T12:44:29Z</time>
      </trkpt>
      <trkpt lat="41.699957" lon="2.515877">
        <ele>15.60</ele>
        <time>2018-01-02T12:44:35Z</time>
      </trkpt>
      <trkpt lat="41.699862" lon="2.515772">
        <ele>15.60</ele>
        <time>2018-01-02T12:44:37Z</time>
      </trkpt>
      <trkpt lat="41.699761" lon="2.515694">
        <ele>16.40</ele>
        <time>2018-01-02T12:44:39Z</time>
      </trkpt>
      <trkpt lat="41.699611" lon="2.515602">
        <ele>16.20</ele>
        <time>2018-01-02T12:44:42Z</time>
      </trkpt>
      <trkpt lat="41.699450" lon="2.515464">
        <ele>16.20</ele>
        <time>2018-01-02T12:44:45Z</time>
      </trkpt>
      <trkpt lat="41.699119" lon="2.515140">
        <ele>16.20</ele>
        <time>2018-01-02T12:44:51Z</time>
      </trkpt>
      <trkpt lat="41.698890" lon="2.514951">
        <ele>16.80</ele>
        <time>2018-01-02T12:44:55Z</time>
      </trkpt>
      <trkpt lat="41.698717" lon="2.514822">
        <ele>17.40</ele>
        <time>2018-01-02T12:44:58Z</time>
      </trkpt>
      <trkpt lat="41.698499" lon="2.514656">
        <ele>17.60</ele>
        <time>2018-01-02T12:45:02Z</time>
      </trkpt>
      <trkpt lat="41.698236" lon="2.514446">
        <ele>17.60</ele>
        <time>2018-01-02T12:45:07Z</time>
      </trkpt>
      <trkpt lat="41.698182" lon="2.514404">
        <ele>17.60</ele>
        <time>2018-01-02T12:45:08Z</time>
      </trkpt>
      <trkpt lat="41.697866" lon="2.514156">
        <ele>17.60</ele>
        <time>2018-01-02T12:45:14Z</time>
      </trkpt>
      <trkpt lat="41.697561" lon="2.513910">
        <ele>17.40</ele>
        <time>2018-01-02T12:45:20Z</time>
      </trkpt>
      <trkpt lat="41.697258" lon="2.513649">
        <ele>17.20</ele>
        <time>2018-01-02T12:45:26Z</time>
      </trkpt>
      <trkpt lat="41.697212" lon="2.513601">
        <ele>17.00</ele>
        <time>2018-01-02T12:45:27Z</time>
      </trkpt>
      <trkpt lat="41.696952" lon="2.513386">
        <ele>17.60</ele>
        <time>2018-01-02T12:45:32Z</time>
      </trkpt>
      <trkpt lat="41.696567" lon="2.513109">
        <ele>17.60</ele>
        <time>2018-01-02T12:45:39Z</time>
      </trkpt>
      <trkpt lat="41.696446" lon="2.513043">
        <ele>18.00</ele>
        <time>2018-01-02T12:45:41Z</time>
      </trkpt>
      <trkpt lat="41.696262" lon="2.512965">
        <ele>19.20</ele>
        <time>2018-01-02T12:45:44Z</time>
      </trkpt>
      <trkpt lat="41.695968" lon="2.512781">
        <ele>19.80</ele>
        <time>2018-01-02T12:45:50Z</time>
      </trkpt>
      <trkpt lat="41.695865" lon="2.512709">
        <ele>19.60</ele>
        <time>2018-01-02T12:45:52Z</time>
      </trkpt>
      <trkpt lat="41.695756" lon="2.512648">
        <ele>19.40</ele>
        <time>2018-01-02T12:45:54Z</time>
      </trkpt>
      <trkpt lat="41.695600" lon="2.512546">
        <ele>19.20</ele>
        <time>2018-01-02T12:45:57Z</time>
      </trkpt>
      <trkpt lat="41.695235" lon="2.512288">
        <ele>19.20</ele>
        <time>2018-01-02T12:46:04Z</time>
      </trkpt>
      <trkpt lat="41.695180" lon="2.512250">
        <ele>19.00</ele>
        <time>2018-01-02T12:46:05Z</time>
      </trkpt>
      <trkpt lat="41.694975" lon="2.512062">
        <ele>19.00</ele>
        <time>2018-01-02T12:46:09Z</time>
      </trkpt>
      <trkpt lat="41.694710" lon="2.511819">
        <ele>19.20</ele>
        <time>2018-01-02T12:46:14Z</time>
      </trkpt>
      <trkpt lat="41.694559" lon="2.511672">
        <ele>20.20</ele>
        <time>2018-01-02T12:46:17Z</time>
      </trkpt>
      <trkpt lat="41.694360" lon="2.511490">
        <ele>20.60</ele>
        <time>2018-01-02T12:46:21Z</time>
      </trkpt>
      <trkpt lat="41.694310" lon="2.511448">
        <ele>20.80</ele>
        <time>2018-01-02T12:46:22Z</time>
      </trkpt>
      <trkpt lat="41.694030" lon="2.511207">
        <ele>20.80</ele>
        <time>2018-01-02T12:46:28Z</time>
      </trkpt>
      <trkpt lat="41.693807" lon="2.510983">
        <ele>20.00</ele>
        <time>2018-01-02T12:46:33Z</time>
      </trkpt>
      <trkpt lat="41.693754" lon="2.510934">
        <ele>20.00</ele>
        <time>2018-01-02T12:46:34Z</time>
      </trkpt>
      <trkpt lat="41.693526" lon="2.510623">
        <ele>19.80</ele>
        <time>2018-01-02T12:46:39Z</time>
      </trkpt>
      <trkpt lat="41.693328" lon="2.510349">
        <ele>20.40</ele>
        <time>2018-01-02T12:46:43Z</time>
      </trkpt>
      <trkpt lat="41.693230" lon="2.510208">
        <ele>21.00</ele>
        <time>2018-01-02T12:46:45Z</time>
      </trkpt>
      <trkpt lat="41.693178" lon="2.510145">
        <ele>20.80</ele>
        <time>2018-01-02T12:46:46Z</time>
      </trkpt>
      <trkpt lat="41.693086" lon="2.510013">
        <ele>21.40</ele>
        <time>2018-01-02T12:46:48Z</time>
      </trkpt>
      <trkpt lat="41.693007" lon="2.509858">
        <ele>21.60</ele>
        <time>2018-01-02T12:46:50Z</time>
      </trkpt>
      <trkpt lat="41.692971" lon="2.509776">
        <ele>22.00</ele>
        <time>2018-01-02T12:46:51Z</time>
      </trkpt>
      <trkpt lat="41.692816" lon="2.509504">
        <ele>22.80</ele>
        <time>2018-01-02T12:46:55Z</time>
      </trkpt>
      <trkpt lat="41.692720" lon="2.509405">
        <ele>23.40</ele>
        <time>2018-01-02T12:46:57Z</time>
      </trkpt>
      <trkpt lat="41.692590" lon="2.509177">
        <ele>23.60</ele>
        <time>2018-01-02T12:47:01Z</time>
      </trkpt>
      <trkpt lat="41.692447" lon="2.508880">
        <ele>23.00</ele>
        <time>2018-01-02T12:47:06Z</time>
      </trkpt>
      <trkpt lat="41.692381" lon="2.508738">
        <ele>23.40</ele>
        <time>2018-01-02T12:47:08Z</time>
      </trkpt>
      <trkpt lat="41.692277" lon="2.508555">
        <ele>24.00</ele>
        <time>2018-01-02T12:47:11Z</time>
      </trkpt>
      <trkpt lat="41.692072" lon="2.508156">
        <ele>24.20</ele>
        <time>2018-01-02T12:47:17Z</time>
      </trkpt>
      <trkpt lat="41.691866" lon="2.507767">
        <ele>24.40</ele>
        <time>2018-01-02T12:47:23Z</time>
      </trkpt>
      <trkpt lat="41.691700" lon="2.507460">
        <ele>24.60</ele>
        <time>2018-01-02T12:47:28Z</time>
      </trkpt>
      <trkpt lat="41.691581" lon="2.507202">
        <ele>24.20</ele>
        <time>2018-01-02T12:47:32Z</time>
      </trkpt>
      <trkpt lat="41.691553" lon="2.507137">
        <ele>24.00</ele>
        <time>2018-01-02T12:47:33Z</time>
      </trkpt>
      <trkpt lat="41.691380" lon="2.506732">
        <ele>22.80</ele>
        <time>2018-01-02T12:47:39Z</time>
      </trkpt>
      <trkpt lat="41.691257" lon="2.506429">
        <ele>23.40</ele>
        <time>2018-01-02T12:47:43Z</time>
      </trkpt>
      <trkpt lat="41.691223" lon="2.506355">
        <ele>24.00</ele>
        <time>2018-01-02T12:47:44Z</time>
      </trkpt>
      <trkpt lat="41.691002" lon="2.505982">
        <ele>25.40</ele>
        <time>2018-01-02T12:47:50Z</time>
      </trkpt>
      <trkpt lat="41.690767" lon="2.505529">
        <ele>26.00</ele>
        <time>2018-01-02T12:47:57Z</time>
      </trkpt>
      <trkpt lat="41.690570" lon="2.505159">
        <ele>25.60</ele>
        <time>2018-01-02T12:48:03Z</time>
      </trkpt>
      <trkpt lat="41.690349" lon="2.504800">
        <ele>26.40</ele>
        <time>2018-01-02T12:48:09Z</time>
      </trkpt>
      <trkpt lat="41.690272" lon="2.504691">
        <ele>26.60</ele>
        <time>2018-01-02T12:48:11Z</time>
      </trkpt>
      <trkpt lat="41.690097" lon="2.504423">
        <ele>26.00</ele>
        <time>2018-01-02T12:48:16Z</time>
      </trkpt>
      <trkpt lat="41.689952" lon="2.504169">
        <ele>25.60</ele>
        <time>2018-01-02T12:48:21Z</time>
      </trkpt>
      <trkpt lat="41.689928" lon="2.504119">
        <ele>25.00</ele>
        <time>2018-01-02T12:48:22Z</time>
      </trkpt>
      <trkpt lat="41.689865" lon="2.503968">
        <ele>24.20</ele>
        <time>2018-01-02T12:48:25Z</time>
      </trkpt>
      <trkpt lat="41.689820" lon="2.503854">
        <ele>24.20</ele>
        <time>2018-01-02T12:48:27Z</time>
      </trkpt>
      <trkpt lat="41.689788" lon="2.503798">
        <ele>24.20</ele>
        <time>2018-01-02T12:48:28Z</time>
      </trkpt>
      <trkpt lat="41.689643" lon="2.503661">
        <ele>25.40</ele>
        <time>2018-01-02T12:48:31Z</time>
      </trkpt>
      <trkpt lat="41.689586" lon="2.503623">
        <ele>25.60</ele>
        <time>2018-01-02T12:48:32Z</time>
      </trkpt>
      <trkpt lat="41.689534" lon="2.503580">
        <ele>25.80</ele>
        <time>2018-01-02T12:48:33Z</time>
      </trkpt>
      <trkpt lat="41.689301" lon="2.503287">
        <ele>26.60</ele>
        <time>2018-01-02T12:48:38Z</time>
      </trkpt>
      <trkpt lat="41.689253" lon="2.503229">
        <ele>26.60</ele>
        <time>2018-01-02T12:48:39Z</time>
      </trkpt>
      <trkpt lat="41.689205" lon="2.503171">
        <ele>26.80</ele>
        <time>2018-01-02T12:48:40Z</time>
      </trkpt>
      <trkpt lat="41.688753" lon="2.502654">
        <ele>27.80</ele>
        <time>2018-01-02T12:48:49Z</time>
      </trkpt>
      <trkpt lat="41.688655" lon="2.502543">
        <ele>28.00</ele>
        <time>2018-01-02T12:48:51Z</time>
      </trkpt>
      <trkpt lat="41.688471" lon="2.502334">
        <ele>28.20</ele>
        <time>2018-01-02T12:48:55Z</time>
      </trkpt>
      <trkpt lat="41.688350" lon="2.502183">
        <ele>28.40</ele>
        <time>2018-01-02T12:48:58Z</time>
      </trkpt>
      <trkpt lat="41.688276" lon="2.502087">
        <ele>27.80</ele>
        <time>2018-01-02T12:49:00Z</time>
      </trkpt>
      <trkpt lat="41.688242" lon="2.502043">
        <ele>27.60</ele>
        <time>2018-01-02T12:49:01Z</time>
      </trkpt>
      <trkpt lat="41.688142" lon="2.501907">
        <ele>26.60</ele>
        <time>2018-01-02T12:49:04Z</time>
      </trkpt>
      <trkpt lat="41.688070" lon="2.501804">
        <ele>26.00</ele>
        <time>2018-01-02T12:49:06Z</time>
      </trkpt>
      <trkpt lat="41.688034" lon="2.501748">
        <ele>25.60</ele>
        <time>2018-01-02T12:49:07Z</time>
      </trkpt>
      <trkpt lat="41.687979" lon="2.501628">
        <ele>25.20</ele>
        <time>2018-01-02T12:49:09Z</time>
      </trkpt>
      <trkpt lat="41.687953" lon="2.501564">
        <ele>25.80</ele>
        <time>2018-01-02T12:49:10Z</time>
      </trkpt>
      <trkpt lat="41.687868" lon="2.501449">
        <ele>26.00</ele>
        <time>2018-01-02T12:49:12Z</time>
      </trkpt>
      <trkpt lat="41.687783" lon="2.501335">
        <ele>26.40</ele>
        <time>2018-01-02T12:49:14Z</time>
      </trkpt>
      <trkpt lat="41.687745" lon="2.501270">
        <ele>26.60</ele>
        <time>2018-01-02T12:49:15Z</time>
      </trkpt>
      <trkpt lat="41.687710" lon="2.501198">
        <ele>26.40</ele>
        <time>2018-01-02T12:49:16Z</time>
      </trkpt>
      <trkpt lat="41.687542" lon="2.500902">
        <ele>26.60</ele>
        <time>2018-01-02T12:49:20Z</time>
      </trkpt>
      <trkpt lat="41.687462" lon="2.500762">
        <ele>27.20</ele>
        <time>2018-01-02T12:49:22Z</time>
      </trkpt>
      <trkpt lat="41.687270" lon="2.500348">
        <ele>27.40</ele>
        <time>2018-01-02T12:49:28Z</time>
      </trkpt>
      <trkpt lat="41.687068" lon="2.499986">
        <ele>27.80</ele>
        <time>2018-01-02T12:49:33Z</time>
      </trkpt>
      <trkpt lat="41.686994" lon="2.499834">
        <ele>28.00</ele>
        <time>2018-01-02T12:49:35Z</time>
      </trkpt>
      <trkpt lat="41.686895" lon="2.499590">
        <ele>28.60</ele>
        <time>2018-01-02T12:49:38Z</time>
      </trkpt>
      <trkpt lat="41.686821" lon="2.499421">
        <ele>29.00</ele>
        <time>2018-01-02T12:49:40Z</time>
      </trkpt>
      <trkpt lat="41.686700" lon="2.499217">
        <ele>29.40</ele>
        <time>2018-01-02T12:49:43Z</time>
      </trkpt>
      <trkpt lat="41.686480" lon="2.498816">
        <ele>29.80</ele>
        <time>2018-01-02T12:49:49Z</time>
      </trkpt>
      <trkpt lat="41.686221" lon="2.498356">
        <ele>29.60</ele>
        <time>2018-01-02T12:49:56Z</time>
      </trkpt>
      <trkpt lat="41.685956" lon="2.497849">
        <ele>30.20</ele>
        <time>2018-01-02T12:50:03Z</time>
      </trkpt>
      <trkpt lat="41.685922" lon="2.497777">
        <ele>30.00</ele>
        <time>2018-01-02T12:50:04Z</time>
      </trkpt>
      <trkpt lat="41.685765" lon="2.497416">
        <ele>29.80</ele>
        <time>2018-01-02T12:50:09Z</time>
      </trkpt>
      <trkpt lat="41.685730" lon="2.497339">
        <ele>29.80</ele>
        <time>2018-01-02T12:50:10Z</time>
      </trkpt>
      <trkpt lat="41.685633" lon="2.497082">
        <ele>29.60</ele>
        <time>2018-01-02T12:50:13Z</time>
      </trkpt>
      <trkpt lat="41.685595" lon="2.496997">
        <ele>29.80</ele>
        <time>2018-01-02T12:50:14Z</time>
      </trkpt>
      <trkpt lat="41.685448" lon="2.496797">
        <ele>29.80</ele>
        <time>2018-01-02T12:50:17Z</time>
      </trkpt>
      <trkpt lat="41.685380" lon="2.496753">
        <ele>30.20</ele>
        <time>2018-01-02T12:50:18Z</time>
      </trkpt>
      <trkpt lat="41.685305" lon="2.496721">
        <ele>30.80</ele>
        <time>2018-01-02T12:50:19Z</time>
      </trkpt>
      <trkpt lat="41.685228" lon="2.496683">
        <ele>31.80</ele>
        <time>2018-01-02T12:50:20Z</time>
      </trkpt>
      <trkpt lat="41.685081" lon="2.496604">
        <ele>33.00</ele>
        <time>2018-01-02T12:50:22Z</time>
      </trkpt>
      <trkpt lat="41.685009" lon="2.496571">
        <ele>33.00</ele>
        <time>2018-01-02T12:50:23Z</time>
      </trkpt>
      <trkpt lat="41.684862" lon="2.496520">
        <ele>33.80</ele>
        <time>2018-01-02T12:50:25Z</time>
      </trkpt>
      <trkpt lat="41.684724" lon="2.496492">
        <ele>34.40</ele>
        <time>2018-01-02T12:50:27Z</time>
      </trkpt>
      <trkpt lat="41.684657" lon="2.496486">
        <ele>35.00</ele>
        <time>2018-01-02T12:50:28Z</time>
      </trkpt>
      <trkpt lat="41.684592" lon="2.496487">
        <ele>35.40</ele>
        <time>2018-01-02T12:50:29Z</time>
      </trkpt>
      <trkpt lat="41.684470" lon="2.496491">
        <ele>35.60</ele>
        <time>2018-01-02T12:50:31Z</time>
      </trkpt>
      <trkpt lat="41.684291" lon="2.496334">
        <ele>36.20</ele>
        <time>2018-01-02T12:50:35Z</time>
      </trkpt>
      <trkpt lat="41.684133" lon="2.495965">
        <ele>36.20</ele>
        <time>2018-01-02T12:50:40Z</time>
      </trkpt>
      <trkpt lat="41.683937" lon="2.495528">
        <ele>35.60</ele>
        <time>2018-01-02T12:50:45Z</time>
      </trkpt>
      <trkpt lat="41.683764" lon="2.495142">
        <ele>36.60</ele>
        <time>2018-01-02T12:50:50Z</time>
      </trkpt>
      <trkpt lat="41.683632" lon="2.494813">
        <ele>37.00</ele>
        <time>2018-01-02T12:50:54Z</time>
      </trkpt>
      <trkpt lat="41.683471" lon="2.494459">
        <ele>37.20</ele>
        <time>2018-01-02T12:50:58Z</time>
      </trkpt>
      <trkpt lat="41.683429" lon="2.494371">
        <ele>37.20</ele>
        <time>2018-01-02T12:50:59Z</time>
      </trkpt>
      <trkpt lat="41.683118" lon="2.493771">
        <ele>37.60</ele>
        <time>2018-01-02T12:51:06Z</time>
      </trkpt>
      <trkpt lat="41.683074" lon="2.493688">
        <ele>38.00</ele>
        <time>2018-01-02T12:51:07Z</time>
      </trkpt>
      <trkpt lat="41.682810" lon="2.493189">
        <ele>39.20</ele>
        <time>2018-01-02T12:51:13Z</time>
      </trkpt>
      <trkpt lat="41.682534" lon="2.492767">
        <ele>39.80</ele>
        <time>2018-01-02T12:51:19Z</time>
      </trkpt>
      <trkpt lat="41.682442" lon="2.492639">
        <ele>39.60</ele>
        <time>2018-01-02T12:51:21Z</time>
      </trkpt>
      <trkpt lat="41.682277" lon="2.492365">
        <ele>39.60</ele>
        <time>2018-01-02T12:51:25Z</time>
      </trkpt>
      <trkpt lat="41.682237" lon="2.492295">
        <ele>39.60</ele>
        <time>2018-01-02T12:51:26Z</time>
      </trkpt>
      <trkpt lat="41.682047" lon="2.491940">
        <ele>39.40</ele>
        <time>2018-01-02T12:51:31Z</time>
      </trkpt>
      <trkpt lat="41.682014" lon="2.491869">
        <ele>39.00</ele>
        <time>2018-01-02T12:51:32Z</time>
      </trkpt>
      <trkpt lat="41.681900" lon="2.491556">
        <ele>38.20</ele>
        <time>2018-01-02T12:51:36Z</time>
      </trkpt>
      <trkpt lat="41.681791" lon="2.491304">
        <ele>38.20</ele>
        <time>2018-01-02T12:51:39Z</time>
      </trkpt>
      <trkpt lat="41.681702" lon="2.491139">
        <ele>38.20</ele>
        <time>2018-01-02T12:51:41Z</time>
      </trkpt>
      <trkpt lat="41.681595" lon="2.490990">
        <ele>38.20</ele>
        <time>2018-01-02T12:51:43Z</time>
      </trkpt>
      <trkpt lat="41.681370" lon="2.490710">
        <ele>38.40</ele>
        <time>2018-01-02T12:51:47Z</time>
      </trkpt>
      <trkpt lat="41.681313" lon="2.490639">
        <ele>38.20</ele>
        <time>2018-01-02T12:51:48Z</time>
      </trkpt>
      <trkpt lat="41.681050" lon="2.490379">
        <ele>39.20</ele>
        <time>2018-01-02T12:51:52Z</time>
      </trkpt>
      <trkpt lat="41.680837" lon="2.490206">
        <ele>40.20</ele>
        <time>2018-01-02T12:51:55Z</time>
      </trkpt>
      <trkpt lat="41.680700" lon="2.490091">
        <ele>41.40</ele>
        <time>2018-01-02T12:51:57Z</time>
      </trkpt>
      <trkpt lat="41.680634" lon="2.490036">
        <ele>42.00</ele>
        <time>2018-01-02T12:51:58Z</time>
      </trkpt>
      <trkpt lat="41.680446" lon="2.489887">
        <ele>42.80</ele>
        <time>2018-01-02T12:52:01Z</time>
      </trkpt>
      <trkpt lat="41.680384" lon="2.489839">
        <ele>43.20</ele>
        <time>2018-01-02T12:52:02Z</time>
      </trkpt>
      <trkpt lat="41.680267" lon="2.489734">
        <ele>43.40</ele>
        <time>2018-01-02T12:52:04Z</time>
      </trkpt>
      <trkpt lat="41.680216" lon="2.489677">
        <ele>43.40</ele>
        <time>2018-01-02T12:52:05Z</time>
      </trkpt>
      <trkpt lat="41.680139" lon="2.489562">
        <ele>43.20</ele>
        <time>2018-01-02T12:52:07Z</time>
      </trkpt>
      <trkpt lat="41.680116" lon="2.489357">
        <ele>43.40</ele>
        <time>2018-01-02T12:52:10Z</time>
      </trkpt>
      <trkpt lat="41.680134" lon="2.489290">
        <ele>43.40</ele>
        <time>2018-01-02T12:52:11Z</time>
      </trkpt>
      <trkpt lat="41.680320" lon="2.488950">
        <ele>43.00</ele>
        <time>2018-01-02T12:52:16Z</time>
      </trkpt>
      <trkpt lat="41.680414" lon="2.488803">
        <ele>43.20</ele>
        <time>2018-01-02T12:52:18Z</time>
      </trkpt>
      <trkpt lat="41.680559" lon="2.488578">
        <ele>43.40</ele>
        <time>2018-01-02T12:52:21Z</time>
      </trkpt>
      <trkpt lat="41.680647" lon="2.488428">
        <ele>44.00</ele>
        <time>2018-01-02T12:52:23Z</time>
      </trkpt>
      <trkpt lat="41.680692" lon="2.488356">
        <ele>44.20</ele>
        <time>2018-01-02T12:52:24Z</time>
      </trkpt>
      <trkpt lat="41.680875" lon="2.488125">
        <ele>45.00</ele>
        <time>2018-01-02T12:52:28Z</time>
      </trkpt>
      <trkpt lat="41.680923" lon="2.487970">
        <ele>45.00</ele>
        <time>2018-01-02T12:52:31Z</time>
      </trkpt>
      <trkpt lat="41.680899" lon="2.487920">
        <ele>45.00</ele>
        <time>2018-01-02T12:52:32Z</time>
      </trkpt>
      <trkpt lat="41.680777" lon="2.487798">
        <ele>45.00</ele>
        <time>2018-01-02T12:52:35Z</time>
      </trkpt>
      <trkpt lat="41.680639" lon="2.487683">
        <ele>45.40</ele>
        <time>2018-01-02T12:52:38Z</time>
      </trkpt>
      <trkpt lat="41.680510" lon="2.487576">
        <ele>45.20</ele>
        <time>2018-01-02T12:52:41Z</time>
      </trkpt>
      <trkpt lat="41.680471" lon="2.487544">
        <ele>45.40</ele>
        <time>2018-01-02T12:52:42Z</time>
      </trkpt>
      <trkpt lat="41.680402" lon="2.487478">
        <ele>45.60</ele>
        <time>2018-01-02T12:52:44Z</time>
      </trkpt>
      <trkpt lat="41.680325" lon="2.487398">
        <ele>45.60</ele>
        <time>2018-01-02T12:52:47Z</time>
      </trkpt>
      <trkpt lat="41.680300" lon="2.487386">
        <ele>45.80</ele>
        <time>2018-01-02T12:52:48Z</time>
      </trkpt>
      <trkpt lat="41.680261" lon="2.487343">
        <ele>45.80</ele>
        <time>2018-01-02T12:52:50Z</time>
      </trkpt>
      <trkpt lat="41.680225" lon="2.487280">
        <ele>46.00</ele>
        <time>2018-01-02T12:52:52Z</time>
      </trkpt>
      <trkpt lat="41.680201" lon="2.487251">
        <ele>46.40</ele>
        <time>2018-01-02T12:52:53Z</time>
      </trkpt>
      <trkpt lat="41.680050" lon="2.487176">
        <ele>47.40</ele>
        <time>2018-01-02T12:52:57Z</time>
      </trkpt>
      <trkpt lat="41.679874" lon="2.487115">
        <ele>48.00</ele>
        <time>2018-01-02T12:53:02Z</time>
      </trkpt>
      <trkpt lat="41.679791" lon="2.487092">
        <ele>47.60</ele>
        <time>2018-01-02T12:53:05Z</time>
      </trkpt>
      <trkpt lat="41.679727" lon="2.487074">
        <ele>47.00</ele>
        <time>2018-01-02T12:53:07Z</time>
      </trkpt>
      <trkpt lat="41.679655" lon="2.487061">
        <ele>46.80</ele>
        <time>2018-01-02T12:53:09Z</time>
      </trkpt>
      <trkpt lat="41.679628" lon="2.487052">
        <ele>46.40</ele>
        <time>2018-01-02T12:53:10Z</time>
      </trkpt>
      <trkpt lat="41.679540" lon="2.487039">
        <ele>45.20</ele>
        <time>2018-01-02T12:53:14Z</time>
      </trkpt>
      <trkpt lat="41.679520" lon="2.487033">
        <ele>45.20</ele>
        <time>2018-01-02T12:53:15Z</time>
      </trkpt>
      <trkpt lat="41.679485" lon="2.487020">
        <ele>44.80</ele>
        <time>2018-01-02T12:53:17Z</time>
      </trkpt>
      <trkpt lat="41.679387" lon="2.486988">
        <ele>43.60</ele>
        <time>2018-01-02T12:53:41Z</time>
      </trkpt>
      <trkpt lat="41.679376" lon="2.486963">
        <ele>43.80</ele>
        <time>2018-01-02T12:53:43Z</time>
      </trkpt>
      <trkpt lat="41.679405" lon="2.486969">
        <ele>44.00</ele>
        <time>2018-01-02T12:53:57Z</time>
      </trkpt>
      <trkpt lat="41.679404" lon="2.486969">
        <ele>44.40</ele>
        <time>2018-01-02T12:53:58Z</time>
      </trkpt>
      <trkpt lat="41.679417" lon="2.486972">
        <ele>44.80</ele>
        <time>2018-01-02T12:53:59Z</time>
      </trkpt>
      <trkpt lat="41.679435" lon="2.486974">
        <ele>45.20</ele>
        <time>2018-01-02T12:54:00Z</time>
      </trkpt>
      <trkpt lat="41.679456" lon="2.486982">
        <ele>45.40</ele>
        <time>2018-01-02T12:54:01Z</time>
      </trkpt>
      <trkpt lat="41.679545" lon="2.487012">
        <ele>46.40</ele>
        <time>2018-01-02T12:54:04Z</time>
      </trkpt>
      <trkpt lat="41.679670" lon="2.487064">
        <ele>47.60</ele>
        <time>2018-01-02T12:54:08Z</time>
      </trkpt>
      <trkpt lat="41.679755" lon="2.487094">
        <ele>48.20</ele>
        <time>2018-01-02T12:54:10Z</time>
      </trkpt>
      <trkpt lat="41.679859" lon="2.487131">
        <ele>47.80</ele>
        <time>2018-01-02T12:54:13Z</time>
      </trkpt>
      <trkpt lat="41.679931" lon="2.487159">
        <ele>47.40</ele>
        <time>2018-01-02T12:54:15Z</time>
      </trkpt>
      <trkpt lat="41.680016" lon="2.487194">
        <ele>46.80</ele>
        <time>2018-01-02T12:54:17Z</time>
      </trkpt>
      <trkpt lat="41.680063" lon="2.487209">
        <ele>46.60</ele>
        <time>2018-01-02T12:54:18Z</time>
      </trkpt>
      <trkpt lat="41.680153" lon="2.487254">
        <ele>46.00</ele>
        <time>2018-01-02T12:54:20Z</time>
      </trkpt>
      <trkpt lat="41.680229" lon="2.487321">
        <ele>45.40</ele>
        <time>2018-01-02T12:54:22Z</time>
      </trkpt>
      <trkpt lat="41.680318" lon="2.487369">
        <ele>45.20</ele>
        <time>2018-01-02T12:54:25Z</time>
      </trkpt>
      <trkpt lat="41.680340" lon="2.487390">
        <ele>45.20</ele>
        <time>2018-01-02T12:54:26Z</time>
      </trkpt>
      <trkpt lat="41.680354" lon="2.487422">
        <ele>45.40</ele>
        <time>2018-01-02T12:54:33Z</time>
      </trkpt>
      <trkpt lat="41.680284" lon="2.487338">
        <ele>45.60</ele>
        <time>2018-01-02T12:54:38Z</time>
      </trkpt>
      <trkpt lat="41.680197" lon="2.487194">
        <ele>45.80</ele>
        <time>2018-01-02T12:54:43Z</time>
      </trkpt>
      <trkpt lat="41.680184" lon="2.487177">
        <ele>45.80</ele>
        <time>2018-01-02T12:54:44Z</time>
      </trkpt>
      <trkpt lat="41.680178" lon="2.487209">
        <ele>45.60</ele>
        <time>2018-01-02T12:58:01Z</time>
      </trkpt>
      <trkpt lat="41.680187" lon="2.487200">
        <ele>45.60</ele>
        <time>2018-01-02T12:58:02Z</time>
      </trkpt>
      <trkpt lat="41.680198" lon="2.487118">
        <ele>45.80</ele>
        <time>2018-01-02T12:58:05Z</time>
      </trkpt>
      <trkpt lat="41.680202" lon="2.487032">
        <ele>45.80</ele>
        <time>2018-01-02T12:58:07Z</time>
      </trkpt>
      <trkpt lat="41.680228" lon="2.486906">
        <ele>45.40</ele>
        <time>2018-01-02T12:58:09Z</time>
      </trkpt>
      <trkpt lat="41.680245" lon="2.486831">
        <ele>45.20</ele>
        <time>2018-01-02T12:58:10Z</time>
      </trkpt>
      <trkpt lat="41.680264" lon="2.486747">
        <ele>44.80</ele>
        <time>2018-01-02T12:58:11Z</time>
      </trkpt>
      <trkpt lat="41.680273" lon="2.486675">
        <ele>44.60</ele>
        <time>2018-01-02T12:58:12Z</time>
      </trkpt>
      <trkpt lat="41.680288" lon="2.486618">
        <ele>44.20</ele>
        <time>2018-01-02T12:58:13Z</time>
      </trkpt>
      <trkpt lat="41.680282" lon="2.486550">
        <ele>43.80</ele>
        <time>2018-01-02T12:58:14Z</time>
      </trkpt>
      <trkpt lat="41.680269" lon="2.486481">
        <ele>43.40</ele>
        <time>2018-01-02T12:58:15Z</time>
      </trkpt>
      <trkpt lat="41.680247" lon="2.486416">
        <ele>43.20</ele>
        <time>2018-01-02T12:58:16Z</time>
      </trkpt>
      <trkpt lat="41.680220" lon="2.486280">
        <ele>42.60</ele>
        <time>2018-01-02T12:58:18Z</time>
      </trkpt>
      <trkpt lat="41.680199" lon="2.486211">
        <ele>42.20</ele>
        <time>2018-01-02T12:58:19Z</time>
      </trkpt>
      <trkpt lat="41.680128" lon="2.486059">
        <ele>42.20</ele>
        <time>2018-01-02T12:58:21Z</time>
      </trkpt>
      <trkpt lat="41.680094" lon="2.485985">
        <ele>42.20</ele>
        <time>2018-01-02T12:58:22Z</time>
      </trkpt>
      <trkpt lat="41.680062" lon="2.485906">
        <ele>43.00</ele>
        <time>2018-01-02T12:58:23Z</time>
      </trkpt>
      <trkpt lat="41.680029" lon="2.485829">
        <ele>43.80</ele>
        <time>2018-01-02T12:58:24Z</time>
      </trkpt>
      <trkpt lat="41.679987" lon="2.485703">
        <ele>45.60</ele>
        <time>2018-01-02T12:58:26Z</time>
      </trkpt>
      <trkpt lat="41.680036" lon="2.485555">
        <ele>45.60</ele>
        <time>2018-01-02T12:58:29Z</time>
      </trkpt>
      <trkpt lat="41.680070" lon="2.485514">
        <ele>45.80</ele>
        <time>2018-01-02T12:58:30Z</time>
      </trkpt>
      <trkpt lat="41.680055" lon="2.485365">
        <ele>46.60</ele>
        <time>2018-01-02T12:58:33Z</time>
      </trkpt>
      <trkpt lat="41.680015" lon="2.485233">
        <ele>47.00</ele>
        <time>2018-01-02T12:58:35Z</time>
      </trkpt>
      <trkpt lat="41.680050" lon="2.485129">
        <ele>46.80</ele>
        <time>2018-01-02T12:58:37Z</time>
      </trkpt>
      <trkpt lat="41.680086" lon="2.485078">
        <ele>47.00</ele>
        <time>2018-01-02T12:58:38Z</time>
      </trkpt>
      <trkpt lat="41.680122" lon="2.485027">
        <ele>47.20</ele>
        <time>2018-01-02T12:58:39Z</time>
      </trkpt>
      <trkpt lat="41.680192" lon="2.484939">
        <ele>47.20</ele>
        <time>2018-01-02T12:58:41Z</time>
      </trkpt>
      <trkpt lat="41.680227" lon="2.484899">
        <ele>47.00</ele>
        <time>2018-01-02T12:58:42Z</time>
      </trkpt>
      <trkpt lat="41.680361" lon="2.484784">
        <ele>47.60</ele>
        <time>2018-01-02T12:58:45Z</time>
      </trkpt>
      <trkpt lat="41.680424" lon="2.484783">
        <ele>48.00</ele>
        <time>2018-01-02T12:58:46Z</time>
      </trkpt>
      <trkpt lat="41.680591" lon="2.484916">
        <ele>48.60</ele>
        <time>2018-01-02T12:58:49Z</time>
      </trkpt>
      <trkpt lat="41.680743" lon="2.485091">
        <ele>48.80</ele>
        <time>2018-01-02T12:58:52Z</time>
      </trkpt>
      <trkpt lat="41.680804" lon="2.485127">
        <ele>48.80</ele>
        <time>2018-01-02T12:58:53Z</time>
      </trkpt>
      <trkpt lat="41.680948" lon="2.485054">
        <ele>49.20</ele>
        <time>2018-01-02T12:58:56Z</time>
      </trkpt>
      <trkpt lat="41.680999" lon="2.485022">
        <ele>49.20</ele>
        <time>2018-01-02T12:58:57Z</time>
      </trkpt>
      <trkpt lat="41.681478" lon="2.484838">
        <ele>50.40</ele>
        <time>2018-01-02T12:59:04Z</time>
      </trkpt>
      <trkpt lat="41.681836" lon="2.484695">
        <ele>51.60</ele>
        <time>2018-01-02T12:59:09Z</time>
      </trkpt>
      <trkpt lat="41.681971" lon="2.484639">
        <ele>52.00</ele>
        <time>2018-01-02T12:59:11Z</time>
      </trkpt>
      <trkpt lat="41.682485" lon="2.484449">
        <ele>52.80</ele>
        <time>2018-01-02T12:59:19Z</time>
      </trkpt>
      <trkpt lat="41.682545" lon="2.484429">
        <ele>52.80</ele>
        <time>2018-01-02T12:59:20Z</time>
      </trkpt>
      <trkpt lat="41.682731" lon="2.484375">
        <ele>53.20</ele>
        <time>2018-01-02T12:59:23Z</time>
      </trkpt>
      <trkpt lat="41.682790" lon="2.484354">
        <ele>53.00</ele>
        <time>2018-01-02T12:59:24Z</time>
      </trkpt>
      <trkpt lat="41.682837" lon="2.484270">
        <ele>53.20</ele>
        <time>2018-01-02T12:59:26Z</time>
      </trkpt>
      <trkpt lat="41.682784" lon="2.483938">
        <ele>53.80</ele>
        <time>2018-01-02T12:59:31Z</time>
      </trkpt>
      <trkpt lat="41.682681" lon="2.483287">
        <ele>54.40</ele>
        <time>2018-01-02T12:59:38Z</time>
      </trkpt>
      <trkpt lat="41.682665" lon="2.483195">
        <ele>54.40</ele>
        <time>2018-01-02T12:59:39Z</time>
      </trkpt>
      <trkpt lat="41.682550" lon="2.482464">
        <ele>54.20</ele>
        <time>2018-01-02T12:59:47Z</time>
      </trkpt>
      <trkpt lat="41.682524" lon="2.482282">
        <ele>54.00</ele>
        <time>2018-01-02T12:59:49Z</time>
      </trkpt>
      <trkpt lat="41.682410" lon="2.481559">
        <ele>53.80</ele>
        <time>2018-01-02T12:59:57Z</time>
      </trkpt>
      <trkpt lat="41.682361" lon="2.481295">
        <ele>53.80</ele>
        <time>2018-01-02T13:00:00Z</time>
      </trkpt>
      <trkpt lat="41.682327" lon="2.481127">
        <ele>54.20</ele>
        <time>2018-01-02T13:00:02Z</time>
      </trkpt>
      <trkpt lat="41.682301" lon="2.480885">
        <ele>55.00</ele>
        <time>2018-01-02T13:00:05Z</time>
      </trkpt>
      <trkpt lat="41.682486" lon="2.480668">
        <ele>55.80</ele>
        <time>2018-01-02T13:00:09Z</time>
      </trkpt>
      <trkpt lat="41.682558" lon="2.480647">
        <ele>56.00</ele>
        <time>2018-01-02T13:00:10Z</time>
      </trkpt>
      <trkpt lat="41.682675" lon="2.480545">
        <ele>56.40</ele>
        <time>2018-01-02T13:00:12Z</time>
      </trkpt>
      <trkpt lat="41.682730" lon="2.480394">
        <ele>56.40</ele>
        <time>2018-01-02T13:00:14Z</time>
      </trkpt>
      <trkpt lat="41.682741" lon="2.480129">
        <ele>56.40</ele>
        <time>2018-01-02T13:00:17Z</time>
      </trkpt>
      <trkpt lat="41.682746" lon="2.479841">
        <ele>56.60</ele>
        <time>2018-01-02T13:00:20Z</time>
      </trkpt>
      <trkpt lat="41.682753" lon="2.479246">
        <ele>56.80</ele>
        <time>2018-01-02T13:00:26Z</time>
      </trkpt>
      <trkpt lat="41.682762" lon="2.478431">
        <ele>57.00</ele>
        <time>2018-01-02T13:00:34Z</time>
      </trkpt>
      <trkpt lat="41.682766" lon="2.478327">
        <ele>57.20</ele>
        <time>2018-01-02T13:00:35Z</time>
      </trkpt>
      <trkpt lat="41.682776" lon="2.477592">
        <ele>57.40</ele>
        <time>2018-01-02T13:00:42Z</time>
      </trkpt>
      <trkpt lat="41.682779" lon="2.477372">
        <ele>57.40</ele>
        <time>2018-01-02T13:00:44Z</time>
      </trkpt>
      <trkpt lat="41.682788" lon="2.476613">
        <ele>58.00</ele>
        <time>2018-01-02T13:00:51Z</time>
      </trkpt>
      <trkpt lat="41.682793" lon="2.476174">
        <ele>58.20</ele>
        <time>2018-01-02T13:00:55Z</time>
      </trkpt>
      <trkpt lat="41.682787" lon="2.476065">
        <ele>58.40</ele>
        <time>2018-01-02T13:00:56Z</time>
      </trkpt>
      <trkpt lat="41.682781" lon="2.475950">
        <ele>58.40</ele>
        <time>2018-01-02T13:00:57Z</time>
      </trkpt>
      <trkpt lat="41.682801" lon="2.475602">
        <ele>59.00</ele>
        <time>2018-01-02T13:01:00Z</time>
      </trkpt>
      <trkpt lat="41.682886" lon="2.475404">
        <ele>59.40</ele>
        <time>2018-01-02T13:01:02Z</time>
      </trkpt>
      <trkpt lat="41.682948" lon="2.475328">
        <ele>59.60</ele>
        <time>2018-01-02T13:01:03Z</time>
      </trkpt>
      <trkpt lat="41.683017" lon="2.475270">
        <ele>59.80</ele>
        <time>2018-01-02T13:01:04Z</time>
      </trkpt>
      <trkpt lat="41.683173" lon="2.475227">
        <ele>60.40</ele>
        <time>2018-01-02T13:01:06Z</time>
      </trkpt>
      <trkpt lat="41.683497" lon="2.475242">
        <ele>61.60</ele>
        <time>2018-01-02T13:01:10Z</time>
      </trkpt>
      <trkpt lat="41.683654" lon="2.475253">
        <ele>62.60</ele>
        <time>2018-01-02T13:01:12Z</time>
      </trkpt>
      <trkpt lat="41.683734" lon="2.475262">
        <ele>62.80</ele>
        <time>2018-01-02T13:01:13Z</time>
      </trkpt>
      <trkpt lat="41.683959" lon="2.475266">
        <ele>63.80</ele>
        <time>2018-01-02T13:01:16Z</time>
      </trkpt>
      <trkpt lat="41.684028" lon="2.475267">
        <ele>64.00</ele>
        <time>2018-01-02T13:01:17Z</time>
      </trkpt>
      <trkpt lat="41.684309" lon="2.475280">
        <ele>64.80</ele>
        <time>2018-01-02T13:01:21Z</time>
      </trkpt>
      <trkpt lat="41.684462" lon="2.475294">
        <ele>65.40</ele>
        <time>2018-01-02T13:01:23Z</time>
      </trkpt>
      <trkpt lat="41.684610" lon="2.475302">
        <ele>65.40</ele>
        <time>2018-01-02T13:01:25Z</time>
      </trkpt>
      <trkpt lat="41.684725" lon="2.475266">
        <ele>66.00</ele>
        <time>2018-01-02T13:01:27Z</time>
      </trkpt>
      <trkpt lat="41.684941" lon="2.475111">
        <ele>66.80</ele>
        <time>2018-01-02T13:01:31Z</time>
      </trkpt>
      <trkpt lat="41.685136" lon="2.475011">
        <ele>67.00</ele>
        <time>2018-01-02T13:01:34Z</time>
      </trkpt>
      <trkpt lat="41.685193" lon="2.474964">
        <ele>67.00</ele>
        <time>2018-01-02T13:01:35Z</time>
      </trkpt>
      <trkpt lat="41.685381" lon="2.474467">
        <ele>66.60</ele>
        <time>2018-01-02T13:01:41Z</time>
      </trkpt>
      <trkpt lat="41.685478" lon="2.474188">
        <ele>66.40</ele>
        <time>2018-01-02T13:01:44Z</time>
      </trkpt>
      <trkpt lat="41.685587" lon="2.473876">
        <ele>66.20</ele>
        <time>2018-01-02T13:01:47Z</time>
      </trkpt>
      <trkpt lat="41.685657" lon="2.473652">
        <ele>66.00</ele>
        <time>2018-01-02T13:01:49Z</time>
      </trkpt>
      <trkpt lat="41.685692" lon="2.473539">
        <ele>66.00</ele>
        <time>2018-01-02T13:01:50Z</time>
      </trkpt>
      <trkpt lat="41.685880" lon="2.472947">
        <ele>65.60</ele>
        <time>2018-01-02T13:01:55Z</time>
      </trkpt>
      <trkpt lat="41.685983" lon="2.472554">
        <ele>66.00</ele>
        <time>2018-01-02T13:01:58Z</time>
      </trkpt>
      <trkpt lat="41.686051" lon="2.472275">
        <ele>67.80</ele>
        <time>2018-01-02T13:02:00Z</time>
      </trkpt>
      <trkpt lat="41.686090" lon="2.472138">
        <ele>68.60</ele>
        <time>2018-01-02T13:02:01Z</time>
      </trkpt>
      <trkpt lat="41.686128" lon="2.471996">
        <ele>69.40</ele>
        <time>2018-01-02T13:02:02Z</time>
      </trkpt>
      <trkpt lat="41.686205" lon="2.471736">
        <ele>70.80</ele>
        <time>2018-01-02T13:02:04Z</time>
      </trkpt>
      <trkpt lat="41.686247" lon="2.471618">
        <ele>71.20</ele>
        <time>2018-01-02T13:02:05Z</time>
      </trkpt>
      <trkpt lat="41.686350" lon="2.471397">
        <ele>72.20</ele>
        <time>2018-01-02T13:02:07Z</time>
      </trkpt>
      <trkpt lat="41.686527" lon="2.471108">
        <ele>73.40</ele>
        <time>2018-01-02T13:02:10Z</time>
      </trkpt>
      <trkpt lat="41.686588" lon="2.471022">
        <ele>73.80</ele>
        <time>2018-01-02T13:02:11Z</time>
      </trkpt>
      <trkpt lat="41.686715" lon="2.470854">
        <ele>74.80</ele>
        <time>2018-01-02T13:02:13Z</time>
      </trkpt>
      <trkpt lat="41.686937" lon="2.470567">
        <ele>76.20</ele>
        <time>2018-01-02T13:02:16Z</time>
      </trkpt>
      <trkpt lat="41.687083" lon="2.470373">
        <ele>77.20</ele>
        <time>2018-01-02T13:02:18Z</time>
      </trkpt>
      <trkpt lat="41.687300" lon="2.470105">
        <ele>78.60</ele>
        <time>2018-01-02T13:02:21Z</time>
      </trkpt>
      <trkpt lat="41.687366" lon="2.470015">
        <ele>79.00</ele>
        <time>2018-01-02T13:02:22Z</time>
      </trkpt>
      <trkpt lat="41.687434" lon="2.469931">
        <ele>79.80</ele>
        <time>2018-01-02T13:02:23Z</time>
      </trkpt>
      <trkpt lat="41.687682" lon="2.469598">
        <ele>81.00</ele>
        <time>2018-01-02T13:02:27Z</time>
      </trkpt>
      <trkpt lat="41.687739" lon="2.469512">
        <ele>81.20</ele>
        <time>2018-01-02T13:02:28Z</time>
      </trkpt>
      <trkpt lat="41.687790" lon="2.469422">
        <ele>81.60</ele>
        <time>2018-01-02T13:02:29Z</time>
      </trkpt>
      <trkpt lat="41.688002" lon="2.468955">
        <ele>82.20</ele>
        <time>2018-01-02T13:02:34Z</time>
      </trkpt>
      <trkpt lat="41.688125" lon="2.468679">
        <ele>82.80</ele>
        <time>2018-01-02T13:02:37Z</time>
      </trkpt>
      <trkpt lat="41.688353" lon="2.468129">
        <ele>82.80</ele>
        <time>2018-01-02T13:02:43Z</time>
      </trkpt>
      <trkpt lat="41.688406" lon="2.467937">
        <ele>83.40</ele>
        <time>2018-01-02T13:02:45Z</time>
      </trkpt>
      <trkpt lat="41.688519" lon="2.467557">
        <ele>84.20</ele>
        <time>2018-01-02T13:02:49Z</time>
      </trkpt>
      <trkpt lat="41.688548" lon="2.467463">
        <ele>84.20</ele>
        <time>2018-01-02T13:02:50Z</time>
      </trkpt>
      <trkpt lat="41.688590" lon="2.467180">
        <ele>84.40</ele>
        <time>2018-01-02T13:02:53Z</time>
      </trkpt>
      <trkpt lat="41.688562" lon="2.466990">
        <ele>84.80</ele>
        <time>2018-01-02T13:02:55Z</time>
      </trkpt>
      <trkpt lat="41.688594" lon="2.466903">
        <ele>84.80</ele>
        <time>2018-01-02T13:02:56Z</time>
      </trkpt>
      <trkpt lat="41.688738" lon="2.466822">
        <ele>85.00</ele>
        <time>2018-01-02T13:02:58Z</time>
      </trkpt>
      <trkpt lat="41.688799" lon="2.466747">
        <ele>85.40</ele>
        <time>2018-01-02T13:02:59Z</time>
      </trkpt>
      <trkpt lat="41.688907" lon="2.466531">
        <ele>86.80</ele>
        <time>2018-01-02T13:03:01Z</time>
      </trkpt>
      <trkpt lat="41.688953" lon="2.466396">
        <ele>87.60</ele>
        <time>2018-01-02T13:03:02Z</time>
      </trkpt>
      <trkpt lat="41.688995" lon="2.466263">
        <ele>88.60</ele>
        <time>2018-01-02T13:03:03Z</time>
      </trkpt>
      <trkpt lat="41.689030" lon="2.466128">
        <ele>89.60</ele>
        <time>2018-01-02T13:03:04Z</time>
      </trkpt>
      <trkpt lat="41.689094" lon="2.465866">
        <ele>91.20</ele>
        <time>2018-01-02T13:03:06Z</time>
      </trkpt>
      <trkpt lat="41.689178" lon="2.465629">
        <ele>92.40</ele>
        <time>2018-01-02T13:03:08Z</time>
      </trkpt>
      <trkpt lat="41.689284" lon="2.465410">
        <ele>93.80</ele>
        <time>2018-01-02T13:03:10Z</time>
      </trkpt>
      <trkpt lat="41.689401" lon="2.465221">
        <ele>95.60</ele>
        <time>2018-01-02T13:03:12Z</time>
      </trkpt>
      <trkpt lat="41.689531" lon="2.465058">
        <ele>96.80</ele>
        <time>2018-01-02T13:03:14Z</time>
      </trkpt>
      <trkpt lat="41.689595" lon="2.464983">
        <ele>97.40</ele>
        <time>2018-01-02T13:03:15Z</time>
      </trkpt>
      <trkpt lat="41.689655" lon="2.464909">
        <ele>98.00</ele>
        <time>2018-01-02T13:03:16Z</time>
      </trkpt>
      <trkpt lat="41.689866" lon="2.464664">
        <ele>99.40</ele>
        <time>2018-01-02T13:03:20Z</time>
      </trkpt>
      <trkpt lat="41.689997" lon="2.464508">
        <ele>99.20</ele>
        <time>2018-01-02T13:03:23Z</time>
      </trkpt>
      <trkpt lat="41.690038" lon="2.464460">
        <ele>99.20</ele>
        <time>2018-01-02T13:03:24Z</time>
      </trkpt>
      <trkpt lat="41.690197" lon="2.464280">
        <ele>98.20</ele>
        <time>2018-01-02T13:03:28Z</time>
      </trkpt>
      <trkpt lat="41.690235" lon="2.464235">
        <ele>97.80</ele>
        <time>2018-01-02T13:03:29Z</time>
      </trkpt>
      <trkpt lat="41.690306" lon="2.464148">
        <ele>97.00</ele>
        <time>2018-01-02T13:03:31Z</time>
      </trkpt>
      <trkpt lat="41.690410" lon="2.463995">
        <ele>95.80</ele>
        <time>2018-01-02T13:03:34Z</time>
      </trkpt>
      <trkpt lat="41.690440" lon="2.463938">
        <ele>95.00</ele>
        <time>2018-01-02T13:03:35Z</time>
      </trkpt>
      <trkpt lat="41.690474" lon="2.463882">
        <ele>94.60</ele>
        <time>2018-01-02T13:03:36Z</time>
      </trkpt>
      <trkpt lat="41.690561" lon="2.463702">
        <ele>93.40</ele>
        <time>2018-01-02T13:03:39Z</time>
      </trkpt>
      <trkpt lat="41.690613" lon="2.463563">
        <ele>92.60</ele>
        <time>2018-01-02T13:03:41Z</time>
      </trkpt>
      <trkpt lat="41.690734" lon="2.463051">
        <ele>91.60</ele>
        <time>2018-01-02T13:03:47Z</time>
      </trkpt>
      <trkpt lat="41.690744" lon="2.462956">
        <ele>92.00</ele>
        <time>2018-01-02T13:03:48Z</time>
      </trkpt>
      <trkpt lat="41.690826" lon="2.462495">
        <ele>92.60</ele>
        <time>2018-01-02T13:03:53Z</time>
      </trkpt>
      <trkpt lat="41.690976" lon="2.462077">
        <ele>93.00</ele>
        <time>2018-01-02T13:03:58Z</time>
      </trkpt>
      <trkpt lat="41.691052" lon="2.461915">
        <ele>93.40</ele>
        <time>2018-01-02T13:04:00Z</time>
      </trkpt>
      <trkpt lat="41.691152" lon="2.461686">
        <ele>93.80</ele>
        <time>2018-01-02T13:04:03Z</time>
      </trkpt>
      <trkpt lat="41.691246" lon="2.461469">
        <ele>93.80</ele>
        <time>2018-01-02T13:04:06Z</time>
      </trkpt>
      <trkpt lat="41.691449" lon="2.460869">
        <ele>93.40</ele>
        <time>2018-01-02T13:04:13Z</time>
      </trkpt>
      <trkpt lat="41.691470" lon="2.460778">
        <ele>93.60</ele>
        <time>2018-01-02T13:04:14Z</time>
      </trkpt>
      <trkpt lat="41.691625" lon="2.460039">
        <ele>93.40</ele>
        <time>2018-01-02T13:04:22Z</time>
      </trkpt>
      <trkpt lat="41.691724" lon="2.459553">
        <ele>93.20</ele>
        <time>2018-01-02T13:04:27Z</time>
      </trkpt>
      <trkpt lat="41.691806" lon="2.459152">
        <ele>93.60</ele>
        <time>2018-01-02T13:04:31Z</time>
      </trkpt>
      <trkpt lat="41.691961" lon="2.458415">
        <ele>94.20</ele>
        <time>2018-01-02T13:04:38Z</time>
      </trkpt>
      <trkpt lat="41.692003" lon="2.458203">
        <ele>95.20</ele>
        <time>2018-01-02T13:04:40Z</time>
      </trkpt>
      <trkpt lat="41.692113" lon="2.457689">
        <ele>96.40</ele>
        <time>2018-01-02T13:04:45Z</time>
      </trkpt>
      <trkpt lat="41.692178" lon="2.457394">
        <ele>97.40</ele>
        <time>2018-01-02T13:04:48Z</time>
      </trkpt>
      <trkpt lat="41.692203" lon="2.457299">
        <ele>97.80</ele>
        <time>2018-01-02T13:04:49Z</time>
      </trkpt>
      <trkpt lat="41.692334" lon="2.456848">
        <ele>98.80</ele>
        <time>2018-01-02T13:04:54Z</time>
      </trkpt>
      <trkpt lat="41.692396" lon="2.456689">
        <ele>99.00</ele>
        <time>2018-01-02T13:04:56Z</time>
      </trkpt>
      <trkpt lat="41.692644" lon="2.456239">
        <ele>99.40</ele>
        <time>2018-01-02T13:05:02Z</time>
      </trkpt>
      <trkpt lat="41.692938" lon="2.455880">
        <ele>99.80</ele>
        <time>2018-01-02T13:05:08Z</time>
      </trkpt>
      <trkpt lat="41.693048" lon="2.455746">
        <ele>100.00</ele>
        <time>2018-01-02T13:05:10Z</time>
      </trkpt>
      <trkpt lat="41.693165" lon="2.455613">
        <ele>100.20</ele>
        <time>2018-01-02T13:05:12Z</time>
      </trkpt>
      <trkpt lat="41.693386" lon="2.455361">
        <ele>100.60</ele>
        <time>2018-01-02T13:05:16Z</time>
      </trkpt>
      <trkpt lat="41.693538" lon="2.455185">
        <ele>100.60</ele>
        <time>2018-01-02T13:05:19Z</time>
      </trkpt>
      <trkpt lat="41.693546" lon="2.455000">
        <ele>100.80</ele>
        <time>2018-01-02T13:05:22Z</time>
      </trkpt>
      <trkpt lat="41.693548" lon="2.454924">
        <ele>101.00</ele>
        <time>2018-01-02T13:05:23Z</time>
      </trkpt>
      <trkpt lat="41.693638" lon="2.454706">
        <ele>101.40</ele>
        <time>2018-01-02T13:05:26Z</time>
      </trkpt>
      <trkpt lat="41.693718" lon="2.454588">
        <ele>101.80</ele>
        <time>2018-01-02T13:05:28Z</time>
      </trkpt>
      <trkpt lat="41.693907" lon="2.454332">
        <ele>102.00</ele>
        <time>2018-01-02T13:05:33Z</time>
      </trkpt>
      <trkpt lat="41.693944" lon="2.454283">
        <ele>102.00</ele>
        <time>2018-01-02T13:05:34Z</time>
      </trkpt>
      <trkpt lat="41.694061" lon="2.454177">
        <ele>101.80</ele>
        <time>2018-01-02T13:05:37Z</time>
      </trkpt>
      <trkpt lat="41.694144" lon="2.454232">
        <ele>101.80</ele>
        <time>2018-01-02T13:05:39Z</time>
      </trkpt>
      <trkpt lat="41.694191" lon="2.454207">
        <ele>102.00</ele>
        <time>2018-01-02T13:05:40Z</time>
      </trkpt>
      <trkpt lat="41.694290" lon="2.453934">
        <ele>102.00</ele>
        <time>2018-01-02T13:05:44Z</time>
      </trkpt>
      <trkpt lat="41.694399" lon="2.453450">
        <ele>102.00</ele>
        <time>2018-01-02T13:05:50Z</time>
      </trkpt>
      <trkpt lat="41.694416" lon="2.453372">
        <ele>101.80</ele>
        <time>2018-01-02T13:05:51Z</time>
      </trkpt>
      <trkpt lat="41.694444" lon="2.453130">
        <ele>101.60</ele>
        <time>2018-01-02T13:05:54Z</time>
      </trkpt>
      <trkpt lat="41.694457" lon="2.452807">
        <ele>101.20</ele>
        <time>2018-01-02T13:05:58Z</time>
      </trkpt>
      <trkpt lat="41.694456" lon="2.452728">
        <ele>101.00</ele>
        <time>2018-01-02T13:05:59Z</time>
      </trkpt>
      <trkpt lat="41.694444" lon="2.452497">
        <ele>100.60</ele>
        <time>2018-01-02T13:06:02Z</time>
      </trkpt>
      <trkpt lat="41.694404" lon="2.452187">
        <ele>100.00</ele>
        <time>2018-01-02T13:06:06Z</time>
      </trkpt>
      <trkpt lat="41.694354" lon="2.451969">
        <ele>99.40</ele>
        <time>2018-01-02T13:06:09Z</time>
      </trkpt>
      <trkpt lat="41.694293" lon="2.451748">
        <ele>99.20</ele>
        <time>2018-01-02T13:06:12Z</time>
      </trkpt>
      <trkpt lat="41.694221" lon="2.451533">
        <ele>98.80</ele>
        <time>2018-01-02T13:06:15Z</time>
      </trkpt>
      <trkpt lat="41.694182" lon="2.451394">
        <ele>98.60</ele>
        <time>2018-01-02T13:06:17Z</time>
      </trkpt>
      <trkpt lat="41.694110" lon="2.451191">
        <ele>98.40</ele>
        <time>2018-01-02T13:06:20Z</time>
      </trkpt>
      <trkpt lat="41.693963" lon="2.450787">
        <ele>98.00</ele>
        <time>2018-01-02T13:06:26Z</time>
      </trkpt>
      <trkpt lat="41.693896" lon="2.450593">
        <ele>98.20</ele>
        <time>2018-01-02T13:06:29Z</time>
      </trkpt>
      <trkpt lat="41.693851" lon="2.450465">
        <ele>97.80</ele>
        <time>2018-01-02T13:06:31Z</time>
      </trkpt>
      <trkpt lat="41.693748" lon="2.450332">
        <ele>97.60</ele>
        <time>2018-01-02T13:06:34Z</time>
      </trkpt>
      <trkpt lat="41.693644" lon="2.450356">
        <ele>97.40</ele>
        <time>2018-01-02T13:06:36Z</time>
      </trkpt>
      <trkpt lat="41.693467" lon="2.450593">
        <ele>97.40</ele>
        <time>2018-01-02T13:06:40Z</time>
      </trkpt>
      <trkpt lat="41.693420" lon="2.450658">
        <ele>97.20</ele>
        <time>2018-01-02T13:06:41Z</time>
      </trkpt>
      <trkpt lat="41.693266" lon="2.450835">
        <ele>97.00</ele>
        <time>2018-01-02T13:06:44Z</time>
      </trkpt>
      <trkpt lat="41.693098" lon="2.450924">
        <ele>96.80</ele>
        <time>2018-01-02T13:06:47Z</time>
      </trkpt>
      <trkpt lat="41.692950" lon="2.450857">
        <ele>97.40</ele>
        <time>2018-01-02T13:06:50Z</time>
      </trkpt>
      <trkpt lat="41.692914" lon="2.450804">
        <ele>97.80</ele>
        <time>2018-01-02T13:06:51Z</time>
      </trkpt>
      <trkpt lat="41.692820" lon="2.450618">
        <ele>99.00</ele>
        <time>2018-01-02T13:06:54Z</time>
      </trkpt>
      <trkpt lat="41.692778" lon="2.450542">
        <ele>99.40</ele>
        <time>2018-01-02T13:06:55Z</time>
      </trkpt>
      <trkpt lat="41.692692" lon="2.450374">
        <ele>100.20</ele>
        <time>2018-01-02T13:06:57Z</time>
      </trkpt>
      <trkpt lat="41.692648" lon="2.450293">
        <ele>100.60</ele>
        <time>2018-01-02T13:06:58Z</time>
      </trkpt>
      <trkpt lat="41.692605" lon="2.450210">
        <ele>101.20</ele>
        <time>2018-01-02T13:06:59Z</time>
      </trkpt>
      <trkpt lat="41.692398" lon="2.449828">
        <ele>102.20</ele>
        <time>2018-01-02T13:07:04Z</time>
      </trkpt>
      <trkpt lat="41.692289" lon="2.449622">
        <ele>102.40</ele>
        <time>2018-01-02T13:07:07Z</time>
      </trkpt>
      <trkpt lat="41.692109" lon="2.449277">
        <ele>102.40</ele>
        <time>2018-01-02T13:07:12Z</time>
      </trkpt>
      <trkpt lat="41.692072" lon="2.449208">
        <ele>102.60</ele>
        <time>2018-01-02T13:07:13Z</time>
      </trkpt>
      <trkpt lat="41.691828" lon="2.448758">
        <ele>102.80</ele>
        <time>2018-01-02T13:07:19Z</time>
      </trkpt>
      <trkpt lat="41.691784" lon="2.448682">
        <ele>103.00</ele>
        <time>2018-01-02T13:07:20Z</time>
      </trkpt>
      <trkpt lat="41.691652" lon="2.448447">
        <ele>102.80</ele>
        <time>2018-01-02T13:07:23Z</time>
      </trkpt>
      <trkpt lat="41.691557" lon="2.448301">
        <ele>102.80</ele>
        <time>2018-01-02T13:07:25Z</time>
      </trkpt>
      <trkpt lat="41.691369" lon="2.448053">
        <ele>103.60</ele>
        <time>2018-01-02T13:07:29Z</time>
      </trkpt>
      <trkpt lat="41.691304" lon="2.447977">
        <ele>103.80</ele>
        <time>2018-01-02T13:07:31Z</time>
      </trkpt>
      <trkpt lat="41.691129" lon="2.447747">
        <ele>103.80</ele>
        <time>2018-01-02T13:07:35Z</time>
      </trkpt>
      <trkpt lat="41.690704" lon="2.447257">
        <ele>104.00</ele>
        <time>2018-01-02T13:07:43Z</time>
      </trkpt>
      <trkpt lat="41.690232" lon="2.446746">
        <ele>103.60</ele>
        <time>2018-01-02T13:07:52Z</time>
      </trkpt>
      <trkpt lat="41.689829" lon="2.446367">
        <ele>103.60</ele>
        <time>2018-01-02T13:07:59Z</time>
      </trkpt>
      <trkpt lat="41.689345" lon="2.446005">
        <ele>103.60</ele>
        <time>2018-01-02T13:08:07Z</time>
      </trkpt>
      <trkpt lat="41.689233" lon="2.445910">
        <ele>103.60</ele>
        <time>2018-01-02T13:08:09Z</time>
      </trkpt>
      <trkpt lat="41.689005" lon="2.445726">
        <ele>104.00</ele>
        <time>2018-01-02T13:08:13Z</time>
      </trkpt>
      <trkpt lat="41.688951" lon="2.445680">
        <ele>104.00</ele>
        <time>2018-01-02T13:08:14Z</time>
      </trkpt>
      <trkpt lat="41.688441" lon="2.445257">
        <ele>104.00</ele>
        <time>2018-01-02T13:08:23Z</time>
      </trkpt>
      <trkpt lat="41.688329" lon="2.445165">
        <ele>104.20</ele>
        <time>2018-01-02T13:08:25Z</time>
      </trkpt>
      <trkpt lat="41.687940" lon="2.444837">
        <ele>104.20</ele>
        <time>2018-01-02T13:08:32Z</time>
      </trkpt>
      <trkpt lat="41.687504" lon="2.444447">
        <ele>104.40</ele>
        <time>2018-01-02T13:08:40Z</time>
      </trkpt>
      <trkpt lat="41.687451" lon="2.444395">
        <ele>104.40</ele>
        <time>2018-01-02T13:08:41Z</time>
      </trkpt>
      <trkpt lat="41.687399" lon="2.444337">
        <ele>104.20</ele>
        <time>2018-01-02T13:08:42Z</time>
      </trkpt>
      <trkpt lat="41.687234" lon="2.444198">
        <ele>104.60</ele>
        <time>2018-01-02T13:08:45Z</time>
      </trkpt>
      <trkpt lat="41.687189" lon="2.444137">
        <ele>104.60</ele>
        <time>2018-01-02T13:08:46Z</time>
      </trkpt>
      <trkpt lat="41.687024" lon="2.444042">
        <ele>104.80</ele>
        <time>2018-01-02T13:08:49Z</time>
      </trkpt>
      <trkpt lat="41.686589" lon="2.444017">
        <ele>104.60</ele>
        <time>2018-01-02T13:08:56Z</time>
      </trkpt>
      <trkpt lat="41.686460" lon="2.444033">
        <ele>104.60</ele>
        <time>2018-01-02T13:08:58Z</time>
      </trkpt>
      <trkpt lat="41.686201" lon="2.444091">
        <ele>105.00</ele>
        <time>2018-01-02T13:09:02Z</time>
      </trkpt>
      <trkpt lat="41.685882" lon="2.444233">
        <ele>105.80</ele>
        <time>2018-01-02T13:09:07Z</time>
      </trkpt>
      <trkpt lat="41.685822" lon="2.444269">
        <ele>106.00</ele>
        <time>2018-01-02T13:09:08Z</time>
      </trkpt>
      <trkpt lat="41.685714" lon="2.444324">
        <ele>106.60</ele>
        <time>2018-01-02T13:09:10Z</time>
      </trkpt>
      <trkpt lat="41.685640" lon="2.444263">
        <ele>106.60</ele>
        <time>2018-01-02T13:09:12Z</time>
      </trkpt>
      <trkpt lat="41.685642" lon="2.444214">
        <ele>106.40</ele>
        <time>2018-01-02T13:09:13Z</time>
      </trkpt>
      <trkpt lat="41.685738" lon="2.443987">
        <ele>106.20</ele>
        <time>2018-01-02T13:09:17Z</time>
      </trkpt>
      <trkpt lat="41.685813" lon="2.443777">
        <ele>106.40</ele>
        <time>2018-01-02T13:09:20Z</time>
      </trkpt>
      <trkpt lat="41.685886" lon="2.443556">
        <ele>106.80</ele>
        <time>2018-01-02T13:09:23Z</time>
      </trkpt>
      <trkpt lat="41.685906" lon="2.443474">
        <ele>106.80</ele>
        <time>2018-01-02T13:09:24Z</time>
      </trkpt>
      <trkpt lat="41.686049" lon="2.442980">
        <ele>107.20</ele>
        <time>2018-01-02T13:09:29Z</time>
      </trkpt>
      <trkpt lat="41.686083" lon="2.442870">
        <ele>107.40</ele>
        <time>2018-01-02T13:09:30Z</time>
      </trkpt>
      <trkpt lat="41.686189" lon="2.442527">
        <ele>107.80</ele>
        <time>2018-01-02T13:09:33Z</time>
      </trkpt>
      <trkpt lat="41.686252" lon="2.442287">
        <ele>108.00</ele>
        <time>2018-01-02T13:09:35Z</time>
      </trkpt>
      <trkpt lat="41.686354" lon="2.441811">
        <ele>108.80</ele>
        <time>2018-01-02T13:09:39Z</time>
      </trkpt>
      <trkpt lat="41.686406" lon="2.441563">
        <ele>109.20</ele>
        <time>2018-01-02T13:09:41Z</time>
      </trkpt>
      <trkpt lat="41.686437" lon="2.441442">
        <ele>109.40</ele>
        <time>2018-01-02T13:09:42Z</time>
      </trkpt>
      <trkpt lat="41.686577" lon="2.441109">
        <ele>110.00</ele>
        <time>2018-01-02T13:09:45Z</time>
      </trkpt>
      <trkpt lat="41.686682" lon="2.440896">
        <ele>110.40</ele>
        <time>2018-01-02T13:09:47Z</time>
      </trkpt>
      <trkpt lat="41.686786" lon="2.440678">
        <ele>111.00</ele>
        <time>2018-01-02T13:09:49Z</time>
      </trkpt>
      <trkpt lat="41.686895" lon="2.440462">
        <ele>111.20</ele>
        <time>2018-01-02T13:09:51Z</time>
      </trkpt>
      <trkpt lat="41.686949" lon="2.440351">
        <ele>111.60</ele>
        <time>2018-01-02T13:09:52Z</time>
      </trkpt>
      <trkpt lat="41.686995" lon="2.440235">
        <ele>112.20</ele>
        <time>2018-01-02T13:09:53Z</time>
      </trkpt>
      <trkpt lat="41.687053" lon="2.439984">
        <ele>114.20</ele>
        <time>2018-01-02T13:09:55Z</time>
      </trkpt>
      <trkpt lat="41.687086" lon="2.439852">
        <ele>115.60</ele>
        <time>2018-01-02T13:09:56Z</time>
      </trkpt>
      <trkpt lat="41.687117" lon="2.439720">
        <ele>116.80</ele>
        <time>2018-01-02T13:09:57Z</time>
      </trkpt>
      <trkpt lat="41.687148" lon="2.439599">
        <ele>118.40</ele>
        <time>2018-01-02T13:09:58Z</time>
      </trkpt>
      <trkpt lat="41.687176" lon="2.439484">
        <ele>121.40</ele>
        <time>2018-01-02T13:09:59Z</time>
      </trkpt>
      <trkpt lat="41.687201" lon="2.439372">
        <ele>122.80</ele>
        <time>2018-01-02T13:10:00Z</time>
      </trkpt>
      <trkpt lat="41.687225" lon="2.439260">
        <ele>124.40</ele>
        <time>2018-01-02T13:10:01Z</time>
      </trkpt>
      <trkpt lat="41.687251" lon="2.439146">
        <ele>125.80</ele>
        <time>2018-01-02T13:10:02Z</time>
      </trkpt>
      <trkpt lat="41.687276" lon="2.439029">
        <ele>127.20</ele>
        <time>2018-01-02T13:10:03Z</time>
      </trkpt>
      <trkpt lat="41.687302" lon="2.438912">
        <ele>128.80</ele>
        <time>2018-01-02T13:10:04Z</time>
      </trkpt>
      <trkpt lat="41.687324" lon="2.438791">
        <ele>130.20</ele>
        <time>2018-01-02T13:10:05Z</time>
      </trkpt>
      <trkpt lat="41.687348" lon="2.438668">
        <ele>131.60</ele>
        <time>2018-01-02T13:10:06Z</time>
      </trkpt>
      <trkpt lat="41.687368" lon="2.438542">
        <ele>132.80</ele>
        <time>2018-01-02T13:10:07Z</time>
      </trkpt>
      <trkpt lat="41.687384" lon="2.438416">
        <ele>134.00</ele>
        <time>2018-01-02T13:10:08Z</time>
      </trkpt>
      <trkpt lat="41.687398" lon="2.438296">
        <ele>135.20</ele>
        <time>2018-01-02T13:10:09Z</time>
      </trkpt>
      <trkpt lat="41.687413" lon="2.438179">
        <ele>136.20</ele>
        <time>2018-01-02T13:10:10Z</time>
      </trkpt>
      <trkpt lat="41.687437" lon="2.437943">
        <ele>138.20</ele>
        <time>2018-01-02T13:10:12Z</time>
      </trkpt>
      <trkpt lat="41.687449" lon="2.437813">
        <ele>139.00</ele>
        <time>2018-01-02T13:10:13Z</time>
      </trkpt>
      <trkpt lat="41.687460" lon="2.437671">
        <ele>139.80</ele>
        <time>2018-01-02T13:10:14Z</time>
      </trkpt>
      <trkpt lat="41.687489" lon="2.437387">
        <ele>141.20</ele>
        <time>2018-01-02T13:10:16Z</time>
      </trkpt>
      <trkpt lat="41.687515" lon="2.437104">
        <ele>142.40</ele>
        <time>2018-01-02T13:10:18Z</time>
      </trkpt>
      <trkpt lat="41.687530" lon="2.436801">
        <ele>144.20</ele>
        <time>2018-01-02T13:10:20Z</time>
      </trkpt>
      <trkpt lat="41.687546" lon="2.436501">
        <ele>146.00</ele>
        <time>2018-01-02T13:10:22Z</time>
      </trkpt>
      <trkpt lat="41.687555" lon="2.436349">
        <ele>147.80</ele>
        <time>2018-01-02T13:10:23Z</time>
      </trkpt>
      <trkpt lat="41.687569" lon="2.436056">
        <ele>149.60</ele>
        <time>2018-01-02T13:10:25Z</time>
      </trkpt>
      <trkpt lat="41.687575" lon="2.435773">
        <ele>151.20</ele>
        <time>2018-01-02T13:10:27Z</time>
      </trkpt>
      <trkpt lat="41.687578" lon="2.435495">
        <ele>152.60</ele>
        <time>2018-01-02T13:10:29Z</time>
      </trkpt>
      <trkpt lat="41.687580" lon="2.435361">
        <ele>153.20</ele>
        <time>2018-01-02T13:10:30Z</time>
      </trkpt>
      <trkpt lat="41.687580" lon="2.435240">
        <ele>153.80</ele>
        <time>2018-01-02T13:10:31Z</time>
      </trkpt>
      <trkpt lat="41.687574" lon="2.435026">
        <ele>154.80</ele>
        <time>2018-01-02T13:10:33Z</time>
      </trkpt>
      <trkpt lat="41.687509" lon="2.434883">
        <ele>155.40</ele>
        <time>2018-01-02T13:10:35Z</time>
      </trkpt>
      <trkpt lat="41.687450" lon="2.434858">
        <ele>155.60</ele>
        <time>2018-01-02T13:10:36Z</time>
      </trkpt>
      <trkpt lat="41.687324" lon="2.434869">
        <ele>156.00</ele>
        <time>2018-01-02T13:10:38Z</time>
      </trkpt>
      <trkpt lat="41.687259" lon="2.434876">
        <ele>156.20</ele>
        <time>2018-01-02T13:10:39Z</time>
      </trkpt>
      <trkpt lat="41.687125" lon="2.434886">
        <ele>156.20</ele>
        <time>2018-01-02T13:10:41Z</time>
      </trkpt>
      <trkpt lat="41.687059" lon="2.434887">
        <ele>156.20</ele>
        <time>2018-01-02T13:10:42Z</time>
      </trkpt>
      <trkpt lat="41.686801" lon="2.434944">
        <ele>157.00</ele>
        <time>2018-01-02T13:10:46Z</time>
      </trkpt>
      <trkpt lat="41.686737" lon="2.434991">
        <ele>157.60</ele>
        <time>2018-01-02T13:10:47Z</time>
      </trkpt>
      <trkpt lat="41.686683" lon="2.435048">
        <ele>157.80</ele>
        <time>2018-01-02T13:10:48Z</time>
      </trkpt>
      <trkpt lat="41.686507" lon="2.435311">
        <ele>158.40</ele>
        <time>2018-01-02T13:10:52Z</time>
      </trkpt>
      <trkpt lat="41.686377" lon="2.435496">
        <ele>158.60</ele>
        <time>2018-01-02T13:10:55Z</time>
      </trkpt>
      <trkpt lat="41.686154" lon="2.435764">
        <ele>158.40</ele>
        <time>2018-01-02T13:11:00Z</time>
      </trkpt>
      <trkpt lat="41.686070" lon="2.435872">
        <ele>158.40</ele>
        <time>2018-01-02T13:11:02Z</time>
      </trkpt>
      <trkpt lat="41.685812" lon="2.436187">
        <ele>157.60</ele>
        <time>2018-01-02T13:11:08Z</time>
      </trkpt>
      <trkpt lat="41.685765" lon="2.436235">
        <ele>157.80</ele>
        <time>2018-01-02T13:11:09Z</time>
      </trkpt>
      <trkpt lat="41.685671" lon="2.436321">
        <ele>157.80</ele>
        <time>2018-01-02T13:11:11Z</time>
      </trkpt>
      <trkpt lat="41.685623" lon="2.436362">
        <ele>158.00</ele>
        <time>2018-01-02T13:11:12Z</time>
      </trkpt>
      <trkpt lat="41.685520" lon="2.436441">
        <ele>158.00</ele>
        <time>2018-01-02T13:11:14Z</time>
      </trkpt>
      <trkpt lat="41.685419" lon="2.436517">
        <ele>158.20</ele>
        <time>2018-01-02T13:11:16Z</time>
      </trkpt>
      <trkpt lat="41.685222" lon="2.436664">
        <ele>158.20</ele>
        <time>2018-01-02T13:11:20Z</time>
      </trkpt>
      <trkpt lat="41.685181" lon="2.436697">
        <ele>158.20</ele>
        <time>2018-01-02T13:11:21Z</time>
      </trkpt>
      <trkpt lat="41.685091" lon="2.436749">
        <ele>158.40</ele>
        <time>2018-01-02T13:11:23Z</time>
      </trkpt>
      <trkpt lat="41.684827" lon="2.436886">
        <ele>158.60</ele>
        <time>2018-01-02T13:11:29Z</time>
      </trkpt>
      <trkpt lat="41.684739" lon="2.436933">
        <ele>158.40</ele>
        <time>2018-01-02T13:11:31Z</time>
      </trkpt>
      <trkpt lat="41.684486" lon="2.437077">
        <ele>158.20</ele>
        <time>2018-01-02T13:11:37Z</time>
      </trkpt>
      <trkpt lat="41.684161" lon="2.437266">
        <ele>157.40</ele>
        <time>2018-01-02T13:11:45Z</time>
      </trkpt>
      <trkpt lat="41.683950" lon="2.437364">
        <ele>156.40</ele>
        <time>2018-01-02T13:11:51Z</time>
      </trkpt>
      <trkpt lat="41.683854" lon="2.437437">
        <ele>156.00</ele>
        <time>2018-01-02T13:11:54Z</time>
      </trkpt>
      <trkpt lat="41.683753" lon="2.437511">
        <ele>155.20</ele>
        <time>2018-01-02T13:11:57Z</time>
      </trkpt>
      <trkpt lat="41.683717" lon="2.437533">
        <ele>154.80</ele>
        <time>2018-01-02T13:11:58Z</time>
      </trkpt>
      <trkpt lat="41.683646" lon="2.437585">
        <ele>154.00</ele>
        <time>2018-01-02T13:12:00Z</time>
      </trkpt>
      <trkpt lat="41.683607" lon="2.437603">
        <ele>153.60</ele>
        <time>2018-01-02T13:12:01Z</time>
      </trkpt>
      <trkpt lat="41.683533" lon="2.437627">
        <ele>152.60</ele>
        <time>2018-01-02T13:12:03Z</time>
      </trkpt>
      <trkpt lat="41.683460" lon="2.437674">
        <ele>151.60</ele>
        <time>2018-01-02T13:12:05Z</time>
      </trkpt>
      <trkpt lat="41.683423" lon="2.437701">
        <ele>151.20</ele>
        <time>2018-01-02T13:12:06Z</time>
      </trkpt>
      <trkpt lat="41.683344" lon="2.437735">
        <ele>150.00</ele>
        <time>2018-01-02T13:12:08Z</time>
      </trkpt>
      <trkpt lat="41.683249" lon="2.437770">
        <ele>149.00</ele>
        <time>2018-01-02T13:12:10Z</time>
      </trkpt>
      <trkpt lat="41.683096" lon="2.437858">
        <ele>148.00</ele>
        <time>2018-01-02T13:12:13Z</time>
      </trkpt>
      <trkpt lat="41.683047" lon="2.437896">
        <ele>147.80</ele>
        <time>2018-01-02T13:12:14Z</time>
      </trkpt>
      <trkpt lat="41.682994" lon="2.437933">
        <ele>147.80</ele>
        <time>2018-01-02T13:12:15Z</time>
      </trkpt>
      <trkpt lat="41.682878" lon="2.437995">
        <ele>148.80</ele>
        <time>2018-01-02T13:12:17Z</time>
      </trkpt>
      <trkpt lat="41.682747" lon="2.438021">
        <ele>150.00</ele>
        <time>2018-01-02T13:12:19Z</time>
      </trkpt>
      <trkpt lat="41.682687" lon="2.437988">
        <ele>150.80</ele>
        <time>2018-01-02T13:12:20Z</time>
      </trkpt>
      <trkpt lat="41.682643" lon="2.437935">
        <ele>151.40</ele>
        <time>2018-01-02T13:12:21Z</time>
      </trkpt>
      <trkpt lat="41.682580" lon="2.437771">
        <ele>152.60</ele>
        <time>2018-01-02T13:12:23Z</time>
      </trkpt>
      <trkpt lat="41.682525" lon="2.437621">
        <ele>154.00</ele>
        <time>2018-01-02T13:12:25Z</time>
      </trkpt>
      <trkpt lat="41.682488" lon="2.437503">
        <ele>154.60</ele>
        <time>2018-01-02T13:12:27Z</time>
      </trkpt>
      <trkpt lat="41.682431" lon="2.437433">
        <ele>154.40</ele>
        <time>2018-01-02T13:12:29Z</time>
      </trkpt>
      <trkpt lat="41.682399" lon="2.437445">
        <ele>154.20</ele>
        <time>2018-01-02T13:12:30Z</time>
      </trkpt>
      <trkpt lat="41.682315" lon="2.437665">
        <ele>153.60</ele>
        <time>2018-01-02T13:12:34Z</time>
      </trkpt>
      <trkpt lat="41.682182" lon="2.438098">
        <ele>153.80</ele>
        <time>2018-01-02T13:12:40Z</time>
      </trkpt>
      <trkpt lat="41.682159" lon="2.438166">
        <ele>153.60</ele>
        <time>2018-01-02T13:12:41Z</time>
      </trkpt>
      <trkpt lat="41.682032" lon="2.438416">
        <ele>153.80</ele>
        <time>2018-01-02T13:12:45Z</time>
      </trkpt>
      <trkpt lat="41.681958" lon="2.438517">
        <ele>153.80</ele>
        <time>2018-01-02T13:12:47Z</time>
      </trkpt>
      <trkpt lat="41.681837" lon="2.438651">
        <ele>153.20</ele>
        <time>2018-01-02T13:12:50Z</time>
      </trkpt>
      <trkpt lat="41.681793" lon="2.438692">
        <ele>152.80</ele>
        <time>2018-01-02T13:12:51Z</time>
      </trkpt>
      <trkpt lat="41.681575" lon="2.438820">
        <ele>152.80</ele>
        <time>2018-01-02T13:12:55Z</time>
      </trkpt>
      <trkpt lat="41.681525" lon="2.438872">
        <ele>152.80</ele>
        <time>2018-01-02T13:12:56Z</time>
      </trkpt>
      <trkpt lat="41.681333" lon="2.439171">
        <ele>153.40</ele>
        <time>2018-01-02T13:13:01Z</time>
      </trkpt>
      <trkpt lat="41.681300" lon="2.439233">
        <ele>153.40</ele>
        <time>2018-01-02T13:13:02Z</time>
      </trkpt>
      <trkpt lat="41.681272" lon="2.439293">
        <ele>153.00</ele>
        <time>2018-01-02T13:13:03Z</time>
      </trkpt>
      <trkpt lat="41.681226" lon="2.439415">
        <ele>152.80</ele>
        <time>2018-01-02T13:13:05Z</time>
      </trkpt>
      <trkpt lat="41.681194" lon="2.439554">
        <ele>152.60</ele>
        <time>2018-01-02T13:13:07Z</time>
      </trkpt>
      <trkpt lat="41.681196" lon="2.439705">
        <ele>152.60</ele>
        <time>2018-01-02T13:13:09Z</time>
      </trkpt>
      <trkpt lat="41.681201" lon="2.439781">
        <ele>152.80</ele>
        <time>2018-01-02T13:13:10Z</time>
      </trkpt>
      <trkpt lat="41.681233" lon="2.440001">
        <ele>153.40</ele>
        <time>2018-01-02T13:13:13Z</time>
      </trkpt>
      <trkpt lat="41.681240" lon="2.440068">
        <ele>153.20</ele>
        <time>2018-01-02T13:13:14Z</time>
      </trkpt>
      <trkpt lat="41.681238" lon="2.440133">
        <ele>153.20</ele>
        <time>2018-01-02T13:13:15Z</time>
      </trkpt>
      <trkpt lat="41.681233" lon="2.440201">
        <ele>153.00</ele>
        <time>2018-01-02T13:13:16Z</time>
      </trkpt>
      <trkpt lat="41.681189" lon="2.440401">
        <ele>152.40</ele>
        <time>2018-01-02T13:13:19Z</time>
      </trkpt>
      <trkpt lat="41.681146" lon="2.440527">
        <ele>151.80</ele>
        <time>2018-01-02T13:13:21Z</time>
      </trkpt>
      <trkpt lat="41.681101" lon="2.440659">
        <ele>151.20</ele>
        <time>2018-01-02T13:13:23Z</time>
      </trkpt>
      <trkpt lat="41.681075" lon="2.440725">
        <ele>150.80</ele>
        <time>2018-01-02T13:13:24Z</time>
      </trkpt>
      <trkpt lat="41.681028" lon="2.440858">
        <ele>149.80</ele>
        <time>2018-01-02T13:13:26Z</time>
      </trkpt>
      <trkpt lat="41.681002" lon="2.440925">
        <ele>149.20</ele>
        <time>2018-01-02T13:13:27Z</time>
      </trkpt>
      <trkpt lat="41.680971" lon="2.440995">
        <ele>148.60</ele>
        <time>2018-01-02T13:13:28Z</time>
      </trkpt>
      <trkpt lat="41.680848" lon="2.441211">
        <ele>147.20</ele>
        <time>2018-01-02T13:13:31Z</time>
      </trkpt>
      <trkpt lat="41.680791" lon="2.441279">
        <ele>147.40</ele>
        <time>2018-01-02T13:13:32Z</time>
      </trkpt>
      <trkpt lat="41.680723" lon="2.441339">
        <ele>148.00</ele>
        <time>2018-01-02T13:13:33Z</time>
      </trkpt>
      <trkpt lat="41.680646" lon="2.441376">
        <ele>148.60</ele>
        <time>2018-01-02T13:13:34Z</time>
      </trkpt>
      <trkpt lat="41.680574" lon="2.441397">
        <ele>149.40</ele>
        <time>2018-01-02T13:13:35Z</time>
      </trkpt>
      <trkpt lat="41.680437" lon="2.441432">
        <ele>150.20</ele>
        <time>2018-01-02T13:13:37Z</time>
      </trkpt>
      <trkpt lat="41.680188" lon="2.441534">
        <ele>151.20</ele>
        <time>2018-01-02T13:13:41Z</time>
      </trkpt>
      <trkpt lat="41.680075" lon="2.441583">
        <ele>151.00</ele>
        <time>2018-01-02T13:13:43Z</time>
      </trkpt>
      <trkpt lat="41.679920" lon="2.441671">
        <ele>151.00</ele>
        <time>2018-01-02T13:13:46Z</time>
      </trkpt>
      <trkpt lat="41.679872" lon="2.441710">
        <ele>151.00</ele>
        <time>2018-01-02T13:13:47Z</time>
      </trkpt>
      <trkpt lat="41.679606" lon="2.441972">
        <ele>150.40</ele>
        <time>2018-01-02T13:13:53Z</time>
      </trkpt>
      <trkpt lat="41.679396" lon="2.442217">
        <ele>150.20</ele>
        <time>2018-01-02T13:13:58Z</time>
      </trkpt>
      <trkpt lat="41.679198" lon="2.442324">
        <ele>150.00</ele>
        <time>2018-01-02T13:14:02Z</time>
      </trkpt>
      <trkpt lat="41.679100" lon="2.442356">
        <ele>149.80</ele>
        <time>2018-01-02T13:14:04Z</time>
      </trkpt>
      <trkpt lat="41.678945" lon="2.442387">
        <ele>149.60</ele>
        <time>2018-01-02T13:14:07Z</time>
      </trkpt>
      <trkpt lat="41.678843" lon="2.442415">
        <ele>149.20</ele>
        <time>2018-01-02T13:14:09Z</time>
      </trkpt>
      <trkpt lat="41.678794" lon="2.442437">
        <ele>149.20</ele>
        <time>2018-01-02T13:14:10Z</time>
      </trkpt>
      <trkpt lat="41.678611" lon="2.442570">
        <ele>148.60</ele>
        <time>2018-01-02T13:14:14Z</time>
      </trkpt>
      <trkpt lat="41.678524" lon="2.442651">
        <ele>148.40</ele>
        <time>2018-01-02T13:14:16Z</time>
      </trkpt>
      <trkpt lat="41.678435" lon="2.442736">
        <ele>148.20</ele>
        <time>2018-01-02T13:14:18Z</time>
      </trkpt>
      <trkpt lat="41.678291" lon="2.442848">
        <ele>148.00</ele>
        <time>2018-01-02T13:14:21Z</time>
      </trkpt>
      <trkpt lat="41.678243" lon="2.442883">
        <ele>147.80</ele>
        <time>2018-01-02T13:14:22Z</time>
      </trkpt>
      <trkpt lat="41.678192" lon="2.442912">
        <ele>147.60</ele>
        <time>2018-01-02T13:14:23Z</time>
      </trkpt>
      <trkpt lat="41.678001" lon="2.443026">
        <ele>147.20</ele>
        <time>2018-01-02T13:14:27Z</time>
      </trkpt>
      <trkpt lat="41.677959" lon="2.443063">
        <ele>147.20</ele>
        <time>2018-01-02T13:14:28Z</time>
      </trkpt>
      <trkpt lat="41.677887" lon="2.443160">
        <ele>147.00</ele>
        <time>2018-01-02T13:14:30Z</time>
      </trkpt>
      <trkpt lat="41.677789" lon="2.443398">
        <ele>146.60</ele>
        <time>2018-01-02T13:14:34Z</time>
      </trkpt>
      <trkpt lat="41.677723" lon="2.443579">
        <ele>146.40</ele>
        <time>2018-01-02T13:14:37Z</time>
      </trkpt>
      <trkpt lat="41.677697" lon="2.443633">
        <ele>146.20</ele>
        <time>2018-01-02T13:14:38Z</time>
      </trkpt>
      <trkpt lat="41.677639" lon="2.443727">
        <ele>145.60</ele>
        <time>2018-01-02T13:14:40Z</time>
      </trkpt>
      <trkpt lat="41.677604" lon="2.443774">
        <ele>145.60</ele>
        <time>2018-01-02T13:14:41Z</time>
      </trkpt>
      <trkpt lat="41.677425" lon="2.444037">
        <ele>145.20</ele>
        <time>2018-01-02T13:14:46Z</time>
      </trkpt>
      <trkpt lat="41.677393" lon="2.444099">
        <ele>145.20</ele>
        <time>2018-01-02T13:14:47Z</time>
      </trkpt>
      <trkpt lat="41.677287" lon="2.444442">
        <ele>145.20</ele>
        <time>2018-01-02T13:14:52Z</time>
      </trkpt>
      <trkpt lat="41.677253" lon="2.444649">
        <ele>145.20</ele>
        <time>2018-01-02T13:14:55Z</time>
      </trkpt>
      <trkpt lat="41.677224" lon="2.444853">
        <ele>145.40</ele>
        <time>2018-01-02T13:14:58Z</time>
      </trkpt>
      <trkpt lat="41.677200" lon="2.444973">
        <ele>145.40</ele>
        <time>2018-01-02T13:15:00Z</time>
      </trkpt>
      <trkpt lat="41.677172" lon="2.445088">
        <ele>145.00</ele>
        <time>2018-01-02T13:15:02Z</time>
      </trkpt>
      <trkpt lat="41.677118" lon="2.445258">
        <ele>144.60</ele>
        <time>2018-01-02T13:15:05Z</time>
      </trkpt>
      <trkpt lat="41.677058" lon="2.445428">
        <ele>144.00</ele>
        <time>2018-01-02T13:15:08Z</time>
      </trkpt>
      <trkpt lat="41.676970" lon="2.445654">
        <ele>143.40</ele>
        <time>2018-01-02T13:15:12Z</time>
      </trkpt>
      <trkpt lat="41.676917" lon="2.445754">
        <ele>143.00</ele>
        <time>2018-01-02T13:15:14Z</time>
      </trkpt>
      <trkpt lat="41.676741" lon="2.446060">
        <ele>142.20</ele>
        <time>2018-01-02T13:15:20Z</time>
      </trkpt>
      <trkpt lat="41.676686" lon="2.446175">
        <ele>142.00</ele>
        <time>2018-01-02T13:15:22Z</time>
      </trkpt>
      <trkpt lat="41.676533" lon="2.446527">
        <ele>141.20</ele>
        <time>2018-01-02T13:15:28Z</time>
      </trkpt>
      <trkpt lat="41.676360" lon="2.446800">
        <ele>141.00</ele>
        <time>2018-01-02T13:15:33Z</time>
      </trkpt>
      <trkpt lat="41.676318" lon="2.446841">
        <ele>140.80</ele>
        <time>2018-01-02T13:15:34Z</time>
      </trkpt>
      <trkpt lat="41.676097" lon="2.447119">
        <ele>140.40</ele>
        <time>2018-01-02T13:15:40Z</time>
      </trkpt>
      <trkpt lat="41.675902" lon="2.447550">
        <ele>140.00</ele>
        <time>2018-01-02T13:15:47Z</time>
      </trkpt>
      <trkpt lat="41.675831" lon="2.447734">
        <ele>140.00</ele>
        <time>2018-01-02T13:15:50Z</time>
      </trkpt>
      <trkpt lat="41.675779" lon="2.447915">
        <ele>139.80</ele>
        <time>2018-01-02T13:15:53Z</time>
      </trkpt>
      <trkpt lat="41.675653" lon="2.448402">
        <ele>139.00</ele>
        <time>2018-01-02T13:16:01Z</time>
      </trkpt>
      <trkpt lat="41.675563" lon="2.448716">
        <ele>138.60</ele>
        <time>2018-01-02T13:16:06Z</time>
      </trkpt>
      <trkpt lat="41.675457" lon="2.449000">
        <ele>138.20</ele>
        <time>2018-01-02T13:16:11Z</time>
      </trkpt>
      <trkpt lat="41.675414" lon="2.449111">
        <ele>138.20</ele>
        <time>2018-01-02T13:16:13Z</time>
      </trkpt>
      <trkpt lat="41.675314" lon="2.449386">
        <ele>137.60</ele>
        <time>2018-01-02T13:16:18Z</time>
      </trkpt>
      <trkpt lat="41.675269" lon="2.449500">
        <ele>137.20</ele>
        <time>2018-01-02T13:16:20Z</time>
      </trkpt>
      <trkpt lat="41.675238" lon="2.449631">
        <ele>137.20</ele>
        <time>2018-01-02T13:16:22Z</time>
      </trkpt>
      <trkpt lat="41.675174" lon="2.449803">
        <ele>136.80</ele>
        <time>2018-01-02T13:16:25Z</time>
      </trkpt>
      <trkpt lat="41.675041" lon="2.450152">
        <ele>136.40</ele>
        <time>2018-01-02T13:16:31Z</time>
      </trkpt>
      <trkpt lat="41.674976" lon="2.450308">
        <ele>136.00</ele>
        <time>2018-01-02T13:16:34Z</time>
      </trkpt>
      <trkpt lat="41.674780" lon="2.450718">
        <ele>135.60</ele>
        <time>2018-01-02T13:16:42Z</time>
      </trkpt>
      <trkpt lat="41.674593" lon="2.451128">
        <ele>135.20</ele>
        <time>2018-01-02T13:16:50Z</time>
      </trkpt>
      <trkpt lat="41.674552" lon="2.451232">
        <ele>135.40</ele>
        <time>2018-01-02T13:16:52Z</time>
      </trkpt>
      <trkpt lat="41.674513" lon="2.451332">
        <ele>135.00</ele>
        <time>2018-01-02T13:16:54Z</time>
      </trkpt>
      <trkpt lat="41.674486" lon="2.451442">
        <ele>134.80</ele>
        <time>2018-01-02T13:16:56Z</time>
      </trkpt>
      <trkpt lat="41.674385" lon="2.451731">
        <ele>134.20</ele>
        <time>2018-01-02T13:17:02Z</time>
      </trkpt>
      <trkpt lat="41.674341" lon="2.451821">
        <ele>134.00</ele>
        <time>2018-01-02T13:17:04Z</time>
      </trkpt>
      <trkpt lat="41.674215" lon="2.452133">
        <ele>133.20</ele>
        <time>2018-01-02T13:17:11Z</time>
      </trkpt>
      <trkpt lat="41.674107" lon="2.452518">
        <ele>132.20</ele>
        <time>2018-01-02T13:17:19Z</time>
      </trkpt>
      <trkpt lat="41.674075" lon="2.452608">
        <ele>131.80</ele>
        <time>2018-01-02T13:17:21Z</time>
      </trkpt>
      <trkpt lat="41.674036" lon="2.452689">
        <ele>131.60</ele>
        <time>2018-01-02T13:17:23Z</time>
      </trkpt>
      <trkpt lat="41.673976" lon="2.452809">
        <ele>131.40</ele>
        <time>2018-01-02T13:17:26Z</time>
      </trkpt>
      <trkpt lat="41.673937" lon="2.452881">
        <ele>131.40</ele>
        <time>2018-01-02T13:17:28Z</time>
      </trkpt>
      <trkpt lat="41.673900" lon="2.452955">
        <ele>131.40</ele>
        <time>2018-01-02T13:17:30Z</time>
      </trkpt>
      <trkpt lat="41.673823" lon="2.453094">
        <ele>131.00</ele>
        <time>2018-01-02T13:17:34Z</time>
      </trkpt>
      <trkpt lat="41.673804" lon="2.453129">
        <ele>131.20</ele>
        <time>2018-01-02T13:17:35Z</time>
      </trkpt>
      <trkpt lat="41.673687" lon="2.453308">
        <ele>131.00</ele>
        <time>2018-01-02T13:17:41Z</time>
      </trkpt>
      <trkpt lat="41.673612" lon="2.453451">
        <ele>130.20</ele>
        <time>2018-01-02T13:17:46Z</time>
      </trkpt>
      <trkpt lat="41.673599" lon="2.453485">
        <ele>130.00</ele>
        <time>2018-01-02T13:17:47Z</time>
      </trkpt>
      <trkpt lat="41.673568" lon="2.453661">
        <ele>129.00</ele>
        <time>2018-01-02T13:17:52Z</time>
      </trkpt>
      <trkpt lat="41.673556" lon="2.453693">
        <ele>128.80</ele>
        <time>2018-01-02T13:17:53Z</time>
      </trkpt>
      <trkpt lat="41.673456" lon="2.453877">
        <ele>127.80</ele>
        <time>2018-01-02T13:17:59Z</time>
      </trkpt>
      <trkpt lat="41.673355" lon="2.454036">
        <ele>126.80</ele>
        <time>2018-01-02T13:18:04Z</time>
      </trkpt>
      <trkpt lat="41.673297" lon="2.454124">
        <ele>126.00</ele>
        <time>2018-01-02T13:18:07Z</time>
      </trkpt>
      <trkpt lat="41.673279" lon="2.454155">
        <ele>125.60</ele>
        <time>2018-01-02T13:18:08Z</time>
      </trkpt>
      <trkpt lat="41.673166" lon="2.454289">
        <ele>125.00</ele>
        <time>2018-01-02T13:18:13Z</time>
      </trkpt>
      <trkpt lat="41.673144" lon="2.454312">
        <ele>124.60</ele>
        <time>2018-01-02T13:18:14Z</time>
      </trkpt>
      <trkpt lat="41.673108" lon="2.454378">
        <ele>123.40</ele>
        <time>2018-01-02T13:18:17Z</time>
      </trkpt>
      <trkpt lat="41.673078" lon="2.454456">
        <ele>122.20</ele>
        <time>2018-01-02T13:18:20Z</time>
      </trkpt>
      <trkpt lat="41.673052" lon="2.454533">
        <ele>121.00</ele>
        <time>2018-01-02T13:18:23Z</time>
      </trkpt>
      <trkpt lat="41.673021" lon="2.454645">
        <ele>119.40</ele>
        <time>2018-01-02T13:18:27Z</time>
      </trkpt>
      <trkpt lat="41.672994" lon="2.454728">
        <ele>118.60</ele>
        <time>2018-01-02T13:18:30Z</time>
      </trkpt>
      <trkpt lat="41.672986" lon="2.454757">
        <ele>118.40</ele>
        <time>2018-01-02T13:18:31Z</time>
      </trkpt>
      <trkpt lat="41.672947" lon="2.454871">
        <ele>117.40</ele>
        <time>2018-01-02T13:18:35Z</time>
      </trkpt>
      <trkpt lat="41.672906" lon="2.454963">
        <ele>116.00</ele>
        <time>2018-01-02T13:18:39Z</time>
      </trkpt>
      <trkpt lat="41.672876" lon="2.455026">
        <ele>114.80</ele>
        <time>2018-01-02T13:18:42Z</time>
      </trkpt>
      <trkpt lat="41.672839" lon="2.455090">
        <ele>113.80</ele>
        <time>2018-01-02T13:18:45Z</time>
      </trkpt>
      <trkpt lat="41.672798" lon="2.455160">
        <ele>112.60</ele>
        <time>2018-01-02T13:18:48Z</time>
      </trkpt>
      <trkpt lat="41.672769" lon="2.455232">
        <ele>111.60</ele>
        <time>2018-01-02T13:18:51Z</time>
      </trkpt>
      <trkpt lat="41.672747" lon="2.455346">
        <ele>110.40</ele>
        <time>2018-01-02T13:18:55Z</time>
      </trkpt>
      <trkpt lat="41.672745" lon="2.455376">
        <ele>110.20</ele>
        <time>2018-01-02T13:18:56Z</time>
      </trkpt>
      <trkpt lat="41.672731" lon="2.455467">
        <ele>109.40</ele>
        <time>2018-01-02T13:18:59Z</time>
      </trkpt>
      <trkpt lat="41.672719" lon="2.455555">
        <ele>108.40</ele>
        <time>2018-01-02T13:19:02Z</time>
      </trkpt>
      <trkpt lat="41.672717" lon="2.455586">
        <ele>108.20</ele>
        <time>2018-01-02T13:19:03Z</time>
      </trkpt>
      <trkpt lat="41.672701" lon="2.455675">
        <ele>107.20</ele>
        <time>2018-01-02T13:19:06Z</time>
      </trkpt>
      <trkpt lat="41.672673" lon="2.455822">
        <ele>106.00</ele>
        <time>2018-01-02T13:19:11Z</time>
      </trkpt>
      <trkpt lat="41.672654" lon="2.455938">
        <ele>104.60</ele>
        <time>2018-01-02T13:19:15Z</time>
      </trkpt>
      <trkpt lat="41.672629" lon="2.456056">
        <ele>103.40</ele>
        <time>2018-01-02T13:19:19Z</time>
      </trkpt>
      <trkpt lat="41.672623" lon="2.456086">
        <ele>103.20</ele>
        <time>2018-01-02T13:19:20Z</time>
      </trkpt>
      <trkpt lat="41.672606" lon="2.456173">
        <ele>102.20</ele>
        <time>2018-01-02T13:19:23Z</time>
      </trkpt>
      <trkpt lat="41.672573" lon="2.456323">
        <ele>101.20</ele>
        <time>2018-01-02T13:19:28Z</time>
      </trkpt>
      <trkpt lat="41.672555" lon="2.456407">
        <ele>100.00</ele>
        <time>2018-01-02T13:19:31Z</time>
      </trkpt>
      <trkpt lat="41.672533" lon="2.456520">
        <ele>98.80</ele>
        <time>2018-01-02T13:19:35Z</time>
      </trkpt>
      <trkpt lat="41.672526" lon="2.456546">
        <ele>98.00</ele>
        <time>2018-01-02T13:19:36Z</time>
      </trkpt>
      <trkpt lat="41.672445" lon="2.456673">
        <ele>97.20</ele>
        <time>2018-01-02T13:19:41Z</time>
      </trkpt>
      <trkpt lat="41.672334" lon="2.456714">
        <ele>96.60</ele>
        <time>2018-01-02T13:19:45Z</time>
      </trkpt>
      <trkpt lat="41.672281" lon="2.456704">
        <ele>96.20</ele>
        <time>2018-01-02T13:19:47Z</time>
      </trkpt>
      <trkpt lat="41.672202" lon="2.456725">
        <ele>95.40</ele>
        <time>2018-01-02T13:19:50Z</time>
      </trkpt>
      <trkpt lat="41.672148" lon="2.456744">
        <ele>95.00</ele>
        <time>2018-01-02T13:19:52Z</time>
      </trkpt>
      <trkpt lat="41.672043" lon="2.456777">
        <ele>94.60</ele>
        <time>2018-01-02T13:19:55Z</time>
      </trkpt>
      <trkpt lat="41.671968" lon="2.456762">
        <ele>94.40</ele>
        <time>2018-01-02T13:19:57Z</time>
      </trkpt>
      <trkpt lat="41.671946" lon="2.456728">
        <ele>94.40</ele>
        <time>2018-01-02T13:19:58Z</time>
      </trkpt>
      <trkpt lat="41.671938" lon="2.456645">
        <ele>94.00</ele>
        <time>2018-01-02T13:20:00Z</time>
      </trkpt>
      <trkpt lat="41.671934" lon="2.456429">
        <ele>93.20</ele>
        <time>2018-01-02T13:20:04Z</time>
      </trkpt>
      <trkpt lat="41.671934" lon="2.456370">
        <ele>93.00</ele>
        <time>2018-01-02T13:20:05Z</time>
      </trkpt>
      <trkpt lat="41.671922" lon="2.456009">
        <ele>91.80</ele>
        <time>2018-01-02T13:20:11Z</time>
      </trkpt>
      <trkpt lat="41.671919" lon="2.455883">
        <ele>91.60</ele>
        <time>2018-01-02T13:20:13Z</time>
      </trkpt>
      <trkpt lat="41.671901" lon="2.455503">
        <ele>90.80</ele>
        <time>2018-01-02T13:20:19Z</time>
      </trkpt>
      <trkpt lat="41.671903" lon="2.455374">
        <ele>90.60</ele>
        <time>2018-01-02T13:20:21Z</time>
      </trkpt>
      <trkpt lat="41.671953" lon="2.455060">
        <ele>89.80</ele>
        <time>2018-01-02T13:20:26Z</time>
      </trkpt>
      <trkpt lat="41.672012" lon="2.454811">
        <ele>89.20</ele>
        <time>2018-01-02T13:20:30Z</time>
      </trkpt>
      <trkpt lat="41.672041" lon="2.454677">
        <ele>89.00</ele>
        <time>2018-01-02T13:20:32Z</time>
      </trkpt>
      <trkpt lat="41.672059" lon="2.454469">
        <ele>88.80</ele>
        <time>2018-01-02T13:20:35Z</time>
      </trkpt>
      <trkpt lat="41.672060" lon="2.454402">
        <ele>88.60</ele>
        <time>2018-01-02T13:20:36Z</time>
      </trkpt>
      <trkpt lat="41.672052" lon="2.453918">
        <ele>88.60</ele>
        <time>2018-01-02T13:20:43Z</time>
      </trkpt>
      <trkpt lat="41.671984" lon="2.453560">
        <ele>87.60</ele>
        <time>2018-01-02T13:20:49Z</time>
      </trkpt>
      <trkpt lat="41.671972" lon="2.453504">
        <ele>87.60</ele>
        <time>2018-01-02T13:20:50Z</time>
      </trkpt>
      <trkpt lat="41.671956" lon="2.453332">
        <ele>86.60</ele>
        <time>2018-01-02T13:20:53Z</time>
      </trkpt>
      <trkpt lat="41.671953" lon="2.453219">
        <ele>86.00</ele>
        <time>2018-01-02T13:20:55Z</time>
      </trkpt>
      <trkpt lat="41.671950" lon="2.453106">
        <ele>85.40</ele>
        <time>2018-01-02T13:20:57Z</time>
      </trkpt>
      <trkpt lat="41.671947" lon="2.452868">
        <ele>84.20</ele>
        <time>2018-01-02T13:21:01Z</time>
      </trkpt>
      <trkpt lat="41.671946" lon="2.452680">
        <ele>83.40</ele>
        <time>2018-01-02T13:21:04Z</time>
      </trkpt>
      <trkpt lat="41.671945" lon="2.452614">
        <ele>83.00</ele>
        <time>2018-01-02T13:21:05Z</time>
      </trkpt>
      <trkpt lat="41.671940" lon="2.452404">
        <ele>82.60</ele>
        <time>2018-01-02T13:21:08Z</time>
      </trkpt>
      <trkpt lat="41.671928" lon="2.452049">
        <ele>82.00</ele>
        <time>2018-01-02T13:21:13Z</time>
      </trkpt>
      <trkpt lat="41.671923" lon="2.451843">
        <ele>81.00</ele>
        <time>2018-01-02T13:21:16Z</time>
      </trkpt>
      <trkpt lat="41.671924" lon="2.451624">
        <ele>80.60</ele>
        <time>2018-01-02T13:21:19Z</time>
      </trkpt>
      <trkpt lat="41.671924" lon="2.451548">
        <ele>80.40</ele>
        <time>2018-01-02T13:21:20Z</time>
      </trkpt>
      <trkpt lat="41.671927" lon="2.451322">
        <ele>80.20</ele>
        <time>2018-01-02T13:21:23Z</time>
      </trkpt>
      <trkpt lat="41.671941" lon="2.451176">
        <ele>80.00</ele>
        <time>2018-01-02T13:21:25Z</time>
      </trkpt>
      <trkpt lat="41.671953" lon="2.451030">
        <ele>79.60</ele>
        <time>2018-01-02T13:21:27Z</time>
      </trkpt>
      <trkpt lat="41.671955" lon="2.450885">
        <ele>79.20</ele>
        <time>2018-01-02T13:21:29Z</time>
      </trkpt>
      <trkpt lat="41.671973" lon="2.450733">
        <ele>78.80</ele>
        <time>2018-01-02T13:21:31Z</time>
      </trkpt>
      <trkpt lat="41.671981" lon="2.450654">
        <ele>78.40</ele>
        <time>2018-01-02T13:21:32Z</time>
      </trkpt>
      <trkpt lat="41.672001" lon="2.450388">
        <ele>77.00</ele>
        <time>2018-01-02T13:21:35Z</time>
      </trkpt>
      <trkpt lat="41.672008" lon="2.450286">
        <ele>77.20</ele>
        <time>2018-01-02T13:21:36Z</time>
      </trkpt>
      <trkpt lat="41.672008" lon="2.450177">
        <ele>78.60</ele>
        <time>2018-01-02T13:21:37Z</time>
      </trkpt>
      <trkpt lat="41.671979" lon="2.449944">
        <ele>80.00</ele>
        <time>2018-01-02T13:21:39Z</time>
      </trkpt>
      <trkpt lat="41.671957" lon="2.449830">
        <ele>80.20</ele>
        <time>2018-01-02T13:21:40Z</time>
      </trkpt>
      <trkpt lat="41.671908" lon="2.449592">
        <ele>82.00</ele>
        <time>2018-01-02T13:21:42Z</time>
      </trkpt>
      <trkpt lat="41.671880" lon="2.449465">
        <ele>83.20</ele>
        <time>2018-01-02T13:21:43Z</time>
      </trkpt>
      <trkpt lat="41.671853" lon="2.449334">
        <ele>83.60</ele>
        <time>2018-01-02T13:21:44Z</time>
      </trkpt>
      <trkpt lat="41.671826" lon="2.449199">
        <ele>84.80</ele>
        <time>2018-01-02T13:21:45Z</time>
      </trkpt>
      <trkpt lat="41.671800" lon="2.449064">
        <ele>85.60</ele>
        <time>2018-01-02T13:21:46Z</time>
      </trkpt>
      <trkpt lat="41.671750" lon="2.448806">
        <ele>88.00</ele>
        <time>2018-01-02T13:21:48Z</time>
      </trkpt>
      <trkpt lat="41.671705" lon="2.448568">
        <ele>89.20</ele>
        <time>2018-01-02T13:21:50Z</time>
      </trkpt>
      <trkpt lat="41.671659" lon="2.448347">
        <ele>90.80</ele>
        <time>2018-01-02T13:21:52Z</time>
      </trkpt>
      <trkpt lat="41.671613" lon="2.448140">
        <ele>92.00</ele>
        <time>2018-01-02T13:21:54Z</time>
      </trkpt>
      <trkpt lat="41.671569" lon="2.447948">
        <ele>92.80</ele>
        <time>2018-01-02T13:21:56Z</time>
      </trkpt>
      <trkpt lat="41.671549" lon="2.447859">
        <ele>93.20</ele>
        <time>2018-01-02T13:21:57Z</time>
      </trkpt>
      <trkpt lat="41.671450" lon="2.447481">
        <ele>94.80</ele>
        <time>2018-01-02T13:22:02Z</time>
      </trkpt>
      <trkpt lat="41.671365" lon="2.447150">
        <ele>94.40</ele>
        <time>2018-01-02T13:22:07Z</time>
      </trkpt>
      <trkpt lat="41.671340" lon="2.447015">
        <ele>93.80</ele>
        <time>2018-01-02T13:22:09Z</time>
      </trkpt>
      <trkpt lat="41.671288" lon="2.446811">
        <ele>93.40</ele>
        <time>2018-01-02T13:22:12Z</time>
      </trkpt>
      <trkpt lat="41.671227" lon="2.446517">
        <ele>92.20</ele>
        <time>2018-01-02T13:22:16Z</time>
      </trkpt>
      <trkpt lat="41.671213" lon="2.446439">
        <ele>92.00</ele>
        <time>2018-01-02T13:22:17Z</time>
      </trkpt>
      <trkpt lat="41.671194" lon="2.446361">
        <ele>92.00</ele>
        <time>2018-01-02T13:22:18Z</time>
      </trkpt>
      <trkpt lat="41.671113" lon="2.446132">
        <ele>91.00</ele>
        <time>2018-01-02T13:22:21Z</time>
      </trkpt>
      <trkpt lat="41.671052" lon="2.445974">
        <ele>91.00</ele>
        <time>2018-01-02T13:22:23Z</time>
      </trkpt>
      <trkpt lat="41.671019" lon="2.445894">
        <ele>90.60</ele>
        <time>2018-01-02T13:22:24Z</time>
      </trkpt>
      <trkpt lat="41.670987" lon="2.445814">
        <ele>90.40</ele>
        <time>2018-01-02T13:22:25Z</time>
      </trkpt>
      <trkpt lat="41.670934" lon="2.445638">
        <ele>90.20</ele>
        <time>2018-01-02T13:22:27Z</time>
      </trkpt>
      <trkpt lat="41.670913" lon="2.445545">
        <ele>90.00</ele>
        <time>2018-01-02T13:22:28Z</time>
      </trkpt>
      <trkpt lat="41.670898" lon="2.445345">
        <ele>89.80</ele>
        <time>2018-01-02T13:22:30Z</time>
      </trkpt>
      <trkpt lat="41.670918" lon="2.445030">
        <ele>89.80</ele>
        <time>2018-01-02T13:22:33Z</time>
      </trkpt>
      <trkpt lat="41.670942" lon="2.444830">
        <ele>90.20</ele>
        <time>2018-01-02T13:22:35Z</time>
      </trkpt>
      <trkpt lat="41.670982" lon="2.444645">
        <ele>90.60</ele>
        <time>2018-01-02T13:22:37Z</time>
      </trkpt>
      <trkpt lat="41.671012" lon="2.444562">
        <ele>90.80</ele>
        <time>2018-01-02T13:22:38Z</time>
      </trkpt>
      <trkpt lat="41.671118" lon="2.444305">
        <ele>90.80</ele>
        <time>2018-01-02T13:22:41Z</time>
      </trkpt>
      <trkpt lat="41.671150" lon="2.444109">
        <ele>90.60</ele>
        <time>2018-01-02T13:22:43Z</time>
      </trkpt>
      <trkpt lat="41.671136" lon="2.444017">
        <ele>90.80</ele>
        <time>2018-01-02T13:22:44Z</time>
      </trkpt>
      <trkpt lat="41.671110" lon="2.443918">
        <ele>91.20</ele>
        <time>2018-01-02T13:22:45Z</time>
      </trkpt>
      <trkpt lat="41.671059" lon="2.443708">
        <ele>92.00</ele>
        <time>2018-01-02T13:22:47Z</time>
      </trkpt>
      <trkpt lat="41.671003" lon="2.443508">
        <ele>93.80</ele>
        <time>2018-01-02T13:22:49Z</time>
      </trkpt>
      <trkpt lat="41.670920" lon="2.443348">
        <ele>95.80</ele>
        <time>2018-01-02T13:22:51Z</time>
      </trkpt>
      <trkpt lat="41.670795" lon="2.443294">
        <ele>97.80</ele>
        <time>2018-01-02T13:22:53Z</time>
      </trkpt>
      <trkpt lat="41.670735" lon="2.443310">
        <ele>98.80</ele>
        <time>2018-01-02T13:22:54Z</time>
      </trkpt>
      <trkpt lat="41.670681" lon="2.443350">
        <ele>99.80</ele>
        <time>2018-01-02T13:22:55Z</time>
      </trkpt>
      <trkpt lat="41.670644" lon="2.443419">
        <ele>101.00</ele>
        <time>2018-01-02T13:22:56Z</time>
      </trkpt>
      <trkpt lat="41.670623" lon="2.443504">
        <ele>102.20</ele>
        <time>2018-01-02T13:22:57Z</time>
      </trkpt>
      <trkpt lat="41.670604" lon="2.443592">
        <ele>103.00</ele>
        <time>2018-01-02T13:22:58Z</time>
      </trkpt>
      <trkpt lat="41.670542" lon="2.443758">
        <ele>104.80</ele>
        <time>2018-01-02T13:23:00Z</time>
      </trkpt>
      <trkpt lat="41.670494" lon="2.443828">
        <ele>105.80</ele>
        <time>2018-01-02T13:23:01Z</time>
      </trkpt>
      <trkpt lat="41.670437" lon="2.443889">
        <ele>106.80</ele>
        <time>2018-01-02T13:23:02Z</time>
      </trkpt>
      <trkpt lat="41.670317" lon="2.443979">
        <ele>108.40</ele>
        <time>2018-01-02T13:23:04Z</time>
      </trkpt>
      <trkpt lat="41.670262" lon="2.443992">
        <ele>108.80</ele>
        <time>2018-01-02T13:23:05Z</time>
      </trkpt>
      <trkpt lat="41.670169" lon="2.443959">
        <ele>109.60</ele>
        <time>2018-01-02T13:23:07Z</time>
      </trkpt>
      <trkpt lat="41.670125" lon="2.443931">
        <ele>110.40</ele>
        <time>2018-01-02T13:23:09Z</time>
      </trkpt>
      <trkpt lat="41.670090" lon="2.443888">
        <ele>111.40</ele>
        <time>2018-01-02T13:23:10Z</time>
      </trkpt>
      <trkpt lat="41.670062" lon="2.443759">
        <ele>112.80</ele>
        <time>2018-01-02T13:23:12Z</time>
      </trkpt>
      <trkpt lat="41.670049" lon="2.443686">
        <ele>114.60</ele>
        <time>2018-01-02T13:23:13Z</time>
      </trkpt>
      <trkpt lat="41.670015" lon="2.443626">
        <ele>115.60</ele>
        <time>2018-01-02T13:23:14Z</time>
      </trkpt>
      <trkpt lat="41.669968" lon="2.443570">
        <ele>116.60</ele>
        <time>2018-01-02T13:23:15Z</time>
      </trkpt>
      <trkpt lat="41.669907" lon="2.443516">
        <ele>117.40</ele>
        <time>2018-01-02T13:23:16Z</time>
      </trkpt>
      <trkpt lat="41.669801" lon="2.443384">
        <ele>119.40</ele>
        <time>2018-01-02T13:23:18Z</time>
      </trkpt>
      <trkpt lat="41.669734" lon="2.443204">
        <ele>121.40</ele>
        <time>2018-01-02T13:23:20Z</time>
      </trkpt>
      <trkpt lat="41.669706" lon="2.443089">
        <ele>122.60</ele>
        <time>2018-01-02T13:23:21Z</time>
      </trkpt>
      <trkpt lat="41.669680" lon="2.442963">
        <ele>123.60</ele>
        <time>2018-01-02T13:23:22Z</time>
      </trkpt>
      <trkpt lat="41.669656" lon="2.442704">
        <ele>125.60</ele>
        <time>2018-01-02T13:23:24Z</time>
      </trkpt>
      <trkpt lat="41.669690" lon="2.442463">
        <ele>126.60</ele>
        <time>2018-01-02T13:23:26Z</time>
      </trkpt>
      <trkpt lat="41.669721" lon="2.442352">
        <ele>127.40</ele>
        <time>2018-01-02T13:23:27Z</time>
      </trkpt>
      <trkpt lat="41.669735" lon="2.442246">
        <ele>128.20</ele>
        <time>2018-01-02T13:23:28Z</time>
      </trkpt>
      <trkpt lat="41.669728" lon="2.442147">
        <ele>129.00</ele>
        <time>2018-01-02T13:23:29Z</time>
      </trkpt>
      <trkpt lat="41.669709" lon="2.442056">
        <ele>129.80</ele>
        <time>2018-01-02T13:23:30Z</time>
      </trkpt>
      <trkpt lat="41.669600" lon="2.441705">
        <ele>131.20</ele>
        <time>2018-01-02T13:23:35Z</time>
      </trkpt>
      <trkpt lat="41.669558" lon="2.441538">
        <ele>131.20</ele>
        <time>2018-01-02T13:23:38Z</time>
      </trkpt>
      <trkpt lat="41.669553" lon="2.441428">
        <ele>131.00</ele>
        <time>2018-01-02T13:23:40Z</time>
      </trkpt>
      <trkpt lat="41.669555" lon="2.441376">
        <ele>130.60</ele>
        <time>2018-01-02T13:23:41Z</time>
      </trkpt>
      <trkpt lat="41.669604" lon="2.441241">
        <ele>129.80</ele>
        <time>2018-01-02T13:23:44Z</time>
      </trkpt>
      <trkpt lat="41.669695" lon="2.441169">
        <ele>128.40</ele>
        <time>2018-01-02T13:23:47Z</time>
      </trkpt>
      <trkpt lat="41.669726" lon="2.441163">
        <ele>128.00</ele>
        <time>2018-01-02T13:23:48Z</time>
      </trkpt>
      <trkpt lat="41.669794" lon="2.441163">
        <ele>127.20</ele>
        <time>2018-01-02T13:23:50Z</time>
      </trkpt>
      <trkpt lat="41.669827" lon="2.441171">
        <ele>126.80</ele>
        <time>2018-01-02T13:23:51Z</time>
      </trkpt>
      <trkpt lat="41.669922" lon="2.441211">
        <ele>126.00</ele>
        <time>2018-01-02T13:23:54Z</time>
      </trkpt>
      <trkpt lat="41.669953" lon="2.441233">
        <ele>125.60</ele>
        <time>2018-01-02T13:23:55Z</time>
      </trkpt>
      <trkpt lat="41.670015" lon="2.441275">
        <ele>124.80</ele>
        <time>2018-01-02T13:23:57Z</time>
      </trkpt>
      <trkpt lat="41.670119" lon="2.441349">
        <ele>123.60</ele>
        <time>2018-01-02T13:24:00Z</time>
      </trkpt>
      <trkpt lat="41.670158" lon="2.441380">
        <ele>122.80</ele>
        <time>2018-01-02T13:24:01Z</time>
      </trkpt>
      <trkpt lat="41.670202" lon="2.441414">
        <ele>122.20</ele>
        <time>2018-01-02T13:24:02Z</time>
      </trkpt>
      <trkpt lat="41.670247" lon="2.441449">
        <ele>122.00</ele>
        <time>2018-01-02T13:24:03Z</time>
      </trkpt>
      <trkpt lat="41.670353" lon="2.441524">
        <ele>121.60</ele>
        <time>2018-01-02T13:24:05Z</time>
      </trkpt>
      <trkpt lat="41.670469" lon="2.441598">
        <ele>121.20</ele>
        <time>2018-01-02T13:24:07Z</time>
      </trkpt>
      <trkpt lat="41.670530" lon="2.441626">
        <ele>121.20</ele>
        <time>2018-01-02T13:24:08Z</time>
      </trkpt>
      <trkpt lat="41.670657" lon="2.441633">
        <ele>121.80</ele>
        <time>2018-01-02T13:24:10Z</time>
      </trkpt>
      <trkpt lat="41.670711" lon="2.441594">
        <ele>122.00</ele>
        <time>2018-01-02T13:24:11Z</time>
      </trkpt>
      <trkpt lat="41.670856" lon="2.441327">
        <ele>122.80</ele>
        <time>2018-01-02T13:24:15Z</time>
      </trkpt>
      <trkpt lat="41.670890" lon="2.441254">
        <ele>122.60</ele>
        <time>2018-01-02T13:24:16Z</time>
      </trkpt>
      <trkpt lat="41.670927" lon="2.441181">
        <ele>122.40</ele>
        <time>2018-01-02T13:24:17Z</time>
      </trkpt>
      <trkpt lat="41.671013" lon="2.440945">
        <ele>122.20</ele>
        <time>2018-01-02T13:24:20Z</time>
      </trkpt>
      <trkpt lat="41.671023" lon="2.440862">
        <ele>122.40</ele>
        <time>2018-01-02T13:24:21Z</time>
      </trkpt>
      <trkpt lat="41.670984" lon="2.440700">
        <ele>123.60</ele>
        <time>2018-01-02T13:24:23Z</time>
      </trkpt>
      <trkpt lat="41.670945" lon="2.440608">
        <ele>124.60</ele>
        <time>2018-01-02T13:24:24Z</time>
      </trkpt>
      <trkpt lat="41.670891" lon="2.440530">
        <ele>127.40</ele>
        <time>2018-01-02T13:24:25Z</time>
      </trkpt>
      <trkpt lat="41.670824" lon="2.440457">
        <ele>129.20</ele>
        <time>2018-01-02T13:24:26Z</time>
      </trkpt>
      <trkpt lat="41.670750" lon="2.440382">
        <ele>130.40</ele>
        <time>2018-01-02T13:24:27Z</time>
      </trkpt>
      <trkpt lat="41.670670" lon="2.440300">
        <ele>131.80</ele>
        <time>2018-01-02T13:24:28Z</time>
      </trkpt>
      <trkpt lat="41.670588" lon="2.440221">
        <ele>133.40</ele>
        <time>2018-01-02T13:24:29Z</time>
      </trkpt>
      <trkpt lat="41.670505" lon="2.440143">
        <ele>135.20</ele>
        <time>2018-01-02T13:24:30Z</time>
      </trkpt>
      <trkpt lat="41.670423" lon="2.440066">
        <ele>136.80</ele>
        <time>2018-01-02T13:24:31Z</time>
      </trkpt>
      <trkpt lat="41.670344" lon="2.439983">
        <ele>138.40</ele>
        <time>2018-01-02T13:24:32Z</time>
      </trkpt>
      <trkpt lat="41.670264" lon="2.439898">
        <ele>140.00</ele>
        <time>2018-01-02T13:24:33Z</time>
      </trkpt>
      <trkpt lat="41.670188" lon="2.439813">
        <ele>141.80</ele>
        <time>2018-01-02T13:24:34Z</time>
      </trkpt>
      <trkpt lat="41.670124" lon="2.439733">
        <ele>143.00</ele>
        <time>2018-01-02T13:24:35Z</time>
      </trkpt>
      <trkpt lat="41.670077" lon="2.439653">
        <ele>143.80</ele>
        <time>2018-01-02T13:24:36Z</time>
      </trkpt>
      <trkpt lat="41.670046" lon="2.439569">
        <ele>144.60</ele>
        <time>2018-01-02T13:24:37Z</time>
      </trkpt>
      <trkpt lat="41.670036" lon="2.439397">
        <ele>146.20</ele>
        <time>2018-01-02T13:24:39Z</time>
      </trkpt>
      <trkpt lat="41.670071" lon="2.439210">
        <ele>147.00</ele>
        <time>2018-01-02T13:24:41Z</time>
      </trkpt>
      <trkpt lat="41.670095" lon="2.439111">
        <ele>147.40</ele>
        <time>2018-01-02T13:24:42Z</time>
      </trkpt>
      <trkpt lat="41.670101" lon="2.438811">
        <ele>148.60</ele>
        <time>2018-01-02T13:24:45Z</time>
      </trkpt>
      <trkpt lat="41.670088" lon="2.438711">
        <ele>149.20</ele>
        <time>2018-01-02T13:24:46Z</time>
      </trkpt>
      <trkpt lat="41.670047" lon="2.438524">
        <ele>150.00</ele>
        <time>2018-01-02T13:24:48Z</time>
      </trkpt>
      <trkpt lat="41.669985" lon="2.438365">
        <ele>151.40</ele>
        <time>2018-01-02T13:24:50Z</time>
      </trkpt>
      <trkpt lat="41.669945" lon="2.438302">
        <ele>151.80</ele>
        <time>2018-01-02T13:24:51Z</time>
      </trkpt>
      <trkpt lat="41.669847" lon="2.438183">
        <ele>152.80</ele>
        <time>2018-01-02T13:24:53Z</time>
      </trkpt>
      <trkpt lat="41.669790" lon="2.438131">
        <ele>153.40</ele>
        <time>2018-01-02T13:24:54Z</time>
      </trkpt>
      <trkpt lat="41.669673" lon="2.438048">
        <ele>154.60</ele>
        <time>2018-01-02T13:24:56Z</time>
      </trkpt>
      <trkpt lat="41.669573" lon="2.437978">
        <ele>155.60</ele>
        <time>2018-01-02T13:24:58Z</time>
      </trkpt>
      <trkpt lat="41.669532" lon="2.437949">
        <ele>156.00</ele>
        <time>2018-01-02T13:24:59Z</time>
      </trkpt>
      <trkpt lat="41.669498" lon="2.437924">
        <ele>156.40</ele>
        <time>2018-01-02T13:25:00Z</time>
      </trkpt>
      <trkpt lat="41.669436" lon="2.437865">
        <ele>156.80</ele>
        <time>2018-01-02T13:25:03Z</time>
      </trkpt>
      <trkpt lat="41.669417" lon="2.437834">
        <ele>156.80</ele>
        <time>2018-01-02T13:25:05Z</time>
      </trkpt>
      <trkpt lat="41.669414" lon="2.437790">
        <ele>157.00</ele>
        <time>2018-01-02T13:25:08Z</time>
      </trkpt>
      <trkpt lat="41.669434" lon="2.437666">
        <ele>157.20</ele>
        <time>2018-01-02T13:25:12Z</time>
      </trkpt>
      <trkpt lat="41.669425" lon="2.437560">
        <ele>156.20</ele>
        <time>2018-01-02T13:25:14Z</time>
      </trkpt>
      <trkpt lat="41.669389" lon="2.437449">
        <ele>154.80</ele>
        <time>2018-01-02T13:25:16Z</time>
      </trkpt>
      <trkpt lat="41.669369" lon="2.437387">
        <ele>154.20</ele>
        <time>2018-01-02T13:25:17Z</time>
      </trkpt>
      <trkpt lat="41.669334" lon="2.437254">
        <ele>153.40</ele>
        <time>2018-01-02T13:25:19Z</time>
      </trkpt>
      <trkpt lat="41.669300" lon="2.437122">
        <ele>152.00</ele>
        <time>2018-01-02T13:25:21Z</time>
      </trkpt>
      <trkpt lat="41.669265" lon="2.436982">
        <ele>151.20</ele>
        <time>2018-01-02T13:25:23Z</time>
      </trkpt>
      <trkpt lat="41.669229" lon="2.436838">
        <ele>150.60</ele>
        <time>2018-01-02T13:25:25Z</time>
      </trkpt>
      <trkpt lat="41.669190" lon="2.436682">
        <ele>149.20</ele>
        <time>2018-01-02T13:25:27Z</time>
      </trkpt>
      <trkpt lat="41.669167" lon="2.436596">
        <ele>148.60</ele>
        <time>2018-01-02T13:25:28Z</time>
      </trkpt>
      <trkpt lat="41.669109" lon="2.436414">
        <ele>147.60</ele>
        <time>2018-01-02T13:25:30Z</time>
      </trkpt>
      <trkpt lat="41.668975" lon="2.436115">
        <ele>147.20</ele>
        <time>2018-01-02T13:25:33Z</time>
      </trkpt>
      <trkpt lat="41.668877" lon="2.435904">
        <ele>148.20</ele>
        <time>2018-01-02T13:25:35Z</time>
      </trkpt>
      <trkpt lat="41.668845" lon="2.435792">
        <ele>149.20</ele>
        <time>2018-01-02T13:25:36Z</time>
      </trkpt>
      <trkpt lat="41.668836" lon="2.435681">
        <ele>151.60</ele>
        <time>2018-01-02T13:25:37Z</time>
      </trkpt>
      <trkpt lat="41.668860" lon="2.435586">
        <ele>152.40</ele>
        <time>2018-01-02T13:25:38Z</time>
      </trkpt>
      <trkpt lat="41.668899" lon="2.435502">
        <ele>152.80</ele>
        <time>2018-01-02T13:25:39Z</time>
      </trkpt>
      <trkpt lat="41.669011" lon="2.435350">
        <ele>152.80</ele>
        <time>2018-01-02T13:25:41Z</time>
      </trkpt>
      <trkpt lat="41.669192" lon="2.435087">
        <ele>152.00</ele>
        <time>2018-01-02T13:25:44Z</time>
      </trkpt>
      <trkpt lat="41.669387" lon="2.434792">
        <ele>152.80</ele>
        <time>2018-01-02T13:25:47Z</time>
      </trkpt>
      <trkpt lat="41.669445" lon="2.434686">
        <ele>153.60</ele>
        <time>2018-01-02T13:25:48Z</time>
      </trkpt>
      <trkpt lat="41.669496" lon="2.434569">
        <ele>154.00</ele>
        <time>2018-01-02T13:25:49Z</time>
      </trkpt>
      <trkpt lat="41.669585" lon="2.434296">
        <ele>156.00</ele>
        <time>2018-01-02T13:25:51Z</time>
      </trkpt>
      <trkpt lat="41.669623" lon="2.434143">
        <ele>157.40</ele>
        <time>2018-01-02T13:25:52Z</time>
      </trkpt>
      <trkpt lat="41.669655" lon="2.433988">
        <ele>158.40</ele>
        <time>2018-01-02T13:25:53Z</time>
      </trkpt>
      <trkpt lat="41.669696" lon="2.433679">
        <ele>160.20</ele>
        <time>2018-01-02T13:25:55Z</time>
      </trkpt>
      <trkpt lat="41.669705" lon="2.433525">
        <ele>161.00</ele>
        <time>2018-01-02T13:25:56Z</time>
      </trkpt>
      <trkpt lat="41.669707" lon="2.433375">
        <ele>162.00</ele>
        <time>2018-01-02T13:25:57Z</time>
      </trkpt>
      <trkpt lat="41.669707" lon="2.433231">
        <ele>163.00</ele>
        <time>2018-01-02T13:25:58Z</time>
      </trkpt>
      <trkpt lat="41.669712" lon="2.433102">
        <ele>164.20</ele>
        <time>2018-01-02T13:25:59Z</time>
      </trkpt>
      <trkpt lat="41.669726" lon="2.432983">
        <ele>165.00</ele>
        <time>2018-01-02T13:26:00Z</time>
      </trkpt>
      <trkpt lat="41.669789" lon="2.432781">
        <ele>166.40</ele>
        <time>2018-01-02T13:26:02Z</time>
      </trkpt>
      <trkpt lat="41.669842" lon="2.432705">
        <ele>166.80</ele>
        <time>2018-01-02T13:26:03Z</time>
      </trkpt>
      <trkpt lat="41.670043" lon="2.432522">
        <ele>167.60</ele>
        <time>2018-01-02T13:26:06Z</time>
      </trkpt>
      <trkpt lat="41.670179" lon="2.432397">
        <ele>169.40</ele>
        <time>2018-01-02T13:26:08Z</time>
      </trkpt>
      <trkpt lat="41.670399" lon="2.432188">
        <ele>171.40</ele>
        <time>2018-01-02T13:26:12Z</time>
      </trkpt>
      <trkpt lat="41.670511" lon="2.432107">
        <ele>170.60</ele>
        <time>2018-01-02T13:26:15Z</time>
      </trkpt>
      <trkpt lat="41.670591" lon="2.432071">
        <ele>169.40</ele>
        <time>2018-01-02T13:26:17Z</time>
      </trkpt>
      <trkpt lat="41.670637" lon="2.432060">
        <ele>168.80</ele>
        <time>2018-01-02T13:26:18Z</time>
      </trkpt>
      <trkpt lat="41.670692" lon="2.432057">
        <ele>168.20</ele>
        <time>2018-01-02T13:26:19Z</time>
      </trkpt>
      <trkpt lat="41.670822" lon="2.432049">
        <ele>167.60</ele>
        <time>2018-01-02T13:26:21Z</time>
      </trkpt>
      <trkpt lat="41.670890" lon="2.432030">
        <ele>167.60</ele>
        <time>2018-01-02T13:26:22Z</time>
      </trkpt>
      <trkpt lat="41.671083" lon="2.431906">
        <ele>167.00</ele>
        <time>2018-01-02T13:26:25Z</time>
      </trkpt>
      <trkpt lat="41.671263" lon="2.431757">
        <ele>166.20</ele>
        <time>2018-01-02T13:26:28Z</time>
      </trkpt>
      <trkpt lat="41.671446" lon="2.431604">
        <ele>165.80</ele>
        <time>2018-01-02T13:26:31Z</time>
      </trkpt>
      <trkpt lat="41.671542" lon="2.431423">
        <ele>165.40</ele>
        <time>2018-01-02T13:26:33Z</time>
      </trkpt>
      <trkpt lat="41.671557" lon="2.431312">
        <ele>165.00</ele>
        <time>2018-01-02T13:26:34Z</time>
      </trkpt>
      <trkpt lat="41.671503" lon="2.430949">
        <ele>165.80</ele>
        <time>2018-01-02T13:26:37Z</time>
      </trkpt>
      <trkpt lat="41.671490" lon="2.430822">
        <ele>166.60</ele>
        <time>2018-01-02T13:26:38Z</time>
      </trkpt>
      <trkpt lat="41.671492" lon="2.430700">
        <ele>167.40</ele>
        <time>2018-01-02T13:26:39Z</time>
      </trkpt>
      <trkpt lat="41.671546" lon="2.430485">
        <ele>168.40</ele>
        <time>2018-01-02T13:26:41Z</time>
      </trkpt>
      <trkpt lat="41.671694" lon="2.430207">
        <ele>168.60</ele>
        <time>2018-01-02T13:26:44Z</time>
      </trkpt>
      <trkpt lat="41.671752" lon="2.430110">
        <ele>169.00</ele>
        <time>2018-01-02T13:26:45Z</time>
      </trkpt>
      <trkpt lat="41.671853" lon="2.429889">
        <ele>170.40</ele>
        <time>2018-01-02T13:26:47Z</time>
      </trkpt>
      <trkpt lat="41.671905" lon="2.429634">
        <ele>171.00</ele>
        <time>2018-01-02T13:26:49Z</time>
      </trkpt>
      <trkpt lat="41.671936" lon="2.429511">
        <ele>171.80</ele>
        <time>2018-01-02T13:26:50Z</time>
      </trkpt>
      <trkpt lat="41.672021" lon="2.429288">
        <ele>173.60</ele>
        <time>2018-01-02T13:26:52Z</time>
      </trkpt>
      <trkpt lat="41.672084" lon="2.429203">
        <ele>174.80</ele>
        <time>2018-01-02T13:26:53Z</time>
      </trkpt>
      <trkpt lat="41.672241" lon="2.429087">
        <ele>176.20</ele>
        <time>2018-01-02T13:26:55Z</time>
      </trkpt>
      <trkpt lat="41.672328" lon="2.429041">
        <ele>177.20</ele>
        <time>2018-01-02T13:26:56Z</time>
      </trkpt>
      <trkpt lat="41.672416" lon="2.428988">
        <ele>178.00</ele>
        <time>2018-01-02T13:26:57Z</time>
      </trkpt>
      <trkpt lat="41.672572" lon="2.428861">
        <ele>179.00</ele>
        <time>2018-01-02T13:26:59Z</time>
      </trkpt>
      <trkpt lat="41.672638" lon="2.428796">
        <ele>179.20</ele>
        <time>2018-01-02T13:27:00Z</time>
      </trkpt>
      <trkpt lat="41.672937" lon="2.428388">
        <ele>179.60</ele>
        <time>2018-01-02T13:27:05Z</time>
      </trkpt>
      <trkpt lat="41.672991" lon="2.428293">
        <ele>180.00</ele>
        <time>2018-01-02T13:27:06Z</time>
      </trkpt>
      <trkpt lat="41.673154" lon="2.428035">
        <ele>180.80</ele>
        <time>2018-01-02T13:27:09Z</time>
      </trkpt>
      <trkpt lat="41.673216" lon="2.427969">
        <ele>181.00</ele>
        <time>2018-01-02T13:27:10Z</time>
      </trkpt>
      <trkpt lat="41.673284" lon="2.427914">
        <ele>181.40</ele>
        <time>2018-01-02T13:27:11Z</time>
      </trkpt>
      <trkpt lat="41.673425" lon="2.427833">
        <ele>182.40</ele>
        <time>2018-01-02T13:27:13Z</time>
      </trkpt>
      <trkpt lat="41.673821" lon="2.427573">
        <ele>182.60</ele>
        <time>2018-01-02T13:27:19Z</time>
      </trkpt>
      <trkpt lat="41.674162" lon="2.427288">
        <ele>183.80</ele>
        <time>2018-01-02T13:27:24Z</time>
      </trkpt>
      <trkpt lat="41.674225" lon="2.427224">
        <ele>184.20</ele>
        <time>2018-01-02T13:27:25Z</time>
      </trkpt>
      <trkpt lat="41.674283" lon="2.427163">
        <ele>184.80</ele>
        <time>2018-01-02T13:27:26Z</time>
      </trkpt>
      <trkpt lat="41.674386" lon="2.427056">
        <ele>186.20</ele>
        <time>2018-01-02T13:27:28Z</time>
      </trkpt>
      <trkpt lat="41.674475" lon="2.426978">
        <ele>187.20</ele>
        <time>2018-01-02T13:27:30Z</time>
      </trkpt>
      <trkpt lat="41.674516" lon="2.426942">
        <ele>187.40</ele>
        <time>2018-01-02T13:27:31Z</time>
      </trkpt>
      <trkpt lat="41.674560" lon="2.426910">
        <ele>187.40</ele>
        <time>2018-01-02T13:27:32Z</time>
      </trkpt>
      <trkpt lat="41.674706" lon="2.426834">
        <ele>186.20</ele>
        <time>2018-01-02T13:27:35Z</time>
      </trkpt>
      <trkpt lat="41.674817" lon="2.426784">
        <ele>186.00</ele>
        <time>2018-01-02T13:27:37Z</time>
      </trkpt>
      <trkpt lat="41.674970" lon="2.426692">
        <ele>185.60</ele>
        <time>2018-01-02T13:27:40Z</time>
      </trkpt>
      <trkpt lat="41.675142" lon="2.426591">
        <ele>185.60</ele>
        <time>2018-01-02T13:27:43Z</time>
      </trkpt>
      <trkpt lat="41.675259" lon="2.426508">
        <ele>185.60</ele>
        <time>2018-01-02T13:27:45Z</time>
      </trkpt>
      <trkpt lat="41.675444" lon="2.426392">
        <ele>185.80</ele>
        <time>2018-01-02T13:27:48Z</time>
      </trkpt>
      <trkpt lat="41.675633" lon="2.426287">
        <ele>186.40</ele>
        <time>2018-01-02T13:27:51Z</time>
      </trkpt>
      <trkpt lat="41.675803" lon="2.426178">
        <ele>187.00</ele>
        <time>2018-01-02T13:27:54Z</time>
      </trkpt>
      <trkpt lat="41.675951" lon="2.426077">
        <ele>187.20</ele>
        <time>2018-01-02T13:27:57Z</time>
      </trkpt>
      <trkpt lat="41.675992" lon="2.426033">
        <ele>187.40</ele>
        <time>2018-01-02T13:27:58Z</time>
      </trkpt>
      <trkpt lat="41.676088" lon="2.425813">
        <ele>187.60</ele>
        <time>2018-01-02T13:28:03Z</time>
      </trkpt>
      <trkpt lat="41.676098" lon="2.425750">
        <ele>187.60</ele>
        <time>2018-01-02T13:28:05Z</time>
      </trkpt>
      <trkpt lat="41.676107" lon="2.425718">
        <ele>187.60</ele>
        <time>2018-01-02T13:28:06Z</time>
      </trkpt>
      <trkpt lat="41.676113" lon="2.425494">
        <ele>187.80</ele>
        <time>2018-01-02T13:30:35Z</time>
      </trkpt>
      <trkpt lat="41.676112" lon="2.425456">
        <ele>187.80</ele>
        <time>2018-01-02T13:30:38Z</time>
      </trkpt>
      <trkpt lat="41.676101" lon="2.425412">
        <ele>187.80</ele>
        <time>2018-01-02T13:30:41Z</time>
      </trkpt>
      <trkpt lat="41.676099" lon="2.425395">
        <ele>187.80</ele>
        <time>2018-01-02T13:30:42Z</time>
      </trkpt>
      <trkpt lat="41.676103" lon="2.425363">
        <ele>187.80</ele>
        <time>2018-01-02T13:30:44Z</time>
      </trkpt>
      <trkpt lat="41.676100" lon="2.425347">
        <ele>187.80</ele>
        <time>2018-01-02T13:30:45Z</time>
      </trkpt>
      <trkpt lat="41.676095" lon="2.425323">
        <ele>187.80</ele>
        <time>2018-01-02T13:30:47Z</time>
      </trkpt>
      <trkpt lat="41.676071" lon="2.425238">
        <ele>187.80</ele>
        <time>2018-01-02T13:30:53Z</time>
      </trkpt>
      <trkpt lat="41.676068" lon="2.425198">
        <ele>188.00</ele>
        <time>2018-01-02T13:30:55Z</time>
      </trkpt>
      <trkpt lat="41.676067" lon="2.425106">
        <ele>188.20</ele>
        <time>2018-01-02T13:30:58Z</time>
      </trkpt>
      <trkpt lat="41.676066" lon="2.425070">
        <ele>188.40</ele>
        <time>2018-01-02T13:30:59Z</time>
      </trkpt>
      <trkpt lat="41.676064" lon="2.424995">
        <ele>188.60</ele>
        <time>2018-01-02T13:31:13Z</time>
      </trkpt>
      <trkpt lat="41.676072" lon="2.424939">
        <ele>189.40</ele>
        <time>2018-01-02T13:31:16Z</time>
      </trkpt>
      <trkpt lat="41.676073" lon="2.424919">
        <ele>189.40</ele>
        <time>2018-01-02T13:31:17Z</time>
      </trkpt>
      <trkpt lat="41.676075" lon="2.424867">
        <ele>189.80</ele>
        <time>2018-01-02T13:31:20Z</time>
      </trkpt>
      <trkpt lat="41.676070" lon="2.424813">
        <ele>189.80</ele>
        <time>2018-01-02T13:31:23Z</time>
      </trkpt>
      <trkpt lat="41.676086" lon="2.424736">
        <ele>189.40</ele>
        <time>2018-01-02T13:31:27Z</time>
      </trkpt>
      <trkpt lat="41.676019" lon="2.424620">
        <ele>189.00</ele>
        <time>2018-01-02T13:31:31Z</time>
      </trkpt>
      <trkpt lat="41.675991" lon="2.424600">
        <ele>188.80</ele>
        <time>2018-01-02T13:31:32Z</time>
      </trkpt>
      <trkpt lat="41.675954" lon="2.424542">
        <ele>188.20</ele>
        <time>2018-01-02T13:31:35Z</time>
      </trkpt>
      <trkpt lat="41.675929" lon="2.424504">
        <ele>187.80</ele>
        <time>2018-01-02T13:31:37Z</time>
      </trkpt>
      <trkpt lat="41.675900" lon="2.424454">
        <ele>187.20</ele>
        <time>2018-01-02T13:31:39Z</time>
      </trkpt>
      <trkpt lat="41.675854" lon="2.424339">
        <ele>186.80</ele>
        <time>2018-01-02T13:31:42Z</time>
      </trkpt>
      <trkpt lat="41.675833" lon="2.424293">
        <ele>186.60</ele>
        <time>2018-01-02T13:31:43Z</time>
      </trkpt>
      <trkpt lat="41.675669" lon="2.424092">
        <ele>186.40</ele>
        <time>2018-01-02T13:31:48Z</time>
      </trkpt>
      <trkpt lat="41.675498" lon="2.423942">
        <ele>186.20</ele>
        <time>2018-01-02T13:31:53Z</time>
      </trkpt>
      <trkpt lat="41.675461" lon="2.423916">
        <ele>186.20</ele>
        <time>2018-01-02T13:31:54Z</time>
      </trkpt>
      <trkpt lat="41.675351" lon="2.423852">
        <ele>185.40</ele>
        <time>2018-01-02T13:31:57Z</time>
      </trkpt>
      <trkpt lat="41.675310" lon="2.423840">
        <ele>185.20</ele>
        <time>2018-01-02T13:31:58Z</time>
      </trkpt>
      <trkpt lat="41.675269" lon="2.423832">
        <ele>184.80</ele>
        <time>2018-01-02T13:31:59Z</time>
      </trkpt>
      <trkpt lat="41.675229" lon="2.423823">
        <ele>184.40</ele>
        <time>2018-01-02T13:32:00Z</time>
      </trkpt>
      <trkpt lat="41.675188" lon="2.423813">
        <ele>184.00</ele>
        <time>2018-01-02T13:32:01Z</time>
      </trkpt>
      <trkpt lat="41.675076" lon="2.423785">
        <ele>182.80</ele>
        <time>2018-01-02T13:32:04Z</time>
      </trkpt>
      <trkpt lat="41.674963" lon="2.423754">
        <ele>181.80</ele>
        <time>2018-01-02T13:32:07Z</time>
      </trkpt>
      <trkpt lat="41.674841" lon="2.423753">
        <ele>180.40</ele>
        <time>2018-01-02T13:32:10Z</time>
      </trkpt>
      <trkpt lat="41.674707" lon="2.423768">
        <ele>179.20</ele>
        <time>2018-01-02T13:32:13Z</time>
      </trkpt>
      <trkpt lat="41.674663" lon="2.423772">
        <ele>178.80</ele>
        <time>2018-01-02T13:32:14Z</time>
      </trkpt>
      <trkpt lat="41.674571" lon="2.423764">
        <ele>178.00</ele>
        <time>2018-01-02T13:32:16Z</time>
      </trkpt>
      <trkpt lat="41.674434" lon="2.423735">
        <ele>177.00</ele>
        <time>2018-01-02T13:32:19Z</time>
      </trkpt>
      <trkpt lat="41.674282" lon="2.423710">
        <ele>176.00</ele>
        <time>2018-01-02T13:32:22Z</time>
      </trkpt>
      <trkpt lat="41.673979" lon="2.423704">
        <ele>175.40</ele>
        <time>2018-01-02T13:32:27Z</time>
      </trkpt>
      <trkpt lat="41.673780" lon="2.423725">
        <ele>175.80</ele>
        <time>2018-01-02T13:32:30Z</time>
      </trkpt>
      <trkpt lat="41.673524" lon="2.423776">
        <ele>177.00</ele>
        <time>2018-01-02T13:32:34Z</time>
      </trkpt>
      <trkpt lat="41.673282" lon="2.423837">
        <ele>177.00</ele>
        <time>2018-01-02T13:32:39Z</time>
      </trkpt>
      <trkpt lat="41.673246" lon="2.423849">
        <ele>177.00</ele>
        <time>2018-01-02T13:32:40Z</time>
      </trkpt>
      <trkpt lat="41.673134" lon="2.423888">
        <ele>176.00</ele>
        <time>2018-01-02T13:32:43Z</time>
      </trkpt>
      <trkpt lat="41.673004" lon="2.423933">
        <ele>174.80</ele>
        <time>2018-01-02T13:32:46Z</time>
      </trkpt>
      <trkpt lat="41.672920" lon="2.423959">
        <ele>174.00</ele>
        <time>2018-01-02T13:32:48Z</time>
      </trkpt>
      <trkpt lat="41.672877" lon="2.423972">
        <ele>173.40</ele>
        <time>2018-01-02T13:32:49Z</time>
      </trkpt>
      <trkpt lat="41.672735" lon="2.424015">
        <ele>171.60</ele>
        <time>2018-01-02T13:32:52Z</time>
      </trkpt>
      <trkpt lat="41.672627" lon="2.424048">
        <ele>171.00</ele>
        <time>2018-01-02T13:32:54Z</time>
      </trkpt>
      <trkpt lat="41.672191" lon="2.424176">
        <ele>170.20</ele>
        <time>2018-01-02T13:33:01Z</time>
      </trkpt>
      <trkpt lat="41.672052" lon="2.424202">
        <ele>170.40</ele>
        <time>2018-01-02T13:33:03Z</time>
      </trkpt>
      <trkpt lat="41.671849" lon="2.424244">
        <ele>171.60</ele>
        <time>2018-01-02T13:33:06Z</time>
      </trkpt>
      <trkpt lat="41.671608" lon="2.424305">
        <ele>172.00</ele>
        <time>2018-01-02T13:33:11Z</time>
      </trkpt>
      <trkpt lat="41.671564" lon="2.424317">
        <ele>171.80</ele>
        <time>2018-01-02T13:33:12Z</time>
      </trkpt>
      <trkpt lat="41.671478" lon="2.424332">
        <ele>170.80</ele>
        <time>2018-01-02T13:33:14Z</time>
      </trkpt>
      <trkpt lat="41.671290" lon="2.424379">
        <ele>169.60</ele>
        <time>2018-01-02T13:33:18Z</time>
      </trkpt>
      <trkpt lat="41.671240" lon="2.424391">
        <ele>169.60</ele>
        <time>2018-01-02T13:33:19Z</time>
      </trkpt>
      <trkpt lat="41.671093" lon="2.424429">
        <ele>168.60</ele>
        <time>2018-01-02T13:33:22Z</time>
      </trkpt>
      <trkpt lat="41.670951" lon="2.424470">
        <ele>167.40</ele>
        <time>2018-01-02T13:33:25Z</time>
      </trkpt>
      <trkpt lat="41.670901" lon="2.424486">
        <ele>167.20</ele>
        <time>2018-01-02T13:33:26Z</time>
      </trkpt>
      <trkpt lat="41.670566" lon="2.424557">
        <ele>166.20</ele>
        <time>2018-01-02T13:33:32Z</time>
      </trkpt>
      <trkpt lat="41.670507" lon="2.424558">
        <ele>166.40</ele>
        <time>2018-01-02T13:33:33Z</time>
      </trkpt>
      <trkpt lat="41.670335" lon="2.424578">
        <ele>166.20</ele>
        <time>2018-01-02T13:33:36Z</time>
      </trkpt>
      <trkpt lat="41.670280" lon="2.424601">
        <ele>166.20</ele>
        <time>2018-01-02T13:33:37Z</time>
      </trkpt>
      <trkpt lat="41.670187" lon="2.424671">
        <ele>166.20</ele>
        <time>2018-01-02T13:33:39Z</time>
      </trkpt>
      <trkpt lat="41.670143" lon="2.424708">
        <ele>166.00</ele>
        <time>2018-01-02T13:33:40Z</time>
      </trkpt>
      <trkpt lat="41.670061" lon="2.424778">
        <ele>165.20</ele>
        <time>2018-01-02T13:33:42Z</time>
      </trkpt>
      <trkpt lat="41.669941" lon="2.424861">
        <ele>163.80</ele>
        <time>2018-01-02T13:33:45Z</time>
      </trkpt>
      <trkpt lat="41.669855" lon="2.424920">
        <ele>163.00</ele>
        <time>2018-01-02T13:33:47Z</time>
      </trkpt>
      <trkpt lat="41.669809" lon="2.424950">
        <ele>162.60</ele>
        <time>2018-01-02T13:33:48Z</time>
      </trkpt>
      <trkpt lat="41.669562" lon="2.425101">
        <ele>161.60</ele>
        <time>2018-01-02T13:33:53Z</time>
      </trkpt>
      <trkpt lat="41.669511" lon="2.425127">
        <ele>161.40</ele>
        <time>2018-01-02T13:33:54Z</time>
      </trkpt>
      <trkpt lat="41.669238" lon="2.425233">
        <ele>160.60</ele>
        <time>2018-01-02T13:33:59Z</time>
      </trkpt>
      <trkpt lat="41.668775" lon="2.425298">
        <ele>160.40</ele>
        <time>2018-01-02T13:34:07Z</time>
      </trkpt>
      <trkpt lat="41.668571" lon="2.425323">
        <ele>159.20</ele>
        <time>2018-01-02T13:34:11Z</time>
      </trkpt>
      <trkpt lat="41.668424" lon="2.425350">
        <ele>158.40</ele>
        <time>2018-01-02T13:34:14Z</time>
      </trkpt>
      <trkpt lat="41.668373" lon="2.425359">
        <ele>158.20</ele>
        <time>2018-01-02T13:34:15Z</time>
      </trkpt>
      <trkpt lat="41.668033" lon="2.425405">
        <ele>156.80</ele>
        <time>2018-01-02T13:34:21Z</time>
      </trkpt>
      <trkpt lat="41.667856" lon="2.425448">
        <ele>156.40</ele>
        <time>2018-01-02T13:34:24Z</time>
      </trkpt>
      <trkpt lat="41.667799" lon="2.425480">
        <ele>156.60</ele>
        <time>2018-01-02T13:34:25Z</time>
      </trkpt>
      <trkpt lat="41.667647" lon="2.425599">
        <ele>157.00</ele>
        <time>2018-01-02T13:34:28Z</time>
      </trkpt>
      <trkpt lat="41.667524" lon="2.425709">
        <ele>155.80</ele>
        <time>2018-01-02T13:34:31Z</time>
      </trkpt>
      <trkpt lat="41.667487" lon="2.425744">
        <ele>155.20</ele>
        <time>2018-01-02T13:34:32Z</time>
      </trkpt>
      <trkpt lat="41.667450" lon="2.425777">
        <ele>154.60</ele>
        <time>2018-01-02T13:34:33Z</time>
      </trkpt>
      <trkpt lat="41.667361" lon="2.425840">
        <ele>153.20</ele>
        <time>2018-01-02T13:34:35Z</time>
      </trkpt>
      <trkpt lat="41.667314" lon="2.425870">
        <ele>152.60</ele>
        <time>2018-01-02T13:34:36Z</time>
      </trkpt>
      <trkpt lat="41.667268" lon="2.425903">
        <ele>152.00</ele>
        <time>2018-01-02T13:34:37Z</time>
      </trkpt>
      <trkpt lat="41.667038" lon="2.426068">
        <ele>150.60</ele>
        <time>2018-01-02T13:34:41Z</time>
      </trkpt>
      <trkpt lat="41.666969" lon="2.426113">
        <ele>150.40</ele>
        <time>2018-01-02T13:34:42Z</time>
      </trkpt>
      <trkpt lat="41.666703" lon="2.426372">
        <ele>150.60</ele>
        <time>2018-01-02T13:34:46Z</time>
      </trkpt>
      <trkpt lat="41.666508" lon="2.426596">
        <ele>151.60</ele>
        <time>2018-01-02T13:34:49Z</time>
      </trkpt>
      <trkpt lat="41.666445" lon="2.426668">
        <ele>152.60</ele>
        <time>2018-01-02T13:34:50Z</time>
      </trkpt>
      <trkpt lat="41.666381" lon="2.426734">
        <ele>153.00</ele>
        <time>2018-01-02T13:34:51Z</time>
      </trkpt>
      <trkpt lat="41.666256" lon="2.426850">
        <ele>154.00</ele>
        <time>2018-01-02T13:34:53Z</time>
      </trkpt>
      <trkpt lat="41.666192" lon="2.426890">
        <ele>154.40</ele>
        <time>2018-01-02T13:34:54Z</time>
      </trkpt>
      <trkpt lat="41.666128" lon="2.426914">
        <ele>154.80</ele>
        <time>2018-01-02T13:34:55Z</time>
      </trkpt>
      <trkpt lat="41.666064" lon="2.426928">
        <ele>155.00</ele>
        <time>2018-01-02T13:34:56Z</time>
      </trkpt>
      <trkpt lat="41.665947" lon="2.426940">
        <ele>155.20</ele>
        <time>2018-01-02T13:34:58Z</time>
      </trkpt>
      <trkpt lat="41.665893" lon="2.426947">
        <ele>155.00</ele>
        <time>2018-01-02T13:34:59Z</time>
      </trkpt>
      <trkpt lat="41.665591" lon="2.427055">
        <ele>155.20</ele>
        <time>2018-01-02T13:35:04Z</time>
      </trkpt>
      <trkpt lat="41.665529" lon="2.427083">
        <ele>155.40</ele>
        <time>2018-01-02T13:35:05Z</time>
      </trkpt>
      <trkpt lat="41.665376" lon="2.427196">
        <ele>155.60</ele>
        <time>2018-01-02T13:35:08Z</time>
      </trkpt>
      <trkpt lat="41.665096" lon="2.427583">
        <ele>155.20</ele>
        <time>2018-01-02T13:35:16Z</time>
      </trkpt>
      <trkpt lat="41.664891" lon="2.427818">
        <ele>154.20</ele>
        <time>2018-01-02T13:35:22Z</time>
      </trkpt>
      <trkpt lat="41.664785" lon="2.427914">
        <ele>153.40</ele>
        <time>2018-01-02T13:35:25Z</time>
      </trkpt>
      <trkpt lat="41.664680" lon="2.428009">
        <ele>152.80</ele>
        <time>2018-01-02T13:35:28Z</time>
      </trkpt>
      <trkpt lat="41.664492" lon="2.428165">
        <ele>152.40</ele>
        <time>2018-01-02T13:35:33Z</time>
      </trkpt>
      <trkpt lat="41.664332" lon="2.428282">
        <ele>152.00</ele>
        <time>2018-01-02T13:35:37Z</time>
      </trkpt>
      <trkpt lat="41.664251" lon="2.428321">
        <ele>152.00</ele>
        <time>2018-01-02T13:35:39Z</time>
      </trkpt>
      <trkpt lat="41.664116" lon="2.428323">
        <ele>152.00</ele>
        <time>2018-01-02T13:35:43Z</time>
      </trkpt>
      <trkpt lat="41.664091" lon="2.428307">
        <ele>151.80</ele>
        <time>2018-01-02T13:35:44Z</time>
      </trkpt>
      <trkpt lat="41.664032" lon="2.428235">
        <ele>150.80</ele>
        <time>2018-01-02T13:35:47Z</time>
      </trkpt>
      <trkpt lat="41.664017" lon="2.428204">
        <ele>150.40</ele>
        <time>2018-01-02T13:35:48Z</time>
      </trkpt>
      <trkpt lat="41.663989" lon="2.428138">
        <ele>149.60</ele>
        <time>2018-01-02T13:35:50Z</time>
      </trkpt>
      <trkpt lat="41.663949" lon="2.428042">
        <ele>148.40</ele>
        <time>2018-01-02T13:35:53Z</time>
      </trkpt>
      <trkpt lat="41.663911" lon="2.427946">
        <ele>147.60</ele>
        <time>2018-01-02T13:35:56Z</time>
      </trkpt>
      <trkpt lat="41.663898" lon="2.427912">
        <ele>147.40</ele>
        <time>2018-01-02T13:35:57Z</time>
      </trkpt>
      <trkpt lat="41.663862" lon="2.427807">
        <ele>146.00</ele>
        <time>2018-01-02T13:36:00Z</time>
      </trkpt>
      <trkpt lat="41.663840" lon="2.427737">
        <ele>145.00</ele>
        <time>2018-01-02T13:36:02Z</time>
      </trkpt>
      <trkpt lat="41.663823" lon="2.427664">
        <ele>144.20</ele>
        <time>2018-01-02T13:36:04Z</time>
      </trkpt>
      <trkpt lat="41.663810" lon="2.427629">
        <ele>143.60</ele>
        <time>2018-01-02T13:36:05Z</time>
      </trkpt>
      <trkpt lat="41.663774" lon="2.427530">
        <ele>142.60</ele>
        <time>2018-01-02T13:36:08Z</time>
      </trkpt>
      <trkpt lat="41.663739" lon="2.427435">
        <ele>141.20</ele>
        <time>2018-01-02T13:36:11Z</time>
      </trkpt>
      <trkpt lat="41.663729" lon="2.427403">
        <ele>141.00</ele>
        <time>2018-01-02T13:36:12Z</time>
      </trkpt>
      <trkpt lat="41.663716" lon="2.427307">
        <ele>140.00</ele>
        <time>2018-01-02T13:36:15Z</time>
      </trkpt>
      <trkpt lat="41.663693" lon="2.427215">
        <ele>139.00</ele>
        <time>2018-01-02T13:36:18Z</time>
      </trkpt>
      <trkpt lat="41.663686" lon="2.427184">
        <ele>138.60</ele>
        <time>2018-01-02T13:36:19Z</time>
      </trkpt>
      <trkpt lat="41.663673" lon="2.427120">
        <ele>137.80</ele>
        <time>2018-01-02T13:36:21Z</time>
      </trkpt>
      <trkpt lat="41.663659" lon="2.426986">
        <ele>136.40</ele>
        <time>2018-01-02T13:36:25Z</time>
      </trkpt>
      <trkpt lat="41.663623" lon="2.426901">
        <ele>135.00</ele>
        <time>2018-01-02T13:36:28Z</time>
      </trkpt>
      <trkpt lat="41.663597" lon="2.426806">
        <ele>133.80</ele>
        <time>2018-01-02T13:36:31Z</time>
      </trkpt>
      <trkpt lat="41.663575" lon="2.426711">
        <ele>132.80</ele>
        <time>2018-01-02T13:36:34Z</time>
      </trkpt>
      <trkpt lat="41.663543" lon="2.426622">
        <ele>131.60</ele>
        <time>2018-01-02T13:36:37Z</time>
      </trkpt>
      <trkpt lat="41.663514" lon="2.426568">
        <ele>130.80</ele>
        <time>2018-01-02T13:36:39Z</time>
      </trkpt>
      <trkpt lat="41.663498" lon="2.426544">
        <ele>130.40</ele>
        <time>2018-01-02T13:36:40Z</time>
      </trkpt>
      <trkpt lat="41.663449" lon="2.426470">
        <ele>129.20</ele>
        <time>2018-01-02T13:36:43Z</time>
      </trkpt>
      <trkpt lat="41.663403" lon="2.426394">
        <ele>127.80</ele>
        <time>2018-01-02T13:36:46Z</time>
      </trkpt>
      <trkpt lat="41.663363" lon="2.426309">
        <ele>126.60</ele>
        <time>2018-01-02T13:36:49Z</time>
      </trkpt>
      <trkpt lat="41.663334" lon="2.426253">
        <ele>125.40</ele>
        <time>2018-01-02T13:36:51Z</time>
      </trkpt>
      <trkpt lat="41.663288" lon="2.426166">
        <ele>124.00</ele>
        <time>2018-01-02T13:36:54Z</time>
      </trkpt>
      <trkpt lat="41.663248" lon="2.426061">
        <ele>122.80</ele>
        <time>2018-01-02T13:36:57Z</time>
      </trkpt>
      <trkpt lat="41.663195" lon="2.425979">
        <ele>121.40</ele>
        <time>2018-01-02T13:37:00Z</time>
      </trkpt>
      <trkpt lat="41.663177" lon="2.425953">
        <ele>121.00</ele>
        <time>2018-01-02T13:37:01Z</time>
      </trkpt>
      <trkpt lat="41.663141" lon="2.425890">
        <ele>120.20</ele>
        <time>2018-01-02T13:37:03Z</time>
      </trkpt>
      <trkpt lat="41.663107" lon="2.425814">
        <ele>119.00</ele>
        <time>2018-01-02T13:37:05Z</time>
      </trkpt>
      <trkpt lat="41.663076" lon="2.425717">
        <ele>118.20</ele>
        <time>2018-01-02T13:37:07Z</time>
      </trkpt>
      <trkpt lat="41.663063" lon="2.425563">
        <ele>118.00</ele>
        <time>2018-01-02T13:37:10Z</time>
      </trkpt>
      <trkpt lat="41.663090" lon="2.425530">
        <ele>117.80</ele>
        <time>2018-01-02T13:37:11Z</time>
      </trkpt>
      <trkpt lat="41.663188" lon="2.425503">
        <ele>117.20</ele>
        <time>2018-01-02T13:37:13Z</time>
      </trkpt>
      <trkpt lat="41.663250" lon="2.425495">
        <ele>117.80</ele>
        <time>2018-01-02T13:37:14Z</time>
      </trkpt>
      <trkpt lat="41.663510" lon="2.425425">
        <ele>118.20</ele>
        <time>2018-01-02T13:37:18Z</time>
      </trkpt>
      <trkpt lat="41.663577" lon="2.425400">
        <ele>118.00</ele>
        <time>2018-01-02T13:37:19Z</time>
      </trkpt>
      <trkpt lat="41.663775" lon="2.425266">
        <ele>118.40</ele>
        <time>2018-01-02T13:37:22Z</time>
      </trkpt>
      <trkpt lat="41.663837" lon="2.425206">
        <ele>118.60</ele>
        <time>2018-01-02T13:37:23Z</time>
      </trkpt>
      <trkpt lat="41.664008" lon="2.425007">
        <ele>119.00</ele>
        <time>2018-01-02T13:37:26Z</time>
      </trkpt>
      <trkpt lat="41.664129" lon="2.424886">
        <ele>120.00</ele>
        <time>2018-01-02T13:37:28Z</time>
      </trkpt>
      <trkpt lat="41.664403" lon="2.424712">
        <ele>121.00</ele>
        <time>2018-01-02T13:37:32Z</time>
      </trkpt>
      <trkpt lat="41.664545" lon="2.424635">
        <ele>121.20</ele>
        <time>2018-01-02T13:37:34Z</time>
      </trkpt>
      <trkpt lat="41.664690" lon="2.424582">
        <ele>122.00</ele>
        <time>2018-01-02T13:37:36Z</time>
      </trkpt>
      <trkpt lat="41.664847" lon="2.424574">
        <ele>122.60</ele>
        <time>2018-01-02T13:37:38Z</time>
      </trkpt>
      <trkpt lat="41.665008" lon="2.424599">
        <ele>122.40</ele>
        <time>2018-01-02T13:37:40Z</time>
      </trkpt>
      <trkpt lat="41.665160" lon="2.424664">
        <ele>122.80</ele>
        <time>2018-01-02T13:37:42Z</time>
      </trkpt>
      <trkpt lat="41.665232" lon="2.424706">
        <ele>123.60</ele>
        <time>2018-01-02T13:37:43Z</time>
      </trkpt>
      <trkpt lat="41.665442" lon="2.424746">
        <ele>125.00</ele>
        <time>2018-01-02T13:37:46Z</time>
      </trkpt>
      <trkpt lat="41.665508" lon="2.424711">
        <ele>125.40</ele>
        <time>2018-01-02T13:37:47Z</time>
      </trkpt>
      <trkpt lat="41.665564" lon="2.424651">
        <ele>125.60</ele>
        <time>2018-01-02T13:37:48Z</time>
      </trkpt>
      <trkpt lat="41.665604" lon="2.424574">
        <ele>125.80</ele>
        <time>2018-01-02T13:37:49Z</time>
      </trkpt>
      <trkpt lat="41.665731" lon="2.424373">
        <ele>126.20</ele>
        <time>2018-01-02T13:37:52Z</time>
      </trkpt>
      <trkpt lat="41.665784" lon="2.424328">
        <ele>126.40</ele>
        <time>2018-01-02T13:37:53Z</time>
      </trkpt>
      <trkpt lat="41.666080" lon="2.424192">
        <ele>126.60</ele>
        <time>2018-01-02T13:37:58Z</time>
      </trkpt>
      <trkpt lat="41.666518" lon="2.424053">
        <ele>126.40</ele>
        <time>2018-01-02T13:38:05Z</time>
      </trkpt>
      <trkpt lat="41.666640" lon="2.424002">
        <ele>126.20</ele>
        <time>2018-01-02T13:38:07Z</time>
      </trkpt>
      <trkpt lat="41.666883" lon="2.423887">
        <ele>126.00</ele>
        <time>2018-01-02T13:38:11Z</time>
      </trkpt>
      <trkpt lat="41.667066" lon="2.423816">
        <ele>125.00</ele>
        <time>2018-01-02T13:38:14Z</time>
      </trkpt>
      <trkpt lat="41.667126" lon="2.423792">
        <ele>124.80</ele>
        <time>2018-01-02T13:38:15Z</time>
      </trkpt>
      <trkpt lat="41.667186" lon="2.423763">
        <ele>124.60</ele>
        <time>2018-01-02T13:38:16Z</time>
      </trkpt>
      <trkpt lat="41.667334" lon="2.423587">
        <ele>123.60</ele>
        <time>2018-01-02T13:38:19Z</time>
      </trkpt>
      <trkpt lat="41.667467" lon="2.423054">
        <ele>123.20</ele>
        <time>2018-01-02T13:38:24Z</time>
      </trkpt>
      <trkpt lat="41.667511" lon="2.422817">
        <ele>123.60</ele>
        <time>2018-01-02T13:38:26Z</time>
      </trkpt>
      <trkpt lat="41.667603" lon="2.422309">
        <ele>124.80</ele>
        <time>2018-01-02T13:38:30Z</time>
      </trkpt>
      <trkpt lat="41.667629" lon="2.422172">
        <ele>125.00</ele>
        <time>2018-01-02T13:38:31Z</time>
      </trkpt>
      <trkpt lat="41.667685" lon="2.421911">
        <ele>125.80</ele>
        <time>2018-01-02T13:38:33Z</time>
      </trkpt>
      <trkpt lat="41.667722" lon="2.421788">
        <ele>126.80</ele>
        <time>2018-01-02T13:38:34Z</time>
      </trkpt>
      <trkpt lat="41.667849" lon="2.421617">
        <ele>127.40</ele>
        <time>2018-01-02T13:38:36Z</time>
      </trkpt>
      <trkpt lat="41.668026" lon="2.421516">
        <ele>127.20</ele>
        <time>2018-01-02T13:38:38Z</time>
      </trkpt>
      <trkpt lat="41.668408" lon="2.421334">
        <ele>127.60</ele>
        <time>2018-01-02T13:38:42Z</time>
      </trkpt>
      <trkpt lat="41.668615" lon="2.421257">
        <ele>128.20</ele>
        <time>2018-01-02T13:38:44Z</time>
      </trkpt>
      <trkpt lat="41.668829" lon="2.421189">
        <ele>128.80</ele>
        <time>2018-01-02T13:38:46Z</time>
      </trkpt>
      <trkpt lat="41.669163" lon="2.421097">
        <ele>130.00</ele>
        <time>2018-01-02T13:38:49Z</time>
      </trkpt>
      <trkpt lat="41.669394" lon="2.421036">
        <ele>130.60</ele>
        <time>2018-01-02T13:38:51Z</time>
      </trkpt>
      <trkpt lat="41.669640" lon="2.420983">
        <ele>131.40</ele>
        <time>2018-01-02T13:38:53Z</time>
      </trkpt>
      <trkpt lat="41.669900" lon="2.420933">
        <ele>132.80</ele>
        <time>2018-01-02T13:38:55Z</time>
      </trkpt>
      <trkpt lat="41.670041" lon="2.420912">
        <ele>134.00</ele>
        <time>2018-01-02T13:38:56Z</time>
      </trkpt>
      <trkpt lat="41.670184" lon="2.420898">
        <ele>135.40</ele>
        <time>2018-01-02T13:38:57Z</time>
      </trkpt>
      <trkpt lat="41.670328" lon="2.420885">
        <ele>136.80</ele>
        <time>2018-01-02T13:38:58Z</time>
      </trkpt>
      <trkpt lat="41.670467" lon="2.420863">
        <ele>137.80</ele>
        <time>2018-01-02T13:38:59Z</time>
      </trkpt>
      <trkpt lat="41.670605" lon="2.420827">
        <ele>139.20</ele>
        <time>2018-01-02T13:39:00Z</time>
      </trkpt>
      <trkpt lat="41.670743" lon="2.420785">
        <ele>140.40</ele>
        <time>2018-01-02T13:39:01Z</time>
      </trkpt>
      <trkpt lat="41.670908" lon="2.420738">
        <ele>141.60</ele>
        <time>2018-01-02T13:39:02Z</time>
      </trkpt>
      <trkpt lat="41.670970" lon="2.420654">
        <ele>142.60</ele>
        <time>2018-01-02T13:39:03Z</time>
      </trkpt>
      <trkpt lat="41.671027" lon="2.420557">
        <ele>143.80</ele>
        <time>2018-01-02T13:39:04Z</time>
      </trkpt>
      <trkpt lat="41.671127" lon="2.420329">
        <ele>145.40</ele>
        <time>2018-01-02T13:39:06Z</time>
      </trkpt>
      <trkpt lat="41.671200" lon="2.420204">
        <ele>146.00</ele>
        <time>2018-01-02T13:39:07Z</time>
      </trkpt>
      <trkpt lat="41.671230" lon="2.420071">
        <ele>146.40</ele>
        <time>2018-01-02T13:39:08Z</time>
      </trkpt>
      <trkpt lat="41.671302" lon="2.419649">
        <ele>148.00</ele>
        <time>2018-01-02T13:39:11Z</time>
      </trkpt>
      <trkpt lat="41.671324" lon="2.419509">
        <ele>148.80</ele>
        <time>2018-01-02T13:39:12Z</time>
      </trkpt>
      <trkpt lat="41.671342" lon="2.419373">
        <ele>149.20</ele>
        <time>2018-01-02T13:39:13Z</time>
      </trkpt>
      <trkpt lat="41.671357" lon="2.419242">
        <ele>150.40</ele>
        <time>2018-01-02T13:39:14Z</time>
      </trkpt>
      <trkpt lat="41.671407" lon="2.418998">
        <ele>152.20</ele>
        <time>2018-01-02T13:39:16Z</time>
      </trkpt>
      <trkpt lat="41.671461" lon="2.418849">
        <ele>153.20</ele>
        <time>2018-01-02T13:39:18Z</time>
      </trkpt>
      <trkpt lat="41.671509" lon="2.418799">
        <ele>153.80</ele>
        <time>2018-01-02T13:39:19Z</time>
      </trkpt>
      <trkpt lat="41.671469" lon="2.418728">
        <ele>155.00</ele>
        <time>2018-01-02T13:39:21Z</time>
      </trkpt>
      <trkpt lat="41.671385" lon="2.418656">
        <ele>156.60</ele>
        <time>2018-01-02T13:39:23Z</time>
      </trkpt>
      <trkpt lat="41.671328" lon="2.418647">
        <ele>157.60</ele>
        <time>2018-01-02T13:39:24Z</time>
      </trkpt>
      <trkpt lat="41.671260" lon="2.418663">
        <ele>158.40</ele>
        <time>2018-01-02T13:39:25Z</time>
      </trkpt>
      <trkpt lat="41.671184" lon="2.418697">
        <ele>159.60</ele>
        <time>2018-01-02T13:39:26Z</time>
      </trkpt>
      <trkpt lat="41.671103" lon="2.418747">
        <ele>160.60</ele>
        <time>2018-01-02T13:39:27Z</time>
      </trkpt>
      <trkpt lat="41.671023" lon="2.418808">
        <ele>162.00</ele>
        <time>2018-01-02T13:39:28Z</time>
      </trkpt>
      <trkpt lat="41.670943" lon="2.418873">
        <ele>163.20</ele>
        <time>2018-01-02T13:39:29Z</time>
      </trkpt>
      <trkpt lat="41.670862" lon="2.418923">
        <ele>164.20</ele>
        <time>2018-01-02T13:39:30Z</time>
      </trkpt>
      <trkpt lat="41.670778" lon="2.418965">
        <ele>165.20</ele>
        <time>2018-01-02T13:39:31Z</time>
      </trkpt>
      <trkpt lat="41.670626" lon="2.419034">
        <ele>166.80</ele>
        <time>2018-01-02T13:39:33Z</time>
      </trkpt>
      <trkpt lat="41.670558" lon="2.419055">
        <ele>167.20</ele>
        <time>2018-01-02T13:39:34Z</time>
      </trkpt>
      <trkpt lat="41.670492" lon="2.419066">
        <ele>167.40</ele>
        <time>2018-01-02T13:39:35Z</time>
      </trkpt>
      <trkpt lat="41.670364" lon="2.419051">
        <ele>168.00</ele>
        <time>2018-01-02T13:39:37Z</time>
      </trkpt>
      <trkpt lat="41.670180" lon="2.419007">
        <ele>169.20</ele>
        <time>2018-01-02T13:39:40Z</time>
      </trkpt>
      <trkpt lat="41.670068" lon="2.418981">
        <ele>169.40</ele>
        <time>2018-01-02T13:39:42Z</time>
      </trkpt>
      <trkpt lat="41.669959" lon="2.418968">
        <ele>169.40</ele>
        <time>2018-01-02T13:39:44Z</time>
      </trkpt>
      <trkpt lat="41.669856" lon="2.418958">
        <ele>169.60</ele>
        <time>2018-01-02T13:39:46Z</time>
      </trkpt>
      <trkpt lat="41.669709" lon="2.418898">
        <ele>169.60</ele>
        <time>2018-01-02T13:39:49Z</time>
      </trkpt>
      <trkpt lat="41.669634" lon="2.418741">
        <ele>169.40</ele>
        <time>2018-01-02T13:39:52Z</time>
      </trkpt>
      <trkpt lat="41.669625" lon="2.418681">
        <ele>169.40</ele>
        <time>2018-01-02T13:39:53Z</time>
      </trkpt>
      <trkpt lat="41.669607" lon="2.418493">
        <ele>169.60</ele>
        <time>2018-01-02T13:39:56Z</time>
      </trkpt>
      <trkpt lat="41.669582" lon="2.418312">
        <ele>169.60</ele>
        <time>2018-01-02T13:39:59Z</time>
      </trkpt>
      <trkpt lat="41.669568" lon="2.418254">
        <ele>169.40</ele>
        <time>2018-01-02T13:40:00Z</time>
      </trkpt>
      <trkpt lat="41.669505" lon="2.417993">
        <ele>169.20</ele>
        <time>2018-01-02T13:40:05Z</time>
      </trkpt>
      <trkpt lat="41.669526" lon="2.417733">
        <ele>168.40</ele>
        <time>2018-01-02T13:40:11Z</time>
      </trkpt>
      <trkpt lat="41.669591" lon="2.417494">
        <ele>167.40</ele>
        <time>2018-01-02T13:40:17Z</time>
      </trkpt>
      <trkpt lat="41.669603" lon="2.417453">
        <ele>167.20</ele>
        <time>2018-01-02T13:40:18Z</time>
      </trkpt>
      <trkpt lat="41.669619" lon="2.417374">
        <ele>166.60</ele>
        <time>2018-01-02T13:40:20Z</time>
      </trkpt>
      <trkpt lat="41.669631" lon="2.417299">
        <ele>166.20</ele>
        <time>2018-01-02T13:40:22Z</time>
      </trkpt>
      <trkpt lat="41.669634" lon="2.417150">
        <ele>165.20</ele>
        <time>2018-01-02T13:40:26Z</time>
      </trkpt>
      <trkpt lat="41.669655" lon="2.416943">
        <ele>163.60</ele>
        <time>2018-01-02T13:40:32Z</time>
      </trkpt>
      <trkpt lat="41.669664" lon="2.416913">
        <ele>163.40</ele>
        <time>2018-01-02T13:40:33Z</time>
      </trkpt>
      <trkpt lat="41.669700" lon="2.416781">
        <ele>162.40</ele>
        <time>2018-01-02T13:40:37Z</time>
      </trkpt>
      <trkpt lat="41.669713" lon="2.416711">
        <ele>161.80</ele>
        <time>2018-01-02T13:40:39Z</time>
      </trkpt>
      <trkpt lat="41.669673" lon="2.416622">
        <ele>161.20</ele>
        <time>2018-01-02T13:40:42Z</time>
      </trkpt>
      <trkpt lat="41.669643" lon="2.416612">
        <ele>161.00</ele>
        <time>2018-01-02T13:40:43Z</time>
      </trkpt>
      <trkpt lat="41.669613" lon="2.416620">
        <ele>161.00</ele>
        <time>2018-01-02T13:40:44Z</time>
      </trkpt>
      <trkpt lat="41.669564" lon="2.416669">
        <ele>160.60</ele>
        <time>2018-01-02T13:40:46Z</time>
      </trkpt>
      <trkpt lat="41.669527" lon="2.416761">
        <ele>160.00</ele>
        <time>2018-01-02T13:40:49Z</time>
      </trkpt>
      <trkpt lat="41.669508" lon="2.416901">
        <ele>159.20</ele>
        <time>2018-01-02T13:40:53Z</time>
      </trkpt>
      <trkpt lat="41.669503" lon="2.416934">
        <ele>158.80</ele>
        <time>2018-01-02T13:40:54Z</time>
      </trkpt>
      <trkpt lat="41.669484" lon="2.417090">
        <ele>157.80</ele>
        <time>2018-01-02T13:40:59Z</time>
      </trkpt>
      <trkpt lat="41.669485" lon="2.417115">
        <ele>157.60</ele>
        <time>2018-01-02T13:41:00Z</time>
      </trkpt>
      <trkpt lat="41.669485" lon="2.417144">
        <ele>157.40</ele>
        <time>2018-01-02T13:41:01Z</time>
      </trkpt>
      <trkpt lat="41.669469" lon="2.417222">
        <ele>156.60</ele>
        <time>2018-01-02T13:41:04Z</time>
      </trkpt>
      <trkpt lat="41.669428" lon="2.417239">
        <ele>155.80</ele>
        <time>2018-01-02T13:41:07Z</time>
      </trkpt>
      <trkpt lat="41.669414" lon="2.417227">
        <ele>155.40</ele>
        <time>2018-01-02T13:41:08Z</time>
      </trkpt>
      <trkpt lat="41.669389" lon="2.417152">
        <ele>154.40</ele>
        <time>2018-01-02T13:41:11Z</time>
      </trkpt>
      <trkpt lat="41.669393" lon="2.417065">
        <ele>153.40</ele>
        <time>2018-01-02T13:41:14Z</time>
      </trkpt>
      <trkpt lat="41.669386" lon="2.416975">
        <ele>152.00</ele>
        <time>2018-01-02T13:41:17Z</time>
      </trkpt>
      <trkpt lat="41.669379" lon="2.416883">
        <ele>151.20</ele>
        <time>2018-01-02T13:41:20Z</time>
      </trkpt>
      <trkpt lat="41.669376" lon="2.416822">
        <ele>150.80</ele>
        <time>2018-01-02T13:41:22Z</time>
      </trkpt>
      <trkpt lat="41.669352" lon="2.416710">
        <ele>149.60</ele>
        <time>2018-01-02T13:41:26Z</time>
      </trkpt>
      <trkpt lat="41.669332" lon="2.416581">
        <ele>148.20</ele>
        <time>2018-01-02T13:41:30Z</time>
      </trkpt>
      <trkpt lat="41.669321" lon="2.416488">
        <ele>147.20</ele>
        <time>2018-01-02T13:41:33Z</time>
      </trkpt>
      <trkpt lat="41.669312" lon="2.416425">
        <ele>146.40</ele>
        <time>2018-01-02T13:41:35Z</time>
      </trkpt>
      <trkpt lat="41.669306" lon="2.416390">
        <ele>146.00</ele>
        <time>2018-01-02T13:41:36Z</time>
      </trkpt>
      <trkpt lat="41.669294" lon="2.416282">
        <ele>144.80</ele>
        <time>2018-01-02T13:41:39Z</time>
      </trkpt>
      <trkpt lat="41.669296" lon="2.416210">
        <ele>144.20</ele>
        <time>2018-01-02T13:41:41Z</time>
      </trkpt>
      <trkpt lat="41.669288" lon="2.416138">
        <ele>143.60</ele>
        <time>2018-01-02T13:41:43Z</time>
      </trkpt>
      <trkpt lat="41.669262" lon="2.416029">
        <ele>142.60</ele>
        <time>2018-01-02T13:41:46Z</time>
      </trkpt>
      <trkpt lat="41.669257" lon="2.415915">
        <ele>141.80</ele>
        <time>2018-01-02T13:41:49Z</time>
      </trkpt>
      <trkpt lat="41.669257" lon="2.415876">
        <ele>141.40</ele>
        <time>2018-01-02T13:41:50Z</time>
      </trkpt>
      <trkpt lat="41.669239" lon="2.415717">
        <ele>140.00</ele>
        <time>2018-01-02T13:41:54Z</time>
      </trkpt>
      <trkpt lat="41.669235" lon="2.415638">
        <ele>139.60</ele>
        <time>2018-01-02T13:41:56Z</time>
      </trkpt>
      <trkpt lat="41.669232" lon="2.415558">
        <ele>138.80</ele>
        <time>2018-01-02T13:41:58Z</time>
      </trkpt>
      <trkpt lat="41.669226" lon="2.415381">
        <ele>137.60</ele>
        <time>2018-01-02T13:42:02Z</time>
      </trkpt>
      <trkpt lat="41.669229" lon="2.415294">
        <ele>136.60</ele>
        <time>2018-01-02T13:42:04Z</time>
      </trkpt>
      <trkpt lat="41.669228" lon="2.415251">
        <ele>136.40</ele>
        <time>2018-01-02T13:42:05Z</time>
      </trkpt>
      <trkpt lat="41.669237" lon="2.415110">
        <ele>135.20</ele>
        <time>2018-01-02T13:42:08Z</time>
      </trkpt>
      <trkpt lat="41.669245" lon="2.415060">
        <ele>135.00</ele>
        <time>2018-01-02T13:42:09Z</time>
      </trkpt>
      <trkpt lat="41.669284" lon="2.414905">
        <ele>134.00</ele>
        <time>2018-01-02T13:42:12Z</time>
      </trkpt>
      <trkpt lat="41.669323" lon="2.414754">
        <ele>133.20</ele>
        <time>2018-01-02T13:42:15Z</time>
      </trkpt>
      <trkpt lat="41.669330" lon="2.414700">
        <ele>133.00</ele>
        <time>2018-01-02T13:42:16Z</time>
      </trkpt>
      <trkpt lat="41.669301" lon="2.414490">
        <ele>132.40</ele>
        <time>2018-01-02T13:42:20Z</time>
      </trkpt>
      <trkpt lat="41.669244" lon="2.414344">
        <ele>132.20</ele>
        <time>2018-01-02T13:42:23Z</time>
      </trkpt>
      <trkpt lat="41.669194" lon="2.414196">
        <ele>132.00</ele>
        <time>2018-01-02T13:42:26Z</time>
      </trkpt>
      <trkpt lat="41.669194" lon="2.414086">
        <ele>132.20</ele>
        <time>2018-01-02T13:42:28Z</time>
      </trkpt>
      <trkpt lat="41.669252" lon="2.413951">
        <ele>131.80</ele>
        <time>2018-01-02T13:42:31Z</time>
      </trkpt>
      <trkpt lat="41.669272" lon="2.413907">
        <ele>131.80</ele>
        <time>2018-01-02T13:42:32Z</time>
      </trkpt>
      <trkpt lat="41.669303" lon="2.413770">
        <ele>131.40</ele>
        <time>2018-01-02T13:42:35Z</time>
      </trkpt>
      <trkpt lat="41.669284" lon="2.413631">
        <ele>130.80</ele>
        <time>2018-01-02T13:42:38Z</time>
      </trkpt>
      <trkpt lat="41.669209" lon="2.413412">
        <ele>130.00</ele>
        <time>2018-01-02T13:42:43Z</time>
      </trkpt>
      <trkpt lat="41.669193" lon="2.413370">
        <ele>129.80</ele>
        <time>2018-01-02T13:42:44Z</time>
      </trkpt>
      <trkpt lat="41.669134" lon="2.413198">
        <ele>128.60</ele>
        <time>2018-01-02T13:42:48Z</time>
      </trkpt>
      <trkpt lat="41.669102" lon="2.413104">
        <ele>128.20</ele>
        <time>2018-01-02T13:42:50Z</time>
      </trkpt>
      <trkpt lat="41.669070" lon="2.413007">
        <ele>127.60</ele>
        <time>2018-01-02T13:42:52Z</time>
      </trkpt>
      <trkpt lat="41.669054" lon="2.412959">
        <ele>127.20</ele>
        <time>2018-01-02T13:42:53Z</time>
      </trkpt>
      <trkpt lat="41.668991" lon="2.412764">
        <ele>126.40</ele>
        <time>2018-01-02T13:42:57Z</time>
      </trkpt>
      <trkpt lat="41.668963" lon="2.412598">
        <ele>125.80</ele>
        <time>2018-01-02T13:43:00Z</time>
      </trkpt>
      <trkpt lat="41.668954" lon="2.412476">
        <ele>125.60</ele>
        <time>2018-01-02T13:43:02Z</time>
      </trkpt>
      <trkpt lat="41.668952" lon="2.412411">
        <ele>125.40</ele>
        <time>2018-01-02T13:43:03Z</time>
      </trkpt>
      <trkpt lat="41.668955" lon="2.412346">
        <ele>125.00</ele>
        <time>2018-01-02T13:43:04Z</time>
      </trkpt>
      <trkpt lat="41.668964" lon="2.412138">
        <ele>124.20</ele>
        <time>2018-01-02T13:43:07Z</time>
      </trkpt>
      <trkpt lat="41.668975" lon="2.411816">
        <ele>122.60</ele>
        <time>2018-01-02T13:43:11Z</time>
      </trkpt>
      <trkpt lat="41.668978" lon="2.411722">
        <ele>122.80</ele>
        <time>2018-01-02T13:43:12Z</time>
      </trkpt>
      <trkpt lat="41.668981" lon="2.411627">
        <ele>123.00</ele>
        <time>2018-01-02T13:43:13Z</time>
      </trkpt>
      <trkpt lat="41.669017" lon="2.411468">
        <ele>123.80</ele>
        <time>2018-01-02T13:43:15Z</time>
      </trkpt>
      <trkpt lat="41.669055" lon="2.411415">
        <ele>123.80</ele>
        <time>2018-01-02T13:43:16Z</time>
      </trkpt>
      <trkpt lat="41.669267" lon="2.411250">
        <ele>124.20</ele>
        <time>2018-01-02T13:43:20Z</time>
      </trkpt>
      <trkpt lat="41.669380" lon="2.411159">
        <ele>124.60</ele>
        <time>2018-01-02T13:43:22Z</time>
      </trkpt>
      <trkpt lat="41.669552" lon="2.411019">
        <ele>125.00</ele>
        <time>2018-01-02T13:43:25Z</time>
      </trkpt>
      <trkpt lat="41.669794" lon="2.410825">
        <ele>125.40</ele>
        <time>2018-01-02T13:43:29Z</time>
      </trkpt>
      <trkpt lat="41.669924" lon="2.410727">
        <ele>125.40</ele>
        <time>2018-01-02T13:43:31Z</time>
      </trkpt>
      <trkpt lat="41.669990" lon="2.410678">
        <ele>125.60</ele>
        <time>2018-01-02T13:43:32Z</time>
      </trkpt>
      <trkpt lat="41.670058" lon="2.410632">
        <ele>125.80</ele>
        <time>2018-01-02T13:43:33Z</time>
      </trkpt>
      <trkpt lat="41.670203" lon="2.410554">
        <ele>126.00</ele>
        <time>2018-01-02T13:43:35Z</time>
      </trkpt>
      <trkpt lat="41.670278" lon="2.410516">
        <ele>126.20</ele>
        <time>2018-01-02T13:43:36Z</time>
      </trkpt>
      <trkpt lat="41.670475" lon="2.410388">
        <ele>126.20</ele>
        <time>2018-01-02T13:43:39Z</time>
      </trkpt>
      <trkpt lat="41.670549" lon="2.410248">
        <ele>126.40</ele>
        <time>2018-01-02T13:43:41Z</time>
      </trkpt>
      <trkpt lat="41.670549" lon="2.410170">
        <ele>126.80</ele>
        <time>2018-01-02T13:43:42Z</time>
      </trkpt>
      <trkpt lat="41.670485" lon="2.410021">
        <ele>127.40</ele>
        <time>2018-01-02T13:43:44Z</time>
      </trkpt>
      <trkpt lat="41.670323" lon="2.409766">
        <ele>127.80</ele>
        <time>2018-01-02T13:43:47Z</time>
      </trkpt>
      <trkpt lat="41.670263" lon="2.409668">
        <ele>128.00</ele>
        <time>2018-01-02T13:43:48Z</time>
      </trkpt>
      <trkpt lat="41.670203" lon="2.409567">
        <ele>128.20</ele>
        <time>2018-01-02T13:43:49Z</time>
      </trkpt>
      <trkpt lat="41.670144" lon="2.409464">
        <ele>128.80</ele>
        <time>2018-01-02T13:43:50Z</time>
      </trkpt>
      <trkpt lat="41.670046" lon="2.409249">
        <ele>129.80</ele>
        <time>2018-01-02T13:43:52Z</time>
      </trkpt>
      <trkpt lat="41.670012" lon="2.409136">
        <ele>130.20</ele>
        <time>2018-01-02T13:43:53Z</time>
      </trkpt>
      <trkpt lat="41.669986" lon="2.409021">
        <ele>130.40</ele>
        <time>2018-01-02T13:43:54Z</time>
      </trkpt>
      <trkpt lat="41.669961" lon="2.408784">
        <ele>130.80</ele>
        <time>2018-01-02T13:43:56Z</time>
      </trkpt>
      <trkpt lat="41.669925" lon="2.408539">
        <ele>131.60</ele>
        <time>2018-01-02T13:43:58Z</time>
      </trkpt>
      <trkpt lat="41.669858" lon="2.408160">
        <ele>132.20</ele>
        <time>2018-01-02T13:44:01Z</time>
      </trkpt>
      <trkpt lat="41.669816" lon="2.407900">
        <ele>133.20</ele>
        <time>2018-01-02T13:44:03Z</time>
      </trkpt>
      <trkpt lat="41.669777" lon="2.407641">
        <ele>134.60</ele>
        <time>2018-01-02T13:44:05Z</time>
      </trkpt>
      <trkpt lat="41.669757" lon="2.407504">
        <ele>135.40</ele>
        <time>2018-01-02T13:44:06Z</time>
      </trkpt>
      <trkpt lat="41.669738" lon="2.407368">
        <ele>136.00</ele>
        <time>2018-01-02T13:44:07Z</time>
      </trkpt>
      <trkpt lat="41.669699" lon="2.407101">
        <ele>138.40</ele>
        <time>2018-01-02T13:44:09Z</time>
      </trkpt>
      <trkpt lat="41.669677" lon="2.406969">
        <ele>139.40</ele>
        <time>2018-01-02T13:44:10Z</time>
      </trkpt>
      <trkpt lat="41.669631" lon="2.406713">
        <ele>141.00</ele>
        <time>2018-01-02T13:44:12Z</time>
      </trkpt>
      <trkpt lat="41.669595" lon="2.406478">
        <ele>142.40</ele>
        <time>2018-01-02T13:44:14Z</time>
      </trkpt>
      <trkpt lat="41.669570" lon="2.406253">
        <ele>143.80</ele>
        <time>2018-01-02T13:44:16Z</time>
      </trkpt>
      <trkpt lat="41.669556" lon="2.406147">
        <ele>144.60</ele>
        <time>2018-01-02T13:44:17Z</time>
      </trkpt>
      <trkpt lat="41.669506" lon="2.405624">
        <ele>145.20</ele>
        <time>2018-01-02T13:44:23Z</time>
      </trkpt>
      <trkpt lat="41.669505" lon="2.405544">
        <ele>145.20</ele>
        <time>2018-01-02T13:44:24Z</time>
      </trkpt>
      <trkpt lat="41.669509" lon="2.405465">
        <ele>145.00</ele>
        <time>2018-01-02T13:44:25Z</time>
      </trkpt>
      <trkpt lat="41.669565" lon="2.405154">
        <ele>144.60</ele>
        <time>2018-01-02T13:44:29Z</time>
      </trkpt>
      <trkpt lat="41.669621" lon="2.404912">
        <ele>144.60</ele>
        <time>2018-01-02T13:44:32Z</time>
      </trkpt>
      <trkpt lat="41.669642" lon="2.404743">
        <ele>144.40</ele>
        <time>2018-01-02T13:44:34Z</time>
      </trkpt>
      <trkpt lat="41.669652" lon="2.404569">
        <ele>144.60</ele>
        <time>2018-01-02T13:44:36Z</time>
      </trkpt>
      <trkpt lat="41.669679" lon="2.404323">
        <ele>144.60</ele>
        <time>2018-01-02T13:44:39Z</time>
      </trkpt>
      <trkpt lat="41.669779" lon="2.404121">
        <ele>145.00</ele>
        <time>2018-01-02T13:44:42Z</time>
      </trkpt>
      <trkpt lat="41.669829" lon="2.404068">
        <ele>145.00</ele>
        <time>2018-01-02T13:44:43Z</time>
      </trkpt>
      <trkpt lat="41.669989" lon="2.403922">
        <ele>145.00</ele>
        <time>2018-01-02T13:44:46Z</time>
      </trkpt>
      <trkpt lat="41.670198" lon="2.403728">
        <ele>145.80</ele>
        <time>2018-01-02T13:44:50Z</time>
      </trkpt>
      <trkpt lat="41.670309" lon="2.403635">
        <ele>145.80</ele>
        <time>2018-01-02T13:44:52Z</time>
      </trkpt>
      <trkpt lat="41.670418" lon="2.403531">
        <ele>146.40</ele>
        <time>2018-01-02T13:44:54Z</time>
      </trkpt>
      <trkpt lat="41.670524" lon="2.403430">
        <ele>147.20</ele>
        <time>2018-01-02T13:44:56Z</time>
      </trkpt>
      <trkpt lat="41.670570" lon="2.403374">
        <ele>147.60</ele>
        <time>2018-01-02T13:44:57Z</time>
      </trkpt>
      <trkpt lat="41.670612" lon="2.403320">
        <ele>147.60</ele>
        <time>2018-01-02T13:44:58Z</time>
      </trkpt>
      <trkpt lat="41.670672" lon="2.403218">
        <ele>148.00</ele>
        <time>2018-01-02T13:45:00Z</time>
      </trkpt>
      <trkpt lat="41.670680" lon="2.403161">
        <ele>148.00</ele>
        <time>2018-01-02T13:45:01Z</time>
      </trkpt>
      <trkpt lat="41.670669" lon="2.403105">
        <ele>148.00</ele>
        <time>2018-01-02T13:45:02Z</time>
      </trkpt>
      <trkpt lat="41.670617" lon="2.402992">
        <ele>147.80</ele>
        <time>2018-01-02T13:45:04Z</time>
      </trkpt>
      <trkpt lat="41.670590" lon="2.402937">
        <ele>147.80</ele>
        <time>2018-01-02T13:45:05Z</time>
      </trkpt>
      <trkpt lat="41.670562" lon="2.402881">
        <ele>147.80</ele>
        <time>2018-01-02T13:45:06Z</time>
      </trkpt>
      <trkpt lat="41.670496" lon="2.402777">
        <ele>147.60</ele>
        <time>2018-01-02T13:45:08Z</time>
      </trkpt>
      <trkpt lat="41.670475" lon="2.402724">
        <ele>147.80</ele>
        <time>2018-01-02T13:45:09Z</time>
      </trkpt>
      <trkpt lat="41.670472" lon="2.402670">
        <ele>147.80</ele>
        <time>2018-01-02T13:45:10Z</time>
      </trkpt>
      <trkpt lat="41.670487" lon="2.402631">
        <ele>148.00</ele>
        <time>2018-01-02T13:45:11Z</time>
      </trkpt>
      <trkpt lat="41.670643" lon="2.402426">
        <ele>148.80</ele>
        <time>2018-01-02T13:45:15Z</time>
      </trkpt>
      <trkpt lat="41.670694" lon="2.402371">
        <ele>149.00</ele>
        <time>2018-01-02T13:45:16Z</time>
      </trkpt>
      <trkpt lat="41.670854" lon="2.402203">
        <ele>149.20</ele>
        <time>2018-01-02T13:45:19Z</time>
      </trkpt>
      <trkpt lat="41.671062" lon="2.401990">
        <ele>150.00</ele>
        <time>2018-01-02T13:45:23Z</time>
      </trkpt>
      <trkpt lat="41.671209" lon="2.401842">
        <ele>150.80</ele>
        <time>2018-01-02T13:45:26Z</time>
      </trkpt>
      <trkpt lat="41.671339" lon="2.401708">
        <ele>151.20</ele>
        <time>2018-01-02T13:45:29Z</time>
      </trkpt>
      <trkpt lat="41.671384" lon="2.401666">
        <ele>151.40</ele>
        <time>2018-01-02T13:45:30Z</time>
      </trkpt>
      <trkpt lat="41.671429" lon="2.401626">
        <ele>151.60</ele>
        <time>2018-01-02T13:45:31Z</time>
      </trkpt>
      <trkpt lat="41.671519" lon="2.401546">
        <ele>152.00</ele>
        <time>2018-01-02T13:45:33Z</time>
      </trkpt>
      <trkpt lat="41.671594" lon="2.401480">
        <ele>151.60</ele>
        <time>2018-01-02T13:45:35Z</time>
      </trkpt>
      <trkpt lat="41.671662" lon="2.401421">
        <ele>151.80</ele>
        <time>2018-01-02T13:45:37Z</time>
      </trkpt>
      <trkpt lat="41.671760" lon="2.401304">
        <ele>152.20</ele>
        <time>2018-01-02T13:45:40Z</time>
      </trkpt>
      <trkpt lat="41.671961" lon="2.401059">
        <ele>152.60</ele>
        <time>2018-01-02T13:45:46Z</time>
      </trkpt>
      <trkpt lat="41.671991" lon="2.401032">
        <ele>153.40</ele>
        <time>2018-01-02T13:45:47Z</time>
      </trkpt>
      <trkpt lat="41.672044" lon="2.400980">
        <ele>153.40</ele>
        <time>2018-01-02T13:45:49Z</time>
      </trkpt>
      <trkpt lat="41.672080" lon="2.400925">
        <ele>153.40</ele>
        <time>2018-01-02T13:45:51Z</time>
      </trkpt>
      <trkpt lat="41.672380" lon="2.400703">
        <ele>141.80</ele>
        <time>2018-01-02T09:58:23Z</time>
      </trkpt>
      <trkpt lat="41.672376" lon="2.400710">
        <ele>141.80</ele>
        <time>2018-01-02T09:58:24Z</time>
      </trkpt>
      <trkpt lat="41.672424" lon="2.400645">
        <ele>142.00</ele>
        <time>2018-01-02T09:58:28Z</time>
      </trkpt>
      <trkpt lat="41.672428" lon="2.400631">
        <ele>142.20</ele>
        <time>2018-01-02T09:58:29Z</time>
      </trkpt>
      <trkpt lat="41.672433" lon="2.400608">
        <ele>142.20</ele>
        <time>2018-01-02T09:58:30Z</time>
      </trkpt>
      <trkpt lat="41.672422" lon="2.400556">
        <ele>142.20</ele>
        <time>2018-01-02T09:58:32Z</time>
      </trkpt>
      <trkpt lat="41.672403" lon="2.400370">
        <ele>142.60</ele>
        <time>2018-01-02T09:58:36Z</time>
      </trkpt>
      <trkpt lat="41.672286" lon="2.400215">
        <ele>142.60</ele>
        <time>2018-01-02T09:58:41Z</time>
      </trkpt>
      <trkpt lat="41.672223" lon="2.400124">
        <ele>142.80</ele>
        <time>2018-01-02T09:58:43Z</time>
      </trkpt>
      <trkpt lat="41.672148" lon="2.400007">
        <ele>143.00</ele>
        <time>2018-01-02T09:58:46Z</time>
      </trkpt>
      <trkpt lat="41.672100" lon="2.399907">
        <ele>143.00</ele>
        <time>2018-01-02T09:58:48Z</time>
      </trkpt>
      <trkpt lat="41.671980" lon="2.399675">
        <ele>142.60</ele>
        <time>2018-01-02T09:58:52Z</time>
      </trkpt>
      <trkpt lat="41.671894" lon="2.399498">
        <ele>142.40</ele>
        <time>2018-01-02T09:58:55Z</time>
      </trkpt>
      <trkpt lat="41.671865" lon="2.399437">
        <ele>142.20</ele>
        <time>2018-01-02T09:58:56Z</time>
      </trkpt>
      <trkpt lat="41.671803" lon="2.399305">
        <ele>141.80</ele>
        <time>2018-01-02T09:58:58Z</time>
      </trkpt>
      <trkpt lat="41.671749" lon="2.399167">
        <ele>141.40</ele>
        <time>2018-01-02T09:59:00Z</time>
      </trkpt>
      <trkpt lat="41.671695" lon="2.399037">
        <ele>141.20</ele>
        <time>2018-01-02T09:59:02Z</time>
      </trkpt>
      <trkpt lat="41.671580" lon="2.398773">
        <ele>140.80</ele>
        <time>2018-01-02T09:59:07Z</time>
      </trkpt>
      <trkpt lat="41.671554" lon="2.398727">
        <ele>140.80</ele>
        <time>2018-01-02T09:59:08Z</time>
      </trkpt>
      <trkpt lat="41.671507" lon="2.398617">
        <ele>140.80</ele>
        <time>2018-01-02T09:59:10Z</time>
      </trkpt>
      <trkpt lat="41.671425" lon="2.398423">
        <ele>140.60</ele>
        <time>2018-01-02T09:59:13Z</time>
      </trkpt>
      <trkpt lat="41.671400" lon="2.398349">
        <ele>140.40</ele>
        <time>2018-01-02T09:59:14Z</time>
      </trkpt>
      <trkpt lat="41.671380" lon="2.398191">
        <ele>140.40</ele>
        <time>2018-01-02T09:59:16Z</time>
      </trkpt>
      <trkpt lat="41.671436" lon="2.398061">
        <ele>140.60</ele>
        <time>2018-01-02T09:59:18Z</time>
      </trkpt>
      <trkpt lat="41.671526" lon="2.398043">
        <ele>140.60</ele>
        <time>2018-01-02T09:59:20Z</time>
      </trkpt>
      <trkpt lat="41.671624" lon="2.398046">
        <ele>140.80</ele>
        <time>2018-01-02T09:59:23Z</time>
      </trkpt>
      <trkpt lat="41.671673" lon="2.398039">
        <ele>140.80</ele>
        <time>2018-01-02T09:59:25Z</time>
      </trkpt>
      <trkpt lat="41.671722" lon="2.398025">
        <ele>141.00</ele>
        <time>2018-01-02T09:59:36Z</time>
      </trkpt>
      <trkpt lat="41.671751" lon="2.398025">
        <ele>141.40</ele>
        <time>2018-01-02T09:59:38Z</time>
      </trkpt>
      <trkpt lat="41.671746" lon="2.397980">
        <ele>141.40</ele>
        <time>2018-01-02T09:59:56Z</time>
      </trkpt>
      <trkpt lat="41.671725" lon="2.397946">
        <ele>141.40</ele>
        <time>2018-01-02T09:59:58Z</time>
      </trkpt>
      <trkpt lat="41.671693" lon="2.397864">
        <ele>141.40</ele>
        <time>2018-01-02T10:00:00Z</time>
      </trkpt>
      <trkpt lat="41.671630" lon="2.397725">
        <ele>141.60</ele>
        <time>2018-01-02T10:00:03Z</time>
      </trkpt>
      <trkpt lat="41.671600" lon="2.397665">
        <ele>142.00</ele>
        <time>2018-01-02T10:00:04Z</time>
      </trkpt>
      <trkpt lat="41.671565" lon="2.397603">
        <ele>142.40</ele>
        <time>2018-01-02T10:00:05Z</time>
      </trkpt>
      <trkpt lat="41.671485" lon="2.397461">
        <ele>142.80</ele>
        <time>2018-01-02T10:00:07Z</time>
      </trkpt>
      <trkpt lat="41.671382" lon="2.397297">
        <ele>143.80</ele>
        <time>2018-01-02T10:00:09Z</time>
      </trkpt>
      <trkpt lat="41.671274" lon="2.397128">
        <ele>145.20</ele>
        <time>2018-01-02T10:00:11Z</time>
      </trkpt>
      <trkpt lat="41.671119" lon="2.396852">
        <ele>146.60</ele>
        <time>2018-01-02T10:00:14Z</time>
      </trkpt>
      <trkpt lat="41.671067" lon="2.396758">
        <ele>147.20</ele>
        <time>2018-01-02T10:00:15Z</time>
      </trkpt>
      <trkpt lat="41.670974" lon="2.396585">
        <ele>148.20</ele>
        <time>2018-01-02T10:00:17Z</time>
      </trkpt>
      <trkpt lat="41.670930" lon="2.396508">
        <ele>148.40</ele>
        <time>2018-01-02T10:00:18Z</time>
      </trkpt>
      <trkpt lat="41.670888" lon="2.396433">
        <ele>148.80</ele>
        <time>2018-01-02T10:00:19Z</time>
      </trkpt>
      <trkpt lat="41.670849" lon="2.396362">
        <ele>149.20</ele>
        <time>2018-01-02T10:00:20Z</time>
      </trkpt>
      <trkpt lat="41.670754" lon="2.396200">
        <ele>150.40</ele>
        <time>2018-01-02T10:00:22Z</time>
      </trkpt>
      <trkpt lat="41.670647" lon="2.395996">
        <ele>151.60</ele>
        <time>2018-01-02T10:00:24Z</time>
      </trkpt>
      <trkpt lat="41.670533" lon="2.395785">
        <ele>152.80</ele>
        <time>2018-01-02T10:00:26Z</time>
      </trkpt>
      <trkpt lat="41.670437" lon="2.395572">
        <ele>154.20</ele>
        <time>2018-01-02T10:00:28Z</time>
      </trkpt>
      <trkpt lat="41.670392" lon="2.395477">
        <ele>155.00</ele>
        <time>2018-01-02T10:00:29Z</time>
      </trkpt>
      <trkpt lat="41.670353" lon="2.395384">
        <ele>155.80</ele>
        <time>2018-01-02T10:00:30Z</time>
      </trkpt>
      <trkpt lat="41.670318" lon="2.395185">
        <ele>157.40</ele>
        <time>2018-01-02T10:00:32Z</time>
      </trkpt>
      <trkpt lat="41.670307" lon="2.395090">
        <ele>157.80</ele>
        <time>2018-01-02T10:00:33Z</time>
      </trkpt>
      <trkpt lat="41.670270" lon="2.394923">
        <ele>159.00</ele>
        <time>2018-01-02T10:00:35Z</time>
      </trkpt>
      <trkpt lat="41.670204" lon="2.394665">
        <ele>159.20</ele>
        <time>2018-01-02T10:00:39Z</time>
      </trkpt>
      <trkpt lat="41.670152" lon="2.394426">
        <ele>158.60</ele>
        <time>2018-01-02T10:00:43Z</time>
      </trkpt>
      <trkpt lat="41.670133" lon="2.394368">
        <ele>158.40</ele>
        <time>2018-01-02T10:00:44Z</time>
      </trkpt>
      <trkpt lat="41.670078" lon="2.394191">
        <ele>158.00</ele>
        <time>2018-01-02T10:00:47Z</time>
      </trkpt>
      <trkpt lat="41.670043" lon="2.394072">
        <ele>157.60</ele>
        <time>2018-01-02T10:00:49Z</time>
      </trkpt>
      <trkpt lat="41.670025" lon="2.394014">
        <ele>157.20</ele>
        <time>2018-01-02T10:00:50Z</time>
      </trkpt>
      <trkpt lat="41.669985" lon="2.393901">
        <ele>157.00</ele>
        <time>2018-01-02T10:00:52Z</time>
      </trkpt>
      <trkpt lat="41.669944" lon="2.393785">
        <ele>156.40</ele>
        <time>2018-01-02T10:00:54Z</time>
      </trkpt>
      <trkpt lat="41.669921" lon="2.393727">
        <ele>156.40</ele>
        <time>2018-01-02T10:00:55Z</time>
      </trkpt>
      <trkpt lat="41.669866" lon="2.393616">
        <ele>156.00</ele>
        <time>2018-01-02T10:00:57Z</time>
      </trkpt>
      <trkpt lat="41.669811" lon="2.393502">
        <ele>155.40</ele>
        <time>2018-01-02T10:00:59Z</time>
      </trkpt>
      <trkpt lat="41.669751" lon="2.393383">
        <ele>155.20</ele>
        <time>2018-01-02T10:01:01Z</time>
      </trkpt>
      <trkpt lat="41.669684" lon="2.393261">
        <ele>155.00</ele>
        <time>2018-01-02T10:01:03Z</time>
      </trkpt>
      <trkpt lat="41.669517" lon="2.393043">
        <ele>154.80</ele>
        <time>2018-01-02T10:01:07Z</time>
      </trkpt>
      <trkpt lat="41.669472" lon="2.392993">
        <ele>154.80</ele>
        <time>2018-01-02T10:01:08Z</time>
      </trkpt>
      <trkpt lat="41.669369" lon="2.392915">
        <ele>154.80</ele>
        <time>2018-01-02T10:01:10Z</time>
      </trkpt>
      <trkpt lat="41.669201" lon="2.392831">
        <ele>154.80</ele>
        <time>2018-01-02T10:01:13Z</time>
      </trkpt>
      <trkpt lat="41.669025" lon="2.392740">
        <ele>155.00</ele>
        <time>2018-01-02T10:01:16Z</time>
      </trkpt>
      <trkpt lat="41.668907" lon="2.392675">
        <ele>155.40</ele>
        <time>2018-01-02T10:01:18Z</time>
      </trkpt>
      <trkpt lat="41.668850" lon="2.392642">
        <ele>155.60</ele>
        <time>2018-01-02T10:01:19Z</time>
      </trkpt>
      <trkpt lat="41.668791" lon="2.392608">
        <ele>155.80</ele>
        <time>2018-01-02T10:01:20Z</time>
      </trkpt>
      <trkpt lat="41.668737" lon="2.392573">
        <ele>156.00</ele>
        <time>2018-01-02T10:01:21Z</time>
      </trkpt>
      <trkpt lat="41.668682" lon="2.392539">
        <ele>156.20</ele>
        <time>2018-01-02T10:01:22Z</time>
      </trkpt>
      <trkpt lat="41.668397" lon="2.392346">
        <ele>157.20</ele>
        <time>2018-01-02T10:01:28Z</time>
      </trkpt>
      <trkpt lat="41.668199" lon="2.392223">
        <ele>157.00</ele>
        <time>2018-01-02T10:01:34Z</time>
      </trkpt>
      <trkpt lat="41.667969" lon="2.392212">
        <ele>156.60</ele>
        <time>2018-01-02T10:01:41Z</time>
      </trkpt>
      <trkpt lat="41.667937" lon="2.392212">
        <ele>156.40</ele>
        <time>2018-01-02T10:01:42Z</time>
      </trkpt>
      <trkpt lat="41.667788" lon="2.392235">
        <ele>155.40</ele>
        <time>2018-01-02T10:01:47Z</time>
      </trkpt>
      <trkpt lat="41.667760" lon="2.392245">
        <ele>155.20</ele>
        <time>2018-01-02T10:01:48Z</time>
      </trkpt>
      <trkpt lat="41.667593" lon="2.392282">
        <ele>154.20</ele>
        <time>2018-01-02T10:01:54Z</time>
      </trkpt>
      <trkpt lat="41.667541" lon="2.392292">
        <ele>153.40</ele>
        <time>2018-01-02T10:01:56Z</time>
      </trkpt>
      <trkpt lat="41.667459" lon="2.392311">
        <ele>153.20</ele>
        <time>2018-01-02T10:01:59Z</time>
      </trkpt>
      <trkpt lat="41.667336" lon="2.392339">
        <ele>152.00</ele>
        <time>2018-01-02T10:02:03Z</time>
      </trkpt>
      <trkpt lat="41.667209" lon="2.392353">
        <ele>151.00</ele>
        <time>2018-01-02T10:02:07Z</time>
      </trkpt>
      <trkpt lat="41.667072" lon="2.392356">
        <ele>149.80</ele>
        <time>2018-01-02T10:02:11Z</time>
      </trkpt>
      <trkpt lat="41.667038" lon="2.392353">
        <ele>149.80</ele>
        <time>2018-01-02T10:02:12Z</time>
      </trkpt>
      <trkpt lat="41.666876" lon="2.392334">
        <ele>148.80</ele>
        <time>2018-01-02T10:02:17Z</time>
      </trkpt>
      <trkpt lat="41.666807" lon="2.392325">
        <ele>148.60</ele>
        <time>2018-01-02T10:02:19Z</time>
      </trkpt>
      <trkpt lat="41.666605" lon="2.392287">
        <ele>147.60</ele>
        <time>2018-01-02T10:02:25Z</time>
      </trkpt>
      <trkpt lat="41.666509" lon="2.392266">
        <ele>147.20</ele>
        <time>2018-01-02T10:02:28Z</time>
      </trkpt>
      <trkpt lat="41.666384" lon="2.392241">
        <ele>146.60</ele>
        <time>2018-01-02T10:02:32Z</time>
      </trkpt>
      <trkpt lat="41.666290" lon="2.392229">
        <ele>146.20</ele>
        <time>2018-01-02T10:02:35Z</time>
      </trkpt>
      <trkpt lat="41.666199" lon="2.392213">
        <ele>145.40</ele>
        <time>2018-01-02T10:02:38Z</time>
      </trkpt>
      <trkpt lat="41.666057" lon="2.392190">
        <ele>145.00</ele>
        <time>2018-01-02T10:02:43Z</time>
      </trkpt>
      <trkpt lat="41.665952" lon="2.392173">
        <ele>144.40</ele>
        <time>2018-01-02T10:02:47Z</time>
      </trkpt>
      <trkpt lat="41.665881" lon="2.392157">
        <ele>144.00</ele>
        <time>2018-01-02T10:02:50Z</time>
      </trkpt>
      <trkpt lat="41.665780" lon="2.392137">
        <ele>143.80</ele>
        <time>2018-01-02T10:02:54Z</time>
      </trkpt>
      <trkpt lat="41.665733" lon="2.392137">
        <ele>143.40</ele>
        <time>2018-01-02T10:02:56Z</time>
      </trkpt>
      <trkpt lat="41.665712" lon="2.392131">
        <ele>143.40</ele>
        <time>2018-01-02T10:02:57Z</time>
      </trkpt>
      <trkpt lat="41.665699" lon="2.392111">
        <ele>143.20</ele>
        <time>2018-01-02T10:02:58Z</time>
      </trkpt>
      <trkpt lat="41.665705" lon="2.392074">
        <ele>142.60</ele>
        <time>2018-01-02T10:03:00Z</time>
      </trkpt>
      <trkpt lat="41.665715" lon="2.392059">
        <ele>142.60</ele>
        <time>2018-01-02T10:03:01Z</time>
      </trkpt>
      <trkpt lat="41.665731" lon="2.392044">
        <ele>142.20</ele>
        <time>2018-01-02T10:03:03Z</time>
      </trkpt>
      <trkpt lat="41.665734" lon="2.392017">
        <ele>141.60</ele>
        <time>2018-01-02T10:03:05Z</time>
      </trkpt>
      <trkpt lat="41.665735" lon="2.391994">
        <ele>141.20</ele>
        <time>2018-01-02T10:03:06Z</time>
      </trkpt>
      <trkpt lat="41.665739" lon="2.391940">
        <ele>140.40</ele>
        <time>2018-01-02T10:03:08Z</time>
      </trkpt>
      <trkpt lat="41.665740" lon="2.391910">
        <ele>139.80</ele>
        <time>2018-01-02T10:03:09Z</time>
      </trkpt>
      <trkpt lat="41.665745" lon="2.391850">
        <ele>139.00</ele>
        <time>2018-01-02T10:03:11Z</time>
      </trkpt>
      <trkpt lat="41.665754" lon="2.391815">
        <ele>138.60</ele>
        <time>2018-01-02T10:03:12Z</time>
      </trkpt>
      <trkpt lat="41.665769" lon="2.391780">
        <ele>138.20</ele>
        <time>2018-01-02T10:03:13Z</time>
      </trkpt>
      <trkpt lat="41.665801" lon="2.391713">
        <ele>137.40</ele>
        <time>2018-01-02T10:03:15Z</time>
      </trkpt>
      <trkpt lat="41.665804" lon="2.391680">
        <ele>137.40</ele>
        <time>2018-01-02T10:03:16Z</time>
      </trkpt>
      <trkpt lat="41.665799" lon="2.391651">
        <ele>137.20</ele>
        <time>2018-01-02T10:03:17Z</time>
      </trkpt>
      <trkpt lat="41.665775" lon="2.391616">
        <ele>137.20</ele>
        <time>2018-01-02T10:03:19Z</time>
      </trkpt>
      <trkpt lat="41.665762" lon="2.391606">
        <ele>137.00</ele>
        <time>2018-01-02T10:03:20Z</time>
      </trkpt>
      <trkpt lat="41.665748" lon="2.391595">
        <ele>137.00</ele>
        <time>2018-01-02T10:03:21Z</time>
      </trkpt>
      <trkpt lat="41.665697" lon="2.391504">
        <ele>136.80</ele>
        <time>2018-01-02T10:09:48Z</time>
      </trkpt>
      <trkpt lat="41.665709" lon="2.391480">
        <ele>136.40</ele>
        <time>2018-01-02T10:09:50Z</time>
      </trkpt>
      <trkpt lat="41.665722" lon="2.391467">
        <ele>136.20</ele>
        <time>2018-01-02T10:09:51Z</time>
      </trkpt>
      <trkpt lat="41.665755" lon="2.391440">
        <ele>135.60</ele>
        <time>2018-01-02T10:09:53Z</time>
      </trkpt>
      <trkpt lat="41.665783" lon="2.391409">
        <ele>135.00</ele>
        <time>2018-01-02T10:09:55Z</time>
      </trkpt>
      <trkpt lat="41.665795" lon="2.391392">
        <ele>134.60</ele>
        <time>2018-01-02T10:09:56Z</time>
      </trkpt>
      <trkpt lat="41.665816" lon="2.391346">
        <ele>134.20</ele>
        <time>2018-01-02T10:09:58Z</time>
      </trkpt>
      <trkpt lat="41.665845" lon="2.391255">
        <ele>133.80</ele>
        <time>2018-01-02T10:10:01Z</time>
      </trkpt>
      <trkpt lat="41.665837" lon="2.391030">
        <ele>132.80</ele>
        <time>2018-01-02T10:10:05Z</time>
      </trkpt>
      <trkpt lat="41.665871" lon="2.390817">
        <ele>133.40</ele>
        <time>2018-01-02T10:10:08Z</time>
      </trkpt>
      <trkpt lat="41.665897" lon="2.390775">
        <ele>133.60</ele>
        <time>2018-01-02T10:10:09Z</time>
      </trkpt>
      <trkpt lat="41.665934" lon="2.390753">
        <ele>133.80</ele>
        <time>2018-01-02T10:10:10Z</time>
      </trkpt>
      <trkpt lat="41.665984" lon="2.390739">
        <ele>134.00</ele>
        <time>2018-01-02T10:10:11Z</time>
      </trkpt>
      <trkpt lat="41.666092" lon="2.390704">
        <ele>134.60</ele>
        <time>2018-01-02T10:10:13Z</time>
      </trkpt>
      <trkpt lat="41.666195" lon="2.390645">
        <ele>135.20</ele>
        <time>2018-01-02T10:10:15Z</time>
      </trkpt>
      <trkpt lat="41.666381" lon="2.390628">
        <ele>135.80</ele>
        <time>2018-01-02T10:10:18Z</time>
      </trkpt>
      <trkpt lat="41.666510" lon="2.390640">
        <ele>136.40</ele>
        <time>2018-01-02T10:10:20Z</time>
      </trkpt>
      <trkpt lat="41.666748" lon="2.390685">
        <ele>137.00</ele>
        <time>2018-01-02T10:10:24Z</time>
      </trkpt>
      <trkpt lat="41.666856" lon="2.390685">
        <ele>137.20</ele>
        <time>2018-01-02T10:10:26Z</time>
      </trkpt>
      <trkpt lat="41.666908" lon="2.390686">
        <ele>137.00</ele>
        <time>2018-01-02T10:10:27Z</time>
      </trkpt>
      <trkpt lat="41.667126" lon="2.390752">
        <ele>136.40</ele>
        <time>2018-01-02T10:10:31Z</time>
      </trkpt>
      <trkpt lat="41.667231" lon="2.390794">
        <ele>136.60</ele>
        <time>2018-01-02T10:10:33Z</time>
      </trkpt>
      <trkpt lat="41.667326" lon="2.390819">
        <ele>136.60</ele>
        <time>2018-01-02T10:10:35Z</time>
      </trkpt>
      <trkpt lat="41.667368" lon="2.390820">
        <ele>136.00</ele>
        <time>2018-01-02T10:10:36Z</time>
      </trkpt>
      <trkpt lat="41.667436" lon="2.390777">
        <ele>134.80</ele>
        <time>2018-01-02T10:10:38Z</time>
      </trkpt>
      <trkpt lat="41.667461" lon="2.390683">
        <ele>133.00</ele>
        <time>2018-01-02T10:10:40Z</time>
      </trkpt>
      <trkpt lat="41.667446" lon="2.390618">
        <ele>132.00</ele>
        <time>2018-01-02T10:10:41Z</time>
      </trkpt>
      <trkpt lat="41.667420" lon="2.390549">
        <ele>131.20</ele>
        <time>2018-01-02T10:10:42Z</time>
      </trkpt>
      <trkpt lat="41.667374" lon="2.390474">
        <ele>130.20</ele>
        <time>2018-01-02T10:10:43Z</time>
      </trkpt>
      <trkpt lat="41.667316" lon="2.390394">
        <ele>129.40</ele>
        <time>2018-01-02T10:10:44Z</time>
      </trkpt>
      <trkpt lat="41.667107" lon="2.390143">
        <ele>128.60</ele>
        <time>2018-01-02T10:10:47Z</time>
      </trkpt>
      <trkpt lat="41.667027" lon="2.390056">
        <ele>128.60</ele>
        <time>2018-01-02T10:10:48Z</time>
      </trkpt>
      <trkpt lat="41.666941" lon="2.389975">
        <ele>129.00</ele>
        <time>2018-01-02T10:10:49Z</time>
      </trkpt>
      <trkpt lat="41.666764" lon="2.389806">
        <ele>130.00</ele>
        <time>2018-01-02T10:10:51Z</time>
      </trkpt>
      <trkpt lat="41.666680" lon="2.389708">
        <ele>130.60</ele>
        <time>2018-01-02T10:10:52Z</time>
      </trkpt>
      <trkpt lat="41.666601" lon="2.389603">
        <ele>131.40</ele>
        <time>2018-01-02T10:10:53Z</time>
      </trkpt>
      <trkpt lat="41.666525" lon="2.389504">
        <ele>132.60</ele>
        <time>2018-01-02T10:10:54Z</time>
      </trkpt>
      <trkpt lat="41.666452" lon="2.389408">
        <ele>133.80</ele>
        <time>2018-01-02T10:10:55Z</time>
      </trkpt>
      <trkpt lat="41.666385" lon="2.389320">
        <ele>135.00</ele>
        <time>2018-01-02T10:10:56Z</time>
      </trkpt>
      <trkpt lat="41.666330" lon="2.389238">
        <ele>136.00</ele>
        <time>2018-01-02T10:10:57Z</time>
      </trkpt>
      <trkpt lat="41.666256" lon="2.389092">
        <ele>137.40</ele>
        <time>2018-01-02T10:10:59Z</time>
      </trkpt>
      <trkpt lat="41.666263" lon="2.388981">
        <ele>138.60</ele>
        <time>2018-01-02T10:11:02Z</time>
      </trkpt>
      <trkpt lat="41.666367" lon="2.388920">
        <ele>139.60</ele>
        <time>2018-01-02T10:11:05Z</time>
      </trkpt>
      <trkpt lat="41.666430" lon="2.388905">
        <ele>139.80</ele>
        <time>2018-01-02T10:11:06Z</time>
      </trkpt>
      <trkpt lat="41.666567" lon="2.388832">
        <ele>140.40</ele>
        <time>2018-01-02T10:11:08Z</time>
      </trkpt>
      <trkpt lat="41.666660" lon="2.388695">
        <ele>141.00</ele>
        <time>2018-01-02T10:11:10Z</time>
      </trkpt>
      <trkpt lat="41.666706" lon="2.388513">
        <ele>141.60</ele>
        <time>2018-01-02T10:11:12Z</time>
      </trkpt>
      <trkpt lat="41.666713" lon="2.388318">
        <ele>142.00</ele>
        <time>2018-01-02T10:11:14Z</time>
      </trkpt>
      <trkpt lat="41.666692" lon="2.388228">
        <ele>142.40</ele>
        <time>2018-01-02T10:11:15Z</time>
      </trkpt>
      <trkpt lat="41.666655" lon="2.388145">
        <ele>142.80</ele>
        <time>2018-01-02T10:11:16Z</time>
      </trkpt>
      <trkpt lat="41.666484" lon="2.387902">
        <ele>143.00</ele>
        <time>2018-01-02T10:11:19Z</time>
      </trkpt>
      <trkpt lat="41.666283" lon="2.387510">
        <ele>143.40</ele>
        <time>2018-01-02T10:11:23Z</time>
      </trkpt>
      <trkpt lat="41.666193" lon="2.387282">
        <ele>144.40</ele>
        <time>2018-01-02T10:11:25Z</time>
      </trkpt>
      <trkpt lat="41.666101" lon="2.387048">
        <ele>145.60</ele>
        <time>2018-01-02T10:11:27Z</time>
      </trkpt>
      <trkpt lat="41.666057" lon="2.386933">
        <ele>146.80</ele>
        <time>2018-01-02T10:11:28Z</time>
      </trkpt>
      <trkpt lat="41.666014" lon="2.386820">
        <ele>147.80</ele>
        <time>2018-01-02T10:11:29Z</time>
      </trkpt>
      <trkpt lat="41.665977" lon="2.386707">
        <ele>148.40</ele>
        <time>2018-01-02T10:11:30Z</time>
      </trkpt>
      <trkpt lat="41.665920" lon="2.386482">
        <ele>150.00</ele>
        <time>2018-01-02T10:11:32Z</time>
      </trkpt>
      <trkpt lat="41.665890" lon="2.386378">
        <ele>151.00</ele>
        <time>2018-01-02T10:11:33Z</time>
      </trkpt>
      <trkpt lat="41.665803" lon="2.386241">
        <ele>152.60</ele>
        <time>2018-01-02T10:11:35Z</time>
      </trkpt>
      <trkpt lat="41.665748" lon="2.386215">
        <ele>153.00</ele>
        <time>2018-01-02T10:11:36Z</time>
      </trkpt>
      <trkpt lat="41.665644" lon="2.386203">
        <ele>153.80</ele>
        <time>2018-01-02T10:11:38Z</time>
      </trkpt>
      <trkpt lat="41.665561" lon="2.386193">
        <ele>154.40</ele>
        <time>2018-01-02T10:11:40Z</time>
      </trkpt>
      <trkpt lat="41.665497" lon="2.386153">
        <ele>154.40</ele>
        <time>2018-01-02T10:11:42Z</time>
      </trkpt>
      <trkpt lat="41.665452" lon="2.386047">
        <ele>154.20</ele>
        <time>2018-01-02T10:11:45Z</time>
      </trkpt>
      <trkpt lat="41.665425" lon="2.385966">
        <ele>153.60</ele>
        <time>2018-01-02T10:11:47Z</time>
      </trkpt>
      <trkpt lat="41.665409" lon="2.385919">
        <ele>152.60</ele>
        <time>2018-01-02T10:11:48Z</time>
      </trkpt>
      <trkpt lat="41.665390" lon="2.385867">
        <ele>151.80</ele>
        <time>2018-01-02T10:11:49Z</time>
      </trkpt>
      <trkpt lat="41.665375" lon="2.385812">
        <ele>151.40</ele>
        <time>2018-01-02T10:11:50Z</time>
      </trkpt>
      <trkpt lat="41.665322" lon="2.385675">
        <ele>151.00</ele>
        <time>2018-01-02T10:11:53Z</time>
      </trkpt>
      <trkpt lat="41.665346" lon="2.385578">
        <ele>150.60</ele>
        <time>2018-01-02T10:11:55Z</time>
      </trkpt>
      <trkpt lat="41.665394" lon="2.385526">
        <ele>150.40</ele>
        <time>2018-01-02T10:11:56Z</time>
      </trkpt>
      <trkpt lat="41.665620" lon="2.385419">
        <ele>150.00</ele>
        <time>2018-01-02T10:11:59Z</time>
      </trkpt>
      <trkpt lat="41.665769" lon="2.385340">
        <ele>149.60</ele>
        <time>2018-01-02T10:12:01Z</time>
      </trkpt>
      <trkpt lat="41.665840" lon="2.385300">
        <ele>149.20</ele>
        <time>2018-01-02T10:12:02Z</time>
      </trkpt>
      <trkpt lat="41.665912" lon="2.385259">
        <ele>149.60</ele>
        <time>2018-01-02T10:12:03Z</time>
      </trkpt>
      <trkpt lat="41.665990" lon="2.385224">
        <ele>150.40</ele>
        <time>2018-01-02T10:12:04Z</time>
      </trkpt>
      <trkpt lat="41.666080" lon="2.385211">
        <ele>151.40</ele>
        <time>2018-01-02T10:12:05Z</time>
      </trkpt>
      <trkpt lat="41.666163" lon="2.385207">
        <ele>152.20</ele>
        <time>2018-01-02T10:12:06Z</time>
      </trkpt>
      <trkpt lat="41.666242" lon="2.385191">
        <ele>153.20</ele>
        <time>2018-01-02T10:12:07Z</time>
      </trkpt>
      <trkpt lat="41.666390" lon="2.385145">
        <ele>154.40</ele>
        <time>2018-01-02T10:12:09Z</time>
      </trkpt>
      <trkpt lat="41.666492" lon="2.385141">
        <ele>155.60</ele>
        <time>2018-01-02T10:12:11Z</time>
      </trkpt>
      <trkpt lat="41.666656" lon="2.385187">
        <ele>157.80</ele>
        <time>2018-01-02T10:12:14Z</time>
      </trkpt>
      <trkpt lat="41.666777" lon="2.385224">
        <ele>158.80</ele>
        <time>2018-01-02T10:12:16Z</time>
      </trkpt>
      <trkpt lat="41.666839" lon="2.385242">
        <ele>159.40</ele>
        <time>2018-01-02T10:12:17Z</time>
      </trkpt>
      <trkpt lat="41.667069" lon="2.385265">
        <ele>159.80</ele>
        <time>2018-01-02T10:12:21Z</time>
      </trkpt>
      <trkpt lat="41.667233" lon="2.385194">
        <ele>158.80</ele>
        <time>2018-01-02T10:12:24Z</time>
      </trkpt>
      <trkpt lat="41.667361" lon="2.385137">
        <ele>158.00</ele>
        <time>2018-01-02T10:12:26Z</time>
      </trkpt>
      <trkpt lat="41.667428" lon="2.385112">
        <ele>157.80</ele>
        <time>2018-01-02T10:12:27Z</time>
      </trkpt>
      <trkpt lat="41.667573" lon="2.385073">
        <ele>157.20</ele>
        <time>2018-01-02T10:12:29Z</time>
      </trkpt>
      <trkpt lat="41.667732" lon="2.385029">
        <ele>156.80</ele>
        <time>2018-01-02T10:12:31Z</time>
      </trkpt>
      <trkpt lat="41.667814" lon="2.385003">
        <ele>156.80</ele>
        <time>2018-01-02T10:12:32Z</time>
      </trkpt>
      <trkpt lat="41.667981" lon="2.384957">
        <ele>157.20</ele>
        <time>2018-01-02T10:12:34Z</time>
      </trkpt>
      <trkpt lat="41.668140" lon="2.384928">
        <ele>157.60</ele>
        <time>2018-01-02T10:12:36Z</time>
      </trkpt>
      <trkpt lat="41.668274" lon="2.384861">
        <ele>158.20</ele>
        <time>2018-01-02T10:12:38Z</time>
      </trkpt>
      <trkpt lat="41.668320" lon="2.384791">
        <ele>158.20</ele>
        <time>2018-01-02T10:12:39Z</time>
      </trkpt>
      <trkpt lat="41.668367" lon="2.384593">
        <ele>158.60</ele>
        <time>2018-01-02T10:12:41Z</time>
      </trkpt>
      <trkpt lat="41.668387" lon="2.384349">
        <ele>159.80</ele>
        <time>2018-01-02T10:12:43Z</time>
      </trkpt>
      <trkpt lat="41.668401" lon="2.384103">
        <ele>160.20</ele>
        <time>2018-01-02T10:12:45Z</time>
      </trkpt>
      <trkpt lat="41.668409" lon="2.383986">
        <ele>160.60</ele>
        <time>2018-01-02T10:12:46Z</time>
      </trkpt>
      <trkpt lat="41.668419" lon="2.383878">
        <ele>161.00</ele>
        <time>2018-01-02T10:12:47Z</time>
      </trkpt>
      <trkpt lat="41.668440" lon="2.383687">
        <ele>162.40</ele>
        <time>2018-01-02T10:12:49Z</time>
      </trkpt>
      <trkpt lat="41.668528" lon="2.383581">
        <ele>164.20</ele>
        <time>2018-01-02T10:12:51Z</time>
      </trkpt>
      <trkpt lat="41.668654" lon="2.383564">
        <ele>165.40</ele>
        <time>2018-01-02T10:12:53Z</time>
      </trkpt>
      <trkpt lat="41.668735" lon="2.383558">
        <ele>165.80</ele>
        <time>2018-01-02T10:12:54Z</time>
      </trkpt>
      <trkpt lat="41.668829" lon="2.383547">
        <ele>166.60</ele>
        <time>2018-01-02T10:12:55Z</time>
      </trkpt>
      <trkpt lat="41.669029" lon="2.383529">
        <ele>168.00</ele>
        <time>2018-01-02T10:12:57Z</time>
      </trkpt>
      <trkpt lat="41.669229" lon="2.383510">
        <ele>169.60</ele>
        <time>2018-01-02T10:12:59Z</time>
      </trkpt>
      <trkpt lat="41.669433" lon="2.383473">
        <ele>171.80</ele>
        <time>2018-01-02T10:13:01Z</time>
      </trkpt>
      <trkpt lat="41.669723" lon="2.383392">
        <ele>173.40</ele>
        <time>2018-01-02T10:13:04Z</time>
      </trkpt>
      <trkpt lat="41.669902" lon="2.383324">
        <ele>174.40</ele>
        <time>2018-01-02T10:13:06Z</time>
      </trkpt>
      <trkpt lat="41.670080" lon="2.383259">
        <ele>175.60</ele>
        <time>2018-01-02T10:13:08Z</time>
      </trkpt>
      <trkpt lat="41.670266" lon="2.383185">
        <ele>177.00</ele>
        <time>2018-01-02T10:13:10Z</time>
      </trkpt>
      <trkpt lat="41.670449" lon="2.383105">
        <ele>178.00</ele>
        <time>2018-01-02T10:13:12Z</time>
      </trkpt>
      <trkpt lat="41.670716" lon="2.382984">
        <ele>179.00</ele>
        <time>2018-01-02T10:13:15Z</time>
      </trkpt>
      <trkpt lat="41.670889" lon="2.382908">
        <ele>180.20</ele>
        <time>2018-01-02T10:13:17Z</time>
      </trkpt>
      <trkpt lat="41.671061" lon="2.382829">
        <ele>181.20</ele>
        <time>2018-01-02T10:13:19Z</time>
      </trkpt>
      <trkpt lat="41.671146" lon="2.382787">
        <ele>181.40</ele>
        <time>2018-01-02T10:13:20Z</time>
      </trkpt>
      <trkpt lat="41.671375" lon="2.382664">
        <ele>182.80</ele>
        <time>2018-01-02T10:13:23Z</time>
      </trkpt>
      <trkpt lat="41.671446" lon="2.382624">
        <ele>184.00</ele>
        <time>2018-01-02T10:13:24Z</time>
      </trkpt>
      <trkpt lat="41.671517" lon="2.382582">
        <ele>184.60</ele>
        <time>2018-01-02T10:13:25Z</time>
      </trkpt>
      <trkpt lat="41.671587" lon="2.382536">
        <ele>185.00</ele>
        <time>2018-01-02T10:13:26Z</time>
      </trkpt>
      <trkpt lat="41.671802" lon="2.382408">
        <ele>186.20</ele>
        <time>2018-01-02T10:13:29Z</time>
      </trkpt>
      <trkpt lat="41.671874" lon="2.382363">
        <ele>186.80</ele>
        <time>2018-01-02T10:13:30Z</time>
      </trkpt>
      <trkpt lat="41.672139" lon="2.382171">
        <ele>187.60</ele>
        <time>2018-01-02T10:13:34Z</time>
      </trkpt>
      <trkpt lat="41.672410" lon="2.381979">
        <ele>188.60</ele>
        <time>2018-01-02T10:13:38Z</time>
      </trkpt>
      <trkpt lat="41.672480" lon="2.381935">
        <ele>188.60</ele>
        <time>2018-01-02T10:13:39Z</time>
      </trkpt>
      <trkpt lat="41.672764" lon="2.381753">
        <ele>189.80</ele>
        <time>2018-01-02T10:13:43Z</time>
      </trkpt>
      <trkpt lat="41.672832" lon="2.381715">
        <ele>190.20</ele>
        <time>2018-01-02T10:13:44Z</time>
      </trkpt>
      <trkpt lat="41.673079" lon="2.381610">
        <ele>190.80</ele>
        <time>2018-01-02T10:13:48Z</time>
      </trkpt>
      <trkpt lat="41.673129" lon="2.381589">
        <ele>191.00</ele>
        <time>2018-01-02T10:13:49Z</time>
      </trkpt>
      <trkpt lat="41.673232" lon="2.381535">
        <ele>191.60</ele>
        <time>2018-01-02T10:13:52Z</time>
      </trkpt>
      <trkpt lat="41.673274" lon="2.381511">
        <ele>191.60</ele>
        <time>2018-01-02T10:13:53Z</time>
      </trkpt>
      <trkpt lat="41.673362" lon="2.381472">
        <ele>191.80</ele>
        <time>2018-01-02T10:13:55Z</time>
      </trkpt>
      <trkpt lat="41.673409" lon="2.381446">
        <ele>192.00</ele>
        <time>2018-01-02T10:13:58Z</time>
      </trkpt>
      <trkpt lat="41.673357" lon="2.381373">
        <ele>192.20</ele>
        <time>2018-01-02T10:14:00Z</time>
      </trkpt>
      <trkpt lat="41.673291" lon="2.381170">
        <ele>192.60</ele>
        <time>2018-01-02T10:14:03Z</time>
      </trkpt>
      <trkpt lat="41.673229" lon="2.380946">
        <ele>193.00</ele>
        <time>2018-01-02T10:14:06Z</time>
      </trkpt>
      <trkpt lat="41.673185" lon="2.380803">
        <ele>192.80</ele>
        <time>2018-01-02T10:14:08Z</time>
      </trkpt>
      <trkpt lat="41.673022" lon="2.380581">
        <ele>192.40</ele>
        <time>2018-01-02T10:14:12Z</time>
      </trkpt>
      <trkpt lat="41.672970" lon="2.380546">
        <ele>192.20</ele>
        <time>2018-01-02T10:14:13Z</time>
      </trkpt>
      <trkpt lat="41.672858" lon="2.380503">
        <ele>192.00</ele>
        <time>2018-01-02T10:14:15Z</time>
      </trkpt>
      <trkpt lat="41.672801" lon="2.380488">
        <ele>191.80</ele>
        <time>2018-01-02T10:14:16Z</time>
      </trkpt>
      <trkpt lat="41.672686" lon="2.380460">
        <ele>191.00</ele>
        <time>2018-01-02T10:14:18Z</time>
      </trkpt>
      <trkpt lat="41.672629" lon="2.380445">
        <ele>190.60</ele>
        <time>2018-01-02T10:14:19Z</time>
      </trkpt>
      <trkpt lat="41.672516" lon="2.380411">
        <ele>190.20</ele>
        <time>2018-01-02T10:14:21Z</time>
      </trkpt>
      <trkpt lat="41.672462" lon="2.380387">
        <ele>189.80</ele>
        <time>2018-01-02T10:14:22Z</time>
      </trkpt>
      <trkpt lat="41.672405" lon="2.380370">
        <ele>189.40</ele>
        <time>2018-01-02T10:14:23Z</time>
      </trkpt>
      <trkpt lat="41.672293" lon="2.380328">
        <ele>188.60</ele>
        <time>2018-01-02T10:14:25Z</time>
      </trkpt>
      <trkpt lat="41.672238" lon="2.380306">
        <ele>188.20</ele>
        <time>2018-01-02T10:14:26Z</time>
      </trkpt>
      <trkpt lat="41.672127" lon="2.380265">
        <ele>187.60</ele>
        <time>2018-01-02T10:14:28Z</time>
      </trkpt>
      <trkpt lat="41.672022" lon="2.380224">
        <ele>187.40</ele>
        <time>2018-01-02T10:14:30Z</time>
      </trkpt>
      <trkpt lat="41.671970" lon="2.380205">
        <ele>187.00</ele>
        <time>2018-01-02T10:14:31Z</time>
      </trkpt>
      <trkpt lat="41.671863" lon="2.380171">
        <ele>186.80</ele>
        <time>2018-01-02T10:14:33Z</time>
      </trkpt>
      <trkpt lat="41.671753" lon="2.380138">
        <ele>186.40</ele>
        <time>2018-01-02T10:14:35Z</time>
      </trkpt>
      <trkpt lat="41.671587" lon="2.380083">
        <ele>186.00</ele>
        <time>2018-01-02T10:14:38Z</time>
      </trkpt>
      <trkpt lat="41.671305" lon="2.379992">
        <ele>186.20</ele>
        <time>2018-01-02T10:14:43Z</time>
      </trkpt>
      <trkpt lat="41.671101" lon="2.379916">
        <ele>186.40</ele>
        <time>2018-01-02T10:14:47Z</time>
      </trkpt>
      <trkpt lat="41.671017" lon="2.379887">
        <ele>186.40</ele>
        <time>2018-01-02T10:14:49Z</time>
      </trkpt>
      <trkpt lat="41.670893" lon="2.379848">
        <ele>186.20</ele>
        <time>2018-01-02T10:14:52Z</time>
      </trkpt>
      <trkpt lat="41.670757" lon="2.379795">
        <ele>185.80</ele>
        <time>2018-01-02T10:14:56Z</time>
      </trkpt>
      <trkpt lat="41.670649" lon="2.379728">
        <ele>185.60</ele>
        <time>2018-01-02T10:15:00Z</time>
      </trkpt>
      <trkpt lat="41.670629" lon="2.379720">
        <ele>185.60</ele>
        <time>2018-01-02T10:15:01Z</time>
      </trkpt>
      <trkpt lat="41.670538" lon="2.379717">
        <ele>185.60</ele>
        <time>2018-01-02T10:17:27Z</time>
      </trkpt>
      <trkpt lat="41.670518" lon="2.379711">
        <ele>185.60</ele>
        <time>2018-01-02T10:17:29Z</time>
      </trkpt>
      <trkpt lat="41.670506" lon="2.379695">
        <ele>185.40</ele>
        <time>2018-01-02T10:17:31Z</time>
      </trkpt>
      <trkpt lat="41.670498" lon="2.379681">
        <ele>185.40</ele>
        <time>2018-01-02T10:17:32Z</time>
      </trkpt>
      <trkpt lat="41.670475" lon="2.379667">
        <ele>185.40</ele>
        <time>2018-01-02T10:17:34Z</time>
      </trkpt>
      <trkpt lat="41.670449" lon="2.379684">
        <ele>185.40</ele>
        <time>2018-01-02T10:17:36Z</time>
      </trkpt>
      <trkpt lat="41.670480" lon="2.379733">
        <ele>185.60</ele>
        <time>2018-01-02T10:17:39Z</time>
      </trkpt>
      <trkpt lat="41.670498" lon="2.379720">
        <ele>185.60</ele>
        <time>2018-01-02T10:17:40Z</time>
      </trkpt>
      <trkpt lat="41.670559" lon="2.379714">
        <ele>185.60</ele>
        <time>2018-01-02T10:17:43Z</time>
      </trkpt>
      <trkpt lat="41.670544" lon="2.379760">
        <ele>185.40</ele>
        <time>2018-01-02T10:17:46Z</time>
      </trkpt>
      <trkpt lat="41.670500" lon="2.379732">
        <ele>185.20</ele>
        <time>2018-01-02T10:17:48Z</time>
      </trkpt>
      <trkpt lat="41.670367" lon="2.379689">
        <ele>184.80</ele>
        <time>2018-01-02T10:17:52Z</time>
      </trkpt>
      <trkpt lat="41.670181" lon="2.379636">
        <ele>184.00</ele>
        <time>2018-01-02T10:17:57Z</time>
      </trkpt>
      <trkpt lat="41.670139" lon="2.379626">
        <ele>184.00</ele>
        <time>2018-01-02T10:17:58Z</time>
      </trkpt>
      <trkpt lat="41.670043" lon="2.379606">
        <ele>183.80</ele>
        <time>2018-01-02T10:18:00Z</time>
      </trkpt>
      <trkpt lat="41.669908" lon="2.379545">
        <ele>183.00</ele>
        <time>2018-01-02T10:18:03Z</time>
      </trkpt>
      <trkpt lat="41.669865" lon="2.379517">
        <ele>182.80</ele>
        <time>2018-01-02T10:18:04Z</time>
      </trkpt>
      <trkpt lat="41.669688" lon="2.379418">
        <ele>182.00</ele>
        <time>2018-01-02T10:18:08Z</time>
      </trkpt>
      <trkpt lat="41.669640" lon="2.379402">
        <ele>181.80</ele>
        <time>2018-01-02T10:18:09Z</time>
      </trkpt>
      <trkpt lat="41.669389" lon="2.379353">
        <ele>181.00</ele>
        <time>2018-01-02T10:18:14Z</time>
      </trkpt>
      <trkpt lat="41.669336" lon="2.379349">
        <ele>180.80</ele>
        <time>2018-01-02T10:18:15Z</time>
      </trkpt>
      <trkpt lat="41.669021" lon="2.379377">
        <ele>180.00</ele>
        <time>2018-01-02T10:18:21Z</time>
      </trkpt>
      <trkpt lat="41.668970" lon="2.379390">
        <ele>179.80</ele>
        <time>2018-01-02T10:18:22Z</time>
      </trkpt>
      <trkpt lat="41.668657" lon="2.379453">
        <ele>178.80</ele>
        <time>2018-01-02T10:18:28Z</time>
      </trkpt>
      <trkpt lat="41.668601" lon="2.379455">
        <ele>178.60</ele>
        <time>2018-01-02T10:18:29Z</time>
      </trkpt>
      <trkpt lat="41.668208" lon="2.379450">
        <ele>177.60</ele>
        <time>2018-01-02T10:18:36Z</time>
      </trkpt>
      <trkpt lat="41.668099" lon="2.379446">
        <ele>177.40</ele>
        <time>2018-01-02T10:18:38Z</time>
      </trkpt>
      <trkpt lat="41.668044" lon="2.379450">
        <ele>177.40</ele>
        <time>2018-01-02T10:18:39Z</time>
      </trkpt>
      <trkpt lat="41.667829" lon="2.379510">
        <ele>177.00</ele>
        <time>2018-01-02T10:18:43Z</time>
      </trkpt>
      <trkpt lat="41.667668" lon="2.379554">
        <ele>177.00</ele>
        <time>2018-01-02T10:18:46Z</time>
      </trkpt>
      <trkpt lat="41.667516" lon="2.379610">
        <ele>176.60</ele>
        <time>2018-01-02T10:18:49Z</time>
      </trkpt>
      <trkpt lat="41.667412" lon="2.379645">
        <ele>176.40</ele>
        <time>2018-01-02T10:18:51Z</time>
      </trkpt>
      <trkpt lat="41.667359" lon="2.379660">
        <ele>176.40</ele>
        <time>2018-01-02T10:18:52Z</time>
      </trkpt>
      <trkpt lat="41.666994" lon="2.379769">
        <ele>175.80</ele>
        <time>2018-01-02T10:18:59Z</time>
      </trkpt>
      <trkpt lat="41.666942" lon="2.379784">
        <ele>175.80</ele>
        <time>2018-01-02T10:19:00Z</time>
      </trkpt>
      <trkpt lat="41.666783" lon="2.379846">
        <ele>175.80</ele>
        <time>2018-01-02T10:19:03Z</time>
      </trkpt>
      <trkpt lat="41.666519" lon="2.379917">
        <ele>175.80</ele>
        <time>2018-01-02T10:19:08Z</time>
      </trkpt>
      <trkpt lat="41.666464" lon="2.379932">
        <ele>175.60</ele>
        <time>2018-01-02T10:19:09Z</time>
      </trkpt>
      <trkpt lat="41.666357" lon="2.379962">
        <ele>175.60</ele>
        <time>2018-01-02T10:19:11Z</time>
      </trkpt>
      <trkpt lat="41.666198" lon="2.380008">
        <ele>175.60</ele>
        <time>2018-01-02T10:19:14Z</time>
      </trkpt>
      <trkpt lat="41.666038" lon="2.380049">
        <ele>175.40</ele>
        <time>2018-01-02T10:19:17Z</time>
      </trkpt>
      <trkpt lat="41.665881" lon="2.380076">
        <ele>175.60</ele>
        <time>2018-01-02T10:19:20Z</time>
      </trkpt>
      <trkpt lat="41.665732" lon="2.380098">
        <ele>176.00</ele>
        <time>2018-01-02T10:19:23Z</time>
      </trkpt>
      <trkpt lat="41.665684" lon="2.380105">
        <ele>176.20</ele>
        <time>2018-01-02T10:19:24Z</time>
      </trkpt>
      <trkpt lat="41.665499" lon="2.380099">
        <ele>175.80</ele>
        <time>2018-01-02T10:19:29Z</time>
      </trkpt>
      <trkpt lat="41.665398" lon="2.380091">
        <ele>175.40</ele>
        <time>2018-01-02T10:19:32Z</time>
      </trkpt>
      <trkpt lat="41.665249" lon="2.380067">
        <ele>174.40</ele>
        <time>2018-01-02T10:19:36Z</time>
      </trkpt>
      <trkpt lat="41.665213" lon="2.380063">
        <ele>174.40</ele>
        <time>2018-01-02T10:19:37Z</time>
      </trkpt>
      <trkpt lat="41.665081" lon="2.380098">
        <ele>173.40</ele>
        <time>2018-01-02T10:19:41Z</time>
      </trkpt>
      <trkpt lat="41.665010" lon="2.380121">
        <ele>173.00</ele>
        <time>2018-01-02T10:19:43Z</time>
      </trkpt>
      <trkpt lat="41.664830" lon="2.380167">
        <ele>172.20</ele>
        <time>2018-01-02T10:19:48Z</time>
      </trkpt>
      <trkpt lat="41.664756" lon="2.380185">
        <ele>171.80</ele>
        <time>2018-01-02T10:19:50Z</time>
      </trkpt>
      <trkpt lat="41.664577" lon="2.380236">
        <ele>171.00</ele>
        <time>2018-01-02T10:19:55Z</time>
      </trkpt>
      <trkpt lat="41.664484" lon="2.380258">
        <ele>170.80</ele>
        <time>2018-01-02T10:19:58Z</time>
      </trkpt>
      <trkpt lat="41.664450" lon="2.380267">
        <ele>170.80</ele>
        <time>2018-01-02T10:19:59Z</time>
      </trkpt>
      <trkpt lat="41.664363" lon="2.380287">
        <ele>170.00</ele>
        <time>2018-01-02T10:20:02Z</time>
      </trkpt>
      <trkpt lat="41.664348" lon="2.380269">
        <ele>169.60</ele>
        <time>2018-01-02T10:20:03Z</time>
      </trkpt>
      <trkpt lat="41.664350" lon="2.380201">
        <ele>169.20</ele>
        <time>2018-01-02T10:20:05Z</time>
      </trkpt>
      <trkpt lat="41.664366" lon="2.380163">
        <ele>169.00</ele>
        <time>2018-01-02T10:20:06Z</time>
      </trkpt>
      <trkpt lat="41.664443" lon="2.379921">
        <ele>168.00</ele>
        <time>2018-01-02T10:20:12Z</time>
      </trkpt>
      <trkpt lat="41.664511" lon="2.379718">
        <ele>167.00</ele>
        <time>2018-01-02T10:20:17Z</time>
      </trkpt>
      <trkpt lat="41.664526" lon="2.379689">
        <ele>166.60</ele>
        <time>2018-01-02T10:20:18Z</time>
      </trkpt>
      <trkpt lat="41.664583" lon="2.379528">
        <ele>165.60</ele>
        <time>2018-01-02T10:20:23Z</time>
      </trkpt>
      <trkpt lat="41.664610" lon="2.379453">
        <ele>165.00</ele>
        <time>2018-01-02T10:20:25Z</time>
      </trkpt>
      <trkpt lat="41.664654" lon="2.379352">
        <ele>164.40</ele>
        <time>2018-01-02T10:20:28Z</time>
      </trkpt>
      <trkpt lat="41.664702" lon="2.379265">
        <ele>163.60</ele>
        <time>2018-01-02T10:20:31Z</time>
      </trkpt>
      <trkpt lat="41.664716" lon="2.379237">
        <ele>163.20</ele>
        <time>2018-01-02T10:20:32Z</time>
      </trkpt>
      <trkpt lat="41.664763" lon="2.379106">
        <ele>162.60</ele>
        <time>2018-01-02T10:20:36Z</time>
      </trkpt>
      <trkpt lat="41.664805" lon="2.379037">
        <ele>162.00</ele>
        <time>2018-01-02T10:20:38Z</time>
      </trkpt>
      <trkpt lat="41.664847" lon="2.378965">
        <ele>162.00</ele>
        <time>2018-01-02T10:20:40Z</time>
      </trkpt>
      <trkpt lat="41.664965" lon="2.378788">
        <ele>161.00</ele>
        <time>2018-01-02T10:20:45Z</time>
      </trkpt>
      <trkpt lat="41.664987" lon="2.378755">
        <ele>160.80</ele>
        <time>2018-01-02T10:20:46Z</time>
      </trkpt>
      <trkpt lat="41.665048" lon="2.378652">
        <ele>159.80</ele>
        <time>2018-01-02T10:20:49Z</time>
      </trkpt>
      <trkpt lat="41.665078" lon="2.378552">
        <ele>159.00</ele>
        <time>2018-01-02T10:20:52Z</time>
      </trkpt>
      <trkpt lat="41.665084" lon="2.378516">
        <ele>158.60</ele>
        <time>2018-01-02T10:20:53Z</time>
      </trkpt>
      <trkpt lat="41.665105" lon="2.378406">
        <ele>157.60</ele>
        <time>2018-01-02T10:20:56Z</time>
      </trkpt>
      <trkpt lat="41.665128" lon="2.378268">
        <ele>156.40</ele>
        <time>2018-01-02T10:21:00Z</time>
      </trkpt>
      <trkpt lat="41.665153" lon="2.378151">
        <ele>154.80</ele>
        <time>2018-01-02T10:21:03Z</time>
      </trkpt>
      <trkpt lat="41.665164" lon="2.378072">
        <ele>154.60</ele>
        <time>2018-01-02T10:21:05Z</time>
      </trkpt>
      <trkpt lat="41.665187" lon="2.377962">
        <ele>153.80</ele>
        <time>2018-01-02T10:21:08Z</time>
      </trkpt>
      <trkpt lat="41.665212" lon="2.377829">
        <ele>153.00</ele>
        <time>2018-01-02T10:21:11Z</time>
      </trkpt>
      <trkpt lat="41.665221" lon="2.377785">
        <ele>152.60</ele>
        <time>2018-01-02T10:21:12Z</time>
      </trkpt>
      <trkpt lat="41.665233" lon="2.377736">
        <ele>152.60</ele>
        <time>2018-01-02T10:21:13Z</time>
      </trkpt>
      <trkpt lat="41.665249" lon="2.377679">
        <ele>152.20</ele>
        <time>2018-01-02T10:21:14Z</time>
      </trkpt>
      <trkpt lat="41.665274" lon="2.377621">
        <ele>151.80</ele>
        <time>2018-01-02T10:21:15Z</time>
      </trkpt>
      <trkpt lat="41.665310" lon="2.377568">
        <ele>151.40</ele>
        <time>2018-01-02T10:21:16Z</time>
      </trkpt>
      <trkpt lat="41.665356" lon="2.377523">
        <ele>150.80</ele>
        <time>2018-01-02T10:21:17Z</time>
      </trkpt>
      <trkpt lat="41.665459" lon="2.377442">
        <ele>150.20</ele>
        <time>2018-01-02T10:21:19Z</time>
      </trkpt>
      <trkpt lat="41.665548" lon="2.377345">
        <ele>149.00</ele>
        <time>2018-01-02T10:21:21Z</time>
      </trkpt>
      <trkpt lat="41.665617" lon="2.377201">
        <ele>147.80</ele>
        <time>2018-01-02T10:21:23Z</time>
      </trkpt>
      <trkpt lat="41.665764" lon="2.376834">
        <ele>147.60</ele>
        <time>2018-01-02T10:21:27Z</time>
      </trkpt>
      <trkpt lat="41.665792" lon="2.376719">
        <ele>148.60</ele>
        <time>2018-01-02T10:21:28Z</time>
      </trkpt>
      <trkpt lat="41.665808" lon="2.376600">
        <ele>149.60</ele>
        <time>2018-01-02T10:21:29Z</time>
      </trkpt>
      <trkpt lat="41.665813" lon="2.376487">
        <ele>150.60</ele>
        <time>2018-01-02T10:21:30Z</time>
      </trkpt>
      <trkpt lat="41.665779" lon="2.376272">
        <ele>152.60</ele>
        <time>2018-01-02T10:21:32Z</time>
      </trkpt>
      <trkpt lat="41.665740" lon="2.376070">
        <ele>154.20</ele>
        <time>2018-01-02T10:21:34Z</time>
      </trkpt>
      <trkpt lat="41.665721" lon="2.375895">
        <ele>155.00</ele>
        <time>2018-01-02T10:21:36Z</time>
      </trkpt>
      <trkpt lat="41.665717" lon="2.375751">
        <ele>155.60</ele>
        <time>2018-01-02T10:21:38Z</time>
      </trkpt>
      <trkpt lat="41.665723" lon="2.375685">
        <ele>155.60</ele>
        <time>2018-01-02T10:21:39Z</time>
      </trkpt>
      <trkpt lat="41.665725" lon="2.375611">
        <ele>268.79</ele>
        <time>2020-09-29T14:54:30Z</time>
      </trkpt>
      <trkpt lat="41.665725" lon="2.375450">
        <ele>268.60</ele>
        <time>2020-09-29T14:54:30Z</time>
      </trkpt>
      <trkpt lat="41.665778" lon="2.374935">
        <ele>268.29</ele>
        <time>2020-09-29T14:54:30.01Z</time>
      </trkpt>
      <trkpt lat="41.666229" lon="2.374538">
        <ele>268.92</ele>
        <time>2020-09-29T14:54:30.02Z</time>
      </trkpt>
      <trkpt lat="41.666325" lon="2.374249">
        <ele>267.64</ele>
        <time>2020-09-29T14:54:30.04Z</time>
      </trkpt>
      <trkpt lat="41.666304" lon="2.374034">
        <ele>267.46</ele>
        <time>2020-09-29T14:54:30.07Z</time>
      </trkpt>
      <trkpt lat="41.665950" lon="2.373734">
        <ele>267.20</ele>
        <time>2020-09-29T14:54:30.10Z</time>
      </trkpt>
      <trkpt lat="41.665725" lon="2.373337">
        <ele>268.02</ele>
        <time>2020-09-29T14:54:30.13Z</time>
      </trkpt>
      <trkpt lat="41.665649" lon="2.373004">
        <ele>268.32</ele>
        <time>2020-09-29T14:54:30.17Z</time>
      </trkpt>
      <trkpt lat="41.666905" lon="2.373015">
        <ele>272.71</ele>
        <time>2020-09-29T14:54:30.23Z</time>
      </trkpt>
      <trkpt lat="41.666830" lon="2.371995">
        <ele>272.72</ele>
        <time>2020-09-29T14:54:30.30Z</time>
      </trkpt>
      <trkpt lat="41.666701" lon="2.370204">
        <ele>274.56</ele>
        <time>2020-09-29T14:54:30.40Z</time>
      </trkpt>
      <trkpt lat="41.667388" lon="2.370107">
        <ele>278.00</ele>
        <time>2020-09-29T14:54:30.50Z</time>
      </trkpt>
      <trkpt lat="41.667921" lon="2.370033">
        <ele>280.69</ele>
        <time>2020-09-29T14:54:30.62Z</time>
      </trkpt>
      <trkpt lat="41.667922" lon="2.370033">
        <ele>280.69</ele>
        <time>2020-09-29T14:54:30.73Z</time>
      </trkpt>
      <trkpt lat="41.668010" lon="2.370021">
        <ele>281.11</ele>
        <time>2020-09-29T14:54:30.85Z</time>
      </trkpt>
      <trkpt lat="41.668643" lon="2.369936">
        <ele>281.90</ele>
        <time>2020-09-29T14:54:30.97Z</time>
      </trkpt>
      <trkpt lat="41.669276" lon="2.369850">
        <ele>282.90</ele>
        <time>2020-09-29T14:54:31.11Z</time>
      </trkpt>
      <trkpt lat="41.669952" lon="2.369764">
        <ele>284.58</ele>
        <time>2020-09-29T14:54:31.25Z</time>
      </trkpt>
      <trkpt lat="41.670574" lon="2.369678">
        <ele>286.71</ele>
        <time>2020-09-29T14:54:31.41Z</time>
      </trkpt>
      <trkpt lat="41.671186" lon="2.369571">
        <ele>288.76</ele>
        <time>2020-09-29T14:54:31.57Z</time>
      </trkpt>
      <trkpt lat="41.671722" lon="2.369474">
        <ele>290.46</ele>
        <time>2020-09-29T14:54:31.75Z</time>
      </trkpt>
      <trkpt lat="41.671883" lon="2.369710">
        <ele>290.85</ele>
        <time>2020-09-29T14:54:31.93Z</time>
      </trkpt>
      <trkpt lat="41.672291" lon="2.369957">
        <ele>291.83</ele>
        <time>2020-09-29T14:54:32.11Z</time>
      </trkpt>
      <trkpt lat="41.673042" lon="2.369614">
        <ele>294.64</ele>
        <time>2020-09-29T14:54:32.31Z</time>
      </trkpt>
      <trkpt lat="41.673042" lon="2.369614">
        <ele>294.64</ele>
        <time>2020-09-29T14:54:32.51Z</time>
      </trkpt>
      <trkpt lat="41.673246" lon="2.369517">
        <ele>295.63</ele>
        <time>2020-09-29T14:54:32.71Z</time>
      </trkpt>
      <trkpt lat="41.673342" lon="2.369485">
        <ele>295.93</ele>
        <time>2020-09-29T14:54:32.92Z</time>
      </trkpt>
      <trkpt lat="41.676154" lon="2.368129">
        <ele>307.53</ele>
        <time>2020-09-29T14:54:33.17Z</time>
      </trkpt>
      <trkpt lat="41.676154" lon="2.368129">
        <ele>307.53</ele>
        <time>2020-09-29T14:54:33.42Z</time>
      </trkpt>
      <trkpt lat="41.677859" lon="2.367307">
        <ele>310.59</ele>
        <time>2020-09-29T14:54:33.70Z</time>
      </trkpt>
      <trkpt lat="41.678846" lon="2.366610">
        <ele>314.78</ele>
        <time>2020-09-29T14:54:34Z</time>
      </trkpt>
      <trkpt lat="41.678910" lon="2.366449">
        <ele>315.13</ele>
        <time>2020-09-29T14:54:34.30Z</time>
      </trkpt>
      <trkpt lat="41.679103" lon="2.366374">
        <ele>316.24</ele>
        <time>2020-09-29T14:54:34.60Z</time>
      </trkpt>
      <trkpt lat="41.680874" lon="2.364786">
        <ele>322.87</ele>
        <time>2020-09-29T14:54:34.94Z</time>
      </trkpt>
      <trkpt lat="41.681432" lon="2.364271">
        <ele>326.22</ele>
        <time>2020-09-29T14:54:35.29Z</time>
      </trkpt>
      <trkpt lat="41.681732" lon="2.364013">
        <ele>327.72</ele>
        <time>2020-09-29T14:54:35.64Z</time>
      </trkpt>
      <trkpt lat="41.681796" lon="2.363970">
        <ele>327.96</ele>
        <time>2020-09-29T14:54:36Z</time>
      </trkpt>
      <trkpt lat="41.682097" lon="2.363884">
        <ele>329.04</ele>
        <time>2020-09-29T14:54:36.36Z</time>
      </trkpt>
      <trkpt lat="41.683792" lon="2.363992">
        <ele>336.09</ele>
        <time>2020-09-29T14:54:36.74Z</time>
      </trkpt>
      <trkpt lat="41.683792" lon="2.363992">
        <ele>336.09</ele>
        <time>2020-09-29T14:54:37.13Z</time>
      </trkpt>
      <trkpt lat="41.683824" lon="2.363992">
        <ele>336.36</ele>
        <time>2020-09-29T14:54:37.52Z</time>
      </trkpt>
      <trkpt lat="41.684157" lon="2.364067">
        <ele>338.22</ele>
        <time>2020-09-29T14:54:37.91Z</time>
      </trkpt>
      <trkpt lat="41.684425" lon="2.364389">
        <ele>338.19</ele>
        <time>2020-09-29T14:54:38.31Z</time>
      </trkpt>
      <trkpt lat="41.684790" lon="2.364035">
        <ele>342.17</ele>
        <time>2020-09-29T14:54:38.72Z</time>
      </trkpt>
      <trkpt lat="41.684833" lon="2.363970">
        <ele>342.68</ele>
        <time>2020-09-29T14:54:39.12Z</time>
      </trkpt>
      <trkpt lat="41.684833" lon="2.363970">
        <ele>342.68</ele>
        <time>2020-09-29T14:54:39.53Z</time>
      </trkpt>
      <trkpt lat="41.684865" lon="2.363917">
        <ele>343.09</ele>
        <time>2020-09-29T14:54:39.94Z</time>
      </trkpt>
      <trkpt lat="41.685530" lon="2.363638">
        <ele>347.62</ele>
        <time>2020-09-29T14:54:40.36Z</time>
      </trkpt>
      <trkpt lat="41.686774" lon="2.363670">
        <ele>351.74</ele>
        <time>2020-09-29T14:54:40.80Z</time>
      </trkpt>
      <trkpt lat="41.686775" lon="2.363670">
        <ele>351.74</ele>
        <time>2020-09-29T14:54:41.24Z</time>
      </trkpt>
      <trkpt lat="41.686807" lon="2.363670">
        <ele>351.89</ele>
        <time>2020-09-29T14:54:41.68Z</time>
      </trkpt>
      <trkpt lat="41.687139" lon="2.363681">
        <ele>352.90</ele>
        <time>2020-09-29T14:54:42.12Z</time>
      </trkpt>
      <trkpt lat="41.687740" lon="2.363734">
        <ele>354.86</ele>
        <time>2020-09-29T14:54:42.58Z</time>
      </trkpt>
      <trkpt lat="41.687740" lon="2.363734">
        <ele>354.86</ele>
        <time>2020-09-29T14:54:43.03Z</time>
      </trkpt>
      <trkpt lat="41.688341" lon="2.363799">
        <ele>358.03</ele>
        <time>2020-09-29T14:54:43.49Z</time>
      </trkpt>
      <trkpt lat="41.688409" lon="2.362649">
        <ele>359.10</ele>
        <time>2020-09-29T14:54:43.97Z</time>
      </trkpt>
      <trkpt lat="41.688409" lon="2.362650">
        <ele>359.10</ele>
        <time>2020-09-29T14:54:44.45Z</time>
      </trkpt>
      <trkpt lat="41.688437" lon="2.362168">
        <ele>360.09</ele>
        <time>2020-09-29T14:54:44.93Z</time>
      </trkpt>
      <trkpt lat="41.688459" lon="2.362050">
        <ele>360.39</ele>
        <time>2020-09-29T14:54:45.42Z</time>
      </trkpt>
      <trkpt lat="41.689017" lon="2.359807">
        <ele>357.29</ele>
        <time>2020-09-29T14:54:45.93Z</time>
      </trkpt>
      <trkpt lat="41.689253" lon="2.359056">
        <ele>352.23</ele>
        <time>2020-09-29T14:54:46.46Z</time>
      </trkpt>
      <trkpt lat="41.689392" lon="2.359046">
        <ele>353.33</ele>
        <time>2020-09-29T14:54:46.98Z</time>
      </trkpt>
      <trkpt lat="41.689392" lon="2.358960">
        <ele>352.71</ele>
        <time>2020-09-29T14:54:47.51Z</time>
      </trkpt>
      <trkpt lat="41.690733" lon="2.357125">
        <ele>346.33</ele>
        <time>2020-09-29T14:54:48.07Z</time>
      </trkpt>
      <trkpt lat="41.690347" lon="2.357136">
        <ele>345.44</ele>
        <time>2020-09-29T14:54:48.63Z</time>
      </trkpt>
      <trkpt lat="41.690454" lon="2.356825">
        <ele>342.38</ele>
        <time>2020-09-29T14:54:49.20Z</time>
      </trkpt>
      <trkpt lat="41.690615" lon="2.356728">
        <ele>341.72</ele>
        <time>2020-09-29T14:54:49.77Z</time>
      </trkpt>
      <trkpt lat="41.691592" lon="2.356900">
        <ele>339.77</ele>
        <time>2020-09-29T14:54:50.36Z</time>
      </trkpt>
      <trkpt lat="41.691592" lon="2.356900">
        <ele>339.77</ele>
        <time>2020-09-29T14:54:50.94Z</time>
      </trkpt>
      <trkpt lat="41.692107" lon="2.357018">
        <ele>337.91</ele>
        <time>2020-09-29T14:54:51.54Z</time>
      </trkpt>
      <trkpt lat="41.692235" lon="2.356964">
        <ele>337.24</ele>
        <time>2020-09-29T14:54:52.14Z</time>
      </trkpt>
      <trkpt lat="41.692547" lon="2.356439">
        <ele>337.42</ele>
        <time>2020-09-29T14:54:52.74Z</time>
      </trkpt>
      <trkpt lat="41.692750" lon="2.355269">
        <ele>342.98</ele>
        <time>2020-09-29T14:54:53.36Z</time>
      </trkpt>
      <trkpt lat="41.692847" lon="2.354207">
        <ele>348.00</ele>
        <time>2020-09-29T14:54:53.99Z</time>
      </trkpt>
      <trkpt lat="41.692847" lon="2.354207">
        <ele>348.00</ele>
        <time>2020-09-29T14:54:54.62Z</time>
      </trkpt>
      <trkpt lat="41.692884" lon="2.353903">
        <ele>349.35</ele>
        <time>2020-09-29T14:54:55.26Z</time>
      </trkpt>
      <trkpt lat="41.692812" lon="2.353815">
        <ele>278.80</ele>
        <time>2020-06-14T04:14:01Z</time>
      </trkpt>
      <trkpt lat="41.692496" lon="2.353658">
        <ele>277.80</ele>
        <time>2020-06-14T04:14:06Z</time>
      </trkpt>
      <trkpt lat="41.692365" lon="2.353582">
        <ele>278.20</ele>
        <time>2020-06-14T04:14:08Z</time>
      </trkpt>
      <trkpt lat="41.692044" lon="2.353330">
        <ele>278.40</ele>
        <time>2020-06-14T04:14:13Z</time>
      </trkpt>
      <trkpt lat="41.691982" lon="2.353272">
        <ele>278.60</ele>
        <time>2020-06-14T04:14:14Z</time>
      </trkpt>
      <trkpt lat="41.691605" lon="2.352906">
        <ele>279.60</ele>
        <time>2020-06-14T04:14:20Z</time>
      </trkpt>
      <trkpt lat="41.691423" lon="2.352752">
        <ele>280.80</ele>
        <time>2020-06-14T04:14:23Z</time>
      </trkpt>
      <trkpt lat="41.691262" lon="2.352626">
        <ele>281.40</ele>
        <time>2020-06-14T04:14:26Z</time>
      </trkpt>
      <trkpt lat="41.691161" lon="2.352545">
        <ele>282.00</ele>
        <time>2020-06-14T04:14:28Z</time>
      </trkpt>
      <trkpt lat="41.690971" lon="2.352389">
        <ele>283.20</ele>
        <time>2020-06-14T04:14:32Z</time>
      </trkpt>
      <trkpt lat="41.690907" lon="2.352311">
        <ele>283.20</ele>
        <time>2020-06-14T04:14:34Z</time>
      </trkpt>
      <trkpt lat="41.690900" lon="2.352255">
        <ele>283.80</ele>
        <time>2020-06-14T04:14:35Z</time>
      </trkpt>
      <trkpt lat="41.690911" lon="2.352119">
        <ele>284.40</ele>
        <time>2020-06-14T04:14:37Z</time>
      </trkpt>
      <trkpt lat="41.690910" lon="2.352047">
        <ele>284.80</ele>
        <time>2020-06-14T04:14:38Z</time>
      </trkpt>
      <trkpt lat="41.690892" lon="2.351968">
        <ele>285.20</ele>
        <time>2020-06-14T04:14:39Z</time>
      </trkpt>
      <trkpt lat="41.690863" lon="2.351880">
        <ele>285.60</ele>
        <time>2020-06-14T04:14:40Z</time>
      </trkpt>
      <trkpt lat="41.690824" lon="2.351791">
        <ele>286.00</ele>
        <time>2020-06-14T04:14:41Z</time>
      </trkpt>
      <trkpt lat="41.690702" lon="2.351617">
        <ele>287.00</ele>
        <time>2020-06-14T04:14:43Z</time>
      </trkpt>
      <trkpt lat="41.690546" lon="2.351471">
        <ele>288.00</ele>
        <time>2020-06-14T04:14:45Z</time>
      </trkpt>
      <trkpt lat="41.690465" lon="2.351412">
        <ele>288.60</ele>
        <time>2020-06-14T04:14:46Z</time>
      </trkpt>
      <trkpt lat="41.690306" lon="2.351314">
        <ele>289.80</ele>
        <time>2020-06-14T04:14:48Z</time>
      </trkpt>
      <trkpt lat="41.690151" lon="2.351223">
        <ele>291.00</ele>
        <time>2020-06-14T04:14:50Z</time>
      </trkpt>
      <trkpt lat="41.690075" lon="2.351179">
        <ele>291.40</ele>
        <time>2020-06-14T04:14:51Z</time>
      </trkpt>
      <trkpt lat="41.690002" lon="2.351140">
        <ele>292.00</ele>
        <time>2020-06-14T04:14:52Z</time>
      </trkpt>
      <trkpt lat="41.689931" lon="2.351108">
        <ele>292.20</ele>
        <time>2020-06-14T04:14:53Z</time>
      </trkpt>
      <trkpt lat="41.689721" lon="2.351048">
        <ele>294.40</ele>
        <time>2020-06-14T04:14:56Z</time>
      </trkpt>
      <trkpt lat="41.689601" lon="2.351030">
        <ele>294.60</ele>
        <time>2020-06-14T04:14:58Z</time>
      </trkpt>
      <trkpt lat="41.689495" lon="2.351067">
        <ele>294.20</ele>
        <time>2020-06-14T04:15:00Z</time>
      </trkpt>
      <trkpt lat="41.689440" lon="2.351095">
        <ele>293.60</ele>
        <time>2020-06-14T04:15:01Z</time>
      </trkpt>
      <trkpt lat="41.689312" lon="2.351146">
        <ele>292.60</ele>
        <time>2020-06-14T04:15:03Z</time>
      </trkpt>
      <trkpt lat="41.688890" lon="2.351107">
        <ele>292.60</ele>
        <time>2020-06-14T04:15:08Z</time>
      </trkpt>
      <trkpt lat="41.688626" lon="2.351058">
        <ele>293.60</ele>
        <time>2020-06-14T04:15:11Z</time>
      </trkpt>
      <trkpt lat="41.688451" lon="2.351022">
        <ele>294.00</ele>
        <time>2020-06-14T04:15:13Z</time>
      </trkpt>
      <trkpt lat="41.688194" lon="2.350975">
        <ele>294.60</ele>
        <time>2020-06-14T04:15:16Z</time>
      </trkpt>
      <trkpt lat="41.688023" lon="2.350948">
        <ele>295.20</ele>
        <time>2020-06-14T04:15:18Z</time>
      </trkpt>
      <trkpt lat="41.687935" lon="2.350931">
        <ele>295.60</ele>
        <time>2020-06-14T04:15:19Z</time>
      </trkpt>
      <trkpt lat="41.687583" lon="2.350827">
        <ele>296.20</ele>
        <time>2020-06-14T04:15:23Z</time>
      </trkpt>
      <trkpt lat="41.687311" lon="2.350741">
        <ele>296.60</ele>
        <time>2020-06-14T04:15:26Z</time>
      </trkpt>
      <trkpt lat="41.687128" lon="2.350686">
        <ele>297.80</ele>
        <time>2020-06-14T04:15:28Z</time>
      </trkpt>
      <trkpt lat="41.687036" lon="2.350659">
        <ele>298.20</ele>
        <time>2020-06-14T04:15:29Z</time>
      </trkpt>
      <trkpt lat="41.686855" lon="2.350607">
        <ele>299.00</ele>
        <time>2020-06-14T04:15:31Z</time>
      </trkpt>
      <trkpt lat="41.686678" lon="2.350562">
        <ele>299.60</ele>
        <time>2020-06-14T04:15:33Z</time>
      </trkpt>
      <trkpt lat="41.686508" lon="2.350510">
        <ele>300.00</ele>
        <time>2020-06-14T04:15:35Z</time>
      </trkpt>
      <trkpt lat="41.686270" lon="2.350423">
        <ele>301.20</ele>
        <time>2020-06-14T04:15:38Z</time>
      </trkpt>
      <trkpt lat="41.686118" lon="2.350366">
        <ele>302.00</ele>
        <time>2020-06-14T04:15:40Z</time>
      </trkpt>
      <trkpt lat="41.686046" lon="2.350340">
        <ele>302.40</ele>
        <time>2020-06-14T04:15:41Z</time>
      </trkpt>
      <trkpt lat="41.685769" lon="2.350225">
        <ele>303.80</ele>
        <time>2020-06-14T04:15:45Z</time>
      </trkpt>
      <trkpt lat="41.685706" lon="2.350194">
        <ele>304.20</ele>
        <time>2020-06-14T04:15:46Z</time>
      </trkpt>
      <trkpt lat="41.685163" lon="2.349993">
        <ele>305.00</ele>
        <time>2020-06-14T04:15:55Z</time>
      </trkpt>
      <trkpt lat="41.684889" lon="2.349890">
        <ele>305.00</ele>
        <time>2020-06-14T04:16:00Z</time>
      </trkpt>
      <trkpt lat="41.684734" lon="2.349812">
        <ele>304.40</ele>
        <time>2020-06-14T04:16:03Z</time>
      </trkpt>
      <trkpt lat="41.684431" lon="2.349636">
        <ele>304.00</ele>
        <time>2020-06-14T04:16:09Z</time>
      </trkpt>
      <trkpt lat="41.684338" lon="2.349573">
        <ele>303.20</ele>
        <time>2020-06-14T04:16:11Z</time>
      </trkpt>
      <trkpt lat="41.684292" lon="2.349540">
        <ele>302.80</ele>
        <time>2020-06-14T04:16:12Z</time>
      </trkpt>
      <trkpt lat="41.684244" lon="2.349505">
        <ele>302.40</ele>
        <time>2020-06-14T04:16:13Z</time>
      </trkpt>
      <trkpt lat="41.684151" lon="2.349417">
        <ele>301.80</ele>
        <time>2020-06-14T04:16:15Z</time>
      </trkpt>
      <trkpt lat="41.684074" lon="2.349297">
        <ele>301.40</ele>
        <time>2020-06-14T04:16:17Z</time>
      </trkpt>
      <trkpt lat="41.684042" lon="2.349233">
        <ele>301.00</ele>
        <time>2020-06-14T04:16:18Z</time>
      </trkpt>
      <trkpt lat="41.684019" lon="2.349165">
        <ele>300.60</ele>
        <time>2020-06-14T04:16:19Z</time>
      </trkpt>
      <trkpt lat="41.683997" lon="2.349095">
        <ele>300.40</ele>
        <time>2020-06-14T04:16:20Z</time>
      </trkpt>
      <trkpt lat="41.683972" lon="2.349026">
        <ele>300.00</ele>
        <time>2020-06-14T04:16:21Z</time>
      </trkpt>
      <trkpt lat="41.683935" lon="2.348880">
        <ele>299.20</ele>
        <time>2020-06-14T04:16:23Z</time>
      </trkpt>
      <trkpt lat="41.683919" lon="2.348809">
        <ele>299.00</ele>
        <time>2020-06-14T04:16:24Z</time>
      </trkpt>
      <trkpt lat="41.683838" lon="2.348511">
        <ele>298.00</ele>
        <time>2020-06-14T04:16:29Z</time>
      </trkpt>
      <trkpt lat="41.683828" lon="2.348453">
        <ele>297.80</ele>
        <time>2020-06-14T04:16:30Z</time>
      </trkpt>
      <trkpt lat="41.683821" lon="2.348392">
        <ele>297.60</ele>
        <time>2020-06-14T04:16:31Z</time>
      </trkpt>
      <trkpt lat="41.683789" lon="2.348259">
        <ele>297.40</ele>
        <time>2020-06-14T04:16:33Z</time>
      </trkpt>
      <trkpt lat="41.683731" lon="2.348118">
        <ele>297.20</ele>
        <time>2020-06-14T04:16:35Z</time>
      </trkpt>
      <trkpt lat="41.683665" lon="2.347972">
        <ele>297.00</ele>
        <time>2020-06-14T04:16:37Z</time>
      </trkpt>
      <trkpt lat="41.683557" lon="2.347642">
        <ele>296.40</ele>
        <time>2020-06-14T04:16:41Z</time>
      </trkpt>
      <trkpt lat="41.683517" lon="2.347363">
        <ele>295.80</ele>
        <time>2020-06-14T04:16:44Z</time>
      </trkpt>
      <trkpt lat="41.683512" lon="2.347067">
        <ele>295.20</ele>
        <time>2020-06-14T04:16:47Z</time>
      </trkpt>
      <trkpt lat="41.683528" lon="2.346845">
        <ele>295.20</ele>
        <time>2020-06-14T04:16:49Z</time>
      </trkpt>
      <trkpt lat="41.683531" lon="2.346729">
        <ele>295.20</ele>
        <time>2020-06-14T04:16:50Z</time>
      </trkpt>
      <trkpt lat="41.683501" lon="2.346513">
        <ele>294.80</ele>
        <time>2020-06-14T04:16:52Z</time>
      </trkpt>
      <trkpt lat="41.683452" lon="2.346306">
        <ele>294.80</ele>
        <time>2020-06-14T04:16:54Z</time>
      </trkpt>
      <trkpt lat="41.683416" lon="2.346207">
        <ele>295.00</ele>
        <time>2020-06-14T04:16:55Z</time>
      </trkpt>
      <trkpt lat="41.683291" lon="2.346048">
        <ele>295.80</ele>
        <time>2020-06-14T04:16:57Z</time>
      </trkpt>
      <trkpt lat="41.683197" lon="2.345988">
        <ele>296.20</ele>
        <time>2020-06-14T04:16:58Z</time>
      </trkpt>
      <trkpt lat="41.683034" lon="2.345932">
        <ele>297.00</ele>
        <time>2020-06-14T04:17:00Z</time>
      </trkpt>
      <trkpt lat="41.682962" lon="2.345924">
        <ele>297.40</ele>
        <time>2020-06-14T04:17:01Z</time>
      </trkpt>
      <trkpt lat="41.682753" lon="2.345939">
        <ele>298.20</ele>
        <time>2020-06-14T04:17:04Z</time>
      </trkpt>
      <trkpt lat="41.682684" lon="2.345949">
        <ele>298.40</ele>
        <time>2020-06-14T04:17:05Z</time>
      </trkpt>
      <trkpt lat="41.682482" lon="2.345980">
        <ele>299.40</ele>
        <time>2020-06-14T04:17:08Z</time>
      </trkpt>
      <trkpt lat="41.682417" lon="2.345991">
        <ele>299.60</ele>
        <time>2020-06-14T04:17:09Z</time>
      </trkpt>
      <trkpt lat="41.682099" lon="2.345991">
        <ele>300.40</ele>
        <time>2020-06-14T04:17:14Z</time>
      </trkpt>
      <trkpt lat="41.681972" lon="2.345980">
        <ele>300.80</ele>
        <time>2020-06-14T04:17:16Z</time>
      </trkpt>
      <trkpt lat="41.681840" lon="2.345966">
        <ele>301.00</ele>
        <time>2020-06-14T04:17:18Z</time>
      </trkpt>
      <trkpt lat="41.681712" lon="2.345952">
        <ele>301.20</ele>
        <time>2020-06-14T04:17:20Z</time>
      </trkpt>
      <trkpt lat="41.681525" lon="2.345928">
        <ele>301.20</ele>
        <time>2020-06-14T04:17:23Z</time>
      </trkpt>
      <trkpt lat="41.681405" lon="2.345915">
        <ele>301.00</ele>
        <time>2020-06-14T04:17:25Z</time>
      </trkpt>
      <trkpt lat="41.681288" lon="2.345909">
        <ele>301.20</ele>
        <time>2020-06-14T04:17:27Z</time>
      </trkpt>
      <trkpt lat="41.681049" lon="2.345915">
        <ele>301.60</ele>
        <time>2020-06-14T04:17:31Z</time>
      </trkpt>
      <trkpt lat="41.680644" lon="2.346033">
        <ele>302.20</ele>
        <time>2020-06-14T04:17:38Z</time>
      </trkpt>
      <trkpt lat="41.680345" lon="2.346126">
        <ele>301.40</ele>
        <time>2020-06-14T04:17:44Z</time>
      </trkpt>
      <trkpt lat="41.680243" lon="2.346148">
        <ele>300.80</ele>
        <time>2020-06-14T04:17:46Z</time>
      </trkpt>
      <trkpt lat="41.680135" lon="2.346172">
        <ele>300.40</ele>
        <time>2020-06-14T04:17:48Z</time>
      </trkpt>
      <trkpt lat="41.679864" lon="2.346206">
        <ele>299.40</ele>
        <time>2020-06-14T04:17:53Z</time>
      </trkpt>
      <trkpt lat="41.679808" lon="2.346205">
        <ele>299.40</ele>
        <time>2020-06-14T04:17:54Z</time>
      </trkpt>
      <trkpt lat="41.679412" lon="2.346130">
        <ele>298.40</ele>
        <time>2020-06-14T04:18:01Z</time>
      </trkpt>
      <trkpt lat="41.679297" lon="2.346101">
        <ele>298.20</ele>
        <time>2020-06-14T04:18:03Z</time>
      </trkpt>
      <trkpt lat="41.678857" lon="2.345994">
        <ele>297.80</ele>
        <time>2020-06-14T04:18:11Z</time>
      </trkpt>
      <trkpt lat="41.678588" lon="2.345948">
        <ele>297.20</ele>
        <time>2020-06-14T04:18:16Z</time>
      </trkpt>
      <trkpt lat="41.678436" lon="2.345926">
        <ele>296.60</ele>
        <time>2020-06-14T04:18:19Z</time>
      </trkpt>
      <trkpt lat="41.678237" lon="2.345876">
        <ele>296.20</ele>
        <time>2020-06-14T04:18:23Z</time>
      </trkpt>
      <trkpt lat="41.678106" lon="2.345826">
        <ele>295.80</ele>
        <time>2020-06-14T04:18:26Z</time>
      </trkpt>
      <trkpt lat="41.678027" lon="2.345779">
        <ele>295.40</ele>
        <time>2020-06-14T04:18:28Z</time>
      </trkpt>
      <trkpt lat="41.677992" lon="2.345746">
        <ele>295.00</ele>
        <time>2020-06-14T04:18:29Z</time>
      </trkpt>
      <trkpt lat="41.677895" lon="2.345624">
        <ele>294.00</ele>
        <time>2020-06-14T04:18:32Z</time>
      </trkpt>
      <trkpt lat="41.677832" lon="2.345555">
        <ele>293.20</ele>
        <time>2020-06-14T04:18:34Z</time>
      </trkpt>
      <trkpt lat="41.677796" lon="2.345530">
        <ele>292.80</ele>
        <time>2020-06-14T04:18:35Z</time>
      </trkpt>
      <trkpt lat="41.677727" lon="2.345483">
        <ele>292.00</ele>
        <time>2020-06-14T04:18:37Z</time>
      </trkpt>
      <trkpt lat="41.677694" lon="2.345453">
        <ele>291.60</ele>
        <time>2020-06-14T04:18:38Z</time>
      </trkpt>
      <trkpt lat="41.677531" lon="2.345283">
        <ele>290.20</ele>
        <time>2020-06-14T04:18:43Z</time>
      </trkpt>
      <trkpt lat="41.677494" lon="2.345253">
        <ele>290.00</ele>
        <time>2020-06-14T04:18:44Z</time>
      </trkpt>
      <trkpt lat="41.677224" lon="2.345024">
        <ele>289.20</ele>
        <time>2020-06-14T04:18:51Z</time>
      </trkpt>
      <trkpt lat="41.677190" lon="2.344990">
        <ele>289.20</ele>
        <time>2020-06-14T04:18:52Z</time>
      </trkpt>
      <trkpt lat="41.677024" lon="2.344853">
        <ele>288.20</ele>
        <time>2020-06-14T04:18:57Z</time>
      </trkpt>
      <trkpt lat="41.676962" lon="2.344787">
        <ele>287.60</ele>
        <time>2020-06-14T04:18:59Z</time>
      </trkpt>
      <trkpt lat="41.676902" lon="2.344717">
        <ele>287.00</ele>
        <time>2020-06-14T04:19:01Z</time>
      </trkpt>
      <trkpt lat="41.676788" lon="2.344570">
        <ele>285.80</ele>
        <time>2020-06-14T04:19:05Z</time>
      </trkpt>
      <trkpt lat="41.676761" lon="2.344534">
        <ele>285.60</ele>
        <time>2020-06-14T04:19:06Z</time>
      </trkpt>
      <trkpt lat="41.676706" lon="2.344461">
        <ele>284.80</ele>
        <time>2020-06-14T04:19:08Z</time>
      </trkpt>
      <trkpt lat="41.676645" lon="2.344388">
        <ele>283.80</ele>
        <time>2020-06-14T04:19:10Z</time>
      </trkpt>
      <trkpt lat="41.676619" lon="2.344345">
        <ele>283.40</ele>
        <time>2020-06-14T04:19:11Z</time>
      </trkpt>
      <trkpt lat="41.676495" lon="2.344221">
        <ele>282.20</ele>
        <time>2020-06-14T04:19:15Z</time>
      </trkpt>
      <trkpt lat="41.676462" lon="2.344195">
        <ele>281.80</ele>
        <time>2020-06-14T04:19:16Z</time>
      </trkpt>
      <trkpt lat="41.676390" lon="2.344140">
        <ele>281.20</ele>
        <time>2020-06-14T04:19:18Z</time>
      </trkpt>
      <trkpt lat="41.676352" lon="2.344113">
        <ele>280.20</ele>
        <time>2020-06-14T04:19:19Z</time>
      </trkpt>
      <trkpt lat="41.676189" lon="2.344014">
        <ele>278.80</ele>
        <time>2020-06-14T04:19:23Z</time>
      </trkpt>
      <trkpt lat="41.676019" lon="2.343911">
        <ele>277.60</ele>
        <time>2020-06-14T04:19:27Z</time>
      </trkpt>
      <trkpt lat="41.675828" lon="2.343806">
        <ele>276.60</ele>
        <time>2020-06-14T04:19:31Z</time>
      </trkpt>
      <trkpt lat="41.675780" lon="2.343778">
        <ele>276.40</ele>
        <time>2020-06-14T04:19:32Z</time>
      </trkpt>
      <trkpt lat="41.675731" lon="2.343750">
        <ele>276.20</ele>
        <time>2020-06-14T04:19:33Z</time>
      </trkpt>
      <trkpt lat="41.675579" lon="2.343669">
        <ele>275.60</ele>
        <time>2020-06-14T04:19:36Z</time>
      </trkpt>
      <trkpt lat="41.675429" lon="2.343584">
        <ele>275.00</ele>
        <time>2020-06-14T04:19:39Z</time>
      </trkpt>
      <trkpt lat="41.675381" lon="2.343552">
        <ele>274.80</ele>
        <time>2020-06-14T04:19:40Z</time>
      </trkpt>
      <trkpt lat="41.675297" lon="2.343498">
        <ele>274.40</ele>
        <time>2020-06-14T04:19:42Z</time>
      </trkpt>
      <trkpt lat="41.675249" lon="2.343483">
        <ele>274.00</ele>
        <time>2020-06-14T04:19:43Z</time>
      </trkpt>
      <trkpt lat="41.675197" lon="2.343455">
        <ele>274.00</ele>
        <time>2020-06-14T04:19:44Z</time>
      </trkpt>
      <trkpt lat="41.675051" lon="2.343336">
        <ele>273.20</ele>
        <time>2020-06-14T04:19:47Z</time>
      </trkpt>
      <trkpt lat="41.674902" lon="2.343193">
        <ele>272.40</ele>
        <time>2020-06-14T04:19:50Z</time>
      </trkpt>
      <trkpt lat="41.674639" lon="2.342914">
        <ele>271.80</ele>
        <time>2020-06-14T04:19:55Z</time>
      </trkpt>
      <trkpt lat="41.674578" lon="2.342862">
        <ele>272.20</ele>
        <time>2020-06-14T04:19:56Z</time>
      </trkpt>
      <trkpt lat="41.674245" lon="2.342664">
        <ele>272.60</ele>
        <time>2020-06-14T04:20:01Z</time>
      </trkpt>
      <trkpt lat="41.674179" lon="2.342641">
        <ele>272.80</ele>
        <time>2020-06-14T04:20:02Z</time>
      </trkpt>
      <trkpt lat="41.673987" lon="2.342640">
        <ele>273.60</ele>
        <time>2020-06-14T04:20:05Z</time>
      </trkpt>
      <trkpt lat="41.673718" lon="2.342670">
        <ele>272.80</ele>
        <time>2020-06-14T04:20:09Z</time>
      </trkpt>
      <trkpt lat="41.673651" lon="2.342678">
        <ele>272.80</ele>
        <time>2020-06-14T04:20:10Z</time>
      </trkpt>
      <trkpt lat="41.673583" lon="2.342689">
        <ele>273.20</ele>
        <time>2020-06-14T04:20:11Z</time>
      </trkpt>
      <trkpt lat="41.673382" lon="2.342760">
        <ele>273.60</ele>
        <time>2020-06-14T04:20:14Z</time>
      </trkpt>
      <trkpt lat="41.673318" lon="2.342789">
        <ele>273.60</ele>
        <time>2020-06-14T04:20:15Z</time>
      </trkpt>
      <trkpt lat="41.673145" lon="2.342955">
        <ele>274.20</ele>
        <time>2020-06-14T04:20:18Z</time>
      </trkpt>
      <trkpt lat="41.673037" lon="2.343074">
        <ele>275.00</ele>
        <time>2020-06-14T04:20:20Z</time>
      </trkpt>
      <trkpt lat="41.672980" lon="2.343124">
        <ele>275.20</ele>
        <time>2020-06-14T04:20:21Z</time>
      </trkpt>
      <trkpt lat="41.672736" lon="2.343343">
        <ele>275.80</ele>
        <time>2020-06-14T04:20:26Z</time>
      </trkpt>
      <trkpt lat="41.672604" lon="2.343460">
        <ele>275.60</ele>
        <time>2020-06-14T04:20:29Z</time>
      </trkpt>
      <trkpt lat="41.672552" lon="2.343482">
        <ele>275.20</ele>
        <time>2020-06-14T04:20:30Z</time>
      </trkpt>
      <trkpt lat="41.672454" lon="2.343506">
        <ele>274.80</ele>
        <time>2020-06-14T04:20:32Z</time>
      </trkpt>
      <trkpt lat="41.672404" lon="2.343514">
        <ele>274.80</ele>
        <time>2020-06-14T04:20:33Z</time>
      </trkpt>
      <trkpt lat="41.672053" lon="2.343517">
        <ele>274.40</ele>
        <time>2020-06-14T04:20:40Z</time>
      </trkpt>
      <trkpt lat="41.671897" lon="2.343522">
        <ele>274.00</ele>
        <time>2020-06-14T04:20:43Z</time>
      </trkpt>
      <trkpt lat="41.671708" lon="2.343518">
        <ele>273.80</ele>
        <time>2020-06-14T04:20:47Z</time>
      </trkpt>
      <trkpt lat="41.671423" lon="2.343506">
        <ele>273.00</ele>
        <time>2020-06-14T04:20:54Z</time>
      </trkpt>
      <trkpt lat="41.671387" lon="2.343501">
        <ele>272.60</ele>
        <time>2020-06-14T04:20:55Z</time>
      </trkpt>
      <trkpt lat="41.671237" lon="2.343470">
        <ele>271.80</ele>
        <time>2020-06-14T04:20:59Z</time>
      </trkpt>
      <trkpt lat="41.671134" lon="2.343454">
        <ele>270.80</ele>
        <time>2020-06-14T04:21:02Z</time>
      </trkpt>
      <trkpt lat="41.671099" lon="2.343449">
        <ele>270.60</ele>
        <time>2020-06-14T04:21:03Z</time>
      </trkpt>
      <trkpt lat="41.670964" lon="2.343419">
        <ele>269.20</ele>
        <time>2020-06-14T04:21:07Z</time>
      </trkpt>
      <trkpt lat="41.670859" lon="2.343403">
        <ele>268.20</ele>
        <time>2020-06-14T04:21:10Z</time>
      </trkpt>
      <trkpt lat="41.670793" lon="2.343387">
        <ele>268.00</ele>
        <time>2020-06-14T04:21:12Z</time>
      </trkpt>
      <trkpt lat="41.670620" lon="2.343364">
        <ele>266.80</ele>
        <time>2020-06-14T04:21:17Z</time>
      </trkpt>
      <trkpt lat="41.670531" lon="2.343340">
        <ele>265.40</ele>
        <time>2020-06-14T04:21:20Z</time>
      </trkpt>
      <trkpt lat="41.670458" lon="2.343255">
        <ele>264.40</ele>
        <time>2020-06-14T04:21:23Z</time>
      </trkpt>
      <trkpt lat="41.670411" lon="2.343188">
        <ele>264.20</ele>
        <time>2020-06-14T04:21:25Z</time>
      </trkpt>
      <trkpt lat="41.670309" lon="2.343055">
        <ele>263.20</ele>
        <time>2020-06-14T04:21:29Z</time>
      </trkpt>
      <trkpt lat="41.670249" lon="2.342993">
        <ele>262.80</ele>
        <time>2020-06-14T04:21:31Z</time>
      </trkpt>
      <trkpt lat="41.670163" lon="2.342918">
        <ele>262.20</ele>
        <time>2020-06-14T04:21:34Z</time>
      </trkpt>
      <trkpt lat="41.670047" lon="2.342834">
        <ele>261.00</ele>
        <time>2020-06-14T04:21:38Z</time>
      </trkpt>
      <trkpt lat="41.669990" lon="2.342793">
        <ele>260.60</ele>
        <time>2020-06-14T04:21:40Z</time>
      </trkpt>
      <trkpt lat="41.669930" lon="2.342752">
        <ele>259.80</ele>
        <time>2020-06-14T04:21:42Z</time>
      </trkpt>
      <trkpt lat="41.669802" lon="2.342670">
        <ele>258.20</ele>
        <time>2020-06-14T04:21:46Z</time>
      </trkpt>
      <trkpt lat="41.669736" lon="2.342626">
        <ele>257.80</ele>
        <time>2020-06-14T04:21:48Z</time>
      </trkpt>
      <trkpt lat="41.669667" lon="2.342576">
        <ele>257.20</ele>
        <time>2020-06-14T04:21:50Z</time>
      </trkpt>
      <trkpt lat="41.669523" lon="2.342483">
        <ele>255.80</ele>
        <time>2020-06-14T04:21:54Z</time>
      </trkpt>
      <trkpt lat="41.669404" lon="2.342412">
        <ele>255.00</ele>
        <time>2020-06-14T04:21:57Z</time>
      </trkpt>
      <trkpt lat="41.669365" lon="2.342384">
        <ele>254.80</ele>
        <time>2020-06-14T04:21:58Z</time>
      </trkpt>
      <trkpt lat="41.669239" lon="2.342306">
        <ele>253.80</ele>
        <time>2020-06-14T04:22:01Z</time>
      </trkpt>
      <trkpt lat="41.669109" lon="2.342211">
        <ele>253.00</ele>
        <time>2020-06-14T04:22:04Z</time>
      </trkpt>
      <trkpt lat="41.669023" lon="2.342144">
        <ele>252.80</ele>
        <time>2020-06-14T04:22:06Z</time>
      </trkpt>
      <trkpt lat="41.668888" lon="2.342044">
        <ele>251.40</ele>
        <time>2020-06-14T04:22:09Z</time>
      </trkpt>
      <trkpt lat="41.668836" lon="2.342018">
        <ele>251.20</ele>
        <time>2020-06-14T04:22:10Z</time>
      </trkpt>
      <trkpt lat="41.668669" lon="2.341992">
        <ele>250.20</ele>
        <time>2020-06-14T04:22:13Z</time>
      </trkpt>
      <trkpt lat="41.668190" lon="2.341711">
        <ele>249.00</ele>
        <time>2020-06-14T04:22:21Z</time>
      </trkpt>
      <trkpt lat="41.667736" lon="2.341450">
        <ele>248.20</ele>
        <time>2020-06-14T04:22:28Z</time>
      </trkpt>
      <trkpt lat="41.667354" lon="2.341111">
        <ele>248.00</ele>
        <time>2020-06-14T04:22:34Z</time>
      </trkpt>
      <trkpt lat="41.667290" lon="2.341048">
        <ele>248.00</ele>
        <time>2020-06-14T04:22:35Z</time>
      </trkpt>
      <trkpt lat="41.667152" lon="2.340922">
        <ele>248.20</ele>
        <time>2020-06-14T04:22:37Z</time>
      </trkpt>
      <trkpt lat="41.667020" lon="2.340762">
        <ele>248.20</ele>
        <time>2020-06-14T04:22:39Z</time>
      </trkpt>
      <trkpt lat="41.666969" lon="2.340678">
        <ele>248.00</ele>
        <time>2020-06-14T04:22:40Z</time>
      </trkpt>
      <trkpt lat="41.666875" lon="2.340506">
        <ele>248.40</ele>
        <time>2020-06-14T04:22:42Z</time>
      </trkpt>
      <trkpt lat="41.666824" lon="2.340316">
        <ele>248.40</ele>
        <time>2020-06-14T04:22:44Z</time>
      </trkpt>
      <trkpt lat="41.666776" lon="2.340009">
        <ele>249.00</ele>
        <time>2020-06-14T04:22:47Z</time>
      </trkpt>
      <trkpt lat="41.666736" lon="2.339702">
        <ele>250.00</ele>
        <time>2020-06-14T04:22:50Z</time>
      </trkpt>
      <trkpt lat="41.666716" lon="2.339602">
        <ele>250.20</ele>
        <time>2020-06-14T04:22:51Z</time>
      </trkpt>
      <trkpt lat="41.666695" lon="2.339501">
        <ele>250.40</ele>
        <time>2020-06-14T04:22:52Z</time>
      </trkpt>
      <trkpt lat="41.666660" lon="2.339393">
        <ele>250.80</ele>
        <time>2020-06-14T04:22:53Z</time>
      </trkpt>
      <trkpt lat="41.666635" lon="2.339310">
        <ele>251.40</ele>
        <time>2020-06-14T04:22:54Z</time>
      </trkpt>
      <trkpt lat="41.666547" lon="2.339112">
        <ele>253.40</ele>
        <time>2020-06-14T04:22:57Z</time>
      </trkpt>
      <trkpt lat="41.666517" lon="2.339056">
        <ele>253.60</ele>
        <time>2020-06-14T04:22:58Z</time>
      </trkpt>
      <trkpt lat="41.666488" lon="2.338998">
        <ele>254.00</ele>
        <time>2020-06-14T04:22:59Z</time>
      </trkpt>
      <trkpt lat="41.666350" lon="2.338832">
        <ele>254.40</ele>
        <time>2020-06-14T04:23:03Z</time>
      </trkpt>
      <trkpt lat="41.666261" lon="2.338788">
        <ele>253.20</ele>
        <time>2020-06-14T04:23:06Z</time>
      </trkpt>
      <trkpt lat="41.666153" lon="2.338826">
        <ele>252.00</ele>
        <time>2020-06-14T04:23:09Z</time>
      </trkpt>
      <trkpt lat="41.666118" lon="2.338847">
        <ele>251.40</ele>
        <time>2020-06-14T04:23:10Z</time>
      </trkpt>
      <trkpt lat="41.666047" lon="2.338872">
        <ele>250.40</ele>
        <time>2020-06-14T04:23:12Z</time>
      </trkpt>
      <trkpt lat="41.665949" lon="2.338890">
        <ele>250.00</ele>
        <time>2020-06-14T04:23:15Z</time>
      </trkpt>
      <trkpt lat="41.665917" lon="2.338889">
        <ele>249.40</ele>
        <time>2020-06-14T04:23:16Z</time>
      </trkpt>
      <trkpt lat="41.665839" lon="2.338883">
        <ele>248.40</ele>
        <time>2020-06-14T04:23:18Z</time>
      </trkpt>
      <trkpt lat="41.665746" lon="2.338852">
        <ele>247.20</ele>
        <time>2020-06-14T04:23:20Z</time>
      </trkpt>
      <trkpt lat="41.665697" lon="2.338827">
        <ele>247.00</ele>
        <time>2020-06-14T04:23:21Z</time>
      </trkpt>
      <trkpt lat="41.665444" lon="2.338685">
        <ele>245.80</ele>
        <time>2020-06-14T04:23:26Z</time>
      </trkpt>
      <trkpt lat="41.665387" lon="2.338648">
        <ele>245.60</ele>
        <time>2020-06-14T04:23:27Z</time>
      </trkpt>
      <trkpt lat="41.665328" lon="2.338617">
        <ele>245.40</ele>
        <time>2020-06-14T04:23:28Z</time>
      </trkpt>
      <trkpt lat="41.665007" lon="2.338469">
        <ele>244.00</ele>
        <time>2020-06-14T04:23:33Z</time>
      </trkpt>
      <trkpt lat="41.664857" lon="2.338400">
        <ele>244.60</ele>
        <time>2020-06-14T04:23:35Z</time>
      </trkpt>
      <trkpt lat="41.664722" lon="2.338316">
        <ele>245.60</ele>
        <time>2020-06-14T04:23:37Z</time>
      </trkpt>
      <trkpt lat="41.664546" lon="2.338191">
        <ele>246.00</ele>
        <time>2020-06-14T04:23:40Z</time>
      </trkpt>
      <trkpt lat="41.664331" lon="2.338045">
        <ele>247.40</ele>
        <time>2020-06-14T04:23:44Z</time>
      </trkpt>
      <trkpt lat="41.664280" lon="2.338013">
        <ele>247.80</ele>
        <time>2020-06-14T04:23:45Z</time>
      </trkpt>
      <trkpt lat="41.664180" lon="2.337946">
        <ele>248.60</ele>
        <time>2020-06-14T04:23:47Z</time>
      </trkpt>
      <trkpt lat="41.664105" lon="2.337888">
        <ele>248.60</ele>
        <time>2020-06-14T04:23:49Z</time>
      </trkpt>
      <trkpt lat="41.664031" lon="2.337843">
        <ele>248.00</ele>
        <time>2020-06-14T04:23:51Z</time>
      </trkpt>
      <trkpt lat="41.663946" lon="2.337802">
        <ele>247.40</ele>
        <time>2020-06-14T04:23:53Z</time>
      </trkpt>
      <trkpt lat="41.663904" lon="2.337786">
        <ele>247.20</ele>
        <time>2020-06-14T04:23:54Z</time>
      </trkpt>
      <trkpt lat="41.663807" lon="2.337756">
        <ele>246.20</ele>
        <time>2020-06-14T04:23:56Z</time>
      </trkpt>
      <trkpt lat="41.663709" lon="2.337738">
        <ele>246.00</ele>
        <time>2020-06-14T04:23:58Z</time>
      </trkpt>
      <trkpt lat="41.663504" lon="2.337667">
        <ele>245.60</ele>
        <time>2020-06-14T04:24:03Z</time>
      </trkpt>
      <trkpt lat="41.663467" lon="2.337640">
        <ele>245.20</ele>
        <time>2020-06-14T04:24:04Z</time>
      </trkpt>
      <trkpt lat="41.663318" lon="2.337513">
        <ele>244.60</ele>
        <time>2020-06-14T04:24:08Z</time>
      </trkpt>
      <trkpt lat="41.663282" lon="2.337477">
        <ele>244.60</ele>
        <time>2020-06-14T04:24:09Z</time>
      </trkpt>
      <trkpt lat="41.663185" lon="2.337344">
        <ele>244.20</ele>
        <time>2020-06-14T04:24:12Z</time>
      </trkpt>
      <trkpt lat="41.663076" lon="2.337228">
        <ele>243.00</ele>
        <time>2020-06-14T04:24:15Z</time>
      </trkpt>
      <trkpt lat="41.663016" lon="2.337158">
        <ele>242.40</ele>
        <time>2020-06-14T04:24:17Z</time>
      </trkpt>
      <trkpt lat="41.662936" lon="2.337075">
        <ele>241.80</ele>
        <time>2020-06-14T04:24:19Z</time>
      </trkpt>
      <trkpt lat="41.662836" lon="2.336958">
        <ele>240.80</ele>
        <time>2020-06-14T04:24:22Z</time>
      </trkpt>
      <trkpt lat="41.662778" lon="2.336899">
        <ele>240.20</ele>
        <time>2020-06-14T04:24:24Z</time>
      </trkpt>
      <trkpt lat="41.662747" lon="2.336871">
        <ele>240.20</ele>
        <time>2020-06-14T04:24:25Z</time>
      </trkpt>
      <trkpt lat="41.662661" lon="2.336798">
        <ele>239.80</ele>
        <time>2020-06-14T04:24:28Z</time>
      </trkpt>
      <trkpt lat="41.662633" lon="2.336787">
        <ele>239.20</ele>
        <time>2020-06-14T04:24:29Z</time>
      </trkpt>
      <trkpt lat="41.662566" lon="2.336781">
        <ele>238.40</ele>
        <time>2020-06-14T04:24:31Z</time>
      </trkpt>
      <trkpt lat="41.662469" lon="2.336779">
        <ele>237.40</ele>
        <time>2020-06-14T04:24:34Z</time>
      </trkpt>
      <trkpt lat="41.662362" lon="2.336832">
        <ele>236.00</ele>
        <time>2020-06-14T04:24:37Z</time>
      </trkpt>
      <trkpt lat="41.662298" lon="2.336898">
        <ele>235.20</ele>
        <time>2020-06-14T04:24:39Z</time>
      </trkpt>
      <trkpt lat="41.662267" lon="2.336947">
        <ele>234.80</ele>
        <time>2020-06-14T04:24:40Z</time>
      </trkpt>
      <trkpt lat="41.662203" lon="2.337062">
        <ele>234.20</ele>
        <time>2020-06-14T04:24:42Z</time>
      </trkpt>
      <trkpt lat="41.662109" lon="2.337175">
        <ele>233.80</ele>
        <time>2020-06-14T04:24:44Z</time>
      </trkpt>
      <trkpt lat="41.661958" lon="2.337309">
        <ele>233.60</ele>
        <time>2020-06-14T04:24:47Z</time>
      </trkpt>
      <trkpt lat="41.661807" lon="2.337389">
        <ele>233.20</ele>
        <time>2020-06-14T04:24:50Z</time>
      </trkpt>
      <trkpt lat="41.661696" lon="2.337440">
        <ele>233.00</ele>
        <time>2020-06-14T04:24:52Z</time>
      </trkpt>
      <trkpt lat="41.661580" lon="2.337474">
        <ele>232.60</ele>
        <time>2020-06-14T04:24:54Z</time>
      </trkpt>
      <trkpt lat="41.661392" lon="2.337474">
        <ele>233.00</ele>
        <time>2020-06-14T04:24:57Z</time>
      </trkpt>
      <trkpt lat="41.661281" lon="2.337422">
        <ele>233.20</ele>
        <time>2020-06-14T04:24:59Z</time>
      </trkpt>
      <trkpt lat="41.661099" lon="2.337326">
        <ele>232.60</ele>
        <time>2020-06-14T04:25:03Z</time>
      </trkpt>
      <trkpt lat="41.660902" lon="2.337248">
        <ele>230.80</ele>
        <time>2020-06-14T04:25:07Z</time>
      </trkpt>
      <trkpt lat="41.660752" lon="2.337189">
        <ele>231.00</ele>
        <time>2020-06-14T04:25:10Z</time>
      </trkpt>
      <trkpt lat="41.660609" lon="2.337093">
        <ele>231.20</ele>
        <time>2020-06-14T04:25:13Z</time>
      </trkpt>
      <trkpt lat="41.660566" lon="2.337062">
        <ele>231.40</ele>
        <time>2020-06-14T04:25:14Z</time>
      </trkpt>
      <trkpt lat="41.660386" lon="2.336878">
        <ele>231.40</ele>
        <time>2020-06-14T04:25:19Z</time>
      </trkpt>
      <trkpt lat="41.660217" lon="2.336718">
        <ele>230.20</ele>
        <time>2020-06-14T04:25:24Z</time>
      </trkpt>
      <trkpt lat="41.660134" lon="2.336670">
        <ele>229.80</ele>
        <time>2020-06-14T04:25:26Z</time>
      </trkpt>
      <trkpt lat="41.660054" lon="2.336632">
        <ele>229.20</ele>
        <time>2020-06-14T04:25:28Z</time>
      </trkpt>
      <trkpt lat="41.659988" lon="2.336606">
        <ele>228.20</ele>
        <time>2020-06-14T04:25:30Z</time>
      </trkpt>
      <trkpt lat="41.659912" lon="2.336583">
        <ele>227.40</ele>
        <time>2020-06-14T04:25:32Z</time>
      </trkpt>
      <trkpt lat="41.659873" lon="2.336574">
        <ele>227.00</ele>
        <time>2020-06-14T04:25:33Z</time>
      </trkpt>
      <trkpt lat="41.659738" lon="2.336560">
        <ele>225.40</ele>
        <time>2020-06-14T04:25:36Z</time>
      </trkpt>
      <trkpt lat="41.659635" lon="2.336569">
        <ele>224.80</ele>
        <time>2020-06-14T04:25:38Z</time>
      </trkpt>
      <trkpt lat="41.659582" lon="2.336578">
        <ele>224.40</ele>
        <time>2020-06-14T04:25:39Z</time>
      </trkpt>
      <trkpt lat="41.659288" lon="2.336509">
        <ele>223.60</ele>
        <time>2020-06-14T04:25:44Z</time>
      </trkpt>
      <trkpt lat="41.659225" lon="2.336493">
        <ele>223.60</ele>
        <time>2020-06-14T04:25:45Z</time>
      </trkpt>
      <trkpt lat="41.658949" lon="2.336500">
        <ele>224.00</ele>
        <time>2020-06-14T04:25:50Z</time>
      </trkpt>
      <trkpt lat="41.658900" lon="2.336502">
        <ele>224.20</ele>
        <time>2020-06-14T04:25:51Z</time>
      </trkpt>
      <trkpt lat="41.658688" lon="2.336480">
        <ele>224.60</ele>
        <time>2020-06-14T04:25:55Z</time>
      </trkpt>
      <trkpt lat="41.658474" lon="2.336504">
        <ele>224.40</ele>
        <time>2020-06-14T04:26:01Z</time>
      </trkpt>
      <trkpt lat="41.658441" lon="2.336509">
        <ele>224.40</ele>
        <time>2020-06-14T04:26:02Z</time>
      </trkpt>
      <trkpt lat="41.658262" lon="2.336457">
        <ele>223.40</ele>
        <time>2020-06-14T04:26:07Z</time>
      </trkpt>
      <trkpt lat="41.658227" lon="2.336435">
        <ele>223.00</ele>
        <time>2020-06-14T04:26:08Z</time>
      </trkpt>
      <trkpt lat="41.658128" lon="2.336361">
        <ele>222.20</ele>
        <time>2020-06-14T04:26:12Z</time>
      </trkpt>
      <trkpt lat="41.658035" lon="2.336334">
        <ele>221.20</ele>
        <time>2020-06-14T04:26:15Z</time>
      </trkpt>
      <trkpt lat="41.658003" lon="2.336321">
        <ele>220.80</ele>
        <time>2020-06-14T04:26:16Z</time>
      </trkpt>
      <trkpt lat="41.657952" lon="2.336294">
        <ele>220.00</ele>
        <time>2020-06-14T04:26:18Z</time>
      </trkpt>
      <trkpt lat="41.657927" lon="2.336275">
        <ele>219.60</ele>
        <time>2020-06-14T04:26:19Z</time>
      </trkpt>
      <trkpt lat="41.657880" lon="2.336227">
        <ele>218.80</ele>
        <time>2020-06-14T04:26:21Z</time>
      </trkpt>
      <trkpt lat="41.657858" lon="2.336197">
        <ele>218.40</ele>
        <time>2020-06-14T04:26:22Z</time>
      </trkpt>
      <trkpt lat="41.657838" lon="2.336172">
        <ele>217.80</ele>
        <time>2020-06-14T04:26:23Z</time>
      </trkpt>
      <trkpt lat="41.657786" lon="2.336125">
        <ele>216.60</ele>
        <time>2020-06-14T04:26:25Z</time>
      </trkpt>
      <trkpt lat="41.657751" lon="2.336112">
        <ele>216.00</ele>
        <time>2020-06-14T04:26:26Z</time>
      </trkpt>
      <trkpt lat="41.657711" lon="2.336096">
        <ele>215.40</ele>
        <time>2020-06-14T04:26:27Z</time>
      </trkpt>
      <trkpt lat="41.657665" lon="2.336092">
        <ele>214.80</ele>
        <time>2020-06-14T04:26:28Z</time>
      </trkpt>
      <trkpt lat="41.657559" lon="2.336112">
        <ele>214.20</ele>
        <time>2020-06-14T04:26:30Z</time>
      </trkpt>
      <trkpt lat="41.657446" lon="2.336135">
        <ele>213.20</ele>
        <time>2020-06-14T04:26:32Z</time>
      </trkpt>
      <trkpt lat="41.657387" lon="2.336152">
        <ele>213.00</ele>
        <time>2020-06-14T04:26:33Z</time>
      </trkpt>
      <trkpt lat="41.657326" lon="2.336172">
        <ele>213.00</ele>
        <time>2020-06-14T04:26:34Z</time>
      </trkpt>
      <trkpt lat="41.657201" lon="2.336142">
        <ele>213.00</ele>
        <time>2020-06-14T04:26:36Z</time>
      </trkpt>
      <trkpt lat="41.657153" lon="2.336091">
        <ele>213.20</ele>
        <time>2020-06-14T04:26:37Z</time>
      </trkpt>
      <trkpt lat="41.657106" lon="2.336027">
        <ele>213.20</ele>
        <time>2020-06-14T04:26:38Z</time>
      </trkpt>
      <trkpt lat="41.656959" lon="2.335761">
        <ele>214.00</ele>
        <time>2020-06-14T04:26:42Z</time>
      </trkpt>
      <trkpt lat="41.656925" lon="2.335694">
        <ele>214.40</ele>
        <time>2020-06-14T04:26:43Z</time>
      </trkpt>
      <trkpt lat="41.656809" lon="2.335500">
        <ele>215.20</ele>
        <time>2020-06-14T04:26:46Z</time>
      </trkpt>
      <trkpt lat="41.656777" lon="2.335439">
        <ele>215.20</ele>
        <time>2020-06-14T04:26:47Z</time>
      </trkpt>
      <trkpt lat="41.656741" lon="2.335393">
        <ele>215.00</ele>
        <time>2020-06-14T04:26:48Z</time>
      </trkpt>
      <trkpt lat="41.656532" lon="2.335092">
        <ele>213.80</ele>
        <time>2020-06-14T04:26:53Z</time>
      </trkpt>
      <trkpt lat="41.656484" lon="2.335020">
        <ele>213.60</ele>
        <time>2020-06-14T04:26:54Z</time>
      </trkpt>
      <trkpt lat="41.656357" lon="2.334763">
        <ele>213.40</ele>
        <time>2020-06-14T04:26:57Z</time>
      </trkpt>
      <trkpt lat="41.656332" lon="2.334662">
        <ele>213.60</ele>
        <time>2020-06-14T04:26:58Z</time>
      </trkpt>
      <trkpt lat="41.656306" lon="2.334445">
        <ele>214.00</ele>
        <time>2020-06-14T04:27:00Z</time>
      </trkpt>
      <trkpt lat="41.656302" lon="2.334328">
        <ele>214.80</ele>
        <time>2020-06-14T04:27:01Z</time>
      </trkpt>
      <trkpt lat="41.656301" lon="2.334214">
        <ele>215.20</ele>
        <time>2020-06-14T04:27:02Z</time>
      </trkpt>
      <trkpt lat="41.656301" lon="2.334108">
        <ele>215.60</ele>
        <time>2020-06-14T04:27:03Z</time>
      </trkpt>
      <trkpt lat="41.656284" lon="2.333903">
        <ele>216.40</ele>
        <time>2020-06-14T04:27:05Z</time>
      </trkpt>
      <trkpt lat="41.656220" lon="2.333750">
        <ele>217.00</ele>
        <time>2020-06-14T04:27:07Z</time>
      </trkpt>
      <trkpt lat="41.656173" lon="2.333676">
        <ele>217.40</ele>
        <time>2020-06-14T04:27:08Z</time>
      </trkpt>
      <trkpt lat="41.656012" lon="2.333501">
        <ele>218.80</ele>
        <time>2020-06-14T04:27:11Z</time>
      </trkpt>
      <trkpt lat="41.655957" lon="2.333453">
        <ele>219.40</ele>
        <time>2020-06-14T04:27:12Z</time>
      </trkpt>
      <trkpt lat="41.655724" lon="2.333287">
        <ele>220.00</ele>
        <time>2020-06-14T04:27:17Z</time>
      </trkpt>
      <trkpt lat="41.655654" lon="2.333214">
        <ele>219.00</ele>
        <time>2020-06-14T04:27:19Z</time>
      </trkpt>
      <trkpt lat="41.655560" lon="2.333064">
        <ele>217.60</ele>
        <time>2020-06-14T04:27:22Z</time>
      </trkpt>
      <trkpt lat="41.655500" lon="2.332955">
        <ele>216.80</ele>
        <time>2020-06-14T04:27:24Z</time>
      </trkpt>
      <trkpt lat="41.655468" lon="2.332900">
        <ele>216.40</ele>
        <time>2020-06-14T04:27:25Z</time>
      </trkpt>
      <trkpt lat="41.655334" lon="2.332678">
        <ele>215.40</ele>
        <time>2020-06-14T04:27:29Z</time>
      </trkpt>
      <trkpt lat="41.655262" lon="2.332568">
        <ele>214.60</ele>
        <time>2020-06-14T04:27:31Z</time>
      </trkpt>
      <trkpt lat="41.655233" lon="2.332520">
        <ele>214.20</ele>
        <time>2020-06-14T04:27:32Z</time>
      </trkpt>
      <trkpt lat="41.654985" lon="2.332043">
        <ele>212.60</ele>
        <time>2020-06-14T04:27:39Z</time>
      </trkpt>
      <trkpt lat="41.654719" lon="2.331524">
        <ele>213.00</ele>
        <time>2020-06-14T04:27:46Z</time>
      </trkpt>
      <trkpt lat="41.654683" lon="2.331452">
        <ele>213.00</ele>
        <time>2020-06-14T04:27:47Z</time>
      </trkpt>
      <trkpt lat="41.654469" lon="2.331059">
        <ele>213.00</ele>
        <time>2020-06-14T04:27:53Z</time>
      </trkpt>
      <trkpt lat="41.654329" lon="2.330847">
        <ele>212.00</ele>
        <time>2020-06-14T04:27:57Z</time>
      </trkpt>
      <trkpt lat="41.654288" lon="2.330808">
        <ele>211.60</ele>
        <time>2020-06-14T04:27:58Z</time>
      </trkpt>
      <trkpt lat="41.654069" lon="2.330735">
        <ele>211.60</ele>
        <time>2020-06-14T04:28:02Z</time>
      </trkpt>
      <trkpt lat="41.653942" lon="2.330709">
        <ele>212.00</ele>
        <time>2020-06-14T04:28:04Z</time>
      </trkpt>
      <trkpt lat="41.653625" lon="2.330616">
        <ele>212.20</ele>
        <time>2020-06-14T04:28:09Z</time>
      </trkpt>
      <trkpt lat="41.653565" lon="2.330600">
        <ele>212.20</ele>
        <time>2020-06-14T04:28:10Z</time>
      </trkpt>
      <trkpt lat="41.653507" lon="2.330586">
        <ele>212.00</ele>
        <time>2020-06-14T04:28:11Z</time>
      </trkpt>
      <trkpt lat="41.653452" lon="2.330563">
        <ele>211.60</ele>
        <time>2020-06-14T04:28:12Z</time>
      </trkpt>
      <trkpt lat="41.653301" lon="2.330488">
        <ele>210.80</ele>
        <time>2020-06-14T04:28:15Z</time>
      </trkpt>
      <trkpt lat="41.653151" lon="2.330392">
        <ele>209.20</ele>
        <time>2020-06-14T04:28:18Z</time>
      </trkpt>
      <trkpt lat="41.653041" lon="2.330316">
        <ele>208.00</ele>
        <time>2020-06-14T04:28:20Z</time>
      </trkpt>
      <trkpt lat="41.652636" lon="2.330001">
        <ele>206.60</ele>
        <time>2020-06-14T04:28:26Z</time>
      </trkpt>
      <trkpt lat="41.652485" lon="2.329862">
        <ele>206.80</ele>
        <time>2020-06-14T04:28:28Z</time>
      </trkpt>
      <trkpt lat="41.652298" lon="2.329643">
        <ele>207.80</ele>
        <time>2020-06-14T04:28:30Z</time>
      </trkpt>
      <trkpt lat="41.652182" lon="2.329444">
        <ele>210.00</ele>
        <time>2020-06-14T04:28:32Z</time>
      </trkpt>
      <trkpt lat="41.652134" lon="2.329351">
        <ele>210.40</ele>
        <time>2020-06-14T04:28:33Z</time>
      </trkpt>
      <trkpt lat="41.652071" lon="2.329310">
        <ele>211.20</ele>
        <time>2020-06-14T04:28:34Z</time>
      </trkpt>
      <trkpt lat="41.651925" lon="2.329244">
        <ele>212.40</ele>
        <time>2020-06-14T04:28:36Z</time>
      </trkpt>
      <trkpt lat="41.651851" lon="2.329221">
        <ele>213.00</ele>
        <time>2020-06-14T04:28:37Z</time>
      </trkpt>
      <trkpt lat="41.651771" lon="2.329205">
        <ele>213.60</ele>
        <time>2020-06-14T04:28:38Z</time>
      </trkpt>
      <trkpt lat="41.651625" lon="2.329204">
        <ele>214.40</ele>
        <time>2020-06-14T04:28:40Z</time>
      </trkpt>
      <trkpt lat="41.651560" lon="2.329214">
        <ele>214.60</ele>
        <time>2020-06-14T04:28:41Z</time>
      </trkpt>
      <trkpt lat="41.651430" lon="2.329265">
        <ele>214.80</ele>
        <time>2020-06-14T04:28:43Z</time>
      </trkpt>
      <trkpt lat="41.651251" lon="2.329391">
        <ele>215.60</ele>
        <time>2020-06-14T04:28:46Z</time>
      </trkpt>
      <trkpt lat="41.651133" lon="2.329469">
        <ele>216.00</ele>
        <time>2020-06-14T04:28:48Z</time>
      </trkpt>
      <trkpt lat="41.651083" lon="2.329488">
        <ele>216.20</ele>
        <time>2020-06-14T04:28:49Z</time>
      </trkpt>
      <trkpt lat="41.650985" lon="2.329508">
        <ele>216.80</ele>
        <time>2020-06-14T04:28:51Z</time>
      </trkpt>
      <trkpt lat="41.650824" lon="2.329506">
        <ele>217.40</ele>
        <time>2020-06-14T04:28:55Z</time>
      </trkpt>
      <trkpt lat="41.650784" lon="2.329493">
        <ele>216.80</ele>
        <time>2020-06-14T04:28:56Z</time>
      </trkpt>
      <trkpt lat="41.650655" lon="2.329424">
        <ele>216.00</ele>
        <time>2020-06-14T04:28:59Z</time>
      </trkpt>
      <trkpt lat="41.650458" lon="2.329335">
        <ele>215.00</ele>
        <time>2020-06-14T04:29:03Z</time>
      </trkpt>
      <trkpt lat="41.650414" lon="2.329314">
        <ele>214.80</ele>
        <time>2020-06-14T04:29:04Z</time>
      </trkpt>
      <trkpt lat="41.650326" lon="2.329266">
        <ele>214.40</ele>
        <time>2020-06-14T04:29:06Z</time>
      </trkpt>
      <trkpt lat="41.650196" lon="2.329160">
        <ele>214.00</ele>
        <time>2020-06-14T04:29:09Z</time>
      </trkpt>
      <trkpt lat="41.650156" lon="2.329121">
        <ele>214.00</ele>
        <time>2020-06-14T04:29:10Z</time>
      </trkpt>
      <trkpt lat="41.650035" lon="2.328950">
        <ele>213.80</ele>
        <time>2020-06-14T04:29:14Z</time>
      </trkpt>
      <trkpt lat="41.650014" lon="2.328920">
        <ele>213.60</ele>
        <time>2020-06-14T04:29:15Z</time>
      </trkpt>
      <trkpt lat="41.649919" lon="2.328815">
        <ele>212.60</ele>
        <time>2020-06-14T04:29:18Z</time>
      </trkpt>
      <trkpt lat="41.649820" lon="2.328701">
        <ele>211.20</ele>
        <time>2020-06-14T04:29:21Z</time>
      </trkpt>
      <trkpt lat="41.649786" lon="2.328658">
        <ele>211.40</ele>
        <time>2020-06-14T04:29:22Z</time>
      </trkpt>
      <trkpt lat="41.649654" lon="2.328463">
        <ele>210.60</ele>
        <time>2020-06-14T04:29:26Z</time>
      </trkpt>
      <trkpt lat="41.649502" lon="2.328181">
        <ele>210.20</ele>
        <time>2020-06-14T04:29:31Z</time>
      </trkpt>
      <trkpt lat="41.649447" lon="2.328075">
        <ele>210.00</ele>
        <time>2020-06-14T04:29:33Z</time>
      </trkpt>
      <trkpt lat="41.649288" lon="2.327724">
        <ele>209.60</ele>
        <time>2020-06-14T04:29:40Z</time>
      </trkpt>
      <trkpt lat="41.649211" lon="2.327478">
        <ele>209.20</ele>
        <time>2020-06-14T04:29:45Z</time>
      </trkpt>
      <trkpt lat="41.649194" lon="2.327443">
        <ele>208.60</ele>
        <time>2020-06-14T04:29:46Z</time>
      </trkpt>
      <trkpt lat="41.649178" lon="2.327403">
        <ele>208.00</ele>
        <time>2020-06-14T04:29:47Z</time>
      </trkpt>
      <trkpt lat="41.649064" lon="2.327256">
        <ele>206.80</ele>
        <time>2020-06-14T04:29:51Z</time>
      </trkpt>
      <trkpt lat="41.649036" lon="2.327231">
        <ele>206.60</ele>
        <time>2020-06-14T04:29:52Z</time>
      </trkpt>
      <trkpt lat="41.648983" lon="2.327193">
        <ele>205.20</ele>
        <time>2020-06-14T04:29:54Z</time>
      </trkpt>
      <trkpt lat="41.648876" lon="2.327111">
        <ele>203.60</ele>
        <time>2020-06-14T04:29:57Z</time>
      </trkpt>
      <trkpt lat="41.648756" lon="2.327015">
        <ele>202.40</ele>
        <time>2020-06-14T04:30:00Z</time>
      </trkpt>
      <trkpt lat="41.648715" lon="2.326973">
        <ele>202.40</ele>
        <time>2020-06-14T04:30:01Z</time>
      </trkpt>
      <trkpt lat="41.648677" lon="2.326924">
        <ele>202.20</ele>
        <time>2020-06-14T04:30:02Z</time>
      </trkpt>
      <trkpt lat="41.648599" lon="2.326811">
        <ele>201.80</ele>
        <time>2020-06-14T04:30:04Z</time>
      </trkpt>
      <trkpt lat="41.648504" lon="2.326619">
        <ele>201.60</ele>
        <time>2020-06-14T04:30:07Z</time>
      </trkpt>
      <trkpt lat="41.648469" lon="2.326492">
        <ele>201.80</ele>
        <time>2020-06-14T04:30:09Z</time>
      </trkpt>
      <trkpt lat="41.648459" lon="2.326276">
        <ele>201.60</ele>
        <time>2020-06-14T04:30:13Z</time>
      </trkpt>
      <trkpt lat="41.648463" lon="2.326186">
        <ele>201.20</ele>
        <time>2020-06-14T04:30:15Z</time>
      </trkpt>
      <trkpt lat="41.648453" lon="2.326092">
        <ele>200.60</ele>
        <time>2020-06-14T04:30:17Z</time>
      </trkpt>
      <trkpt lat="41.648443" lon="2.326042">
        <ele>200.00</ele>
        <time>2020-06-14T04:30:18Z</time>
      </trkpt>
      <trkpt lat="41.648367" lon="2.325848">
        <ele>198.60</ele>
        <time>2020-06-14T04:30:22Z</time>
      </trkpt>
      <trkpt lat="41.648269" lon="2.325768">
        <ele>197.20</ele>
        <time>2020-06-14T04:30:25Z</time>
      </trkpt>
      <trkpt lat="41.648135" lon="2.325733">
        <ele>196.60</ele>
        <time>2020-06-14T04:30:28Z</time>
      </trkpt>
      <trkpt lat="41.648043" lon="2.325714">
        <ele>196.00</ele>
        <time>2020-06-14T04:30:30Z</time>
      </trkpt>
      <trkpt lat="41.647995" lon="2.325696">
        <ele>195.80</ele>
        <time>2020-06-14T04:30:31Z</time>
      </trkpt>
      <trkpt lat="41.647842" lon="2.325656">
        <ele>195.00</ele>
        <time>2020-06-14T04:30:34Z</time>
      </trkpt>
      <trkpt lat="41.647789" lon="2.325640">
        <ele>195.00</ele>
        <time>2020-06-14T04:30:35Z</time>
      </trkpt>
      <trkpt lat="41.647632" lon="2.325664">
        <ele>194.40</ele>
        <time>2020-06-14T04:30:38Z</time>
      </trkpt>
      <trkpt lat="41.647497" lon="2.325709">
        <ele>194.20</ele>
        <time>2020-06-14T04:30:41Z</time>
      </trkpt>
      <trkpt lat="41.647459" lon="2.325686">
        <ele>194.00</ele>
        <time>2020-06-14T04:30:42Z</time>
      </trkpt>
      <trkpt lat="41.647364" lon="2.325536">
        <ele>192.80</ele>
        <time>2020-06-14T04:30:45Z</time>
      </trkpt>
      <trkpt lat="41.647334" lon="2.325473">
        <ele>192.40</ele>
        <time>2020-06-14T04:30:46Z</time>
      </trkpt>
      <trkpt lat="41.647267" lon="2.325344">
        <ele>192.40</ele>
        <time>2020-06-14T04:30:48Z</time>
      </trkpt>
      <trkpt lat="41.647223" lon="2.325290">
        <ele>192.40</ele>
        <time>2020-06-14T04:30:49Z</time>
      </trkpt>
      <trkpt lat="41.647177" lon="2.325261">
        <ele>192.00</ele>
        <time>2020-06-14T04:30:50Z</time>
      </trkpt>
      <trkpt lat="41.646926" lon="2.325001">
        <ele>191.60</ele>
        <time>2020-06-14T04:30:55Z</time>
      </trkpt>
      <trkpt lat="41.646870" lon="2.324940">
        <ele>192.00</ele>
        <time>2020-06-14T04:30:56Z</time>
      </trkpt>
      <trkpt lat="41.646746" lon="2.324838">
        <ele>192.20</ele>
        <time>2020-06-14T04:30:58Z</time>
      </trkpt>
      <trkpt lat="41.646607" lon="2.324753">
        <ele>192.40</ele>
        <time>2020-06-14T04:31:00Z</time>
      </trkpt>
      <trkpt lat="41.646308" lon="2.324612">
        <ele>193.40</ele>
        <time>2020-06-14T04:31:05Z</time>
      </trkpt>
      <trkpt lat="41.646133" lon="2.324533">
        <ele>193.60</ele>
        <time>2020-06-14T04:31:10Z</time>
      </trkpt>
      <trkpt lat="41.646064" lon="2.324543">
        <ele>192.80</ele>
        <time>2020-06-14T04:31:13Z</time>
      </trkpt>
      <trkpt lat="41.645966" lon="2.324575">
        <ele>191.60</ele>
        <time>2020-06-14T04:31:16Z</time>
      </trkpt>
      <trkpt lat="41.645866" lon="2.324619">
        <ele>190.40</ele>
        <time>2020-06-14T04:31:19Z</time>
      </trkpt>
      <trkpt lat="41.645800" lon="2.324637">
        <ele>189.20</ele>
        <time>2020-06-14T04:31:21Z</time>
      </trkpt>
      <trkpt lat="41.645729" lon="2.324651">
        <ele>188.40</ele>
        <time>2020-06-14T04:31:23Z</time>
      </trkpt>
      <trkpt lat="41.645689" lon="2.324655">
        <ele>188.40</ele>
        <time>2020-06-14T04:31:24Z</time>
      </trkpt>
      <trkpt lat="41.645602" lon="2.324666">
        <ele>188.00</ele>
        <time>2020-06-14T04:31:26Z</time>
      </trkpt>
      <trkpt lat="41.645462" lon="2.324672">
        <ele>186.80</ele>
        <time>2020-06-14T04:31:29Z</time>
      </trkpt>
      <trkpt lat="41.645413" lon="2.324682">
        <ele>186.60</ele>
        <time>2020-06-14T04:31:30Z</time>
      </trkpt>
      <trkpt lat="41.645192" lon="2.324668">
        <ele>186.00</ele>
        <time>2020-06-14T04:31:35Z</time>
      </trkpt>
      <trkpt lat="41.645151" lon="2.324651">
        <ele>185.80</ele>
        <time>2020-06-14T04:31:36Z</time>
      </trkpt>
      <trkpt lat="41.644980" lon="2.324562">
        <ele>185.00</ele>
        <time>2020-06-14T04:31:40Z</time>
      </trkpt>
      <trkpt lat="41.644933" lon="2.324536">
        <ele>185.00</ele>
        <time>2020-06-14T04:31:41Z</time>
      </trkpt>
      <trkpt lat="41.644807" lon="2.324443">
        <ele>184.80</ele>
        <time>2020-06-14T04:31:44Z</time>
      </trkpt>
      <trkpt lat="41.644747" lon="2.324400">
        <ele>184.40</ele>
        <time>2020-06-14T04:31:46Z</time>
      </trkpt>
      <trkpt lat="41.644607" lon="2.324329">
        <ele>183.80</ele>
        <time>2020-06-14T04:31:53Z</time>
      </trkpt>
      <trkpt lat="41.644533" lon="2.324287">
        <ele>183.20</ele>
        <time>2020-06-14T04:31:58Z</time>
      </trkpt>
      <trkpt lat="41.644505" lon="2.324272">
        <ele>183.00</ele>
        <time>2020-06-14T04:32:00Z</time>
      </trkpt>
      <trkpt lat="41.644488" lon="2.324261">
        <ele>182.60</ele>
        <time>2020-06-14T04:32:01Z</time>
      </trkpt>
      <trkpt lat="41.644438" lon="2.324231">
        <ele>182.00</ele>
        <time>2020-06-14T04:32:03Z</time>
      </trkpt>
      <trkpt lat="41.644375" lon="2.324180">
        <ele>181.40</ele>
        <time>2020-06-14T04:32:05Z</time>
      </trkpt>
      <trkpt lat="41.644343" lon="2.324153">
        <ele>181.00</ele>
        <time>2020-06-14T04:32:06Z</time>
      </trkpt>
      <trkpt lat="41.644275" lon="2.324100">
        <ele>180.20</ele>
        <time>2020-06-14T04:32:08Z</time>
      </trkpt>
      <trkpt lat="41.644212" lon="2.324030">
        <ele>179.40</ele>
        <time>2020-06-14T04:32:10Z</time>
      </trkpt>
      <trkpt lat="41.644178" lon="2.323992">
        <ele>179.00</ele>
        <time>2020-06-14T04:32:11Z</time>
      </trkpt>
      <trkpt lat="41.644143" lon="2.323955">
        <ele>178.80</ele>
        <time>2020-06-14T04:32:12Z</time>
      </trkpt>
      <trkpt lat="41.644081" lon="2.323873">
        <ele>178.20</ele>
        <time>2020-06-14T04:32:14Z</time>
      </trkpt>
      <trkpt lat="41.644051" lon="2.323832">
        <ele>177.80</ele>
        <time>2020-06-14T04:32:15Z</time>
      </trkpt>
      <trkpt lat="41.644020" lon="2.323790">
        <ele>177.40</ele>
        <time>2020-06-14T04:32:16Z</time>
      </trkpt>
      <trkpt lat="41.643954" lon="2.323704">
        <ele>177.00</ele>
        <time>2020-06-14T04:32:18Z</time>
      </trkpt>
      <trkpt lat="41.643878" lon="2.323628">
        <ele>176.40</ele>
        <time>2020-06-14T04:32:20Z</time>
      </trkpt>
      <trkpt lat="41.643765" lon="2.323442">
        <ele>175.80</ele>
        <time>2020-06-14T04:32:25Z</time>
      </trkpt>
      <trkpt lat="41.643769" lon="2.323354">
        <ele>176.60</ele>
        <time>2020-06-14T04:32:28Z</time>
      </trkpt>
      <trkpt lat="41.643798" lon="2.323337">
        <ele>176.80</ele>
        <time>2020-06-14T04:32:29Z</time>
      </trkpt>
      <trkpt lat="41.643885" lon="2.323317">
        <ele>177.20</ele>
        <time>2020-06-14T04:32:31Z</time>
      </trkpt>
      <trkpt lat="41.643938" lon="2.323302">
        <ele>177.60</ele>
        <time>2020-06-14T04:32:32Z</time>
      </trkpt>
      <trkpt lat="41.644084" lon="2.323300">
        <ele>178.20</ele>
        <time>2020-06-14T04:32:36Z</time>
      </trkpt>
      <trkpt lat="41.644101" lon="2.323290">
        <ele>178.20</ele>
        <time>2020-06-14T04:32:37Z</time>
      </trkpt>
      <trkpt lat="41.644098" lon="2.323310">
        <ele>177.80</ele>
        <time>2020-06-14T04:32:39Z</time>
      </trkpt>
      <trkpt lat="41.643962" lon="2.323287">
        <ele>176.80</ele>
        <time>2020-06-14T04:32:43Z</time>
      </trkpt>
      <trkpt lat="41.643885" lon="2.323203">
        <ele>176.80</ele>
        <time>2020-06-14T04:32:45Z</time>
      </trkpt>
      <trkpt lat="41.643834" lon="2.323150">
        <ele>176.60</ele>
        <time>2020-06-14T04:32:46Z</time>
      </trkpt>
      <trkpt lat="41.643784" lon="2.323095">
        <ele>176.20</ele>
        <time>2020-06-14T04:32:47Z</time>
      </trkpt>
      <trkpt lat="41.643716" lon="2.323046">
        <ele>176.00</ele>
        <time>2020-06-14T04:32:48Z</time>
      </trkpt>
      <trkpt lat="41.643473" lon="2.322923">
        <ele>176.60</ele>
        <time>2020-06-14T04:32:51Z</time>
      </trkpt>
      <trkpt lat="41.643302" lon="2.322879">
        <ele>178.00</ele>
        <time>2020-06-14T04:32:53Z</time>
      </trkpt>
      <trkpt lat="41.643141" lon="2.322902">
        <ele>179.80</ele>
        <time>2020-06-14T04:32:55Z</time>
      </trkpt>
      <trkpt lat="41.642987" lon="2.322969">
        <ele>181.00</ele>
        <time>2020-06-14T04:32:57Z</time>
      </trkpt>
      <trkpt lat="41.642842" lon="2.323057">
        <ele>181.60</ele>
        <time>2020-06-14T04:32:59Z</time>
      </trkpt>
      <trkpt lat="41.642690" lon="2.323163">
        <ele>182.20</ele>
        <time>2020-06-14T04:33:01Z</time>
      </trkpt>
      <trkpt lat="41.642531" lon="2.323266">
        <ele>182.60</ele>
        <time>2020-06-14T04:33:03Z</time>
      </trkpt>
      <trkpt lat="41.642367" lon="2.323342">
        <ele>183.60</ele>
        <time>2020-06-14T04:33:05Z</time>
      </trkpt>
      <trkpt lat="41.642211" lon="2.323388">
        <ele>184.80</ele>
        <time>2020-06-14T04:33:07Z</time>
      </trkpt>
      <trkpt lat="41.641918" lon="2.323458">
        <ele>186.00</ele>
        <time>2020-06-14T04:33:11Z</time>
      </trkpt>
      <trkpt lat="41.641786" lon="2.323467">
        <ele>186.80</ele>
        <time>2020-06-14T04:33:13Z</time>
      </trkpt>
      <trkpt lat="41.641722" lon="2.323469">
        <ele>187.40</ele>
        <time>2020-06-14T04:33:14Z</time>
      </trkpt>
      <trkpt lat="41.641600" lon="2.323463">
        <ele>188.40</ele>
        <time>2020-06-14T04:33:16Z</time>
      </trkpt>
      <trkpt lat="41.641511" lon="2.323464">
        <ele>189.40</ele>
        <time>2020-06-14T04:33:18Z</time>
      </trkpt>
      <trkpt lat="41.641253" lon="2.323475">
        <ele>190.00</ele>
        <time>2020-06-14T04:33:25Z</time>
      </trkpt>
      <trkpt lat="41.641188" lon="2.323471">
        <ele>189.60</ele>
        <time>2020-06-14T04:33:27Z</time>
      </trkpt>
      <trkpt lat="41.641048" lon="2.323458">
        <ele>188.40</ele>
        <time>2020-06-14T04:33:31Z</time>
      </trkpt>
      <trkpt lat="41.640976" lon="2.323447">
        <ele>188.00</ele>
        <time>2020-06-14T04:33:33Z</time>
      </trkpt>
      <trkpt lat="41.640914" lon="2.323443">
        <ele>187.40</ele>
        <time>2020-06-14T04:33:35Z</time>
      </trkpt>
      <trkpt lat="41.640813" lon="2.323491">
        <ele>186.20</ele>
        <time>2020-06-14T04:33:39Z</time>
      </trkpt>
      <trkpt lat="41.640788" lon="2.323509">
        <ele>185.80</ele>
        <time>2020-06-14T04:33:40Z</time>
      </trkpt>
      <trkpt lat="41.640708" lon="2.323567">
        <ele>184.80</ele>
        <time>2020-06-14T04:33:43Z</time>
      </trkpt>
      <trkpt lat="41.640639" lon="2.323627">
        <ele>183.80</ele>
        <time>2020-06-14T04:33:46Z</time>
      </trkpt>
      <trkpt lat="41.640570" lon="2.323758">
        <ele>182.60</ele>
        <time>2020-06-14T04:33:50Z</time>
      </trkpt>
      <trkpt lat="41.640521" lon="2.323865">
        <ele>181.60</ele>
        <time>2020-06-14T04:33:53Z</time>
      </trkpt>
      <trkpt lat="41.640436" lon="2.323952">
        <ele>180.60</ele>
        <time>2020-06-14T04:33:57Z</time>
      </trkpt>
      <trkpt lat="41.640376" lon="2.323985">
        <ele>179.60</ele>
        <time>2020-06-14T04:34:00Z</time>
      </trkpt>
      <trkpt lat="41.640354" lon="2.323989">
        <ele>179.20</ele>
        <time>2020-06-14T04:34:01Z</time>
      </trkpt>
      <trkpt lat="41.640272" lon="2.323977">
        <ele>178.00</ele>
        <time>2020-06-14T04:34:04Z</time>
      </trkpt>
      <trkpt lat="41.640242" lon="2.323966">
        <ele>177.60</ele>
        <time>2020-06-14T04:34:05Z</time>
      </trkpt>
      <trkpt lat="41.640185" lon="2.323916">
        <ele>176.80</ele>
        <time>2020-06-14T04:34:07Z</time>
      </trkpt>
      <trkpt lat="41.640136" lon="2.323835">
        <ele>175.60</ele>
        <time>2020-06-14T04:34:09Z</time>
      </trkpt>
      <trkpt lat="41.640128" lon="2.323646">
        <ele>174.60</ele>
        <time>2020-06-14T04:34:13Z</time>
      </trkpt>
      <trkpt lat="41.640122" lon="2.323486">
        <ele>173.60</ele>
        <time>2020-06-14T04:34:16Z</time>
      </trkpt>
      <trkpt lat="41.640121" lon="2.323431">
        <ele>173.40</ele>
        <time>2020-06-14T04:34:17Z</time>
      </trkpt>
      <trkpt lat="41.640122" lon="2.323376">
        <ele>173.00</ele>
        <time>2020-06-14T04:34:18Z</time>
      </trkpt>
      <trkpt lat="41.640126" lon="2.323273">
        <ele>172.00</ele>
        <time>2020-06-14T04:34:20Z</time>
      </trkpt>
      <trkpt lat="41.640124" lon="2.323161">
        <ele>171.20</ele>
        <time>2020-06-14T04:34:22Z</time>
      </trkpt>
      <trkpt lat="41.640120" lon="2.323100">
        <ele>170.60</ele>
        <time>2020-06-14T04:34:23Z</time>
      </trkpt>
      <trkpt lat="41.640101" lon="2.322957">
        <ele>170.00</ele>
        <time>2020-06-14T04:34:25Z</time>
      </trkpt>
      <trkpt lat="41.640085" lon="2.322876">
        <ele>169.40</ele>
        <time>2020-06-14T04:34:26Z</time>
      </trkpt>
      <trkpt lat="41.640067" lon="2.322794">
        <ele>169.00</ele>
        <time>2020-06-14T04:34:27Z</time>
      </trkpt>
      <trkpt lat="41.640046" lon="2.322714">
        <ele>168.80</ele>
        <time>2020-06-14T04:34:28Z</time>
      </trkpt>
      <trkpt lat="41.639960" lon="2.322548">
        <ele>168.20</ele>
        <time>2020-06-14T04:34:31Z</time>
      </trkpt>
      <trkpt lat="41.639927" lon="2.322508">
        <ele>167.80</ele>
        <time>2020-06-14T04:34:32Z</time>
      </trkpt>
      <trkpt lat="41.639893" lon="2.322474">
        <ele>167.60</ele>
        <time>2020-06-14T04:34:33Z</time>
      </trkpt>
      <trkpt lat="41.639854" lon="2.322449">
        <ele>167.60</ele>
        <time>2020-06-14T04:34:34Z</time>
      </trkpt>
      <trkpt lat="41.639730" lon="2.322445">
        <ele>167.00</ele>
        <time>2020-06-14T04:34:36Z</time>
      </trkpt>
      <trkpt lat="41.639533" lon="2.322506">
        <ele>167.00</ele>
        <time>2020-06-14T04:34:39Z</time>
      </trkpt>
      <trkpt lat="41.639394" lon="2.322574">
        <ele>168.00</ele>
        <time>2020-06-14T04:34:41Z</time>
      </trkpt>
      <trkpt lat="41.639326" lon="2.322611">
        <ele>168.80</ele>
        <time>2020-06-14T04:34:42Z</time>
      </trkpt>
      <trkpt lat="41.639267" lon="2.322667">
        <ele>169.20</ele>
        <time>2020-06-14T04:34:43Z</time>
      </trkpt>
      <trkpt lat="41.639208" lon="2.322701">
        <ele>169.60</ele>
        <time>2020-06-14T04:34:44Z</time>
      </trkpt>
      <trkpt lat="41.639104" lon="2.322758">
        <ele>170.60</ele>
        <time>2020-06-14T04:34:46Z</time>
      </trkpt>
      <trkpt lat="41.638991" lon="2.322746">
        <ele>171.80</ele>
        <time>2020-06-14T04:34:48Z</time>
      </trkpt>
      <trkpt lat="41.638857" lon="2.322628">
        <ele>173.40</ele>
        <time>2020-06-14T04:34:50Z</time>
      </trkpt>
      <trkpt lat="41.638800" lon="2.322561">
        <ele>174.40</ele>
        <time>2020-06-14T04:34:51Z</time>
      </trkpt>
      <trkpt lat="41.638748" lon="2.322486">
        <ele>175.40</ele>
        <time>2020-06-14T04:34:52Z</time>
      </trkpt>
      <trkpt lat="41.638697" lon="2.322400">
        <ele>176.20</ele>
        <time>2020-06-14T04:34:53Z</time>
      </trkpt>
      <trkpt lat="41.638608" lon="2.322216">
        <ele>177.60</ele>
        <time>2020-06-14T04:34:55Z</time>
      </trkpt>
      <trkpt lat="41.638570" lon="2.322125">
        <ele>179.20</ele>
        <time>2020-06-14T04:34:56Z</time>
      </trkpt>
      <trkpt lat="41.638535" lon="2.322025">
        <ele>180.20</ele>
        <time>2020-06-14T04:34:57Z</time>
      </trkpt>
      <trkpt lat="41.638440" lon="2.321892">
        <ele>181.40</ele>
        <time>2020-06-14T04:34:59Z</time>
      </trkpt>
      <trkpt lat="41.638392" lon="2.321833">
        <ele>181.60</ele>
        <time>2020-06-14T04:35:00Z</time>
      </trkpt>
      <trkpt lat="41.638222" lon="2.321677">
        <ele>183.00</ele>
        <time>2020-06-14T04:35:03Z</time>
      </trkpt>
      <trkpt lat="41.638164" lon="2.321621">
        <ele>183.00</ele>
        <time>2020-06-14T04:35:04Z</time>
      </trkpt>
      <trkpt lat="41.638109" lon="2.321553">
        <ele>183.20</ele>
        <time>2020-06-14T04:35:05Z</time>
      </trkpt>
      <trkpt lat="41.637970" lon="2.321326">
        <ele>184.20</ele>
        <time>2020-06-14T04:35:08Z</time>
      </trkpt>
      <trkpt lat="41.637891" lon="2.321169">
        <ele>184.80</ele>
        <time>2020-06-14T04:35:10Z</time>
      </trkpt>
      <trkpt lat="41.637852" lon="2.321093">
        <ele>185.40</ele>
        <time>2020-06-14T04:35:11Z</time>
      </trkpt>
      <trkpt lat="41.637741" lon="2.320939">
        <ele>187.40</ele>
        <time>2020-06-14T04:35:14Z</time>
      </trkpt>
      <trkpt lat="41.637677" lon="2.320874">
        <ele>186.60</ele>
        <time>2020-06-14T04:35:16Z</time>
      </trkpt>
      <trkpt lat="41.637648" lon="2.320836">
        <ele>186.00</ele>
        <time>2020-06-14T04:35:17Z</time>
      </trkpt>
      <trkpt lat="41.637581" lon="2.320755">
        <ele>185.00</ele>
        <time>2020-06-14T04:35:19Z</time>
      </trkpt>
      <trkpt lat="41.637324" lon="2.320557">
        <ele>183.80</ele>
        <time>2020-06-14T04:35:24Z</time>
      </trkpt>
      <trkpt lat="41.637265" lon="2.320511">
        <ele>183.80</ele>
        <time>2020-06-14T04:35:25Z</time>
      </trkpt>
      <trkpt lat="41.637043" lon="2.320274">
        <ele>185.00</ele>
        <time>2020-06-14T04:35:29Z</time>
      </trkpt>
      <trkpt lat="41.636906" lon="2.320131">
        <ele>185.60</ele>
        <time>2020-06-14T04:35:32Z</time>
      </trkpt>
      <trkpt lat="41.636863" lon="2.320096">
        <ele>185.80</ele>
        <time>2020-06-14T04:35:33Z</time>
      </trkpt>
      <trkpt lat="41.636767" lon="2.320025">
        <ele>185.60</ele>
        <time>2020-06-14T04:35:35Z</time>
      </trkpt>
      <trkpt lat="41.636554" lon="2.319837">
        <ele>185.00</ele>
        <time>2020-06-14T04:35:39Z</time>
      </trkpt>
      <trkpt lat="41.636492" lon="2.319775">
        <ele>185.20</ele>
        <time>2020-06-14T04:35:40Z</time>
      </trkpt>
      <trkpt lat="41.636366" lon="2.319644">
        <ele>185.80</ele>
        <time>2020-06-14T04:35:42Z</time>
      </trkpt>
      <trkpt lat="41.636309" lon="2.319569">
        <ele>186.20</ele>
        <time>2020-06-14T04:35:43Z</time>
      </trkpt>
      <trkpt lat="41.636265" lon="2.319484">
        <ele>187.00</ele>
        <time>2020-06-14T04:35:44Z</time>
      </trkpt>
      <trkpt lat="41.636229" lon="2.319404">
        <ele>187.40</ele>
        <time>2020-06-14T04:35:45Z</time>
      </trkpt>
      <trkpt lat="41.636190" lon="2.319330">
        <ele>188.20</ele>
        <time>2020-06-14T04:35:46Z</time>
      </trkpt>
      <trkpt lat="41.635919" lon="2.319008">
        <ele>188.60</ele>
        <time>2020-06-14T04:35:52Z</time>
      </trkpt>
      <trkpt lat="41.635681" lon="2.318695">
        <ele>189.20</ele>
        <time>2020-06-14T04:35:57Z</time>
      </trkpt>
      <trkpt lat="41.635530" lon="2.318570">
        <ele>189.60</ele>
        <time>2020-06-14T04:36:01Z</time>
      </trkpt>
      <trkpt lat="41.635366" lon="2.318461">
        <ele>189.60</ele>
        <time>2020-06-14T04:36:05Z</time>
      </trkpt>
      <trkpt lat="41.635210" lon="2.318434">
        <ele>189.60</ele>
        <time>2020-06-14T04:36:08Z</time>
      </trkpt>
      <trkpt lat="41.635115" lon="2.318442">
        <ele>189.80</ele>
        <time>2020-06-14T04:36:10Z</time>
      </trkpt>
      <trkpt lat="41.634954" lon="2.318541">
        <ele>190.20</ele>
        <time>2020-06-14T04:36:15Z</time>
      </trkpt>
      <trkpt lat="41.634928" lon="2.318575">
        <ele>190.40</ele>
        <time>2020-06-14T04:36:16Z</time>
      </trkpt>
      <trkpt lat="41.634853" lon="2.318563">
        <ele>190.40</ele>
        <time>2020-06-14T04:36:19Z</time>
      </trkpt>
      <trkpt lat="41.634833" lon="2.318545">
        <ele>190.40</ele>
        <time>2020-06-14T04:36:20Z</time>
      </trkpt>
      <trkpt lat="41.634774" lon="2.318519">
        <ele>191.00</ele>
        <time>2020-06-14T04:36:22Z</time>
      </trkpt>
      <trkpt lat="41.634489" lon="2.318527">
        <ele>192.20</ele>
        <time>2020-06-14T04:36:27Z</time>
      </trkpt>
      <trkpt lat="41.634435" lon="2.318532">
        <ele>192.00</ele>
        <time>2020-06-14T04:36:28Z</time>
      </trkpt>
      <trkpt lat="41.634324" lon="2.318562">
        <ele>191.20</ele>
        <time>2020-06-14T04:36:30Z</time>
      </trkpt>
      <trkpt lat="41.634072" lon="2.318674">
        <ele>189.40</ele>
        <time>2020-06-14T04:36:34Z</time>
      </trkpt>
      <trkpt lat="41.633943" lon="2.318722">
        <ele>189.20</ele>
        <time>2020-06-14T04:36:36Z</time>
      </trkpt>
      <trkpt lat="41.633823" lon="2.318725">
        <ele>189.60</ele>
        <time>2020-06-14T04:36:38Z</time>
      </trkpt>
      <trkpt lat="41.633757" lon="2.318713">
        <ele>189.40</ele>
        <time>2020-06-14T04:36:39Z</time>
      </trkpt>
      <trkpt lat="41.633486" lon="2.318610">
        <ele>189.80</ele>
        <time>2020-06-14T04:36:43Z</time>
      </trkpt>
      <trkpt lat="41.633289" lon="2.318522">
        <ele>190.20</ele>
        <time>2020-06-14T04:36:46Z</time>
      </trkpt>
      <trkpt lat="41.633158" lon="2.318462">
        <ele>190.60</ele>
        <time>2020-06-14T04:36:48Z</time>
      </trkpt>
      <trkpt lat="41.632892" lon="2.318346">
        <ele>191.40</ele>
        <time>2020-06-14T04:36:52Z</time>
      </trkpt>
      <trkpt lat="41.632536" lon="2.318458">
        <ele>192.20</ele>
        <time>2020-06-14T04:36:58Z</time>
      </trkpt>
      <trkpt lat="41.632320" lon="2.318585">
        <ele>192.20</ele>
        <time>2020-06-14T04:37:02Z</time>
      </trkpt>
      <trkpt lat="41.632210" lon="2.318634">
        <ele>192.20</ele>
        <time>2020-06-14T04:37:04Z</time>
      </trkpt>
      <trkpt lat="41.632070" lon="2.318743">
        <ele>192.80</ele>
        <time>2020-06-14T04:37:07Z</time>
      </trkpt>
      <trkpt lat="41.632039" lon="2.318789">
        <ele>193.00</ele>
        <time>2020-06-14T04:37:08Z</time>
      </trkpt>
      <trkpt lat="41.631953" lon="2.319034">
        <ele>192.60</ele>
        <time>2020-06-14T04:37:13Z</time>
      </trkpt>
      <trkpt lat="41.631897" lon="2.319232">
        <ele>191.40</ele>
        <time>2020-06-14T04:37:17Z</time>
      </trkpt>
      <trkpt lat="41.631853" lon="2.319381">
        <ele>190.20</ele>
        <time>2020-06-14T04:37:20Z</time>
      </trkpt>
      <trkpt lat="41.631796" lon="2.319586">
        <ele>189.00</ele>
        <time>2020-06-14T04:37:24Z</time>
      </trkpt>
      <trkpt lat="41.631753" lon="2.319745">
        <ele>187.80</ele>
        <time>2020-06-14T04:37:27Z</time>
      </trkpt>
      <trkpt lat="41.631706" lon="2.319912">
        <ele>187.00</ele>
        <time>2020-06-14T04:37:30Z</time>
      </trkpt>
      <trkpt lat="41.631654" lon="2.320085">
        <ele>186.60</ele>
        <time>2020-06-14T04:37:33Z</time>
      </trkpt>
      <trkpt lat="41.631639" lon="2.320142">
        <ele>186.40</ele>
        <time>2020-06-14T04:37:34Z</time>
      </trkpt>
      <trkpt lat="41.631602" lon="2.320254">
        <ele>185.80</ele>
        <time>2020-06-14T04:37:36Z</time>
      </trkpt>
      <trkpt lat="41.631531" lon="2.320415">
        <ele>185.60</ele>
        <time>2020-06-14T04:37:39Z</time>
      </trkpt>
      <trkpt lat="41.631500" lon="2.320465">
        <ele>185.40</ele>
        <time>2020-06-14T04:37:40Z</time>
      </trkpt>
      <trkpt lat="41.631469" lon="2.320515">
        <ele>185.00</ele>
        <time>2020-06-14T04:37:41Z</time>
      </trkpt>
      <trkpt lat="41.631407" lon="2.320614">
        <ele>184.80</ele>
        <time>2020-06-14T04:37:43Z</time>
      </trkpt>
      <trkpt lat="41.631314" lon="2.320756">
        <ele>184.00</ele>
        <time>2020-06-14T04:37:46Z</time>
      </trkpt>
      <trkpt lat="41.631256" lon="2.320850">
        <ele>183.40</ele>
        <time>2020-06-14T04:37:48Z</time>
      </trkpt>
      <trkpt lat="41.631196" lon="2.320946">
        <ele>182.80</ele>
        <time>2020-06-14T04:37:50Z</time>
      </trkpt>
      <trkpt lat="41.631168" lon="2.320992">
        <ele>182.60</ele>
        <time>2020-06-14T04:37:51Z</time>
      </trkpt>
      <trkpt lat="41.631121" lon="2.321082">
        <ele>181.80</ele>
        <time>2020-06-14T04:37:53Z</time>
      </trkpt>
      <trkpt lat="41.631094" lon="2.321119">
        <ele>181.60</ele>
        <time>2020-06-14T04:37:54Z</time>
      </trkpt>
      <trkpt lat="41.631000" lon="2.321220">
        <ele>181.00</ele>
        <time>2020-06-14T04:37:57Z</time>
      </trkpt>
      <trkpt lat="41.630965" lon="2.321225">
        <ele>180.80</ele>
        <time>2020-06-14T04:37:58Z</time>
      </trkpt>
      <trkpt lat="41.630939" lon="2.321191">
        <ele>180.60</ele>
        <time>2020-06-14T04:37:59Z</time>
      </trkpt>
      <trkpt lat="41.630926" lon="2.321131">
        <ele>180.20</ele>
        <time>2020-06-14T04:38:00Z</time>
      </trkpt>
      <trkpt lat="41.630893" lon="2.320961">
        <ele>179.60</ele>
        <time>2020-06-14T04:38:02Z</time>
      </trkpt>
      <trkpt lat="41.630875" lon="2.320865">
        <ele>179.60</ele>
        <time>2020-06-14T04:38:03Z</time>
      </trkpt>
      <trkpt lat="41.630843" lon="2.320771">
        <ele>179.60</ele>
        <time>2020-06-14T04:38:04Z</time>
      </trkpt>
      <trkpt lat="41.630803" lon="2.320680">
        <ele>179.80</ele>
        <time>2020-06-14T04:38:05Z</time>
      </trkpt>
      <trkpt lat="41.630761" lon="2.320585">
        <ele>180.00</ele>
        <time>2020-06-14T04:38:06Z</time>
      </trkpt>
      <trkpt lat="41.630668" lon="2.320398">
        <ele>180.60</ele>
        <time>2020-06-14T04:38:08Z</time>
      </trkpt>
      <trkpt lat="41.630619" lon="2.320305">
        <ele>180.80</ele>
        <time>2020-06-14T04:38:09Z</time>
      </trkpt>
      <trkpt lat="41.630508" lon="2.320119">
        <ele>181.80</ele>
        <time>2020-06-14T04:38:11Z</time>
      </trkpt>
      <trkpt lat="41.630399" lon="2.319924">
        <ele>182.80</ele>
        <time>2020-06-14T04:38:13Z</time>
      </trkpt>
      <trkpt lat="41.630355" lon="2.319824">
        <ele>183.20</ele>
        <time>2020-06-14T04:38:14Z</time>
      </trkpt>
      <trkpt lat="41.630175" lon="2.319233">
        <ele>184.40</ele>
        <time>2020-06-14T04:38:20Z</time>
      </trkpt>
      <trkpt lat="41.630152" lon="2.319139">
        <ele>184.00</ele>
        <time>2020-06-14T04:38:21Z</time>
      </trkpt>
      <trkpt lat="41.630068" lon="2.318825">
        <ele>184.20</ele>
        <time>2020-06-14T04:38:24Z</time>
      </trkpt>
      <trkpt lat="41.629962" lon="2.318519">
        <ele>185.20</ele>
        <time>2020-06-14T04:38:27Z</time>
      </trkpt>
      <trkpt lat="41.629815" lon="2.318131">
        <ele>186.20</ele>
        <time>2020-06-14T04:38:31Z</time>
      </trkpt>
      <trkpt lat="41.629709" lon="2.317853">
        <ele>187.40</ele>
        <time>2020-06-14T04:38:34Z</time>
      </trkpt>
      <trkpt lat="41.629509" lon="2.317267">
        <ele>188.80</ele>
        <time>2020-06-14T04:38:41Z</time>
      </trkpt>
      <trkpt lat="41.629460" lon="2.317122">
        <ele>188.60</ele>
        <time>2020-06-14T04:38:43Z</time>
      </trkpt>
      <trkpt lat="41.629302" lon="2.316671">
        <ele>188.20</ele>
        <time>2020-06-14T04:38:49Z</time>
      </trkpt>
      <trkpt lat="41.629218" lon="2.316370">
        <ele>188.20</ele>
        <time>2020-06-14T04:38:53Z</time>
      </trkpt>
      <trkpt lat="41.629202" lon="2.316292">
        <ele>188.20</ele>
        <time>2020-06-14T04:38:54Z</time>
      </trkpt>
      <trkpt lat="41.629192" lon="2.316212">
        <ele>188.20</ele>
        <time>2020-06-14T04:38:55Z</time>
      </trkpt>
      <trkpt lat="41.629188" lon="2.315914">
        <ele>187.80</ele>
        <time>2020-06-14T04:38:59Z</time>
      </trkpt>
      <trkpt lat="41.629190" lon="2.315849">
        <ele>187.60</ele>
        <time>2020-06-14T04:39:00Z</time>
      </trkpt>
      <trkpt lat="41.629192" lon="2.315786">
        <ele>187.20</ele>
        <time>2020-06-14T04:39:01Z</time>
      </trkpt>
      <trkpt lat="41.629188" lon="2.315667">
        <ele>186.40</ele>
        <time>2020-06-14T04:39:03Z</time>
      </trkpt>
      <trkpt lat="41.629174" lon="2.315496">
        <ele>185.00</ele>
        <time>2020-06-14T04:39:06Z</time>
      </trkpt>
      <trkpt lat="41.629171" lon="2.315377">
        <ele>184.00</ele>
        <time>2020-06-14T04:39:08Z</time>
      </trkpt>
      <trkpt lat="41.629161" lon="2.315316">
        <ele>183.60</ele>
        <time>2020-06-14T04:39:09Z</time>
      </trkpt>
      <trkpt lat="41.629131" lon="2.315197">
        <ele>183.00</ele>
        <time>2020-06-14T04:39:11Z</time>
      </trkpt>
      <trkpt lat="41.629092" lon="2.315084">
        <ele>182.40</ele>
        <time>2020-06-14T04:39:13Z</time>
      </trkpt>
      <trkpt lat="41.628997" lon="2.314884">
        <ele>181.20</ele>
        <time>2020-06-14T04:39:17Z</time>
      </trkpt>
      <trkpt lat="41.628969" lon="2.314835">
        <ele>180.80</ele>
        <time>2020-06-14T04:39:18Z</time>
      </trkpt>
      <trkpt lat="41.628920" lon="2.314733">
        <ele>179.80</ele>
        <time>2020-06-14T04:39:20Z</time>
      </trkpt>
      <trkpt lat="41.628798" lon="2.314470">
        <ele>178.60</ele>
        <time>2020-06-14T04:39:25Z</time>
      </trkpt>
      <trkpt lat="41.628777" lon="2.314422">
        <ele>178.40</ele>
        <time>2020-06-14T04:39:26Z</time>
      </trkpt>
      <trkpt lat="41.628723" lon="2.314368">
        <ele>178.20</ele>
        <time>2020-06-14T04:39:28Z</time>
      </trkpt>
      <trkpt lat="41.628605" lon="2.314411">
        <ele>178.60</ele>
        <time>2020-06-14T04:39:31Z</time>
      </trkpt>
      <trkpt lat="41.628438" lon="2.314586">
        <ele>179.80</ele>
        <time>2020-06-14T04:39:34Z</time>
      </trkpt>
      <trkpt lat="41.628253" lon="2.314774">
        <ele>181.20</ele>
        <time>2020-06-14T04:39:37Z</time>
      </trkpt>
      <trkpt lat="41.628193" lon="2.314834">
        <ele>181.80</ele>
        <time>2020-06-14T04:39:38Z</time>
      </trkpt>
      <trkpt lat="41.628137" lon="2.314892">
        <ele>182.40</ele>
        <time>2020-06-14T04:39:39Z</time>
      </trkpt>
      <trkpt lat="41.628031" lon="2.315002">
        <ele>183.40</ele>
        <time>2020-06-14T04:39:41Z</time>
      </trkpt>
      <trkpt lat="41.627938" lon="2.315109">
        <ele>184.20</ele>
        <time>2020-06-14T04:39:43Z</time>
      </trkpt>
      <trkpt lat="41.627696" lon="2.315485">
        <ele>184.20</ele>
        <time>2020-06-14T04:39:50Z</time>
      </trkpt>
      <trkpt lat="41.627598" lon="2.315649">
        <ele>183.60</ele>
        <time>2020-06-14T04:39:53Z</time>
      </trkpt>
      <trkpt lat="41.627565" lon="2.315700">
        <ele>183.60</ele>
        <time>2020-06-14T04:39:54Z</time>
      </trkpt>
      <trkpt lat="41.627492" lon="2.315794">
        <ele>183.20</ele>
        <time>2020-06-14T04:39:56Z</time>
      </trkpt>
      <trkpt lat="41.627415" lon="2.315871">
        <ele>183.00</ele>
        <time>2020-06-14T04:39:58Z</time>
      </trkpt>
      <trkpt lat="41.627218" lon="2.316034">
        <ele>182.60</ele>
        <time>2020-06-14T04:40:03Z</time>
      </trkpt>
      <trkpt lat="41.627142" lon="2.316095">
        <ele>182.20</ele>
        <time>2020-06-14T04:40:05Z</time>
      </trkpt>
      <trkpt lat="41.626958" lon="2.316269">
        <ele>181.60</ele>
        <time>2020-06-14T04:40:10Z</time>
      </trkpt>
      <trkpt lat="41.626898" lon="2.316344">
        <ele>181.40</ele>
        <time>2020-06-14T04:40:12Z</time>
      </trkpt>
      <trkpt lat="41.626636" lon="2.316628">
        <ele>180.40</ele>
        <time>2020-06-14T04:40:20Z</time>
      </trkpt>
      <trkpt lat="41.626478" lon="2.316868">
        <ele>179.40</ele>
        <time>2020-06-14T04:40:26Z</time>
      </trkpt>
      <trkpt lat="41.626372" lon="2.317060">
        <ele>178.20</ele>
        <time>2020-06-14T04:40:31Z</time>
      </trkpt>
      <trkpt lat="41.626313" lon="2.317185">
        <ele>177.20</ele>
        <time>2020-06-14T04:40:34Z</time>
      </trkpt>
      <trkpt lat="41.626294" lon="2.317224">
        <ele>176.80</ele>
        <time>2020-06-14T04:40:35Z</time>
      </trkpt>
      <trkpt lat="41.626218" lon="2.317388">
        <ele>175.80</ele>
        <time>2020-06-14T04:40:39Z</time>
      </trkpt>
      <trkpt lat="41.626178" lon="2.317469">
        <ele>175.20</ele>
        <time>2020-06-14T04:40:41Z</time>
      </trkpt>
      <trkpt lat="41.626121" lon="2.317589">
        <ele>174.60</ele>
        <time>2020-06-14T04:40:44Z</time>
      </trkpt>
      <trkpt lat="41.626043" lon="2.317750">
        <ele>173.60</ele>
        <time>2020-06-14T04:40:48Z</time>
      </trkpt>
      <trkpt lat="41.626025" lon="2.317789">
        <ele>173.40</ele>
        <time>2020-06-14T04:40:49Z</time>
      </trkpt>
      <trkpt lat="41.625925" lon="2.317992">
        <ele>172.20</ele>
        <time>2020-06-14T04:40:55Z</time>
      </trkpt>
      <trkpt lat="41.625903" lon="2.318028">
        <ele>171.60</ele>
        <time>2020-06-14T04:40:56Z</time>
      </trkpt>
      <trkpt lat="41.625838" lon="2.318124">
        <ele>171.00</ele>
        <time>2020-06-14T04:40:59Z</time>
      </trkpt>
      <trkpt lat="41.625752" lon="2.318257">
        <ele>170.00</ele>
        <time>2020-06-14T04:41:03Z</time>
      </trkpt>
      <trkpt lat="41.625730" lon="2.318294">
        <ele>169.80</ele>
        <time>2020-06-14T04:41:04Z</time>
      </trkpt>
      <trkpt lat="41.625667" lon="2.318401">
        <ele>168.80</ele>
        <time>2020-06-14T04:41:07Z</time>
      </trkpt>
      <trkpt lat="41.625593" lon="2.318546">
        <ele>167.80</ele>
        <time>2020-06-14T04:41:11Z</time>
      </trkpt>
      <trkpt lat="41.625550" lon="2.318619">
        <ele>167.20</ele>
        <time>2020-06-14T04:41:13Z</time>
      </trkpt>
      <trkpt lat="41.625504" lon="2.318688">
        <ele>166.60</ele>
        <time>2020-06-14T04:41:15Z</time>
      </trkpt>
      <trkpt lat="41.625419" lon="2.318829">
        <ele>165.60</ele>
        <time>2020-06-14T04:41:19Z</time>
      </trkpt>
      <trkpt lat="41.625374" lon="2.318896">
        <ele>164.60</ele>
        <time>2020-06-14T04:41:21Z</time>
      </trkpt>
      <trkpt lat="41.625352" lon="2.318930">
        <ele>164.40</ele>
        <time>2020-06-14T04:41:22Z</time>
      </trkpt>
      <trkpt lat="41.625262" lon="2.319068">
        <ele>163.20</ele>
        <time>2020-06-14T04:41:26Z</time>
      </trkpt>
      <trkpt lat="41.625195" lon="2.319176">
        <ele>162.40</ele>
        <time>2020-06-14T04:41:29Z</time>
      </trkpt>
      <trkpt lat="41.625170" lon="2.319211">
        <ele>162.00</ele>
        <time>2020-06-14T04:41:30Z</time>
      </trkpt>
      <trkpt lat="41.625053" lon="2.319385">
        <ele>160.80</ele>
        <time>2020-06-14T04:41:35Z</time>
      </trkpt>
      <trkpt lat="41.625003" lon="2.319448">
        <ele>160.20</ele>
        <time>2020-06-14T04:41:37Z</time>
      </trkpt>
      <trkpt lat="41.624958" lon="2.319513">
        <ele>159.60</ele>
        <time>2020-06-14T04:41:39Z</time>
      </trkpt>
      <trkpt lat="41.624883" lon="2.319617">
        <ele>158.60</ele>
        <time>2020-06-14T04:41:42Z</time>
      </trkpt>
      <trkpt lat="41.624814" lon="2.319713">
        <ele>158.00</ele>
        <time>2020-06-14T04:41:45Z</time>
      </trkpt>
      <trkpt lat="41.624771" lon="2.319773">
        <ele>157.60</ele>
        <time>2020-06-14T04:41:47Z</time>
      </trkpt>
      <trkpt lat="41.624683" lon="2.319909">
        <ele>156.40</ele>
        <time>2020-06-14T04:41:51Z</time>
      </trkpt>
      <trkpt lat="41.624638" lon="2.319987">
        <ele>155.80</ele>
        <time>2020-06-14T04:41:53Z</time>
      </trkpt>
      <trkpt lat="41.624571" lon="2.320099">
        <ele>155.20</ele>
        <time>2020-06-14T04:41:56Z</time>
      </trkpt>
      <trkpt lat="41.624490" lon="2.320251">
        <ele>153.80</ele>
        <time>2020-06-14T04:42:00Z</time>
      </trkpt>
      <trkpt lat="41.624442" lon="2.320370">
        <ele>153.00</ele>
        <time>2020-06-14T04:42:03Z</time>
      </trkpt>
      <trkpt lat="41.624427" lon="2.320410">
        <ele>152.80</ele>
        <time>2020-06-14T04:42:04Z</time>
      </trkpt>
      <trkpt lat="41.624393" lon="2.320480">
        <ele>152.20</ele>
        <time>2020-06-14T04:42:06Z</time>
      </trkpt>
      <trkpt lat="41.624352" lon="2.320547">
        <ele>151.60</ele>
        <time>2020-06-14T04:42:08Z</time>
      </trkpt>
      <trkpt lat="41.624334" lon="2.320579">
        <ele>151.00</ele>
        <time>2020-06-14T04:42:09Z</time>
      </trkpt>
      <trkpt lat="41.624316" lon="2.320611">
        <ele>150.40</ele>
        <time>2020-06-14T04:42:10Z</time>
      </trkpt>
      <trkpt lat="41.624297" lon="2.320641">
        <ele>150.00</ele>
        <time>2020-06-14T04:42:11Z</time>
      </trkpt>
      <trkpt lat="41.624265" lon="2.320699">
        <ele>149.00</ele>
        <time>2020-06-14T04:42:13Z</time>
      </trkpt>
      <trkpt lat="41.624231" lon="2.320770">
        <ele>147.80</ele>
        <time>2020-06-14T04:42:15Z</time>
      </trkpt>
      <trkpt lat="41.624215" lon="2.320807">
        <ele>147.40</ele>
        <time>2020-06-14T04:42:16Z</time>
      </trkpt>
      <trkpt lat="41.624186" lon="2.320888">
        <ele>146.80</ele>
        <time>2020-06-14T04:42:18Z</time>
      </trkpt>
      <trkpt lat="41.624145" lon="2.320963">
        <ele>145.80</ele>
        <time>2020-06-14T04:42:20Z</time>
      </trkpt>
      <trkpt lat="41.624106" lon="2.321042">
        <ele>145.00</ele>
        <time>2020-06-14T04:42:22Z</time>
      </trkpt>
      <trkpt lat="41.624082" lon="2.321078">
        <ele>144.60</ele>
        <time>2020-06-14T04:42:23Z</time>
      </trkpt>
      <trkpt lat="41.624059" lon="2.321115">
        <ele>144.40</ele>
        <time>2020-06-14T04:42:24Z</time>
      </trkpt>
      <trkpt lat="41.624012" lon="2.321193">
        <ele>143.40</ele>
        <time>2020-06-14T04:42:26Z</time>
      </trkpt>
      <trkpt lat="41.623981" lon="2.321227">
        <ele>143.00</ele>
        <time>2020-06-14T04:42:27Z</time>
      </trkpt>
      <trkpt lat="41.623927" lon="2.321307">
        <ele>142.40</ele>
        <time>2020-06-14T04:42:29Z</time>
      </trkpt>
      <trkpt lat="41.623871" lon="2.321389">
        <ele>141.80</ele>
        <time>2020-06-14T04:42:31Z</time>
      </trkpt>
      <trkpt lat="41.623817" lon="2.321479">
        <ele>141.40</ele>
        <time>2020-06-14T04:42:33Z</time>
      </trkpt>
      <trkpt lat="41.623734" lon="2.321621">
        <ele>141.20</ele>
        <time>2020-06-14T04:42:36Z</time>
      </trkpt>
      <trkpt lat="41.623629" lon="2.321764">
        <ele>141.00</ele>
        <time>2020-06-14T04:42:39Z</time>
      </trkpt>
      <trkpt lat="41.623563" lon="2.321848">
        <ele>141.00</ele>
        <time>2020-06-14T04:42:41Z</time>
      </trkpt>
      <trkpt lat="41.623511" lon="2.321937">
        <ele>141.40</ele>
        <time>2020-06-14T04:42:43Z</time>
      </trkpt>
      <trkpt lat="41.623461" lon="2.322041">
        <ele>141.40</ele>
        <time>2020-06-14T04:42:46Z</time>
      </trkpt>
      <trkpt lat="41.623371" lon="2.322007">
        <ele>141.20</ele>
        <time>2020-06-14T04:42:51Z</time>
      </trkpt>
      <trkpt lat="41.623328" lon="2.321982">
        <ele>141.00</ele>
        <time>2020-06-14T04:42:55Z</time>
      </trkpt>
      <trkpt lat="41.623281" lon="2.322095">
        <ele>141.40</ele>
        <time>2020-06-14T04:42:58Z</time>
      </trkpt>
      <trkpt lat="41.623260" lon="2.322158">
        <ele>141.80</ele>
        <time>2020-06-14T04:42:59Z</time>
      </trkpt>
      <trkpt lat="41.623180" lon="2.322381">
        <ele>142.40</ele>
        <time>2020-06-14T04:43:02Z</time>
      </trkpt>
      <trkpt lat="41.623127" lon="2.322418">
        <ele>142.60</ele>
        <time>2020-06-14T04:43:03Z</time>
      </trkpt>
      <trkpt lat="41.622933" lon="2.322447">
        <ele>143.00</ele>
        <time>2020-06-14T04:43:06Z</time>
      </trkpt>
      <trkpt lat="41.622870" lon="2.322460">
        <ele>143.20</ele>
        <time>2020-06-14T04:43:07Z</time>
      </trkpt>
      <trkpt lat="41.622740" lon="2.322510">
        <ele>143.40</ele>
        <time>2020-06-14T04:43:09Z</time>
      </trkpt>
      <trkpt lat="41.622674" lon="2.322543">
        <ele>143.40</ele>
        <time>2020-06-14T04:43:10Z</time>
      </trkpt>
      <trkpt lat="41.622539" lon="2.322630">
        <ele>144.20</ele>
        <time>2020-06-14T04:43:12Z</time>
      </trkpt>
      <trkpt lat="41.622471" lon="2.322664">
        <ele>144.60</ele>
        <time>2020-06-14T04:43:13Z</time>
      </trkpt>
      <trkpt lat="41.622407" lon="2.322687">
        <ele>145.00</ele>
        <time>2020-06-14T04:43:14Z</time>
      </trkpt>
      <trkpt lat="41.622342" lon="2.322683">
        <ele>145.40</ele>
        <time>2020-06-14T04:43:15Z</time>
      </trkpt>
      <trkpt lat="41.622220" lon="2.322652">
        <ele>145.80</ele>
        <time>2020-06-14T04:43:17Z</time>
      </trkpt>
      <trkpt lat="41.622055" lon="2.322613">
        <ele>147.00</ele>
        <time>2020-06-14T04:43:20Z</time>
      </trkpt>
      <trkpt lat="41.622004" lon="2.322601">
        <ele>148.00</ele>
        <time>2020-06-14T04:43:21Z</time>
      </trkpt>
      <trkpt lat="41.621957" lon="2.322586">
        <ele>148.20</ele>
        <time>2020-06-14T04:43:22Z</time>
      </trkpt>
      <trkpt lat="41.621872" lon="2.322582">
        <ele>148.80</ele>
        <time>2020-06-14T04:43:24Z</time>
      </trkpt>
      <trkpt lat="41.621791" lon="2.322601">
        <ele>149.80</ele>
        <time>2020-06-14T04:43:26Z</time>
      </trkpt>
      <trkpt lat="41.621746" lon="2.322618">
        <ele>151.00</ele>
        <time>2020-06-14T04:43:27Z</time>
      </trkpt>
      <trkpt lat="41.621709" lon="2.322641">
        <ele>151.80</ele>
        <time>2020-06-14T04:43:28Z</time>
      </trkpt>
      <trkpt lat="41.621672" lon="2.322668">
        <ele>152.20</ele>
        <time>2020-06-14T04:43:29Z</time>
      </trkpt>
      <trkpt lat="41.621586" lon="2.322646">
        <ele>153.00</ele>
        <time>2020-06-14T04:43:31Z</time>
      </trkpt>
      <trkpt lat="41.621485" lon="2.322575">
        <ele>154.60</ele>
        <time>2020-06-14T04:43:33Z</time>
      </trkpt>
      <trkpt lat="41.621370" lon="2.322489">
        <ele>156.00</ele>
        <time>2020-06-14T04:43:35Z</time>
      </trkpt>
      <trkpt lat="41.621262" lon="2.322409">
        <ele>158.00</ele>
        <time>2020-06-14T04:43:37Z</time>
      </trkpt>
      <trkpt lat="41.621157" lon="2.322353">
        <ele>159.40</ele>
        <time>2020-06-14T04:43:39Z</time>
      </trkpt>
      <trkpt lat="41.621099" lon="2.322343">
        <ele>160.00</ele>
        <time>2020-06-14T04:43:40Z</time>
      </trkpt>
      <trkpt lat="41.621046" lon="2.322354">
        <ele>160.60</ele>
        <time>2020-06-14T04:43:41Z</time>
      </trkpt>
      <trkpt lat="41.620931" lon="2.322418">
        <ele>162.00</ele>
        <time>2020-06-14T04:43:43Z</time>
      </trkpt>
      <trkpt lat="41.620867" lon="2.322458">
        <ele>163.00</ele>
        <time>2020-06-14T04:43:44Z</time>
      </trkpt>
      <trkpt lat="41.620753" lon="2.322561">
        <ele>164.80</ele>
        <time>2020-06-14T04:43:46Z</time>
      </trkpt>
      <trkpt lat="41.620652" lon="2.322678">
        <ele>166.80</ele>
        <time>2020-06-14T04:43:48Z</time>
      </trkpt>
      <trkpt lat="41.620606" lon="2.322749">
        <ele>168.00</ele>
        <time>2020-06-14T04:43:49Z</time>
      </trkpt>
      <trkpt lat="41.620506" lon="2.322904">
        <ele>169.80</ele>
        <time>2020-06-14T04:43:51Z</time>
      </trkpt>
      <trkpt lat="41.620451" lon="2.322980">
        <ele>170.60</ele>
        <time>2020-06-14T04:43:52Z</time>
      </trkpt>
      <trkpt lat="41.620393" lon="2.323054">
        <ele>171.40</ele>
        <time>2020-06-14T04:43:53Z</time>
      </trkpt>
      <trkpt lat="41.620329" lon="2.323121">
        <ele>172.40</ele>
        <time>2020-06-14T04:43:54Z</time>
      </trkpt>
      <trkpt lat="41.620259" lon="2.323191">
        <ele>173.40</ele>
        <time>2020-06-14T04:43:55Z</time>
      </trkpt>
      <trkpt lat="41.620188" lon="2.323266">
        <ele>174.60</ele>
        <time>2020-06-14T04:43:56Z</time>
      </trkpt>
      <trkpt lat="41.620063" lon="2.323390">
        <ele>176.20</ele>
        <time>2020-06-14T04:43:58Z</time>
      </trkpt>
      <trkpt lat="41.619944" lon="2.323466">
        <ele>177.40</ele>
        <time>2020-06-14T04:44:00Z</time>
      </trkpt>
      <trkpt lat="41.619894" lon="2.323498">
        <ele>178.00</ele>
        <time>2020-06-14T04:44:01Z</time>
      </trkpt>
      <trkpt lat="41.619858" lon="2.323538">
        <ele>178.80</ele>
        <time>2020-06-14T04:44:02Z</time>
      </trkpt>
      <trkpt lat="41.619846" lon="2.323588">
        <ele>179.20</ele>
        <time>2020-06-14T04:44:03Z</time>
      </trkpt>
      <trkpt lat="41.619925" lon="2.323726">
        <ele>179.80</ele>
        <time>2020-06-14T04:44:06Z</time>
      </trkpt>
      <trkpt lat="41.619983" lon="2.323879">
        <ele>181.00</ele>
        <time>2020-06-14T04:44:08Z</time>
      </trkpt>
      <trkpt lat="41.620045" lon="2.324048">
        <ele>183.80</ele>
        <time>2020-06-14T04:44:10Z</time>
      </trkpt>
      <trkpt lat="41.620076" lon="2.324126">
        <ele>184.20</ele>
        <time>2020-06-14T04:44:11Z</time>
      </trkpt>
      <trkpt lat="41.620139" lon="2.324259">
        <ele>185.00</ele>
        <time>2020-06-14T04:44:13Z</time>
      </trkpt>
      <trkpt lat="41.620249" lon="2.324398">
        <ele>185.40</ele>
        <time>2020-06-14T04:44:16Z</time>
      </trkpt>
      <trkpt lat="41.620466" lon="2.324618">
        <ele>185.60</ele>
        <time>2020-06-14T04:44:22Z</time>
      </trkpt>
      <trkpt lat="41.620584" lon="2.324800">
        <ele>185.80</ele>
        <time>2020-06-14T04:44:27Z</time>
      </trkpt>
      <trkpt lat="41.620611" lon="2.324858">
        <ele>185.20</ele>
        <time>2020-06-14T04:44:29Z</time>
      </trkpt>
      <trkpt lat="41.620636" lon="2.324932">
        <ele>184.00</ele>
        <time>2020-06-14T04:44:31Z</time>
      </trkpt>
      <trkpt lat="41.620653" lon="2.325024">
        <ele>182.40</ele>
        <time>2020-06-14T04:44:33Z</time>
      </trkpt>
      <trkpt lat="41.620660" lon="2.325074">
        <ele>182.00</ele>
        <time>2020-06-14T04:44:34Z</time>
      </trkpt>
      <trkpt lat="41.620673" lon="2.325175">
        <ele>181.20</ele>
        <time>2020-06-14T04:44:36Z</time>
      </trkpt>
      <trkpt lat="41.620711" lon="2.325309">
        <ele>180.00</ele>
        <time>2020-06-14T04:44:39Z</time>
      </trkpt>
      <trkpt lat="41.620794" lon="2.325442">
        <ele>178.80</ele>
        <time>2020-06-14T04:44:42Z</time>
      </trkpt>
      <trkpt lat="41.620831" lon="2.325486">
        <ele>178.60</ele>
        <time>2020-06-14T04:44:43Z</time>
      </trkpt>
      <trkpt lat="41.620921" lon="2.325577">
        <ele>178.00</ele>
        <time>2020-06-14T04:44:45Z</time>
      </trkpt>
      <trkpt lat="41.621048" lon="2.325723">
        <ele>177.40</ele>
        <time>2020-06-14T04:44:48Z</time>
      </trkpt>
      <trkpt lat="41.621090" lon="2.325774">
        <ele>177.00</ele>
        <time>2020-06-14T04:44:49Z</time>
      </trkpt>
      <trkpt lat="41.621212" lon="2.325943">
        <ele>176.20</ele>
        <time>2020-06-14T04:44:52Z</time>
      </trkpt>
      <trkpt lat="41.621297" lon="2.326068">
        <ele>175.60</ele>
        <time>2020-06-14T04:44:54Z</time>
      </trkpt>
      <trkpt lat="41.621384" lon="2.326202">
        <ele>175.20</ele>
        <time>2020-06-14T04:44:56Z</time>
      </trkpt>
      <trkpt lat="41.621466" lon="2.326346">
        <ele>174.60</ele>
        <time>2020-06-14T04:44:58Z</time>
      </trkpt>
      <trkpt lat="41.621494" lon="2.326549">
        <ele>174.20</ele>
        <time>2020-06-14T04:45:01Z</time>
      </trkpt>
      <trkpt lat="41.621480" lon="2.326622">
        <ele>174.20</ele>
        <time>2020-06-14T04:45:02Z</time>
      </trkpt>
      <trkpt lat="41.621394" lon="2.326842">
        <ele>173.60</ele>
        <time>2020-06-14T04:45:05Z</time>
      </trkpt>
      <trkpt lat="41.621353" lon="2.326915">
        <ele>173.60</ele>
        <time>2020-06-14T04:45:06Z</time>
      </trkpt>
      <trkpt lat="41.621072" lon="2.327328">
        <ele>172.60</ele>
        <time>2020-06-14T04:45:12Z</time>
      </trkpt>
      <trkpt lat="41.620949" lon="2.327453">
        <ele>172.60</ele>
        <time>2020-06-14T04:45:14Z</time>
      </trkpt>
      <trkpt lat="41.620757" lon="2.327596">
        <ele>173.20</ele>
        <time>2020-06-14T04:45:17Z</time>
      </trkpt>
      <trkpt lat="41.620690" lon="2.327636">
        <ele>173.40</ele>
        <time>2020-06-14T04:45:18Z</time>
      </trkpt>
      <trkpt lat="41.620620" lon="2.327668">
        <ele>173.60</ele>
        <time>2020-06-14T04:45:19Z</time>
      </trkpt>
      <trkpt lat="41.620551" lon="2.327694">
        <ele>173.60</ele>
        <time>2020-06-14T04:45:20Z</time>
      </trkpt>
      <trkpt lat="41.620480" lon="2.327716">
        <ele>174.60</ele>
        <time>2020-06-14T04:45:21Z</time>
      </trkpt>
      <trkpt lat="41.620413" lon="2.327732">
        <ele>175.20</ele>
        <time>2020-06-14T04:45:22Z</time>
      </trkpt>
      <trkpt lat="41.620346" lon="2.327746">
        <ele>175.40</ele>
        <time>2020-06-14T04:45:23Z</time>
      </trkpt>
      <trkpt lat="41.620202" lon="2.327770">
        <ele>176.00</ele>
        <time>2020-06-14T04:45:25Z</time>
      </trkpt>
      <trkpt lat="41.620131" lon="2.327785">
        <ele>176.20</ele>
        <time>2020-06-14T04:45:26Z</time>
      </trkpt>
      <trkpt lat="41.620058" lon="2.327810">
        <ele>176.40</ele>
        <time>2020-06-14T04:45:27Z</time>
      </trkpt>
      <trkpt lat="41.619846" lon="2.327923">
        <ele>177.20</ele>
        <time>2020-06-14T04:45:30Z</time>
      </trkpt>
      <trkpt lat="41.619711" lon="2.328022">
        <ele>178.00</ele>
        <time>2020-06-14T04:45:32Z</time>
      </trkpt>
      <trkpt lat="41.619539" lon="2.328193">
        <ele>178.40</ele>
        <time>2020-06-14T04:45:35Z</time>
      </trkpt>
      <trkpt lat="41.619407" lon="2.328345">
        <ele>179.60</ele>
        <time>2020-06-14T04:45:38Z</time>
      </trkpt>
      <trkpt lat="41.619175" lon="2.328605">
        <ele>180.80</ele>
        <time>2020-06-14T04:45:43Z</time>
      </trkpt>
      <trkpt lat="41.619132" lon="2.328648">
        <ele>181.00</ele>
        <time>2020-06-14T04:45:44Z</time>
      </trkpt>
      <trkpt lat="41.619089" lon="2.328691">
        <ele>181.40</ele>
        <time>2020-06-14T04:45:45Z</time>
      </trkpt>
      <trkpt lat="41.618884" lon="2.328861">
        <ele>182.40</ele>
        <time>2020-06-14T04:45:51Z</time>
      </trkpt>
      <trkpt lat="41.618798" lon="2.328938">
        <ele>181.80</ele>
        <time>2020-06-14T04:45:54Z</time>
      </trkpt>
      <trkpt lat="41.618690" lon="2.328978">
        <ele>180.80</ele>
        <time>2020-06-14T04:45:57Z</time>
      </trkpt>
      <trkpt lat="41.618650" lon="2.328984">
        <ele>180.60</ele>
        <time>2020-06-14T04:45:58Z</time>
      </trkpt>
      <trkpt lat="41.618529" lon="2.328996">
        <ele>179.40</ele>
        <time>2020-06-14T04:46:01Z</time>
      </trkpt>
      <trkpt lat="41.618417" lon="2.329013">
        <ele>178.00</ele>
        <time>2020-06-14T04:46:04Z</time>
      </trkpt>
      <trkpt lat="41.618282" lon="2.329061">
        <ele>176.80</ele>
        <time>2020-06-14T04:46:08Z</time>
      </trkpt>
      <trkpt lat="41.618187" lon="2.329096">
        <ele>175.80</ele>
        <time>2020-06-14T04:46:11Z</time>
      </trkpt>
      <trkpt lat="41.618155" lon="2.329112">
        <ele>175.40</ele>
        <time>2020-06-14T04:46:12Z</time>
      </trkpt>
      <trkpt lat="41.618067" lon="2.329175">
        <ele>174.20</ele>
        <time>2020-06-14T04:46:15Z</time>
      </trkpt>
      <trkpt lat="41.617948" lon="2.329245">
        <ele>173.40</ele>
        <time>2020-06-14T04:46:19Z</time>
      </trkpt>
      <trkpt lat="41.617841" lon="2.329294">
        <ele>173.00</ele>
        <time>2020-06-14T04:46:22Z</time>
      </trkpt>
      <trkpt lat="41.617713" lon="2.329366">
        <ele>172.20</ele>
        <time>2020-06-14T04:46:25Z</time>
      </trkpt>
      <trkpt lat="41.617541" lon="2.329507">
        <ele>171.60</ele>
        <time>2020-06-14T04:46:30Z</time>
      </trkpt>
      <trkpt lat="41.617480" lon="2.329552">
        <ele>171.40</ele>
        <time>2020-06-14T04:46:32Z</time>
      </trkpt>
      <trkpt lat="41.617369" lon="2.329645">
        <ele>170.60</ele>
        <time>2020-06-14T04:46:36Z</time>
      </trkpt>
      <trkpt lat="41.617258" lon="2.329710">
        <ele>169.80</ele>
        <time>2020-06-14T04:46:39Z</time>
      </trkpt>
      <trkpt lat="41.617222" lon="2.329734">
        <ele>169.40</ele>
        <time>2020-06-14T04:46:40Z</time>
      </trkpt>
      <trkpt lat="41.617163" lon="2.329820">
        <ele>168.80</ele>
        <time>2020-06-14T04:46:43Z</time>
      </trkpt>
      <trkpt lat="41.617148" lon="2.329909">
        <ele>168.40</ele>
        <time>2020-06-14T04:46:45Z</time>
      </trkpt>
      <trkpt lat="41.617136" lon="2.330122">
        <ele>167.20</ele>
        <time>2020-06-14T04:46:50Z</time>
      </trkpt>
      <trkpt lat="41.617137" lon="2.330169">
        <ele>167.00</ele>
        <time>2020-06-14T04:46:51Z</time>
      </trkpt>
      <trkpt lat="41.617123" lon="2.330331">
        <ele>166.20</ele>
        <time>2020-06-14T04:46:55Z</time>
      </trkpt>
      <trkpt lat="41.617110" lon="2.330368">
        <ele>166.00</ele>
        <time>2020-06-14T04:46:56Z</time>
      </trkpt>
      <trkpt lat="41.617082" lon="2.330448">
        <ele>164.80</ele>
        <time>2020-06-14T04:46:58Z</time>
      </trkpt>
      <trkpt lat="41.617062" lon="2.330487">
        <ele>164.60</ele>
        <time>2020-06-14T04:46:59Z</time>
      </trkpt>
      <trkpt lat="41.617021" lon="2.330558">
        <ele>164.40</ele>
        <time>2020-06-14T04:47:01Z</time>
      </trkpt>
      <trkpt lat="41.616971" lon="2.330609">
        <ele>163.80</ele>
        <time>2020-06-14T04:47:04Z</time>
      </trkpt>
      <trkpt lat="41.616938" lon="2.330620">
        <ele>163.60</ele>
        <time>2020-06-14T04:47:05Z</time>
      </trkpt>
      <trkpt lat="41.616813" lon="2.330503">
        <ele>162.80</ele>
        <time>2020-06-14T04:47:09Z</time>
      </trkpt>
      <trkpt lat="41.616738" lon="2.330334">
        <ele>161.40</ele>
        <time>2020-06-14T04:47:13Z</time>
      </trkpt>
      <trkpt lat="41.616700" lon="2.330183">
        <ele>160.40</ele>
        <time>2020-06-14T04:47:17Z</time>
      </trkpt>
      <trkpt lat="41.616674" lon="2.330051">
        <ele>159.40</ele>
        <time>2020-06-14T04:47:21Z</time>
      </trkpt>
      <trkpt lat="41.616655" lon="2.329986">
        <ele>158.40</ele>
        <time>2020-06-14T04:47:23Z</time>
      </trkpt>
      <trkpt lat="41.616646" lon="2.329954">
        <ele>158.00</ele>
        <time>2020-06-14T04:47:24Z</time>
      </trkpt>
      <trkpt lat="41.616612" lon="2.329871">
        <ele>157.20</ele>
        <time>2020-06-14T04:47:27Z</time>
      </trkpt>
      <trkpt lat="41.616541" lon="2.329768">
        <ele>156.00</ele>
        <time>2020-06-14T04:47:31Z</time>
      </trkpt>
      <trkpt lat="41.616488" lon="2.329710">
        <ele>154.80</ele>
        <time>2020-06-14T04:47:34Z</time>
      </trkpt>
      <trkpt lat="41.616414" lon="2.329605">
        <ele>153.60</ele>
        <time>2020-06-14T04:47:38Z</time>
      </trkpt>
      <trkpt lat="41.616357" lon="2.329520">
        <ele>152.20</ele>
        <time>2020-06-14T04:47:41Z</time>
      </trkpt>
      <trkpt lat="41.616302" lon="2.329460">
        <ele>151.80</ele>
        <time>2020-06-14T04:47:43Z</time>
      </trkpt>
      <trkpt lat="41.616242" lon="2.329411">
        <ele>151.20</ele>
        <time>2020-06-14T04:47:45Z</time>
      </trkpt>
      <trkpt lat="41.616184" lon="2.329390">
        <ele>150.00</ele>
        <time>2020-06-14T04:47:47Z</time>
      </trkpt>
      <trkpt lat="41.616146" lon="2.329382">
        <ele>149.40</ele>
        <time>2020-06-14T04:47:48Z</time>
      </trkpt>
      <trkpt lat="41.616056" lon="2.329375">
        <ele>148.40</ele>
        <time>2020-06-14T04:47:50Z</time>
      </trkpt>
      <trkpt lat="41.616005" lon="2.329372">
        <ele>147.80</ele>
        <time>2020-06-14T04:47:51Z</time>
      </trkpt>
      <trkpt lat="41.615895" lon="2.329354">
        <ele>146.80</ele>
        <time>2020-06-14T04:47:53Z</time>
      </trkpt>
      <trkpt lat="41.615833" lon="2.329350">
        <ele>146.40</ele>
        <time>2020-06-14T04:47:54Z</time>
      </trkpt>
      <trkpt lat="41.615775" lon="2.329373">
        <ele>145.80</ele>
        <time>2020-06-14T04:47:55Z</time>
      </trkpt>
      <trkpt lat="41.615714" lon="2.329405">
        <ele>145.40</ele>
        <time>2020-06-14T04:47:56Z</time>
      </trkpt>
      <trkpt lat="41.615657" lon="2.329458">
        <ele>144.80</ele>
        <time>2020-06-14T04:47:57Z</time>
      </trkpt>
      <trkpt lat="41.615536" lon="2.329584">
        <ele>144.00</ele>
        <time>2020-06-14T04:47:59Z</time>
      </trkpt>
      <trkpt lat="41.615415" lon="2.329730">
        <ele>144.00</ele>
        <time>2020-06-14T04:48:01Z</time>
      </trkpt>
      <trkpt lat="41.615188" lon="2.329901">
        <ele>143.80</ele>
        <time>2020-06-14T04:48:04Z</time>
      </trkpt>
      <trkpt lat="41.615028" lon="2.329989">
        <ele>144.40</ele>
        <time>2020-06-14T04:48:06Z</time>
      </trkpt>
      <trkpt lat="41.614954" lon="2.330042">
        <ele>144.80</ele>
        <time>2020-06-14T04:48:07Z</time>
      </trkpt>
      <trkpt lat="41.614813" lon="2.330155">
        <ele>146.20</ele>
        <time>2020-06-14T04:48:09Z</time>
      </trkpt>
      <trkpt lat="41.614761" lon="2.330206">
        <ele>148.00</ele>
        <time>2020-06-14T04:48:10Z</time>
      </trkpt>
      <trkpt lat="41.614705" lon="2.330250">
        <ele>149.00</ele>
        <time>2020-06-14T04:48:11Z</time>
      </trkpt>
      <trkpt lat="41.614652" lon="2.330276">
        <ele>149.80</ele>
        <time>2020-06-14T04:48:12Z</time>
      </trkpt>
      <trkpt lat="41.614599" lon="2.330300">
        <ele>150.80</ele>
        <time>2020-06-14T04:48:13Z</time>
      </trkpt>
      <trkpt lat="41.614470" lon="2.330348">
        <ele>152.00</ele>
        <time>2020-06-14T04:48:16Z</time>
      </trkpt>
      <trkpt lat="41.614389" lon="2.330399">
        <ele>153.40</ele>
        <time>2020-06-14T04:48:18Z</time>
      </trkpt>
      <trkpt lat="41.614292" lon="2.330475">
        <ele>154.80</ele>
        <time>2020-06-14T04:48:20Z</time>
      </trkpt>
      <trkpt lat="41.614239" lon="2.330519">
        <ele>155.20</ele>
        <time>2020-06-14T04:48:21Z</time>
      </trkpt>
      <trkpt lat="41.614086" lon="2.330630">
        <ele>155.40</ele>
        <time>2020-06-14T04:48:24Z</time>
      </trkpt>
      <trkpt lat="41.613989" lon="2.330634">
        <ele>155.80</ele>
        <time>2020-06-14T04:48:26Z</time>
      </trkpt>
      <trkpt lat="41.613770" lon="2.330517">
        <ele>155.60</ele>
        <time>2020-06-14T04:48:31Z</time>
      </trkpt>
      <trkpt lat="41.613690" lon="2.330464">
        <ele>155.20</ele>
        <time>2020-06-14T04:48:33Z</time>
      </trkpt>
      <trkpt lat="41.613567" lon="2.330413">
        <ele>153.60</ele>
        <time>2020-06-14T04:48:36Z</time>
      </trkpt>
      <trkpt lat="41.613521" lon="2.330396">
        <ele>153.40</ele>
        <time>2020-06-14T04:48:37Z</time>
      </trkpt>
      <trkpt lat="41.613190" lon="2.330338">
        <ele>152.80</ele>
        <time>2020-06-14T04:48:43Z</time>
      </trkpt>
      <trkpt lat="41.612847" lon="2.330264">
        <ele>153.00</ele>
        <time>2020-06-14T04:48:49Z</time>
      </trkpt>
      <trkpt lat="41.612749" lon="2.330252">
        <ele>152.60</ele>
        <time>2020-06-14T04:48:51Z</time>
      </trkpt>
      <trkpt lat="41.612704" lon="2.330261">
        <ele>152.20</ele>
        <time>2020-06-14T04:48:52Z</time>
      </trkpt>
      <trkpt lat="41.612659" lon="2.330279">
        <ele>151.80</ele>
        <time>2020-06-14T04:48:53Z</time>
      </trkpt>
      <trkpt lat="41.612615" lon="2.330299">
        <ele>151.60</ele>
        <time>2020-06-14T04:48:54Z</time>
      </trkpt>
      <trkpt lat="41.612572" lon="2.330326">
        <ele>151.60</ele>
        <time>2020-06-14T04:48:55Z</time>
      </trkpt>
      <trkpt lat="41.612405" lon="2.330477">
        <ele>150.60</ele>
        <time>2020-06-14T04:48:59Z</time>
      </trkpt>
      <trkpt lat="41.612340" lon="2.330580">
        <ele>150.40</ele>
        <time>2020-06-14T04:49:01Z</time>
      </trkpt>
      <trkpt lat="41.612257" lon="2.330846">
        <ele>150.60</ele>
        <time>2020-06-14T04:49:05Z</time>
      </trkpt>
      <trkpt lat="41.612241" lon="2.330914">
        <ele>151.00</ele>
        <time>2020-06-14T04:49:06Z</time>
      </trkpt>
      <trkpt lat="41.612192" lon="2.331049">
        <ele>152.20</ele>
        <time>2020-06-14T04:49:08Z</time>
      </trkpt>
      <trkpt lat="41.612102" lon="2.331130">
        <ele>153.40</ele>
        <time>2020-06-14T04:49:10Z</time>
      </trkpt>
      <trkpt lat="41.612059" lon="2.331137">
        <ele>154.00</ele>
        <time>2020-06-14T04:49:11Z</time>
      </trkpt>
      <trkpt lat="41.611935" lon="2.331078">
        <ele>153.60</ele>
        <time>2020-06-14T04:49:15Z</time>
      </trkpt>
      <trkpt lat="41.611914" lon="2.331058">
        <ele>153.20</ele>
        <time>2020-06-14T04:49:16Z</time>
      </trkpt>
      <trkpt lat="41.611863" lon="2.330999">
        <ele>152.20</ele>
        <time>2020-06-14T04:49:18Z</time>
      </trkpt>
      <trkpt lat="41.611705" lon="2.330780">
        <ele>151.20</ele>
        <time>2020-06-14T04:49:23Z</time>
      </trkpt>
      <trkpt lat="41.611672" lon="2.330732">
        <ele>151.20</ele>
        <time>2020-06-14T04:49:24Z</time>
      </trkpt>
      <trkpt lat="41.611641" lon="2.330687">
        <ele>151.00</ele>
        <time>2020-06-14T04:49:25Z</time>
      </trkpt>
      <trkpt lat="41.611529" lon="2.330587">
        <ele>149.80</ele>
        <time>2020-06-14T04:49:28Z</time>
      </trkpt>
      <trkpt lat="41.611433" lon="2.330520">
        <ele>149.60</ele>
        <time>2020-06-14T04:49:30Z</time>
      </trkpt>
      <trkpt lat="41.611323" lon="2.330456">
        <ele>149.40</ele>
        <time>2020-06-14T04:49:32Z</time>
      </trkpt>
      <trkpt lat="41.611153" lon="2.330372">
        <ele>149.60</ele>
        <time>2020-06-14T04:49:35Z</time>
      </trkpt>
      <trkpt lat="41.611099" lon="2.330347">
        <ele>149.60</ele>
        <time>2020-06-14T04:49:36Z</time>
      </trkpt>
      <trkpt lat="41.610935" lon="2.330300">
        <ele>149.20</ele>
        <time>2020-06-14T04:49:39Z</time>
      </trkpt>
      <trkpt lat="41.610821" lon="2.330279">
        <ele>149.40</ele>
        <time>2020-06-14T04:49:41Z</time>
      </trkpt>
      <trkpt lat="41.610657" lon="2.330235">
        <ele>149.60</ele>
        <time>2020-06-14T04:49:44Z</time>
      </trkpt>
      <trkpt lat="41.610607" lon="2.330231">
        <ele>149.40</ele>
        <time>2020-06-14T04:49:45Z</time>
      </trkpt>
      <trkpt lat="41.610305" lon="2.330301">
        <ele>150.00</ele>
        <time>2020-06-14T04:49:51Z</time>
      </trkpt>
      <trkpt lat="41.610261" lon="2.330314">
        <ele>150.00</ele>
        <time>2020-06-14T04:49:52Z</time>
      </trkpt>
      <trkpt lat="41.609991" lon="2.330371">
        <ele>149.00</ele>
        <time>2020-06-14T04:49:59Z</time>
      </trkpt>
      <trkpt lat="41.609851" lon="2.330411">
        <ele>148.00</ele>
        <time>2020-06-14T04:50:03Z</time>
      </trkpt>
      <trkpt lat="41.609779" lon="2.330436">
        <ele>147.80</ele>
        <time>2020-06-14T04:50:05Z</time>
      </trkpt>
      <trkpt lat="41.609656" lon="2.330510">
        <ele>147.00</ele>
        <time>2020-06-14T04:50:09Z</time>
      </trkpt>
      <trkpt lat="41.609578" lon="2.330581">
        <ele>146.00</ele>
        <time>2020-06-14T04:50:12Z</time>
      </trkpt>
      <trkpt lat="41.609555" lon="2.330608">
        <ele>145.80</ele>
        <time>2020-06-14T04:50:13Z</time>
      </trkpt>
      <trkpt lat="41.609489" lon="2.330679">
        <ele>144.80</ele>
        <time>2020-06-14T04:50:16Z</time>
      </trkpt>
      <trkpt lat="41.609423" lon="2.330738">
        <ele>143.80</ele>
        <time>2020-06-14T04:50:19Z</time>
      </trkpt>
      <trkpt lat="41.609353" lon="2.330807">
        <ele>142.80</ele>
        <time>2020-06-14T04:50:23Z</time>
      </trkpt>
      <trkpt lat="41.609333" lon="2.330825">
        <ele>142.40</ele>
        <time>2020-06-14T04:50:24Z</time>
      </trkpt>
      <trkpt lat="41.609283" lon="2.330852">
        <ele>141.60</ele>
        <time>2020-06-14T04:50:26Z</time>
      </trkpt>
      <trkpt lat="41.609177" lon="2.330877">
        <ele>140.20</ele>
        <time>2020-06-14T04:50:30Z</time>
      </trkpt>
      <trkpt lat="41.609095" lon="2.330869">
        <ele>138.60</ele>
        <time>2020-06-14T04:50:33Z</time>
      </trkpt>
      <trkpt lat="41.609008" lon="2.330864">
        <ele>137.00</ele>
        <time>2020-06-14T04:50:36Z</time>
      </trkpt>
      <trkpt lat="41.608906" lon="2.330838">
        <ele>135.80</ele>
        <time>2020-06-14T04:50:39Z</time>
      </trkpt>
      <trkpt lat="41.608789" lon="2.330803">
        <ele>134.80</ele>
        <time>2020-06-14T04:50:42Z</time>
      </trkpt>
      <trkpt lat="41.608699" lon="2.330783">
        <ele>134.40</ele>
        <time>2020-06-14T04:50:44Z</time>
      </trkpt>
      <trkpt lat="41.608444" lon="2.330734">
        <ele>133.80</ele>
        <time>2020-06-14T04:50:49Z</time>
      </trkpt>
      <trkpt lat="41.608336" lon="2.330719">
        <ele>134.00</ele>
        <time>2020-06-14T04:50:51Z</time>
      </trkpt>
      <trkpt lat="41.608182" lon="2.330752">
        <ele>133.80</ele>
        <time>2020-06-14T04:50:54Z</time>
      </trkpt>
      <trkpt lat="41.608054" lon="2.330780">
        <ele>134.00</ele>
        <time>2020-06-14T04:50:57Z</time>
      </trkpt>
      <trkpt lat="41.607971" lon="2.330780">
        <ele>133.80</ele>
        <time>2020-06-14T04:50:59Z</time>
      </trkpt>
      <trkpt lat="41.607931" lon="2.330780">
        <ele>133.80</ele>
        <time>2020-06-14T04:51:00Z</time>
      </trkpt>
      <trkpt lat="41.607849" lon="2.330792">
        <ele>133.20</ele>
        <time>2020-06-14T04:51:02Z</time>
      </trkpt>
      <trkpt lat="41.607657" lon="2.330821">
        <ele>132.00</ele>
        <time>2020-06-14T04:51:07Z</time>
      </trkpt>
      <trkpt lat="41.607493" lon="2.330849">
        <ele>131.00</ele>
        <time>2020-06-14T04:51:11Z</time>
      </trkpt>
      <trkpt lat="41.607274" lon="2.330885">
        <ele>130.60</ele>
        <time>2020-06-14T04:51:16Z</time>
      </trkpt>
      <trkpt lat="41.607151" lon="2.330904">
        <ele>130.00</ele>
        <time>2020-06-14T04:51:19Z</time>
      </trkpt>
      <trkpt lat="41.607047" lon="2.330926">
        <ele>128.60</ele>
        <time>2020-06-14T04:51:22Z</time>
      </trkpt>
      <trkpt lat="41.607014" lon="2.330930">
        <ele>128.00</ele>
        <time>2020-06-14T04:51:23Z</time>
      </trkpt>
      <trkpt lat="41.606950" lon="2.330937">
        <ele>127.40</ele>
        <time>2020-06-14T04:51:25Z</time>
      </trkpt>
      <trkpt lat="41.606848" lon="2.330952">
        <ele>126.20</ele>
        <time>2020-06-14T04:51:28Z</time>
      </trkpt>
      <trkpt lat="41.606813" lon="2.330951">
        <ele>125.80</ele>
        <time>2020-06-14T04:51:29Z</time>
      </trkpt>
      <trkpt lat="41.606694" lon="2.330964">
        <ele>125.00</ele>
        <time>2020-06-14T04:51:32Z</time>
      </trkpt>
      <trkpt lat="41.606549" lon="2.330979">
        <ele>124.20</ele>
        <time>2020-06-14T04:51:35Z</time>
      </trkpt>
      <trkpt lat="41.606333" lon="2.330986">
        <ele>123.40</ele>
        <time>2020-06-14T04:51:39Z</time>
      </trkpt>
      <trkpt lat="41.606159" lon="2.330980">
        <ele>123.00</ele>
        <time>2020-06-14T04:51:42Z</time>
      </trkpt>
      <trkpt lat="41.605783" lon="2.330943">
        <ele>123.80</ele>
        <time>2020-06-14T04:51:48Z</time>
      </trkpt>
      <trkpt lat="41.605655" lon="2.330937">
        <ele>125.00</ele>
        <time>2020-06-14T04:51:50Z</time>
      </trkpt>
      <trkpt lat="41.605482" lon="2.330948">
        <ele>125.60</ele>
        <time>2020-06-14T04:51:53Z</time>
      </trkpt>
      <trkpt lat="41.605394" lon="2.330961">
        <ele>126.00</ele>
        <time>2020-06-14T04:51:55Z</time>
      </trkpt>
      <trkpt lat="41.605219" lon="2.331004">
        <ele>125.00</ele>
        <time>2020-06-14T04:52:00Z</time>
      </trkpt>
      <trkpt lat="41.605124" lon="2.331044">
        <ele>123.80</ele>
        <time>2020-06-14T04:52:03Z</time>
      </trkpt>
      <trkpt lat="41.605000" lon="2.331089">
        <ele>122.60</ele>
        <time>2020-06-14T04:52:07Z</time>
      </trkpt>
      <trkpt lat="41.604892" lon="2.331109">
        <ele>121.40</ele>
        <time>2020-06-14T04:52:10Z</time>
      </trkpt>
      <trkpt lat="41.604783" lon="2.331130">
        <ele>120.20</ele>
        <time>2020-06-14T04:52:13Z</time>
      </trkpt>
      <trkpt lat="41.604748" lon="2.331129">
        <ele>120.00</ele>
        <time>2020-06-14T04:52:14Z</time>
      </trkpt>
      <trkpt lat="41.604645" lon="2.331124">
        <ele>119.00</ele>
        <time>2020-06-14T04:52:17Z</time>
      </trkpt>
      <trkpt lat="41.604529" lon="2.331103">
        <ele>118.00</ele>
        <time>2020-06-14T04:52:20Z</time>
      </trkpt>
      <trkpt lat="41.604355" lon="2.331052">
        <ele>116.60</ele>
        <time>2020-06-14T04:52:24Z</time>
      </trkpt>
      <trkpt lat="41.604259" lon="2.331025">
        <ele>116.00</ele>
        <time>2020-06-14T04:52:26Z</time>
      </trkpt>
      <trkpt lat="41.604209" lon="2.331008">
        <ele>115.60</ele>
        <time>2020-06-14T04:52:27Z</time>
      </trkpt>
      <trkpt lat="41.603937" lon="2.330930">
        <ele>114.00</ele>
        <time>2020-06-14T04:52:32Z</time>
      </trkpt>
      <trkpt lat="41.603815" lon="2.330901">
        <ele>113.40</ele>
        <time>2020-06-14T04:52:34Z</time>
      </trkpt>
      <trkpt lat="41.603677" lon="2.330887">
        <ele>113.60</ele>
        <time>2020-06-14T04:52:36Z</time>
      </trkpt>
      <trkpt lat="41.603605" lon="2.330896">
        <ele>113.60</ele>
        <time>2020-06-14T04:52:37Z</time>
      </trkpt>
      <trkpt lat="41.603390" lon="2.330980">
        <ele>114.20</ele>
        <time>2020-06-14T04:52:40Z</time>
      </trkpt>
      <trkpt lat="41.603173" lon="2.331101">
        <ele>115.40</ele>
        <time>2020-06-14T04:52:43Z</time>
      </trkpt>
      <trkpt lat="41.603103" lon="2.331140">
        <ele>116.00</ele>
        <time>2020-06-14T04:52:44Z</time>
      </trkpt>
      <trkpt lat="41.602972" lon="2.331207">
        <ele>117.00</ele>
        <time>2020-06-14T04:52:46Z</time>
      </trkpt>
      <trkpt lat="41.602860" lon="2.331268">
        <ele>117.60</ele>
        <time>2020-06-14T04:52:48Z</time>
      </trkpt>
      <trkpt lat="41.602680" lon="2.331364">
        <ele>118.40</ele>
        <time>2020-06-14T04:52:52Z</time>
      </trkpt>
      <trkpt lat="41.602602" lon="2.331393">
        <ele>118.60</ele>
        <time>2020-06-14T04:52:54Z</time>
      </trkpt>
      <trkpt lat="41.602464" lon="2.331418">
        <ele>118.20</ele>
        <time>2020-06-14T04:52:58Z</time>
      </trkpt>
      <trkpt lat="41.602391" lon="2.331421">
        <ele>117.80</ele>
        <time>2020-06-14T04:53:00Z</time>
      </trkpt>
      <trkpt lat="41.602198" lon="2.331485">
        <ele>117.20</ele>
        <time>2020-06-14T04:53:05Z</time>
      </trkpt>
      <trkpt lat="41.602087" lon="2.331523">
        <ele>116.40</ele>
        <time>2020-06-14T04:53:08Z</time>
      </trkpt>
      <trkpt lat="41.602019" lon="2.331545">
        <ele>116.00</ele>
        <time>2020-06-14T04:53:10Z</time>
      </trkpt>
      <trkpt lat="41.601888" lon="2.331586">
        <ele>115.20</ele>
        <time>2020-06-14T04:53:14Z</time>
      </trkpt>
      <trkpt lat="41.601854" lon="2.331603">
        <ele>115.00</ele>
        <time>2020-06-14T04:53:15Z</time>
      </trkpt>
      <trkpt lat="41.601822" lon="2.331626">
        <ele>115.00</ele>
        <time>2020-06-14T04:53:16Z</time>
      </trkpt>
      <trkpt lat="41.601739" lon="2.331716">
        <ele>114.00</ele>
        <time>2020-06-14T04:53:19Z</time>
      </trkpt>
      <trkpt lat="41.601692" lon="2.331780">
        <ele>113.20</ele>
        <time>2020-06-14T04:53:21Z</time>
      </trkpt>
      <trkpt lat="41.601669" lon="2.331813">
        <ele>112.80</ele>
        <time>2020-06-14T04:53:22Z</time>
      </trkpt>
      <trkpt lat="41.601604" lon="2.331924">
        <ele>111.40</ele>
        <time>2020-06-14T04:53:25Z</time>
      </trkpt>
      <trkpt lat="41.601585" lon="2.331964">
        <ele>111.00</ele>
        <time>2020-06-14T04:53:26Z</time>
      </trkpt>
      <trkpt lat="41.601532" lon="2.332033">
        <ele>110.00</ele>
        <time>2020-06-14T04:53:28Z</time>
      </trkpt>
      <trkpt lat="41.601434" lon="2.332116">
        <ele>109.00</ele>
        <time>2020-06-14T04:53:31Z</time>
      </trkpt>
      <trkpt lat="41.601332" lon="2.332096">
        <ele>107.60</ele>
        <time>2020-06-14T04:53:34Z</time>
      </trkpt>
      <trkpt lat="41.601301" lon="2.332070">
        <ele>107.20</ele>
        <time>2020-06-14T04:53:35Z</time>
      </trkpt>
      <trkpt lat="41.601245" lon="2.332000">
        <ele>106.60</ele>
        <time>2020-06-14T04:53:37Z</time>
      </trkpt>
      <trkpt lat="41.601186" lon="2.331927">
        <ele>105.80</ele>
        <time>2020-06-14T04:53:39Z</time>
      </trkpt>
      <trkpt lat="41.601157" lon="2.331888">
        <ele>105.40</ele>
        <time>2020-06-14T04:53:40Z</time>
      </trkpt>
      <trkpt lat="41.601105" lon="2.331806">
        <ele>104.60</ele>
        <time>2020-06-14T04:53:42Z</time>
      </trkpt>
      <trkpt lat="41.601080" lon="2.331764">
        <ele>104.20</ele>
        <time>2020-06-14T04:53:43Z</time>
      </trkpt>
      <trkpt lat="41.601005" lon="2.331628">
        <ele>102.60</ele>
        <time>2020-06-14T04:53:46Z</time>
      </trkpt>
      <trkpt lat="41.600979" lon="2.331583">
        <ele>101.60</ele>
        <time>2020-06-14T04:53:47Z</time>
      </trkpt>
      <trkpt lat="41.600927" lon="2.331488">
        <ele>100.80</ele>
        <time>2020-06-14T04:53:49Z</time>
      </trkpt>
      <trkpt lat="41.600809" lon="2.331257">
        <ele>99.40</ele>
        <time>2020-06-14T04:53:53Z</time>
      </trkpt>
      <trkpt lat="41.600680" lon="2.330961">
        <ele>98.40</ele>
        <time>2020-06-14T04:53:57Z</time>
      </trkpt>
      <trkpt lat="41.600646" lon="2.330875">
        <ele>98.60</ele>
        <time>2020-06-14T04:53:58Z</time>
      </trkpt>
      <trkpt lat="41.600585" lon="2.330688">
        <ele>99.60</ele>
        <time>2020-06-14T04:54:00Z</time>
      </trkpt>
      <trkpt lat="41.600511" lon="2.330423">
        <ele>100.80</ele>
        <time>2020-06-14T04:54:03Z</time>
      </trkpt>
      <trkpt lat="41.600493" lon="2.330348">
        <ele>101.20</ele>
        <time>2020-06-14T04:54:04Z</time>
      </trkpt>
      <trkpt lat="41.600452" lon="2.330178">
        <ele>102.00</ele>
        <time>2020-06-14T04:54:07Z</time>
      </trkpt>
      <trkpt lat="41.600446" lon="2.330139">
        <ele>102.20</ele>
        <time>2020-06-14T04:54:08Z</time>
      </trkpt>
      <trkpt lat="41.600423" lon="2.330068">
        <ele>102.40</ele>
        <time>2020-06-14T04:54:11Z</time>
      </trkpt>
      <trkpt lat="41.600420" lon="2.329964">
        <ele>102.00</ele>
        <time>2020-06-14T04:54:14Z</time>
      </trkpt>
      <trkpt lat="41.600403" lon="2.329902">
        <ele>101.20</ele>
        <time>2020-06-14T04:54:16Z</time>
      </trkpt>
      <trkpt lat="41.600395" lon="2.329871">
        <ele>100.80</ele>
        <time>2020-06-14T04:54:17Z</time>
      </trkpt>
      <trkpt lat="41.600370" lon="2.329772">
        <ele>99.40</ele>
        <time>2020-06-14T04:54:20Z</time>
      </trkpt>
      <trkpt lat="41.600349" lon="2.329707">
        <ele>98.20</ele>
        <time>2020-06-14T04:54:22Z</time>
      </trkpt>
      <trkpt lat="41.600325" lon="2.329641">
        <ele>96.80</ele>
        <time>2020-06-14T04:54:24Z</time>
      </trkpt>
      <trkpt lat="41.600298" lon="2.329582">
        <ele>95.40</ele>
        <time>2020-06-14T04:54:26Z</time>
      </trkpt>
      <trkpt lat="41.600277" lon="2.329525">
        <ele>94.20</ele>
        <time>2020-06-14T04:54:28Z</time>
      </trkpt>
      <trkpt lat="41.600242" lon="2.329469">
        <ele>93.00</ele>
        <time>2020-06-14T04:54:30Z</time>
      </trkpt>
      <trkpt lat="41.600212" lon="2.329414">
        <ele>91.60</ele>
        <time>2020-06-14T04:54:32Z</time>
      </trkpt>
      <trkpt lat="41.600178" lon="2.329359">
        <ele>90.60</ele>
        <time>2020-06-14T04:54:34Z</time>
      </trkpt>
      <trkpt lat="41.600154" lon="2.329297">
        <ele>89.20</ele>
        <time>2020-06-14T04:54:36Z</time>
      </trkpt>
      <trkpt lat="41.600141" lon="2.329262">
        <ele>88.80</ele>
        <time>2020-06-14T04:54:37Z</time>
      </trkpt>
      <trkpt lat="41.600100" lon="2.329153">
        <ele>87.80</ele>
        <time>2020-06-14T04:54:40Z</time>
      </trkpt>
      <trkpt lat="41.600064" lon="2.329082">
        <ele>87.00</ele>
        <time>2020-06-14T04:54:42Z</time>
      </trkpt>
      <trkpt lat="41.600048" lon="2.329047">
        <ele>86.60</ele>
        <time>2020-06-14T04:54:43Z</time>
      </trkpt>
      <trkpt lat="41.600018" lon="2.328972">
        <ele>85.40</ele>
        <time>2020-06-14T04:54:45Z</time>
      </trkpt>
      <trkpt lat="41.599982" lon="2.328876">
        <ele>84.20</ele>
        <time>2020-06-14T04:54:47Z</time>
      </trkpt>
      <trkpt lat="41.599932" lon="2.328761">
        <ele>83.00</ele>
        <time>2020-06-14T04:54:49Z</time>
      </trkpt>
      <trkpt lat="41.599902" lon="2.328700">
        <ele>82.20</ele>
        <time>2020-06-14T04:54:50Z</time>
      </trkpt>
      <trkpt lat="41.599874" lon="2.328634">
        <ele>81.80</ele>
        <time>2020-06-14T04:54:51Z</time>
      </trkpt>
      <trkpt lat="41.599849" lon="2.328558">
        <ele>81.40</ele>
        <time>2020-06-14T04:54:52Z</time>
      </trkpt>
      <trkpt lat="41.599744" lon="2.328210">
        <ele>80.40</ele>
        <time>2020-06-14T04:54:56Z</time>
      </trkpt>
      <trkpt lat="41.599641" lon="2.327925">
        <ele>80.00</ele>
        <time>2020-06-14T04:54:59Z</time>
      </trkpt>
      <trkpt lat="41.599604" lon="2.327827">
        <ele>80.20</ele>
        <time>2020-06-14T04:55:00Z</time>
      </trkpt>
      <trkpt lat="41.599530" lon="2.327619">
        <ele>80.40</ele>
        <time>2020-06-14T04:55:02Z</time>
      </trkpt>
      <trkpt lat="41.599490" lon="2.327512">
        <ele>80.80</ele>
        <time>2020-06-14T04:55:03Z</time>
      </trkpt>
      <trkpt lat="41.599447" lon="2.327405">
        <ele>81.20</ele>
        <time>2020-06-14T04:55:04Z</time>
      </trkpt>
      <trkpt lat="41.599402" lon="2.327298">
        <ele>81.60</ele>
        <time>2020-06-14T04:55:05Z</time>
      </trkpt>
      <trkpt lat="41.599311" lon="2.327084">
        <ele>82.60</ele>
        <time>2020-06-14T04:55:07Z</time>
      </trkpt>
      <trkpt lat="41.599268" lon="2.326974">
        <ele>83.40</ele>
        <time>2020-06-14T04:55:08Z</time>
      </trkpt>
      <trkpt lat="41.599229" lon="2.326864">
        <ele>84.40</ele>
        <time>2020-06-14T04:55:09Z</time>
      </trkpt>
      <trkpt lat="41.599172" lon="2.326646">
        <ele>86.20</ele>
        <time>2020-06-14T04:55:11Z</time>
      </trkpt>
      <trkpt lat="41.599154" lon="2.326540">
        <ele>87.20</ele>
        <time>2020-06-14T04:55:12Z</time>
      </trkpt>
      <trkpt lat="41.599141" lon="2.326436">
        <ele>88.40</ele>
        <time>2020-06-14T04:55:13Z</time>
      </trkpt>
      <trkpt lat="41.599130" lon="2.326337">
        <ele>89.20</ele>
        <time>2020-06-14T04:55:14Z</time>
      </trkpt>
      <trkpt lat="41.599116" lon="2.326165">
        <ele>90.40</ele>
        <time>2020-06-14T04:55:16Z</time>
      </trkpt>
      <trkpt lat="41.599109" lon="2.326095">
        <ele>90.80</ele>
        <time>2020-06-14T04:55:17Z</time>
      </trkpt>
      <trkpt lat="41.599088" lon="2.325915">
        <ele>92.00</ele>
        <time>2020-06-14T04:55:22Z</time>
      </trkpt>
      <trkpt lat="41.599045" lon="2.325723">
        <ele>91.60</ele>
        <time>2020-06-14T04:55:27Z</time>
      </trkpt>
      <trkpt lat="41.599035" lon="2.325673">
        <ele>91.60</ele>
        <time>2020-06-14T04:55:28Z</time>
      </trkpt>
      <trkpt lat="41.599001" lon="2.325533">
        <ele>90.60</ele>
        <time>2020-06-14T04:55:31Z</time>
      </trkpt>
      <trkpt lat="41.598951" lon="2.325409">
        <ele>89.40</ele>
        <time>2020-06-14T04:55:34Z</time>
      </trkpt>
      <trkpt lat="41.598910" lon="2.325283">
        <ele>88.20</ele>
        <time>2020-06-14T04:55:37Z</time>
      </trkpt>
      <trkpt lat="41.598883" lon="2.325203">
        <ele>87.60</ele>
        <time>2020-06-14T04:55:39Z</time>
      </trkpt>
      <trkpt lat="41.598866" lon="2.325170">
        <ele>87.20</ele>
        <time>2020-06-14T04:55:40Z</time>
      </trkpt>
      <trkpt lat="41.598806" lon="2.325073">
        <ele>85.60</ele>
        <time>2020-06-14T04:55:43Z</time>
      </trkpt>
      <trkpt lat="41.598766" lon="2.325003">
        <ele>84.80</ele>
        <time>2020-06-14T04:55:45Z</time>
      </trkpt>
      <trkpt lat="41.598747" lon="2.324966">
        <ele>84.20</ele>
        <time>2020-06-14T04:55:46Z</time>
      </trkpt>
      <trkpt lat="41.598698" lon="2.324855">
        <ele>82.80</ele>
        <time>2020-06-14T04:55:49Z</time>
      </trkpt>
      <trkpt lat="41.598672" lon="2.324779">
        <ele>82.00</ele>
        <time>2020-06-14T04:55:51Z</time>
      </trkpt>
      <trkpt lat="41.598656" lon="2.324744">
        <ele>81.60</ele>
        <time>2020-06-14T04:55:52Z</time>
      </trkpt>
      <trkpt lat="41.598603" lon="2.324634">
        <ele>80.40</ele>
        <time>2020-06-14T04:55:55Z</time>
      </trkpt>
      <trkpt lat="41.598591" lon="2.324595">
        <ele>80.20</ele>
        <time>2020-06-14T04:55:56Z</time>
      </trkpt>
      <trkpt lat="41.598559" lon="2.324526">
        <ele>79.40</ele>
        <time>2020-06-14T04:55:58Z</time>
      </trkpt>
      <trkpt lat="41.598528" lon="2.324414">
        <ele>78.40</ele>
        <time>2020-06-14T04:56:01Z</time>
      </trkpt>
      <trkpt lat="41.598507" lon="2.324333">
        <ele>77.80</ele>
        <time>2020-06-14T04:56:03Z</time>
      </trkpt>
      <trkpt lat="41.598495" lon="2.324292">
        <ele>77.40</ele>
        <time>2020-06-14T04:56:04Z</time>
      </trkpt>
      <trkpt lat="41.598465" lon="2.324153">
        <ele>76.20</ele>
        <time>2020-06-14T04:56:07Z</time>
      </trkpt>
      <trkpt lat="41.598451" lon="2.324096">
        <ele>75.60</ele>
        <time>2020-06-14T04:56:08Z</time>
      </trkpt>
      <trkpt lat="41.598437" lon="2.324035">
        <ele>75.40</ele>
        <time>2020-06-14T04:56:09Z</time>
      </trkpt>
      <trkpt lat="41.598421" lon="2.323968">
        <ele>75.00</ele>
        <time>2020-06-14T04:56:10Z</time>
      </trkpt>
      <trkpt lat="41.598364" lon="2.323852">
        <ele>74.80</ele>
        <time>2020-06-14T04:56:12Z</time>
      </trkpt>
      <trkpt lat="41.598215" lon="2.323805">
        <ele>74.40</ele>
        <time>2020-06-14T04:56:15Z</time>
      </trkpt>
      <trkpt lat="41.598162" lon="2.323834">
        <ele>74.40</ele>
        <time>2020-06-14T04:56:16Z</time>
      </trkpt>
      <trkpt lat="41.597952" lon="2.323991">
        <ele>74.00</ele>
        <time>2020-06-14T04:56:21Z</time>
      </trkpt>
      <trkpt lat="41.597917" lon="2.324016">
        <ele>73.60</ele>
        <time>2020-06-14T04:56:22Z</time>
      </trkpt>
      <trkpt lat="41.597879" lon="2.324040">
        <ele>73.40</ele>
        <time>2020-06-14T04:56:23Z</time>
      </trkpt>
      <trkpt lat="41.597742" lon="2.324090">
        <ele>72.80</ele>
        <time>2020-06-14T04:56:26Z</time>
      </trkpt>
      <trkpt lat="41.597704" lon="2.324093">
        <ele>72.60</ele>
        <time>2020-06-14T04:56:27Z</time>
      </trkpt>
      <trkpt lat="41.597625" lon="2.324067">
        <ele>72.00</ele>
        <time>2020-06-14T04:56:29Z</time>
      </trkpt>
      <trkpt lat="41.597584" lon="2.324040">
        <ele>71.80</ele>
        <time>2020-06-14T04:56:30Z</time>
      </trkpt>
      <trkpt lat="41.597545" lon="2.324011">
        <ele>71.40</ele>
        <time>2020-06-14T04:56:31Z</time>
      </trkpt>
      <trkpt lat="41.597463" lon="2.323956">
        <ele>70.60</ele>
        <time>2020-06-14T04:56:33Z</time>
      </trkpt>
      <trkpt lat="41.597416" lon="2.323932">
        <ele>70.20</ele>
        <time>2020-06-14T04:56:34Z</time>
      </trkpt>
      <trkpt lat="41.597320" lon="2.323901">
        <ele>69.00</ele>
        <time>2020-06-14T04:56:36Z</time>
      </trkpt>
      <trkpt lat="41.597272" lon="2.323890">
        <ele>68.80</ele>
        <time>2020-06-14T04:56:37Z</time>
      </trkpt>
      <trkpt lat="41.597117" lon="2.323880">
        <ele>68.00</ele>
        <time>2020-06-14T04:56:40Z</time>
      </trkpt>
      <trkpt lat="41.597064" lon="2.323879">
        <ele>67.80</ele>
        <time>2020-06-14T04:56:41Z</time>
      </trkpt>
      <trkpt lat="41.597012" lon="2.323882">
        <ele>67.60</ele>
        <time>2020-06-14T04:56:42Z</time>
      </trkpt>
      <trkpt lat="41.596852" lon="2.323909">
        <ele>66.80</ele>
        <time>2020-06-14T04:56:45Z</time>
      </trkpt>
      <trkpt lat="41.596633" lon="2.323952">
        <ele>66.00</ele>
        <time>2020-06-14T04:56:49Z</time>
      </trkpt>
      <trkpt lat="41.596356" lon="2.324079">
        <ele>65.80</ele>
        <time>2020-06-14T04:56:54Z</time>
      </trkpt>
      <trkpt lat="41.596302" lon="2.324115">
        <ele>65.60</ele>
        <time>2020-06-14T04:56:55Z</time>
      </trkpt>
      <trkpt lat="41.596200" lon="2.324203">
        <ele>65.40</ele>
        <time>2020-06-14T04:56:57Z</time>
      </trkpt>
      <trkpt lat="41.596071" lon="2.324382">
        <ele>65.60</ele>
        <time>2020-06-14T04:57:00Z</time>
      </trkpt>
      <trkpt lat="41.596030" lon="2.324443">
        <ele>65.60</ele>
        <time>2020-06-14T04:57:01Z</time>
      </trkpt>
      <trkpt lat="41.595816" lon="2.324584">
        <ele>65.40</ele>
        <time>2020-06-14T04:57:05Z</time>
      </trkpt>
      <trkpt lat="41.595619" lon="2.324707">
        <ele>64.80</ele>
        <time>2020-06-14T04:57:09Z</time>
      </trkpt>
      <trkpt lat="41.595520" lon="2.324851">
        <ele>63.60</ele>
        <time>2020-06-14T04:57:12Z</time>
      </trkpt>
      <trkpt lat="41.595463" lon="2.325044">
        <ele>62.60</ele>
        <time>2020-06-14T04:57:15Z</time>
      </trkpt>
      <trkpt lat="41.595444" lon="2.325113">
        <ele>62.60</ele>
        <time>2020-06-14T04:57:16Z</time>
      </trkpt>
      <trkpt lat="41.595300" lon="2.325510">
        <ele>61.40</ele>
        <time>2020-06-14T04:57:22Z</time>
      </trkpt>
      <trkpt lat="41.595272" lon="2.325576">
        <ele>60.80</ele>
        <time>2020-06-14T04:57:23Z</time>
      </trkpt>
      <trkpt lat="41.595244" lon="2.325638">
        <ele>60.60</ele>
        <time>2020-06-14T04:57:24Z</time>
      </trkpt>
      <trkpt lat="41.595180" lon="2.325756">
        <ele>60.00</ele>
        <time>2020-06-14T04:57:26Z</time>
      </trkpt>
      <trkpt lat="41.595140" lon="2.325808">
        <ele>59.60</ele>
        <time>2020-06-14T04:57:27Z</time>
      </trkpt>
      <trkpt lat="41.595091" lon="2.325849">
        <ele>59.40</ele>
        <time>2020-06-14T04:57:28Z</time>
      </trkpt>
      <trkpt lat="41.595038" lon="2.325879">
        <ele>59.00</ele>
        <time>2020-06-14T04:57:29Z</time>
      </trkpt>
      <trkpt lat="41.594926" lon="2.325918">
        <ele>58.80</ele>
        <time>2020-06-14T04:57:31Z</time>
      </trkpt>
      <trkpt lat="41.594870" lon="2.325933">
        <ele>58.60</ele>
        <time>2020-06-14T04:57:32Z</time>
      </trkpt>
      <trkpt lat="41.594757" lon="2.325956">
        <ele>58.20</ele>
        <time>2020-06-14T04:57:34Z</time>
      </trkpt>
      <trkpt lat="41.594581" lon="2.325978">
        <ele>57.60</ele>
        <time>2020-06-14T04:57:37Z</time>
      </trkpt>
      <trkpt lat="41.594291" lon="2.326027">
        <ele>56.80</ele>
        <time>2020-06-14T04:57:42Z</time>
      </trkpt>
      <trkpt lat="41.594179" lon="2.326043">
        <ele>56.60</ele>
        <time>2020-06-14T04:57:44Z</time>
      </trkpt>
      <trkpt lat="41.594123" lon="2.326048">
        <ele>56.40</ele>
        <time>2020-06-14T04:57:45Z</time>
      </trkpt>
      <trkpt lat="41.593948" lon="2.326041">
        <ele>55.40</ele>
        <time>2020-06-14T04:57:48Z</time>
      </trkpt>
      <trkpt lat="41.593829" lon="2.326023">
        <ele>55.00</ele>
        <time>2020-06-14T04:57:50Z</time>
      </trkpt>
      <trkpt lat="41.593557" lon="2.326008">
        <ele>54.40</ele>
        <time>2020-06-14T04:57:54Z</time>
      </trkpt>
      <trkpt lat="41.593405" lon="2.326011">
        <ele>55.80</ele>
        <time>2020-06-14T04:57:56Z</time>
      </trkpt>
      <trkpt lat="41.593265" lon="2.326015">
        <ele>57.80</ele>
        <time>2020-06-14T04:57:58Z</time>
      </trkpt>
      <trkpt lat="41.593207" lon="2.326016">
        <ele>58.20</ele>
        <time>2020-06-14T04:57:59Z</time>
      </trkpt>
      <trkpt lat="41.593113" lon="2.326015">
        <ele>58.80</ele>
        <time>2020-06-14T04:58:01Z</time>
      </trkpt>
      <trkpt lat="41.593076" lon="2.326017">
        <ele>58.80</ele>
        <time>2020-06-14T04:58:02Z</time>
      </trkpt>
      <trkpt lat="41.593013" lon="2.326003">
        <ele>59.00</ele>
        <time>2020-06-14T04:58:04Z</time>
      </trkpt>
      <trkpt lat="41.592995" lon="2.325974">
        <ele>58.80</ele>
        <time>2020-06-14T04:58:05Z</time>
      </trkpt>
      <trkpt lat="41.592966" lon="2.325785">
        <ele>58.60</ele>
        <time>2020-06-14T04:58:08Z</time>
      </trkpt>
      <trkpt lat="41.592862" lon="2.325564">
        <ele>58.40</ele>
        <time>2020-06-14T04:58:11Z</time>
      </trkpt>
      <trkpt lat="41.592811" lon="2.325509">
        <ele>58.60</ele>
        <time>2020-06-14T04:58:12Z</time>
      </trkpt>
      <trkpt lat="41.592560" lon="2.325402">
        <ele>58.20</ele>
        <time>2020-06-14T04:58:16Z</time>
      </trkpt>
      <trkpt lat="41.592102" lon="2.325268">
        <ele>57.60</ele>
        <time>2020-06-14T04:58:23Z</time>
      </trkpt>
      <trkpt lat="41.592034" lon="2.325258">
        <ele>57.80</ele>
        <time>2020-06-14T04:58:24Z</time>
      </trkpt>
      <trkpt lat="41.591692" lon="2.325249">
        <ele>57.80</ele>
        <time>2020-06-14T04:58:29Z</time>
      </trkpt>
      <trkpt lat="41.591421" lon="2.325257">
        <ele>57.00</ele>
        <time>2020-06-14T04:58:33Z</time>
      </trkpt>
      <trkpt lat="41.591287" lon="2.325253">
        <ele>57.40</ele>
        <time>2020-06-14T04:58:35Z</time>
      </trkpt>
      <trkpt lat="41.591158" lon="2.325212">
        <ele>57.40</ele>
        <time>2020-06-14T04:58:37Z</time>
      </trkpt>
      <trkpt lat="41.591048" lon="2.325121">
        <ele>57.20</ele>
        <time>2020-06-14T04:58:39Z</time>
      </trkpt>
      <trkpt lat="41.590945" lon="2.325022">
        <ele>57.00</ele>
        <time>2020-06-14T04:58:41Z</time>
      </trkpt>
      <trkpt lat="41.590783" lon="2.324874">
        <ele>57.00</ele>
        <time>2020-06-14T04:58:44Z</time>
      </trkpt>
      <trkpt lat="41.590674" lon="2.324775">
        <ele>57.20</ele>
        <time>2020-06-14T04:58:46Z</time>
      </trkpt>
      <trkpt lat="41.590621" lon="2.324721">
        <ele>57.00</ele>
        <time>2020-06-14T04:58:47Z</time>
      </trkpt>
      <trkpt lat="41.590575" lon="2.324664">
        <ele>57.20</ele>
        <time>2020-06-14T04:58:48Z</time>
      </trkpt>
      <trkpt lat="41.590463" lon="2.324474">
        <ele>56.80</ele>
        <time>2020-06-14T04:58:51Z</time>
      </trkpt>
      <trkpt lat="41.590390" lon="2.324343">
        <ele>56.60</ele>
        <time>2020-06-14T04:58:53Z</time>
      </trkpt>
      <trkpt lat="41.590354" lon="2.324277">
        <ele>56.60</ele>
        <time>2020-06-14T04:58:54Z</time>
      </trkpt>
      <trkpt lat="41.590286" lon="2.324151">
        <ele>56.60</ele>
        <time>2020-06-14T04:58:56Z</time>
      </trkpt>
      <trkpt lat="41.590198" lon="2.323971">
        <ele>56.60</ele>
        <time>2020-06-14T04:58:59Z</time>
      </trkpt>
      <trkpt lat="41.590144" lon="2.323867">
        <ele>56.60</ele>
        <time>2020-06-14T04:59:01Z</time>
      </trkpt>
      <trkpt lat="41.590093" lon="2.323781">
        <ele>56.60</ele>
        <time>2020-06-14T04:59:03Z</time>
      </trkpt>
      <trkpt lat="41.590068" lon="2.323752">
        <ele>56.60</ele>
        <time>2020-06-14T04:59:04Z</time>
      </trkpt>
      <trkpt lat="41.589961" lon="2.323676">
        <ele>56.40</ele>
        <time>2020-06-14T04:59:08Z</time>
      </trkpt>
      <trkpt lat="41.589856" lon="2.323641">
        <ele>56.20</ele>
        <time>2020-06-14T04:59:13Z</time>
      </trkpt>
      <trkpt lat="41.589834" lon="2.323643">
        <ele>56.20</ele>
        <time>2020-06-14T04:59:14Z</time>
      </trkpt>
      <trkpt lat="41.589812" lon="2.323642">
        <ele>56.40</ele>
        <time>2020-06-14T04:59:15Z</time>
      </trkpt>
      <trkpt lat="41.589774" lon="2.323619">
        <ele>56.20</ele>
        <time>2020-06-14T04:59:17Z</time>
      </trkpt>
      <trkpt lat="41.589764" lon="2.323601">
        <ele>56.20</ele>
        <time>2020-06-14T04:59:18Z</time>
      </trkpt>
      <trkpt lat="41.589760" lon="2.323560">
        <ele>56.20</ele>
        <time>2020-06-14T04:59:20Z</time>
      </trkpt>
      <trkpt lat="41.589752" lon="2.323506">
        <ele>56.20</ele>
        <time>2020-06-14T04:59:22Z</time>
      </trkpt>
      <trkpt lat="41.589762" lon="2.323360">
        <ele>56.40</ele>
        <time>2020-06-14T04:59:25Z</time>
      </trkpt>
      <trkpt lat="41.589870" lon="2.323223">
        <ele>56.80</ele>
        <time>2020-06-14T04:59:28Z</time>
      </trkpt>
      <trkpt lat="41.589933" lon="2.323202">
        <ele>56.80</ele>
        <time>2020-06-14T04:59:29Z</time>
      </trkpt>
      <trkpt lat="41.590055" lon="2.323143">
        <ele>57.40</ele>
        <time>2020-06-14T04:59:31Z</time>
      </trkpt>
      <trkpt lat="41.590434" lon="2.322626">
        <ele>57.60</ele>
        <time>2020-06-14T04:59:39Z</time>
      </trkpt>
      <trkpt lat="41.590530" lon="2.322491">
        <ele>57.40</ele>
        <time>2020-06-14T04:59:41Z</time>
      </trkpt>
      <trkpt lat="41.590579" lon="2.322421">
        <ele>57.60</ele>
        <time>2020-06-14T04:59:42Z</time>
      </trkpt>
      <trkpt lat="41.590672" lon="2.322283">
        <ele>57.60</ele>
        <time>2020-06-14T04:59:44Z</time>
      </trkpt>
      <trkpt lat="41.590764" lon="2.322148">
        <ele>57.40</ele>
        <time>2020-06-14T04:59:46Z</time>
      </trkpt>
      <trkpt lat="41.590855" lon="2.322014">
        <ele>57.60</ele>
        <time>2020-06-14T04:59:48Z</time>
      </trkpt>
      <trkpt lat="41.590944" lon="2.321881">
        <ele>57.60</ele>
        <time>2020-06-14T04:59:50Z</time>
      </trkpt>
      <trkpt lat="41.591026" lon="2.321745">
        <ele>57.60</ele>
        <time>2020-06-14T04:59:52Z</time>
      </trkpt>
      <trkpt lat="41.591110" lon="2.321605">
        <ele>57.60</ele>
        <time>2020-06-14T04:59:54Z</time>
      </trkpt>
      <trkpt lat="41.591279" lon="2.321328">
        <ele>57.80</ele>
        <time>2020-06-14T04:59:58Z</time>
      </trkpt>
      <trkpt lat="41.591320" lon="2.321262">
        <ele>58.00</ele>
        <time>2020-06-14T04:59:59Z</time>
      </trkpt>
      <trkpt lat="41.591429" lon="2.321067">
        <ele>58.20</ele>
        <time>2020-06-14T05:00:02Z</time>
      </trkpt>
      <trkpt lat="41.591491" lon="2.320941">
        <ele>58.40</ele>
        <time>2020-06-14T05:00:04Z</time>
      </trkpt>
      <trkpt lat="41.591576" lon="2.320764">
        <ele>59.00</ele>
        <time>2020-06-14T05:00:07Z</time>
      </trkpt>
      <trkpt lat="41.591619" lon="2.320591">
        <ele>59.60</ele>
        <time>2020-06-14T05:00:10Z</time>
      </trkpt>
      <trkpt lat="41.591642" lon="2.320450">
        <ele>59.80</ele>
        <time>2020-06-14T05:00:13Z</time>
      </trkpt>
      <trkpt lat="41.591640" lon="2.320415">
        <ele>60.00</ele>
        <time>2020-06-14T05:00:14Z</time>
      </trkpt>
      <trkpt lat="41.591625" lon="2.320357">
        <ele>59.80</ele>
        <time>2020-06-14T05:01:25Z</time>
      </trkpt>
      <trkpt lat="41.591632" lon="2.320310">
        <ele>60.00</ele>
        <time>2020-06-14T05:01:28Z</time>
      </trkpt>
      <trkpt lat="41.591640" lon="2.320265">
        <ele>60.00</ele>
        <time>2020-06-14T05:01:30Z</time>
      </trkpt>
      <trkpt lat="41.591630" lon="2.320228">
        <ele>60.00</ele>
        <time>2020-06-14T05:01:32Z</time>
      </trkpt>
      <trkpt lat="41.591632" lon="2.320231">
        <ele>60.00</ele>
        <time>2020-06-14T05:01:33Z</time>
      </trkpt>
      <trkpt lat="41.591600" lon="2.320179">
        <ele>59.80</ele>
        <time>2020-06-14T05:01:35Z</time>
      </trkpt>
      <trkpt lat="41.591465" lon="2.319967">
        <ele>59.60</ele>
        <time>2020-06-14T05:01:38Z</time>
      </trkpt>
      <trkpt lat="41.591405" lon="2.319872">
        <ele>60.00</ele>
        <time>2020-06-14T05:01:39Z</time>
      </trkpt>
      <trkpt lat="41.591275" lon="2.319657">
        <ele>61.60</ele>
        <time>2020-06-14T05:01:41Z</time>
      </trkpt>
      <trkpt lat="41.591167" lon="2.319465">
        <ele>63.40</ele>
        <time>2020-06-14T05:01:43Z</time>
      </trkpt>
      <trkpt lat="41.591076" lon="2.319295">
        <ele>65.00</ele>
        <time>2020-06-14T05:01:45Z</time>
      </trkpt>
      <trkpt lat="41.590997" lon="2.319147">
        <ele>66.60</ele>
        <time>2020-06-14T05:01:47Z</time>
      </trkpt>
      <trkpt lat="41.590960" lon="2.319076">
        <ele>67.80</ele>
        <time>2020-06-14T05:01:48Z</time>
      </trkpt>
      <trkpt lat="41.590922" lon="2.319009">
        <ele>68.20</ele>
        <time>2020-06-14T05:01:49Z</time>
      </trkpt>
      <trkpt lat="41.590789" lon="2.318885">
        <ele>68.80</ele>
        <time>2020-06-14T05:01:52Z</time>
      </trkpt>
      <trkpt lat="41.590532" lon="2.318863">
        <ele>68.40</ele>
        <time>2020-06-14T05:01:57Z</time>
      </trkpt>
      <trkpt lat="41.590365" lon="2.318854">
        <ele>68.20</ele>
        <time>2020-06-14T05:02:00Z</time>
      </trkpt>
      <trkpt lat="41.589771" lon="2.318812">
        <ele>67.40</ele>
        <time>2020-06-14T05:02:10Z</time>
      </trkpt>
      <trkpt lat="41.589713" lon="2.318808">
        <ele>67.40</ele>
        <time>2020-06-14T05:02:11Z</time>
      </trkpt>
      <trkpt lat="41.589303" lon="2.318771">
        <ele>67.00</ele>
        <time>2020-06-14T05:02:18Z</time>
      </trkpt>
      <trkpt lat="41.589086" lon="2.318722">
        <ele>66.80</ele>
        <time>2020-06-14T05:02:22Z</time>
      </trkpt>
      <trkpt lat="41.589038" lon="2.318692">
        <ele>66.60</ele>
        <time>2020-06-14T05:02:23Z</time>
      </trkpt>
      <trkpt lat="41.588905" lon="2.318587">
        <ele>66.20</ele>
        <time>2020-06-14T05:02:26Z</time>
      </trkpt>
      <trkpt lat="41.588864" lon="2.318573">
        <ele>65.80</ele>
        <time>2020-06-14T05:02:27Z</time>
      </trkpt>
      <trkpt lat="41.588806" lon="2.318626">
        <ele>64.80</ele>
        <time>2020-06-14T05:02:29Z</time>
      </trkpt>
      <trkpt lat="41.588784" lon="2.318676">
        <ele>64.40</ele>
        <time>2020-06-14T05:02:30Z</time>
      </trkpt>
      <trkpt lat="41.588692" lon="2.318827">
        <ele>63.40</ele>
        <time>2020-06-14T05:02:33Z</time>
      </trkpt>
      <trkpt lat="41.588598" lon="2.318862">
        <ele>63.20</ele>
        <time>2020-06-14T05:02:35Z</time>
      </trkpt>
      <trkpt lat="41.588494" lon="2.318836">
        <ele>62.80</ele>
        <time>2020-06-14T05:02:37Z</time>
      </trkpt>
      <trkpt lat="41.588337" lon="2.318773">
        <ele>62.60</ele>
        <time>2020-06-14T05:02:40Z</time>
      </trkpt>
      <trkpt lat="41.587978" lon="2.318620">
        <ele>62.20</ele>
        <time>2020-06-14T05:02:47Z</time>
      </trkpt>
      <trkpt lat="41.587520" lon="2.318440">
        <ele>61.40</ele>
        <time>2020-06-14T05:02:56Z</time>
      </trkpt>
      <trkpt lat="41.587376" lon="2.318378">
        <ele>61.20</ele>
        <time>2020-06-14T05:02:59Z</time>
      </trkpt>
      <trkpt lat="41.587144" lon="2.318271">
        <ele>60.20</ele>
        <time>2020-06-14T05:03:04Z</time>
      </trkpt>
      <trkpt lat="41.587101" lon="2.318249">
        <ele>60.00</ele>
        <time>2020-06-14T05:03:05Z</time>
      </trkpt>
      <trkpt lat="41.587060" lon="2.318221">
        <ele>59.80</ele>
        <time>2020-06-14T05:03:06Z</time>
      </trkpt>
      <trkpt lat="41.586951" lon="2.318099">
        <ele>59.00</ele>
        <time>2020-06-14T05:03:09Z</time>
      </trkpt>
      <trkpt lat="41.586922" lon="2.318056">
        <ele>58.80</ele>
        <time>2020-06-14T05:03:10Z</time>
      </trkpt>
      <trkpt lat="41.586873" lon="2.317955">
        <ele>58.20</ele>
        <time>2020-06-14T05:03:12Z</time>
      </trkpt>
      <trkpt lat="41.586837" lon="2.317837">
        <ele>57.80</ele>
        <time>2020-06-14T05:03:14Z</time>
      </trkpt>
      <trkpt lat="41.586772" lon="2.317681">
        <ele>56.60</ele>
        <time>2020-06-14T05:03:17Z</time>
      </trkpt>
      <trkpt lat="41.586731" lon="2.317654">
        <ele>56.20</ele>
        <time>2020-06-14T05:03:18Z</time>
      </trkpt>
      <trkpt lat="41.586641" lon="2.317640">
        <ele>55.40</ele>
        <time>2020-06-14T05:03:20Z</time>
      </trkpt>
      <trkpt lat="41.586549" lon="2.317649">
        <ele>54.60</ele>
        <time>2020-06-14T05:03:22Z</time>
      </trkpt>
      <trkpt lat="41.586505" lon="2.317652">
        <ele>54.20</ele>
        <time>2020-06-14T05:03:23Z</time>
      </trkpt>
      <trkpt lat="41.586364" lon="2.317667">
        <ele>52.80</ele>
        <time>2020-06-14T05:03:26Z</time>
      </trkpt>
      <trkpt lat="41.586315" lon="2.317673">
        <ele>52.40</ele>
        <time>2020-06-14T05:03:27Z</time>
      </trkpt>
      <trkpt lat="41.586262" lon="2.317678">
        <ele>52.00</ele>
        <time>2020-06-14T05:03:28Z</time>
      </trkpt>
      <trkpt lat="41.586078" lon="2.317656">
        <ele>51.80</ele>
        <time>2020-06-14T05:03:31Z</time>
      </trkpt>
      <trkpt lat="41.585733" lon="2.317389">
        <ele>51.60</ele>
        <time>2020-06-14T05:03:37Z</time>
      </trkpt>
      <trkpt lat="41.585497" lon="2.317226">
        <ele>51.40</ele>
        <time>2020-06-14T05:03:41Z</time>
      </trkpt>
      <trkpt lat="41.585440" lon="2.317201">
        <ele>51.20</ele>
        <time>2020-06-14T05:03:42Z</time>
      </trkpt>
      <trkpt lat="41.585381" lon="2.317183">
        <ele>51.20</ele>
        <time>2020-06-14T05:03:43Z</time>
      </trkpt>
      <trkpt lat="41.585012" lon="2.317162">
        <ele>51.20</ele>
        <time>2020-06-14T05:03:49Z</time>
      </trkpt>
      <trkpt lat="41.584833" lon="2.317164">
        <ele>51.20</ele>
        <time>2020-06-14T05:03:52Z</time>
      </trkpt>
      <trkpt lat="41.584694" lon="2.317148">
        <ele>51.20</ele>
        <time>2020-06-14T05:03:54Z</time>
      </trkpt>
      <trkpt lat="41.584618" lon="2.317136">
        <ele>51.40</ele>
        <time>2020-06-14T05:03:55Z</time>
      </trkpt>
      <trkpt lat="41.584543" lon="2.317110">
        <ele>51.80</ele>
        <time>2020-06-14T05:03:56Z</time>
      </trkpt>
      <trkpt lat="41.584397" lon="2.317039">
        <ele>53.80</ele>
        <time>2020-06-14T05:03:58Z</time>
      </trkpt>
      <trkpt lat="41.584570" lon="2.317062">
        <ele>119.00</ele>
        <time>2020-09-29T13:09:32.50Z</time>
      </trkpt>
      <trkpt lat="41.583800" lon="2.316770">
        <ele>122.00</ele>
        <time>2020-09-29T13:09:52.51Z</time>
      </trkpt>
      <trkpt lat="41.583540" lon="2.316720">
        <ele>124.00</ele>
        <time>2020-09-29T13:09:59.07Z</time>
      </trkpt>
      <trkpt lat="41.583160" lon="2.316370">
        <ele>125.00</ele>
        <time>2020-09-29T13:10:10.61Z</time>
      </trkpt>
      <trkpt lat="41.582300" lon="2.315640">
        <ele>126.00</ele>
        <time>2020-09-29T13:10:36.08Z</time>
      </trkpt>
      <trkpt lat="41.582140" lon="2.315480">
        <ele>126.00</ele>
        <time>2020-09-29T13:10:41.07Z</time>
      </trkpt>
      <trkpt lat="41.582150" lon="2.315480">
        <ele>126.00</ele>
        <time>2020-09-29T13:10:41.32Z</time>
      </trkpt>
      <trkpt lat="41.581680" lon="2.314940">
        <ele>129.00</ele>
        <time>2020-09-29T13:10:56.82Z</time>
      </trkpt>
      <trkpt lat="41.581350" lon="2.314170">
        <ele>130.00</ele>
        <time>2020-09-29T13:11:13.41Z</time>
      </trkpt>
      <trkpt lat="41.581220" lon="2.313940">
        <ele>131.00</ele>
        <time>2020-09-29T13:11:18.80Z</time>
      </trkpt>
      <trkpt lat="41.581120" lon="2.314210">
        <ele>131.00</ele>
        <time>2020-09-29T13:11:24.44Z</time>
      </trkpt>
      <trkpt lat="41.580850" lon="2.314780">
        <ele>124.00</ele>
        <time>2020-09-29T13:11:37.05Z</time>
      </trkpt>
      <trkpt lat="41.580320" lon="2.315560">
        <ele>114.00</ele>
        <time>2020-09-29T13:11:56.76Z</time>
      </trkpt>
      <trkpt lat="41.580230" lon="2.315630">
        <ele>114.00</ele>
        <time>2020-09-29T13:11:59.36Z</time>
      </trkpt>
      <trkpt lat="41.580170" lon="2.315740">
        <ele>113.00</ele>
        <time>2020-09-29T13:12:01.91Z</time>
      </trkpt>
      <trkpt lat="41.579950" lon="2.315780">
        <ele>112.00</ele>
        <time>2020-09-29T13:12:07.46Z</time>
      </trkpt>
      <trkpt lat="41.579570" lon="2.315750">
        <ele>111.00</ele>
        <time>2020-09-29T13:12:16.98Z</time>
      </trkpt>
      <trkpt lat="41.579010" lon="2.315630">
        <ele>110.00</ele>
        <time>2020-09-29T13:12:31.15Z</time>
      </trkpt>
      <trkpt lat="41.577620" lon="2.315140">
        <ele>107.00</ele>
        <time>2020-09-29T13:13:07.09Z</time>
      </trkpt>
      <trkpt lat="41.577190" lon="2.314920">
        <ele>107.00</ele>
        <time>2020-09-29T13:13:18.60Z</time>
      </trkpt>
      <trkpt lat="41.576990" lon="2.314870">
        <ele>107.00</ele>
        <time>2020-09-29T13:13:23.69Z</time>
      </trkpt>
      <trkpt lat="41.576930" lon="2.314730">
        <ele>107.00</ele>
        <time>2020-09-29T13:13:26.71Z</time>
      </trkpt>
      <trkpt lat="41.576150" lon="2.314470">
        <ele>109.00</ele>
        <time>2020-09-29T13:13:46.80Z</time>
      </trkpt>
      <trkpt lat="41.575860" lon="2.314320">
        <ele>109.00</ele>
        <time>2020-09-29T13:13:54.58Z</time>
      </trkpt>
      <trkpt lat="41.575520" lon="2.314230">
        <ele>109.00</ele>
        <time>2020-09-29T13:14:03.24Z</time>
      </trkpt>
      <trkpt lat="41.575220" lon="2.314110">
        <ele>109.00</ele>
        <time>2020-09-29T13:14:11.07Z</time>
      </trkpt>
      <trkpt lat="41.575030" lon="2.313910">
        <ele>109.00</ele>
        <time>2020-09-29T13:14:17.12Z</time>
      </trkpt>
      <trkpt lat="41.574670" lon="2.313730">
        <ele>108.00</ele>
        <time>2020-09-29T13:14:26.73Z</time>
      </trkpt>
      <trkpt lat="41.574670" lon="2.313720">
        <ele>108.00</ele>
        <time>2020-09-29T13:14:26.95Z</time>
      </trkpt>
      <trkpt lat="41.574490" lon="2.313630">
        <ele>108.00</ele>
        <time>2020-09-29T13:14:31.76Z</time>
      </trkpt>
      <trkpt lat="41.573560" lon="2.313040">
        <ele>107.00</ele>
        <time>2020-09-29T13:14:57.49Z</time>
      </trkpt>
      <trkpt lat="41.573020" lon="2.312580">
        <ele>105.00</ele>
        <time>2020-09-29T13:15:13.50Z</time>
      </trkpt>
      <trkpt lat="41.572560" lon="2.312240">
        <ele>103.00</ele>
        <time>2020-09-29T13:15:26.64Z</time>
      </trkpt>
      <trkpt lat="41.572560" lon="2.312240">
        <ele>103.00</ele>
        <time>2020-09-29T13:15:26.87Z</time>
      </trkpt>
      <trkpt lat="41.572509" lon="2.312164">
        <ele>0.00</ele>
        <time>2020-09-29T13:15:28.78Z</time>
      </trkpt>
      <trkpt lat="41.572244" lon="2.311979">
        <ele>0.00</ele>
        <time>2020-09-29T13:15:36.25Z</time>
      </trkpt>
      <trkpt lat="41.571580" lon="2.311160">
        <ele>104.00</ele>
        <time>2020-09-29T13:15:58.84Z</time>
      </trkpt>
      <trkpt lat="41.571050" lon="2.310550">
        <ele>104.00</ele>
        <time>2020-09-29T13:16:16.32Z</time>
      </trkpt>
      <trkpt lat="41.570690" lon="2.310170">
        <ele>104.00</ele>
        <time>2020-09-29T13:16:27.79Z</time>
      </trkpt>
      <trkpt lat="41.570260" lon="2.309860">
        <ele>103.00</ele>
        <time>2020-09-29T13:16:40Z</time>
      </trkpt>
      <trkpt lat="41.569950" lon="2.309560">
        <ele>103.00</ele>
        <time>2020-09-29T13:16:49.57Z</time>
      </trkpt>
      <trkpt lat="41.569520" lon="2.309220">
        <ele>103.00</ele>
        <time>2020-09-29T13:17:02.06Z</time>
      </trkpt>
      <trkpt lat="41.568610" lon="2.308510">
        <ele>102.00</ele>
        <time>2020-09-29T13:17:28.40Z</time>
      </trkpt>
      <trkpt lat="41.568400" lon="2.308410">
        <ele>101.00</ele>
        <time>2020-09-29T13:17:33.98Z</time>
      </trkpt>
      <trkpt lat="41.567820" lon="2.308090">
        <ele>100.00</ele>
        <time>2020-09-29T13:17:49.66Z</time>
      </trkpt>
      <trkpt lat="41.567190" lon="2.307640">
        <ele>101.00</ele>
        <time>2020-09-29T13:18:07.52Z</time>
      </trkpt>
      <trkpt lat="41.566910" lon="2.307420">
        <ele>101.00</ele>
        <time>2020-09-29T13:18:15.64Z</time>
      </trkpt>
      <trkpt lat="41.566520" lon="2.307060">
        <ele>100.00</ele>
        <time>2020-09-29T13:18:27.49Z</time>
      </trkpt>
      <trkpt lat="41.566370" lon="2.306780">
        <ele>100.00</ele>
        <time>2020-09-29T13:18:33.93Z</time>
      </trkpt>
      <trkpt lat="41.566240" lon="2.306640">
        <ele>100.00</ele>
        <time>2020-09-29T13:18:38.11Z</time>
      </trkpt>
      <trkpt lat="41.565480" lon="2.305980">
        <ele>99.00</ele>
        <time>2020-09-29T13:19:00.77Z</time>
      </trkpt>
      <trkpt lat="41.565040" lon="2.305690">
        <ele>99.00</ele>
        <time>2020-09-29T13:19:13.03Z</time>
      </trkpt>
      <trkpt lat="41.564570" lon="2.305470">
        <ele>98.00</ele>
        <time>2020-09-29T13:19:25.48Z</time>
      </trkpt>
      <trkpt lat="41.564580" lon="2.305470">
        <ele>98.00</ele>
        <time>2020-09-29T13:19:25.73Z</time>
      </trkpt>
      <trkpt lat="41.563760" lon="2.305110">
        <ele>97.00</ele>
        <time>2020-09-29T13:19:47.31Z</time>
      </trkpt>
      <trkpt lat="41.563530" lon="2.305040">
        <ele>97.00</ele>
        <time>2020-09-29T13:19:53.20Z</time>
      </trkpt>
      <trkpt lat="41.563040" lon="2.304930">
        <ele>97.00</ele>
        <time>2020-09-29T13:20:05.63Z</time>
      </trkpt>
      <trkpt lat="41.562940" lon="2.304860">
        <ele>97.00</ele>
        <time>2020-09-29T13:20:08.45Z</time>
      </trkpt>
      <trkpt lat="41.562700" lon="2.304570">
        <ele>97.00</ele>
        <time>2020-09-29T13:20:16.54Z</time>
      </trkpt>
      <trkpt lat="41.562620" lon="2.304490">
        <ele>97.00</ele>
        <time>2020-09-29T13:20:19.03Z</time>
      </trkpt>
      <trkpt lat="41.562460" lon="2.304470">
        <ele>97.00</ele>
        <time>2020-09-29T13:20:23.05Z</time>
      </trkpt>
      <trkpt lat="41.562300" lon="2.304360">
        <ele>96.00</ele>
        <time>2020-09-29T13:20:27.55Z</time>
      </trkpt>
      <trkpt lat="41.562090" lon="2.304100">
        <ele>96.00</ele>
        <time>2020-09-29T13:20:34.71Z</time>
      </trkpt>
      <trkpt lat="41.561920" lon="2.303860">
        <ele>96.00</ele>
        <time>2020-09-29T13:20:40.89Z</time>
      </trkpt>
      <trkpt lat="41.561780" lon="2.303610">
        <ele>96.00</ele>
        <time>2020-09-29T13:20:46.73Z</time>
      </trkpt>
      <trkpt lat="41.561486" lon="2.302928">
        <ele>96.00</ele>
        <time>2020-09-29T13:21:01.45Z</time>
      </trkpt>
      <trkpt lat="41.561486" lon="2.302928">
        <ele>96.00</ele>
        <time>2020-09-29T13:21:01.68Z</time>
      </trkpt>
      <trkpt lat="41.561470" lon="2.302890">
        <ele>96.00</ele>
        <time>2020-09-29T13:21:02.49Z</time>
      </trkpt>
      <trkpt lat="41.561110" lon="2.301910">
        <ele>95.00</ele>
        <time>2020-09-29T13:21:22.92Z</time>
      </trkpt>
      <trkpt lat="41.561000" lon="2.301590">
        <ele>95.00</ele>
        <time>2020-09-29T13:21:29.50Z</time>
      </trkpt>
      <trkpt lat="41.560990" lon="2.301520">
        <ele>95.00</ele>
        <time>2020-09-29T13:21:30.84Z</time>
      </trkpt>
      <trkpt lat="41.561020" lon="2.301360">
        <ele>95.00</ele>
        <time>2020-09-29T13:21:33.92Z</time>
      </trkpt>
      <trkpt lat="41.561000" lon="2.301250">
        <ele>95.00</ele>
        <time>2020-09-29T13:21:36.04Z</time>
      </trkpt>
      <trkpt lat="41.560620" lon="2.300400">
        <ele>95.00</ele>
        <time>2020-09-29T13:21:54.56Z</time>
      </trkpt>
      <trkpt lat="41.560430" lon="2.300000">
        <ele>95.00</ele>
        <time>2020-09-29T13:22:03.43Z</time>
      </trkpt>
      <trkpt lat="41.560210" lon="2.299390">
        <ele>94.00</ele>
        <time>2020-09-29T13:22:16.09Z</time>
      </trkpt>
      <trkpt lat="41.559940" lon="2.297960">
        <ele>92.00</ele>
        <time>2020-09-29T13:22:43.68Z</time>
      </trkpt>
      <trkpt lat="41.559590" lon="2.296420">
        <ele>92.00</ele>
        <time>2020-09-29T13:23:13.79Z</time>
      </trkpt>
      <trkpt lat="41.559610" lon="2.296350">
        <ele>92.00</ele>
        <time>2020-09-29T13:23:15.19Z</time>
      </trkpt>
      <trkpt lat="41.559590" lon="2.296240">
        <ele>92.00</ele>
        <time>2020-09-29T13:23:17.31Z</time>
      </trkpt>
      <trkpt lat="41.559380" lon="2.295620">
        <ele>92.00</ele>
        <time>2020-09-29T13:23:30.04Z</time>
      </trkpt>
      <trkpt lat="41.559160" lon="2.294630">
        <ele>91.00</ele>
        <time>2020-09-29T13:23:49.36Z</time>
      </trkpt>
      <trkpt lat="41.558920" lon="2.293870">
        <ele>91.00</ele>
        <time>2020-09-29T13:24:04.79Z</time>
      </trkpt>
      <trkpt lat="41.558820" lon="2.293440">
        <ele>91.00</ele>
        <time>2020-09-29T13:24:13.21Z</time>
      </trkpt>
      <trkpt lat="41.558740" lon="2.292980">
        <ele>91.00</ele>
        <time>2020-09-29T13:24:22.05Z</time>
      </trkpt>
      <trkpt lat="41.558730" lon="2.292980">
        <ele>91.00</ele>
        <time>2020-09-29T13:24:22.30Z</time>
      </trkpt>
      <trkpt lat="41.558630" lon="2.292620">
        <ele>91.00</ele>
        <time>2020-09-29T13:24:29.48Z</time>
      </trkpt>
      <trkpt lat="41.558520" lon="2.292010">
        <ele>91.00</ele>
        <time>2020-09-29T13:24:41.22Z</time>
      </trkpt>
      <trkpt lat="41.558370" lon="2.291700">
        <ele>91.00</ele>
        <time>2020-09-29T13:24:48.13Z</time>
      </trkpt>
      <trkpt lat="41.558290" lon="2.291490">
        <ele>90.00</ele>
        <time>2020-09-29T13:24:52.53Z</time>
      </trkpt>
      <trkpt lat="41.558040" lon="2.291560">
        <ele>90.00</ele>
        <time>2020-09-29T13:24:58.92Z</time>
      </trkpt>
      <trkpt lat="41.557860" lon="2.291640">
        <ele>89.00</ele>
        <time>2020-09-29T13:25:03.66Z</time>
      </trkpt>
      <trkpt lat="41.557770" lon="2.291390">
        <ele>88.00</ele>
        <time>2020-09-29T13:25:08.85Z</time>
      </trkpt>
      <trkpt lat="41.557730" lon="2.291400">
        <ele>88.00</ele>
        <time>2020-09-29T13:25:09.87Z</time>
      </trkpt>
      <trkpt lat="41.557330" lon="2.289660">
        <ele>88.00</ele>
        <time>2020-09-29T13:25:43.92Z</time>
      </trkpt>
      <trkpt lat="41.556250" lon="2.285630">
        <ele>84.00</ele>
        <time>2020-09-29T13:27:04Z</time>
      </trkpt>
      <trkpt lat="41.556050" lon="2.285130">
        <ele>84.00</ele>
        <time>2020-09-29T13:27:14.61Z</time>
      </trkpt>
      <trkpt lat="41.556023" lon="2.284955">
        <ele>84.00</ele>
        <time>2020-09-29T13:27:17.95Z</time>
      </trkpt>
      <trkpt lat="41.556010" lon="2.284900">
        <ele>84.00</ele>
        <time>2020-09-29T13:27:19.03Z</time>
      </trkpt>
      <trkpt lat="41.555959" lon="2.284589">
        <ele>84.30</ele>
        <time>2020-09-29T13:27:24.99Z</time>
      </trkpt>
      <trkpt lat="41.555959" lon="2.284589">
        <ele>0.00</ele>
        <time>2020-09-29T13:27:25.21Z</time>
      </trkpt>
      <trkpt lat="41.555986" lon="2.284418">
        <ele>0.00</ele>
        <time>2020-09-29T13:27:28.48Z</time>
      </trkpt>
      <trkpt lat="41.555939" lon="2.284166">
        <ele>0.00</ele>
        <time>2020-09-29T13:27:33.34Z</time>
      </trkpt>
      <trkpt lat="41.555842" lon="2.284072">
        <ele>84.30</ele>
        <time>2020-09-29T13:27:36.33Z</time>
      </trkpt>
      <trkpt lat="41.555842" lon="2.284072">
        <ele>84.30</ele>
        <time>2020-09-29T13:27:36.56Z</time>
      </trkpt>
      <trkpt lat="41.555650" lon="2.283060">
        <ele>85.00</ele>
        <time>2020-09-29T13:27:56.09Z</time>
      </trkpt>
      <trkpt lat="41.555580" lon="2.283010">
        <ele>85.00</ele>
        <time>2020-09-29T13:27:58.07Z</time>
      </trkpt>
      <trkpt lat="41.555720" lon="2.282720">
        <ele>84.00</ele>
        <time>2020-09-29T13:28:04.53Z</time>
      </trkpt>
      <trkpt lat="41.555720" lon="2.282490">
        <ele>84.00</ele>
        <time>2020-09-29T13:28:08.83Z</time>
      </trkpt>
      <trkpt lat="41.555650" lon="2.282210">
        <ele>84.00</ele>
        <time>2020-09-29T13:28:14.36Z</time>
      </trkpt>
      <trkpt lat="41.555640" lon="2.282220">
        <ele>84.00</ele>
        <time>2020-09-29T13:28:14.67Z</time>
      </trkpt>
      <trkpt lat="41.555510" lon="2.281660">
        <ele>83.00</ele>
        <time>2020-09-29T13:28:25.64Z</time>
      </trkpt>
      <trkpt lat="41.555460" lon="2.281570">
        <ele>83.00</ele>
        <time>2020-09-29T13:28:27.73Z</time>
      </trkpt>
      <trkpt lat="41.555220" lon="2.281550">
        <ele>83.00</ele>
        <time>2020-09-29T13:28:33.75Z</time>
      </trkpt>
      <trkpt lat="41.555110" lon="2.281420">
        <ele>83.00</ele>
        <time>2020-09-29T13:28:37.42Z</time>
      </trkpt>
      <trkpt lat="41.554876" lon="2.280507">
        <ele>82.20</ele>
        <time>2020-09-29T13:28:55.47Z</time>
      </trkpt>
      <trkpt lat="41.554876" lon="2.280507">
        <ele>83.00</ele>
        <time>2020-09-29T13:28:55.70Z</time>
      </trkpt>
      <trkpt lat="41.554480" lon="2.279020">
        <ele>84.00</ele>
        <time>2020-09-29T13:29:25.22Z</time>
      </trkpt>
      <trkpt lat="41.554480" lon="2.279030">
        <ele>84.00</ele>
        <time>2020-09-29T13:29:25.45Z</time>
      </trkpt>
      <trkpt lat="41.554440" lon="2.278890">
        <ele>84.00</ele>
        <time>2020-09-29T13:29:28.25Z</time>
      </trkpt>
      <trkpt lat="41.554280" lon="2.278510">
        <ele>83.00</ele>
        <time>2020-09-29T13:29:36.41Z</time>
      </trkpt>
      <trkpt lat="41.554330" lon="2.278410">
        <ele>83.00</ele>
        <time>2020-09-29T13:29:38.66Z</time>
      </trkpt>
      <trkpt lat="41.554440" lon="2.278330">
        <ele>83.00</ele>
        <time>2020-09-29T13:29:41.79Z</time>
      </trkpt>
      <trkpt lat="41.554380" lon="2.278240">
        <ele>83.00</ele>
        <time>2020-09-29T13:29:44.05Z</time>
      </trkpt>
      <trkpt lat="41.554340" lon="2.277900">
        <ele>83.00</ele>
        <time>2020-09-29T13:29:50.48Z</time>
      </trkpt>
      <trkpt lat="41.554490" lon="2.277590">
        <ele>83.00</ele>
        <time>2020-09-29T13:29:57.39Z</time>
      </trkpt>
      <trkpt lat="41.554480" lon="2.277410">
        <ele>83.00</ele>
        <time>2020-09-29T13:30:00.77Z</time>
      </trkpt>
      <trkpt lat="41.554500" lon="2.277170">
        <ele>83.00</ele>
        <time>2020-09-29T13:30:05.29Z</time>
      </trkpt>
      <trkpt lat="41.554440" lon="2.276750">
        <ele>84.00</ele>
        <time>2020-09-29T13:30:13.28Z</time>
      </trkpt>
      <trkpt lat="41.554430" lon="2.276750">
        <ele>84.00</ele>
        <time>2020-09-29T13:30:13.53Z</time>
      </trkpt>
      <trkpt lat="41.554390" lon="2.276450">
        <ele>85.00</ele>
        <time>2020-09-29T13:30:19.24Z</time>
      </trkpt>
      <trkpt lat="41.554320" lon="2.275820">
        <ele>85.00</ele>
        <time>2020-09-29T13:30:31.15Z</time>
      </trkpt>
      <trkpt lat="41.554230" lon="2.275230">
        <ele>84.00</ele>
        <time>2020-09-29T13:30:42.42Z</time>
      </trkpt>
      <trkpt lat="41.554160" lon="2.274020">
        <ele>86.00</ele>
        <time>2020-09-29T13:31:05.12Z</time>
      </trkpt>
      <trkpt lat="41.554070" lon="2.273700">
        <ele>87.00</ele>
        <time>2020-09-29T13:31:11.52Z</time>
      </trkpt>
      <trkpt lat="41.553960" lon="2.273520">
        <ele>87.00</ele>
        <time>2020-09-29T13:31:15.86Z</time>
      </trkpt>
      <trkpt lat="41.553790" lon="2.272920">
        <ele>87.00</ele>
        <time>2020-09-29T13:31:27.87Z</time>
      </trkpt>
      <trkpt lat="41.553580" lon="2.272490">
        <ele>86.00</ele>
        <time>2020-09-29T13:31:37.47Z</time>
      </trkpt>
      <trkpt lat="41.553500" lon="2.272250">
        <ele>86.00</ele>
        <time>2020-09-29T13:31:42.39Z</time>
      </trkpt>
      <trkpt lat="41.553200" lon="2.271680">
        <ele>84.00</ele>
        <time>2020-09-29T13:31:55.42Z</time>
      </trkpt>
      <trkpt lat="41.552440" lon="2.270460">
        <ele>86.00</ele>
        <time>2020-09-29T13:32:25.12Z</time>
      </trkpt>
      <trkpt lat="41.551750" lon="2.269600">
        <ele>85.00</ele>
        <time>2020-09-29T13:32:48.71Z</time>
      </trkpt>
      <trkpt lat="41.550880" lon="2.268640">
        <ele>82.00</ele>
        <time>2020-09-29T13:33:16.92Z</time>
      </trkpt>
      <trkpt lat="41.550890" lon="2.268630">
        <ele>82.00</ele>
        <time>2020-09-29T13:33:17.23Z</time>
      </trkpt>
      <trkpt lat="41.550750" lon="2.268590">
        <ele>82.00</ele>
        <time>2020-09-29T13:33:20.81Z</time>
      </trkpt>
      <trkpt lat="41.550480" lon="2.268310">
        <ele>81.00</ele>
        <time>2020-09-29T13:33:29.35Z</time>
      </trkpt>
      <trkpt lat="41.549690" lon="2.268190">
        <ele>81.00</ele>
        <time>2020-09-29T13:33:49.23Z</time>
      </trkpt>
      <trkpt lat="41.548750" lon="2.267820">
        <ele>82.00</ele>
        <time>2020-09-29T13:34:13.73Z</time>
      </trkpt>
      <trkpt lat="41.547910" lon="2.267230">
        <ele>80.00</ele>
        <time>2020-09-29T13:34:37.45Z</time>
      </trkpt>
      <trkpt lat="41.547910" lon="2.267220">
        <ele>80.00</ele>
        <time>2020-09-29T13:34:37.68Z</time>
      </trkpt>
      <trkpt lat="41.547450" lon="2.266780">
        <ele>79.00</ele>
        <time>2020-09-29T13:34:51.82Z</time>
      </trkpt>
      <trkpt lat="41.547230" lon="2.266470">
        <ele>79.00</ele>
        <time>2020-09-29T13:34:59.82Z</time>
      </trkpt>
      <trkpt lat="41.547070" lon="2.266400">
        <ele>79.00</ele>
        <time>2020-09-29T13:35:04.02Z</time>
      </trkpt>
      <trkpt lat="41.546940" lon="2.266240">
        <ele>79.00</ele>
        <time>2020-09-29T13:35:08.44Z</time>
      </trkpt>
      <trkpt lat="41.546620" lon="2.265520">
        <ele>79.00</ele>
        <time>2020-09-29T13:35:24.11Z</time>
      </trkpt>
      <trkpt lat="41.546560" lon="2.265470">
        <ele>79.00</ele>
        <time>2020-09-29T13:35:25.88Z</time>
      </trkpt>
      <trkpt lat="41.546514" lon="2.265367">
        <ele>79.00</ele>
        <time>2020-09-29T13:35:28.12Z</time>
      </trkpt>
      <trkpt lat="41.546514" lon="2.265367">
        <ele>79.00</ele>
        <time>2020-09-29T13:35:28.35Z</time>
      </trkpt>
      <trkpt lat="41.546440" lon="2.265170">
        <ele>79.00</ele>
        <time>2020-09-29T13:35:32.47Z</time>
      </trkpt>
      <trkpt lat="41.546300" lon="2.264920">
        <ele>79.00</ele>
        <time>2020-09-29T13:35:38.31Z</time>
      </trkpt>
      <trkpt lat="41.546190" lon="2.264680">
        <ele>79.00</ele>
        <time>2020-09-29T13:35:43.58Z</time>
      </trkpt>
      <trkpt lat="41.545980" lon="2.264270">
        <ele>79.00</ele>
        <time>2020-09-29T13:35:52.88Z</time>
      </trkpt>
      <trkpt lat="41.545750" lon="2.263720">
        <ele>79.00</ele>
        <time>2020-09-29T13:36:04.66Z</time>
      </trkpt>
      <trkpt lat="41.545570" lon="2.263370">
        <ele>78.00</ele>
        <time>2020-09-29T13:36:12.61Z</time>
      </trkpt>
      <trkpt lat="41.545240" lon="2.262700">
        <ele>77.00</ele>
        <time>2020-09-29T13:36:27.62Z</time>
      </trkpt>
      <trkpt lat="41.545190" lon="2.262490">
        <ele>77.00</ele>
        <time>2020-09-29T13:36:31.74Z</time>
      </trkpt>
      <trkpt lat="41.545140" lon="2.261840">
        <ele>79.00</ele>
        <time>2020-09-29T13:36:43.97Z</time>
      </trkpt>
      <trkpt lat="41.545090" lon="2.261620">
        <ele>79.00</ele>
        <time>2020-09-29T13:36:48.27Z</time>
      </trkpt>
      <trkpt lat="41.544690" lon="2.259110">
        <ele>76.00</ele>
        <time>2020-09-29T13:37:36.29Z</time>
      </trkpt>
      <trkpt lat="41.544710" lon="2.258610">
        <ele>79.00</ele>
        <time>2020-09-29T13:37:45.65Z</time>
      </trkpt>
      <trkpt lat="41.544770" lon="2.258250">
        <ele>81.00</ele>
        <time>2020-09-29T13:37:52.56Z</time>
      </trkpt>
      <trkpt lat="41.544880" lon="2.258050">
        <ele>82.00</ele>
        <time>2020-09-29T13:37:57.20Z</time>
      </trkpt>
      <trkpt lat="41.545240" lon="2.257560">
        <ele>81.00</ele>
        <time>2020-09-29T13:38:10.05Z</time>
      </trkpt>
      <trkpt lat="41.545350" lon="2.257310">
        <ele>81.00</ele>
        <time>2020-09-29T13:38:15.47Z</time>
      </trkpt>
      <trkpt lat="41.545380" lon="2.257200">
        <ele>81.00</ele>
        <time>2020-09-29T13:38:17.66Z</time>
      </trkpt>
      <trkpt lat="41.545470" lon="2.256990">
        <ele>80.00</ele>
        <time>2020-09-29T13:38:22.19Z</time>
      </trkpt>
      <trkpt lat="41.545520" lon="2.256940">
        <ele>80.00</ele>
        <time>2020-09-29T13:38:23.75Z</time>
      </trkpt>
      <trkpt lat="41.545570" lon="2.256780">
        <ele>80.00</ele>
        <time>2020-09-29T13:38:27Z</time>
      </trkpt>
      <trkpt lat="41.545680" lon="2.256620">
        <ele>79.00</ele>
        <time>2020-09-29T13:38:31.06Z</time>
      </trkpt>
      <trkpt lat="41.545710" lon="2.256560">
        <ele>79.00</ele>
        <time>2020-09-29T13:38:32.41Z</time>
      </trkpt>
      <trkpt lat="41.545760" lon="2.256310">
        <ele>79.00</ele>
        <time>2020-09-29T13:38:37.25Z</time>
      </trkpt>
      <trkpt lat="41.545940" lon="2.255910">
        <ele>78.00</ele>
        <time>2020-09-29T13:38:45.99Z</time>
      </trkpt>
      <trkpt lat="41.545970" lon="2.255680">
        <ele>78.00</ele>
        <time>2020-09-29T13:38:50.36Z</time>
      </trkpt>
      <trkpt lat="41.545970" lon="2.255580">
        <ele>78.00</ele>
        <time>2020-09-29T13:38:52.23Z</time>
      </trkpt>
      <trkpt lat="41.545900" lon="2.255390">
        <ele>78.00</ele>
        <time>2020-09-29T13:38:56.19Z</time>
      </trkpt>
      <trkpt lat="41.545890" lon="2.255300">
        <ele>78.00</ele>
        <time>2020-09-29T13:38:57.89Z</time>
      </trkpt>
      <trkpt lat="41.545890" lon="2.255070">
        <ele>78.00</ele>
        <time>2020-09-29T13:39:02.20Z</time>
      </trkpt>
      <trkpt lat="41.545900" lon="2.254910">
        <ele>77.00</ele>
        <time>2020-09-29T13:39:05.20Z</time>
      </trkpt>
      <trkpt lat="41.545980" lon="2.254360">
        <ele>75.00</ele>
        <time>2020-09-29T13:39:15.68Z</time>
      </trkpt>
      <trkpt lat="41.546030" lon="2.254180">
        <ele>74.00</ele>
        <time>2020-09-29T13:39:19.27Z</time>
      </trkpt>
      <trkpt lat="41.546100" lon="2.254020">
        <ele>73.00</ele>
        <time>2020-09-29T13:39:22.74Z</time>
      </trkpt>
      <trkpt lat="41.546160" lon="2.253830">
        <ele>72.00</ele>
        <time>2020-09-29T13:39:26.60Z</time>
      </trkpt>
      <trkpt lat="41.546190" lon="2.253530">
        <ele>72.00</ele>
        <time>2020-09-29T13:39:32.26Z</time>
      </trkpt>
      <trkpt lat="41.546200" lon="2.253420">
        <ele>72.00</ele>
        <time>2020-09-29T13:39:34.34Z</time>
      </trkpt>
      <trkpt lat="41.546150" lon="2.253090">
        <ele>72.00</ele>
        <time>2020-09-29T13:39:40.64Z</time>
      </trkpt>
      <trkpt lat="41.546160" lon="2.252990">
        <ele>72.00</ele>
        <time>2020-09-29T13:39:42.52Z</time>
      </trkpt>
      <trkpt lat="41.546150" lon="2.252770">
        <ele>72.00</ele>
        <time>2020-09-29T13:39:46.65Z</time>
      </trkpt>
      <trkpt lat="41.546170" lon="2.252590">
        <ele>71.00</ele>
        <time>2020-09-29T13:39:50.05Z</time>
      </trkpt>
      <trkpt lat="41.546140" lon="2.252370">
        <ele>71.00</ele>
        <time>2020-09-29T13:39:54.24Z</time>
      </trkpt>
      <trkpt lat="41.546110" lon="2.252270">
        <ele>70.00</ele>
        <time>2020-09-29T13:39:56.25Z</time>
      </trkpt>
      <trkpt lat="41.546050" lon="2.252170">
        <ele>70.00</ele>
        <time>2020-09-29T13:39:58.65Z</time>
      </trkpt>
      <trkpt lat="41.546050" lon="2.251930">
        <ele>70.00</ele>
        <time>2020-09-29T13:40:03.14Z</time>
      </trkpt>
      <trkpt lat="41.546120" lon="2.251750">
        <ele>69.00</ele>
        <time>2020-09-29T13:40:06.94Z</time>
      </trkpt>
      <trkpt lat="41.546140" lon="2.251650">
        <ele>69.00</ele>
        <time>2020-09-29T13:40:08.87Z</time>
      </trkpt>
      <trkpt lat="41.546140" lon="2.251560">
        <ele>69.00</ele>
        <time>2020-09-29T13:40:10.56Z</time>
      </trkpt>
      <trkpt lat="41.546135" lon="2.251157">
        <ele>69.00</ele>
        <time>2020-09-29T13:40:18.10Z</time>
      </trkpt>
      <trkpt lat="41.546135" lon="2.251157">
        <ele>68.00</ele>
        <time>2020-09-29T13:40:18.32Z</time>
      </trkpt>
      <trkpt lat="41.546228" lon="2.250507">
        <ele>72.80</ele>
        <time>2020-09-29T13:40:30.71Z</time>
      </trkpt>
      <trkpt lat="41.546206" lon="2.250105">
        <ele>73.10</ele>
        <time>2020-09-29T13:40:38.25Z</time>
      </trkpt>
      <trkpt lat="41.546135" lon="2.249810">
        <ele>72.70</ele>
        <time>2020-09-29T13:40:44.05Z</time>
      </trkpt>
      <trkpt lat="41.546097" lon="2.249153">
        <ele>71.90</ele>
        <time>2020-09-29T13:40:56.38Z</time>
      </trkpt>
      <trkpt lat="41.545921" lon="2.248552">
        <ele>71.10</ele>
        <time>2020-09-29T13:41:08.45Z</time>
      </trkpt>
      <trkpt lat="41.545847" lon="2.248268">
        <ele>71.00</ele>
        <time>2020-09-29T13:41:14.08Z</time>
      </trkpt>
      <trkpt lat="41.545762" lon="2.247710">
        <ele>71.30</ele>
        <time>2020-09-29T13:41:24.73Z</time>
      </trkpt>
      <trkpt lat="41.545565" lon="2.247573">
        <ele>65.00</ele>
        <time>2020-09-29T13:41:30.28Z</time>
      </trkpt>
      <trkpt lat="41.545512" lon="2.247485">
        <ele>72.10</ele>
        <time>2020-09-29T13:41:32.40Z</time>
      </trkpt>
      <trkpt lat="41.545485" lon="2.247166">
        <ele>71.70</ele>
        <time>2020-09-29T13:41:38.40Z</time>
      </trkpt>
      <trkpt lat="41.545412" lon="2.246726">
        <ele>71.10</ele>
        <time>2020-09-29T13:41:46.84Z</time>
      </trkpt>
      <trkpt lat="41.545425" lon="2.246412">
        <ele>70.40</ele>
        <time>2020-09-29T13:41:52.72Z</time>
      </trkpt>
      <trkpt lat="41.545323" lon="2.245270">
        <ele>68.20</ele>
        <time>2020-09-29T13:42:14.24Z</time>
      </trkpt>
      <trkpt lat="41.545288" lon="2.244552">
        <ele>68.00</ele>
        <time>2020-09-29T13:42:27.70Z</time>
      </trkpt>
      <trkpt lat="41.545288" lon="2.244552">
        <ele>68.00</ele>
        <time>2020-09-29T13:42:27.93Z</time>
      </trkpt>
      <trkpt lat="41.545233" lon="2.242565">
        <ele>66.90</ele>
        <time>2020-09-29T13:43:05.13Z</time>
      </trkpt>
      <trkpt lat="41.544778" lon="2.239709">
        <ele>56.00</ele>
        <time>2020-09-29T13:43:59.77Z</time>
      </trkpt>
      <trkpt lat="41.543943" lon="2.237091">
        <ele>57.00</ele>
        <time>2020-09-29T13:44:53.02Z</time>
      </trkpt>
      <trkpt lat="41.542739" lon="2.234866">
        <ele>62.10</ele>
        <time>2020-09-29T13:45:44.39Z</time>
      </trkpt>
      <trkpt lat="41.541619" lon="2.232242">
        <ele>54.00</ele>
        <time>2020-09-29T13:46:40.91Z</time>
      </trkpt>
      <trkpt lat="41.538350" lon="2.228470">
        <ele>58.40</ele>
        <time>2020-09-29T13:48:28.90Z</time>
      </trkpt>
      <trkpt lat="41.536957" lon="2.227091">
        <ele>57.20</ele>
        <time>2020-09-29T13:49:12.24Z</time>
      </trkpt>
      <trkpt lat="41.535558" lon="2.225657">
        <ele>57.50</ele>
        <time>2020-09-29T13:49:56.33Z</time>
      </trkpt>
      <trkpt lat="41.534032" lon="2.224242">
        <ele>56.20</ele>
        <time>2020-09-29T13:50:42.76Z</time>
      </trkpt>
      <trkpt lat="41.532727" lon="2.222965">
        <ele>53.30</ele>
        <time>2020-09-29T13:51:23.21Z</time>
      </trkpt>
      <trkpt lat="41.532161" lon="2.222678">
        <ele>54.90</ele>
        <time>2020-09-29T13:51:38.34Z</time>
      </trkpt>
      <trkpt lat="41.531690" lon="2.222203">
        <ele>56.30</ele>
        <time>2020-09-29T13:51:53.10Z</time>
      </trkpt>
      <trkpt lat="41.531489" lon="2.221863">
        <ele>55.30</ele>
        <time>2020-09-29T13:52:01.20Z</time>
      </trkpt>
      <trkpt lat="41.531378" lon="2.221844">
        <ele>55.10</ele>
        <time>2020-09-29T13:52:04Z</time>
      </trkpt>
      <trkpt lat="41.531378" lon="2.221844">
        <ele>55.10</ele>
        <time>2020-09-29T13:52:04.23Z</time>
      </trkpt>
      <trkpt lat="41.531198" lon="2.221908">
        <ele>0.00</ele>
        <time>2020-09-29T13:52:08.88Z</time>
      </trkpt>
      <trkpt lat="41.531198" lon="2.221908">
        <ele>0.00</ele>
        <time>2020-09-29T13:52:09.11Z</time>
      </trkpt>
      <trkpt lat="41.531696" lon="2.221146">
        <ele>0.00</ele>
        <time>2020-09-29T13:52:28.04Z</time>
      </trkpt>
      <trkpt lat="41.532159" lon="2.220430">
        <ele>0.00</ele>
        <time>2020-09-29T13:52:45.74Z</time>
      </trkpt>
      <trkpt lat="41.532492" lon="2.220054">
        <ele>0.00</ele>
        <time>2020-09-29T13:52:56.65Z</time>
      </trkpt>
      <trkpt lat="41.533160" lon="2.219389">
        <ele>0.00</ele>
        <time>2020-09-29T13:53:17.47Z</time>
      </trkpt>
      <trkpt lat="41.533160" lon="2.219389">
        <ele>0.00</ele>
        <time>2020-09-29T13:53:17.70Z</time>
      </trkpt>
      <trkpt lat="41.533754" lon="2.218637">
        <ele>0.00</ele>
        <time>2020-09-29T13:53:38.16Z</time>
      </trkpt>
      <trkpt lat="41.532982" lon="2.217999">
        <ele>0.00</ele>
        <time>2020-09-29T13:54:00.85Z</time>
      </trkpt>
      <trkpt lat="41.532263" lon="2.217401">
        <ele>0.00</ele>
        <time>2020-09-29T13:54:22.03Z</time>
      </trkpt>
      <trkpt lat="41.531807" lon="2.216924">
        <ele>0.00</ele>
        <time>2020-09-29T13:54:36.50Z</time>
      </trkpt>
      <trkpt lat="41.531484" lon="2.216534">
        <ele>0.00</ele>
        <time>2020-09-29T13:54:47.39Z</time>
      </trkpt>
      <trkpt lat="41.531034" lon="2.216158">
        <ele>0.00</ele>
        <time>2020-09-29T13:55:00.66Z</time>
      </trkpt>
      <trkpt lat="41.530154" lon="2.215500">
        <ele>0.00</ele>
        <time>2020-09-29T13:55:25.87Z</time>
      </trkpt>
      <trkpt lat="41.528985" lon="2.214606">
        <ele>0.00</ele>
        <time>2020-09-29T13:55:59.55Z</time>
      </trkpt>
      <trkpt lat="41.528004" lon="2.213807">
        <ele>0.00</ele>
        <time>2020-09-29T13:56:28.27Z</time>
      </trkpt>
      <trkpt lat="41.527145" lon="2.213129">
        <ele>0.00</ele>
        <time>2020-09-29T13:56:53.21Z</time>
      </trkpt>
      <trkpt lat="41.525751" lon="2.212091">
        <ele>0.00</ele>
        <time>2020-09-29T13:57:33.11Z</time>
      </trkpt>
      <trkpt lat="41.525657" lon="2.211916">
        <ele>0.00</ele>
        <time>2020-09-29T13:57:37.15Z</time>
      </trkpt>
      <trkpt lat="41.525401" lon="2.211614">
        <ele>0.00</ele>
        <time>2020-09-29T13:57:45.68Z</time>
      </trkpt>
      <trkpt lat="41.525213" lon="2.211594">
        <ele>0.00</ele>
        <time>2020-09-29T13:57:50.40Z</time>
      </trkpt>
      <trkpt lat="41.524528" lon="2.210989">
        <ele>0.00</ele>
        <time>2020-09-29T13:58:10.93Z</time>
      </trkpt>
      <trkpt lat="41.523816" lon="2.210445">
        <ele>0.00</ele>
        <time>2020-09-29T13:58:31.44Z</time>
      </trkpt>
      <trkpt lat="41.522150" lon="2.210586">
        <ele>0.00</ele>
        <time>2020-09-29T13:59:13.17Z</time>
      </trkpt>
      <trkpt lat="41.521116" lon="2.210532">
        <ele>0.00</ele>
        <time>2020-09-29T13:59:39.04Z</time>
      </trkpt>
      <trkpt lat="41.520390" lon="2.210331">
        <ele>0.00</ele>
        <time>2020-09-29T13:59:57.57Z</time>
      </trkpt>
      <trkpt lat="41.518953" lon="2.209431">
        <ele>0.00</ele>
        <time>2020-09-29T14:00:37.25Z</time>
      </trkpt>
      <trkpt lat="41.516830" lon="2.208020">
        <ele>0.00</ele>
        <time>2020-09-29T14:01:36.54Z</time>
      </trkpt>
      <trkpt lat="41.516615" lon="2.207751">
        <ele>0.00</ele>
        <time>2020-09-29T14:01:43.90Z</time>
      </trkpt>
      <trkpt lat="41.516629" lon="2.207483">
        <ele>0.00</ele>
        <time>2020-09-29T14:01:48.93Z</time>
      </trkpt>
      <trkpt lat="41.516924" lon="2.207026">
        <ele>0.00</ele>
        <time>2020-09-29T14:02:00.23Z</time>
      </trkpt>
      <trkpt lat="41.517233" lon="2.206589">
        <ele>0.00</ele>
        <time>2020-09-29T14:02:11.48Z</time>
      </trkpt>
      <trkpt lat="41.517415" lon="2.206139">
        <ele>0.00</ele>
        <time>2020-09-29T14:02:21.05Z</time>
      </trkpt>
      <trkpt lat="41.517918" lon="2.205434">
        <ele>0.00</ele>
        <time>2020-09-29T14:02:39.28Z</time>
      </trkpt>
      <trkpt lat="41.517918" lon="2.205434">
        <ele>0.00</ele>
        <time>2020-09-29T14:02:39.50Z</time>
      </trkpt>
      <trkpt lat="41.517515" lon="2.205031">
        <ele>0.00</ele>
        <time>2020-09-29T14:02:52.09Z</time>
      </trkpt>
      <trkpt lat="41.517102" lon="2.204816">
        <ele>0.00</ele>
        <time>2020-09-29T14:03:03.17Z</time>
      </trkpt>
      <trkpt lat="41.515950" lon="2.203923">
        <ele>0.00</ele>
        <time>2020-09-29T14:03:36.47Z</time>
      </trkpt>
      <trkpt lat="41.515950" lon="2.203923">
        <ele>0.00</ele>
        <time>2020-09-29T14:03:36.70Z</time>
      </trkpt>
      <trkpt lat="41.513275" lon="2.201780">
        <ele>50.80</ele>
        <time>2020-09-29T14:04:54.68Z</time>
      </trkpt>
      <trkpt lat="41.511876" lon="2.200768">
        <ele>49.60</ele>
        <time>2020-09-29T14:05:34.46Z</time>
      </trkpt>
      <trkpt lat="41.509171" lon="2.198667">
        <ele>45.00</ele>
        <time>2020-09-29T14:06:52.69Z</time>
      </trkpt>
      <trkpt lat="41.507837" lon="2.197631">
        <ele>0.00</ele>
        <time>2020-09-29T14:07:31.27Z</time>
      </trkpt>
      <trkpt lat="41.506810" lon="2.196828">
        <ele>0.00</ele>
        <time>2020-09-29T14:08:01.02Z</time>
      </trkpt>
      <trkpt lat="41.506810" lon="2.196828">
        <ele>43.20</ele>
        <time>2020-09-29T14:08:01.25Z</time>
      </trkpt>
      <trkpt lat="41.505611" lon="2.195889">
        <ele>45.00</ele>
        <time>2020-09-29T14:08:36Z</time>
      </trkpt>
      <trkpt lat="41.501745" lon="2.192850">
        <ele>43.70</ele>
        <time>2020-09-29T14:10:28.15Z</time>
      </trkpt>
      <trkpt lat="41.501638" lon="2.192767">
        <ele>43.80</ele>
        <time>2020-09-29T14:10:31.25Z</time>
      </trkpt>
      <trkpt lat="41.501638" lon="2.192767">
        <ele>43.80</ele>
        <time>2020-09-29T14:10:31.47Z</time>
      </trkpt>
      <trkpt lat="41.500573" lon="2.191941">
        <ele>44.30</ele>
        <time>2020-09-29T14:11:02.26Z</time>
      </trkpt>
      <trkpt lat="41.499831" lon="2.191368">
        <ele>44.00</ele>
        <time>2020-09-29T14:11:23.69Z</time>
      </trkpt>
      <trkpt lat="41.499099" lon="2.190855">
        <ele>41.00</ele>
        <time>2020-09-29T14:11:44.36Z</time>
      </trkpt>
      <trkpt lat="41.498363" lon="2.190439">
        <ele>41.50</ele>
        <time>2020-09-29T14:12:04.34Z</time>
      </trkpt>
      <trkpt lat="41.497662" lon="2.190161">
        <ele>42.00</ele>
        <time>2020-09-29T14:12:22.62Z</time>
      </trkpt>
      <trkpt lat="41.497012" lon="2.189961">
        <ele>40.80</ele>
        <time>2020-09-29T14:12:39.30Z</time>
      </trkpt>
      <trkpt lat="41.495674" lon="2.189710">
        <ele>38.80</ele>
        <time>2020-09-29T14:13:13.08Z</time>
      </trkpt>
      <trkpt lat="41.494380" lon="2.189515">
        <ele>38.70</ele>
        <time>2020-09-29T14:13:45.63Z</time>
      </trkpt>
      <trkpt lat="41.493110" lon="2.189370">
        <ele>39.80</ele>
        <time>2020-09-29T14:14:17.50Z</time>
      </trkpt>
      <trkpt lat="41.491868" lon="2.189225">
        <ele>40.80</ele>
        <time>2020-09-29T14:14:48.66Z</time>
      </trkpt>
      <trkpt lat="41.491356" lon="2.188988">
        <ele>41.10</ele>
        <time>2020-09-29T14:15:02.21Z</time>
      </trkpt>
      <trkpt lat="41.490848" lon="2.188493">
        <ele>40.40</ele>
        <time>2020-09-29T14:15:17.94Z</time>
      </trkpt>
      <trkpt lat="41.490570" lon="2.187990">
        <ele>40.80</ele>
        <time>2020-09-29T14:15:29.64Z</time>
      </trkpt>
      <trkpt lat="41.489914" lon="2.186634">
        <ele>43.00</ele>
        <time>2020-09-29T14:15:59.87Z</time>
      </trkpt>
      <trkpt lat="41.488866" lon="2.187182">
        <ele>42.50</ele>
        <time>2020-09-29T14:16:28.01Z</time>
      </trkpt>
      <trkpt lat="41.488431" lon="2.187001">
        <ele>42.80</ele>
        <time>2020-09-29T14:16:39.40Z</time>
      </trkpt>
      <trkpt lat="41.487511" lon="2.187329">
        <ele>0.00</ele>
        <time>2020-09-29T14:17:03.21Z</time>
      </trkpt>
      <trkpt lat="41.487337" lon="2.186520">
        <ele>-72.60</ele>
        <time>2018-01-02T09:35:37Z</time>
      </trkpt>
      <trkpt lat="41.487265" lon="2.185969">
        <ele>-72.40</ele>
        <time>2018-01-02T09:35:43Z</time>
      </trkpt>
      <trkpt lat="41.487161" lon="2.185503">
        <ele>-71.80</ele>
        <time>2018-01-02T09:35:48Z</time>
      </trkpt>
      <trkpt lat="41.487143" lon="2.185423">
        <ele>-71.60</ele>
        <time>2018-01-02T09:35:49Z</time>
      </trkpt>
      <trkpt lat="41.486970" lon="2.184822">
        <ele>-71.60</ele>
        <time>2018-01-02T09:35:56Z</time>
      </trkpt>
      <trkpt lat="41.486854" lon="2.184357">
        <ele>-70.60</ele>
        <time>2018-01-02T09:36:01Z</time>
      </trkpt>
      <trkpt lat="41.486798" lon="2.184106">
        <ele>-70.40</ele>
        <time>2018-01-02T09:36:04Z</time>
      </trkpt>
      <trkpt lat="41.486775" lon="2.184034">
        <ele>-70.60</ele>
        <time>2018-01-02T09:36:05Z</time>
      </trkpt>
      <trkpt lat="41.486674" lon="2.183825">
        <ele>-71.80</ele>
        <time>2018-01-02T09:36:08Z</time>
      </trkpt>
      <trkpt lat="41.486647" lon="2.183741">
        <ele>-72.20</ele>
        <time>2018-01-02T09:36:09Z</time>
      </trkpt>
      <trkpt lat="41.486625" lon="2.183650">
        <ele>-72.80</ele>
        <time>2018-01-02T09:36:10Z</time>
      </trkpt>
      <trkpt lat="41.486558" lon="2.183328">
        <ele>-71.60</ele>
        <time>2018-01-02T09:36:13Z</time>
      </trkpt>
      <trkpt lat="41.486534" lon="2.183223">
        <ele>-71.20</ele>
        <time>2018-01-02T09:36:14Z</time>
      </trkpt>
      <trkpt lat="41.486378" lon="2.182792">
        <ele>-70.40</ele>
        <time>2018-01-02T09:36:19Z</time>
      </trkpt>
      <trkpt lat="41.486302" lon="2.182646">
        <ele>-70.60</ele>
        <time>2018-01-02T09:36:21Z</time>
      </trkpt>
      <trkpt lat="41.486190" lon="2.182415">
        <ele>-70.00</ele>
        <time>2018-01-02T09:36:24Z</time>
      </trkpt>
      <trkpt lat="41.486156" lon="2.182341">
        <ele>-69.80</ele>
        <time>2018-01-02T09:36:25Z</time>
      </trkpt>
      <trkpt lat="41.486097" lon="2.182199">
        <ele>-69.40</ele>
        <time>2018-01-02T09:36:27Z</time>
      </trkpt>
      <trkpt lat="41.486087" lon="2.182127">
        <ele>-69.20</ele>
        <time>2018-01-02T09:36:28Z</time>
      </trkpt>
      <trkpt lat="41.486095" lon="2.182056">
        <ele>-69.20</ele>
        <time>2018-01-02T09:36:29Z</time>
      </trkpt>
      <trkpt lat="41.486280" lon="2.181834">
        <ele>-68.80</ele>
        <time>2018-01-02T09:36:34Z</time>
      </trkpt>
      <trkpt lat="41.486390" lon="2.181727">
        <ele>-68.60</ele>
        <time>2018-01-02T09:36:37Z</time>
      </trkpt>
      <trkpt lat="41.486399" lon="2.181664">
        <ele>-68.20</ele>
        <time>2018-01-02T09:36:39Z</time>
      </trkpt>
      <trkpt lat="41.486381" lon="2.181620">
        <ele>-68.20</ele>
        <time>2018-01-02T09:36:40Z</time>
      </trkpt>
      <trkpt lat="41.486136" lon="2.181102">
        <ele>-67.80</ele>
        <time>2018-01-02T09:36:48Z</time>
      </trkpt>
      <trkpt lat="41.486018" lon="2.180829">
        <ele>-67.80</ele>
        <time>2018-01-02T09:36:52Z</time>
      </trkpt>
      <trkpt lat="41.485958" lon="2.180695">
        <ele>-67.60</ele>
        <time>2018-01-02T09:36:54Z</time>
      </trkpt>
      <trkpt lat="41.485932" lon="2.180631">
        <ele>-67.40</ele>
        <time>2018-01-02T09:36:55Z</time>
      </trkpt>
      <trkpt lat="41.485918" lon="2.180497">
        <ele>-67.40</ele>
        <time>2018-01-02T09:36:57Z</time>
      </trkpt>
      <trkpt lat="41.485707" lon="2.180081">
        <ele>-67.60</ele>
        <time>2018-01-02T09:37:03Z</time>
      </trkpt>
      <trkpt lat="41.485636" lon="2.179929">
        <ele>-67.60</ele>
        <time>2018-01-02T09:37:05Z</time>
      </trkpt>
      <trkpt lat="41.485351" lon="2.179308">
        <ele>-67.80</ele>
        <time>2018-01-02T09:37:13Z</time>
      </trkpt>
      <trkpt lat="41.485172" lon="2.178926">
        <ele>-68.00</ele>
        <time>2018-01-02T09:37:18Z</time>
      </trkpt>
      <trkpt lat="41.485098" lon="2.178776">
        <ele>-68.00</ele>
        <time>2018-01-02T09:37:20Z</time>
      </trkpt>
      <trkpt lat="41.485016" lon="2.178646">
        <ele>-67.80</ele>
        <time>2018-01-02T09:37:22Z</time>
      </trkpt>
      <trkpt lat="41.484921" lon="2.178534">
        <ele>-67.60</ele>
        <time>2018-01-02T09:37:24Z</time>
      </trkpt>
      <trkpt lat="41.484819" lon="2.178425">
        <ele>-67.60</ele>
        <time>2018-01-02T09:37:26Z</time>
      </trkpt>
      <trkpt lat="41.484769" lon="2.178374">
        <ele>-67.60</ele>
        <time>2018-01-02T09:37:27Z</time>
      </trkpt>
      <trkpt lat="41.484673" lon="2.178252">
        <ele>-67.20</ele>
        <time>2018-01-02T09:37:29Z</time>
      </trkpt>
      <trkpt lat="41.484551" lon="2.178148">
        <ele>-67.00</ele>
        <time>2018-01-02T09:37:31Z</time>
      </trkpt>
      <trkpt lat="41.484052" lon="2.177696">
        <ele>-67.00</ele>
        <time>2018-01-02T09:37:39Z</time>
      </trkpt>
      <trkpt lat="41.483930" lon="2.177587">
        <ele>-66.60</ele>
        <time>2018-01-02T09:37:41Z</time>
      </trkpt>
      <trkpt lat="41.483826" lon="2.177445">
        <ele>-66.60</ele>
        <time>2018-01-02T09:37:43Z</time>
      </trkpt>
      <trkpt lat="41.483664" lon="2.177114">
        <ele>-66.60</ele>
        <time>2018-01-02T09:37:47Z</time>
      </trkpt>
      <trkpt lat="41.483593" lon="2.176940">
        <ele>-66.60</ele>
        <time>2018-01-02T09:37:49Z</time>
      </trkpt>
      <trkpt lat="41.483504" lon="2.176566">
        <ele>-66.40</ele>
        <time>2018-01-02T09:37:53Z</time>
      </trkpt>
      <trkpt lat="41.483501" lon="2.176275">
        <ele>-66.20</ele>
        <time>2018-01-02T09:37:56Z</time>
      </trkpt>
      <trkpt lat="41.483514" lon="2.176081">
        <ele>-66.00</ele>
        <time>2018-01-02T09:37:58Z</time>
      </trkpt>
      <trkpt lat="41.483546" lon="2.175890">
        <ele>-66.00</ele>
        <time>2018-01-02T09:38:00Z</time>
      </trkpt>
      <trkpt lat="41.483745" lon="2.175154">
        <ele>-65.80</ele>
        <time>2018-01-02T09:38:08Z</time>
      </trkpt>
      <trkpt lat="41.483819" lon="2.174878">
        <ele>-65.60</ele>
        <time>2018-01-02T09:38:11Z</time>
      </trkpt>
      <trkpt lat="41.484020" lon="2.174144">
        <ele>-65.20</ele>
        <time>2018-01-02T09:38:19Z</time>
      </trkpt>
      <trkpt lat="41.484045" lon="2.174053">
        <ele>-65.00</ele>
        <time>2018-01-02T09:38:20Z</time>
      </trkpt>
      <trkpt lat="41.484256" lon="2.173317">
        <ele>-64.60</ele>
        <time>2018-01-02T09:38:28Z</time>
      </trkpt>
      <trkpt lat="41.484281" lon="2.173224">
        <ele>-64.60</ele>
        <time>2018-01-02T09:38:29Z</time>
      </trkpt>
      <trkpt lat="41.484446" lon="2.172479">
        <ele>-64.20</ele>
        <time>2018-01-02T09:38:37Z</time>
      </trkpt>
      <trkpt lat="41.484495" lon="2.172197">
        <ele>-64.20</ele>
        <time>2018-01-02T09:38:40Z</time>
      </trkpt>
      <trkpt lat="41.484548" lon="2.171713">
        <ele>-64.00</ele>
        <time>2018-01-02T09:38:45Z</time>
      </trkpt>
      <trkpt lat="41.484568" lon="2.171520">
        <ele>-63.80</ele>
        <time>2018-01-02T09:38:47Z</time>
      </trkpt>
      <trkpt lat="41.484575" lon="2.171424">
        <ele>-63.60</ele>
        <time>2018-01-02T09:38:48Z</time>
      </trkpt>
      <trkpt lat="41.484633" lon="2.170654">
        <ele>-63.40</ele>
        <time>2018-01-02T09:38:56Z</time>
      </trkpt>
      <trkpt lat="41.484701" lon="2.169898">
        <ele>-63.00</ele>
        <time>2018-01-02T09:39:04Z</time>
      </trkpt>
      <trkpt lat="41.484707" lon="2.169802">
        <ele>-63.00</ele>
        <time>2018-01-02T09:39:05Z</time>
      </trkpt>
      <trkpt lat="41.484714" lon="2.169707">
        <ele>-63.00</ele>
        <time>2018-01-02T09:39:06Z</time>
      </trkpt>
      <trkpt lat="41.484775" lon="2.168953">
        <ele>-62.60</ele>
        <time>2018-01-02T09:39:14Z</time>
      </trkpt>
      <trkpt lat="41.484770" lon="2.168196">
        <ele>-62.20</ele>
        <time>2018-01-02T09:39:22Z</time>
      </trkpt>
      <trkpt lat="41.484683" lon="2.167469">
        <ele>-62.00</ele>
        <time>2018-01-02T09:39:30Z</time>
      </trkpt>
      <trkpt lat="41.484668" lon="2.167382">
        <ele>-62.00</ele>
        <time>2018-01-02T09:39:31Z</time>
      </trkpt>
      <trkpt lat="41.484636" lon="2.167211">
        <ele>-61.80</ele>
        <time>2018-01-02T09:39:33Z</time>
      </trkpt>
      <trkpt lat="41.484577" lon="2.166818">
        <ele>-61.80</ele>
        <time>2018-01-02T09:39:38Z</time>
      </trkpt>
      <trkpt lat="41.484511" lon="2.166342">
        <ele>-61.60</ele>
        <time>2018-01-02T09:39:44Z</time>
      </trkpt>
      <trkpt lat="41.484460" lon="2.165976">
        <ele>-61.40</ele>
        <time>2018-01-02T09:39:48Z</time>
      </trkpt>
      <trkpt lat="41.484378" lon="2.165414">
        <ele>-61.20</ele>
        <time>2018-01-02T09:39:54Z</time>
      </trkpt>
      <trkpt lat="41.484302" lon="2.164749">
        <ele>-61.00</ele>
        <time>2018-01-02T09:40:01Z</time>
      </trkpt>
      <trkpt lat="41.484296" lon="2.164652">
        <ele>-60.80</ele>
        <time>2018-01-02T09:40:02Z</time>
      </trkpt>
      <trkpt lat="41.484257" lon="2.163859">
        <ele>-60.40</ele>
        <time>2018-01-02T09:40:10Z</time>
      </trkpt>
      <trkpt lat="41.484255" lon="2.163656">
        <ele>-60.20</ele>
        <time>2018-01-02T09:40:12Z</time>
      </trkpt>
      <trkpt lat="41.484329" lon="2.163365">
        <ele>-60.00</ele>
        <time>2018-01-02T09:40:15Z</time>
      </trkpt>
      <trkpt lat="41.484386" lon="2.163177">
        <ele>-59.60</ele>
        <time>2018-01-02T09:40:17Z</time>
      </trkpt>
      <trkpt lat="41.484404" lon="2.163077">
        <ele>-59.40</ele>
        <time>2018-01-02T09:40:18Z</time>
      </trkpt>
      <trkpt lat="41.484434" lon="2.162683">
        <ele>-59.00</ele>
        <time>2018-01-02T09:40:22Z</time>
      </trkpt>
      <trkpt lat="41.484445" lon="2.162484">
        <ele>-58.80</ele>
        <time>2018-01-02T09:40:24Z</time>
      </trkpt>
      <trkpt lat="41.484474" lon="2.162194">
        <ele>-58.80</ele>
        <time>2018-01-02T09:40:27Z</time>
      </trkpt>
      <trkpt lat="41.484492" lon="2.161999">
        <ele>-58.60</ele>
        <time>2018-01-02T09:40:29Z</time>
      </trkpt>
      <trkpt lat="41.484675" lon="2.161268">
        <ele>-58.20</ele>
        <time>2018-01-02T09:40:37Z</time>
      </trkpt>
      <trkpt lat="41.484785" lon="2.160921">
        <ele>-57.60</ele>
        <time>2018-01-02T09:40:41Z</time>
      </trkpt>
      <trkpt lat="41.484830" lon="2.160754">
        <ele>-57.60</ele>
        <time>2018-01-02T09:40:43Z</time>
      </trkpt>
      <trkpt lat="41.485028" lon="2.160324">
        <ele>-57.40</ele>
        <time>2018-01-02T09:40:49Z</time>
      </trkpt>
      <trkpt lat="41.485123" lon="2.160092">
        <ele>-57.20</ele>
        <time>2018-01-02T09:40:52Z</time>
      </trkpt>
      <trkpt lat="41.485236" lon="2.159781">
        <ele>-56.80</ele>
        <time>2018-01-02T09:40:56Z</time>
      </trkpt>
      <trkpt lat="41.485301" lon="2.159641">
        <ele>-56.60</ele>
        <time>2018-01-02T09:40:58Z</time>
      </trkpt>
      <trkpt lat="41.485414" lon="2.159463">
        <ele>-56.40</ele>
        <time>2018-01-02T09:41:01Z</time>
      </trkpt>
      <trkpt lat="41.485467" lon="2.159346">
        <ele>-56.20</ele>
        <time>2018-01-02T09:41:03Z</time>
      </trkpt>
      <trkpt lat="41.485419" lon="2.159233">
        <ele>-56.20</ele>
        <time>2018-01-02T09:41:05Z</time>
      </trkpt>
      <trkpt lat="41.485189" lon="2.159337">
        <ele>-56.00</ele>
        <time>2018-01-02T09:41:10Z</time>
      </trkpt>
      <trkpt lat="41.485052" lon="2.159528">
        <ele>-56.20</ele>
        <time>2018-01-02T09:41:14Z</time>
      </trkpt>
      <trkpt lat="41.484960" lon="2.159662">
        <ele>-56.40</ele>
        <time>2018-01-02T09:41:17Z</time>
      </trkpt>
      <trkpt lat="41.484839" lon="2.159772">
        <ele>-56.20</ele>
        <time>2018-01-02T09:41:21Z</time>
      </trkpt>
      <trkpt lat="41.484787" lon="2.159762">
        <ele>-56.60</ele>
        <time>2018-01-02T09:41:38Z</time>
      </trkpt>
      <trkpt lat="41.484773" lon="2.159770">
        <ele>-56.80</ele>
        <time>2018-01-02T09:41:40Z</time>
      </trkpt>
      <trkpt lat="41.484764" lon="2.159773">
        <ele>-56.80</ele>
        <time>2018-01-02T09:41:41Z</time>
      </trkpt>
      <trkpt lat="41.484715" lon="2.159770">
        <ele>-57.00</ele>
        <time>2018-01-02T09:41:44Z</time>
      </trkpt>
      <trkpt lat="41.484625" lon="2.159708">
        <ele>-57.20</ele>
        <time>2018-01-02T09:41:47Z</time>
      </trkpt>
      <trkpt lat="41.484558" lon="2.159637">
        <ele>-57.20</ele>
        <time>2018-01-02T09:41:49Z</time>
      </trkpt>
      <trkpt lat="41.484474" lon="2.159579">
        <ele>-57.40</ele>
        <time>2018-01-02T09:41:51Z</time>
      </trkpt>
      <trkpt lat="41.484389" lon="2.159500">
        <ele>-57.40</ele>
        <time>2018-01-02T09:41:53Z</time>
      </trkpt>
      <trkpt lat="41.484288" lon="2.159433">
        <ele>-57.80</ele>
        <time>2018-01-02T09:41:55Z</time>
      </trkpt>
      <trkpt lat="41.484171" lon="2.159383">
        <ele>-58.40</ele>
        <time>2018-01-02T09:41:57Z</time>
      </trkpt>
      <trkpt lat="41.483962" lon="2.159310">
        <ele>-58.40</ele>
        <time>2018-01-02T09:42:00Z</time>
      </trkpt>
      <trkpt lat="41.483894" lon="2.159247">
        <ele>-58.40</ele>
        <time>2018-01-02T09:42:01Z</time>
      </trkpt>
      <trkpt lat="41.483766" lon="2.159071">
        <ele>-57.60</ele>
        <time>2018-01-02T09:42:03Z</time>
      </trkpt>
      <trkpt lat="41.483699" lon="2.158978">
        <ele>-56.80</ele>
        <time>2018-01-02T09:42:04Z</time>
      </trkpt>
      <trkpt lat="41.483628" lon="2.158886">
        <ele>-55.80</ele>
        <time>2018-01-02T09:42:05Z</time>
      </trkpt>
      <trkpt lat="41.483473" lon="2.158742">
        <ele>-53.80</ele>
        <time>2018-01-02T09:42:07Z</time>
      </trkpt>
      <trkpt lat="41.483395" lon="2.158689">
        <ele>-53.20</ele>
        <time>2018-01-02T09:42:08Z</time>
      </trkpt>
      <trkpt lat="41.483322" lon="2.158638">
        <ele>-52.80</ele>
        <time>2018-01-02T09:42:09Z</time>
      </trkpt>
      <trkpt lat="41.483252" lon="2.158584">
        <ele>-52.40</ele>
        <time>2018-01-02T09:42:10Z</time>
      </trkpt>
      <trkpt lat="41.483190" lon="2.158524">
        <ele>-51.00</ele>
        <time>2018-01-02T09:42:11Z</time>
      </trkpt>
      <trkpt lat="41.483136" lon="2.158458">
        <ele>-50.40</ele>
        <time>2018-01-02T09:42:12Z</time>
      </trkpt>
      <trkpt lat="41.483072" lon="2.158311">
        <ele>-49.60</ele>
        <time>2018-01-02T09:42:14Z</time>
      </trkpt>
      <trkpt lat="41.483063" lon="2.158238">
        <ele>-49.40</ele>
        <time>2018-01-02T09:42:15Z</time>
      </trkpt>
      <trkpt lat="41.483064" lon="2.158086">
        <ele>-49.00</ele>
        <time>2018-01-02T09:42:17Z</time>
      </trkpt>
      <trkpt lat="41.483097" lon="2.157850">
        <ele>-48.40</ele>
        <time>2018-01-02T09:42:21Z</time>
      </trkpt>
      <trkpt lat="41.483111" lon="2.157749">
        <ele>-48.60</ele>
        <time>2018-01-02T09:42:23Z</time>
      </trkpt>
      <trkpt lat="41.483110" lon="2.157488">
        <ele>-49.80</ele>
        <time>2018-01-02T09:42:28Z</time>
      </trkpt>
      <trkpt lat="41.483111" lon="2.157370">
        <ele>-50.00</ele>
        <time>2018-01-02T09:42:30Z</time>
      </trkpt>
      <trkpt lat="41.483137" lon="2.157018">
        <ele>-50.80</ele>
        <time>2018-01-02T09:42:36Z</time>
      </trkpt>
      <trkpt lat="41.483142" lon="2.156961">
        <ele>-51.00</ele>
        <time>2018-01-02T09:42:37Z</time>
      </trkpt>
      <trkpt lat="41.483189" lon="2.156752">
        <ele>-51.40</ele>
        <time>2018-01-02T09:42:41Z</time>
      </trkpt>
      <trkpt lat="41.483257" lon="2.156645">
        <ele>-51.80</ele>
        <time>2018-01-02T09:42:44Z</time>
      </trkpt>
      <trkpt lat="41.483284" lon="2.156624">
        <ele>-52.40</ele>
        <time>2018-01-02T09:42:45Z</time>
      </trkpt>
      <trkpt lat="41.483345" lon="2.156602">
        <ele>-53.00</ele>
        <time>2018-01-02T09:42:47Z</time>
      </trkpt>
      <trkpt lat="41.483414" lon="2.156594">
        <ele>-53.80</ele>
        <time>2018-01-02T09:42:49Z</time>
      </trkpt>
      <trkpt lat="41.483451" lon="2.156593">
        <ele>-54.20</ele>
        <time>2018-01-02T09:42:50Z</time>
      </trkpt>
      <trkpt lat="41.483491" lon="2.156588">
        <ele>-54.40</ele>
        <time>2018-01-02T09:42:51Z</time>
      </trkpt>
      <trkpt lat="41.483574" lon="2.156563">
        <ele>-54.60</ele>
        <time>2018-01-02T09:42:53Z</time>
      </trkpt>
      <trkpt lat="41.483617" lon="2.156537">
        <ele>-54.80</ele>
        <time>2018-01-02T09:42:54Z</time>
      </trkpt>
      <trkpt lat="41.483775" lon="2.156409">
        <ele>-55.20</ele>
        <time>2018-01-02T09:42:58Z</time>
      </trkpt>
      <trkpt lat="41.483847" lon="2.156338">
        <ele>-55.20</ele>
        <time>2018-01-02T09:43:00Z</time>
      </trkpt>
      <trkpt lat="41.483908" lon="2.156265">
        <ele>-55.40</ele>
        <time>2018-01-02T09:43:02Z</time>
      </trkpt>
      <trkpt lat="41.483934" lon="2.156225">
        <ele>-55.60</ele>
        <time>2018-01-02T09:43:03Z</time>
      </trkpt>
      <trkpt lat="41.483956" lon="2.156184">
        <ele>-55.80</ele>
        <time>2018-01-02T09:43:04Z</time>
      </trkpt>
      <trkpt lat="41.483980" lon="2.156044">
        <ele>-56.60</ele>
        <time>2018-01-02T09:43:07Z</time>
      </trkpt>
      <trkpt lat="41.483952" lon="2.155958">
        <ele>-57.20</ele>
        <time>2018-01-02T09:43:09Z</time>
      </trkpt>
      <trkpt lat="41.483875" lon="2.155841">
        <ele>-57.80</ele>
        <time>2018-01-02T09:43:12Z</time>
      </trkpt>
      <trkpt lat="41.483769" lon="2.155639">
        <ele>-58.20</ele>
        <time>2018-01-02T09:43:16Z</time>
      </trkpt>
      <trkpt lat="41.483736" lon="2.155592">
        <ele>-58.40</ele>
        <time>2018-01-02T09:43:17Z</time>
      </trkpt>
      <trkpt lat="41.483672" lon="2.155486">
        <ele>-58.60</ele>
        <time>2018-01-02T09:43:19Z</time>
      </trkpt>
      <trkpt lat="41.483642" lon="2.155420">
        <ele>-58.40</ele>
        <time>2018-01-02T09:43:20Z</time>
      </trkpt>
      <trkpt lat="41.483614" lon="2.155350">
        <ele>-57.80</ele>
        <time>2018-01-02T09:43:21Z</time>
      </trkpt>
      <trkpt lat="41.483572" lon="2.155151">
        <ele>-56.80</ele>
        <time>2018-01-02T09:43:24Z</time>
      </trkpt>
      <trkpt lat="41.483402" lon="2.154985">
        <ele>-56.40</ele>
        <time>2018-01-02T09:43:28Z</time>
      </trkpt>
      <trkpt lat="41.483292" lon="2.154919">
        <ele>-56.00</ele>
        <time>2018-01-02T09:43:30Z</time>
      </trkpt>
      <trkpt lat="41.483171" lon="2.154853">
        <ele>-55.40</ele>
        <time>2018-01-02T09:43:32Z</time>
      </trkpt>
      <trkpt lat="41.482931" lon="2.154720">
        <ele>-54.40</ele>
        <time>2018-01-02T09:43:36Z</time>
      </trkpt>
      <trkpt lat="41.482872" lon="2.154687">
        <ele>-54.20</ele>
        <time>2018-01-02T09:43:37Z</time>
      </trkpt>
      <trkpt lat="41.482708" lon="2.154570">
        <ele>-54.20</ele>
        <time>2018-01-02T09:43:40Z</time>
      </trkpt>
      <trkpt lat="41.482660" lon="2.154524">
        <ele>-54.20</ele>
        <time>2018-01-02T09:43:41Z</time>
      </trkpt>
      <trkpt lat="41.482577" lon="2.154412">
        <ele>-54.40</ele>
        <time>2018-01-02T09:43:43Z</time>
      </trkpt>
      <trkpt lat="41.482459" lon="2.154213">
        <ele>-54.20</ele>
        <time>2018-01-02T09:43:46Z</time>
      </trkpt>
      <trkpt lat="41.482391" lon="2.154075">
        <ele>-53.80</ele>
        <time>2018-01-02T09:43:48Z</time>
      </trkpt>
      <trkpt lat="41.482284" lon="2.153795">
        <ele>-53.60</ele>
        <time>2018-01-02T09:43:52Z</time>
      </trkpt>
      <trkpt lat="41.482214" lon="2.153581">
        <ele>-53.80</ele>
        <time>2018-01-02T09:43:55Z</time>
      </trkpt>
      <trkpt lat="41.482176" lon="2.153426">
        <ele>-53.80</ele>
        <time>2018-01-02T09:43:57Z</time>
      </trkpt>
      <trkpt lat="41.482140" lon="2.153184">
        <ele>-53.80</ele>
        <time>2018-01-02T09:44:00Z</time>
      </trkpt>
      <trkpt lat="41.482121" lon="2.152945">
        <ele>-53.80</ele>
        <time>2018-01-02T09:44:03Z</time>
      </trkpt>
      <trkpt lat="41.482108" lon="2.152631">
        <ele>-53.20</ele>
        <time>2018-01-02T09:44:07Z</time>
      </trkpt>
      <trkpt lat="41.482113" lon="2.152486">
        <ele>-53.00</ele>
        <time>2018-01-02T09:44:09Z</time>
      </trkpt>
      <trkpt lat="41.482130" lon="2.152348">
        <ele>-52.20</ele>
        <time>2018-01-02T09:44:11Z</time>
      </trkpt>
      <trkpt lat="41.482185" lon="2.152077">
        <ele>-52.00</ele>
        <time>2018-01-02T09:44:15Z</time>
      </trkpt>
      <trkpt lat="41.482201" lon="2.152005">
        <ele>-51.80</ele>
        <time>2018-01-02T09:44:16Z</time>
      </trkpt>
      <trkpt lat="41.482249" lon="2.151588">
        <ele>-51.20</ele>
        <time>2018-01-02T09:44:22Z</time>
      </trkpt>
      <trkpt lat="41.482264" lon="2.151457">
        <ele>-51.00</ele>
        <time>2018-01-02T09:44:24Z</time>
      </trkpt>
      <trkpt lat="41.482259" lon="2.151188">
        <ele>-50.60</ele>
        <time>2018-01-02T09:44:28Z</time>
      </trkpt>
      <trkpt lat="41.482266" lon="2.151122">
        <ele>-50.00</ele>
        <time>2018-01-02T09:44:29Z</time>
      </trkpt>
      <trkpt lat="41.482285" lon="2.151062">
        <ele>-49.40</ele>
        <time>2018-01-02T09:44:30Z</time>
      </trkpt>
      <trkpt lat="41.482310" lon="2.151013">
        <ele>-49.20</ele>
        <time>2018-01-02T09:44:31Z</time>
      </trkpt>
      <trkpt lat="41.482337" lon="2.150980">
        <ele>-49.00</ele>
        <time>2018-01-02T09:44:32Z</time>
      </trkpt>
      <trkpt lat="41.482377" lon="2.150917">
        <ele>-47.80</ele>
        <time>2018-01-02T09:44:34Z</time>
      </trkpt>
      <trkpt lat="41.482401" lon="2.150840">
        <ele>-46.00</ele>
        <time>2018-01-02T09:44:36Z</time>
      </trkpt>
      <trkpt lat="41.482442" lon="2.150762">
        <ele>-44.60</ele>
        <time>2018-01-02T09:44:38Z</time>
      </trkpt>
      <trkpt lat="41.482496" lon="2.150679">
        <ele>-43.40</ele>
        <time>2018-01-02T09:44:40Z</time>
      </trkpt>
      <trkpt lat="41.482555" lon="2.150587">
        <ele>-41.80</ele>
        <time>2018-01-02T09:44:42Z</time>
      </trkpt>
      <trkpt lat="41.482584" lon="2.150543">
        <ele>-41.20</ele>
        <time>2018-01-02T09:44:43Z</time>
      </trkpt>
      <trkpt lat="41.482612" lon="2.150501">
        <ele>-40.60</ele>
        <time>2018-01-02T09:44:44Z</time>
      </trkpt>
      <trkpt lat="41.482659" lon="2.150435">
        <ele>-39.40</ele>
        <time>2018-01-02T09:44:46Z</time>
      </trkpt>
      <trkpt lat="41.482673" lon="2.150408">
        <ele>-39.00</ele>
        <time>2018-01-02T09:44:47Z</time>
      </trkpt>
      <trkpt lat="41.482688" lon="2.150372">
        <ele>-38.40</ele>
        <time>2018-01-02T09:44:48Z</time>
      </trkpt>
      <trkpt lat="41.482711" lon="2.150339">
        <ele>-37.80</ele>
        <time>2018-01-02T09:44:49Z</time>
      </trkpt>
      <trkpt lat="41.482791" lon="2.150252">
        <ele>-37.00</ele>
        <time>2018-01-02T09:44:52Z</time>
      </trkpt>
      <trkpt lat="41.482807" lon="2.150224">
        <ele>-36.40</ele>
        <time>2018-01-02T09:44:53Z</time>
      </trkpt>
      <trkpt lat="41.482908" lon="2.150085">
        <ele>-36.00</ele>
        <time>2018-01-02T09:44:57Z</time>
      </trkpt>
      <trkpt lat="41.483167" lon="2.149689">
        <ele>-35.80</ele>
        <time>2018-01-02T09:45:05Z</time>
      </trkpt>
      <trkpt lat="41.483309" lon="2.149432">
        <ele>-35.60</ele>
        <time>2018-01-02T09:45:10Z</time>
      </trkpt>
      <trkpt lat="41.483340" lon="2.149390">
        <ele>-36.00</ele>
        <time>2018-01-02T09:45:11Z</time>
      </trkpt>
      <trkpt lat="41.483373" lon="2.149354">
        <ele>-35.80</ele>
        <time>2018-01-02T09:45:12Z</time>
      </trkpt>
      <trkpt lat="41.483424" lon="2.149273">
        <ele>-36.00</ele>
        <time>2018-01-02T09:45:14Z</time>
      </trkpt>
      <trkpt lat="41.483435" lon="2.149223">
        <ele>-36.20</ele>
        <time>2018-01-02T09:45:15Z</time>
      </trkpt>
      <trkpt lat="41.483440" lon="2.148944">
        <ele>-36.80</ele>
        <time>2018-01-02T09:45:20Z</time>
      </trkpt>
      <trkpt lat="41.483437" lon="2.148845">
        <ele>-37.00</ele>
        <time>2018-01-02T09:45:22Z</time>
      </trkpt>
      <trkpt lat="41.483371" lon="2.148633">
        <ele>-37.80</ele>
        <time>2018-01-02T09:45:26Z</time>
      </trkpt>
      <trkpt lat="41.483335" lon="2.148518">
        <ele>-38.00</ele>
        <time>2018-01-02T09:45:28Z</time>
      </trkpt>
      <trkpt lat="41.483317" lon="2.148461">
        <ele>-38.40</ele>
        <time>2018-01-02T09:45:29Z</time>
      </trkpt>
      <trkpt lat="41.483243" lon="2.148232">
        <ele>-39.20</ele>
        <time>2018-01-02T09:45:33Z</time>
      </trkpt>
      <trkpt lat="41.483203" lon="2.148117">
        <ele>-39.80</ele>
        <time>2018-01-02T09:45:35Z</time>
      </trkpt>
      <trkpt lat="41.483164" lon="2.148003">
        <ele>-40.40</ele>
        <time>2018-01-02T09:45:37Z</time>
      </trkpt>
      <trkpt lat="41.483145" lon="2.147944">
        <ele>-40.60</ele>
        <time>2018-01-02T09:45:38Z</time>
      </trkpt>
      <trkpt lat="41.483088" lon="2.147769">
        <ele>-41.60</ele>
        <time>2018-01-02T09:45:41Z</time>
      </trkpt>
      <trkpt lat="41.483047" lon="2.147651">
        <ele>-42.00</ele>
        <time>2018-01-02T09:45:43Z</time>
      </trkpt>
      <trkpt lat="41.483007" lon="2.147534">
        <ele>-42.60</ele>
        <time>2018-01-02T09:45:45Z</time>
      </trkpt>
      <trkpt lat="41.482951" lon="2.147351">
        <ele>-43.60</ele>
        <time>2018-01-02T09:45:48Z</time>
      </trkpt>
      <trkpt lat="41.482887" lon="2.147155">
        <ele>-44.40</ele>
        <time>2018-01-02T09:45:51Z</time>
      </trkpt>
      <trkpt lat="41.482864" lon="2.147087">
        <ele>-44.80</ele>
        <time>2018-01-02T09:45:52Z</time>
      </trkpt>
      <trkpt lat="41.482789" lon="2.146869">
        <ele>-45.40</ele>
        <time>2018-01-02T09:45:55Z</time>
      </trkpt>
      <trkpt lat="41.482683" lon="2.146538">
        <ele>-45.80</ele>
        <time>2018-01-02T09:45:59Z</time>
      </trkpt>
      <trkpt lat="41.482628" lon="2.146362">
        <ele>-46.20</ele>
        <time>2018-01-02T09:46:01Z</time>
      </trkpt>
      <trkpt lat="41.482575" lon="2.146080">
        <ele>-46.40</ele>
        <time>2018-01-02T09:46:04Z</time>
      </trkpt>
      <trkpt lat="41.482565" lon="2.145880">
        <ele>-46.40</ele>
        <time>2018-01-02T09:46:06Z</time>
      </trkpt>
      <trkpt lat="41.482590" lon="2.145578">
        <ele>-46.80</ele>
        <time>2018-01-02T09:46:09Z</time>
      </trkpt>
      <trkpt lat="41.482634" lon="2.145259">
        <ele>-47.00</ele>
        <time>2018-01-02T09:46:12Z</time>
      </trkpt>
      <trkpt lat="41.482690" lon="2.144806">
        <ele>-46.40</ele>
        <time>2018-01-02T09:46:16Z</time>
      </trkpt>
      <trkpt lat="41.482722" lon="2.144573">
        <ele>-46.00</ele>
        <time>2018-01-02T09:46:18Z</time>
      </trkpt>
      <trkpt lat="41.482735" lon="2.144452">
        <ele>-45.60</ele>
        <time>2018-01-02T09:46:19Z</time>
      </trkpt>
      <trkpt lat="41.482770" lon="2.144216">
        <ele>-45.00</ele>
        <time>2018-01-02T09:46:21Z</time>
      </trkpt>
      <trkpt lat="41.482787" lon="2.144100">
        <ele>-44.60</ele>
        <time>2018-01-02T09:46:22Z</time>
      </trkpt>
      <trkpt lat="41.482807" lon="2.143987">
        <ele>-44.20</ele>
        <time>2018-01-02T09:46:23Z</time>
      </trkpt>
      <trkpt lat="41.482826" lon="2.143761">
        <ele>-43.60</ele>
        <time>2018-01-02T09:46:25Z</time>
      </trkpt>
      <trkpt lat="41.482808" lon="2.143653">
        <ele>-43.40</ele>
        <time>2018-01-02T09:46:26Z</time>
      </trkpt>
      <trkpt lat="41.482743" lon="2.143338">
        <ele>-42.40</ele>
        <time>2018-01-02T09:46:29Z</time>
      </trkpt>
      <trkpt lat="41.482787" lon="2.143134">
        <ele>-41.80</ele>
        <time>2018-01-02T09:46:31Z</time>
      </trkpt>
      <trkpt lat="41.482890" lon="2.142985">
        <ele>-41.40</ele>
        <time>2018-01-02T09:46:33Z</time>
      </trkpt>
      <trkpt lat="41.482937" lon="2.142915">
        <ele>-41.20</ele>
        <time>2018-01-02T09:46:34Z</time>
      </trkpt>
      <trkpt lat="41.482973" lon="2.142839">
        <ele>-40.60</ele>
        <time>2018-01-02T09:46:35Z</time>
      </trkpt>
      <trkpt lat="41.483000" lon="2.142670">
        <ele>-40.20</ele>
        <time>2018-01-02T09:46:37Z</time>
      </trkpt>
      <trkpt lat="41.483021" lon="2.142511">
        <ele>-40.00</ele>
        <time>2018-01-02T09:46:39Z</time>
      </trkpt>
      <trkpt lat="41.483074" lon="2.142241">
        <ele>-39.60</ele>
        <time>2018-01-02T09:46:43Z</time>
      </trkpt>
      <trkpt lat="41.483148" lon="2.141825">
        <ele>-39.00</ele>
        <time>2018-01-02T09:46:48Z</time>
      </trkpt>
      <trkpt lat="41.483195" lon="2.141619">
        <ele>-39.00</ele>
        <time>2018-01-02T09:46:50Z</time>
      </trkpt>
      <trkpt lat="41.483348" lon="2.141065">
        <ele>-38.20</ele>
        <time>2018-01-02T09:46:55Z</time>
      </trkpt>
      <trkpt lat="41.483383" lon="2.140946">
        <ele>-37.80</ele>
        <time>2018-01-02T09:46:56Z</time>
      </trkpt>
      <trkpt lat="41.483469" lon="2.140700">
        <ele>-36.80</ele>
        <time>2018-01-02T09:46:58Z</time>
      </trkpt>
      <trkpt lat="41.483517" lon="2.140575">
        <ele>-35.40</ele>
        <time>2018-01-02T09:46:59Z</time>
      </trkpt>
      <trkpt lat="41.483614" lon="2.140339">
        <ele>-34.00</ele>
        <time>2018-01-02T09:47:01Z</time>
      </trkpt>
      <trkpt lat="41.483709" lon="2.140118">
        <ele>-32.60</ele>
        <time>2018-01-02T09:47:03Z</time>
      </trkpt>
      <trkpt lat="41.483806" lon="2.139912">
        <ele>-31.20</ele>
        <time>2018-01-02T09:47:05Z</time>
      </trkpt>
      <trkpt lat="41.483908" lon="2.139719">
        <ele>-29.80</ele>
        <time>2018-01-02T09:47:07Z</time>
      </trkpt>
      <trkpt lat="41.484009" lon="2.139536">
        <ele>-28.60</ele>
        <time>2018-01-02T09:47:09Z</time>
      </trkpt>
      <trkpt lat="41.484117" lon="2.139366">
        <ele>-27.40</ele>
        <time>2018-01-02T09:47:11Z</time>
      </trkpt>
      <trkpt lat="41.484228" lon="2.139196">
        <ele>-26.20</ele>
        <time>2018-01-02T09:47:13Z</time>
      </trkpt>
      <trkpt lat="41.484284" lon="2.139109">
        <ele>-25.80</ele>
        <time>2018-01-02T09:47:14Z</time>
      </trkpt>
      <trkpt lat="41.484338" lon="2.139020">
        <ele>-25.00</ele>
        <time>2018-01-02T09:47:15Z</time>
      </trkpt>
      <trkpt lat="41.484494" lon="2.138759">
        <ele>-23.60</ele>
        <time>2018-01-02T09:47:18Z</time>
      </trkpt>
      <trkpt lat="41.484600" lon="2.138591">
        <ele>-23.20</ele>
        <time>2018-01-02T09:47:20Z</time>
      </trkpt>
      <trkpt lat="41.484761" lon="2.138342">
        <ele>-23.00</ele>
        <time>2018-01-02T09:47:23Z</time>
      </trkpt>
      <trkpt lat="41.484815" lon="2.138257">
        <ele>-23.00</ele>
        <time>2018-01-02T09:47:24Z</time>
      </trkpt>
      <trkpt lat="41.484924" lon="2.138079">
        <ele>-22.40</ele>
        <time>2018-01-02T09:47:26Z</time>
      </trkpt>
      <trkpt lat="41.485033" lon="2.137896">
        <ele>-21.40</ele>
        <time>2018-01-02T09:47:28Z</time>
      </trkpt>
      <trkpt lat="41.485142" lon="2.137716">
        <ele>-20.60</ele>
        <time>2018-01-02T09:47:30Z</time>
      </trkpt>
      <trkpt lat="41.485194" lon="2.137629">
        <ele>-20.20</ele>
        <time>2018-01-02T09:47:31Z</time>
      </trkpt>
      <trkpt lat="41.485347" lon="2.137398">
        <ele>-18.60</ele>
        <time>2018-01-02T09:47:34Z</time>
      </trkpt>
      <trkpt lat="41.485391" lon="2.137327">
        <ele>-18.20</ele>
        <time>2018-01-02T09:47:35Z</time>
      </trkpt>
      <trkpt lat="41.485470" lon="2.137188">
        <ele>-17.60</ele>
        <time>2018-01-02T09:47:37Z</time>
      </trkpt>
      <trkpt lat="41.485613" lon="2.136939">
        <ele>-17.00</ele>
        <time>2018-01-02T09:47:41Z</time>
      </trkpt>
      <trkpt lat="41.485648" lon="2.136880">
        <ele>-16.80</ele>
        <time>2018-01-02T09:47:42Z</time>
      </trkpt>
      <trkpt lat="41.485721" lon="2.136645">
        <ele>-17.00</ele>
        <time>2018-01-02T09:47:46Z</time>
      </trkpt>
      <trkpt lat="41.485770" lon="2.136409">
        <ele>-17.20</ele>
        <time>2018-01-02T09:47:50Z</time>
      </trkpt>
      <trkpt lat="41.485798" lon="2.136357">
        <ele>-17.40</ele>
        <time>2018-01-02T09:47:51Z</time>
      </trkpt>
      <trkpt lat="41.485832" lon="2.136311">
        <ele>-17.40</ele>
        <time>2018-01-02T09:47:52Z</time>
      </trkpt>
      <trkpt lat="41.485906" lon="2.136250">
        <ele>-18.00</ele>
        <time>2018-01-02T09:47:54Z</time>
      </trkpt>
      <trkpt lat="41.485959" lon="2.136111">
        <ele>-18.60</ele>
        <time>2018-01-02T09:47:57Z</time>
      </trkpt>
      <trkpt lat="41.485966" lon="2.136056">
        <ele>-19.00</ele>
        <time>2018-01-02T09:47:58Z</time>
      </trkpt>
      <trkpt lat="41.485944" lon="2.135636">
        <ele>-20.00</ele>
        <time>2018-01-02T09:48:05Z</time>
      </trkpt>
      <trkpt lat="41.485938" lon="2.135509">
        <ele>-20.40</ele>
        <time>2018-01-02T09:48:07Z</time>
      </trkpt>
      <trkpt lat="41.485921" lon="2.135254">
        <ele>-21.00</ele>
        <time>2018-01-02T09:48:11Z</time>
      </trkpt>
      <trkpt lat="41.485893" lon="2.134925">
        <ele>-21.80</ele>
        <time>2018-01-02T09:48:16Z</time>
      </trkpt>
      <trkpt lat="41.485886" lon="2.134863">
        <ele>-22.00</ele>
        <time>2018-01-02T09:48:17Z</time>
      </trkpt>
      <trkpt lat="41.485817" lon="2.134488">
        <ele>-23.00</ele>
        <time>2018-01-02T09:48:23Z</time>
      </trkpt>
      <trkpt lat="41.485801" lon="2.134425">
        <ele>-23.40</ele>
        <time>2018-01-02T09:48:24Z</time>
      </trkpt>
      <trkpt lat="41.485785" lon="2.134360">
        <ele>-23.40</ele>
        <time>2018-01-02T09:48:25Z</time>
      </trkpt>
      <trkpt lat="41.485711" lon="2.134029">
        <ele>-24.20</ele>
        <time>2018-01-02T09:48:30Z</time>
      </trkpt>
      <trkpt lat="41.485684" lon="2.133892">
        <ele>-24.40</ele>
        <time>2018-01-02T09:48:32Z</time>
      </trkpt>
      <trkpt lat="41.485617" lon="2.133462">
        <ele>-25.20</ele>
        <time>2018-01-02T09:48:38Z</time>
      </trkpt>
      <trkpt lat="41.485611" lon="2.133383">
        <ele>-25.20</ele>
        <time>2018-01-02T09:48:39Z</time>
      </trkpt>
      <trkpt lat="41.485608" lon="2.133140">
        <ele>-25.80</ele>
        <time>2018-01-02T09:48:42Z</time>
      </trkpt>
      <trkpt lat="41.485606" lon="2.132981">
        <ele>-25.80</ele>
        <time>2018-01-02T09:48:44Z</time>
      </trkpt>
      <trkpt lat="41.485596" lon="2.132824">
        <ele>-26.00</ele>
        <time>2018-01-02T09:48:46Z</time>
      </trkpt>
      <trkpt lat="41.485572" lon="2.132662">
        <ele>-26.00</ele>
        <time>2018-01-02T09:48:48Z</time>
      </trkpt>
      <trkpt lat="41.485536" lon="2.132505">
        <ele>-26.00</ele>
        <time>2018-01-02T09:48:50Z</time>
      </trkpt>
      <trkpt lat="41.485536" lon="2.132425">
        <ele>-25.80</ele>
        <time>2018-01-02T09:48:51Z</time>
      </trkpt>
      <trkpt lat="41.485556" lon="2.132200">
        <ele>-25.80</ele>
        <time>2018-01-02T09:48:54Z</time>
      </trkpt>
      <trkpt lat="41.485546" lon="2.132125">
        <ele>-25.60</ele>
        <time>2018-01-02T09:48:55Z</time>
      </trkpt>
      <trkpt lat="41.485521" lon="2.131973">
        <ele>-25.40</ele>
        <time>2018-01-02T09:48:57Z</time>
      </trkpt>
      <trkpt lat="41.485488" lon="2.131496">
        <ele>-25.40</ele>
        <time>2018-01-02T09:49:03Z</time>
      </trkpt>
      <trkpt lat="41.485477" lon="2.131339">
        <ele>-25.80</ele>
        <time>2018-01-02T09:49:05Z</time>
      </trkpt>
      <trkpt lat="41.485464" lon="2.131104">
        <ele>-26.20</ele>
        <time>2018-01-02T09:49:08Z</time>
      </trkpt>
      <trkpt lat="41.485474" lon="2.130773">
        <ele>-26.60</ele>
        <time>2018-01-02T09:49:12Z</time>
      </trkpt>
      <trkpt lat="41.485495" lon="2.130427">
        <ele>-26.40</ele>
        <time>2018-01-02T09:49:16Z</time>
      </trkpt>
      <trkpt lat="41.485504" lon="2.130340">
        <ele>-26.40</ele>
        <time>2018-01-02T09:49:17Z</time>
      </trkpt>
      <trkpt lat="41.485518" lon="2.130254">
        <ele>-26.20</ele>
        <time>2018-01-02T09:49:18Z</time>
      </trkpt>
      <trkpt lat="41.485530" lon="2.130169">
        <ele>-26.00</ele>
        <time>2018-01-02T09:49:19Z</time>
      </trkpt>
      <trkpt lat="41.485532" lon="2.129827">
        <ele>-26.00</ele>
        <time>2018-01-02T09:49:23Z</time>
      </trkpt>
      <trkpt lat="41.485527" lon="2.129659">
        <ele>-26.00</ele>
        <time>2018-01-02T09:49:25Z</time>
      </trkpt>
      <trkpt lat="41.485512" lon="2.129319">
        <ele>-25.80</ele>
        <time>2018-01-02T09:49:29Z</time>
      </trkpt>
      <trkpt lat="41.485495" lon="2.129066">
        <ele>-25.80</ele>
        <time>2018-01-02T09:49:32Z</time>
      </trkpt>
      <trkpt lat="41.485488" lon="2.128982">
        <ele>-25.60</ele>
        <time>2018-01-02T09:49:33Z</time>
      </trkpt>
      <trkpt lat="41.485460" lon="2.128745">
        <ele>-25.60</ele>
        <time>2018-01-02T09:49:36Z</time>
      </trkpt>
      <trkpt lat="41.485391" lon="2.128620">
        <ele>-25.60</ele>
        <time>2018-01-02T09:49:38Z</time>
      </trkpt>
      <trkpt lat="41.485333" lon="2.128585">
        <ele>-25.40</ele>
        <time>2018-01-02T09:49:39Z</time>
      </trkpt>
      <trkpt lat="41.485269" lon="2.128562">
        <ele>-25.20</ele>
        <time>2018-01-02T09:49:40Z</time>
      </trkpt>
      <trkpt lat="41.485089" lon="2.128437">
        <ele>-25.20</ele>
        <time>2018-01-02T09:49:43Z</time>
      </trkpt>
      <trkpt lat="41.485048" lon="2.128368">
        <ele>-25.00</ele>
        <time>2018-01-02T09:49:44Z</time>
      </trkpt>
      <trkpt lat="41.485002" lon="2.128198">
        <ele>-24.80</ele>
        <time>2018-01-02T09:49:46Z</time>
      </trkpt>
      <trkpt lat="41.485011" lon="2.128032">
        <ele>-24.60</ele>
        <time>2018-01-02T09:49:48Z</time>
      </trkpt>
      <trkpt lat="41.485059" lon="2.127892">
        <ele>-24.20</ele>
        <time>2018-01-02T09:49:50Z</time>
      </trkpt>
      <trkpt lat="41.485091" lon="2.127831">
        <ele>-24.00</ele>
        <time>2018-01-02T09:49:51Z</time>
      </trkpt>
      <trkpt lat="41.485147" lon="2.127732">
        <ele>-24.00</ele>
        <time>2018-01-02T09:49:53Z</time>
      </trkpt>
      <trkpt lat="41.485186" lon="2.127646">
        <ele>-23.20</ele>
        <time>2018-01-02T09:49:55Z</time>
      </trkpt>
      <trkpt lat="41.485207" lon="2.127458">
        <ele>-22.80</ele>
        <time>2018-01-02T09:49:59Z</time>
      </trkpt>
      <trkpt lat="41.485159" lon="2.127025">
        <ele>-22.00</ele>
        <time>2018-01-02T09:50:04Z</time>
      </trkpt>
      <trkpt lat="41.485132" lon="2.126759">
        <ele>-21.40</ele>
        <time>2018-01-02T09:50:07Z</time>
      </trkpt>
      <trkpt lat="41.485112" lon="2.126402">
        <ele>-20.80</ele>
        <time>2018-01-02T09:50:11Z</time>
      </trkpt>
      <trkpt lat="41.485110" lon="2.126313">
        <ele>-20.80</ele>
        <time>2018-01-02T09:50:12Z</time>
      </trkpt>
      <trkpt lat="41.485109" lon="2.126037">
        <ele>-20.80</ele>
        <time>2018-01-02T09:50:15Z</time>
      </trkpt>
      <trkpt lat="41.485109" lon="2.125850">
        <ele>-20.60</ele>
        <time>2018-01-02T09:50:17Z</time>
      </trkpt>
      <trkpt lat="41.485138" lon="2.125350">
        <ele>-20.00</ele>
        <time>2018-01-02T09:50:22Z</time>
      </trkpt>
      <trkpt lat="41.485149" lon="2.125248">
        <ele>-19.80</ele>
        <time>2018-01-02T09:50:23Z</time>
      </trkpt>
      <trkpt lat="41.485162" lon="2.125145">
        <ele>-19.60</ele>
        <time>2018-01-02T09:50:24Z</time>
      </trkpt>
      <trkpt lat="41.485203" lon="2.124844">
        <ele>-18.60</ele>
        <time>2018-01-02T09:50:27Z</time>
      </trkpt>
      <trkpt lat="41.485256" lon="2.124543">
        <ele>-17.60</ele>
        <time>2018-01-02T09:50:30Z</time>
      </trkpt>
      <trkpt lat="41.485323" lon="2.124248">
        <ele>-17.20</ele>
        <time>2018-01-02T09:50:33Z</time>
      </trkpt>
      <trkpt lat="41.485417" lon="2.123873">
        <ele>-16.00</ele>
        <time>2018-01-02T09:50:37Z</time>
      </trkpt>
      <trkpt lat="41.485497" lon="2.123626">
        <ele>-15.20</ele>
        <time>2018-01-02T09:50:40Z</time>
      </trkpt>
      <trkpt lat="41.485587" lon="2.123306">
        <ele>-14.80</ele>
        <time>2018-01-02T09:50:44Z</time>
      </trkpt>
      <trkpt lat="41.485649" lon="2.123081">
        <ele>-14.80</ele>
        <time>2018-01-02T09:50:47Z</time>
      </trkpt>
      <trkpt lat="41.485708" lon="2.122863">
        <ele>-15.00</ele>
        <time>2018-01-02T09:50:50Z</time>
      </trkpt>
      <trkpt lat="41.485727" lon="2.122790">
        <ele>-15.20</ele>
        <time>2018-01-02T09:50:51Z</time>
      </trkpt>
      <trkpt lat="41.485767" lon="2.122648">
        <ele>-15.40</ele>
        <time>2018-01-02T09:50:53Z</time>
      </trkpt>
      <trkpt lat="41.485802" lon="2.122511">
        <ele>-15.60</ele>
        <time>2018-01-02T09:50:55Z</time>
      </trkpt>
      <trkpt lat="41.485806" lon="2.122441">
        <ele>-15.80</ele>
        <time>2018-01-02T09:50:56Z</time>
      </trkpt>
      <trkpt lat="41.485797" lon="2.122372">
        <ele>-16.20</ele>
        <time>2018-01-02T09:50:57Z</time>
      </trkpt>
      <trkpt lat="41.485776" lon="2.122306">
        <ele>-16.20</ele>
        <time>2018-01-02T09:50:58Z</time>
      </trkpt>
      <trkpt lat="41.485716" lon="2.122180">
        <ele>-16.40</ele>
        <time>2018-01-02T09:51:00Z</time>
      </trkpt>
      <trkpt lat="41.485680" lon="2.121873">
        <ele>-16.60</ele>
        <time>2018-01-02T09:51:04Z</time>
      </trkpt>
      <trkpt lat="41.485749" lon="2.121649">
        <ele>-16.60</ele>
        <time>2018-01-02T09:51:07Z</time>
      </trkpt>
      <trkpt lat="41.485888" lon="2.121495">
        <ele>-16.20</ele>
        <time>2018-01-02T09:51:10Z</time>
      </trkpt>
      <trkpt lat="41.485943" lon="2.121461">
        <ele>-15.80</ele>
        <time>2018-01-02T09:51:11Z</time>
      </trkpt>
      <trkpt lat="41.485990" lon="2.121413">
        <ele>-15.40</ele>
        <time>2018-01-02T09:51:12Z</time>
      </trkpt>
      <trkpt lat="41.486031" lon="2.121261">
        <ele>-15.00</ele>
        <time>2018-01-02T09:51:14Z</time>
      </trkpt>
      <trkpt lat="41.486059" lon="2.121079">
        <ele>-14.80</ele>
        <time>2018-01-02T09:51:16Z</time>
      </trkpt>
      <trkpt lat="41.486087" lon="2.120795">
        <ele>-14.00</ele>
        <time>2018-01-02T09:51:19Z</time>
      </trkpt>
      <trkpt lat="41.486093" lon="2.120700">
        <ele>-13.80</ele>
        <time>2018-01-02T09:51:20Z</time>
      </trkpt>
      <trkpt lat="41.486102" lon="2.120421">
        <ele>-13.00</ele>
        <time>2018-01-02T09:51:23Z</time>
      </trkpt>
      <trkpt lat="41.486102" lon="2.120326">
        <ele>-12.20</ele>
        <time>2018-01-02T09:51:24Z</time>
      </trkpt>
      <trkpt lat="41.486102" lon="2.120229">
        <ele>-11.80</ele>
        <time>2018-01-02T09:51:25Z</time>
      </trkpt>
      <trkpt lat="41.486096" lon="2.120028">
        <ele>-10.80</ele>
        <time>2018-01-02T09:51:27Z</time>
      </trkpt>
      <trkpt lat="41.486087" lon="2.119835">
        <ele>-9.60</ele>
        <time>2018-01-02T09:51:29Z</time>
      </trkpt>
      <trkpt lat="41.486071" lon="2.119653">
        <ele>-9.00</ele>
        <time>2018-01-02T09:51:31Z</time>
      </trkpt>
      <trkpt lat="41.486062" lon="2.119563">
        <ele>-8.60</ele>
        <time>2018-01-02T09:51:32Z</time>
      </trkpt>
      <trkpt lat="41.486030" lon="2.119298">
        <ele>-7.40</ele>
        <time>2018-01-02T09:51:35Z</time>
      </trkpt>
      <trkpt lat="41.486000" lon="2.119124">
        <ele>-6.80</ele>
        <time>2018-01-02T09:51:37Z</time>
      </trkpt>
      <trkpt lat="41.485963" lon="2.118951">
        <ele>-6.40</ele>
        <time>2018-01-02T09:51:39Z</time>
      </trkpt>
      <trkpt lat="41.485943" lon="2.118868">
        <ele>-6.00</ele>
        <time>2018-01-02T09:51:40Z</time>
      </trkpt>
      <trkpt lat="41.485845" lon="2.118474">
        <ele>-5.20</ele>
        <time>2018-01-02T09:51:45Z</time>
      </trkpt>
      <trkpt lat="41.485668" lon="2.117764">
        <ele>-4.80</ele>
        <time>2018-01-02T09:51:55Z</time>
      </trkpt>
      <trkpt lat="41.485620" lon="2.117561">
        <ele>-5.00</ele>
        <time>2018-01-02T09:51:58Z</time>
      </trkpt>
      <trkpt lat="41.485523" lon="2.117186">
        <ele>-6.00</ele>
        <time>2018-01-02T09:52:04Z</time>
      </trkpt>
      <trkpt lat="41.485492" lon="2.117068">
        <ele>-6.40</ele>
        <time>2018-01-02T09:52:06Z</time>
      </trkpt>
      <trkpt lat="41.485416" lon="2.116776">
        <ele>-7.20</ele>
        <time>2018-01-02T09:52:11Z</time>
      </trkpt>
      <trkpt lat="41.485370" lon="2.116605">
        <ele>-7.80</ele>
        <time>2018-01-02T09:52:14Z</time>
      </trkpt>
      <trkpt lat="41.485356" lon="2.116548">
        <ele>-8.00</ele>
        <time>2018-01-02T09:52:15Z</time>
      </trkpt>
      <trkpt lat="41.485325" lon="2.116431">
        <ele>-8.20</ele>
        <time>2018-01-02T09:52:17Z</time>
      </trkpt>
      <trkpt lat="41.485240" lon="2.116076">
        <ele>-9.40</ele>
        <time>2018-01-02T09:52:23Z</time>
      </trkpt>
      <trkpt lat="41.485218" lon="2.115950">
        <ele>-9.80</ele>
        <time>2018-01-02T09:52:25Z</time>
      </trkpt>
      <trkpt lat="41.485192" lon="2.115764">
        <ele>-10.40</ele>
        <time>2018-01-02T09:52:28Z</time>
      </trkpt>
      <trkpt lat="41.485168" lon="2.115444">
        <ele>-11.60</ele>
        <time>2018-01-02T09:52:33Z</time>
      </trkpt>
      <trkpt lat="41.485167" lon="2.115378">
        <ele>-11.80</ele>
        <time>2018-01-02T09:52:34Z</time>
      </trkpt>
      <trkpt lat="41.485140" lon="2.115188">
        <ele>-12.60</ele>
        <time>2018-01-02T09:52:37Z</time>
      </trkpt>
      <trkpt lat="41.485110" lon="2.115136">
        <ele>-12.80</ele>
        <time>2018-01-02T09:52:38Z</time>
      </trkpt>
      <trkpt lat="41.484989" lon="2.114918">
        <ele>-13.20</ele>
        <time>2018-01-02T09:52:42Z</time>
      </trkpt>
      <trkpt lat="41.484979" lon="2.114635">
        <ele>-13.80</ele>
        <time>2018-01-02T09:52:46Z</time>
      </trkpt>
      <trkpt lat="41.485022" lon="2.114493">
        <ele>-13.60</ele>
        <time>2018-01-02T09:52:48Z</time>
      </trkpt>
      <trkpt lat="41.485100" lon="2.114367">
        <ele>-13.40</ele>
        <time>2018-01-02T09:52:50Z</time>
      </trkpt>
      <trkpt lat="41.485156" lon="2.114232">
        <ele>-13.20</ele>
        <time>2018-01-02T09:52:52Z</time>
      </trkpt>
      <trkpt lat="41.485078" lon="2.113789">
        <ele>-13.20</ele>
        <time>2018-01-02T09:52:57Z</time>
      </trkpt>
      <trkpt lat="41.485051" lon="2.113698">
        <ele>-13.20</ele>
        <time>2018-01-02T09:52:58Z</time>
      </trkpt>
      <trkpt lat="41.484783" lon="2.112983">
        <ele>-12.80</ele>
        <time>2018-01-02T09:53:06Z</time>
      </trkpt>
      <trkpt lat="41.484711" lon="2.112797">
        <ele>-12.60</ele>
        <time>2018-01-02T09:53:08Z</time>
      </trkpt>
      <trkpt lat="41.484676" lon="2.112704">
        <ele>-12.40</ele>
        <time>2018-01-02T09:53:09Z</time>
      </trkpt>
      <trkpt lat="41.484422" lon="2.112051">
        <ele>-11.60</ele>
        <time>2018-01-02T09:53:16Z</time>
      </trkpt>
      <trkpt lat="41.484386" lon="2.111954">
        <ele>-11.60</ele>
        <time>2018-01-02T09:53:17Z</time>
      </trkpt>
      <trkpt lat="41.484175" lon="2.111391">
        <ele>-10.80</ele>
        <time>2018-01-02T09:53:23Z</time>
      </trkpt>
      <trkpt lat="41.484141" lon="2.111303">
        <ele>-10.60</ele>
        <time>2018-01-02T09:53:24Z</time>
      </trkpt>
      <trkpt lat="41.484002" lon="2.110937">
        <ele>-9.20</ele>
        <time>2018-01-02T09:53:28Z</time>
      </trkpt>
      <trkpt lat="41.483896" lon="2.110667">
        <ele>-8.60</ele>
        <time>2018-01-02T09:53:31Z</time>
      </trkpt>
      <trkpt lat="41.483722" lon="2.110228">
        <ele>-8.00</ele>
        <time>2018-01-02T09:53:36Z</time>
      </trkpt>
      <trkpt lat="41.483653" lon="2.110053">
        <ele>-7.80</ele>
        <time>2018-01-02T09:53:38Z</time>
      </trkpt>
      <trkpt lat="41.483616" lon="2.109962">
        <ele>-7.60</ele>
        <time>2018-01-02T09:53:39Z</time>
      </trkpt>
      <trkpt lat="41.483359" lon="2.109275">
        <ele>-7.00</ele>
        <time>2018-01-02T09:53:47Z</time>
      </trkpt>
      <trkpt lat="41.483237" lon="2.108925">
        <ele>-7.00</ele>
        <time>2018-01-02T09:53:51Z</time>
      </trkpt>
      <trkpt lat="41.483085" lon="2.108471">
        <ele>-6.60</ele>
        <time>2018-01-02T09:53:56Z</time>
      </trkpt>
      <trkpt lat="41.482909" lon="2.107890">
        <ele>-5.80</ele>
        <time>2018-01-02T09:54:02Z</time>
      </trkpt>
      <trkpt lat="41.482791" lon="2.107480">
        <ele>-5.00</ele>
        <time>2018-01-02T09:54:06Z</time>
      </trkpt>
      <trkpt lat="41.482763" lon="2.107377">
        <ele>-4.80</ele>
        <time>2018-01-02T09:54:07Z</time>
      </trkpt>
      <trkpt lat="41.482664" lon="2.106987">
        <ele>-3.60</ele>
        <time>2018-01-02T09:54:11Z</time>
      </trkpt>
      <trkpt lat="41.482601" lon="2.106710">
        <ele>-2.60</ele>
        <time>2018-01-02T09:54:14Z</time>
      </trkpt>
      <trkpt lat="41.482579" lon="2.106618">
        <ele>-2.40</ele>
        <time>2018-01-02T09:54:15Z</time>
      </trkpt>
      <trkpt lat="41.482506" lon="2.106265">
        <ele>-1.20</ele>
        <time>2018-01-02T09:54:19Z</time>
      </trkpt>
      <trkpt lat="41.482454" lon="2.106016">
        <ele>-0.60</ele>
        <time>2018-01-02T09:54:22Z</time>
      </trkpt>
      <trkpt lat="41.482422" lon="2.105857">
        <ele>-0.20</ele>
        <time>2018-01-02T09:54:24Z</time>
      </trkpt>
      <trkpt lat="41.482333" lon="2.105422">
        <ele>0.00</ele>
        <time>2018-01-02T09:54:30Z</time>
      </trkpt>
      <trkpt lat="41.482311" lon="2.105286">
        <ele>0.00</ele>
        <time>2018-01-02T09:54:32Z</time>
      </trkpt>
      <trkpt lat="41.482301" lon="2.105220">
        <ele>0.00</ele>
        <time>2018-01-02T09:54:33Z</time>
      </trkpt>
      <trkpt lat="41.482275" lon="2.105093">
        <ele>-0.20</ele>
        <time>2018-01-02T09:54:35Z</time>
      </trkpt>
      <trkpt lat="41.482252" lon="2.104967">
        <ele>-0.60</ele>
        <time>2018-01-02T09:54:37Z</time>
      </trkpt>
      <trkpt lat="41.482212" lon="2.104780">
        <ele>-1.00</ele>
        <time>2018-01-02T09:54:40Z</time>
      </trkpt>
      <trkpt lat="41.482177" lon="2.104593">
        <ele>-1.40</ele>
        <time>2018-01-02T09:54:43Z</time>
      </trkpt>
      <trkpt lat="41.482165" lon="2.104531">
        <ele>-1.60</ele>
        <time>2018-01-02T09:54:44Z</time>
      </trkpt>
      <trkpt lat="41.482102" lon="2.104283">
        <ele>-2.60</ele>
        <time>2018-01-02T09:54:48Z</time>
      </trkpt>
      <trkpt lat="41.482061" lon="2.104160">
        <ele>-3.00</ele>
        <time>2018-01-02T09:54:50Z</time>
      </trkpt>
      <trkpt lat="41.482009" lon="2.104033">
        <ele>-3.60</ele>
        <time>2018-01-02T09:54:52Z</time>
      </trkpt>
      <trkpt lat="41.481878" lon="2.103780">
        <ele>-4.00</ele>
        <time>2018-01-02T09:54:56Z</time>
      </trkpt>
      <trkpt lat="41.481621" lon="2.103412">
        <ele>-3.80</ele>
        <time>2018-01-02T09:55:02Z</time>
      </trkpt>
      <trkpt lat="41.481478" lon="2.103242">
        <ele>-3.80</ele>
        <time>2018-01-02T09:55:05Z</time>
      </trkpt>
      <trkpt lat="41.481380" lon="2.103133">
        <ele>-3.40</ele>
        <time>2018-01-02T09:55:07Z</time>
      </trkpt>
      <trkpt lat="41.481233" lon="2.102977">
        <ele>-3.00</ele>
        <time>2018-01-02T09:55:10Z</time>
      </trkpt>
      <trkpt lat="41.481185" lon="2.102927">
        <ele>-3.00</ele>
        <time>2018-01-02T09:55:11Z</time>
      </trkpt>
      <trkpt lat="41.481046" lon="2.102824">
        <ele>-3.00</ele>
        <time>2018-01-02T09:55:14Z</time>
      </trkpt>
      <trkpt lat="41.480996" lon="2.102817">
        <ele>-3.00</ele>
        <time>2018-01-02T09:55:15Z</time>
      </trkpt>
      <trkpt lat="41.480943" lon="2.102822">
        <ele>-3.00</ele>
        <time>2018-01-02T09:55:16Z</time>
      </trkpt>
      <trkpt lat="41.480833" lon="2.102845">
        <ele>-3.20</ele>
        <time>2018-01-02T09:55:18Z</time>
      </trkpt>
      <trkpt lat="41.480775" lon="2.102842">
        <ele>-3.40</ele>
        <time>2018-01-02T09:55:19Z</time>
      </trkpt>
      <trkpt lat="41.480608" lon="2.102773">
        <ele>-3.60</ele>
        <time>2018-01-02T09:55:22Z</time>
      </trkpt>
      <trkpt lat="41.480557" lon="2.102729">
        <ele>-3.60</ele>
        <time>2018-01-02T09:55:23Z</time>
      </trkpt>
      <trkpt lat="41.480447" lon="2.102532">
        <ele>-3.00</ele>
        <time>2018-01-02T09:55:26Z</time>
      </trkpt>
      <trkpt lat="41.480412" lon="2.102305">
        <ele>-2.60</ele>
        <time>2018-01-02T09:55:29Z</time>
      </trkpt>
      <trkpt lat="41.480416" lon="2.102229">
        <ele>-2.40</ele>
        <time>2018-01-02T09:55:30Z</time>
      </trkpt>
      <trkpt lat="41.480386" lon="2.102088">
        <ele>-1.80</ele>
        <time>2018-01-02T09:55:32Z</time>
      </trkpt>
      <trkpt lat="41.480298" lon="2.101982">
        <ele>-1.60</ele>
        <time>2018-01-02T09:55:34Z</time>
      </trkpt>
      <trkpt lat="41.480248" lon="2.101929">
        <ele>-1.40</ele>
        <time>2018-01-02T09:55:35Z</time>
      </trkpt>
      <trkpt lat="41.480199" lon="2.101876">
        <ele>-1.20</ele>
        <time>2018-01-02T09:55:36Z</time>
      </trkpt>
      <trkpt lat="41.479893" lon="2.101542">
        <ele>-1.00</ele>
        <time>2018-01-02T09:55:42Z</time>
      </trkpt>
      <trkpt lat="41.479611" lon="2.101174">
        <ele>-0.40</ele>
        <time>2018-01-02T09:55:48Z</time>
      </trkpt>
      <trkpt lat="41.479481" lon="2.100983">
        <ele>0.00</ele>
        <time>2018-01-02T09:55:51Z</time>
      </trkpt>
      <trkpt lat="41.479441" lon="2.100919">
        <ele>0.00</ele>
        <time>2018-01-02T09:55:52Z</time>
      </trkpt>
      <trkpt lat="41.479107" lon="2.100323">
        <ele>0.20</ele>
        <time>2018-01-02T09:56:01Z</time>
      </trkpt>
      <trkpt lat="41.478932" lon="2.099959">
        <ele>0.80</ele>
        <time>2018-01-02T09:56:06Z</time>
      </trkpt>
      <trkpt lat="41.478865" lon="2.099809">
        <ele>1.00</ele>
        <time>2018-01-02T09:56:08Z</time>
      </trkpt>
      <trkpt lat="41.478764" lon="2.099581">
        <ele>1.20</ele>
        <time>2018-01-02T09:56:11Z</time>
      </trkpt>
      <trkpt lat="41.478584" lon="2.099174">
        <ele>2.00</ele>
        <time>2018-01-02T09:56:16Z</time>
      </trkpt>
      <trkpt lat="41.478504" lon="2.098996">
        <ele>2.40</ele>
        <time>2018-01-02T09:56:18Z</time>
      </trkpt>
      <trkpt lat="41.478442" lon="2.098856">
        <ele>2.80</ele>
        <time>2018-01-02T09:56:20Z</time>
      </trkpt>
      <trkpt lat="41.478413" lon="2.098787">
        <ele>3.00</ele>
        <time>2018-01-02T09:56:21Z</time>
      </trkpt>
      <trkpt lat="41.478306" lon="2.098533">
        <ele>3.60</ele>
        <time>2018-01-02T09:56:25Z</time>
      </trkpt>
      <trkpt lat="41.478261" lon="2.098419">
        <ele>3.80</ele>
        <time>2018-01-02T09:56:27Z</time>
      </trkpt>
      <trkpt lat="41.478202" lon="2.098274">
        <ele>3.60</ele>
        <time>2018-01-02T09:56:30Z</time>
      </trkpt>
      <trkpt lat="41.478148" lon="2.098183">
        <ele>3.40</ele>
        <time>2018-01-02T09:56:34Z</time>
      </trkpt>
      <trkpt lat="41.478134" lon="2.098103">
        <ele>4.00</ele>
        <time>2018-01-02T09:56:37Z</time>
      </trkpt>
      <trkpt lat="41.478140" lon="2.098050">
        <ele>4.00</ele>
        <time>2018-01-02T09:56:38Z</time>
      </trkpt>
      <trkpt lat="41.478083" lon="2.097869">
        <ele>4.00</ele>
        <time>2018-01-02T09:56:41Z</time>
      </trkpt>
      <trkpt lat="41.477900" lon="2.097462">
        <ele>4.20</ele>
        <time>2018-01-02T09:56:48Z</time>
      </trkpt>
      <trkpt lat="41.477877" lon="2.097409">
        <ele>4.20</ele>
        <time>2018-01-02T09:56:49Z</time>
      </trkpt>
      <trkpt lat="41.477795" lon="2.097234">
        <ele>4.20</ele>
        <time>2018-01-02T09:56:53Z</time>
      </trkpt>
      <trkpt lat="41.477775" lon="2.097189">
        <ele>4.20</ele>
        <time>2018-01-02T09:56:55Z</time>
      </trkpt>
      <trkpt lat="41.477769" lon="2.097168">
        <ele>4.60</ele>
        <time>2018-01-02T09:56:59Z</time>
      </trkpt>
      <trkpt lat="41.477749" lon="2.097148">
        <ele>4.60</ele>
        <time>2018-01-02T09:57:02Z</time>
      </trkpt>
      <trkpt lat="41.477502" lon="2.096970">
        <ele>5.20</ele>
        <time>2018-01-02T09:57:08Z</time>
      </trkpt>
      <trkpt lat="41.477383" lon="2.096920">
        <ele>4.80</ele>
        <time>2018-01-02T09:57:11Z</time>
      </trkpt>
      <trkpt lat="41.477320" lon="2.096897">
        <ele>4.80</ele>
        <time>2018-01-02T09:57:13Z</time>
      </trkpt>
      <trkpt lat="41.477232" lon="2.096897">
        <ele>4.60</ele>
        <time>2018-01-02T09:57:17Z</time>
      </trkpt>
      <trkpt lat="41.477203" lon="2.096902">
        <ele>4.40</ele>
        <time>2018-01-02T09:57:18Z</time>
      </trkpt>
      <trkpt lat="41.477128" lon="2.096866">
        <ele>4.60</ele>
        <time>2018-01-02T09:57:21Z</time>
      </trkpt>
      <trkpt lat="41.477115" lon="2.096855">
        <ele>4.80</ele>
        <time>2018-01-02T09:57:22Z</time>
      </trkpt>
      <trkpt lat="41.477066" lon="2.096748">
        <ele>4.80</ele>
        <time>2018-01-02T09:57:25Z</time>
      </trkpt>
      <trkpt lat="41.477037" lon="2.096515">
        <ele>4.80</ele>
        <time>2018-01-02T09:57:29Z</time>
      </trkpt>
      <trkpt lat="41.476889" lon="2.096356">
        <ele>4.40</ele>
        <time>2018-01-02T09:57:34Z</time>
      </trkpt>
      <trkpt lat="41.476814" lon="2.096312">
        <ele>4.20</ele>
        <time>2018-01-02T09:57:36Z</time>
      </trkpt>
      <trkpt lat="41.476777" lon="2.096292">
        <ele>3.80</ele>
        <time>2018-01-02T09:57:37Z</time>
      </trkpt>
      <trkpt lat="41.476689" lon="2.096235">
        <ele>3.00</ele>
        <time>2018-01-02T09:57:40Z</time>
      </trkpt>
      <trkpt lat="41.476571" lon="2.096155">
        <ele>2.20</ele>
        <time>2018-01-02T09:57:44Z</time>
      </trkpt>
      <trkpt lat="41.476471" lon="2.096100">
        <ele>1.60</ele>
        <time>2018-01-02T09:57:47Z</time>
      </trkpt>
      <trkpt lat="41.476358" lon="2.096032">
        <ele>0.80</ele>
        <time>2018-01-02T09:57:50Z</time>
      </trkpt>
      <trkpt lat="41.476291" lon="2.096000">
        <ele>0.40</ele>
        <time>2018-01-02T09:57:52Z</time>
      </trkpt>
      <trkpt lat="41.476156" lon="2.095922">
        <ele>0.00</ele>
        <time>2018-01-02T09:57:55Z</time>
      </trkpt>
      <trkpt lat="41.476063" lon="2.095863">
        <ele>0.00</ele>
        <time>2018-01-02T09:57:57Z</time>
      </trkpt>
      <trkpt lat="41.476069" lon="2.095841">
        <ele>-0.40</ele>
        <time>2018-01-02T09:57:59Z</time>
      </trkpt>
      <trkpt lat="41.476075" lon="2.095816">
        <ele>-0.40</ele>
        <time>2018-01-02T09:58:00Z</time>
      </trkpt>
      <trkpt lat="41.476038" lon="2.095681">
        <ele>-0.20</ele>
        <time>2018-01-02T09:58:03Z</time>
      </trkpt>
      <trkpt lat="41.476046" lon="2.095631">
        <ele>-0.20</ele>
        <time>2018-01-02T09:58:04Z</time>
      </trkpt>
      <trkpt lat="41.476157" lon="2.095456">
        <ele>-0.20</ele>
        <time>2018-01-02T09:58:08Z</time>
      </trkpt>
      <trkpt lat="41.476356" lon="2.095109">
        <ele>0.20</ele>
        <time>2018-01-02T09:58:15Z</time>
      </trkpt>
      <trkpt lat="41.476395" lon="2.095067">
        <ele>-0.60</ele>
        <time>2018-01-02T09:58:16Z</time>
      </trkpt>
      <trkpt lat="41.476428" lon="2.095021">
        <ele>-2.00</ele>
        <time>2018-01-02T09:58:17Z</time>
      </trkpt>
      <trkpt lat="41.476544" lon="2.094852">
        <ele>0.00</ele>
        <time>2018-01-02T09:58:21Z</time>
      </trkpt>
      <trkpt lat="41.476553" lon="2.094806">
        <ele>0.00</ele>
        <time>2018-01-02T09:58:22Z</time>
      </trkpt>
    </trkseg>
  </trk>
</gpx>
